<?xml version="1.0" encoding="UTF-8" standalone="no" ?>
<gpx xmlns="http://www.topografix.com/GPX/1/1" xmlns:xsi="http://www.w3.org/2001/XMLSchema-instance" xsi:schemaLocation="http://www.topografix.com/GPX/1/1 http://www.topografix.com/GPX/1/1/gpx.xsd" version="1.1" creator="VisuGPX - https://www.visugpx.com">
  <metadata>
    <name>2018-09-13 Bike ride-Ambérieux-Rancé O via Neuville v38k</name>
    <desc><![CDATA[2018-09-13 Bike ride-Ambérieux-Rancé O via Neuville v38k]]></desc>
  </metadata>
  <wpt lat="45.92462" lon="4.73715">
    <ele>174</ele>
    <name><![CDATA[2018-09-13 10:33 (Start)]]></name>
  </wpt>
  <wpt lat="45.92457" lon="4.73711">
    <ele>174</ele>
    <name><![CDATA[2018-09-13 10:33 (End)]]></name>
  </wpt>
  <trk>
    <name><![CDATA[2018-09-13 10:33]]></name>
    <trkseg>
      <trkpt lat="45.92462" lon="4.73715">
        <ele>174</ele>
        <time>2018-09-13T08:33:37.828Z</time>
      </trkpt>
      <trkpt lat="45.92462" lon="4.73712">
        <ele>174</ele>
        <time>2018-09-13T08:33:43Z</time>
      </trkpt>
      <trkpt lat="45.92462" lon="4.73712">
        <ele>174</ele>
        <time>2018-09-13T08:33:44Z</time>
      </trkpt>
      <trkpt lat="45.92463" lon="4.73712">
        <ele>174</ele>
        <time>2018-09-13T08:33:52Z</time>
      </trkpt>
      <trkpt lat="45.92463" lon="4.73712">
        <ele>174</ele>
        <time>2018-09-13T08:33:53Z</time>
      </trkpt>
      <trkpt lat="45.9247" lon="4.73705">
        <ele>174</ele>
        <time>2018-09-13T08:34:04Z</time>
      </trkpt>
      <trkpt lat="45.92471" lon="4.73702">
        <ele>174</ele>
        <time>2018-09-13T08:34:05Z</time>
      </trkpt>
      <trkpt lat="45.92472" lon="4.73693">
        <ele>174</ele>
        <time>2018-09-13T08:34:08Z</time>
      </trkpt>
      <trkpt lat="45.92472" lon="4.7369">
        <ele>174</ele>
        <time>2018-09-13T08:34:09Z</time>
      </trkpt>
      <trkpt lat="45.92473" lon="4.73681">
        <ele>174</ele>
        <time>2018-09-13T08:34:11Z</time>
      </trkpt>
      <trkpt lat="45.92474" lon="4.73677">
        <ele>174</ele>
        <time>2018-09-13T08:34:12Z</time>
      </trkpt>
      <trkpt lat="45.92476" lon="4.73662">
        <ele>174</ele>
        <time>2018-09-13T08:34:13Z</time>
      </trkpt>
      <trkpt lat="45.92476" lon="4.73652">
        <ele>174</ele>
        <time>2018-09-13T08:34:15Z</time>
      </trkpt>
      <trkpt lat="45.92477" lon="4.73649">
        <ele>174</ele>
        <time>2018-09-13T08:34:16Z</time>
      </trkpt>
      <trkpt lat="45.9248" lon="4.73641">
        <ele>174</ele>
        <time>2018-09-13T08:34:19Z</time>
      </trkpt>
      <trkpt lat="45.92487" lon="4.73637">
        <ele>174</ele>
        <time>2018-09-13T08:34:20Z</time>
      </trkpt>
      <trkpt lat="45.92494" lon="4.73637">
        <ele>174</ele>
        <time>2018-09-13T08:34:22Z</time>
      </trkpt>
      <trkpt lat="45.92499" lon="4.73637">
        <ele>174</ele>
        <time>2018-09-13T08:34:23Z</time>
      </trkpt>
      <trkpt lat="45.92507" lon="4.73637">
        <ele>174</ele>
        <time>2018-09-13T08:34:25Z</time>
      </trkpt>
      <trkpt lat="45.92511" lon="4.73637">
        <ele>174</ele>
        <time>2018-09-13T08:34:26Z</time>
      </trkpt>
      <trkpt lat="45.92519" lon="4.73636">
        <ele>173</ele>
        <time>2018-09-13T08:34:28Z</time>
      </trkpt>
      <trkpt lat="45.92523" lon="4.73636">
        <ele>173</ele>
        <time>2018-09-13T08:34:29Z</time>
      </trkpt>
      <trkpt lat="45.92532" lon="4.73635">
        <ele>173</ele>
        <time>2018-09-13T08:34:31Z</time>
      </trkpt>
      <trkpt lat="45.92538" lon="4.73635">
        <ele>173</ele>
        <time>2018-09-13T08:34:32Z</time>
      </trkpt>
      <trkpt lat="45.92541" lon="4.73635">
        <ele>173</ele>
        <time>2018-09-13T08:34:33.547Z</time>
      </trkpt>
      <trkpt lat="45.92549" lon="4.73635">
        <ele>173</ele>
        <time>2018-09-13T08:34:34Z</time>
      </trkpt>
      <trkpt lat="45.92557" lon="4.73637">
        <ele>173</ele>
        <time>2018-09-13T08:34:36Z</time>
      </trkpt>
      <trkpt lat="45.92561" lon="4.73637">
        <ele>173</ele>
        <time>2018-09-13T08:34:37Z</time>
      </trkpt>
      <trkpt lat="45.9257" lon="4.73633">
        <ele>173</ele>
        <time>2018-09-13T08:34:39Z</time>
      </trkpt>
      <trkpt lat="45.92573" lon="4.73632">
        <ele>173</ele>
        <time>2018-09-13T08:34:40Z</time>
      </trkpt>
      <trkpt lat="45.9258" lon="4.7363">
        <ele>173</ele>
        <time>2018-09-13T08:34:42Z</time>
      </trkpt>
      <trkpt lat="45.92584" lon="4.73629">
        <ele>172</ele>
        <time>2018-09-13T08:34:43Z</time>
      </trkpt>
      <trkpt lat="45.92589" lon="4.73628">
        <ele>172</ele>
        <time>2018-09-13T08:34:44Z</time>
      </trkpt>
      <trkpt lat="45.92594" lon="4.73625">
        <ele>173</ele>
        <time>2018-09-13T08:34:45Z</time>
      </trkpt>
      <trkpt lat="45.92602" lon="4.73623">
        <ele>173</ele>
        <time>2018-09-13T08:34:47Z</time>
      </trkpt>
      <trkpt lat="45.92607" lon="4.73624">
        <ele>173</ele>
        <time>2018-09-13T08:34:48Z</time>
      </trkpt>
      <trkpt lat="45.9261" lon="4.73625">
        <ele>173</ele>
        <time>2018-09-13T08:34:49Z</time>
      </trkpt>
      <trkpt lat="45.92616" lon="4.73629">
        <ele>173</ele>
        <time>2018-09-13T08:34:50Z</time>
      </trkpt>
      <trkpt lat="45.9262" lon="4.73635">
        <ele>173</ele>
        <time>2018-09-13T08:34:51Z</time>
      </trkpt>
      <trkpt lat="45.92623" lon="4.7364">
        <ele>173</ele>
        <time>2018-09-13T08:34:52Z</time>
      </trkpt>
      <trkpt lat="45.92625" lon="4.73652">
        <ele>173</ele>
        <time>2018-09-13T08:34:54Z</time>
      </trkpt>
      <trkpt lat="45.92628" lon="4.73656">
        <ele>173</ele>
        <time>2018-09-13T08:34:55Z</time>
      </trkpt>
      <trkpt lat="45.92632" lon="4.73662">
        <ele>173</ele>
        <time>2018-09-13T08:34:56Z</time>
      </trkpt>
      <trkpt lat="45.92635" lon="4.73666">
        <ele>173</ele>
        <time>2018-09-13T08:34:57Z</time>
      </trkpt>
      <trkpt lat="45.92638" lon="4.73672">
        <ele>173</ele>
        <time>2018-09-13T08:34:58Z</time>
      </trkpt>
      <trkpt lat="45.92643" lon="4.73676">
        <ele>173</ele>
        <time>2018-09-13T08:34:59Z</time>
      </trkpt>
      <trkpt lat="45.92647" lon="4.73679">
        <ele>173</ele>
        <time>2018-09-13T08:35:00Z</time>
      </trkpt>
      <trkpt lat="45.92651" lon="4.73686">
        <ele>173</ele>
        <time>2018-09-13T08:35:01Z</time>
      </trkpt>
      <trkpt lat="45.92655" lon="4.73691">
        <ele>173</ele>
        <time>2018-09-13T08:35:02Z</time>
      </trkpt>
      <trkpt lat="45.92661" lon="4.73695">
        <ele>173</ele>
        <time>2018-09-13T08:35:03Z</time>
      </trkpt>
      <trkpt lat="45.92665" lon="4.73697">
        <ele>173</ele>
        <time>2018-09-13T08:35:04Z</time>
      </trkpt>
      <trkpt lat="45.9267" lon="4.73701">
        <ele>174</ele>
        <time>2018-09-13T08:35:05Z</time>
      </trkpt>
      <trkpt lat="45.92677" lon="4.73703">
        <ele>173</ele>
        <time>2018-09-13T08:35:06Z</time>
      </trkpt>
      <trkpt lat="45.92681" lon="4.73705">
        <ele>173</ele>
        <time>2018-09-13T08:35:07Z</time>
      </trkpt>
      <trkpt lat="45.92687" lon="4.73706">
        <ele>173</ele>
        <time>2018-09-13T08:35:08Z</time>
      </trkpt>
      <trkpt lat="45.92692" lon="4.73705">
        <ele>173</ele>
        <time>2018-09-13T08:35:09Z</time>
      </trkpt>
      <trkpt lat="45.92697" lon="4.73708">
        <ele>173</ele>
        <time>2018-09-13T08:35:10Z</time>
      </trkpt>
      <trkpt lat="45.92701" lon="4.73704">
        <ele>173</ele>
        <time>2018-09-13T08:35:11Z</time>
      </trkpt>
      <trkpt lat="45.92706" lon="4.73708">
        <ele>173</ele>
        <time>2018-09-13T08:35:12Z</time>
      </trkpt>
      <trkpt lat="45.92711" lon="4.73711">
        <ele>173</ele>
        <time>2018-09-13T08:35:13Z</time>
      </trkpt>
      <trkpt lat="45.92716" lon="4.73711">
        <ele>173</ele>
        <time>2018-09-13T08:35:14Z</time>
      </trkpt>
      <trkpt lat="45.92721" lon="4.73711">
        <ele>173</ele>
        <time>2018-09-13T08:35:15Z</time>
      </trkpt>
      <trkpt lat="45.92727" lon="4.73712">
        <ele>173</ele>
        <time>2018-09-13T08:35:16Z</time>
      </trkpt>
      <trkpt lat="45.92731" lon="4.73715">
        <ele>173</ele>
        <time>2018-09-13T08:35:17Z</time>
      </trkpt>
      <trkpt lat="45.92739" lon="4.73716">
        <ele>173</ele>
        <time>2018-09-13T08:35:19Z</time>
      </trkpt>
      <trkpt lat="45.92745" lon="4.73718">
        <ele>173</ele>
        <time>2018-09-13T08:35:20Z</time>
      </trkpt>
      <trkpt lat="45.92751" lon="4.7372">
        <ele>172</ele>
        <time>2018-09-13T08:35:21Z</time>
      </trkpt>
      <trkpt lat="45.92757" lon="4.73722">
        <ele>172</ele>
        <time>2018-09-13T08:35:22Z</time>
      </trkpt>
      <trkpt lat="45.92763" lon="4.73726">
        <ele>172</ele>
        <time>2018-09-13T08:35:23Z</time>
      </trkpt>
      <trkpt lat="45.92769" lon="4.7373">
        <ele>172</ele>
        <time>2018-09-13T08:35:24Z</time>
      </trkpt>
      <trkpt lat="45.92774" lon="4.73737">
        <ele>172</ele>
        <time>2018-09-13T08:35:29Z</time>
      </trkpt>
      <trkpt lat="45.92775" lon="4.73738">
        <ele>172</ele>
        <time>2018-09-13T08:35:30Z</time>
      </trkpt>
      <trkpt lat="45.92774" lon="4.73744">
        <ele>172</ele>
        <time>2018-09-13T08:35:31Z</time>
      </trkpt>
      <trkpt lat="45.9278" lon="4.7375">
        <ele>172</ele>
        <time>2018-09-13T08:35:32Z</time>
      </trkpt>
      <trkpt lat="45.92786" lon="4.73755">
        <ele>173</ele>
        <time>2018-09-13T08:35:33Z</time>
      </trkpt>
      <trkpt lat="45.92791" lon="4.73758">
        <ele>173</ele>
        <time>2018-09-13T08:35:34Z</time>
      </trkpt>
      <trkpt lat="45.92799" lon="4.73761">
        <ele>173</ele>
        <time>2018-09-13T08:35:36Z</time>
      </trkpt>
      <trkpt lat="45.92803" lon="4.73763">
        <ele>173</ele>
        <time>2018-09-13T08:35:37Z</time>
      </trkpt>
      <trkpt lat="45.92808" lon="4.73766">
        <ele>173</ele>
        <time>2018-09-13T08:35:38Z</time>
      </trkpt>
      <trkpt lat="45.92813" lon="4.73768">
        <ele>173</ele>
        <time>2018-09-13T08:35:39Z</time>
      </trkpt>
      <trkpt lat="45.92818" lon="4.7377">
        <ele>173</ele>
        <time>2018-09-13T08:35:40Z</time>
      </trkpt>
      <trkpt lat="45.92824" lon="4.73774">
        <ele>173</ele>
        <time>2018-09-13T08:35:41Z</time>
      </trkpt>
      <trkpt lat="45.92829" lon="4.73779">
        <ele>173</ele>
        <time>2018-09-13T08:35:42Z</time>
      </trkpt>
      <trkpt lat="45.92833" lon="4.73784">
        <ele>173</ele>
        <time>2018-09-13T08:35:43Z</time>
      </trkpt>
      <trkpt lat="45.92838" lon="4.73788">
        <ele>173</ele>
        <time>2018-09-13T08:35:44Z</time>
      </trkpt>
      <trkpt lat="45.92843" lon="4.73792">
        <ele>173</ele>
        <time>2018-09-13T08:35:45Z</time>
      </trkpt>
      <trkpt lat="45.92848" lon="4.73795">
        <ele>173</ele>
        <time>2018-09-13T08:35:46Z</time>
      </trkpt>
      <trkpt lat="45.92852" lon="4.73801">
        <ele>173</ele>
        <time>2018-09-13T08:35:47Z</time>
      </trkpt>
      <trkpt lat="45.92854" lon="4.73809">
        <ele>173</ele>
        <time>2018-09-13T08:35:48Z</time>
      </trkpt>
      <trkpt lat="45.92857" lon="4.73815">
        <ele>173</ele>
        <time>2018-09-13T08:35:49Z</time>
      </trkpt>
      <trkpt lat="45.92859" lon="4.73822">
        <ele>173</ele>
        <time>2018-09-13T08:35:50Z</time>
      </trkpt>
      <trkpt lat="45.92861" lon="4.7383">
        <ele>173</ele>
        <time>2018-09-13T08:35:51Z</time>
      </trkpt>
      <trkpt lat="45.92862" lon="4.73837">
        <ele>173</ele>
        <time>2018-09-13T08:35:52Z</time>
      </trkpt>
      <trkpt lat="45.92865" lon="4.73845">
        <ele>173</ele>
        <time>2018-09-13T08:35:53Z</time>
      </trkpt>
      <trkpt lat="45.92867" lon="4.73853">
        <ele>173</ele>
        <time>2018-09-13T08:35:54Z</time>
      </trkpt>
      <trkpt lat="45.92869" lon="4.73862">
        <ele>173</ele>
        <time>2018-09-13T08:35:55Z</time>
      </trkpt>
      <trkpt lat="45.92872" lon="4.73871">
        <ele>173</ele>
        <time>2018-09-13T08:35:56Z</time>
      </trkpt>
      <trkpt lat="45.92875" lon="4.7388">
        <ele>173</ele>
        <time>2018-09-13T08:35:57Z</time>
      </trkpt>
      <trkpt lat="45.92874" lon="4.73885">
        <ele>173</ele>
        <time>2018-09-13T08:35:58Z</time>
      </trkpt>
      <trkpt lat="45.92878" lon="4.73893">
        <ele>173</ele>
        <time>2018-09-13T08:35:59Z</time>
      </trkpt>
      <trkpt lat="45.9288" lon="4.73899">
        <ele>173</ele>
        <time>2018-09-13T08:36:00Z</time>
      </trkpt>
      <trkpt lat="45.92881" lon="4.73907">
        <ele>173</ele>
        <time>2018-09-13T08:36:01Z</time>
      </trkpt>
      <trkpt lat="45.92881" lon="4.73914">
        <ele>173</ele>
        <time>2018-09-13T08:36:02Z</time>
      </trkpt>
      <trkpt lat="45.92882" lon="4.73922">
        <ele>172</ele>
        <time>2018-09-13T08:36:03Z</time>
      </trkpt>
      <trkpt lat="45.92882" lon="4.73929">
        <ele>172</ele>
        <time>2018-09-13T08:36:04Z</time>
      </trkpt>
      <trkpt lat="45.92883" lon="4.73937">
        <ele>172</ele>
        <time>2018-09-13T08:36:05Z</time>
      </trkpt>
      <trkpt lat="45.92883" lon="4.73944">
        <ele>172</ele>
        <time>2018-09-13T08:36:06Z</time>
      </trkpt>
      <trkpt lat="45.92883" lon="4.73951">
        <ele>172</ele>
        <time>2018-09-13T08:36:07Z</time>
      </trkpt>
      <trkpt lat="45.92882" lon="4.73959">
        <ele>172</ele>
        <time>2018-09-13T08:36:08Z</time>
      </trkpt>
      <trkpt lat="45.9288" lon="4.73965">
        <ele>172</ele>
        <time>2018-09-13T08:36:09Z</time>
      </trkpt>
      <trkpt lat="45.92881" lon="4.73972">
        <ele>172</ele>
        <time>2018-09-13T08:36:10Z</time>
      </trkpt>
      <trkpt lat="45.9288" lon="4.73978">
        <ele>172</ele>
        <time>2018-09-13T08:36:11Z</time>
      </trkpt>
      <trkpt lat="45.92877" lon="4.73986">
        <ele>172</ele>
        <time>2018-09-13T08:36:13Z</time>
      </trkpt>
      <trkpt lat="45.92875" lon="4.73993">
        <ele>172</ele>
        <time>2018-09-13T08:36:14Z</time>
      </trkpt>
      <trkpt lat="45.92874" lon="4.74">
        <ele>172</ele>
        <time>2018-09-13T08:36:15Z</time>
      </trkpt>
      <trkpt lat="45.92873" lon="4.74006">
        <ele>172</ele>
        <time>2018-09-13T08:36:16Z</time>
      </trkpt>
      <trkpt lat="45.92871" lon="4.74013">
        <ele>172</ele>
        <time>2018-09-13T08:36:17Z</time>
      </trkpt>
      <trkpt lat="45.92873" lon="4.74022">
        <ele>172</ele>
        <time>2018-09-13T08:36:18Z</time>
      </trkpt>
      <trkpt lat="45.92868" lon="4.74032">
        <ele>172</ele>
        <time>2018-09-13T08:36:20Z</time>
      </trkpt>
      <trkpt lat="45.92867" lon="4.74039">
        <ele>172</ele>
        <time>2018-09-13T08:36:21Z</time>
      </trkpt>
      <trkpt lat="45.92864" lon="4.74046">
        <ele>172</ele>
        <time>2018-09-13T08:36:22Z</time>
      </trkpt>
      <trkpt lat="45.92861" lon="4.7405">
        <ele>172</ele>
        <time>2018-09-13T08:36:23Z</time>
      </trkpt>
      <trkpt lat="45.92853" lon="4.74057">
        <ele>172</ele>
        <time>2018-09-13T08:36:25Z</time>
      </trkpt>
      <trkpt lat="45.92848" lon="4.74061">
        <ele>172</ele>
        <time>2018-09-13T08:36:26Z</time>
      </trkpt>
      <trkpt lat="45.92845" lon="4.74072">
        <ele>172</ele>
        <time>2018-09-13T08:36:27Z</time>
      </trkpt>
      <trkpt lat="45.92842" lon="4.74078">
        <ele>171</ele>
        <time>2018-09-13T08:36:28Z</time>
      </trkpt>
      <trkpt lat="45.92836" lon="4.74082">
        <ele>171</ele>
        <time>2018-09-13T08:36:29Z</time>
      </trkpt>
      <trkpt lat="45.92831" lon="4.74085">
        <ele>171</ele>
        <time>2018-09-13T08:36:30Z</time>
      </trkpt>
      <trkpt lat="45.92827" lon="4.74091">
        <ele>171</ele>
        <time>2018-09-13T08:36:31Z</time>
      </trkpt>
      <trkpt lat="45.92822" lon="4.74096">
        <ele>171</ele>
        <time>2018-09-13T08:36:32Z</time>
      </trkpt>
      <trkpt lat="45.92816" lon="4.74098">
        <ele>171</ele>
        <time>2018-09-13T08:36:33Z</time>
      </trkpt>
      <trkpt lat="45.9281" lon="4.74101">
        <ele>172</ele>
        <time>2018-09-13T08:36:34Z</time>
      </trkpt>
      <trkpt lat="45.92806" lon="4.74108">
        <ele>172</ele>
        <time>2018-09-13T08:36:35Z</time>
      </trkpt>
      <trkpt lat="45.92801" lon="4.74113">
        <ele>172</ele>
        <time>2018-09-13T08:36:36Z</time>
      </trkpt>
      <trkpt lat="45.92796" lon="4.74118">
        <ele>172</ele>
        <time>2018-09-13T08:36:37Z</time>
      </trkpt>
      <trkpt lat="45.92792" lon="4.74127">
        <ele>172</ele>
        <time>2018-09-13T08:36:38Z</time>
      </trkpt>
      <trkpt lat="45.92788" lon="4.74133">
        <ele>172</ele>
        <time>2018-09-13T08:36:39Z</time>
      </trkpt>
      <trkpt lat="45.92784" lon="4.74138">
        <ele>172</ele>
        <time>2018-09-13T08:36:40Z</time>
      </trkpt>
      <trkpt lat="45.92778" lon="4.74142">
        <ele>172</ele>
        <time>2018-09-13T08:36:41Z</time>
      </trkpt>
      <trkpt lat="45.92773" lon="4.74145">
        <ele>172</ele>
        <time>2018-09-13T08:36:42Z</time>
      </trkpt>
      <trkpt lat="45.92768" lon="4.74149">
        <ele>172</ele>
        <time>2018-09-13T08:36:43Z</time>
      </trkpt>
      <trkpt lat="45.92764" lon="4.74154">
        <ele>172</ele>
        <time>2018-09-13T08:36:44Z</time>
      </trkpt>
      <trkpt lat="45.9276" lon="4.74159">
        <ele>172</ele>
        <time>2018-09-13T08:36:45Z</time>
      </trkpt>
      <trkpt lat="45.92755" lon="4.74164">
        <ele>172</ele>
        <time>2018-09-13T08:36:46Z</time>
      </trkpt>
      <trkpt lat="45.92751" lon="4.74169">
        <ele>172</ele>
        <time>2018-09-13T08:36:47Z</time>
      </trkpt>
      <trkpt lat="45.92747" lon="4.74175">
        <ele>172</ele>
        <time>2018-09-13T08:36:48Z</time>
      </trkpt>
      <trkpt lat="45.92743" lon="4.7418">
        <ele>172</ele>
        <time>2018-09-13T08:36:49Z</time>
      </trkpt>
      <trkpt lat="45.92739" lon="4.74184">
        <ele>172</ele>
        <time>2018-09-13T08:36:50Z</time>
      </trkpt>
      <trkpt lat="45.92734" lon="4.74189">
        <ele>171</ele>
        <time>2018-09-13T08:36:51Z</time>
      </trkpt>
      <trkpt lat="45.9273" lon="4.74195">
        <ele>171</ele>
        <time>2018-09-13T08:36:52Z</time>
      </trkpt>
      <trkpt lat="45.92727" lon="4.74201">
        <ele>171</ele>
        <time>2018-09-13T08:36:53Z</time>
      </trkpt>
      <trkpt lat="45.92722" lon="4.74206">
        <ele>171</ele>
        <time>2018-09-13T08:36:54Z</time>
      </trkpt>
      <trkpt lat="45.92719" lon="4.74212">
        <ele>171</ele>
        <time>2018-09-13T08:36:55Z</time>
      </trkpt>
      <trkpt lat="45.92715" lon="4.74216">
        <ele>171</ele>
        <time>2018-09-13T08:36:56Z</time>
      </trkpt>
      <trkpt lat="45.92712" lon="4.74222">
        <ele>171</ele>
        <time>2018-09-13T08:36:57Z</time>
      </trkpt>
      <trkpt lat="45.92708" lon="4.74229">
        <ele>171</ele>
        <time>2018-09-13T08:36:58Z</time>
      </trkpt>
      <trkpt lat="45.92705" lon="4.74235">
        <ele>171</ele>
        <time>2018-09-13T08:36:59Z</time>
      </trkpt>
      <trkpt lat="45.92701" lon="4.74242">
        <ele>171</ele>
        <time>2018-09-13T08:37:00Z</time>
      </trkpt>
      <trkpt lat="45.92698" lon="4.74249">
        <ele>171</ele>
        <time>2018-09-13T08:37:01Z</time>
      </trkpt>
      <trkpt lat="45.92694" lon="4.74255">
        <ele>171</ele>
        <time>2018-09-13T08:37:02Z</time>
      </trkpt>
      <trkpt lat="45.9269" lon="4.74262">
        <ele>171</ele>
        <time>2018-09-13T08:37:03Z</time>
      </trkpt>
      <trkpt lat="45.92686" lon="4.74268">
        <ele>171</ele>
        <time>2018-09-13T08:37:04Z</time>
      </trkpt>
      <trkpt lat="45.92682" lon="4.74274">
        <ele>171</ele>
        <time>2018-09-13T08:37:05Z</time>
      </trkpt>
      <trkpt lat="45.92678" lon="4.7428">
        <ele>171</ele>
        <time>2018-09-13T08:37:06Z</time>
      </trkpt>
      <trkpt lat="45.92674" lon="4.74286">
        <ele>171</ele>
        <time>2018-09-13T08:37:07Z</time>
      </trkpt>
      <trkpt lat="45.92671" lon="4.74293">
        <ele>171</ele>
        <time>2018-09-13T08:37:08Z</time>
      </trkpt>
      <trkpt lat="45.92668" lon="4.74303">
        <ele>171</ele>
        <time>2018-09-13T08:37:09Z</time>
      </trkpt>
      <trkpt lat="45.92664" lon="4.74308">
        <ele>171</ele>
        <time>2018-09-13T08:37:10Z</time>
      </trkpt>
      <trkpt lat="45.92661" lon="4.74316">
        <ele>171</ele>
        <time>2018-09-13T08:37:11Z</time>
      </trkpt>
      <trkpt lat="45.92658" lon="4.74325">
        <ele>171</ele>
        <time>2018-09-13T08:37:12Z</time>
      </trkpt>
      <trkpt lat="45.92655" lon="4.74332">
        <ele>171</ele>
        <time>2018-09-13T08:37:13Z</time>
      </trkpt>
      <trkpt lat="45.92651" lon="4.74337">
        <ele>171</ele>
        <time>2018-09-13T08:37:14Z</time>
      </trkpt>
      <trkpt lat="45.92647" lon="4.74343">
        <ele>171</ele>
        <time>2018-09-13T08:37:15Z</time>
      </trkpt>
      <trkpt lat="45.92643" lon="4.74349">
        <ele>171</ele>
        <time>2018-09-13T08:37:16Z</time>
      </trkpt>
      <trkpt lat="45.92641" lon="4.74357">
        <ele>171</ele>
        <time>2018-09-13T08:37:17Z</time>
      </trkpt>
      <trkpt lat="45.92637" lon="4.74363">
        <ele>171</ele>
        <time>2018-09-13T08:37:18Z</time>
      </trkpt>
      <trkpt lat="45.92634" lon="4.74371">
        <ele>171</ele>
        <time>2018-09-13T08:37:19Z</time>
      </trkpt>
      <trkpt lat="45.9263" lon="4.74377">
        <ele>170</ele>
        <time>2018-09-13T08:37:20Z</time>
      </trkpt>
      <trkpt lat="45.92627" lon="4.74383">
        <ele>170</ele>
        <time>2018-09-13T08:37:21Z</time>
      </trkpt>
      <trkpt lat="45.92623" lon="4.74389">
        <ele>170</ele>
        <time>2018-09-13T08:37:22Z</time>
      </trkpt>
      <trkpt lat="45.92619" lon="4.74397">
        <ele>170</ele>
        <time>2018-09-13T08:37:23Z</time>
      </trkpt>
      <trkpt lat="45.92615" lon="4.74402">
        <ele>170</ele>
        <time>2018-09-13T08:37:24Z</time>
      </trkpt>
      <trkpt lat="45.92611" lon="4.74409">
        <ele>170</ele>
        <time>2018-09-13T08:37:25Z</time>
      </trkpt>
      <trkpt lat="45.92607" lon="4.74417">
        <ele>170</ele>
        <time>2018-09-13T08:37:26Z</time>
      </trkpt>
      <trkpt lat="45.92603" lon="4.74424">
        <ele>170</ele>
        <time>2018-09-13T08:37:27Z</time>
      </trkpt>
      <trkpt lat="45.92601" lon="4.74433">
        <ele>170</ele>
        <time>2018-09-13T08:37:28Z</time>
      </trkpt>
      <trkpt lat="45.92597" lon="4.7444">
        <ele>170</ele>
        <time>2018-09-13T08:37:29Z</time>
      </trkpt>
      <trkpt lat="45.92594" lon="4.74447">
        <ele>170</ele>
        <time>2018-09-13T08:37:30Z</time>
      </trkpt>
      <trkpt lat="45.92589" lon="4.74452">
        <ele>170</ele>
        <time>2018-09-13T08:37:31Z</time>
      </trkpt>
      <trkpt lat="45.92585" lon="4.74458">
        <ele>170</ele>
        <time>2018-09-13T08:37:32Z</time>
      </trkpt>
      <trkpt lat="45.92581" lon="4.74463">
        <ele>170</ele>
        <time>2018-09-13T08:37:33Z</time>
      </trkpt>
      <trkpt lat="45.92577" lon="4.7447">
        <ele>170</ele>
        <time>2018-09-13T08:37:34Z</time>
      </trkpt>
      <trkpt lat="45.92573" lon="4.74476">
        <ele>170</ele>
        <time>2018-09-13T08:37:35Z</time>
      </trkpt>
      <trkpt lat="45.92569" lon="4.74483">
        <ele>170</ele>
        <time>2018-09-13T08:37:36Z</time>
      </trkpt>
      <trkpt lat="45.92565" lon="4.74491">
        <ele>170</ele>
        <time>2018-09-13T08:37:37Z</time>
      </trkpt>
      <trkpt lat="45.92563" lon="4.74502">
        <ele>170</ele>
        <time>2018-09-13T08:37:38Z</time>
      </trkpt>
      <trkpt lat="45.92559" lon="4.74508">
        <ele>170</ele>
        <time>2018-09-13T08:37:39Z</time>
      </trkpt>
      <trkpt lat="45.92554" lon="4.74513">
        <ele>170</ele>
        <time>2018-09-13T08:37:40Z</time>
      </trkpt>
      <trkpt lat="45.9255" lon="4.7452">
        <ele>170</ele>
        <time>2018-09-13T08:37:41Z</time>
      </trkpt>
      <trkpt lat="45.92545" lon="4.74525">
        <ele>170</ele>
        <time>2018-09-13T08:37:42Z</time>
      </trkpt>
      <trkpt lat="45.9254" lon="4.7453">
        <ele>171</ele>
        <time>2018-09-13T08:37:43Z</time>
      </trkpt>
      <trkpt lat="45.92537" lon="4.74537">
        <ele>171</ele>
        <time>2018-09-13T08:37:44Z</time>
      </trkpt>
      <trkpt lat="45.92531" lon="4.74545">
        <ele>171</ele>
        <time>2018-09-13T08:37:45Z</time>
      </trkpt>
      <trkpt lat="45.92527" lon="4.74551">
        <ele>171</ele>
        <time>2018-09-13T08:37:46Z</time>
      </trkpt>
      <trkpt lat="45.92526" lon="4.74562">
        <ele>171</ele>
        <time>2018-09-13T08:37:47Z</time>
      </trkpt>
      <trkpt lat="45.92521" lon="4.74567">
        <ele>171</ele>
        <time>2018-09-13T08:37:48Z</time>
      </trkpt>
      <trkpt lat="45.92514" lon="4.74572">
        <ele>171</ele>
        <time>2018-09-13T08:37:49Z</time>
      </trkpt>
      <trkpt lat="45.92509" lon="4.74577">
        <ele>171</ele>
        <time>2018-09-13T08:37:50Z</time>
      </trkpt>
      <trkpt lat="45.92505" lon="4.74584">
        <ele>171</ele>
        <time>2018-09-13T08:37:51Z</time>
      </trkpt>
      <trkpt lat="45.92499" lon="4.74587">
        <ele>171</ele>
        <time>2018-09-13T08:37:52Z</time>
      </trkpt>
      <trkpt lat="45.92495" lon="4.74592">
        <ele>171</ele>
        <time>2018-09-13T08:37:53Z</time>
      </trkpt>
      <trkpt lat="45.92493" lon="4.746">
        <ele>171</ele>
        <time>2018-09-13T08:37:54Z</time>
      </trkpt>
      <trkpt lat="45.92486" lon="4.74607">
        <ele>171</ele>
        <time>2018-09-13T08:37:56Z</time>
      </trkpt>
      <trkpt lat="45.92482" lon="4.74613">
        <ele>171</ele>
        <time>2018-09-13T08:37:57Z</time>
      </trkpt>
      <trkpt lat="45.92478" lon="4.74618">
        <ele>171</ele>
        <time>2018-09-13T08:37:58Z</time>
      </trkpt>
      <trkpt lat="45.92474" lon="4.74623">
        <ele>171</ele>
        <time>2018-09-13T08:37:59Z</time>
      </trkpt>
      <trkpt lat="45.92471" lon="4.74629">
        <ele>171</ele>
        <time>2018-09-13T08:38:00Z</time>
      </trkpt>
      <trkpt lat="45.92468" lon="4.74635">
        <ele>171</ele>
        <time>2018-09-13T08:38:01Z</time>
      </trkpt>
      <trkpt lat="45.92464" lon="4.74642">
        <ele>171</ele>
        <time>2018-09-13T08:38:02Z</time>
      </trkpt>
      <trkpt lat="45.92459" lon="4.74648">
        <ele>171</ele>
        <time>2018-09-13T08:38:03Z</time>
      </trkpt>
      <trkpt lat="45.92456" lon="4.74653">
        <ele>171</ele>
        <time>2018-09-13T08:38:04Z</time>
      </trkpt>
      <trkpt lat="45.92453" lon="4.74659">
        <ele>171</ele>
        <time>2018-09-13T08:38:05Z</time>
      </trkpt>
      <trkpt lat="45.9245" lon="4.74664">
        <ele>171</ele>
        <time>2018-09-13T08:38:06Z</time>
      </trkpt>
      <trkpt lat="45.92446" lon="4.74668">
        <ele>171</ele>
        <time>2018-09-13T08:38:07Z</time>
      </trkpt>
      <trkpt lat="45.92441" lon="4.74676">
        <ele>171</ele>
        <time>2018-09-13T08:38:09Z</time>
      </trkpt>
      <trkpt lat="45.9244" lon="4.74686">
        <ele>171</ele>
        <time>2018-09-13T08:38:10Z</time>
      </trkpt>
      <trkpt lat="45.92437" lon="4.74691">
        <ele>171</ele>
        <time>2018-09-13T08:38:11Z</time>
      </trkpt>
      <trkpt lat="45.92435" lon="4.74698">
        <ele>171</ele>
        <time>2018-09-13T08:38:12Z</time>
      </trkpt>
      <trkpt lat="45.92432" lon="4.74704">
        <ele>171</ele>
        <time>2018-09-13T08:38:13Z</time>
      </trkpt>
      <trkpt lat="45.9243" lon="4.74712">
        <ele>171</ele>
        <time>2018-09-13T08:38:14Z</time>
      </trkpt>
      <trkpt lat="45.92427" lon="4.74718">
        <ele>171</ele>
        <time>2018-09-13T08:38:15Z</time>
      </trkpt>
      <trkpt lat="45.92425" lon="4.74725">
        <ele>171</ele>
        <time>2018-09-13T08:38:16Z</time>
      </trkpt>
      <trkpt lat="45.92421" lon="4.74732">
        <ele>171</ele>
        <time>2018-09-13T08:38:17Z</time>
      </trkpt>
      <trkpt lat="45.92419" lon="4.74742">
        <ele>172</ele>
        <time>2018-09-13T08:38:18Z</time>
      </trkpt>
      <trkpt lat="45.92417" lon="4.74751">
        <ele>172</ele>
        <time>2018-09-13T08:38:19Z</time>
      </trkpt>
      <trkpt lat="45.92414" lon="4.74758">
        <ele>172</ele>
        <time>2018-09-13T08:38:20Z</time>
      </trkpt>
      <trkpt lat="45.92412" lon="4.74766">
        <ele>172</ele>
        <time>2018-09-13T08:38:21Z</time>
      </trkpt>
      <trkpt lat="45.92408" lon="4.74773">
        <ele>171</ele>
        <time>2018-09-13T08:38:22Z</time>
      </trkpt>
      <trkpt lat="45.92408" lon="4.74781">
        <ele>171</ele>
        <time>2018-09-13T08:38:23Z</time>
      </trkpt>
      <trkpt lat="45.92406" lon="4.74789">
        <ele>171</ele>
        <time>2018-09-13T08:38:24Z</time>
      </trkpt>
      <trkpt lat="45.92404" lon="4.74798">
        <ele>171</ele>
        <time>2018-09-13T08:38:25Z</time>
      </trkpt>
      <trkpt lat="45.92403" lon="4.74806">
        <ele>171</ele>
        <time>2018-09-13T08:38:26Z</time>
      </trkpt>
      <trkpt lat="45.924" lon="4.74812">
        <ele>171</ele>
        <time>2018-09-13T08:38:27Z</time>
      </trkpt>
      <trkpt lat="45.92399" lon="4.74822">
        <ele>171</ele>
        <time>2018-09-13T08:38:28Z</time>
      </trkpt>
      <trkpt lat="45.92398" lon="4.74829">
        <ele>171</ele>
        <time>2018-09-13T08:38:29Z</time>
      </trkpt>
      <trkpt lat="45.92396" lon="4.74837">
        <ele>171</ele>
        <time>2018-09-13T08:38:30Z</time>
      </trkpt>
      <trkpt lat="45.92393" lon="4.74846">
        <ele>171</ele>
        <time>2018-09-13T08:38:31Z</time>
      </trkpt>
      <trkpt lat="45.9239" lon="4.74855">
        <ele>171</ele>
        <time>2018-09-13T08:38:32Z</time>
      </trkpt>
      <trkpt lat="45.92388" lon="4.74864">
        <ele>171</ele>
        <time>2018-09-13T08:38:33Z</time>
      </trkpt>
      <trkpt lat="45.92385" lon="4.74872">
        <ele>171</ele>
        <time>2018-09-13T08:38:34Z</time>
      </trkpt>
      <trkpt lat="45.92382" lon="4.7488">
        <ele>171</ele>
        <time>2018-09-13T08:38:35Z</time>
      </trkpt>
      <trkpt lat="45.92379" lon="4.74888">
        <ele>171</ele>
        <time>2018-09-13T08:38:36Z</time>
      </trkpt>
      <trkpt lat="45.92376" lon="4.74895">
        <ele>171</ele>
        <time>2018-09-13T08:38:37Z</time>
      </trkpt>
      <trkpt lat="45.92373" lon="4.74902">
        <ele>171</ele>
        <time>2018-09-13T08:38:38Z</time>
      </trkpt>
      <trkpt lat="45.92369" lon="4.74909">
        <ele>171</ele>
        <time>2018-09-13T08:38:39Z</time>
      </trkpt>
      <trkpt lat="45.92366" lon="4.74916">
        <ele>171</ele>
        <time>2018-09-13T08:38:40Z</time>
      </trkpt>
      <trkpt lat="45.92364" lon="4.74925">
        <ele>170</ele>
        <time>2018-09-13T08:38:41Z</time>
      </trkpt>
      <trkpt lat="45.92361" lon="4.74932">
        <ele>170</ele>
        <time>2018-09-13T08:38:42Z</time>
      </trkpt>
      <trkpt lat="45.92357" lon="4.74938">
        <ele>170</ele>
        <time>2018-09-13T08:38:43Z</time>
      </trkpt>
      <trkpt lat="45.92354" lon="4.74946">
        <ele>170</ele>
        <time>2018-09-13T08:38:44Z</time>
      </trkpt>
      <trkpt lat="45.9235" lon="4.74954">
        <ele>170</ele>
        <time>2018-09-13T08:38:45Z</time>
      </trkpt>
      <trkpt lat="45.92348" lon="4.74964">
        <ele>170</ele>
        <time>2018-09-13T08:38:46Z</time>
      </trkpt>
      <trkpt lat="45.92344" lon="4.74972">
        <ele>170</ele>
        <time>2018-09-13T08:38:47Z</time>
      </trkpt>
      <trkpt lat="45.92341" lon="4.7498">
        <ele>170</ele>
        <time>2018-09-13T08:38:48Z</time>
      </trkpt>
      <trkpt lat="45.92338" lon="4.74989">
        <ele>170</ele>
        <time>2018-09-13T08:38:49Z</time>
      </trkpt>
      <trkpt lat="45.92334" lon="4.74996">
        <ele>170</ele>
        <time>2018-09-13T08:38:50Z</time>
      </trkpt>
      <trkpt lat="45.92331" lon="4.75004">
        <ele>170</ele>
        <time>2018-09-13T08:38:51Z</time>
      </trkpt>
      <trkpt lat="45.92328" lon="4.75012">
        <ele>171</ele>
        <time>2018-09-13T08:38:52Z</time>
      </trkpt>
      <trkpt lat="45.92324" lon="4.75017">
        <ele>171</ele>
        <time>2018-09-13T08:38:53Z</time>
      </trkpt>
      <trkpt lat="45.9232" lon="4.75025">
        <ele>171</ele>
        <time>2018-09-13T08:38:54Z</time>
      </trkpt>
      <trkpt lat="45.92317" lon="4.7503">
        <ele>171</ele>
        <time>2018-09-13T08:38:55Z</time>
      </trkpt>
      <trkpt lat="45.92313" lon="4.75036">
        <ele>171</ele>
        <time>2018-09-13T08:38:56Z</time>
      </trkpt>
      <trkpt lat="45.9231" lon="4.75045">
        <ele>172</ele>
        <time>2018-09-13T08:38:57Z</time>
      </trkpt>
      <trkpt lat="45.92306" lon="4.75052">
        <ele>172</ele>
        <time>2018-09-13T08:38:58Z</time>
      </trkpt>
      <trkpt lat="45.92301" lon="4.75057">
        <ele>172</ele>
        <time>2018-09-13T08:38:59Z</time>
      </trkpt>
      <trkpt lat="45.92296" lon="4.75063">
        <ele>172</ele>
        <time>2018-09-13T08:39:00Z</time>
      </trkpt>
      <trkpt lat="45.92291" lon="4.75071">
        <ele>172</ele>
        <time>2018-09-13T08:39:01Z</time>
      </trkpt>
      <trkpt lat="45.92286" lon="4.75077">
        <ele>172</ele>
        <time>2018-09-13T08:39:02Z</time>
      </trkpt>
      <trkpt lat="45.92281" lon="4.75083">
        <ele>172</ele>
        <time>2018-09-13T08:39:03Z</time>
      </trkpt>
      <trkpt lat="45.92276" lon="4.75089">
        <ele>173</ele>
        <time>2018-09-13T08:39:04Z</time>
      </trkpt>
      <trkpt lat="45.92271" lon="4.75094">
        <ele>173</ele>
        <time>2018-09-13T08:39:05Z</time>
      </trkpt>
      <trkpt lat="45.92267" lon="4.751">
        <ele>173</ele>
        <time>2018-09-13T08:39:06Z</time>
      </trkpt>
      <trkpt lat="45.92263" lon="4.75106">
        <ele>174</ele>
        <time>2018-09-13T08:39:07Z</time>
      </trkpt>
      <trkpt lat="45.92257" lon="4.75111">
        <ele>174</ele>
        <time>2018-09-13T08:39:08Z</time>
      </trkpt>
      <trkpt lat="45.92251" lon="4.75115">
        <ele>174</ele>
        <time>2018-09-13T08:39:09Z</time>
      </trkpt>
      <trkpt lat="45.92247" lon="4.75123">
        <ele>174</ele>
        <time>2018-09-13T08:39:10Z</time>
      </trkpt>
      <trkpt lat="45.92243" lon="4.75131">
        <ele>174</ele>
        <time>2018-09-13T08:39:11Z</time>
      </trkpt>
      <trkpt lat="45.92239" lon="4.75138">
        <ele>174</ele>
        <time>2018-09-13T08:39:12Z</time>
      </trkpt>
      <trkpt lat="45.92237" lon="4.75146">
        <ele>174</ele>
        <time>2018-09-13T08:39:13Z</time>
      </trkpt>
      <trkpt lat="45.92233" lon="4.7515">
        <ele>174</ele>
        <time>2018-09-13T08:39:14Z</time>
      </trkpt>
      <trkpt lat="45.92229" lon="4.75158">
        <ele>174</ele>
        <time>2018-09-13T08:39:15Z</time>
      </trkpt>
      <trkpt lat="45.92227" lon="4.75164">
        <ele>174</ele>
        <time>2018-09-13T08:39:16Z</time>
      </trkpt>
      <trkpt lat="45.92223" lon="4.75173">
        <ele>175</ele>
        <time>2018-09-13T08:39:17Z</time>
      </trkpt>
      <trkpt lat="45.9222" lon="4.75181">
        <ele>175</ele>
        <time>2018-09-13T08:39:18Z</time>
      </trkpt>
      <trkpt lat="45.92218" lon="4.75189">
        <ele>175</ele>
        <time>2018-09-13T08:39:19Z</time>
      </trkpt>
      <trkpt lat="45.92216" lon="4.75197">
        <ele>175</ele>
        <time>2018-09-13T08:39:20Z</time>
      </trkpt>
      <trkpt lat="45.92214" lon="4.75204">
        <ele>175</ele>
        <time>2018-09-13T08:39:21Z</time>
      </trkpt>
      <trkpt lat="45.92211" lon="4.7521">
        <ele>175</ele>
        <time>2018-09-13T08:39:22Z</time>
      </trkpt>
      <trkpt lat="45.9221" lon="4.75218">
        <ele>175</ele>
        <time>2018-09-13T08:39:23Z</time>
      </trkpt>
      <trkpt lat="45.9221" lon="4.75224">
        <ele>175</ele>
        <time>2018-09-13T08:39:24Z</time>
      </trkpt>
      <trkpt lat="45.92207" lon="4.75231">
        <ele>175</ele>
        <time>2018-09-13T08:39:25Z</time>
      </trkpt>
      <trkpt lat="45.92208" lon="4.75237">
        <ele>175</ele>
        <time>2018-09-13T08:39:26Z</time>
      </trkpt>
      <trkpt lat="45.92207" lon="4.75245">
        <ele>175</ele>
        <time>2018-09-13T08:39:27Z</time>
      </trkpt>
      <trkpt lat="45.92206" lon="4.75253">
        <ele>175</ele>
        <time>2018-09-13T08:39:28Z</time>
      </trkpt>
      <trkpt lat="45.92206" lon="4.75265">
        <ele>176</ele>
        <time>2018-09-13T08:39:30Z</time>
      </trkpt>
      <trkpt lat="45.92206" lon="4.75273">
        <ele>176</ele>
        <time>2018-09-13T08:39:31Z</time>
      </trkpt>
      <trkpt lat="45.92206" lon="4.75282">
        <ele>176</ele>
        <time>2018-09-13T08:39:32Z</time>
      </trkpt>
      <trkpt lat="45.92207" lon="4.75291">
        <ele>176</ele>
        <time>2018-09-13T08:39:33Z</time>
      </trkpt>
      <trkpt lat="45.92206" lon="4.75297">
        <ele>176</ele>
        <time>2018-09-13T08:39:34Z</time>
      </trkpt>
      <trkpt lat="45.92205" lon="4.75305">
        <ele>176</ele>
        <time>2018-09-13T08:39:35Z</time>
      </trkpt>
      <trkpt lat="45.92204" lon="4.75313">
        <ele>176</ele>
        <time>2018-09-13T08:39:36Z</time>
      </trkpt>
      <trkpt lat="45.92205" lon="4.7532">
        <ele>176</ele>
        <time>2018-09-13T08:39:37Z</time>
      </trkpt>
      <trkpt lat="45.92204" lon="4.75328">
        <ele>176</ele>
        <time>2018-09-13T08:39:38Z</time>
      </trkpt>
      <trkpt lat="45.92203" lon="4.75337">
        <ele>177</ele>
        <time>2018-09-13T08:39:39Z</time>
      </trkpt>
      <trkpt lat="45.922" lon="4.75346">
        <ele>177</ele>
        <time>2018-09-13T08:39:40Z</time>
      </trkpt>
      <trkpt lat="45.92198" lon="4.75353">
        <ele>177</ele>
        <time>2018-09-13T08:39:41Z</time>
      </trkpt>
      <trkpt lat="45.92195" lon="4.7536">
        <ele>177</ele>
        <time>2018-09-13T08:39:42Z</time>
      </trkpt>
      <trkpt lat="45.92192" lon="4.75364">
        <ele>177</ele>
        <time>2018-09-13T08:39:43Z</time>
      </trkpt>
      <trkpt lat="45.9219" lon="4.7537">
        <ele>177</ele>
        <time>2018-09-13T08:39:44Z</time>
      </trkpt>
      <trkpt lat="45.92187" lon="4.75376">
        <ele>177</ele>
        <time>2018-09-13T08:39:45Z</time>
      </trkpt>
      <trkpt lat="45.92185" lon="4.75383">
        <ele>177</ele>
        <time>2018-09-13T08:39:46Z</time>
      </trkpt>
      <trkpt lat="45.92183" lon="4.7539">
        <ele>177</ele>
        <time>2018-09-13T08:39:47Z</time>
      </trkpt>
      <trkpt lat="45.92179" lon="4.75398">
        <ele>177</ele>
        <time>2018-09-13T08:39:48Z</time>
      </trkpt>
      <trkpt lat="45.92176" lon="4.75404">
        <ele>177</ele>
        <time>2018-09-13T08:39:49Z</time>
      </trkpt>
      <trkpt lat="45.92174" lon="4.75413">
        <ele>178</ele>
        <time>2018-09-13T08:39:50Z</time>
      </trkpt>
      <trkpt lat="45.9217" lon="4.75421">
        <ele>178</ele>
        <time>2018-09-13T08:39:51Z</time>
      </trkpt>
      <trkpt lat="45.92167" lon="4.75429">
        <ele>177</ele>
        <time>2018-09-13T08:39:52Z</time>
      </trkpt>
      <trkpt lat="45.92163" lon="4.75438">
        <ele>177</ele>
        <time>2018-09-13T08:39:53Z</time>
      </trkpt>
      <trkpt lat="45.92159" lon="4.75445">
        <ele>177</ele>
        <time>2018-09-13T08:39:54Z</time>
      </trkpt>
      <trkpt lat="45.92154" lon="4.75454">
        <ele>176</ele>
        <time>2018-09-13T08:39:55Z</time>
      </trkpt>
      <trkpt lat="45.92152" lon="4.75463">
        <ele>176</ele>
        <time>2018-09-13T08:39:56Z</time>
      </trkpt>
      <trkpt lat="45.92149" lon="4.7547">
        <ele>176</ele>
        <time>2018-09-13T08:39:57Z</time>
      </trkpt>
      <trkpt lat="45.92146" lon="4.75478">
        <ele>176</ele>
        <time>2018-09-13T08:39:58Z</time>
      </trkpt>
      <trkpt lat="45.92143" lon="4.75485">
        <ele>176</ele>
        <time>2018-09-13T08:39:59Z</time>
      </trkpt>
      <trkpt lat="45.9214" lon="4.75492">
        <ele>176</ele>
        <time>2018-09-13T08:40:00Z</time>
      </trkpt>
      <trkpt lat="45.92136" lon="4.75499">
        <ele>175</ele>
        <time>2018-09-13T08:40:01Z</time>
      </trkpt>
      <trkpt lat="45.92132" lon="4.75506">
        <ele>174</ele>
        <time>2018-09-13T08:40:02Z</time>
      </trkpt>
      <trkpt lat="45.92129" lon="4.75514">
        <ele>174</ele>
        <time>2018-09-13T08:40:03Z</time>
      </trkpt>
      <trkpt lat="45.92124" lon="4.75519">
        <ele>174</ele>
        <time>2018-09-13T08:40:04Z</time>
      </trkpt>
      <trkpt lat="45.9212" lon="4.75526">
        <ele>174</ele>
        <time>2018-09-13T08:40:05Z</time>
      </trkpt>
      <trkpt lat="45.92116" lon="4.75533">
        <ele>174</ele>
        <time>2018-09-13T08:40:06Z</time>
      </trkpt>
      <trkpt lat="45.92114" lon="4.75543">
        <ele>174</ele>
        <time>2018-09-13T08:40:07Z</time>
      </trkpt>
      <trkpt lat="45.9211" lon="4.75551">
        <ele>174</ele>
        <time>2018-09-13T08:40:08Z</time>
      </trkpt>
      <trkpt lat="45.92108" lon="4.75559">
        <ele>174</ele>
        <time>2018-09-13T08:40:09Z</time>
      </trkpt>
      <trkpt lat="45.92104" lon="4.75567">
        <ele>174</ele>
        <time>2018-09-13T08:40:10Z</time>
      </trkpt>
      <trkpt lat="45.92098" lon="4.75572">
        <ele>174</ele>
        <time>2018-09-13T08:40:11Z</time>
      </trkpt>
      <trkpt lat="45.92094" lon="4.75579">
        <ele>174</ele>
        <time>2018-09-13T08:40:12Z</time>
      </trkpt>
      <trkpt lat="45.9209" lon="4.75585">
        <ele>174</ele>
        <time>2018-09-13T08:40:13Z</time>
      </trkpt>
      <trkpt lat="45.92087" lon="4.7559">
        <ele>174</ele>
        <time>2018-09-13T08:40:14Z</time>
      </trkpt>
      <trkpt lat="45.92083" lon="4.75595">
        <ele>175</ele>
        <time>2018-09-13T08:40:15Z</time>
      </trkpt>
      <trkpt lat="45.92078" lon="4.756">
        <ele>175</ele>
        <time>2018-09-13T08:40:16Z</time>
      </trkpt>
      <trkpt lat="45.92076" lon="4.75606">
        <ele>175</ele>
        <time>2018-09-13T08:40:17Z</time>
      </trkpt>
      <trkpt lat="45.92072" lon="4.75612">
        <ele>175</ele>
        <time>2018-09-13T08:40:18Z</time>
      </trkpt>
      <trkpt lat="45.92068" lon="4.75618">
        <ele>175</ele>
        <time>2018-09-13T08:40:19Z</time>
      </trkpt>
      <trkpt lat="45.92064" lon="4.75622">
        <ele>175</ele>
        <time>2018-09-13T08:40:20Z</time>
      </trkpt>
      <trkpt lat="45.92061" lon="4.7563">
        <ele>175</ele>
        <time>2018-09-13T08:40:21Z</time>
      </trkpt>
      <trkpt lat="45.92059" lon="4.75637">
        <ele>175</ele>
        <time>2018-09-13T08:40:22Z</time>
      </trkpt>
      <trkpt lat="45.92053" lon="4.75642">
        <ele>175</ele>
        <time>2018-09-13T08:40:23Z</time>
      </trkpt>
      <trkpt lat="45.9205" lon="4.75651">
        <ele>175</ele>
        <time>2018-09-13T08:40:24Z</time>
      </trkpt>
      <trkpt lat="45.92047" lon="4.75658">
        <ele>175</ele>
        <time>2018-09-13T08:40:25Z</time>
      </trkpt>
      <trkpt lat="45.92043" lon="4.75665">
        <ele>175</ele>
        <time>2018-09-13T08:40:26Z</time>
      </trkpt>
      <trkpt lat="45.92039" lon="4.75672">
        <ele>175</ele>
        <time>2018-09-13T08:40:27Z</time>
      </trkpt>
      <trkpt lat="45.92036" lon="4.75679">
        <ele>175</ele>
        <time>2018-09-13T08:40:28Z</time>
      </trkpt>
      <trkpt lat="45.92033" lon="4.75686">
        <ele>175</ele>
        <time>2018-09-13T08:40:29Z</time>
      </trkpt>
      <trkpt lat="45.92029" lon="4.75692">
        <ele>175</ele>
        <time>2018-09-13T08:40:30Z</time>
      </trkpt>
      <trkpt lat="45.92026" lon="4.75699">
        <ele>175</ele>
        <time>2018-09-13T08:40:31Z</time>
      </trkpt>
      <trkpt lat="45.92022" lon="4.75706">
        <ele>175</ele>
        <time>2018-09-13T08:40:32Z</time>
      </trkpt>
      <trkpt lat="45.92019" lon="4.75713">
        <ele>175</ele>
        <time>2018-09-13T08:40:33Z</time>
      </trkpt>
      <trkpt lat="45.92017" lon="4.75722">
        <ele>175</ele>
        <time>2018-09-13T08:40:34Z</time>
      </trkpt>
      <trkpt lat="45.92013" lon="4.75728">
        <ele>175</ele>
        <time>2018-09-13T08:40:35Z</time>
      </trkpt>
      <trkpt lat="45.92008" lon="4.75732">
        <ele>175</ele>
        <time>2018-09-13T08:40:36Z</time>
      </trkpt>
      <trkpt lat="45.92006" lon="4.75739">
        <ele>174</ele>
        <time>2018-09-13T08:40:37Z</time>
      </trkpt>
      <trkpt lat="45.92002" lon="4.75746">
        <ele>174</ele>
        <time>2018-09-13T08:40:38Z</time>
      </trkpt>
      <trkpt lat="45.92" lon="4.7575">
        <ele>174</ele>
        <time>2018-09-13T08:40:39Z</time>
      </trkpt>
      <trkpt lat="45.91995" lon="4.7576">
        <ele>174</ele>
        <time>2018-09-13T08:40:40Z</time>
      </trkpt>
      <trkpt lat="45.91991" lon="4.75766">
        <ele>174</ele>
        <time>2018-09-13T08:40:41Z</time>
      </trkpt>
      <trkpt lat="45.91989" lon="4.75773">
        <ele>174</ele>
        <time>2018-09-13T08:40:42Z</time>
      </trkpt>
      <trkpt lat="45.91986" lon="4.75779">
        <ele>174</ele>
        <time>2018-09-13T08:40:43Z</time>
      </trkpt>
      <trkpt lat="45.91982" lon="4.75785">
        <ele>173</ele>
        <time>2018-09-13T08:40:44Z</time>
      </trkpt>
      <trkpt lat="45.91979" lon="4.7579">
        <ele>173</ele>
        <time>2018-09-13T08:40:45Z</time>
      </trkpt>
      <trkpt lat="45.91976" lon="4.75797">
        <ele>173</ele>
        <time>2018-09-13T08:40:46Z</time>
      </trkpt>
      <trkpt lat="45.91972" lon="4.75803">
        <ele>173</ele>
        <time>2018-09-13T08:40:47Z</time>
      </trkpt>
      <trkpt lat="45.91968" lon="4.75808">
        <ele>173</ele>
        <time>2018-09-13T08:40:48Z</time>
      </trkpt>
      <trkpt lat="45.91966" lon="4.75817">
        <ele>173</ele>
        <time>2018-09-13T08:40:49Z</time>
      </trkpt>
      <trkpt lat="45.91962" lon="4.75824">
        <ele>173</ele>
        <time>2018-09-13T08:40:50Z</time>
      </trkpt>
      <trkpt lat="45.91958" lon="4.7583">
        <ele>173</ele>
        <time>2018-09-13T08:40:51Z</time>
      </trkpt>
      <trkpt lat="45.91955" lon="4.75837">
        <ele>172</ele>
        <time>2018-09-13T08:40:52Z</time>
      </trkpt>
      <trkpt lat="45.91952" lon="4.75842">
        <ele>172</ele>
        <time>2018-09-13T08:40:53Z</time>
      </trkpt>
      <trkpt lat="45.91948" lon="4.75848">
        <ele>172</ele>
        <time>2018-09-13T08:40:54Z</time>
      </trkpt>
      <trkpt lat="45.91944" lon="4.75855">
        <ele>172</ele>
        <time>2018-09-13T08:40:55Z</time>
      </trkpt>
      <trkpt lat="45.91942" lon="4.7586">
        <ele>172</ele>
        <time>2018-09-13T08:40:56Z</time>
      </trkpt>
      <trkpt lat="45.91939" lon="4.75868">
        <ele>172</ele>
        <time>2018-09-13T08:40:57Z</time>
      </trkpt>
      <trkpt lat="45.91936" lon="4.75875">
        <ele>172</ele>
        <time>2018-09-13T08:40:58Z</time>
      </trkpt>
      <trkpt lat="45.91933" lon="4.75882">
        <ele>172</ele>
        <time>2018-09-13T08:40:59Z</time>
      </trkpt>
      <trkpt lat="45.91929" lon="4.7589">
        <ele>172</ele>
        <time>2018-09-13T08:41:00Z</time>
      </trkpt>
      <trkpt lat="45.91927" lon="4.75897">
        <ele>172</ele>
        <time>2018-09-13T08:41:01Z</time>
      </trkpt>
      <trkpt lat="45.91925" lon="4.75906">
        <ele>172</ele>
        <time>2018-09-13T08:41:02Z</time>
      </trkpt>
      <trkpt lat="45.91922" lon="4.75914">
        <ele>172</ele>
        <time>2018-09-13T08:41:03Z</time>
      </trkpt>
      <trkpt lat="45.9192" lon="4.75922">
        <ele>172</ele>
        <time>2018-09-13T08:41:04Z</time>
      </trkpt>
      <trkpt lat="45.91919" lon="4.75929">
        <ele>172</ele>
        <time>2018-09-13T08:41:05Z</time>
      </trkpt>
      <trkpt lat="45.91917" lon="4.75937">
        <ele>172</ele>
        <time>2018-09-13T08:41:06Z</time>
      </trkpt>
      <trkpt lat="45.91915" lon="4.75945">
        <ele>173</ele>
        <time>2018-09-13T08:41:07Z</time>
      </trkpt>
      <trkpt lat="45.91912" lon="4.75953">
        <ele>173</ele>
        <time>2018-09-13T08:41:08Z</time>
      </trkpt>
      <trkpt lat="45.9191" lon="4.75961">
        <ele>173</ele>
        <time>2018-09-13T08:41:09Z</time>
      </trkpt>
      <trkpt lat="45.91908" lon="4.7597">
        <ele>173</ele>
        <time>2018-09-13T08:41:10Z</time>
      </trkpt>
      <trkpt lat="45.91906" lon="4.75977">
        <ele>173</ele>
        <time>2018-09-13T08:41:11Z</time>
      </trkpt>
      <trkpt lat="45.91903" lon="4.75984">
        <ele>173</ele>
        <time>2018-09-13T08:41:12Z</time>
      </trkpt>
      <trkpt lat="45.919" lon="4.75992">
        <ele>173</ele>
        <time>2018-09-13T08:41:13Z</time>
      </trkpt>
      <trkpt lat="45.91898" lon="4.76">
        <ele>173</ele>
        <time>2018-09-13T08:41:14Z</time>
      </trkpt>
      <trkpt lat="45.91896" lon="4.76008">
        <ele>173</ele>
        <time>2018-09-13T08:41:15Z</time>
      </trkpt>
      <trkpt lat="45.91894" lon="4.76017">
        <ele>173</ele>
        <time>2018-09-13T08:41:16Z</time>
      </trkpt>
      <trkpt lat="45.91891" lon="4.76025">
        <ele>173</ele>
        <time>2018-09-13T08:41:17Z</time>
      </trkpt>
      <trkpt lat="45.91889" lon="4.76034">
        <ele>173</ele>
        <time>2018-09-13T08:41:18Z</time>
      </trkpt>
      <trkpt lat="45.91887" lon="4.76041">
        <ele>173</ele>
        <time>2018-09-13T08:41:19Z</time>
      </trkpt>
      <trkpt lat="45.91885" lon="4.76049">
        <ele>173</ele>
        <time>2018-09-13T08:41:20Z</time>
      </trkpt>
      <trkpt lat="45.91883" lon="4.76056">
        <ele>173</ele>
        <time>2018-09-13T08:41:21Z</time>
      </trkpt>
      <trkpt lat="45.91881" lon="4.76064">
        <ele>173</ele>
        <time>2018-09-13T08:41:22Z</time>
      </trkpt>
      <trkpt lat="45.91878" lon="4.76071">
        <ele>173</ele>
        <time>2018-09-13T08:41:23Z</time>
      </trkpt>
      <trkpt lat="45.91876" lon="4.76078">
        <ele>173</ele>
        <time>2018-09-13T08:41:24Z</time>
      </trkpt>
      <trkpt lat="45.91875" lon="4.76087">
        <ele>173</ele>
        <time>2018-09-13T08:41:25Z</time>
      </trkpt>
      <trkpt lat="45.91873" lon="4.76094">
        <ele>173</ele>
        <time>2018-09-13T08:41:26Z</time>
      </trkpt>
      <trkpt lat="45.91872" lon="4.76102">
        <ele>173</ele>
        <time>2018-09-13T08:41:27Z</time>
      </trkpt>
      <trkpt lat="45.9187" lon="4.76111">
        <ele>173</ele>
        <time>2018-09-13T08:41:28Z</time>
      </trkpt>
      <trkpt lat="45.91867" lon="4.76119">
        <ele>173</ele>
        <time>2018-09-13T08:41:29Z</time>
      </trkpt>
      <trkpt lat="45.91865" lon="4.76127">
        <ele>173</ele>
        <time>2018-09-13T08:41:30Z</time>
      </trkpt>
      <trkpt lat="45.91863" lon="4.76136">
        <ele>173</ele>
        <time>2018-09-13T08:41:31Z</time>
      </trkpt>
      <trkpt lat="45.9186" lon="4.76144">
        <ele>173</ele>
        <time>2018-09-13T08:41:32Z</time>
      </trkpt>
      <trkpt lat="45.91858" lon="4.76152">
        <ele>173</ele>
        <time>2018-09-13T08:41:33Z</time>
      </trkpt>
      <trkpt lat="45.91855" lon="4.76157">
        <ele>173</ele>
        <time>2018-09-13T08:41:34Z</time>
      </trkpt>
      <trkpt lat="45.91855" lon="4.76165">
        <ele>173</ele>
        <time>2018-09-13T08:41:35Z</time>
      </trkpt>
      <trkpt lat="45.91854" lon="4.76173">
        <ele>172</ele>
        <time>2018-09-13T08:41:36Z</time>
      </trkpt>
      <trkpt lat="45.91852" lon="4.7618">
        <ele>172</ele>
        <time>2018-09-13T08:41:37Z</time>
      </trkpt>
      <trkpt lat="45.9185" lon="4.76187">
        <ele>172</ele>
        <time>2018-09-13T08:41:38Z</time>
      </trkpt>
      <trkpt lat="45.91848" lon="4.76194">
        <ele>172</ele>
        <time>2018-09-13T08:41:39Z</time>
      </trkpt>
      <trkpt lat="45.91847" lon="4.76203">
        <ele>172</ele>
        <time>2018-09-13T08:41:40Z</time>
      </trkpt>
      <trkpt lat="45.91844" lon="4.76214">
        <ele>172</ele>
        <time>2018-09-13T08:41:41Z</time>
      </trkpt>
      <trkpt lat="45.91842" lon="4.76223">
        <ele>172</ele>
        <time>2018-09-13T08:41:42Z</time>
      </trkpt>
      <trkpt lat="45.9184" lon="4.76232">
        <ele>172</ele>
        <time>2018-09-13T08:41:43Z</time>
      </trkpt>
      <trkpt lat="45.91838" lon="4.7624">
        <ele>173</ele>
        <time>2018-09-13T08:41:44Z</time>
      </trkpt>
      <trkpt lat="45.91836" lon="4.76248">
        <ele>173</ele>
        <time>2018-09-13T08:41:45Z</time>
      </trkpt>
      <trkpt lat="45.91833" lon="4.76256">
        <ele>173</ele>
        <time>2018-09-13T08:41:46Z</time>
      </trkpt>
      <trkpt lat="45.91831" lon="4.76265">
        <ele>174</ele>
        <time>2018-09-13T08:41:47Z</time>
      </trkpt>
      <trkpt lat="45.91829" lon="4.76275">
        <ele>174</ele>
        <time>2018-09-13T08:41:48Z</time>
      </trkpt>
      <trkpt lat="45.91827" lon="4.76282">
        <ele>174</ele>
        <time>2018-09-13T08:41:49Z</time>
      </trkpt>
      <trkpt lat="45.91824" lon="4.76289">
        <ele>174</ele>
        <time>2018-09-13T08:41:50Z</time>
      </trkpt>
      <trkpt lat="45.91822" lon="4.76298">
        <ele>174</ele>
        <time>2018-09-13T08:41:51Z</time>
      </trkpt>
      <trkpt lat="45.91821" lon="4.76305">
        <ele>174</ele>
        <time>2018-09-13T08:41:52Z</time>
      </trkpt>
      <trkpt lat="45.91821" lon="4.76316">
        <ele>174</ele>
        <time>2018-09-13T08:41:53Z</time>
      </trkpt>
      <trkpt lat="45.91818" lon="4.76324">
        <ele>174</ele>
        <time>2018-09-13T08:41:54Z</time>
      </trkpt>
      <trkpt lat="45.91817" lon="4.76332">
        <ele>174</ele>
        <time>2018-09-13T08:41:55Z</time>
      </trkpt>
      <trkpt lat="45.91814" lon="4.76339">
        <ele>174</ele>
        <time>2018-09-13T08:41:56Z</time>
      </trkpt>
      <trkpt lat="45.91815" lon="4.76348">
        <ele>174</ele>
        <time>2018-09-13T08:41:57Z</time>
      </trkpt>
      <trkpt lat="45.91814" lon="4.76358">
        <ele>174</ele>
        <time>2018-09-13T08:41:58Z</time>
      </trkpt>
      <trkpt lat="45.91813" lon="4.76366">
        <ele>174</ele>
        <time>2018-09-13T08:41:59Z</time>
      </trkpt>
      <trkpt lat="45.91812" lon="4.76374">
        <ele>174</ele>
        <time>2018-09-13T08:42:00Z</time>
      </trkpt>
      <trkpt lat="45.91811" lon="4.76382">
        <ele>174</ele>
        <time>2018-09-13T08:42:01Z</time>
      </trkpt>
      <trkpt lat="45.91811" lon="4.7639">
        <ele>174</ele>
        <time>2018-09-13T08:42:02Z</time>
      </trkpt>
      <trkpt lat="45.91811" lon="4.76397">
        <ele>173</ele>
        <time>2018-09-13T08:42:03Z</time>
      </trkpt>
      <trkpt lat="45.91811" lon="4.76405">
        <ele>173</ele>
        <time>2018-09-13T08:42:04Z</time>
      </trkpt>
      <trkpt lat="45.91813" lon="4.76413">
        <ele>173</ele>
        <time>2018-09-13T08:42:05Z</time>
      </trkpt>
      <trkpt lat="45.91813" lon="4.76421">
        <ele>173</ele>
        <time>2018-09-13T08:42:06Z</time>
      </trkpt>
      <trkpt lat="45.91812" lon="4.76428">
        <ele>173</ele>
        <time>2018-09-13T08:42:07Z</time>
      </trkpt>
      <trkpt lat="45.91811" lon="4.76436">
        <ele>173</ele>
        <time>2018-09-13T08:42:08Z</time>
      </trkpt>
      <trkpt lat="45.91812" lon="4.76444">
        <ele>173</ele>
        <time>2018-09-13T08:42:09Z</time>
      </trkpt>
      <trkpt lat="45.91811" lon="4.76451">
        <ele>173</ele>
        <time>2018-09-13T08:42:10Z</time>
      </trkpt>
      <trkpt lat="45.91811" lon="4.76457">
        <ele>173</ele>
        <time>2018-09-13T08:42:11Z</time>
      </trkpt>
      <trkpt lat="45.9181" lon="4.76465">
        <ele>173</ele>
        <time>2018-09-13T08:42:12Z</time>
      </trkpt>
      <trkpt lat="45.9181" lon="4.76471">
        <ele>173</ele>
        <time>2018-09-13T08:42:13Z</time>
      </trkpt>
      <trkpt lat="45.91809" lon="4.7648">
        <ele>173</ele>
        <time>2018-09-13T08:42:14Z</time>
      </trkpt>
      <trkpt lat="45.91809" lon="4.76488">
        <ele>173</ele>
        <time>2018-09-13T08:42:15Z</time>
      </trkpt>
      <trkpt lat="45.91808" lon="4.76493">
        <ele>173</ele>
        <time>2018-09-13T08:42:16Z</time>
      </trkpt>
      <trkpt lat="45.91808" lon="4.76503">
        <ele>173</ele>
        <time>2018-09-13T08:42:17Z</time>
      </trkpt>
      <trkpt lat="45.91807" lon="4.7651">
        <ele>173</ele>
        <time>2018-09-13T08:42:18Z</time>
      </trkpt>
      <trkpt lat="45.91806" lon="4.7652">
        <ele>173</ele>
        <time>2018-09-13T08:42:19Z</time>
      </trkpt>
      <trkpt lat="45.91806" lon="4.76528">
        <ele>173</ele>
        <time>2018-09-13T08:42:20Z</time>
      </trkpt>
      <trkpt lat="45.91806" lon="4.76537">
        <ele>173</ele>
        <time>2018-09-13T08:42:21Z</time>
      </trkpt>
      <trkpt lat="45.91806" lon="4.76545">
        <ele>173</ele>
        <time>2018-09-13T08:42:22Z</time>
      </trkpt>
      <trkpt lat="45.91805" lon="4.76554">
        <ele>173</ele>
        <time>2018-09-13T08:42:23Z</time>
      </trkpt>
      <trkpt lat="45.91803" lon="4.76561">
        <ele>173</ele>
        <time>2018-09-13T08:42:24Z</time>
      </trkpt>
      <trkpt lat="45.91801" lon="4.76568">
        <ele>173</ele>
        <time>2018-09-13T08:42:25Z</time>
      </trkpt>
      <trkpt lat="45.918" lon="4.76576">
        <ele>173</ele>
        <time>2018-09-13T08:42:26Z</time>
      </trkpt>
      <trkpt lat="45.91799" lon="4.76582">
        <ele>173</ele>
        <time>2018-09-13T08:42:27Z</time>
      </trkpt>
      <trkpt lat="45.91798" lon="4.7659">
        <ele>173</ele>
        <time>2018-09-13T08:42:28Z</time>
      </trkpt>
      <trkpt lat="45.91797" lon="4.76597">
        <ele>173</ele>
        <time>2018-09-13T08:42:29Z</time>
      </trkpt>
      <trkpt lat="45.91796" lon="4.76606">
        <ele>173</ele>
        <time>2018-09-13T08:42:30Z</time>
      </trkpt>
      <trkpt lat="45.91796" lon="4.76613">
        <ele>173</ele>
        <time>2018-09-13T08:42:31Z</time>
      </trkpt>
      <trkpt lat="45.91795" lon="4.7662">
        <ele>173</ele>
        <time>2018-09-13T08:42:32Z</time>
      </trkpt>
      <trkpt lat="45.91794" lon="4.76627">
        <ele>173</ele>
        <time>2018-09-13T08:42:33Z</time>
      </trkpt>
      <trkpt lat="45.91792" lon="4.7664">
        <ele>173</ele>
        <time>2018-09-13T08:42:35Z</time>
      </trkpt>
      <trkpt lat="45.91791" lon="4.76647">
        <ele>173</ele>
        <time>2018-09-13T08:42:36Z</time>
      </trkpt>
      <trkpt lat="45.9179" lon="4.76654">
        <ele>173</ele>
        <time>2018-09-13T08:42:37Z</time>
      </trkpt>
      <trkpt lat="45.91789" lon="4.76661">
        <ele>173</ele>
        <time>2018-09-13T08:42:38Z</time>
      </trkpt>
      <trkpt lat="45.91787" lon="4.76668">
        <ele>172</ele>
        <time>2018-09-13T08:42:39Z</time>
      </trkpt>
      <trkpt lat="45.91787" lon="4.76676">
        <ele>172</ele>
        <time>2018-09-13T08:42:40Z</time>
      </trkpt>
      <trkpt lat="45.91785" lon="4.76685">
        <ele>172</ele>
        <time>2018-09-13T08:42:41Z</time>
      </trkpt>
      <trkpt lat="45.91785" lon="4.76691">
        <ele>172</ele>
        <time>2018-09-13T08:42:42Z</time>
      </trkpt>
      <trkpt lat="45.91784" lon="4.767">
        <ele>172</ele>
        <time>2018-09-13T08:42:43Z</time>
      </trkpt>
      <trkpt lat="45.91783" lon="4.76709">
        <ele>172</ele>
        <time>2018-09-13T08:42:44Z</time>
      </trkpt>
      <trkpt lat="45.91782" lon="4.76718">
        <ele>172</ele>
        <time>2018-09-13T08:42:45Z</time>
      </trkpt>
      <trkpt lat="45.9178" lon="4.76728">
        <ele>172</ele>
        <time>2018-09-13T08:42:46Z</time>
      </trkpt>
      <trkpt lat="45.9178" lon="4.76737">
        <ele>172</ele>
        <time>2018-09-13T08:42:47Z</time>
      </trkpt>
      <trkpt lat="45.91779" lon="4.76745">
        <ele>172</ele>
        <time>2018-09-13T08:42:48Z</time>
      </trkpt>
      <trkpt lat="45.91779" lon="4.76755">
        <ele>171</ele>
        <time>2018-09-13T08:42:49Z</time>
      </trkpt>
      <trkpt lat="45.91778" lon="4.76763">
        <ele>171</ele>
        <time>2018-09-13T08:42:50Z</time>
      </trkpt>
      <trkpt lat="45.91777" lon="4.76772">
        <ele>171</ele>
        <time>2018-09-13T08:42:51Z</time>
      </trkpt>
      <trkpt lat="45.91777" lon="4.7678">
        <ele>171</ele>
        <time>2018-09-13T08:42:52Z</time>
      </trkpt>
      <trkpt lat="45.91776" lon="4.7679">
        <ele>171</ele>
        <time>2018-09-13T08:42:53Z</time>
      </trkpt>
      <trkpt lat="45.91777" lon="4.76798">
        <ele>171</ele>
        <time>2018-09-13T08:42:54Z</time>
      </trkpt>
      <trkpt lat="45.91777" lon="4.76807">
        <ele>171</ele>
        <time>2018-09-13T08:42:55Z</time>
      </trkpt>
      <trkpt lat="45.91776" lon="4.76816">
        <ele>171</ele>
        <time>2018-09-13T08:42:56Z</time>
      </trkpt>
      <trkpt lat="45.91776" lon="4.76825">
        <ele>171</ele>
        <time>2018-09-13T08:42:57Z</time>
      </trkpt>
      <trkpt lat="45.91775" lon="4.76835">
        <ele>171</ele>
        <time>2018-09-13T08:42:58Z</time>
      </trkpt>
      <trkpt lat="45.91774" lon="4.76844">
        <ele>171</ele>
        <time>2018-09-13T08:42:59Z</time>
      </trkpt>
      <trkpt lat="45.91774" lon="4.76854">
        <ele>170</ele>
        <time>2018-09-13T08:43:00Z</time>
      </trkpt>
      <trkpt lat="45.91774" lon="4.76864">
        <ele>170</ele>
        <time>2018-09-13T08:43:01Z</time>
      </trkpt>
      <trkpt lat="45.91773" lon="4.76875">
        <ele>170</ele>
        <time>2018-09-13T08:43:02Z</time>
      </trkpt>
      <trkpt lat="45.91773" lon="4.76884">
        <ele>170</ele>
        <time>2018-09-13T08:43:03Z</time>
      </trkpt>
      <trkpt lat="45.91772" lon="4.76895">
        <ele>170</ele>
        <time>2018-09-13T08:43:04Z</time>
      </trkpt>
      <trkpt lat="45.91771" lon="4.76905">
        <ele>170</ele>
        <time>2018-09-13T08:43:05Z</time>
      </trkpt>
      <trkpt lat="45.9177" lon="4.76913">
        <ele>171</ele>
        <time>2018-09-13T08:43:06Z</time>
      </trkpt>
      <trkpt lat="45.9177" lon="4.76925">
        <ele>170</ele>
        <time>2018-09-13T08:43:07Z</time>
      </trkpt>
      <trkpt lat="45.91768" lon="4.76934">
        <ele>170</ele>
        <time>2018-09-13T08:43:08Z</time>
      </trkpt>
      <trkpt lat="45.91767" lon="4.76942">
        <ele>169</ele>
        <time>2018-09-13T08:43:09Z</time>
      </trkpt>
      <trkpt lat="45.91766" lon="4.76951">
        <ele>169</ele>
        <time>2018-09-13T08:43:10Z</time>
      </trkpt>
      <trkpt lat="45.91765" lon="4.7696">
        <ele>169</ele>
        <time>2018-09-13T08:43:11Z</time>
      </trkpt>
      <trkpt lat="45.91765" lon="4.76971">
        <ele>169</ele>
        <time>2018-09-13T08:43:12Z</time>
      </trkpt>
      <trkpt lat="45.91764" lon="4.7698">
        <ele>169</ele>
        <time>2018-09-13T08:43:13Z</time>
      </trkpt>
      <trkpt lat="45.91764" lon="4.76992">
        <ele>169</ele>
        <time>2018-09-13T08:43:14Z</time>
      </trkpt>
      <trkpt lat="45.91763" lon="4.77001">
        <ele>169</ele>
        <time>2018-09-13T08:43:15Z</time>
      </trkpt>
      <trkpt lat="45.91762" lon="4.77008">
        <ele>169</ele>
        <time>2018-09-13T08:43:16Z</time>
      </trkpt>
      <trkpt lat="45.9176" lon="4.77016">
        <ele>169</ele>
        <time>2018-09-13T08:43:17Z</time>
      </trkpt>
      <trkpt lat="45.91761" lon="4.77026">
        <ele>169</ele>
        <time>2018-09-13T08:43:18Z</time>
      </trkpt>
      <trkpt lat="45.9176" lon="4.77035">
        <ele>168</ele>
        <time>2018-09-13T08:43:19Z</time>
      </trkpt>
      <trkpt lat="45.91759" lon="4.77041">
        <ele>168</ele>
        <time>2018-09-13T08:43:20Z</time>
      </trkpt>
      <trkpt lat="45.91758" lon="4.7705">
        <ele>169</ele>
        <time>2018-09-13T08:43:21Z</time>
      </trkpt>
      <trkpt lat="45.91756" lon="4.77059">
        <ele>169</ele>
        <time>2018-09-13T08:43:22Z</time>
      </trkpt>
      <trkpt lat="45.91755" lon="4.77072">
        <ele>169</ele>
        <time>2018-09-13T08:43:23Z</time>
      </trkpt>
      <trkpt lat="45.91754" lon="4.77081">
        <ele>169</ele>
        <time>2018-09-13T08:43:24Z</time>
      </trkpt>
      <trkpt lat="45.91751" lon="4.77092">
        <ele>169</ele>
        <time>2018-09-13T08:43:25Z</time>
      </trkpt>
      <trkpt lat="45.9175" lon="4.771">
        <ele>170</ele>
        <time>2018-09-13T08:43:26Z</time>
      </trkpt>
      <trkpt lat="45.91749" lon="4.7711">
        <ele>170</ele>
        <time>2018-09-13T08:43:27Z</time>
      </trkpt>
      <trkpt lat="45.91748" lon="4.77119">
        <ele>170</ele>
        <time>2018-09-13T08:43:28Z</time>
      </trkpt>
      <trkpt lat="45.91746" lon="4.77129">
        <ele>170</ele>
        <time>2018-09-13T08:43:29Z</time>
      </trkpt>
      <trkpt lat="45.91745" lon="4.77137">
        <ele>170</ele>
        <time>2018-09-13T08:43:30Z</time>
      </trkpt>
      <trkpt lat="45.91743" lon="4.77145">
        <ele>170</ele>
        <time>2018-09-13T08:43:31Z</time>
      </trkpt>
      <trkpt lat="45.91743" lon="4.77153">
        <ele>170</ele>
        <time>2018-09-13T08:43:32Z</time>
      </trkpt>
      <trkpt lat="45.91741" lon="4.77162">
        <ele>170</ele>
        <time>2018-09-13T08:43:33Z</time>
      </trkpt>
      <trkpt lat="45.9174" lon="4.7717">
        <ele>170</ele>
        <time>2018-09-13T08:43:34Z</time>
      </trkpt>
      <trkpt lat="45.91739" lon="4.77179">
        <ele>170</ele>
        <time>2018-09-13T08:43:35Z</time>
      </trkpt>
      <trkpt lat="45.91738" lon="4.77189">
        <ele>170</ele>
        <time>2018-09-13T08:43:36Z</time>
      </trkpt>
      <trkpt lat="45.91737" lon="4.77198">
        <ele>170</ele>
        <time>2018-09-13T08:43:37Z</time>
      </trkpt>
      <trkpt lat="45.91736" lon="4.77206">
        <ele>170</ele>
        <time>2018-09-13T08:43:38Z</time>
      </trkpt>
      <trkpt lat="45.91734" lon="4.77213">
        <ele>170</ele>
        <time>2018-09-13T08:43:39Z</time>
      </trkpt>
      <trkpt lat="45.91733" lon="4.77222">
        <ele>170</ele>
        <time>2018-09-13T08:43:40Z</time>
      </trkpt>
      <trkpt lat="45.9173" lon="4.77229">
        <ele>170</ele>
        <time>2018-09-13T08:43:41Z</time>
      </trkpt>
      <trkpt lat="45.91729" lon="4.77236">
        <ele>170</ele>
        <time>2018-09-13T08:43:42Z</time>
      </trkpt>
      <trkpt lat="45.91727" lon="4.77244">
        <ele>169</ele>
        <time>2018-09-13T08:43:43Z</time>
      </trkpt>
      <trkpt lat="45.91727" lon="4.7725">
        <ele>169</ele>
        <time>2018-09-13T08:43:44Z</time>
      </trkpt>
      <trkpt lat="45.91725" lon="4.77257">
        <ele>170</ele>
        <time>2018-09-13T08:43:45Z</time>
      </trkpt>
      <trkpt lat="45.91725" lon="4.77267">
        <ele>170</ele>
        <time>2018-09-13T08:43:46Z</time>
      </trkpt>
      <trkpt lat="45.91724" lon="4.77274">
        <ele>170</ele>
        <time>2018-09-13T08:43:47Z</time>
      </trkpt>
      <trkpt lat="45.91723" lon="4.77284">
        <ele>170</ele>
        <time>2018-09-13T08:43:48Z</time>
      </trkpt>
      <trkpt lat="45.91722" lon="4.77291">
        <ele>170</ele>
        <time>2018-09-13T08:43:49Z</time>
      </trkpt>
      <trkpt lat="45.9172" lon="4.773">
        <ele>170</ele>
        <time>2018-09-13T08:43:50Z</time>
      </trkpt>
      <trkpt lat="45.91719" lon="4.77309">
        <ele>170</ele>
        <time>2018-09-13T08:43:51Z</time>
      </trkpt>
      <trkpt lat="45.91718" lon="4.77317">
        <ele>170</ele>
        <time>2018-09-13T08:43:52Z</time>
      </trkpt>
      <trkpt lat="45.91718" lon="4.77325">
        <ele>170</ele>
        <time>2018-09-13T08:43:53Z</time>
      </trkpt>
      <trkpt lat="45.91716" lon="4.77335">
        <ele>170</ele>
        <time>2018-09-13T08:43:54Z</time>
      </trkpt>
      <trkpt lat="45.91714" lon="4.77343">
        <ele>171</ele>
        <time>2018-09-13T08:43:55Z</time>
      </trkpt>
      <trkpt lat="45.91714" lon="4.7735">
        <ele>171</ele>
        <time>2018-09-13T08:43:56Z</time>
      </trkpt>
      <trkpt lat="45.91713" lon="4.77358">
        <ele>171</ele>
        <time>2018-09-13T08:43:57Z</time>
      </trkpt>
      <trkpt lat="45.91712" lon="4.77367">
        <ele>171</ele>
        <time>2018-09-13T08:43:58Z</time>
      </trkpt>
      <trkpt lat="45.9171" lon="4.77374">
        <ele>171</ele>
        <time>2018-09-13T08:43:59Z</time>
      </trkpt>
      <trkpt lat="45.91708" lon="4.7738">
        <ele>171</ele>
        <time>2018-09-13T08:44:00Z</time>
      </trkpt>
      <trkpt lat="45.91706" lon="4.77388">
        <ele>171</ele>
        <time>2018-09-13T08:44:01Z</time>
      </trkpt>
      <trkpt lat="45.91705" lon="4.77395">
        <ele>171</ele>
        <time>2018-09-13T08:44:02Z</time>
      </trkpt>
      <trkpt lat="45.91703" lon="4.77402">
        <ele>171</ele>
        <time>2018-09-13T08:44:03Z</time>
      </trkpt>
      <trkpt lat="45.91704" lon="4.77414">
        <ele>171</ele>
        <time>2018-09-13T08:44:04Z</time>
      </trkpt>
      <trkpt lat="45.91704" lon="4.77422">
        <ele>171</ele>
        <time>2018-09-13T08:44:05Z</time>
      </trkpt>
      <trkpt lat="45.91703" lon="4.77428">
        <ele>171</ele>
        <time>2018-09-13T08:44:06Z</time>
      </trkpt>
      <trkpt lat="45.91702" lon="4.77435">
        <ele>171</ele>
        <time>2018-09-13T08:44:07Z</time>
      </trkpt>
      <trkpt lat="45.91701" lon="4.77443">
        <ele>171</ele>
        <time>2018-09-13T08:44:08Z</time>
      </trkpt>
      <trkpt lat="45.91701" lon="4.77449">
        <ele>171</ele>
        <time>2018-09-13T08:44:09Z</time>
      </trkpt>
      <trkpt lat="45.91701" lon="4.77456">
        <ele>171</ele>
        <time>2018-09-13T08:44:10Z</time>
      </trkpt>
      <trkpt lat="45.917" lon="4.77464">
        <ele>171</ele>
        <time>2018-09-13T08:44:11Z</time>
      </trkpt>
      <trkpt lat="45.91697" lon="4.77469">
        <ele>170</ele>
        <time>2018-09-13T08:44:12Z</time>
      </trkpt>
      <trkpt lat="45.91694" lon="4.77475">
        <ele>170</ele>
        <time>2018-09-13T08:44:13Z</time>
      </trkpt>
      <trkpt lat="45.91692" lon="4.77482">
        <ele>170</ele>
        <time>2018-09-13T08:44:14Z</time>
      </trkpt>
      <trkpt lat="45.91691" lon="4.77491">
        <ele>170</ele>
        <time>2018-09-13T08:44:15Z</time>
      </trkpt>
      <trkpt lat="45.9169" lon="4.775">
        <ele>170</ele>
        <time>2018-09-13T08:44:16Z</time>
      </trkpt>
      <trkpt lat="45.9169" lon="4.77508">
        <ele>170</ele>
        <time>2018-09-13T08:44:17Z</time>
      </trkpt>
      <trkpt lat="45.91691" lon="4.77515">
        <ele>170</ele>
        <time>2018-09-13T08:44:18Z</time>
      </trkpt>
      <trkpt lat="45.9169" lon="4.77525">
        <ele>169</ele>
        <time>2018-09-13T08:44:19Z</time>
      </trkpt>
      <trkpt lat="45.91688" lon="4.77533">
        <ele>169</ele>
        <time>2018-09-13T08:44:20Z</time>
      </trkpt>
      <trkpt lat="45.91686" lon="4.7754">
        <ele>169</ele>
        <time>2018-09-13T08:44:21Z</time>
      </trkpt>
      <trkpt lat="45.91683" lon="4.77546">
        <ele>169</ele>
        <time>2018-09-13T08:44:22Z</time>
      </trkpt>
      <trkpt lat="45.91681" lon="4.77555">
        <ele>169</ele>
        <time>2018-09-13T08:44:23Z</time>
      </trkpt>
      <trkpt lat="45.91682" lon="4.77564">
        <ele>169</ele>
        <time>2018-09-13T08:44:24Z</time>
      </trkpt>
      <trkpt lat="45.91679" lon="4.77574">
        <ele>169</ele>
        <time>2018-09-13T08:44:25Z</time>
      </trkpt>
      <trkpt lat="45.91678" lon="4.77581">
        <ele>169</ele>
        <time>2018-09-13T08:44:26Z</time>
      </trkpt>
      <trkpt lat="45.91676" lon="4.77588">
        <ele>169</ele>
        <time>2018-09-13T08:44:27Z</time>
      </trkpt>
      <trkpt lat="45.91674" lon="4.77596">
        <ele>169</ele>
        <time>2018-09-13T08:44:28Z</time>
      </trkpt>
      <trkpt lat="45.91675" lon="4.77603">
        <ele>169</ele>
        <time>2018-09-13T08:44:29Z</time>
      </trkpt>
      <trkpt lat="45.9167" lon="4.7761">
        <ele>169</ele>
        <time>2018-09-13T08:44:30Z</time>
      </trkpt>
      <trkpt lat="45.91669" lon="4.77619">
        <ele>169</ele>
        <time>2018-09-13T08:44:31Z</time>
      </trkpt>
      <trkpt lat="45.91668" lon="4.77626">
        <ele>169</ele>
        <time>2018-09-13T08:44:32Z</time>
      </trkpt>
      <trkpt lat="45.91666" lon="4.77634">
        <ele>170</ele>
        <time>2018-09-13T08:44:33Z</time>
      </trkpt>
      <trkpt lat="45.91665" lon="4.77642">
        <ele>170</ele>
        <time>2018-09-13T08:44:34Z</time>
      </trkpt>
      <trkpt lat="45.91664" lon="4.77648">
        <ele>170</ele>
        <time>2018-09-13T08:44:35Z</time>
      </trkpt>
      <trkpt lat="45.91663" lon="4.77654">
        <ele>170</ele>
        <time>2018-09-13T08:44:36Z</time>
      </trkpt>
      <trkpt lat="45.91661" lon="4.77662">
        <ele>169</ele>
        <time>2018-09-13T08:44:37Z</time>
      </trkpt>
      <trkpt lat="45.91662" lon="4.77671">
        <ele>169</ele>
        <time>2018-09-13T08:44:38Z</time>
      </trkpt>
      <trkpt lat="45.9166" lon="4.77678">
        <ele>170</ele>
        <time>2018-09-13T08:44:39Z</time>
      </trkpt>
      <trkpt lat="45.91659" lon="4.77688">
        <ele>170</ele>
        <time>2018-09-13T08:44:40Z</time>
      </trkpt>
      <trkpt lat="45.91656" lon="4.77699">
        <ele>170</ele>
        <time>2018-09-13T08:44:41Z</time>
      </trkpt>
      <trkpt lat="45.91654" lon="4.77708">
        <ele>170</ele>
        <time>2018-09-13T08:44:42Z</time>
      </trkpt>
      <trkpt lat="45.91652" lon="4.77717">
        <ele>170</ele>
        <time>2018-09-13T08:44:43Z</time>
      </trkpt>
      <trkpt lat="45.91651" lon="4.77725">
        <ele>170</ele>
        <time>2018-09-13T08:44:44Z</time>
      </trkpt>
      <trkpt lat="45.91648" lon="4.77734">
        <ele>170</ele>
        <time>2018-09-13T08:44:45Z</time>
      </trkpt>
      <trkpt lat="45.91646" lon="4.77742">
        <ele>170</ele>
        <time>2018-09-13T08:44:46Z</time>
      </trkpt>
      <trkpt lat="45.91644" lon="4.7775">
        <ele>170</ele>
        <time>2018-09-13T08:44:47Z</time>
      </trkpt>
      <trkpt lat="45.91641" lon="4.77758">
        <ele>171</ele>
        <time>2018-09-13T08:44:48Z</time>
      </trkpt>
      <trkpt lat="45.9164" lon="4.77766">
        <ele>171</ele>
        <time>2018-09-13T08:44:49Z</time>
      </trkpt>
      <trkpt lat="45.91638" lon="4.77775">
        <ele>171</ele>
        <time>2018-09-13T08:44:50Z</time>
      </trkpt>
      <trkpt lat="45.91636" lon="4.77782">
        <ele>171</ele>
        <time>2018-09-13T08:44:51Z</time>
      </trkpt>
      <trkpt lat="45.91632" lon="4.77788">
        <ele>171</ele>
        <time>2018-09-13T08:44:52Z</time>
      </trkpt>
      <trkpt lat="45.9163" lon="4.77796">
        <ele>172</ele>
        <time>2018-09-13T08:44:53Z</time>
      </trkpt>
      <trkpt lat="45.91627" lon="4.77803">
        <ele>172</ele>
        <time>2018-09-13T08:44:54Z</time>
      </trkpt>
      <trkpt lat="45.91624" lon="4.77812">
        <ele>172</ele>
        <time>2018-09-13T08:44:55Z</time>
      </trkpt>
      <trkpt lat="45.9162" lon="4.77816">
        <ele>172</ele>
        <time>2018-09-13T08:44:56Z</time>
      </trkpt>
      <trkpt lat="45.91615" lon="4.77826">
        <ele>173</ele>
        <time>2018-09-13T08:44:58Z</time>
      </trkpt>
      <trkpt lat="45.91612" lon="4.77831">
        <ele>173</ele>
        <time>2018-09-13T08:44:59Z</time>
      </trkpt>
      <trkpt lat="45.91608" lon="4.77837">
        <ele>173</ele>
        <time>2018-09-13T08:45:00Z</time>
      </trkpt>
      <trkpt lat="45.91605" lon="4.77843">
        <ele>173</ele>
        <time>2018-09-13T08:45:01Z</time>
      </trkpt>
      <trkpt lat="45.91603" lon="4.7785">
        <ele>173</ele>
        <time>2018-09-13T08:45:02Z</time>
      </trkpt>
      <trkpt lat="45.91599" lon="4.77857">
        <ele>173</ele>
        <time>2018-09-13T08:45:03Z</time>
      </trkpt>
      <trkpt lat="45.91597" lon="4.77865">
        <ele>173</ele>
        <time>2018-09-13T08:45:04Z</time>
      </trkpt>
      <trkpt lat="45.91594" lon="4.77873">
        <ele>173</ele>
        <time>2018-09-13T08:45:05Z</time>
      </trkpt>
      <trkpt lat="45.9159" lon="4.77882">
        <ele>173</ele>
        <time>2018-09-13T08:45:06Z</time>
      </trkpt>
      <trkpt lat="45.91588" lon="4.77889">
        <ele>173</ele>
        <time>2018-09-13T08:45:07Z</time>
      </trkpt>
      <trkpt lat="45.91584" lon="4.77895">
        <ele>173</ele>
        <time>2018-09-13T08:45:08Z</time>
      </trkpt>
      <trkpt lat="45.9158" lon="4.77903">
        <ele>175</ele>
        <time>2018-09-13T08:45:09Z</time>
      </trkpt>
      <trkpt lat="45.91576" lon="4.77911">
        <ele>174</ele>
        <time>2018-09-13T08:45:10Z</time>
      </trkpt>
      <trkpt lat="45.91572" lon="4.77916">
        <ele>175</ele>
        <time>2018-09-13T08:45:11Z</time>
      </trkpt>
      <trkpt lat="45.91567" lon="4.77921">
        <ele>174</ele>
        <time>2018-09-13T08:45:12Z</time>
      </trkpt>
      <trkpt lat="45.91564" lon="4.77928">
        <ele>175</ele>
        <time>2018-09-13T08:45:13Z</time>
      </trkpt>
      <trkpt lat="45.9156" lon="4.77935">
        <ele>175</ele>
        <time>2018-09-13T08:45:14Z</time>
      </trkpt>
      <trkpt lat="45.91557" lon="4.77942">
        <ele>175</ele>
        <time>2018-09-13T08:45:15Z</time>
      </trkpt>
      <trkpt lat="45.91556" lon="4.77951">
        <ele>175</ele>
        <time>2018-09-13T08:45:16Z</time>
      </trkpt>
      <trkpt lat="45.91554" lon="4.77956">
        <ele>175</ele>
        <time>2018-09-13T08:45:17Z</time>
      </trkpt>
      <trkpt lat="45.91551" lon="4.77963">
        <ele>175</ele>
        <time>2018-09-13T08:45:18Z</time>
      </trkpt>
      <trkpt lat="45.91548" lon="4.7797">
        <ele>175</ele>
        <time>2018-09-13T08:45:19Z</time>
      </trkpt>
      <trkpt lat="45.91545" lon="4.77978">
        <ele>175</ele>
        <time>2018-09-13T08:45:20Z</time>
      </trkpt>
      <trkpt lat="45.91542" lon="4.77985">
        <ele>175</ele>
        <time>2018-09-13T08:45:21Z</time>
      </trkpt>
      <trkpt lat="45.9154" lon="4.77993">
        <ele>175</ele>
        <time>2018-09-13T08:45:22Z</time>
      </trkpt>
      <trkpt lat="45.91537" lon="4.78003">
        <ele>174</ele>
        <time>2018-09-13T08:45:23Z</time>
      </trkpt>
      <trkpt lat="45.91535" lon="4.78011">
        <ele>175</ele>
        <time>2018-09-13T08:45:24Z</time>
      </trkpt>
      <trkpt lat="45.91531" lon="4.78018">
        <ele>175</ele>
        <time>2018-09-13T08:45:25Z</time>
      </trkpt>
      <trkpt lat="45.91528" lon="4.78023">
        <ele>175</ele>
        <time>2018-09-13T08:45:26Z</time>
      </trkpt>
      <trkpt lat="45.91525" lon="4.78029">
        <ele>175</ele>
        <time>2018-09-13T08:45:27Z</time>
      </trkpt>
      <trkpt lat="45.91523" lon="4.78035">
        <ele>175</ele>
        <time>2018-09-13T08:45:28Z</time>
      </trkpt>
      <trkpt lat="45.9152" lon="4.78041">
        <ele>175</ele>
        <time>2018-09-13T08:45:29Z</time>
      </trkpt>
      <trkpt lat="45.91517" lon="4.78047">
        <ele>175</ele>
        <time>2018-09-13T08:45:30Z</time>
      </trkpt>
      <trkpt lat="45.91514" lon="4.78054">
        <ele>175</ele>
        <time>2018-09-13T08:45:31Z</time>
      </trkpt>
      <trkpt lat="45.91511" lon="4.78061">
        <ele>175</ele>
        <time>2018-09-13T08:45:32Z</time>
      </trkpt>
      <trkpt lat="45.91509" lon="4.78067">
        <ele>176</ele>
        <time>2018-09-13T08:45:33Z</time>
      </trkpt>
      <trkpt lat="45.91506" lon="4.78072">
        <ele>176</ele>
        <time>2018-09-13T08:45:34Z</time>
      </trkpt>
      <trkpt lat="45.91502" lon="4.78078">
        <ele>176</ele>
        <time>2018-09-13T08:45:35Z</time>
      </trkpt>
      <trkpt lat="45.91499" lon="4.78087">
        <ele>177</ele>
        <time>2018-09-13T08:45:36Z</time>
      </trkpt>
      <trkpt lat="45.91496" lon="4.78093">
        <ele>177</ele>
        <time>2018-09-13T08:45:37Z</time>
      </trkpt>
      <trkpt lat="45.9149" lon="4.78102">
        <ele>177</ele>
        <time>2018-09-13T08:45:39Z</time>
      </trkpt>
      <trkpt lat="45.91487" lon="4.78109">
        <ele>177</ele>
        <time>2018-09-13T08:45:40Z</time>
      </trkpt>
      <trkpt lat="45.91484" lon="4.78114">
        <ele>177</ele>
        <time>2018-09-13T08:45:41Z</time>
      </trkpt>
      <trkpt lat="45.9148" lon="4.7812">
        <ele>177</ele>
        <time>2018-09-13T08:45:42Z</time>
      </trkpt>
      <trkpt lat="45.91478" lon="4.78128">
        <ele>177</ele>
        <time>2018-09-13T08:45:43Z</time>
      </trkpt>
      <trkpt lat="45.91474" lon="4.78133">
        <ele>177</ele>
        <time>2018-09-13T08:45:44Z</time>
      </trkpt>
      <trkpt lat="45.91468" lon="4.78137">
        <ele>177</ele>
        <time>2018-09-13T08:45:45Z</time>
      </trkpt>
      <trkpt lat="45.91464" lon="4.78142">
        <ele>177</ele>
        <time>2018-09-13T08:45:46Z</time>
      </trkpt>
      <trkpt lat="45.91459" lon="4.78147">
        <ele>177</ele>
        <time>2018-09-13T08:45:47Z</time>
      </trkpt>
      <trkpt lat="45.91455" lon="4.78151">
        <ele>177</ele>
        <time>2018-09-13T08:45:48Z</time>
      </trkpt>
      <trkpt lat="45.91454" lon="4.7816">
        <ele>177</ele>
        <time>2018-09-13T08:45:49Z</time>
      </trkpt>
      <trkpt lat="45.91452" lon="4.78167">
        <ele>177</ele>
        <time>2018-09-13T08:45:50Z</time>
      </trkpt>
      <trkpt lat="45.91449" lon="4.78173">
        <ele>177</ele>
        <time>2018-09-13T08:45:51Z</time>
      </trkpt>
      <trkpt lat="45.91446" lon="4.78179">
        <ele>177</ele>
        <time>2018-09-13T08:45:52Z</time>
      </trkpt>
      <trkpt lat="45.91444" lon="4.78185">
        <ele>177</ele>
        <time>2018-09-13T08:45:53Z</time>
      </trkpt>
      <trkpt lat="45.9144" lon="4.78191">
        <ele>177</ele>
        <time>2018-09-13T08:45:54Z</time>
      </trkpt>
      <trkpt lat="45.91439" lon="4.78199">
        <ele>177</ele>
        <time>2018-09-13T08:45:55Z</time>
      </trkpt>
      <trkpt lat="45.91436" lon="4.78205">
        <ele>177</ele>
        <time>2018-09-13T08:45:56Z</time>
      </trkpt>
      <trkpt lat="45.91432" lon="4.7821">
        <ele>177</ele>
        <time>2018-09-13T08:45:57Z</time>
      </trkpt>
      <trkpt lat="45.91429" lon="4.78217">
        <ele>177</ele>
        <time>2018-09-13T08:45:58Z</time>
      </trkpt>
      <trkpt lat="45.91426" lon="4.78225">
        <ele>177</ele>
        <time>2018-09-13T08:45:59Z</time>
      </trkpt>
      <trkpt lat="45.91422" lon="4.78228">
        <ele>177</ele>
        <time>2018-09-13T08:46:00Z</time>
      </trkpt>
      <trkpt lat="45.91417" lon="4.78238">
        <ele>177</ele>
        <time>2018-09-13T08:46:02Z</time>
      </trkpt>
      <trkpt lat="45.91416" lon="4.78249">
        <ele>177</ele>
        <time>2018-09-13T08:46:03Z</time>
      </trkpt>
      <trkpt lat="45.91415" lon="4.78251">
        <ele>177</ele>
        <time>2018-09-13T08:46:04Z</time>
      </trkpt>
      <trkpt lat="45.91411" lon="4.7826">
        <ele>177</ele>
        <time>2018-09-13T08:46:05Z</time>
      </trkpt>
      <trkpt lat="45.91407" lon="4.78265">
        <ele>177</ele>
        <time>2018-09-13T08:46:06Z</time>
      </trkpt>
      <trkpt lat="45.91403" lon="4.78269">
        <ele>177</ele>
        <time>2018-09-13T08:46:07Z</time>
      </trkpt>
      <trkpt lat="45.91403" lon="4.78278">
        <ele>177</ele>
        <time>2018-09-13T08:46:08Z</time>
      </trkpt>
      <trkpt lat="45.914" lon="4.78285">
        <ele>177</ele>
        <time>2018-09-13T08:46:09Z</time>
      </trkpt>
      <trkpt lat="45.91397" lon="4.78292">
        <ele>177</ele>
        <time>2018-09-13T08:46:10Z</time>
      </trkpt>
      <trkpt lat="45.91395" lon="4.78298">
        <ele>177</ele>
        <time>2018-09-13T08:46:11Z</time>
      </trkpt>
      <trkpt lat="45.91392" lon="4.78304">
        <ele>177</ele>
        <time>2018-09-13T08:46:12Z</time>
      </trkpt>
      <trkpt lat="45.91389" lon="4.7831">
        <ele>177</ele>
        <time>2018-09-13T08:46:13Z</time>
      </trkpt>
      <trkpt lat="45.91386" lon="4.78316">
        <ele>177</ele>
        <time>2018-09-13T08:46:14Z</time>
      </trkpt>
      <trkpt lat="45.91383" lon="4.78322">
        <ele>177</ele>
        <time>2018-09-13T08:46:15Z</time>
      </trkpt>
      <trkpt lat="45.91379" lon="4.78327">
        <ele>177</ele>
        <time>2018-09-13T08:46:16Z</time>
      </trkpt>
      <trkpt lat="45.91375" lon="4.78333">
        <ele>177</ele>
        <time>2018-09-13T08:46:17Z</time>
      </trkpt>
      <trkpt lat="45.91372" lon="4.78339">
        <ele>177</ele>
        <time>2018-09-13T08:46:18Z</time>
      </trkpt>
      <trkpt lat="45.91368" lon="4.78344">
        <ele>177</ele>
        <time>2018-09-13T08:46:19Z</time>
      </trkpt>
      <trkpt lat="45.91367" lon="4.78353">
        <ele>177</ele>
        <time>2018-09-13T08:46:20Z</time>
      </trkpt>
      <trkpt lat="45.91365" lon="4.78358">
        <ele>177</ele>
        <time>2018-09-13T08:46:21Z</time>
      </trkpt>
      <trkpt lat="45.9136" lon="4.78369">
        <ele>177</ele>
        <time>2018-09-13T08:46:23Z</time>
      </trkpt>
      <trkpt lat="45.91357" lon="4.78373">
        <ele>177</ele>
        <time>2018-09-13T08:46:24Z</time>
      </trkpt>
      <trkpt lat="45.91354" lon="4.78384">
        <ele>177</ele>
        <time>2018-09-13T08:46:26Z</time>
      </trkpt>
      <trkpt lat="45.91351" lon="4.7839">
        <ele>176</ele>
        <time>2018-09-13T08:46:27Z</time>
      </trkpt>
      <trkpt lat="45.91348" lon="4.78394">
        <ele>176</ele>
        <time>2018-09-13T08:46:28Z</time>
      </trkpt>
      <trkpt lat="45.91346" lon="4.78401">
        <ele>176</ele>
        <time>2018-09-13T08:46:29Z</time>
      </trkpt>
      <trkpt lat="45.91344" lon="4.78409">
        <ele>176</ele>
        <time>2018-09-13T08:46:30Z</time>
      </trkpt>
      <trkpt lat="45.91342" lon="4.78415">
        <ele>176</ele>
        <time>2018-09-13T08:46:31Z</time>
      </trkpt>
      <trkpt lat="45.9134" lon="4.78423">
        <ele>176</ele>
        <time>2018-09-13T08:46:32Z</time>
      </trkpt>
      <trkpt lat="45.91337" lon="4.78429">
        <ele>176</ele>
        <time>2018-09-13T08:46:33Z</time>
      </trkpt>
      <trkpt lat="45.91334" lon="4.78433">
        <ele>176</ele>
        <time>2018-09-13T08:46:34Z</time>
      </trkpt>
      <trkpt lat="45.91331" lon="4.78439">
        <ele>176</ele>
        <time>2018-09-13T08:46:35Z</time>
      </trkpt>
      <trkpt lat="45.9133" lon="4.78446">
        <ele>176</ele>
        <time>2018-09-13T08:46:36Z</time>
      </trkpt>
      <trkpt lat="45.91327" lon="4.78452">
        <ele>176</ele>
        <time>2018-09-13T08:46:37Z</time>
      </trkpt>
      <trkpt lat="45.91325" lon="4.78457">
        <ele>176</ele>
        <time>2018-09-13T08:46:38Z</time>
      </trkpt>
      <trkpt lat="45.91323" lon="4.78464">
        <ele>176</ele>
        <time>2018-09-13T08:46:39Z</time>
      </trkpt>
      <trkpt lat="45.9132" lon="4.7847">
        <ele>176</ele>
        <time>2018-09-13T08:46:40Z</time>
      </trkpt>
      <trkpt lat="45.91317" lon="4.78475">
        <ele>176</ele>
        <time>2018-09-13T08:46:41Z</time>
      </trkpt>
      <trkpt lat="45.91314" lon="4.78481">
        <ele>176</ele>
        <time>2018-09-13T08:46:42Z</time>
      </trkpt>
      <trkpt lat="45.91311" lon="4.78487">
        <ele>176</ele>
        <time>2018-09-13T08:46:43Z</time>
      </trkpt>
      <trkpt lat="45.91308" lon="4.78493">
        <ele>176</ele>
        <time>2018-09-13T08:46:44Z</time>
      </trkpt>
      <trkpt lat="45.91306" lon="4.78498">
        <ele>176</ele>
        <time>2018-09-13T08:46:45Z</time>
      </trkpt>
      <trkpt lat="45.91303" lon="4.78505">
        <ele>175</ele>
        <time>2018-09-13T08:46:46Z</time>
      </trkpt>
      <trkpt lat="45.913" lon="4.78512">
        <ele>175</ele>
        <time>2018-09-13T08:46:47Z</time>
      </trkpt>
      <trkpt lat="45.91297" lon="4.78518">
        <ele>175</ele>
        <time>2018-09-13T08:46:48Z</time>
      </trkpt>
      <trkpt lat="45.91294" lon="4.78525">
        <ele>175</ele>
        <time>2018-09-13T08:46:49Z</time>
      </trkpt>
      <trkpt lat="45.91291" lon="4.78531">
        <ele>176</ele>
        <time>2018-09-13T08:46:50Z</time>
      </trkpt>
      <trkpt lat="45.91287" lon="4.78538">
        <ele>176</ele>
        <time>2018-09-13T08:46:51Z</time>
      </trkpt>
      <trkpt lat="45.91284" lon="4.78547">
        <ele>176</ele>
        <time>2018-09-13T08:46:52Z</time>
      </trkpt>
      <trkpt lat="45.9128" lon="4.78553">
        <ele>176</ele>
        <time>2018-09-13T08:46:53Z</time>
      </trkpt>
      <trkpt lat="45.91277" lon="4.78559">
        <ele>176</ele>
        <time>2018-09-13T08:46:54Z</time>
      </trkpt>
      <trkpt lat="45.91274" lon="4.78566">
        <ele>176</ele>
        <time>2018-09-13T08:46:55Z</time>
      </trkpt>
      <trkpt lat="45.9127" lon="4.78573">
        <ele>176</ele>
        <time>2018-09-13T08:46:56Z</time>
      </trkpt>
      <trkpt lat="45.91268" lon="4.78579">
        <ele>176</ele>
        <time>2018-09-13T08:46:57Z</time>
      </trkpt>
      <trkpt lat="45.91265" lon="4.78585">
        <ele>176</ele>
        <time>2018-09-13T08:46:58Z</time>
      </trkpt>
      <trkpt lat="45.91262" lon="4.78593">
        <ele>176</ele>
        <time>2018-09-13T08:46:59Z</time>
      </trkpt>
      <trkpt lat="45.91259" lon="4.78599">
        <ele>176</ele>
        <time>2018-09-13T08:47:00Z</time>
      </trkpt>
      <trkpt lat="45.91256" lon="4.78605">
        <ele>176</ele>
        <time>2018-09-13T08:47:01Z</time>
      </trkpt>
      <trkpt lat="45.91251" lon="4.78614">
        <ele>176</ele>
        <time>2018-09-13T08:47:03Z</time>
      </trkpt>
      <trkpt lat="45.91247" lon="4.7862">
        <ele>177</ele>
        <time>2018-09-13T08:47:04Z</time>
      </trkpt>
      <trkpt lat="45.91244" lon="4.78626">
        <ele>177</ele>
        <time>2018-09-13T08:47:05Z</time>
      </trkpt>
      <trkpt lat="45.91241" lon="4.78632">
        <ele>177</ele>
        <time>2018-09-13T08:47:06Z</time>
      </trkpt>
      <trkpt lat="45.91237" lon="4.78637">
        <ele>177</ele>
        <time>2018-09-13T08:47:07Z</time>
      </trkpt>
      <trkpt lat="45.91234" lon="4.78645">
        <ele>177</ele>
        <time>2018-09-13T08:47:08Z</time>
      </trkpt>
      <trkpt lat="45.91231" lon="4.78652">
        <ele>177</ele>
        <time>2018-09-13T08:47:09Z</time>
      </trkpt>
      <trkpt lat="45.91227" lon="4.78658">
        <ele>177</ele>
        <time>2018-09-13T08:47:10Z</time>
      </trkpt>
      <trkpt lat="45.91223" lon="4.78664">
        <ele>177</ele>
        <time>2018-09-13T08:47:11Z</time>
      </trkpt>
      <trkpt lat="45.91219" lon="4.7867">
        <ele>177</ele>
        <time>2018-09-13T08:47:12Z</time>
      </trkpt>
      <trkpt lat="45.91216" lon="4.78676">
        <ele>177</ele>
        <time>2018-09-13T08:47:13Z</time>
      </trkpt>
      <trkpt lat="45.91214" lon="4.78684">
        <ele>177</ele>
        <time>2018-09-13T08:47:14Z</time>
      </trkpt>
      <trkpt lat="45.91211" lon="4.78691">
        <ele>177</ele>
        <time>2018-09-13T08:47:15Z</time>
      </trkpt>
      <trkpt lat="45.91209" lon="4.78699">
        <ele>177</ele>
        <time>2018-09-13T08:47:16Z</time>
      </trkpt>
      <trkpt lat="45.91205" lon="4.78705">
        <ele>177</ele>
        <time>2018-09-13T08:47:17Z</time>
      </trkpt>
      <trkpt lat="45.91202" lon="4.78711">
        <ele>177</ele>
        <time>2018-09-13T08:47:18Z</time>
      </trkpt>
      <trkpt lat="45.912" lon="4.78718">
        <ele>177</ele>
        <time>2018-09-13T08:47:19Z</time>
      </trkpt>
      <trkpt lat="45.91196" lon="4.78724">
        <ele>177</ele>
        <time>2018-09-13T08:47:20Z</time>
      </trkpt>
      <trkpt lat="45.91193" lon="4.7873">
        <ele>177</ele>
        <time>2018-09-13T08:47:21Z</time>
      </trkpt>
      <trkpt lat="45.9119" lon="4.78737">
        <ele>177</ele>
        <time>2018-09-13T08:47:22Z</time>
      </trkpt>
      <trkpt lat="45.91186" lon="4.78743">
        <ele>177</ele>
        <time>2018-09-13T08:47:23Z</time>
      </trkpt>
      <trkpt lat="45.91183" lon="4.7875">
        <ele>177</ele>
        <time>2018-09-13T08:47:24Z</time>
      </trkpt>
      <trkpt lat="45.91179" lon="4.78758">
        <ele>177</ele>
        <time>2018-09-13T08:47:25Z</time>
      </trkpt>
      <trkpt lat="45.91175" lon="4.78765">
        <ele>177</ele>
        <time>2018-09-13T08:47:26Z</time>
      </trkpt>
      <trkpt lat="45.91172" lon="4.78773">
        <ele>177</ele>
        <time>2018-09-13T08:47:27Z</time>
      </trkpt>
      <trkpt lat="45.91168" lon="4.78781">
        <ele>177</ele>
        <time>2018-09-13T08:47:28Z</time>
      </trkpt>
      <trkpt lat="45.91164" lon="4.78788">
        <ele>177</ele>
        <time>2018-09-13T08:47:29Z</time>
      </trkpt>
      <trkpt lat="45.9116" lon="4.78795">
        <ele>177</ele>
        <time>2018-09-13T08:47:30Z</time>
      </trkpt>
      <trkpt lat="45.91157" lon="4.78803">
        <ele>177</ele>
        <time>2018-09-13T08:47:31Z</time>
      </trkpt>
      <trkpt lat="45.91153" lon="4.78809">
        <ele>176</ele>
        <time>2018-09-13T08:47:32Z</time>
      </trkpt>
      <trkpt lat="45.91151" lon="4.78817">
        <ele>176</ele>
        <time>2018-09-13T08:47:33Z</time>
      </trkpt>
      <trkpt lat="45.91147" lon="4.78824">
        <ele>176</ele>
        <time>2018-09-13T08:47:34Z</time>
      </trkpt>
      <trkpt lat="45.91144" lon="4.78829">
        <ele>176</ele>
        <time>2018-09-13T08:47:35Z</time>
      </trkpt>
      <trkpt lat="45.9114" lon="4.78836">
        <ele>176</ele>
        <time>2018-09-13T08:47:36Z</time>
      </trkpt>
      <trkpt lat="45.91137" lon="4.78842">
        <ele>176</ele>
        <time>2018-09-13T08:47:37Z</time>
      </trkpt>
      <trkpt lat="45.91134" lon="4.78849">
        <ele>176</ele>
        <time>2018-09-13T08:47:38Z</time>
      </trkpt>
      <trkpt lat="45.9113" lon="4.78856">
        <ele>176</ele>
        <time>2018-09-13T08:47:39Z</time>
      </trkpt>
      <trkpt lat="45.91127" lon="4.78862">
        <ele>176</ele>
        <time>2018-09-13T08:47:40Z</time>
      </trkpt>
      <trkpt lat="45.91123" lon="4.78869">
        <ele>176</ele>
        <time>2018-09-13T08:47:41Z</time>
      </trkpt>
      <trkpt lat="45.91119" lon="4.78876">
        <ele>176</ele>
        <time>2018-09-13T08:47:42Z</time>
      </trkpt>
      <trkpt lat="45.91114" lon="4.78882">
        <ele>176</ele>
        <time>2018-09-13T08:47:43Z</time>
      </trkpt>
      <trkpt lat="45.9111" lon="4.78888">
        <ele>176</ele>
        <time>2018-09-13T08:47:44Z</time>
      </trkpt>
      <trkpt lat="45.91106" lon="4.78895">
        <ele>176</ele>
        <time>2018-09-13T08:47:45Z</time>
      </trkpt>
      <trkpt lat="45.91102" lon="4.78902">
        <ele>177</ele>
        <time>2018-09-13T08:47:46Z</time>
      </trkpt>
      <trkpt lat="45.91098" lon="4.78907">
        <ele>177</ele>
        <time>2018-09-13T08:47:47Z</time>
      </trkpt>
      <trkpt lat="45.91095" lon="4.78914">
        <ele>177</ele>
        <time>2018-09-13T08:47:48Z</time>
      </trkpt>
      <trkpt lat="45.91092" lon="4.7892">
        <ele>177</ele>
        <time>2018-09-13T08:47:49Z</time>
      </trkpt>
      <trkpt lat="45.91089" lon="4.78926">
        <ele>177</ele>
        <time>2018-09-13T08:47:50Z</time>
      </trkpt>
      <trkpt lat="45.91085" lon="4.78932">
        <ele>177</ele>
        <time>2018-09-13T08:47:51Z</time>
      </trkpt>
      <trkpt lat="45.91082" lon="4.78938">
        <ele>177</ele>
        <time>2018-09-13T08:47:52Z</time>
      </trkpt>
      <trkpt lat="45.91077" lon="4.78944">
        <ele>177</ele>
        <time>2018-09-13T08:47:53Z</time>
      </trkpt>
      <trkpt lat="45.91073" lon="4.78952">
        <ele>177</ele>
        <time>2018-09-13T08:47:54Z</time>
      </trkpt>
      <trkpt lat="45.91069" lon="4.78959">
        <ele>177</ele>
        <time>2018-09-13T08:47:55Z</time>
      </trkpt>
      <trkpt lat="45.91064" lon="4.78962">
        <ele>177</ele>
        <time>2018-09-13T08:47:56Z</time>
      </trkpt>
      <trkpt lat="45.9106" lon="4.78968">
        <ele>177</ele>
        <time>2018-09-13T08:47:57Z</time>
      </trkpt>
      <trkpt lat="45.91057" lon="4.78976">
        <ele>177</ele>
        <time>2018-09-13T08:47:58Z</time>
      </trkpt>
      <trkpt lat="45.91054" lon="4.78985">
        <ele>177</ele>
        <time>2018-09-13T08:47:59Z</time>
      </trkpt>
      <trkpt lat="45.91051" lon="4.78992">
        <ele>177</ele>
        <time>2018-09-13T08:48:00Z</time>
      </trkpt>
      <trkpt lat="45.91048" lon="4.78998">
        <ele>177</ele>
        <time>2018-09-13T08:48:01Z</time>
      </trkpt>
      <trkpt lat="45.91044" lon="4.79004">
        <ele>177</ele>
        <time>2018-09-13T08:48:02Z</time>
      </trkpt>
      <trkpt lat="45.9104" lon="4.79008">
        <ele>177</ele>
        <time>2018-09-13T08:48:03Z</time>
      </trkpt>
      <trkpt lat="45.91037" lon="4.79014">
        <ele>176</ele>
        <time>2018-09-13T08:48:04Z</time>
      </trkpt>
      <trkpt lat="45.91034" lon="4.79023">
        <ele>176</ele>
        <time>2018-09-13T08:48:05Z</time>
      </trkpt>
      <trkpt lat="45.91033" lon="4.7903">
        <ele>176</ele>
        <time>2018-09-13T08:48:06Z</time>
      </trkpt>
      <trkpt lat="45.9103" lon="4.79039">
        <ele>176</ele>
        <time>2018-09-13T08:48:07Z</time>
      </trkpt>
      <trkpt lat="45.91026" lon="4.79045">
        <ele>176</ele>
        <time>2018-09-13T08:48:08Z</time>
      </trkpt>
      <trkpt lat="45.91021" lon="4.79049">
        <ele>176</ele>
        <time>2018-09-13T08:48:09Z</time>
      </trkpt>
      <trkpt lat="45.91018" lon="4.79056">
        <ele>176</ele>
        <time>2018-09-13T08:48:10Z</time>
      </trkpt>
      <trkpt lat="45.91015" lon="4.79064">
        <ele>176</ele>
        <time>2018-09-13T08:48:11Z</time>
      </trkpt>
      <trkpt lat="45.91012" lon="4.7907">
        <ele>177</ele>
        <time>2018-09-13T08:48:12Z</time>
      </trkpt>
      <trkpt lat="45.91008" lon="4.79076">
        <ele>177</ele>
        <time>2018-09-13T08:48:13Z</time>
      </trkpt>
      <trkpt lat="45.91005" lon="4.79081">
        <ele>177</ele>
        <time>2018-09-13T08:48:14Z</time>
      </trkpt>
      <trkpt lat="45.91002" lon="4.79088">
        <ele>177</ele>
        <time>2018-09-13T08:48:15Z</time>
      </trkpt>
      <trkpt lat="45.90998" lon="4.79091">
        <ele>177</ele>
        <time>2018-09-13T08:48:16Z</time>
      </trkpt>
      <trkpt lat="45.90995" lon="4.79098">
        <ele>177</ele>
        <time>2018-09-13T08:48:17Z</time>
      </trkpt>
      <trkpt lat="45.90991" lon="4.79105">
        <ele>177</ele>
        <time>2018-09-13T08:48:18Z</time>
      </trkpt>
      <trkpt lat="45.90987" lon="4.79112">
        <ele>177</ele>
        <time>2018-09-13T08:48:19Z</time>
      </trkpt>
      <trkpt lat="45.90984" lon="4.79118">
        <ele>177</ele>
        <time>2018-09-13T08:48:20Z</time>
      </trkpt>
      <trkpt lat="45.90982" lon="4.79126">
        <ele>177</ele>
        <time>2018-09-13T08:48:21Z</time>
      </trkpt>
      <trkpt lat="45.9098" lon="4.7913">
        <ele>177</ele>
        <time>2018-09-13T08:48:22Z</time>
      </trkpt>
      <trkpt lat="45.90977" lon="4.79136">
        <ele>177</ele>
        <time>2018-09-13T08:48:23Z</time>
      </trkpt>
      <trkpt lat="45.90972" lon="4.79142">
        <ele>177</ele>
        <time>2018-09-13T08:48:24Z</time>
      </trkpt>
      <trkpt lat="45.9097" lon="4.79147">
        <ele>177</ele>
        <time>2018-09-13T08:48:25Z</time>
      </trkpt>
      <trkpt lat="45.90966" lon="4.79153">
        <ele>177</ele>
        <time>2018-09-13T08:48:26Z</time>
      </trkpt>
      <trkpt lat="45.90963" lon="4.7916">
        <ele>177</ele>
        <time>2018-09-13T08:48:27Z</time>
      </trkpt>
      <trkpt lat="45.90959" lon="4.79167">
        <ele>177</ele>
        <time>2018-09-13T08:48:28Z</time>
      </trkpt>
      <trkpt lat="45.90956" lon="4.79175">
        <ele>177</ele>
        <time>2018-09-13T08:48:29Z</time>
      </trkpt>
      <trkpt lat="45.90951" lon="4.79182">
        <ele>177</ele>
        <time>2018-09-13T08:48:30Z</time>
      </trkpt>
      <trkpt lat="45.90947" lon="4.79189">
        <ele>176</ele>
        <time>2018-09-13T08:48:31Z</time>
      </trkpt>
      <trkpt lat="45.90943" lon="4.79196">
        <ele>176</ele>
        <time>2018-09-13T08:48:32Z</time>
      </trkpt>
      <trkpt lat="45.9094" lon="4.79203">
        <ele>176</ele>
        <time>2018-09-13T08:48:33Z</time>
      </trkpt>
      <trkpt lat="45.90936" lon="4.79209">
        <ele>176</ele>
        <time>2018-09-13T08:48:34Z</time>
      </trkpt>
      <trkpt lat="45.90933" lon="4.79217">
        <ele>176</ele>
        <time>2018-09-13T08:48:35Z</time>
      </trkpt>
      <trkpt lat="45.90929" lon="4.79222">
        <ele>176</ele>
        <time>2018-09-13T08:48:36Z</time>
      </trkpt>
      <trkpt lat="45.90925" lon="4.79228">
        <ele>176</ele>
        <time>2018-09-13T08:48:37Z</time>
      </trkpt>
      <trkpt lat="45.90923" lon="4.79238">
        <ele>176</ele>
        <time>2018-09-13T08:48:38Z</time>
      </trkpt>
      <trkpt lat="45.90919" lon="4.79245">
        <ele>176</ele>
        <time>2018-09-13T08:48:39Z</time>
      </trkpt>
      <trkpt lat="45.90914" lon="4.79251">
        <ele>176</ele>
        <time>2018-09-13T08:48:40Z</time>
      </trkpt>
      <trkpt lat="45.90911" lon="4.7926">
        <ele>176</ele>
        <time>2018-09-13T08:48:41Z</time>
      </trkpt>
      <trkpt lat="45.90907" lon="4.79267">
        <ele>176</ele>
        <time>2018-09-13T08:48:42Z</time>
      </trkpt>
      <trkpt lat="45.90903" lon="4.79275">
        <ele>176</ele>
        <time>2018-09-13T08:48:43Z</time>
      </trkpt>
      <trkpt lat="45.90899" lon="4.79282">
        <ele>176</ele>
        <time>2018-09-13T08:48:44Z</time>
      </trkpt>
      <trkpt lat="45.90896" lon="4.79291">
        <ele>176</ele>
        <time>2018-09-13T08:48:45Z</time>
      </trkpt>
      <trkpt lat="45.90892" lon="4.79295">
        <ele>176</ele>
        <time>2018-09-13T08:48:46Z</time>
      </trkpt>
      <trkpt lat="45.90889" lon="4.79303">
        <ele>176</ele>
        <time>2018-09-13T08:48:47Z</time>
      </trkpt>
      <trkpt lat="45.90884" lon="4.79309">
        <ele>176</ele>
        <time>2018-09-13T08:48:48Z</time>
      </trkpt>
      <trkpt lat="45.9088" lon="4.79316">
        <ele>176</ele>
        <time>2018-09-13T08:48:49Z</time>
      </trkpt>
      <trkpt lat="45.90875" lon="4.7932">
        <ele>176</ele>
        <time>2018-09-13T08:48:50Z</time>
      </trkpt>
      <trkpt lat="45.9087" lon="4.79325">
        <ele>176</ele>
        <time>2018-09-13T08:48:51Z</time>
      </trkpt>
      <trkpt lat="45.90865" lon="4.7933">
        <ele>176</ele>
        <time>2018-09-13T08:48:52Z</time>
      </trkpt>
      <trkpt lat="45.90861" lon="4.79337">
        <ele>175</ele>
        <time>2018-09-13T08:48:53Z</time>
      </trkpt>
      <trkpt lat="45.90857" lon="4.79343">
        <ele>175</ele>
        <time>2018-09-13T08:48:54Z</time>
      </trkpt>
      <trkpt lat="45.90851" lon="4.79348">
        <ele>175</ele>
        <time>2018-09-13T08:48:55Z</time>
      </trkpt>
      <trkpt lat="45.90847" lon="4.79353">
        <ele>175</ele>
        <time>2018-09-13T08:48:56Z</time>
      </trkpt>
      <trkpt lat="45.90842" lon="4.79358">
        <ele>175</ele>
        <time>2018-09-13T08:48:57Z</time>
      </trkpt>
      <trkpt lat="45.90838" lon="4.79363">
        <ele>175</ele>
        <time>2018-09-13T08:48:58Z</time>
      </trkpt>
      <trkpt lat="45.90833" lon="4.79368">
        <ele>175</ele>
        <time>2018-09-13T08:48:59Z</time>
      </trkpt>
      <trkpt lat="45.90829" lon="4.79373">
        <ele>175</ele>
        <time>2018-09-13T08:49:00Z</time>
      </trkpt>
      <trkpt lat="45.90824" lon="4.7938">
        <ele>175</ele>
        <time>2018-09-13T08:49:01Z</time>
      </trkpt>
      <trkpt lat="45.90819" lon="4.79385">
        <ele>175</ele>
        <time>2018-09-13T08:49:02Z</time>
      </trkpt>
      <trkpt lat="45.90813" lon="4.7939">
        <ele>175</ele>
        <time>2018-09-13T08:49:03Z</time>
      </trkpt>
      <trkpt lat="45.90809" lon="4.79398">
        <ele>175</ele>
        <time>2018-09-13T08:49:04Z</time>
      </trkpt>
      <trkpt lat="45.90803" lon="4.79402">
        <ele>175</ele>
        <time>2018-09-13T08:49:05Z</time>
      </trkpt>
      <trkpt lat="45.90797" lon="4.79407">
        <ele>175</ele>
        <time>2018-09-13T08:49:06Z</time>
      </trkpt>
      <trkpt lat="45.90791" lon="4.79412">
        <ele>175</ele>
        <time>2018-09-13T08:49:07Z</time>
      </trkpt>
      <trkpt lat="45.90785" lon="4.79417">
        <ele>174</ele>
        <time>2018-09-13T08:49:08Z</time>
      </trkpt>
      <trkpt lat="45.9078" lon="4.79422">
        <ele>174</ele>
        <time>2018-09-13T08:49:09Z</time>
      </trkpt>
      <trkpt lat="45.90774" lon="4.79426">
        <ele>174</ele>
        <time>2018-09-13T08:49:10Z</time>
      </trkpt>
      <trkpt lat="45.90768" lon="4.79429">
        <ele>174</ele>
        <time>2018-09-13T08:49:11Z</time>
      </trkpt>
      <trkpt lat="45.90763" lon="4.79433">
        <ele>174</ele>
        <time>2018-09-13T08:49:12Z</time>
      </trkpt>
      <trkpt lat="45.90758" lon="4.79437">
        <ele>174</ele>
        <time>2018-09-13T08:49:13Z</time>
      </trkpt>
      <trkpt lat="45.90752" lon="4.79439">
        <ele>174</ele>
        <time>2018-09-13T08:49:14Z</time>
      </trkpt>
      <trkpt lat="45.90746" lon="4.79441">
        <ele>175</ele>
        <time>2018-09-13T08:49:15Z</time>
      </trkpt>
      <trkpt lat="45.90741" lon="4.79444">
        <ele>175</ele>
        <time>2018-09-13T08:49:16Z</time>
      </trkpt>
      <trkpt lat="45.90735" lon="4.79446">
        <ele>174</ele>
        <time>2018-09-13T08:49:17Z</time>
      </trkpt>
      <trkpt lat="45.9073" lon="4.79449">
        <ele>174</ele>
        <time>2018-09-13T08:49:18Z</time>
      </trkpt>
      <trkpt lat="45.90724" lon="4.79452">
        <ele>174</ele>
        <time>2018-09-13T08:49:19Z</time>
      </trkpt>
      <trkpt lat="45.90719" lon="4.79457">
        <ele>174</ele>
        <time>2018-09-13T08:49:20Z</time>
      </trkpt>
      <trkpt lat="45.90713" lon="4.79458">
        <ele>174</ele>
        <time>2018-09-13T08:49:21Z</time>
      </trkpt>
      <trkpt lat="45.90706" lon="4.7946">
        <ele>174</ele>
        <time>2018-09-13T08:49:22Z</time>
      </trkpt>
      <trkpt lat="45.90701" lon="4.79466">
        <ele>174</ele>
        <time>2018-09-13T08:49:23Z</time>
      </trkpt>
      <trkpt lat="45.90695" lon="4.7947">
        <ele>174</ele>
        <time>2018-09-13T08:49:24Z</time>
      </trkpt>
      <trkpt lat="45.90689" lon="4.79472">
        <ele>174</ele>
        <time>2018-09-13T08:49:25Z</time>
      </trkpt>
      <trkpt lat="45.90683" lon="4.79475">
        <ele>174</ele>
        <time>2018-09-13T08:49:26Z</time>
      </trkpt>
      <trkpt lat="45.90678" lon="4.79477">
        <ele>174</ele>
        <time>2018-09-13T08:49:27Z</time>
      </trkpt>
      <trkpt lat="45.90672" lon="4.79479">
        <ele>174</ele>
        <time>2018-09-13T08:49:28Z</time>
      </trkpt>
      <trkpt lat="45.90667" lon="4.79483">
        <ele>174</ele>
        <time>2018-09-13T08:49:29Z</time>
      </trkpt>
      <trkpt lat="45.90663" lon="4.79486">
        <ele>175</ele>
        <time>2018-09-13T08:49:30Z</time>
      </trkpt>
      <trkpt lat="45.90657" lon="4.79489">
        <ele>175</ele>
        <time>2018-09-13T08:49:31Z</time>
      </trkpt>
      <trkpt lat="45.90652" lon="4.79491">
        <ele>175</ele>
        <time>2018-09-13T08:49:32Z</time>
      </trkpt>
      <trkpt lat="45.90646" lon="4.79495">
        <ele>176</ele>
        <time>2018-09-13T08:49:33Z</time>
      </trkpt>
      <trkpt lat="45.90642" lon="4.79499">
        <ele>176</ele>
        <time>2018-09-13T08:49:34Z</time>
      </trkpt>
      <trkpt lat="45.90637" lon="4.79502">
        <ele>174</ele>
        <time>2018-09-13T08:49:35Z</time>
      </trkpt>
      <trkpt lat="45.90632" lon="4.79505">
        <ele>174</ele>
        <time>2018-09-13T08:49:36Z</time>
      </trkpt>
      <trkpt lat="45.90626" lon="4.79508">
        <ele>174</ele>
        <time>2018-09-13T08:49:37Z</time>
      </trkpt>
      <trkpt lat="45.90621" lon="4.79511">
        <ele>174</ele>
        <time>2018-09-13T08:49:38Z</time>
      </trkpt>
      <trkpt lat="45.90615" lon="4.79515">
        <ele>175</ele>
        <time>2018-09-13T08:49:39Z</time>
      </trkpt>
      <trkpt lat="45.90611" lon="4.7952">
        <ele>175</ele>
        <time>2018-09-13T08:49:40Z</time>
      </trkpt>
      <trkpt lat="45.90604" lon="4.79523">
        <ele>175</ele>
        <time>2018-09-13T08:49:41Z</time>
      </trkpt>
      <trkpt lat="45.90599" lon="4.79526">
        <ele>175</ele>
        <time>2018-09-13T08:49:42Z</time>
      </trkpt>
      <trkpt lat="45.90594" lon="4.79529">
        <ele>175</ele>
        <time>2018-09-13T08:49:43Z</time>
      </trkpt>
      <trkpt lat="45.90588" lon="4.79533">
        <ele>175</ele>
        <time>2018-09-13T08:49:44Z</time>
      </trkpt>
      <trkpt lat="45.90584" lon="4.79536">
        <ele>174</ele>
        <time>2018-09-13T08:49:45Z</time>
      </trkpt>
      <trkpt lat="45.90578" lon="4.79539">
        <ele>177</ele>
        <time>2018-09-13T08:49:46Z</time>
      </trkpt>
      <trkpt lat="45.90573" lon="4.79542">
        <ele>176</ele>
        <time>2018-09-13T08:49:47Z</time>
      </trkpt>
      <trkpt lat="45.90568" lon="4.79545">
        <ele>176</ele>
        <time>2018-09-13T08:49:48Z</time>
      </trkpt>
      <trkpt lat="45.90563" lon="4.79548">
        <ele>176</ele>
        <time>2018-09-13T08:49:49Z</time>
      </trkpt>
      <trkpt lat="45.90557" lon="4.79552">
        <ele>176</ele>
        <time>2018-09-13T08:49:50Z</time>
      </trkpt>
      <trkpt lat="45.90553" lon="4.79558">
        <ele>176</ele>
        <time>2018-09-13T08:49:51Z</time>
      </trkpt>
      <trkpt lat="45.9055" lon="4.79564">
        <ele>176</ele>
        <time>2018-09-13T08:49:52Z</time>
      </trkpt>
      <trkpt lat="45.90544" lon="4.79569">
        <ele>176</ele>
        <time>2018-09-13T08:49:53Z</time>
      </trkpt>
      <trkpt lat="45.90539" lon="4.79573">
        <ele>176</ele>
        <time>2018-09-13T08:49:54Z</time>
      </trkpt>
      <trkpt lat="45.90534" lon="4.79578">
        <ele>176</ele>
        <time>2018-09-13T08:49:55Z</time>
      </trkpt>
      <trkpt lat="45.90529" lon="4.79583">
        <ele>177</ele>
        <time>2018-09-13T08:49:56Z</time>
      </trkpt>
      <trkpt lat="45.90523" lon="4.79587">
        <ele>174</ele>
        <time>2018-09-13T08:49:57Z</time>
      </trkpt>
      <trkpt lat="45.90518" lon="4.79592">
        <ele>174</ele>
        <time>2018-09-13T08:49:58Z</time>
      </trkpt>
      <trkpt lat="45.90513" lon="4.79595">
        <ele>175</ele>
        <time>2018-09-13T08:49:59Z</time>
      </trkpt>
      <trkpt lat="45.90507" lon="4.796">
        <ele>175</ele>
        <time>2018-09-13T08:50:00Z</time>
      </trkpt>
      <trkpt lat="45.90502" lon="4.79604">
        <ele>174</ele>
        <time>2018-09-13T08:50:01Z</time>
      </trkpt>
      <trkpt lat="45.90498" lon="4.79607">
        <ele>176</ele>
        <time>2018-09-13T08:50:02Z</time>
      </trkpt>
      <trkpt lat="45.90493" lon="4.79613">
        <ele>176</ele>
        <time>2018-09-13T08:50:03Z</time>
      </trkpt>
      <trkpt lat="45.90488" lon="4.79617">
        <ele>176</ele>
        <time>2018-09-13T08:50:04Z</time>
      </trkpt>
      <trkpt lat="45.90484" lon="4.79622">
        <ele>176</ele>
        <time>2018-09-13T08:50:05Z</time>
      </trkpt>
      <trkpt lat="45.9048" lon="4.79627">
        <ele>176</ele>
        <time>2018-09-13T08:50:06Z</time>
      </trkpt>
      <trkpt lat="45.90475" lon="4.79631">
        <ele>176</ele>
        <time>2018-09-13T08:50:07Z</time>
      </trkpt>
      <trkpt lat="45.90469" lon="4.79634">
        <ele>176</ele>
        <time>2018-09-13T08:50:08Z</time>
      </trkpt>
      <trkpt lat="45.90465" lon="4.7964">
        <ele>176</ele>
        <time>2018-09-13T08:50:09Z</time>
      </trkpt>
      <trkpt lat="45.90459" lon="4.79645">
        <ele>176</ele>
        <time>2018-09-13T08:50:10Z</time>
      </trkpt>
      <trkpt lat="45.90454" lon="4.7965">
        <ele>176</ele>
        <time>2018-09-13T08:50:11Z</time>
      </trkpt>
      <trkpt lat="45.90453" lon="4.79662">
        <ele>176</ele>
        <time>2018-09-13T08:50:12Z</time>
      </trkpt>
      <trkpt lat="45.90446" lon="4.79666">
        <ele>176</ele>
        <time>2018-09-13T08:50:13Z</time>
      </trkpt>
      <trkpt lat="45.90441" lon="4.79671">
        <ele>174</ele>
        <time>2018-09-13T08:50:14Z</time>
      </trkpt>
      <trkpt lat="45.90437" lon="4.79679">
        <ele>174</ele>
        <time>2018-09-13T08:50:15Z</time>
      </trkpt>
      <trkpt lat="45.90433" lon="4.79686">
        <ele>174</ele>
        <time>2018-09-13T08:50:16Z</time>
      </trkpt>
      <trkpt lat="45.90429" lon="4.79693">
        <ele>173</ele>
        <time>2018-09-13T08:50:17Z</time>
      </trkpt>
      <trkpt lat="45.90424" lon="4.79696">
        <ele>173</ele>
        <time>2018-09-13T08:50:18Z</time>
      </trkpt>
      <trkpt lat="45.9042" lon="4.79703">
        <ele>173</ele>
        <time>2018-09-13T08:50:19Z</time>
      </trkpt>
      <trkpt lat="45.90415" lon="4.79707">
        <ele>176</ele>
        <time>2018-09-13T08:50:20Z</time>
      </trkpt>
      <trkpt lat="45.9041" lon="4.79712">
        <ele>176</ele>
        <time>2018-09-13T08:50:21Z</time>
      </trkpt>
      <trkpt lat="45.90405" lon="4.79717">
        <ele>176</ele>
        <time>2018-09-13T08:50:22Z</time>
      </trkpt>
      <trkpt lat="45.904" lon="4.79723">
        <ele>176</ele>
        <time>2018-09-13T08:50:23Z</time>
      </trkpt>
      <trkpt lat="45.90396" lon="4.79728">
        <ele>176</ele>
        <time>2018-09-13T08:50:24Z</time>
      </trkpt>
      <trkpt lat="45.90391" lon="4.79733">
        <ele>176</ele>
        <time>2018-09-13T08:50:25Z</time>
      </trkpt>
      <trkpt lat="45.90386" lon="4.79737">
        <ele>176</ele>
        <time>2018-09-13T08:50:26Z</time>
      </trkpt>
      <trkpt lat="45.90381" lon="4.79741">
        <ele>176</ele>
        <time>2018-09-13T08:50:27Z</time>
      </trkpt>
      <trkpt lat="45.90376" lon="4.79747">
        <ele>176</ele>
        <time>2018-09-13T08:50:28Z</time>
      </trkpt>
      <trkpt lat="45.90372" lon="4.79751">
        <ele>173</ele>
        <time>2018-09-13T08:50:29Z</time>
      </trkpt>
      <trkpt lat="45.90367" lon="4.79756">
        <ele>174</ele>
        <time>2018-09-13T08:50:30Z</time>
      </trkpt>
      <trkpt lat="45.90362" lon="4.7976">
        <ele>174</ele>
        <time>2018-09-13T08:50:31Z</time>
      </trkpt>
      <trkpt lat="45.90359" lon="4.7977">
        <ele>174</ele>
        <time>2018-09-13T08:50:32Z</time>
      </trkpt>
      <trkpt lat="45.90354" lon="4.79776">
        <ele>174</ele>
        <time>2018-09-13T08:50:33Z</time>
      </trkpt>
      <trkpt lat="45.90349" lon="4.7978">
        <ele>173</ele>
        <time>2018-09-13T08:50:34Z</time>
      </trkpt>
      <trkpt lat="45.90343" lon="4.79785">
        <ele>173</ele>
        <time>2018-09-13T08:50:35Z</time>
      </trkpt>
      <trkpt lat="45.90338" lon="4.79791">
        <ele>173</ele>
        <time>2018-09-13T08:50:36Z</time>
      </trkpt>
      <trkpt lat="45.90334" lon="4.79799">
        <ele>172</ele>
        <time>2018-09-13T08:50:37Z</time>
      </trkpt>
      <trkpt lat="45.9033" lon="4.79806">
        <ele>175</ele>
        <time>2018-09-13T08:50:38Z</time>
      </trkpt>
      <trkpt lat="45.90325" lon="4.79811">
        <ele>175</ele>
        <time>2018-09-13T08:50:39Z</time>
      </trkpt>
      <trkpt lat="45.9032" lon="4.79818">
        <ele>174</ele>
        <time>2018-09-13T08:50:40Z</time>
      </trkpt>
      <trkpt lat="45.90316" lon="4.79823">
        <ele>175</ele>
        <time>2018-09-13T08:50:41Z</time>
      </trkpt>
      <trkpt lat="45.90311" lon="4.79829">
        <ele>175</ele>
        <time>2018-09-13T08:50:42Z</time>
      </trkpt>
      <trkpt lat="45.90306" lon="4.79836">
        <ele>172</ele>
        <time>2018-09-13T08:50:43Z</time>
      </trkpt>
      <trkpt lat="45.903" lon="4.79843">
        <ele>173</ele>
        <time>2018-09-13T08:50:44Z</time>
      </trkpt>
      <trkpt lat="45.90296" lon="4.7985">
        <ele>173</ele>
        <time>2018-09-13T08:50:45Z</time>
      </trkpt>
      <trkpt lat="45.90291" lon="4.79855">
        <ele>173</ele>
        <time>2018-09-13T08:50:46Z</time>
      </trkpt>
      <trkpt lat="45.90286" lon="4.79862">
        <ele>173</ele>
        <time>2018-09-13T08:50:47Z</time>
      </trkpt>
      <trkpt lat="45.9028" lon="4.79867">
        <ele>173</ele>
        <time>2018-09-13T08:50:48Z</time>
      </trkpt>
      <trkpt lat="45.90276" lon="4.79873">
        <ele>173</ele>
        <time>2018-09-13T08:50:49Z</time>
      </trkpt>
      <trkpt lat="45.9027" lon="4.79878">
        <ele>173</ele>
        <time>2018-09-13T08:50:50Z</time>
      </trkpt>
      <trkpt lat="45.90264" lon="4.79882">
        <ele>173</ele>
        <time>2018-09-13T08:50:51Z</time>
      </trkpt>
      <trkpt lat="45.90259" lon="4.79887">
        <ele>173</ele>
        <time>2018-09-13T08:50:52Z</time>
      </trkpt>
      <trkpt lat="45.90254" lon="4.79891">
        <ele>173</ele>
        <time>2018-09-13T08:50:53Z</time>
      </trkpt>
      <trkpt lat="45.90249" lon="4.79896">
        <ele>176</ele>
        <time>2018-09-13T08:50:54Z</time>
      </trkpt>
      <trkpt lat="45.90244" lon="4.79899">
        <ele>175</ele>
        <time>2018-09-13T08:50:55Z</time>
      </trkpt>
      <trkpt lat="45.90239" lon="4.79904">
        <ele>175</ele>
        <time>2018-09-13T08:50:56Z</time>
      </trkpt>
      <trkpt lat="45.90233" lon="4.79907">
        <ele>176</ele>
        <time>2018-09-13T08:50:57Z</time>
      </trkpt>
      <trkpt lat="45.90227" lon="4.7991">
        <ele>176</ele>
        <time>2018-09-13T08:50:58Z</time>
      </trkpt>
      <trkpt lat="45.90222" lon="4.79915">
        <ele>176</ele>
        <time>2018-09-13T08:50:59Z</time>
      </trkpt>
      <trkpt lat="45.90216" lon="4.79918">
        <ele>173</ele>
        <time>2018-09-13T08:51:00Z</time>
      </trkpt>
      <trkpt lat="45.9021" lon="4.79922">
        <ele>173</ele>
        <time>2018-09-13T08:51:01Z</time>
      </trkpt>
      <trkpt lat="45.90204" lon="4.79925">
        <ele>173</ele>
        <time>2018-09-13T08:51:02Z</time>
      </trkpt>
      <trkpt lat="45.90197" lon="4.79928">
        <ele>173</ele>
        <time>2018-09-13T08:51:03Z</time>
      </trkpt>
      <trkpt lat="45.90191" lon="4.7993">
        <ele>174</ele>
        <time>2018-09-13T08:51:04Z</time>
      </trkpt>
      <trkpt lat="45.90186" lon="4.79933">
        <ele>174</ele>
        <time>2018-09-13T08:51:05Z</time>
      </trkpt>
      <trkpt lat="45.9018" lon="4.79937">
        <ele>174</ele>
        <time>2018-09-13T08:51:06Z</time>
      </trkpt>
      <trkpt lat="45.90174" lon="4.79939">
        <ele>174</ele>
        <time>2018-09-13T08:51:07Z</time>
      </trkpt>
      <trkpt lat="45.90169" lon="4.79943">
        <ele>174</ele>
        <time>2018-09-13T08:51:08Z</time>
      </trkpt>
      <trkpt lat="45.90162" lon="4.79945">
        <ele>176</ele>
        <time>2018-09-13T08:51:09Z</time>
      </trkpt>
      <trkpt lat="45.90157" lon="4.79948">
        <ele>175</ele>
        <time>2018-09-13T08:51:10Z</time>
      </trkpt>
      <trkpt lat="45.90151" lon="4.7995">
        <ele>175</ele>
        <time>2018-09-13T08:51:11Z</time>
      </trkpt>
      <trkpt lat="45.90145" lon="4.79952">
        <ele>175</ele>
        <time>2018-09-13T08:51:12Z</time>
      </trkpt>
      <trkpt lat="45.90139" lon="4.79955">
        <ele>175</ele>
        <time>2018-09-13T08:51:13Z</time>
      </trkpt>
      <trkpt lat="45.90134" lon="4.79957">
        <ele>175</ele>
        <time>2018-09-13T08:51:14Z</time>
      </trkpt>
      <trkpt lat="45.90128" lon="4.79959">
        <ele>175</ele>
        <time>2018-09-13T08:51:15Z</time>
      </trkpt>
      <trkpt lat="45.90122" lon="4.79961">
        <ele>175</ele>
        <time>2018-09-13T08:51:16Z</time>
      </trkpt>
      <trkpt lat="45.90116" lon="4.79961">
        <ele>175</ele>
        <time>2018-09-13T08:51:17Z</time>
      </trkpt>
      <trkpt lat="45.9011" lon="4.79963">
        <ele>175</ele>
        <time>2018-09-13T08:51:18Z</time>
      </trkpt>
      <trkpt lat="45.90105" lon="4.79966">
        <ele>175</ele>
        <time>2018-09-13T08:51:19Z</time>
      </trkpt>
      <trkpt lat="45.901" lon="4.7997">
        <ele>174</ele>
        <time>2018-09-13T08:51:20Z</time>
      </trkpt>
      <trkpt lat="45.90095" lon="4.79973">
        <ele>174</ele>
        <time>2018-09-13T08:51:21Z</time>
      </trkpt>
      <trkpt lat="45.9009" lon="4.79976">
        <ele>174</ele>
        <time>2018-09-13T08:51:22Z</time>
      </trkpt>
      <trkpt lat="45.90085" lon="4.79981">
        <ele>173</ele>
        <time>2018-09-13T08:51:23Z</time>
      </trkpt>
      <trkpt lat="45.9008" lon="4.79985">
        <ele>174</ele>
        <time>2018-09-13T08:51:24Z</time>
      </trkpt>
      <trkpt lat="45.90074" lon="4.79986">
        <ele>174</ele>
        <time>2018-09-13T08:51:25Z</time>
      </trkpt>
      <trkpt lat="45.90067" lon="4.79988">
        <ele>174</ele>
        <time>2018-09-13T08:51:26Z</time>
      </trkpt>
      <trkpt lat="45.9006" lon="4.7999">
        <ele>175</ele>
        <time>2018-09-13T08:51:27Z</time>
      </trkpt>
      <trkpt lat="45.90054" lon="4.79993">
        <ele>175</ele>
        <time>2018-09-13T08:51:28Z</time>
      </trkpt>
      <trkpt lat="45.90047" lon="4.79996">
        <ele>175</ele>
        <time>2018-09-13T08:51:29Z</time>
      </trkpt>
      <trkpt lat="45.9004" lon="4.79999">
        <ele>175</ele>
        <time>2018-09-13T08:51:30Z</time>
      </trkpt>
      <trkpt lat="45.90034" lon="4.80001">
        <ele>170</ele>
        <time>2018-09-13T08:51:31Z</time>
      </trkpt>
      <trkpt lat="45.90028" lon="4.80003">
        <ele>170</ele>
        <time>2018-09-13T08:51:32Z</time>
      </trkpt>
      <trkpt lat="45.90022" lon="4.80004">
        <ele>170</ele>
        <time>2018-09-13T08:51:33Z</time>
      </trkpt>
      <trkpt lat="45.90016" lon="4.80006">
        <ele>171</ele>
        <time>2018-09-13T08:51:34Z</time>
      </trkpt>
      <trkpt lat="45.9001" lon="4.80009">
        <ele>171</ele>
        <time>2018-09-13T08:51:35Z</time>
      </trkpt>
      <trkpt lat="45.90003" lon="4.80012">
        <ele>171</ele>
        <time>2018-09-13T08:51:36Z</time>
      </trkpt>
      <trkpt lat="45.89997" lon="4.80014">
        <ele>171</ele>
        <time>2018-09-13T08:51:37Z</time>
      </trkpt>
      <trkpt lat="45.89991" lon="4.80016">
        <ele>171</ele>
        <time>2018-09-13T08:51:38Z</time>
      </trkpt>
      <trkpt lat="45.89985" lon="4.80018">
        <ele>171</ele>
        <time>2018-09-13T08:51:39Z</time>
      </trkpt>
      <trkpt lat="45.89979" lon="4.80021">
        <ele>171</ele>
        <time>2018-09-13T08:51:40Z</time>
      </trkpt>
      <trkpt lat="45.89973" lon="4.80024">
        <ele>171</ele>
        <time>2018-09-13T08:51:41Z</time>
      </trkpt>
      <trkpt lat="45.89966" lon="4.80027">
        <ele>171</ele>
        <time>2018-09-13T08:51:42Z</time>
      </trkpt>
      <trkpt lat="45.89959" lon="4.80029">
        <ele>171</ele>
        <time>2018-09-13T08:51:43Z</time>
      </trkpt>
      <trkpt lat="45.89952" lon="4.80032">
        <ele>171</ele>
        <time>2018-09-13T08:51:44Z</time>
      </trkpt>
      <trkpt lat="45.89946" lon="4.80035">
        <ele>170</ele>
        <time>2018-09-13T08:51:45Z</time>
      </trkpt>
      <trkpt lat="45.8994" lon="4.80038">
        <ele>170</ele>
        <time>2018-09-13T08:51:46Z</time>
      </trkpt>
      <trkpt lat="45.89935" lon="4.8004">
        <ele>170</ele>
        <time>2018-09-13T08:51:47Z</time>
      </trkpt>
      <trkpt lat="45.89929" lon="4.80042">
        <ele>170</ele>
        <time>2018-09-13T08:51:48Z</time>
      </trkpt>
      <trkpt lat="45.89923" lon="4.80045">
        <ele>170</ele>
        <time>2018-09-13T08:51:49Z</time>
      </trkpt>
      <trkpt lat="45.89917" lon="4.80048">
        <ele>170</ele>
        <time>2018-09-13T08:51:50Z</time>
      </trkpt>
      <trkpt lat="45.89912" lon="4.8005">
        <ele>171</ele>
        <time>2018-09-13T08:51:51Z</time>
      </trkpt>
      <trkpt lat="45.89906" lon="4.80053">
        <ele>171</ele>
        <time>2018-09-13T08:51:52Z</time>
      </trkpt>
      <trkpt lat="45.89901" lon="4.80055">
        <ele>170</ele>
        <time>2018-09-13T08:51:53Z</time>
      </trkpt>
      <trkpt lat="45.89895" lon="4.80057">
        <ele>170</ele>
        <time>2018-09-13T08:51:54Z</time>
      </trkpt>
      <trkpt lat="45.89889" lon="4.80059">
        <ele>170</ele>
        <time>2018-09-13T08:51:55Z</time>
      </trkpt>
      <trkpt lat="45.89883" lon="4.80062">
        <ele>170</ele>
        <time>2018-09-13T08:51:56Z</time>
      </trkpt>
      <trkpt lat="45.89876" lon="4.80065">
        <ele>170</ele>
        <time>2018-09-13T08:51:57Z</time>
      </trkpt>
      <trkpt lat="45.89869" lon="4.80067">
        <ele>170</ele>
        <time>2018-09-13T08:51:58Z</time>
      </trkpt>
      <trkpt lat="45.89863" lon="4.8007">
        <ele>170</ele>
        <time>2018-09-13T08:51:59Z</time>
      </trkpt>
      <trkpt lat="45.89855" lon="4.80075">
        <ele>170</ele>
        <time>2018-09-13T08:52:00Z</time>
      </trkpt>
      <trkpt lat="45.89848" lon="4.80077">
        <ele>170</ele>
        <time>2018-09-13T08:52:01Z</time>
      </trkpt>
      <trkpt lat="45.89843" lon="4.80083">
        <ele>170</ele>
        <time>2018-09-13T08:52:02Z</time>
      </trkpt>
      <trkpt lat="45.89836" lon="4.80086">
        <ele>170</ele>
        <time>2018-09-13T08:52:03Z</time>
      </trkpt>
      <trkpt lat="45.8983" lon="4.8009">
        <ele>170</ele>
        <time>2018-09-13T08:52:04Z</time>
      </trkpt>
      <trkpt lat="45.89824" lon="4.80092">
        <ele>170</ele>
        <time>2018-09-13T08:52:05Z</time>
      </trkpt>
      <trkpt lat="45.89817" lon="4.80095">
        <ele>169</ele>
        <time>2018-09-13T08:52:06Z</time>
      </trkpt>
      <trkpt lat="45.8981" lon="4.80097">
        <ele>169</ele>
        <time>2018-09-13T08:52:07Z</time>
      </trkpt>
      <trkpt lat="45.89805" lon="4.80101">
        <ele>169</ele>
        <time>2018-09-13T08:52:08Z</time>
      </trkpt>
      <trkpt lat="45.89799" lon="4.80105">
        <ele>169</ele>
        <time>2018-09-13T08:52:09Z</time>
      </trkpt>
      <trkpt lat="45.89792" lon="4.80105">
        <ele>169</ele>
        <time>2018-09-13T08:52:10Z</time>
      </trkpt>
      <trkpt lat="45.89785" lon="4.80108">
        <ele>169</ele>
        <time>2018-09-13T08:52:11Z</time>
      </trkpt>
      <trkpt lat="45.89778" lon="4.80112">
        <ele>169</ele>
        <time>2018-09-13T08:52:12Z</time>
      </trkpt>
      <trkpt lat="45.89773" lon="4.80115">
        <ele>169</ele>
        <time>2018-09-13T08:52:13Z</time>
      </trkpt>
      <trkpt lat="45.89767" lon="4.80117">
        <ele>169</ele>
        <time>2018-09-13T08:52:14Z</time>
      </trkpt>
      <trkpt lat="45.89761" lon="4.8012">
        <ele>169</ele>
        <time>2018-09-13T08:52:15Z</time>
      </trkpt>
      <trkpt lat="45.89755" lon="4.80122">
        <ele>169</ele>
        <time>2018-09-13T08:52:16Z</time>
      </trkpt>
      <trkpt lat="45.89749" lon="4.80123">
        <ele>170</ele>
        <time>2018-09-13T08:52:17Z</time>
      </trkpt>
      <trkpt lat="45.89743" lon="4.80126">
        <ele>170</ele>
        <time>2018-09-13T08:52:18Z</time>
      </trkpt>
      <trkpt lat="45.89738" lon="4.80131">
        <ele>171</ele>
        <time>2018-09-13T08:52:19Z</time>
      </trkpt>
      <trkpt lat="45.89733" lon="4.80132">
        <ele>171</ele>
        <time>2018-09-13T08:52:20Z</time>
      </trkpt>
      <trkpt lat="45.89727" lon="4.80133">
        <ele>171</ele>
        <time>2018-09-13T08:52:21Z</time>
      </trkpt>
      <trkpt lat="45.89723" lon="4.80139">
        <ele>171</ele>
        <time>2018-09-13T08:52:22Z</time>
      </trkpt>
      <trkpt lat="45.89718" lon="4.80142">
        <ele>171</ele>
        <time>2018-09-13T08:52:23Z</time>
      </trkpt>
      <trkpt lat="45.89713" lon="4.80144">
        <ele>171</ele>
        <time>2018-09-13T08:52:24Z</time>
      </trkpt>
      <trkpt lat="45.89705" lon="4.80143">
        <ele>171</ele>
        <time>2018-09-13T08:52:25Z</time>
      </trkpt>
      <trkpt lat="45.897" lon="4.80143">
        <ele>171</ele>
        <time>2018-09-13T08:52:26Z</time>
      </trkpt>
      <trkpt lat="45.89694" lon="4.80145">
        <ele>171</ele>
        <time>2018-09-13T08:52:27Z</time>
      </trkpt>
      <trkpt lat="45.89687" lon="4.80147">
        <ele>172</ele>
        <time>2018-09-13T08:52:28Z</time>
      </trkpt>
      <trkpt lat="45.89681" lon="4.80149">
        <ele>172</ele>
        <time>2018-09-13T08:52:29Z</time>
      </trkpt>
      <trkpt lat="45.89676" lon="4.80152">
        <ele>172</ele>
        <time>2018-09-13T08:52:30Z</time>
      </trkpt>
      <trkpt lat="45.8967" lon="4.80154">
        <ele>172</ele>
        <time>2018-09-13T08:52:31Z</time>
      </trkpt>
      <trkpt lat="45.89664" lon="4.80155">
        <ele>173</ele>
        <time>2018-09-13T08:52:32Z</time>
      </trkpt>
      <trkpt lat="45.89658" lon="4.80159">
        <ele>173</ele>
        <time>2018-09-13T08:52:33Z</time>
      </trkpt>
      <trkpt lat="45.89653" lon="4.80164">
        <ele>173</ele>
        <time>2018-09-13T08:52:34Z</time>
      </trkpt>
      <trkpt lat="45.89648" lon="4.80169">
        <ele>172</ele>
        <time>2018-09-13T08:52:35Z</time>
      </trkpt>
      <trkpt lat="45.89642" lon="4.80171">
        <ele>172</ele>
        <time>2018-09-13T08:52:36Z</time>
      </trkpt>
      <trkpt lat="45.89636" lon="4.80173">
        <ele>172</ele>
        <time>2018-09-13T08:52:37Z</time>
      </trkpt>
      <trkpt lat="45.8963" lon="4.80175">
        <ele>172</ele>
        <time>2018-09-13T08:52:38Z</time>
      </trkpt>
      <trkpt lat="45.89627" lon="4.8018">
        <ele>172</ele>
        <time>2018-09-13T08:52:39Z</time>
      </trkpt>
      <trkpt lat="45.89622" lon="4.80183">
        <ele>172</ele>
        <time>2018-09-13T08:52:40Z</time>
      </trkpt>
      <trkpt lat="45.89617" lon="4.80185">
        <ele>172</ele>
        <time>2018-09-13T08:52:41Z</time>
      </trkpt>
      <trkpt lat="45.89612" lon="4.80187">
        <ele>172</ele>
        <time>2018-09-13T08:52:42Z</time>
      </trkpt>
      <trkpt lat="45.89607" lon="4.80188">
        <ele>172</ele>
        <time>2018-09-13T08:52:43Z</time>
      </trkpt>
      <trkpt lat="45.89602" lon="4.8019">
        <ele>172</ele>
        <time>2018-09-13T08:52:44Z</time>
      </trkpt>
      <trkpt lat="45.89599" lon="4.80195">
        <ele>172</ele>
        <time>2018-09-13T08:52:45Z</time>
      </trkpt>
      <trkpt lat="45.89593" lon="4.80197">
        <ele>172</ele>
        <time>2018-09-13T08:52:46Z</time>
      </trkpt>
      <trkpt lat="45.89587" lon="4.80201">
        <ele>172</ele>
        <time>2018-09-13T08:52:47Z</time>
      </trkpt>
      <trkpt lat="45.89582" lon="4.80204">
        <ele>173</ele>
        <time>2018-09-13T08:52:48Z</time>
      </trkpt>
      <trkpt lat="45.89575" lon="4.80207">
        <ele>173</ele>
        <time>2018-09-13T08:52:49Z</time>
      </trkpt>
      <trkpt lat="45.89569" lon="4.80209">
        <ele>173</ele>
        <time>2018-09-13T08:52:50Z</time>
      </trkpt>
      <trkpt lat="45.89563" lon="4.80211">
        <ele>173</ele>
        <time>2018-09-13T08:52:51Z</time>
      </trkpt>
      <trkpt lat="45.89559" lon="4.80214">
        <ele>173</ele>
        <time>2018-09-13T08:52:52Z</time>
      </trkpt>
      <trkpt lat="45.89552" lon="4.80215">
        <ele>173</ele>
        <time>2018-09-13T08:52:53Z</time>
      </trkpt>
      <trkpt lat="45.89546" lon="4.80218">
        <ele>173</ele>
        <time>2018-09-13T08:52:54Z</time>
      </trkpt>
      <trkpt lat="45.89542" lon="4.8022">
        <ele>173</ele>
        <time>2018-09-13T08:52:55Z</time>
      </trkpt>
      <trkpt lat="45.89536" lon="4.80223">
        <ele>173</ele>
        <time>2018-09-13T08:52:56Z</time>
      </trkpt>
      <trkpt lat="45.89531" lon="4.80227">
        <ele>173</ele>
        <time>2018-09-13T08:52:57Z</time>
      </trkpt>
      <trkpt lat="45.89526" lon="4.8023">
        <ele>173</ele>
        <time>2018-09-13T08:52:58Z</time>
      </trkpt>
      <trkpt lat="45.89519" lon="4.80233">
        <ele>173</ele>
        <time>2018-09-13T08:52:59Z</time>
      </trkpt>
      <trkpt lat="45.89515" lon="4.80236">
        <ele>173</ele>
        <time>2018-09-13T08:53:00Z</time>
      </trkpt>
      <trkpt lat="45.8951" lon="4.80239">
        <ele>173</ele>
        <time>2018-09-13T08:53:01Z</time>
      </trkpt>
      <trkpt lat="45.89506" lon="4.80241">
        <ele>173</ele>
        <time>2018-09-13T08:53:02Z</time>
      </trkpt>
      <trkpt lat="45.89499" lon="4.80237">
        <ele>174</ele>
        <time>2018-09-13T08:53:03Z</time>
      </trkpt>
      <trkpt lat="45.89493" lon="4.80238">
        <ele>174</ele>
        <time>2018-09-13T08:53:04Z</time>
      </trkpt>
      <trkpt lat="45.89488" lon="4.80239">
        <ele>175</ele>
        <time>2018-09-13T08:53:05Z</time>
      </trkpt>
      <trkpt lat="45.89483" lon="4.8024">
        <ele>175</ele>
        <time>2018-09-13T08:53:06Z</time>
      </trkpt>
      <trkpt lat="45.89478" lon="4.80242">
        <ele>175</ele>
        <time>2018-09-13T08:53:07Z</time>
      </trkpt>
      <trkpt lat="45.89472" lon="4.80243">
        <ele>176</ele>
        <time>2018-09-13T08:53:08Z</time>
      </trkpt>
      <trkpt lat="45.89468" lon="4.80245">
        <ele>176</ele>
        <time>2018-09-13T08:53:09Z</time>
      </trkpt>
      <trkpt lat="45.89462" lon="4.80248">
        <ele>177</ele>
        <time>2018-09-13T08:53:10Z</time>
      </trkpt>
      <trkpt lat="45.89456" lon="4.80249">
        <ele>177</ele>
        <time>2018-09-13T08:53:11Z</time>
      </trkpt>
      <trkpt lat="45.89451" lon="4.80252">
        <ele>175</ele>
        <time>2018-09-13T08:53:12Z</time>
      </trkpt>
      <trkpt lat="45.89445" lon="4.80254">
        <ele>175</ele>
        <time>2018-09-13T08:53:13Z</time>
      </trkpt>
      <trkpt lat="45.89439" lon="4.80256">
        <ele>176</ele>
        <time>2018-09-13T08:53:14Z</time>
      </trkpt>
      <trkpt lat="45.89434" lon="4.80258">
        <ele>176</ele>
        <time>2018-09-13T08:53:15Z</time>
      </trkpt>
      <trkpt lat="45.8943" lon="4.80259">
        <ele>176</ele>
        <time>2018-09-13T08:53:16Z</time>
      </trkpt>
      <trkpt lat="45.89424" lon="4.8026">
        <ele>177</ele>
        <time>2018-09-13T08:53:17Z</time>
      </trkpt>
      <trkpt lat="45.89419" lon="4.80263">
        <ele>177</ele>
        <time>2018-09-13T08:53:18Z</time>
      </trkpt>
      <trkpt lat="45.89413" lon="4.80266">
        <ele>178</ele>
        <time>2018-09-13T08:53:19Z</time>
      </trkpt>
      <trkpt lat="45.89408" lon="4.8027">
        <ele>177</ele>
        <time>2018-09-13T08:53:20Z</time>
      </trkpt>
      <trkpt lat="45.89402" lon="4.80273">
        <ele>177</ele>
        <time>2018-09-13T08:53:21Z</time>
      </trkpt>
      <trkpt lat="45.89396" lon="4.80277">
        <ele>177</ele>
        <time>2018-09-13T08:53:22Z</time>
      </trkpt>
      <trkpt lat="45.8939" lon="4.8028">
        <ele>177</ele>
        <time>2018-09-13T08:53:23Z</time>
      </trkpt>
      <trkpt lat="45.89384" lon="4.80284">
        <ele>177</ele>
        <time>2018-09-13T08:53:24Z</time>
      </trkpt>
      <trkpt lat="45.89379" lon="4.80285">
        <ele>177</ele>
        <time>2018-09-13T08:53:25Z</time>
      </trkpt>
      <trkpt lat="45.89373" lon="4.80289">
        <ele>177</ele>
        <time>2018-09-13T08:53:26Z</time>
      </trkpt>
      <trkpt lat="45.89368" lon="4.80293">
        <ele>177</ele>
        <time>2018-09-13T08:53:27Z</time>
      </trkpt>
      <trkpt lat="45.89363" lon="4.80296">
        <ele>177</ele>
        <time>2018-09-13T08:53:28Z</time>
      </trkpt>
      <trkpt lat="45.89358" lon="4.803">
        <ele>176</ele>
        <time>2018-09-13T08:53:29Z</time>
      </trkpt>
      <trkpt lat="45.89354" lon="4.80307">
        <ele>176</ele>
        <time>2018-09-13T08:53:30Z</time>
      </trkpt>
      <trkpt lat="45.89349" lon="4.80314">
        <ele>176</ele>
        <time>2018-09-13T08:53:31Z</time>
      </trkpt>
      <trkpt lat="45.89345" lon="4.80315">
        <ele>176</ele>
        <time>2018-09-13T08:53:32Z</time>
      </trkpt>
      <trkpt lat="45.89339" lon="4.80319">
        <ele>176</ele>
        <time>2018-09-13T08:53:33Z</time>
      </trkpt>
      <trkpt lat="45.89335" lon="4.80323">
        <ele>176</ele>
        <time>2018-09-13T08:53:34Z</time>
      </trkpt>
      <trkpt lat="45.89331" lon="4.80331">
        <ele>176</ele>
        <time>2018-09-13T08:53:35Z</time>
      </trkpt>
      <trkpt lat="45.89326" lon="4.80338">
        <ele>175</ele>
        <time>2018-09-13T08:53:36Z</time>
      </trkpt>
      <trkpt lat="45.8932" lon="4.80341">
        <ele>175</ele>
        <time>2018-09-13T08:53:37Z</time>
      </trkpt>
      <trkpt lat="45.89315" lon="4.80346">
        <ele>175</ele>
        <time>2018-09-13T08:53:38Z</time>
      </trkpt>
      <trkpt lat="45.89309" lon="4.80349">
        <ele>175</ele>
        <time>2018-09-13T08:53:39Z</time>
      </trkpt>
      <trkpt lat="45.89303" lon="4.80352">
        <ele>175</ele>
        <time>2018-09-13T08:53:40Z</time>
      </trkpt>
      <trkpt lat="45.89298" lon="4.80356">
        <ele>175</ele>
        <time>2018-09-13T08:53:41Z</time>
      </trkpt>
      <trkpt lat="45.89293" lon="4.80362">
        <ele>175</ele>
        <time>2018-09-13T08:53:42Z</time>
      </trkpt>
      <trkpt lat="45.89288" lon="4.80363">
        <ele>175</ele>
        <time>2018-09-13T08:53:43Z</time>
      </trkpt>
      <trkpt lat="45.89283" lon="4.80368">
        <ele>175</ele>
        <time>2018-09-13T08:53:44Z</time>
      </trkpt>
      <trkpt lat="45.89277" lon="4.80369">
        <ele>175</ele>
        <time>2018-09-13T08:53:45Z</time>
      </trkpt>
      <trkpt lat="45.89273" lon="4.80374">
        <ele>175</ele>
        <time>2018-09-13T08:53:46Z</time>
      </trkpt>
      <trkpt lat="45.8927" lon="4.80384">
        <ele>174</ele>
        <time>2018-09-13T08:53:47Z</time>
      </trkpt>
      <trkpt lat="45.89265" lon="4.80389">
        <ele>174</ele>
        <time>2018-09-13T08:53:48Z</time>
      </trkpt>
      <trkpt lat="45.8926" lon="4.80394">
        <ele>174</ele>
        <time>2018-09-13T08:53:49Z</time>
      </trkpt>
      <trkpt lat="45.89253" lon="4.80394">
        <ele>174</ele>
        <time>2018-09-13T08:53:50Z</time>
      </trkpt>
      <trkpt lat="45.89248" lon="4.80398">
        <ele>176</ele>
        <time>2018-09-13T08:53:51Z</time>
      </trkpt>
      <trkpt lat="45.89242" lon="4.80401">
        <ele>176</ele>
        <time>2018-09-13T08:53:52Z</time>
      </trkpt>
      <trkpt lat="45.89237" lon="4.80406">
        <ele>176</ele>
        <time>2018-09-13T08:53:53Z</time>
      </trkpt>
      <trkpt lat="45.89232" lon="4.8041">
        <ele>176</ele>
        <time>2018-09-13T08:53:54Z</time>
      </trkpt>
      <trkpt lat="45.89226" lon="4.80411">
        <ele>176</ele>
        <time>2018-09-13T08:53:55Z</time>
      </trkpt>
      <trkpt lat="45.89222" lon="4.80415">
        <ele>177</ele>
        <time>2018-09-13T08:53:56Z</time>
      </trkpt>
      <trkpt lat="45.89217" lon="4.80418">
        <ele>174</ele>
        <time>2018-09-13T08:53:57Z</time>
      </trkpt>
      <trkpt lat="45.89213" lon="4.80423">
        <ele>174</ele>
        <time>2018-09-13T08:53:58Z</time>
      </trkpt>
      <trkpt lat="45.89208" lon="4.80426">
        <ele>174</ele>
        <time>2018-09-13T08:53:59Z</time>
      </trkpt>
      <trkpt lat="45.89203" lon="4.80429">
        <ele>175</ele>
        <time>2018-09-13T08:54:00Z</time>
      </trkpt>
      <trkpt lat="45.89197" lon="4.80431">
        <ele>175</ele>
        <time>2018-09-13T08:54:01Z</time>
      </trkpt>
      <trkpt lat="45.89193" lon="4.80437">
        <ele>175</ele>
        <time>2018-09-13T08:54:02Z</time>
      </trkpt>
      <trkpt lat="45.89188" lon="4.80445">
        <ele>175</ele>
        <time>2018-09-13T08:54:03Z</time>
      </trkpt>
      <trkpt lat="45.89185" lon="4.80452">
        <ele>174</ele>
        <time>2018-09-13T08:54:04Z</time>
      </trkpt>
      <trkpt lat="45.8918" lon="4.80459">
        <ele>174</ele>
        <time>2018-09-13T08:54:05Z</time>
      </trkpt>
      <trkpt lat="45.89176" lon="4.80464">
        <ele>174</ele>
        <time>2018-09-13T08:54:06Z</time>
      </trkpt>
      <trkpt lat="45.89171" lon="4.80469">
        <ele>174</ele>
        <time>2018-09-13T08:54:07Z</time>
      </trkpt>
      <trkpt lat="45.89163" lon="4.8047">
        <ele>176</ele>
        <time>2018-09-13T08:54:08Z</time>
      </trkpt>
      <trkpt lat="45.89158" lon="4.80474">
        <ele>176</ele>
        <time>2018-09-13T08:54:09Z</time>
      </trkpt>
      <trkpt lat="45.89155" lon="4.8048">
        <ele>176</ele>
        <time>2018-09-13T08:54:10Z</time>
      </trkpt>
      <trkpt lat="45.8915" lon="4.80486">
        <ele>176</ele>
        <time>2018-09-13T08:54:11Z</time>
      </trkpt>
      <trkpt lat="45.89145" lon="4.80491">
        <ele>176</ele>
        <time>2018-09-13T08:54:12Z</time>
      </trkpt>
      <trkpt lat="45.89139" lon="4.80494">
        <ele>176</ele>
        <time>2018-09-13T08:54:13Z</time>
      </trkpt>
      <trkpt lat="45.89134" lon="4.80498">
        <ele>176</ele>
        <time>2018-09-13T08:54:14Z</time>
      </trkpt>
      <trkpt lat="45.89128" lon="4.80501">
        <ele>173</ele>
        <time>2018-09-13T08:54:15Z</time>
      </trkpt>
      <trkpt lat="45.89123" lon="4.80505">
        <ele>173</ele>
        <time>2018-09-13T08:54:16Z</time>
      </trkpt>
      <trkpt lat="45.89118" lon="4.80507">
        <ele>173</ele>
        <time>2018-09-13T08:54:17Z</time>
      </trkpt>
      <trkpt lat="45.89112" lon="4.8051">
        <ele>173</ele>
        <time>2018-09-13T08:54:18Z</time>
      </trkpt>
      <trkpt lat="45.89106" lon="4.80511">
        <ele>174</ele>
        <time>2018-09-13T08:54:19Z</time>
      </trkpt>
      <trkpt lat="45.89101" lon="4.80512">
        <ele>174</ele>
        <time>2018-09-13T08:54:20Z</time>
      </trkpt>
      <trkpt lat="45.89096" lon="4.80511">
        <ele>174</ele>
        <time>2018-09-13T08:54:21Z</time>
      </trkpt>
      <trkpt lat="45.89093" lon="4.80519">
        <ele>174</ele>
        <time>2018-09-13T08:54:22Z</time>
      </trkpt>
      <trkpt lat="45.89088" lon="4.80519">
        <ele>174</ele>
        <time>2018-09-13T08:54:23Z</time>
      </trkpt>
      <trkpt lat="45.89082" lon="4.80521">
        <ele>174</ele>
        <time>2018-09-13T08:54:24Z</time>
      </trkpt>
      <trkpt lat="45.89078" lon="4.80523">
        <ele>174</ele>
        <time>2018-09-13T08:54:25Z</time>
      </trkpt>
      <trkpt lat="45.89072" lon="4.80527">
        <ele>174</ele>
        <time>2018-09-13T08:54:26Z</time>
      </trkpt>
      <trkpt lat="45.89066" lon="4.80529">
        <ele>174</ele>
        <time>2018-09-13T08:54:27Z</time>
      </trkpt>
      <trkpt lat="45.89061" lon="4.8053">
        <ele>173</ele>
        <time>2018-09-13T08:54:28Z</time>
      </trkpt>
      <trkpt lat="45.89054" lon="4.80532">
        <ele>173</ele>
        <time>2018-09-13T08:54:29Z</time>
      </trkpt>
      <trkpt lat="45.8905" lon="4.80538">
        <ele>173</ele>
        <time>2018-09-13T08:54:30Z</time>
      </trkpt>
      <trkpt lat="45.89045" lon="4.80542">
        <ele>173</ele>
        <time>2018-09-13T08:54:31Z</time>
      </trkpt>
      <trkpt lat="45.89039" lon="4.80545">
        <ele>173</ele>
        <time>2018-09-13T08:54:32Z</time>
      </trkpt>
      <trkpt lat="45.89033" lon="4.80548">
        <ele>173</ele>
        <time>2018-09-13T08:54:33Z</time>
      </trkpt>
      <trkpt lat="45.89028" lon="4.80551">
        <ele>173</ele>
        <time>2018-09-13T08:54:34Z</time>
      </trkpt>
      <trkpt lat="45.89021" lon="4.80551">
        <ele>173</ele>
        <time>2018-09-13T08:54:35Z</time>
      </trkpt>
      <trkpt lat="45.89016" lon="4.80552">
        <ele>173</ele>
        <time>2018-09-13T08:54:36Z</time>
      </trkpt>
      <trkpt lat="45.89009" lon="4.80553">
        <ele>172</ele>
        <time>2018-09-13T08:54:37Z</time>
      </trkpt>
      <trkpt lat="45.89004" lon="4.80555">
        <ele>172</ele>
        <time>2018-09-13T08:54:38Z</time>
      </trkpt>
      <trkpt lat="45.88998" lon="4.80555">
        <ele>173</ele>
        <time>2018-09-13T08:54:39Z</time>
      </trkpt>
      <trkpt lat="45.88991" lon="4.80556">
        <ele>172</ele>
        <time>2018-09-13T08:54:40Z</time>
      </trkpt>
      <trkpt lat="45.88986" lon="4.80558">
        <ele>172</ele>
        <time>2018-09-13T08:54:41Z</time>
      </trkpt>
      <trkpt lat="45.88979" lon="4.80559">
        <ele>172</ele>
        <time>2018-09-13T08:54:42Z</time>
      </trkpt>
      <trkpt lat="45.88974" lon="4.80561">
        <ele>173</ele>
        <time>2018-09-13T08:54:43Z</time>
      </trkpt>
      <trkpt lat="45.88969" lon="4.80564">
        <ele>172</ele>
        <time>2018-09-13T08:54:44Z</time>
      </trkpt>
      <trkpt lat="45.88964" lon="4.80564">
        <ele>173</ele>
        <time>2018-09-13T08:54:45Z</time>
      </trkpt>
      <trkpt lat="45.88959" lon="4.80563">
        <ele>173</ele>
        <time>2018-09-13T08:54:46Z</time>
      </trkpt>
      <trkpt lat="45.88955" lon="4.80561">
        <ele>173</ele>
        <time>2018-09-13T08:54:47Z</time>
      </trkpt>
      <trkpt lat="45.8895" lon="4.80558">
        <ele>173</ele>
        <time>2018-09-13T08:54:48Z</time>
      </trkpt>
      <trkpt lat="45.88944" lon="4.80558">
        <ele>173</ele>
        <time>2018-09-13T08:54:49Z</time>
      </trkpt>
      <trkpt lat="45.8894" lon="4.80562">
        <ele>173</ele>
        <time>2018-09-13T08:54:50Z</time>
      </trkpt>
      <trkpt lat="45.88935" lon="4.80567">
        <ele>172</ele>
        <time>2018-09-13T08:54:51Z</time>
      </trkpt>
      <trkpt lat="45.88931" lon="4.80573">
        <ele>172</ele>
        <time>2018-09-13T08:54:52Z</time>
      </trkpt>
      <trkpt lat="45.88928" lon="4.8058">
        <ele>172</ele>
        <time>2018-09-13T08:54:53Z</time>
      </trkpt>
      <trkpt lat="45.88923" lon="4.80585">
        <ele>171</ele>
        <time>2018-09-13T08:54:54Z</time>
      </trkpt>
      <trkpt lat="45.88918" lon="4.80591">
        <ele>171</ele>
        <time>2018-09-13T08:54:55Z</time>
      </trkpt>
      <trkpt lat="45.88911" lon="4.80595">
        <ele>171</ele>
        <time>2018-09-13T08:54:56Z</time>
      </trkpt>
      <trkpt lat="45.88904" lon="4.80598">
        <ele>172</ele>
        <time>2018-09-13T08:54:57Z</time>
      </trkpt>
      <trkpt lat="45.88899" lon="4.80603">
        <ele>172</ele>
        <time>2018-09-13T08:54:58Z</time>
      </trkpt>
      <trkpt lat="45.88893" lon="4.80607">
        <ele>172</ele>
        <time>2018-09-13T08:54:59Z</time>
      </trkpt>
      <trkpt lat="45.88887" lon="4.8061">
        <ele>172</ele>
        <time>2018-09-13T08:55:00Z</time>
      </trkpt>
      <trkpt lat="45.88883" lon="4.80615">
        <ele>172</ele>
        <time>2018-09-13T08:55:01Z</time>
      </trkpt>
      <trkpt lat="45.88875" lon="4.80616">
        <ele>172</ele>
        <time>2018-09-13T08:55:02Z</time>
      </trkpt>
      <trkpt lat="45.88871" lon="4.80622">
        <ele>172</ele>
        <time>2018-09-13T08:55:03Z</time>
      </trkpt>
      <trkpt lat="45.88865" lon="4.80626">
        <ele>173</ele>
        <time>2018-09-13T08:55:04Z</time>
      </trkpt>
      <trkpt lat="45.8886" lon="4.80631">
        <ele>173</ele>
        <time>2018-09-13T08:55:05Z</time>
      </trkpt>
      <trkpt lat="45.88854" lon="4.80634">
        <ele>173</ele>
        <time>2018-09-13T08:55:06Z</time>
      </trkpt>
      <trkpt lat="45.88849" lon="4.80638">
        <ele>173</ele>
        <time>2018-09-13T08:55:07Z</time>
      </trkpt>
      <trkpt lat="45.88843" lon="4.80642">
        <ele>173</ele>
        <time>2018-09-13T08:55:08Z</time>
      </trkpt>
      <trkpt lat="45.88837" lon="4.80647">
        <ele>173</ele>
        <time>2018-09-13T08:55:09Z</time>
      </trkpt>
      <trkpt lat="45.88833" lon="4.80653">
        <ele>174</ele>
        <time>2018-09-13T08:55:10Z</time>
      </trkpt>
      <trkpt lat="45.88828" lon="4.80657">
        <ele>174</ele>
        <time>2018-09-13T08:55:11Z</time>
      </trkpt>
      <trkpt lat="45.88823" lon="4.8066">
        <ele>174</ele>
        <time>2018-09-13T08:55:12Z</time>
      </trkpt>
      <trkpt lat="45.88818" lon="4.80664">
        <ele>174</ele>
        <time>2018-09-13T08:55:13Z</time>
      </trkpt>
      <trkpt lat="45.88815" lon="4.80667">
        <ele>172</ele>
        <time>2018-09-13T08:55:14Z</time>
      </trkpt>
      <trkpt lat="45.8881" lon="4.80671">
        <ele>172</ele>
        <time>2018-09-13T08:55:15Z</time>
      </trkpt>
      <trkpt lat="45.88806" lon="4.80678">
        <ele>172</ele>
        <time>2018-09-13T08:55:16Z</time>
      </trkpt>
      <trkpt lat="45.88801" lon="4.80684">
        <ele>172</ele>
        <time>2018-09-13T08:55:17Z</time>
      </trkpt>
      <trkpt lat="45.88795" lon="4.80689">
        <ele>172</ele>
        <time>2018-09-13T08:55:18Z</time>
      </trkpt>
      <trkpt lat="45.8879" lon="4.80693">
        <ele>172</ele>
        <time>2018-09-13T08:55:19Z</time>
      </trkpt>
      <trkpt lat="45.88786" lon="4.80703">
        <ele>172</ele>
        <time>2018-09-13T08:55:20Z</time>
      </trkpt>
      <trkpt lat="45.88781" lon="4.80709">
        <ele>172</ele>
        <time>2018-09-13T08:55:21Z</time>
      </trkpt>
      <trkpt lat="45.88775" lon="4.80714">
        <ele>172</ele>
        <time>2018-09-13T08:55:22Z</time>
      </trkpt>
      <trkpt lat="45.88769" lon="4.80718">
        <ele>171</ele>
        <time>2018-09-13T08:55:23Z</time>
      </trkpt>
      <trkpt lat="45.88763" lon="4.80719">
        <ele>171</ele>
        <time>2018-09-13T08:55:24Z</time>
      </trkpt>
      <trkpt lat="45.88759" lon="4.80725">
        <ele>171</ele>
        <time>2018-09-13T08:55:25Z</time>
      </trkpt>
      <trkpt lat="45.88754" lon="4.80729">
        <ele>171</ele>
        <time>2018-09-13T08:55:26Z</time>
      </trkpt>
      <trkpt lat="45.88749" lon="4.80734">
        <ele>171</ele>
        <time>2018-09-13T08:55:27Z</time>
      </trkpt>
      <trkpt lat="45.88745" lon="4.80738">
        <ele>171</ele>
        <time>2018-09-13T08:55:28Z</time>
      </trkpt>
      <trkpt lat="45.88742" lon="4.80743">
        <ele>171</ele>
        <time>2018-09-13T08:55:29Z</time>
      </trkpt>
      <trkpt lat="45.88737" lon="4.80747">
        <ele>171</ele>
        <time>2018-09-13T08:55:30Z</time>
      </trkpt>
      <trkpt lat="45.88733" lon="4.80752">
        <ele>170</ele>
        <time>2018-09-13T08:55:31Z</time>
      </trkpt>
      <trkpt lat="45.88729" lon="4.80756">
        <ele>170</ele>
        <time>2018-09-13T08:55:32Z</time>
      </trkpt>
      <trkpt lat="45.88725" lon="4.80761">
        <ele>170</ele>
        <time>2018-09-13T08:55:33Z</time>
      </trkpt>
      <trkpt lat="45.88721" lon="4.80765">
        <ele>170</ele>
        <time>2018-09-13T08:55:34Z</time>
      </trkpt>
      <trkpt lat="45.88719" lon="4.8077">
        <ele>170</ele>
        <time>2018-09-13T08:55:35Z</time>
      </trkpt>
      <trkpt lat="45.88715" lon="4.80775">
        <ele>170</ele>
        <time>2018-09-13T08:55:36Z</time>
      </trkpt>
      <trkpt lat="45.8871" lon="4.8078">
        <ele>171</ele>
        <time>2018-09-13T08:55:37Z</time>
      </trkpt>
      <trkpt lat="45.88705" lon="4.80785">
        <ele>171</ele>
        <time>2018-09-13T08:55:38Z</time>
      </trkpt>
      <trkpt lat="45.88699" lon="4.80791">
        <ele>171</ele>
        <time>2018-09-13T08:55:39Z</time>
      </trkpt>
      <trkpt lat="45.88695" lon="4.80795">
        <ele>171</ele>
        <time>2018-09-13T08:55:40Z</time>
      </trkpt>
      <trkpt lat="45.8869" lon="4.80801">
        <ele>171</ele>
        <time>2018-09-13T08:55:41Z</time>
      </trkpt>
      <trkpt lat="45.88685" lon="4.80805">
        <ele>171</ele>
        <time>2018-09-13T08:55:42Z</time>
      </trkpt>
      <trkpt lat="45.8868" lon="4.80809">
        <ele>171</ele>
        <time>2018-09-13T08:55:43Z</time>
      </trkpt>
      <trkpt lat="45.88676" lon="4.80814">
        <ele>171</ele>
        <time>2018-09-13T08:55:44Z</time>
      </trkpt>
      <trkpt lat="45.8867" lon="4.80819">
        <ele>171</ele>
        <time>2018-09-13T08:55:45Z</time>
      </trkpt>
      <trkpt lat="45.88666" lon="4.80825">
        <ele>172</ele>
        <time>2018-09-13T08:55:46Z</time>
      </trkpt>
      <trkpt lat="45.88661" lon="4.8083">
        <ele>172</ele>
        <time>2018-09-13T08:55:47Z</time>
      </trkpt>
      <trkpt lat="45.88657" lon="4.80836">
        <ele>171</ele>
        <time>2018-09-13T08:55:48Z</time>
      </trkpt>
      <trkpt lat="45.88652" lon="4.8084">
        <ele>171</ele>
        <time>2018-09-13T08:55:49Z</time>
      </trkpt>
      <trkpt lat="45.88648" lon="4.80844">
        <ele>171</ele>
        <time>2018-09-13T08:55:50Z</time>
      </trkpt>
      <trkpt lat="45.88643" lon="4.80844">
        <ele>171</ele>
        <time>2018-09-13T08:55:51Z</time>
      </trkpt>
      <trkpt lat="45.88639" lon="4.80849">
        <ele>171</ele>
        <time>2018-09-13T08:55:52Z</time>
      </trkpt>
      <trkpt lat="45.88634" lon="4.80853">
        <ele>171</ele>
        <time>2018-09-13T08:55:53Z</time>
      </trkpt>
      <trkpt lat="45.8863" lon="4.80857">
        <ele>171</ele>
        <time>2018-09-13T08:55:54Z</time>
      </trkpt>
      <trkpt lat="45.88623" lon="4.80865">
        <ele>171</ele>
        <time>2018-09-13T08:55:56Z</time>
      </trkpt>
      <trkpt lat="45.8862" lon="4.80871">
        <ele>171</ele>
        <time>2018-09-13T08:55:57Z</time>
      </trkpt>
      <trkpt lat="45.88616" lon="4.80876">
        <ele>171</ele>
        <time>2018-09-13T08:55:58Z</time>
      </trkpt>
      <trkpt lat="45.88613" lon="4.80882">
        <ele>171</ele>
        <time>2018-09-13T08:55:59Z</time>
      </trkpt>
      <trkpt lat="45.88609" lon="4.80887">
        <ele>171</ele>
        <time>2018-09-13T08:56:00Z</time>
      </trkpt>
      <trkpt lat="45.88604" lon="4.80891">
        <ele>170</ele>
        <time>2018-09-13T08:56:01Z</time>
      </trkpt>
      <trkpt lat="45.88601" lon="4.80897">
        <ele>170</ele>
        <time>2018-09-13T08:56:02Z</time>
      </trkpt>
      <trkpt lat="45.88597" lon="4.80902">
        <ele>170</ele>
        <time>2018-09-13T08:56:03Z</time>
      </trkpt>
      <trkpt lat="45.88592" lon="4.80907">
        <ele>169</ele>
        <time>2018-09-13T08:56:04Z</time>
      </trkpt>
      <trkpt lat="45.88588" lon="4.80912">
        <ele>169</ele>
        <time>2018-09-13T08:56:05Z</time>
      </trkpt>
      <trkpt lat="45.88584" lon="4.80919">
        <ele>168</ele>
        <time>2018-09-13T08:56:06Z</time>
      </trkpt>
      <trkpt lat="45.88581" lon="4.80925">
        <ele>168</ele>
        <time>2018-09-13T08:56:07Z</time>
      </trkpt>
      <trkpt lat="45.88576" lon="4.8093">
        <ele>169</ele>
        <time>2018-09-13T08:56:08Z</time>
      </trkpt>
      <trkpt lat="45.88572" lon="4.80937">
        <ele>169</ele>
        <time>2018-09-13T08:56:09Z</time>
      </trkpt>
      <trkpt lat="45.88567" lon="4.80942">
        <ele>169</ele>
        <time>2018-09-13T08:56:10Z</time>
      </trkpt>
      <trkpt lat="45.88562" lon="4.80947">
        <ele>169</ele>
        <time>2018-09-13T08:56:11Z</time>
      </trkpt>
      <trkpt lat="45.88557" lon="4.80952">
        <ele>169</ele>
        <time>2018-09-13T08:56:12Z</time>
      </trkpt>
      <trkpt lat="45.88551" lon="4.80959">
        <ele>169</ele>
        <time>2018-09-13T08:56:13Z</time>
      </trkpt>
      <trkpt lat="45.88548" lon="4.8097">
        <ele>169</ele>
        <time>2018-09-13T08:56:14Z</time>
      </trkpt>
      <trkpt lat="45.88544" lon="4.80975">
        <ele>169</ele>
        <time>2018-09-13T08:56:15Z</time>
      </trkpt>
      <trkpt lat="45.88538" lon="4.80978">
        <ele>169</ele>
        <time>2018-09-13T08:56:16Z</time>
      </trkpt>
      <trkpt lat="45.88533" lon="4.80982">
        <ele>169</ele>
        <time>2018-09-13T08:56:17Z</time>
      </trkpt>
      <trkpt lat="45.8853" lon="4.80989">
        <ele>169</ele>
        <time>2018-09-13T08:56:18Z</time>
      </trkpt>
      <trkpt lat="45.88526" lon="4.80995">
        <ele>169</ele>
        <time>2018-09-13T08:56:19Z</time>
      </trkpt>
      <trkpt lat="45.88521" lon="4.81">
        <ele>169</ele>
        <time>2018-09-13T08:56:20Z</time>
      </trkpt>
      <trkpt lat="45.88518" lon="4.81006">
        <ele>169</ele>
        <time>2018-09-13T08:56:21Z</time>
      </trkpt>
      <trkpt lat="45.88513" lon="4.81011">
        <ele>169</ele>
        <time>2018-09-13T08:56:22Z</time>
      </trkpt>
      <trkpt lat="45.88508" lon="4.81016">
        <ele>169</ele>
        <time>2018-09-13T08:56:23Z</time>
      </trkpt>
      <trkpt lat="45.88504" lon="4.81021">
        <ele>169</ele>
        <time>2018-09-13T08:56:24Z</time>
      </trkpt>
      <trkpt lat="45.88499" lon="4.81027">
        <ele>168</ele>
        <time>2018-09-13T08:56:25Z</time>
      </trkpt>
      <trkpt lat="45.88495" lon="4.81032">
        <ele>168</ele>
        <time>2018-09-13T08:56:26Z</time>
      </trkpt>
      <trkpt lat="45.8849" lon="4.81038">
        <ele>168</ele>
        <time>2018-09-13T08:56:27Z</time>
      </trkpt>
      <trkpt lat="45.88486" lon="4.81043">
        <ele>168</ele>
        <time>2018-09-13T08:56:28Z</time>
      </trkpt>
      <trkpt lat="45.88482" lon="4.8105">
        <ele>168</ele>
        <time>2018-09-13T08:56:29Z</time>
      </trkpt>
      <trkpt lat="45.88478" lon="4.81057">
        <ele>168</ele>
        <time>2018-09-13T08:56:30Z</time>
      </trkpt>
      <trkpt lat="45.88472" lon="4.81063">
        <ele>168</ele>
        <time>2018-09-13T08:56:31Z</time>
      </trkpt>
      <trkpt lat="45.88467" lon="4.81069">
        <ele>168</ele>
        <time>2018-09-13T08:56:32Z</time>
      </trkpt>
      <trkpt lat="45.88462" lon="4.81073">
        <ele>168</ele>
        <time>2018-09-13T08:56:33Z</time>
      </trkpt>
      <trkpt lat="45.88457" lon="4.81077">
        <ele>169</ele>
        <time>2018-09-13T08:56:34Z</time>
      </trkpt>
      <trkpt lat="45.88453" lon="4.81082">
        <ele>169</ele>
        <time>2018-09-13T08:56:35Z</time>
      </trkpt>
      <trkpt lat="45.8845" lon="4.81086">
        <ele>168</ele>
        <time>2018-09-13T08:56:36Z</time>
      </trkpt>
      <trkpt lat="45.88447" lon="4.81092">
        <ele>168</ele>
        <time>2018-09-13T08:56:37Z</time>
      </trkpt>
      <trkpt lat="45.88442" lon="4.81098">
        <ele>168</ele>
        <time>2018-09-13T08:56:38Z</time>
      </trkpt>
      <trkpt lat="45.88438" lon="4.81104">
        <ele>168</ele>
        <time>2018-09-13T08:56:39Z</time>
      </trkpt>
      <trkpt lat="45.88433" lon="4.8111">
        <ele>168</ele>
        <time>2018-09-13T08:56:40Z</time>
      </trkpt>
      <trkpt lat="45.88429" lon="4.81114">
        <ele>168</ele>
        <time>2018-09-13T08:56:41Z</time>
      </trkpt>
      <trkpt lat="45.88424" lon="4.81121">
        <ele>168</ele>
        <time>2018-09-13T08:56:42Z</time>
      </trkpt>
      <trkpt lat="45.88421" lon="4.81129">
        <ele>168</ele>
        <time>2018-09-13T08:56:43Z</time>
      </trkpt>
      <trkpt lat="45.88417" lon="4.81135">
        <ele>169</ele>
        <time>2018-09-13T08:56:44Z</time>
      </trkpt>
      <trkpt lat="45.88413" lon="4.81143">
        <ele>171</ele>
        <time>2018-09-13T08:56:45Z</time>
      </trkpt>
      <trkpt lat="45.88409" lon="4.8115">
        <ele>171</ele>
        <time>2018-09-13T08:56:46Z</time>
      </trkpt>
      <trkpt lat="45.88407" lon="4.81158">
        <ele>171</ele>
        <time>2018-09-13T08:56:47Z</time>
      </trkpt>
      <trkpt lat="45.88405" lon="4.81167">
        <ele>170</ele>
        <time>2018-09-13T08:56:48Z</time>
      </trkpt>
      <trkpt lat="45.88402" lon="4.81175">
        <ele>170</ele>
        <time>2018-09-13T08:56:49Z</time>
      </trkpt>
      <trkpt lat="45.88399" lon="4.81181">
        <ele>170</ele>
        <time>2018-09-13T08:56:50Z</time>
      </trkpt>
      <trkpt lat="45.88395" lon="4.81186">
        <ele>170</ele>
        <time>2018-09-13T08:56:51Z</time>
      </trkpt>
      <trkpt lat="45.8839" lon="4.81193">
        <ele>170</ele>
        <time>2018-09-13T08:56:52Z</time>
      </trkpt>
      <trkpt lat="45.88387" lon="4.81202">
        <ele>170</ele>
        <time>2018-09-13T08:56:53Z</time>
      </trkpt>
      <trkpt lat="45.88383" lon="4.81209">
        <ele>170</ele>
        <time>2018-09-13T08:56:54Z</time>
      </trkpt>
      <trkpt lat="45.88379" lon="4.81214">
        <ele>170</ele>
        <time>2018-09-13T08:56:55Z</time>
      </trkpt>
      <trkpt lat="45.88375" lon="4.81221">
        <ele>170</ele>
        <time>2018-09-13T08:56:56Z</time>
      </trkpt>
      <trkpt lat="45.8837" lon="4.81225">
        <ele>170</ele>
        <time>2018-09-13T08:56:57Z</time>
      </trkpt>
      <trkpt lat="45.88366" lon="4.8123">
        <ele>170</ele>
        <time>2018-09-13T08:56:58Z</time>
      </trkpt>
      <trkpt lat="45.88361" lon="4.81236">
        <ele>170</ele>
        <time>2018-09-13T08:56:59Z</time>
      </trkpt>
      <trkpt lat="45.88357" lon="4.81242">
        <ele>170</ele>
        <time>2018-09-13T08:57:00Z</time>
      </trkpt>
      <trkpt lat="45.88354" lon="4.81247">
        <ele>171</ele>
        <time>2018-09-13T08:57:01Z</time>
      </trkpt>
      <trkpt lat="45.88351" lon="4.81253">
        <ele>170</ele>
        <time>2018-09-13T08:57:02Z</time>
      </trkpt>
      <trkpt lat="45.88346" lon="4.81259">
        <ele>170</ele>
        <time>2018-09-13T08:57:03Z</time>
      </trkpt>
      <trkpt lat="45.88343" lon="4.81266">
        <ele>170</ele>
        <time>2018-09-13T08:57:04Z</time>
      </trkpt>
      <trkpt lat="45.8834" lon="4.81272">
        <ele>170</ele>
        <time>2018-09-13T08:57:05Z</time>
      </trkpt>
      <trkpt lat="45.88337" lon="4.81278">
        <ele>170</ele>
        <time>2018-09-13T08:57:06Z</time>
      </trkpt>
      <trkpt lat="45.88334" lon="4.81284">
        <ele>170</ele>
        <time>2018-09-13T08:57:07Z</time>
      </trkpt>
      <trkpt lat="45.8833" lon="4.81291">
        <ele>172</ele>
        <time>2018-09-13T08:57:08Z</time>
      </trkpt>
      <trkpt lat="45.88327" lon="4.81297">
        <ele>172</ele>
        <time>2018-09-13T08:57:09Z</time>
      </trkpt>
      <trkpt lat="45.88324" lon="4.81304">
        <ele>172</ele>
        <time>2018-09-13T08:57:10Z</time>
      </trkpt>
      <trkpt lat="45.88319" lon="4.8131">
        <ele>172</ele>
        <time>2018-09-13T08:57:11Z</time>
      </trkpt>
      <trkpt lat="45.88315" lon="4.81317">
        <ele>172</ele>
        <time>2018-09-13T08:57:12Z</time>
      </trkpt>
      <trkpt lat="45.88311" lon="4.81322">
        <ele>172</ele>
        <time>2018-09-13T08:57:13Z</time>
      </trkpt>
      <trkpt lat="45.88309" lon="4.81329">
        <ele>172</ele>
        <time>2018-09-13T08:57:14Z</time>
      </trkpt>
      <trkpt lat="45.88307" lon="4.81336">
        <ele>170</ele>
        <time>2018-09-13T08:57:15Z</time>
      </trkpt>
      <trkpt lat="45.88303" lon="4.81343">
        <ele>170</ele>
        <time>2018-09-13T08:57:16Z</time>
      </trkpt>
      <trkpt lat="45.883" lon="4.8135">
        <ele>169</ele>
        <time>2018-09-13T08:57:17Z</time>
      </trkpt>
      <trkpt lat="45.88299" lon="4.81359">
        <ele>169</ele>
        <time>2018-09-13T08:57:18Z</time>
      </trkpt>
      <trkpt lat="45.88294" lon="4.81364">
        <ele>169</ele>
        <time>2018-09-13T08:57:19Z</time>
      </trkpt>
      <trkpt lat="45.88291" lon="4.81373">
        <ele>168</ele>
        <time>2018-09-13T08:57:20Z</time>
      </trkpt>
      <trkpt lat="45.88288" lon="4.81381">
        <ele>168</ele>
        <time>2018-09-13T08:57:21Z</time>
      </trkpt>
      <trkpt lat="45.88284" lon="4.81386">
        <ele>168</ele>
        <time>2018-09-13T08:57:22Z</time>
      </trkpt>
      <trkpt lat="45.88281" lon="4.81396">
        <ele>167</ele>
        <time>2018-09-13T08:57:23Z</time>
      </trkpt>
      <trkpt lat="45.88278" lon="4.81402">
        <ele>167</ele>
        <time>2018-09-13T08:57:24Z</time>
      </trkpt>
      <trkpt lat="45.88277" lon="4.8141">
        <ele>167</ele>
        <time>2018-09-13T08:57:25Z</time>
      </trkpt>
      <trkpt lat="45.88275" lon="4.81417">
        <ele>167</ele>
        <time>2018-09-13T08:57:26Z</time>
      </trkpt>
      <trkpt lat="45.8827" lon="4.81422">
        <ele>165</ele>
        <time>2018-09-13T08:57:27Z</time>
      </trkpt>
      <trkpt lat="45.88268" lon="4.81431">
        <ele>166</ele>
        <time>2018-09-13T08:57:28Z</time>
      </trkpt>
      <trkpt lat="45.88264" lon="4.81435">
        <ele>166</ele>
        <time>2018-09-13T08:57:29Z</time>
      </trkpt>
      <trkpt lat="45.88262" lon="4.81448">
        <ele>166</ele>
        <time>2018-09-13T08:57:31Z</time>
      </trkpt>
      <trkpt lat="45.8826" lon="4.81454">
        <ele>166</ele>
        <time>2018-09-13T08:57:32Z</time>
      </trkpt>
      <trkpt lat="45.88256" lon="4.81459">
        <ele>166</ele>
        <time>2018-09-13T08:57:33Z</time>
      </trkpt>
      <trkpt lat="45.88254" lon="4.81468">
        <ele>166</ele>
        <time>2018-09-13T08:57:34Z</time>
      </trkpt>
      <trkpt lat="45.8825" lon="4.81475">
        <ele>169</ele>
        <time>2018-09-13T08:57:35Z</time>
      </trkpt>
      <trkpt lat="45.88248" lon="4.81485">
        <ele>169</ele>
        <time>2018-09-13T08:57:36Z</time>
      </trkpt>
      <trkpt lat="45.88245" lon="4.81493">
        <ele>169</ele>
        <time>2018-09-13T08:57:37Z</time>
      </trkpt>
      <trkpt lat="45.8824" lon="4.815">
        <ele>169</ele>
        <time>2018-09-13T08:57:38Z</time>
      </trkpt>
      <trkpt lat="45.88237" lon="4.81509">
        <ele>169</ele>
        <time>2018-09-13T08:57:39Z</time>
      </trkpt>
      <trkpt lat="45.88234" lon="4.81517">
        <ele>170</ele>
        <time>2018-09-13T08:57:40Z</time>
      </trkpt>
      <trkpt lat="45.88231" lon="4.81525">
        <ele>170</ele>
        <time>2018-09-13T08:57:41Z</time>
      </trkpt>
      <trkpt lat="45.88228" lon="4.81533">
        <ele>170</ele>
        <time>2018-09-13T08:57:42Z</time>
      </trkpt>
      <trkpt lat="45.88222" lon="4.81537">
        <ele>170</ele>
        <time>2018-09-13T08:57:43Z</time>
      </trkpt>
      <trkpt lat="45.88218" lon="4.81541">
        <ele>170</ele>
        <time>2018-09-13T08:57:44Z</time>
      </trkpt>
      <trkpt lat="45.88215" lon="4.81548">
        <ele>171</ele>
        <time>2018-09-13T08:57:45Z</time>
      </trkpt>
      <trkpt lat="45.88212" lon="4.81556">
        <ele>171</ele>
        <time>2018-09-13T08:57:46Z</time>
      </trkpt>
      <trkpt lat="45.88208" lon="4.81561">
        <ele>171</ele>
        <time>2018-09-13T08:57:47Z</time>
      </trkpt>
      <trkpt lat="45.88204" lon="4.81567">
        <ele>171</ele>
        <time>2018-09-13T08:57:48Z</time>
      </trkpt>
      <trkpt lat="45.88202" lon="4.81576">
        <ele>171</ele>
        <time>2018-09-13T08:57:49Z</time>
      </trkpt>
      <trkpt lat="45.88199" lon="4.8158">
        <ele>172</ele>
        <time>2018-09-13T08:57:50Z</time>
      </trkpt>
      <trkpt lat="45.88196" lon="4.81586">
        <ele>171</ele>
        <time>2018-09-13T08:57:51Z</time>
      </trkpt>
      <trkpt lat="45.88195" lon="4.81593">
        <ele>171</ele>
        <time>2018-09-13T08:57:52Z</time>
      </trkpt>
      <trkpt lat="45.8819" lon="4.81598">
        <ele>172</ele>
        <time>2018-09-13T08:57:53Z</time>
      </trkpt>
      <trkpt lat="45.88185" lon="4.816">
        <ele>172</ele>
        <time>2018-09-13T08:57:54Z</time>
      </trkpt>
      <trkpt lat="45.88185" lon="4.81609">
        <ele>172</ele>
        <time>2018-09-13T08:57:55Z</time>
      </trkpt>
      <trkpt lat="45.88184" lon="4.81615">
        <ele>171</ele>
        <time>2018-09-13T08:57:56Z</time>
      </trkpt>
      <trkpt lat="45.88181" lon="4.8162">
        <ele>171</ele>
        <time>2018-09-13T08:57:57Z</time>
      </trkpt>
      <trkpt lat="45.88178" lon="4.81626">
        <ele>171</ele>
        <time>2018-09-13T08:57:58Z</time>
      </trkpt>
      <trkpt lat="45.88175" lon="4.81631">
        <ele>171</ele>
        <time>2018-09-13T08:57:59Z</time>
      </trkpt>
      <trkpt lat="45.88171" lon="4.81635">
        <ele>171</ele>
        <time>2018-09-13T08:58:00Z</time>
      </trkpt>
      <trkpt lat="45.88168" lon="4.81641">
        <ele>171</ele>
        <time>2018-09-13T08:58:01Z</time>
      </trkpt>
      <trkpt lat="45.88167" lon="4.8165">
        <ele>172</ele>
        <time>2018-09-13T08:58:02Z</time>
      </trkpt>
      <trkpt lat="45.88166" lon="4.81659">
        <ele>174</ele>
        <time>2018-09-13T08:58:03Z</time>
      </trkpt>
      <trkpt lat="45.88162" lon="4.81664">
        <ele>174</ele>
        <time>2018-09-13T08:58:04Z</time>
      </trkpt>
      <trkpt lat="45.8816" lon="4.81673">
        <ele>172</ele>
        <time>2018-09-13T08:58:05Z</time>
      </trkpt>
      <trkpt lat="45.88157" lon="4.81679">
        <ele>172</ele>
        <time>2018-09-13T08:58:06Z</time>
      </trkpt>
      <trkpt lat="45.88155" lon="4.81687">
        <ele>172</ele>
        <time>2018-09-13T08:58:07Z</time>
      </trkpt>
      <trkpt lat="45.88153" lon="4.81692">
        <ele>171</ele>
        <time>2018-09-13T08:58:08Z</time>
      </trkpt>
      <trkpt lat="45.8815" lon="4.817">
        <ele>171</ele>
        <time>2018-09-13T08:58:09Z</time>
      </trkpt>
      <trkpt lat="45.88148" lon="4.81707">
        <ele>171</ele>
        <time>2018-09-13T08:58:10Z</time>
      </trkpt>
      <trkpt lat="45.88144" lon="4.81714">
        <ele>170</ele>
        <time>2018-09-13T08:58:11Z</time>
      </trkpt>
      <trkpt lat="45.88142" lon="4.8172">
        <ele>170</ele>
        <time>2018-09-13T08:58:12Z</time>
      </trkpt>
      <trkpt lat="45.88139" lon="4.81726">
        <ele>170</ele>
        <time>2018-09-13T08:58:13Z</time>
      </trkpt>
      <trkpt lat="45.88138" lon="4.81735">
        <ele>169</ele>
        <time>2018-09-13T08:58:14Z</time>
      </trkpt>
      <trkpt lat="45.88133" lon="4.81742">
        <ele>170</ele>
        <time>2018-09-13T08:58:15Z</time>
      </trkpt>
      <trkpt lat="45.88131" lon="4.8175">
        <ele>170</ele>
        <time>2018-09-13T08:58:16Z</time>
      </trkpt>
      <trkpt lat="45.88127" lon="4.81757">
        <ele>167</ele>
        <time>2018-09-13T08:58:17Z</time>
      </trkpt>
      <trkpt lat="45.88124" lon="4.81764">
        <ele>167</ele>
        <time>2018-09-13T08:58:18Z</time>
      </trkpt>
      <trkpt lat="45.88123" lon="4.81774">
        <ele>167</ele>
        <time>2018-09-13T08:58:19Z</time>
      </trkpt>
      <trkpt lat="45.88118" lon="4.81778">
        <ele>167</ele>
        <time>2018-09-13T08:58:20Z</time>
      </trkpt>
      <trkpt lat="45.88117" lon="4.81789">
        <ele>167</ele>
        <time>2018-09-13T08:58:21Z</time>
      </trkpt>
      <trkpt lat="45.88113" lon="4.81796">
        <ele>167</ele>
        <time>2018-09-13T08:58:22Z</time>
      </trkpt>
      <trkpt lat="45.88109" lon="4.81803">
        <ele>167</ele>
        <time>2018-09-13T08:58:23Z</time>
      </trkpt>
      <trkpt lat="45.88107" lon="4.81809">
        <ele>167</ele>
        <time>2018-09-13T08:58:24Z</time>
      </trkpt>
      <trkpt lat="45.88104" lon="4.81816">
        <ele>167</ele>
        <time>2018-09-13T08:58:25Z</time>
      </trkpt>
      <trkpt lat="45.88101" lon="4.81824">
        <ele>167</ele>
        <time>2018-09-13T08:58:26Z</time>
      </trkpt>
      <trkpt lat="45.88099" lon="4.81832">
        <ele>167</ele>
        <time>2018-09-13T08:58:27Z</time>
      </trkpt>
      <trkpt lat="45.88096" lon="4.81841">
        <ele>166</ele>
        <time>2018-09-13T08:58:28Z</time>
      </trkpt>
      <trkpt lat="45.88093" lon="4.81849">
        <ele>166</ele>
        <time>2018-09-13T08:58:29Z</time>
      </trkpt>
      <trkpt lat="45.8809" lon="4.81858">
        <ele>166</ele>
        <time>2018-09-13T08:58:30Z</time>
      </trkpt>
      <trkpt lat="45.88087" lon="4.81866">
        <ele>166</ele>
        <time>2018-09-13T08:58:31Z</time>
      </trkpt>
      <trkpt lat="45.88086" lon="4.81874">
        <ele>166</ele>
        <time>2018-09-13T08:58:32Z</time>
      </trkpt>
      <trkpt lat="45.88084" lon="4.81882">
        <ele>166</ele>
        <time>2018-09-13T08:58:33Z</time>
      </trkpt>
      <trkpt lat="45.8808" lon="4.81889">
        <ele>167</ele>
        <time>2018-09-13T08:58:34Z</time>
      </trkpt>
      <trkpt lat="45.88077" lon="4.81898">
        <ele>167</ele>
        <time>2018-09-13T08:58:35Z</time>
      </trkpt>
      <trkpt lat="45.88075" lon="4.81907">
        <ele>167</ele>
        <time>2018-09-13T08:58:36Z</time>
      </trkpt>
      <trkpt lat="45.88072" lon="4.81914">
        <ele>167</ele>
        <time>2018-09-13T08:58:37Z</time>
      </trkpt>
      <trkpt lat="45.8807" lon="4.81923">
        <ele>167</ele>
        <time>2018-09-13T08:58:38Z</time>
      </trkpt>
      <trkpt lat="45.88067" lon="4.8193">
        <ele>167</ele>
        <time>2018-09-13T08:58:39Z</time>
      </trkpt>
      <trkpt lat="45.88063" lon="4.81939">
        <ele>168</ele>
        <time>2018-09-13T08:58:40Z</time>
      </trkpt>
      <trkpt lat="45.8806" lon="4.81948">
        <ele>168</ele>
        <time>2018-09-13T08:58:41Z</time>
      </trkpt>
      <trkpt lat="45.88058" lon="4.81953">
        <ele>168</ele>
        <time>2018-09-13T08:58:42Z</time>
      </trkpt>
      <trkpt lat="45.88054" lon="4.81963">
        <ele>168</ele>
        <time>2018-09-13T08:58:43Z</time>
      </trkpt>
      <trkpt lat="45.88052" lon="4.81972">
        <ele>168</ele>
        <time>2018-09-13T08:58:44Z</time>
      </trkpt>
      <trkpt lat="45.88049" lon="4.81981">
        <ele>168</ele>
        <time>2018-09-13T08:58:45Z</time>
      </trkpt>
      <trkpt lat="45.88046" lon="4.8199">
        <ele>169</ele>
        <time>2018-09-13T08:58:46Z</time>
      </trkpt>
      <trkpt lat="45.88043" lon="4.81999">
        <ele>169</ele>
        <time>2018-09-13T08:58:47Z</time>
      </trkpt>
      <trkpt lat="45.88042" lon="4.82007">
        <ele>169</ele>
        <time>2018-09-13T08:58:48Z</time>
      </trkpt>
      <trkpt lat="45.88041" lon="4.82016">
        <ele>169</ele>
        <time>2018-09-13T08:58:49Z</time>
      </trkpt>
      <trkpt lat="45.88039" lon="4.82022">
        <ele>169</ele>
        <time>2018-09-13T08:58:50Z</time>
      </trkpt>
      <trkpt lat="45.88036" lon="4.82029">
        <ele>169</ele>
        <time>2018-09-13T08:58:51Z</time>
      </trkpt>
      <trkpt lat="45.88033" lon="4.82037">
        <ele>169</ele>
        <time>2018-09-13T08:58:52Z</time>
      </trkpt>
      <trkpt lat="45.88029" lon="4.82044">
        <ele>169</ele>
        <time>2018-09-13T08:58:53Z</time>
      </trkpt>
      <trkpt lat="45.88025" lon="4.8205">
        <ele>169</ele>
        <time>2018-09-13T08:58:54Z</time>
      </trkpt>
      <trkpt lat="45.88022" lon="4.82056">
        <ele>169</ele>
        <time>2018-09-13T08:58:55Z</time>
      </trkpt>
      <trkpt lat="45.88017" lon="4.82062">
        <ele>169</ele>
        <time>2018-09-13T08:58:56Z</time>
      </trkpt>
      <trkpt lat="45.88012" lon="4.82067">
        <ele>169</ele>
        <time>2018-09-13T08:58:57Z</time>
      </trkpt>
      <trkpt lat="45.88007" lon="4.82068">
        <ele>169</ele>
        <time>2018-09-13T08:58:58Z</time>
      </trkpt>
      <trkpt lat="45.88" lon="4.82071">
        <ele>171</ele>
        <time>2018-09-13T08:58:59Z</time>
      </trkpt>
      <trkpt lat="45.87994" lon="4.82073">
        <ele>171</ele>
        <time>2018-09-13T08:59:00Z</time>
      </trkpt>
      <trkpt lat="45.87991" lon="4.82082">
        <ele>171</ele>
        <time>2018-09-13T08:59:01Z</time>
      </trkpt>
      <trkpt lat="45.87988" lon="4.82091">
        <ele>171</ele>
        <time>2018-09-13T08:59:02Z</time>
      </trkpt>
      <trkpt lat="45.87985" lon="4.82095">
        <ele>171</ele>
        <time>2018-09-13T08:59:03Z</time>
      </trkpt>
      <trkpt lat="45.87982" lon="4.82103">
        <ele>171</ele>
        <time>2018-09-13T08:59:04Z</time>
      </trkpt>
      <trkpt lat="45.87979" lon="4.8211">
        <ele>171</ele>
        <time>2018-09-13T08:59:05Z</time>
      </trkpt>
      <trkpt lat="45.87976" lon="4.82116">
        <ele>171</ele>
        <time>2018-09-13T08:59:06Z</time>
      </trkpt>
      <trkpt lat="45.87973" lon="4.82123">
        <ele>171</ele>
        <time>2018-09-13T08:59:07Z</time>
      </trkpt>
      <trkpt lat="45.87971" lon="4.8213">
        <ele>171</ele>
        <time>2018-09-13T08:59:08Z</time>
      </trkpt>
      <trkpt lat="45.87969" lon="4.82137">
        <ele>171</ele>
        <time>2018-09-13T08:59:09Z</time>
      </trkpt>
      <trkpt lat="45.87967" lon="4.82145">
        <ele>171</ele>
        <time>2018-09-13T08:59:10Z</time>
      </trkpt>
      <trkpt lat="45.87966" lon="4.82152">
        <ele>171</ele>
        <time>2018-09-13T08:59:11Z</time>
      </trkpt>
      <trkpt lat="45.87964" lon="4.82161">
        <ele>171</ele>
        <time>2018-09-13T08:59:12Z</time>
      </trkpt>
      <trkpt lat="45.87964" lon="4.8217">
        <ele>170</ele>
        <time>2018-09-13T08:59:13Z</time>
      </trkpt>
      <trkpt lat="45.87963" lon="4.82178">
        <ele>170</ele>
        <time>2018-09-13T08:59:14Z</time>
      </trkpt>
      <trkpt lat="45.87962" lon="4.82187">
        <ele>170</ele>
        <time>2018-09-13T08:59:15Z</time>
      </trkpt>
      <trkpt lat="45.8796" lon="4.82195">
        <ele>170</ele>
        <time>2018-09-13T08:59:16Z</time>
      </trkpt>
      <trkpt lat="45.8796" lon="4.82204">
        <ele>170</ele>
        <time>2018-09-13T08:59:17Z</time>
      </trkpt>
      <trkpt lat="45.87959" lon="4.82214">
        <ele>170</ele>
        <time>2018-09-13T08:59:18Z</time>
      </trkpt>
      <trkpt lat="45.87958" lon="4.82221">
        <ele>170</ele>
        <time>2018-09-13T08:59:19Z</time>
      </trkpt>
      <trkpt lat="45.87957" lon="4.82229">
        <ele>170</ele>
        <time>2018-09-13T08:59:20Z</time>
      </trkpt>
      <trkpt lat="45.87958" lon="4.82239">
        <ele>169</ele>
        <time>2018-09-13T08:59:21Z</time>
      </trkpt>
      <trkpt lat="45.87957" lon="4.82247">
        <ele>169</ele>
        <time>2018-09-13T08:59:22Z</time>
      </trkpt>
      <trkpt lat="45.87954" lon="4.82252">
        <ele>168</ele>
        <time>2018-09-13T08:59:23Z</time>
      </trkpt>
      <trkpt lat="45.87954" lon="4.8226">
        <ele>168</ele>
        <time>2018-09-13T08:59:24Z</time>
      </trkpt>
      <trkpt lat="45.87953" lon="4.82268">
        <ele>168</ele>
        <time>2018-09-13T08:59:25Z</time>
      </trkpt>
      <trkpt lat="45.87952" lon="4.82275">
        <ele>168</ele>
        <time>2018-09-13T08:59:26Z</time>
      </trkpt>
      <trkpt lat="45.87952" lon="4.82283">
        <ele>168</ele>
        <time>2018-09-13T08:59:27Z</time>
      </trkpt>
      <trkpt lat="45.87951" lon="4.82291">
        <ele>168</ele>
        <time>2018-09-13T08:59:28Z</time>
      </trkpt>
      <trkpt lat="45.87949" lon="4.823">
        <ele>168</ele>
        <time>2018-09-13T08:59:29Z</time>
      </trkpt>
      <trkpt lat="45.87948" lon="4.82308">
        <ele>168</ele>
        <time>2018-09-13T08:59:30Z</time>
      </trkpt>
      <trkpt lat="45.87947" lon="4.82317">
        <ele>168</ele>
        <time>2018-09-13T08:59:31Z</time>
      </trkpt>
      <trkpt lat="45.87947" lon="4.82325">
        <ele>168</ele>
        <time>2018-09-13T08:59:32Z</time>
      </trkpt>
      <trkpt lat="45.87945" lon="4.82331">
        <ele>168</ele>
        <time>2018-09-13T08:59:33Z</time>
      </trkpt>
      <trkpt lat="45.87942" lon="4.82338">
        <ele>168</ele>
        <time>2018-09-13T08:59:34Z</time>
      </trkpt>
      <trkpt lat="45.87941" lon="4.82348">
        <ele>168</ele>
        <time>2018-09-13T08:59:35Z</time>
      </trkpt>
      <trkpt lat="45.8794" lon="4.82356">
        <ele>167</ele>
        <time>2018-09-13T08:59:36Z</time>
      </trkpt>
      <trkpt lat="45.87941" lon="4.82366">
        <ele>167</ele>
        <time>2018-09-13T08:59:37Z</time>
      </trkpt>
      <trkpt lat="45.8794" lon="4.82375">
        <ele>167</ele>
        <time>2018-09-13T08:59:38Z</time>
      </trkpt>
      <trkpt lat="45.87939" lon="4.82384">
        <ele>167</ele>
        <time>2018-09-13T08:59:39Z</time>
      </trkpt>
      <trkpt lat="45.87937" lon="4.82392">
        <ele>167</ele>
        <time>2018-09-13T08:59:40Z</time>
      </trkpt>
      <trkpt lat="45.87937" lon="4.824">
        <ele>167</ele>
        <time>2018-09-13T08:59:41Z</time>
      </trkpt>
      <trkpt lat="45.87936" lon="4.82409">
        <ele>167</ele>
        <time>2018-09-13T08:59:42Z</time>
      </trkpt>
      <trkpt lat="45.87935" lon="4.82415">
        <ele>167</ele>
        <time>2018-09-13T08:59:43Z</time>
      </trkpt>
      <trkpt lat="45.87934" lon="4.82423">
        <ele>167</ele>
        <time>2018-09-13T08:59:44Z</time>
      </trkpt>
      <trkpt lat="45.87933" lon="4.82429">
        <ele>167</ele>
        <time>2018-09-13T08:59:45Z</time>
      </trkpt>
      <trkpt lat="45.87932" lon="4.82436">
        <ele>167</ele>
        <time>2018-09-13T08:59:46Z</time>
      </trkpt>
      <trkpt lat="45.87927" lon="4.82444">
        <ele>167</ele>
        <time>2018-09-13T08:59:47Z</time>
      </trkpt>
      <trkpt lat="45.87926" lon="4.82451">
        <ele>167</ele>
        <time>2018-09-13T08:59:48Z</time>
      </trkpt>
      <trkpt lat="45.87925" lon="4.8246">
        <ele>167</ele>
        <time>2018-09-13T08:59:49Z</time>
      </trkpt>
      <trkpt lat="45.87924" lon="4.82468">
        <ele>167</ele>
        <time>2018-09-13T08:59:50Z</time>
      </trkpt>
      <trkpt lat="45.87922" lon="4.82474">
        <ele>167</ele>
        <time>2018-09-13T08:59:51Z</time>
      </trkpt>
      <trkpt lat="45.87921" lon="4.82482">
        <ele>167</ele>
        <time>2018-09-13T08:59:52Z</time>
      </trkpt>
      <trkpt lat="45.8792" lon="4.8249">
        <ele>167</ele>
        <time>2018-09-13T08:59:53Z</time>
      </trkpt>
      <trkpt lat="45.87918" lon="4.82499">
        <ele>168</ele>
        <time>2018-09-13T08:59:54Z</time>
      </trkpt>
      <trkpt lat="45.87917" lon="4.82506">
        <ele>168</ele>
        <time>2018-09-13T08:59:55Z</time>
      </trkpt>
      <trkpt lat="45.87917" lon="4.82512">
        <ele>167</ele>
        <time>2018-09-13T08:59:56Z</time>
      </trkpt>
      <trkpt lat="45.87916" lon="4.82519">
        <ele>168</ele>
        <time>2018-09-13T08:59:57Z</time>
      </trkpt>
      <trkpt lat="45.87915" lon="4.82528">
        <ele>168</ele>
        <time>2018-09-13T08:59:58Z</time>
      </trkpt>
      <trkpt lat="45.87912" lon="4.82535">
        <ele>168</ele>
        <time>2018-09-13T08:59:59Z</time>
      </trkpt>
      <trkpt lat="45.87911" lon="4.82544">
        <ele>168</ele>
        <time>2018-09-13T09:00:00Z</time>
      </trkpt>
      <trkpt lat="45.87909" lon="4.82551">
        <ele>168</ele>
        <time>2018-09-13T09:00:01Z</time>
      </trkpt>
      <trkpt lat="45.87907" lon="4.82558">
        <ele>167</ele>
        <time>2018-09-13T09:00:02Z</time>
      </trkpt>
      <trkpt lat="45.87906" lon="4.82564">
        <ele>167</ele>
        <time>2018-09-13T09:00:03Z</time>
      </trkpt>
      <trkpt lat="45.87906" lon="4.8257">
        <ele>167</ele>
        <time>2018-09-13T09:00:04Z</time>
      </trkpt>
      <trkpt lat="45.87905" lon="4.82577">
        <ele>167</ele>
        <time>2018-09-13T09:00:05Z</time>
      </trkpt>
      <trkpt lat="45.87903" lon="4.82584">
        <ele>166</ele>
        <time>2018-09-13T09:00:06Z</time>
      </trkpt>
      <trkpt lat="45.87901" lon="4.82591">
        <ele>167</ele>
        <time>2018-09-13T09:00:07Z</time>
      </trkpt>
      <trkpt lat="45.87899" lon="4.82599">
        <ele>167</ele>
        <time>2018-09-13T09:00:08Z</time>
      </trkpt>
      <trkpt lat="45.87897" lon="4.82607">
        <ele>167</ele>
        <time>2018-09-13T09:00:09Z</time>
      </trkpt>
      <trkpt lat="45.87895" lon="4.82616">
        <ele>167</ele>
        <time>2018-09-13T09:00:10Z</time>
      </trkpt>
      <trkpt lat="45.87893" lon="4.82624">
        <ele>167</ele>
        <time>2018-09-13T09:00:11Z</time>
      </trkpt>
      <trkpt lat="45.87891" lon="4.82632">
        <ele>167</ele>
        <time>2018-09-13T09:00:12Z</time>
      </trkpt>
      <trkpt lat="45.87889" lon="4.82641">
        <ele>167</ele>
        <time>2018-09-13T09:00:13Z</time>
      </trkpt>
      <trkpt lat="45.87888" lon="4.82649">
        <ele>167</ele>
        <time>2018-09-13T09:00:14Z</time>
      </trkpt>
      <trkpt lat="45.87885" lon="4.82657">
        <ele>168</ele>
        <time>2018-09-13T09:00:15Z</time>
      </trkpt>
      <trkpt lat="45.87884" lon="4.82666">
        <ele>168</ele>
        <time>2018-09-13T09:00:16Z</time>
      </trkpt>
      <trkpt lat="45.87882" lon="4.82673">
        <ele>168</ele>
        <time>2018-09-13T09:00:17Z</time>
      </trkpt>
      <trkpt lat="45.8788" lon="4.8268">
        <ele>169</ele>
        <time>2018-09-13T09:00:18Z</time>
      </trkpt>
      <trkpt lat="45.87879" lon="4.82688">
        <ele>169</ele>
        <time>2018-09-13T09:00:19Z</time>
      </trkpt>
      <trkpt lat="45.87878" lon="4.82697">
        <ele>169</ele>
        <time>2018-09-13T09:00:20Z</time>
      </trkpt>
      <trkpt lat="45.87877" lon="4.82706">
        <ele>169</ele>
        <time>2018-09-13T09:00:21Z</time>
      </trkpt>
      <trkpt lat="45.87876" lon="4.82715">
        <ele>169</ele>
        <time>2018-09-13T09:00:22Z</time>
      </trkpt>
      <trkpt lat="45.87876" lon="4.82723">
        <ele>169</ele>
        <time>2018-09-13T09:00:23Z</time>
      </trkpt>
      <trkpt lat="45.87875" lon="4.82731">
        <ele>169</ele>
        <time>2018-09-13T09:00:24Z</time>
      </trkpt>
      <trkpt lat="45.87876" lon="4.8274">
        <ele>169</ele>
        <time>2018-09-13T09:00:25Z</time>
      </trkpt>
      <trkpt lat="45.87876" lon="4.82748">
        <ele>169</ele>
        <time>2018-09-13T09:00:26Z</time>
      </trkpt>
      <trkpt lat="45.87876" lon="4.82756">
        <ele>169</ele>
        <time>2018-09-13T09:00:27Z</time>
      </trkpt>
      <trkpt lat="45.87876" lon="4.82763">
        <ele>169</ele>
        <time>2018-09-13T09:00:28Z</time>
      </trkpt>
      <trkpt lat="45.87876" lon="4.82775">
        <ele>169</ele>
        <time>2018-09-13T09:00:30Z</time>
      </trkpt>
      <trkpt lat="45.87875" lon="4.82778">
        <ele>169</ele>
        <time>2018-09-13T09:00:31Z</time>
      </trkpt>
      <trkpt lat="45.87874" lon="4.82785">
        <ele>170</ele>
        <time>2018-09-13T09:00:32Z</time>
      </trkpt>
      <trkpt lat="45.87876" lon="4.82793">
        <ele>169</ele>
        <time>2018-09-13T09:00:33Z</time>
      </trkpt>
      <trkpt lat="45.87877" lon="4.82801">
        <ele>169</ele>
        <time>2018-09-13T09:00:34Z</time>
      </trkpt>
      <trkpt lat="45.87879" lon="4.8281">
        <ele>169</ele>
        <time>2018-09-13T09:00:35Z</time>
      </trkpt>
      <trkpt lat="45.8788" lon="4.82816">
        <ele>169</ele>
        <time>2018-09-13T09:00:36Z</time>
      </trkpt>
      <trkpt lat="45.87881" lon="4.82825">
        <ele>169</ele>
        <time>2018-09-13T09:00:37Z</time>
      </trkpt>
      <trkpt lat="45.87881" lon="4.82833">
        <ele>169</ele>
        <time>2018-09-13T09:00:38Z</time>
      </trkpt>
      <trkpt lat="45.87882" lon="4.82841">
        <ele>169</ele>
        <time>2018-09-13T09:00:39Z</time>
      </trkpt>
      <trkpt lat="45.87885" lon="4.82851">
        <ele>169</ele>
        <time>2018-09-13T09:00:40Z</time>
      </trkpt>
      <trkpt lat="45.87884" lon="4.82858">
        <ele>169</ele>
        <time>2018-09-13T09:00:41Z</time>
      </trkpt>
      <trkpt lat="45.87885" lon="4.82865">
        <ele>169</ele>
        <time>2018-09-13T09:00:42Z</time>
      </trkpt>
      <trkpt lat="45.87884" lon="4.82873">
        <ele>169</ele>
        <time>2018-09-13T09:00:43Z</time>
      </trkpt>
      <trkpt lat="45.87884" lon="4.82881">
        <ele>169</ele>
        <time>2018-09-13T09:00:44Z</time>
      </trkpt>
      <trkpt lat="45.87883" lon="4.82889">
        <ele>169</ele>
        <time>2018-09-13T09:00:45Z</time>
      </trkpt>
      <trkpt lat="45.87885" lon="4.82898">
        <ele>169</ele>
        <time>2018-09-13T09:00:46Z</time>
      </trkpt>
      <trkpt lat="45.87885" lon="4.82906">
        <ele>168</ele>
        <time>2018-09-13T09:00:47Z</time>
      </trkpt>
      <trkpt lat="45.87885" lon="4.82915">
        <ele>168</ele>
        <time>2018-09-13T09:00:48Z</time>
      </trkpt>
      <trkpt lat="45.87884" lon="4.82922">
        <ele>168</ele>
        <time>2018-09-13T09:00:49Z</time>
      </trkpt>
      <trkpt lat="45.87885" lon="4.82931">
        <ele>168</ele>
        <time>2018-09-13T09:00:50Z</time>
      </trkpt>
      <trkpt lat="45.87884" lon="4.8294">
        <ele>168</ele>
        <time>2018-09-13T09:00:51Z</time>
      </trkpt>
      <trkpt lat="45.87884" lon="4.82948">
        <ele>168</ele>
        <time>2018-09-13T09:00:52Z</time>
      </trkpt>
      <trkpt lat="45.87884" lon="4.82958">
        <ele>168</ele>
        <time>2018-09-13T09:00:53Z</time>
      </trkpt>
      <trkpt lat="45.87882" lon="4.82967">
        <ele>168</ele>
        <time>2018-09-13T09:00:54Z</time>
      </trkpt>
      <trkpt lat="45.87881" lon="4.82975">
        <ele>168</ele>
        <time>2018-09-13T09:00:55Z</time>
      </trkpt>
      <trkpt lat="45.8788" lon="4.82984">
        <ele>168</ele>
        <time>2018-09-13T09:00:56Z</time>
      </trkpt>
      <trkpt lat="45.87879" lon="4.82992">
        <ele>168</ele>
        <time>2018-09-13T09:00:57Z</time>
      </trkpt>
      <trkpt lat="45.87878" lon="4.83002">
        <ele>169</ele>
        <time>2018-09-13T09:00:58Z</time>
      </trkpt>
      <trkpt lat="45.87878" lon="4.83009">
        <ele>169</ele>
        <time>2018-09-13T09:00:59Z</time>
      </trkpt>
      <trkpt lat="45.87877" lon="4.83017">
        <ele>169</ele>
        <time>2018-09-13T09:01:00Z</time>
      </trkpt>
      <trkpt lat="45.87876" lon="4.83026">
        <ele>169</ele>
        <time>2018-09-13T09:01:01Z</time>
      </trkpt>
      <trkpt lat="45.87875" lon="4.83033">
        <ele>169</ele>
        <time>2018-09-13T09:01:02Z</time>
      </trkpt>
      <trkpt lat="45.87875" lon="4.83042">
        <ele>169</ele>
        <time>2018-09-13T09:01:03Z</time>
      </trkpt>
      <trkpt lat="45.87874" lon="4.8305">
        <ele>169</ele>
        <time>2018-09-13T09:01:04Z</time>
      </trkpt>
      <trkpt lat="45.87873" lon="4.83059">
        <ele>169</ele>
        <time>2018-09-13T09:01:05Z</time>
      </trkpt>
      <trkpt lat="45.87871" lon="4.83068">
        <ele>169</ele>
        <time>2018-09-13T09:01:06Z</time>
      </trkpt>
      <trkpt lat="45.87871" lon="4.83078">
        <ele>170</ele>
        <time>2018-09-13T09:01:07Z</time>
      </trkpt>
      <trkpt lat="45.8787" lon="4.83088">
        <ele>170</ele>
        <time>2018-09-13T09:01:08Z</time>
      </trkpt>
      <trkpt lat="45.8787" lon="4.83098">
        <ele>170</ele>
        <time>2018-09-13T09:01:09Z</time>
      </trkpt>
      <trkpt lat="45.8787" lon="4.83108">
        <ele>170</ele>
        <time>2018-09-13T09:01:10Z</time>
      </trkpt>
      <trkpt lat="45.87869" lon="4.83117">
        <ele>170</ele>
        <time>2018-09-13T09:01:11Z</time>
      </trkpt>
      <trkpt lat="45.87866" lon="4.83127">
        <ele>170</ele>
        <time>2018-09-13T09:01:12Z</time>
      </trkpt>
      <trkpt lat="45.87865" lon="4.83135">
        <ele>170</ele>
        <time>2018-09-13T09:01:13Z</time>
      </trkpt>
      <trkpt lat="45.87864" lon="4.83143">
        <ele>170</ele>
        <time>2018-09-13T09:01:14Z</time>
      </trkpt>
      <trkpt lat="45.87862" lon="4.83149">
        <ele>170</ele>
        <time>2018-09-13T09:01:15Z</time>
      </trkpt>
      <trkpt lat="45.87862" lon="4.83157">
        <ele>171</ele>
        <time>2018-09-13T09:01:16Z</time>
      </trkpt>
      <trkpt lat="45.87861" lon="4.83165">
        <ele>171</ele>
        <time>2018-09-13T09:01:17Z</time>
      </trkpt>
      <trkpt lat="45.8786" lon="4.83171">
        <ele>170</ele>
        <time>2018-09-13T09:01:18Z</time>
      </trkpt>
      <trkpt lat="45.87858" lon="4.83177">
        <ele>170</ele>
        <time>2018-09-13T09:01:19Z</time>
      </trkpt>
      <trkpt lat="45.87856" lon="4.83184">
        <ele>170</ele>
        <time>2018-09-13T09:01:20Z</time>
      </trkpt>
      <trkpt lat="45.87855" lon="4.83191">
        <ele>170</ele>
        <time>2018-09-13T09:01:21Z</time>
      </trkpt>
      <trkpt lat="45.87854" lon="4.83196">
        <ele>170</ele>
        <time>2018-09-13T09:01:22Z</time>
      </trkpt>
      <trkpt lat="45.87853" lon="4.83204">
        <ele>170</ele>
        <time>2018-09-13T09:01:23Z</time>
      </trkpt>
      <trkpt lat="45.87851" lon="4.8321">
        <ele>170</ele>
        <time>2018-09-13T09:01:24Z</time>
      </trkpt>
      <trkpt lat="45.87848" lon="4.83215">
        <ele>170</ele>
        <time>2018-09-13T09:01:25Z</time>
      </trkpt>
      <trkpt lat="45.87847" lon="4.83226">
        <ele>170</ele>
        <time>2018-09-13T09:01:26Z</time>
      </trkpt>
      <trkpt lat="45.87847" lon="4.83235">
        <ele>170</ele>
        <time>2018-09-13T09:01:27Z</time>
      </trkpt>
      <trkpt lat="45.87845" lon="4.83245">
        <ele>170</ele>
        <time>2018-09-13T09:01:28Z</time>
      </trkpt>
      <trkpt lat="45.87842" lon="4.83254">
        <ele>169</ele>
        <time>2018-09-13T09:01:29Z</time>
      </trkpt>
      <trkpt lat="45.8784" lon="4.83262">
        <ele>169</ele>
        <time>2018-09-13T09:01:30Z</time>
      </trkpt>
      <trkpt lat="45.87838" lon="4.83271">
        <ele>168</ele>
        <time>2018-09-13T09:01:31Z</time>
      </trkpt>
      <trkpt lat="45.87836" lon="4.83276">
        <ele>168</ele>
        <time>2018-09-13T09:01:32Z</time>
      </trkpt>
      <trkpt lat="45.87834" lon="4.83284">
        <ele>167</ele>
        <time>2018-09-13T09:01:33Z</time>
      </trkpt>
      <trkpt lat="45.87832" lon="4.8329">
        <ele>169</ele>
        <time>2018-09-13T09:01:34Z</time>
      </trkpt>
      <trkpt lat="45.87831" lon="4.83297">
        <ele>169</ele>
        <time>2018-09-13T09:01:35Z</time>
      </trkpt>
      <trkpt lat="45.87828" lon="4.83303">
        <ele>169</ele>
        <time>2018-09-13T09:01:36Z</time>
      </trkpt>
      <trkpt lat="45.87826" lon="4.83309">
        <ele>168</ele>
        <time>2018-09-13T09:01:37Z</time>
      </trkpt>
      <trkpt lat="45.87823" lon="4.83316">
        <ele>168</ele>
        <time>2018-09-13T09:01:38Z</time>
      </trkpt>
      <trkpt lat="45.8782" lon="4.83322">
        <ele>168</ele>
        <time>2018-09-13T09:01:39Z</time>
      </trkpt>
      <trkpt lat="45.87817" lon="4.83329">
        <ele>167</ele>
        <time>2018-09-13T09:01:40Z</time>
      </trkpt>
      <trkpt lat="45.87815" lon="4.83337">
        <ele>167</ele>
        <time>2018-09-13T09:01:41Z</time>
      </trkpt>
      <trkpt lat="45.87812" lon="4.83344">
        <ele>167</ele>
        <time>2018-09-13T09:01:42Z</time>
      </trkpt>
      <trkpt lat="45.87808" lon="4.83352">
        <ele>167</ele>
        <time>2018-09-13T09:01:43Z</time>
      </trkpt>
      <trkpt lat="45.87806" lon="4.83358">
        <ele>168</ele>
        <time>2018-09-13T09:01:44Z</time>
      </trkpt>
      <trkpt lat="45.87803" lon="4.83365">
        <ele>168</ele>
        <time>2018-09-13T09:01:45Z</time>
      </trkpt>
      <trkpt lat="45.87801" lon="4.83372">
        <ele>168</ele>
        <time>2018-09-13T09:01:46Z</time>
      </trkpt>
      <trkpt lat="45.87799" lon="4.83379">
        <ele>168</ele>
        <time>2018-09-13T09:01:47Z</time>
      </trkpt>
      <trkpt lat="45.87796" lon="4.83386">
        <ele>168</ele>
        <time>2018-09-13T09:01:48Z</time>
      </trkpt>
      <trkpt lat="45.87793" lon="4.83395">
        <ele>168</ele>
        <time>2018-09-13T09:01:49Z</time>
      </trkpt>
      <trkpt lat="45.87787" lon="4.83405">
        <ele>169</ele>
        <time>2018-09-13T09:01:51Z</time>
      </trkpt>
      <trkpt lat="45.87784" lon="4.83411">
        <ele>169</ele>
        <time>2018-09-13T09:01:52Z</time>
      </trkpt>
      <trkpt lat="45.8778" lon="4.83416">
        <ele>169</ele>
        <time>2018-09-13T09:01:53Z</time>
      </trkpt>
      <trkpt lat="45.87777" lon="4.83423">
        <ele>170</ele>
        <time>2018-09-13T09:01:54Z</time>
      </trkpt>
      <trkpt lat="45.87774" lon="4.83429">
        <ele>170</ele>
        <time>2018-09-13T09:01:55Z</time>
      </trkpt>
      <trkpt lat="45.8777" lon="4.83436">
        <ele>170</ele>
        <time>2018-09-13T09:01:56Z</time>
      </trkpt>
      <trkpt lat="45.87767" lon="4.83441">
        <ele>170</ele>
        <time>2018-09-13T09:01:57Z</time>
      </trkpt>
      <trkpt lat="45.87763" lon="4.83448">
        <ele>170</ele>
        <time>2018-09-13T09:01:58Z</time>
      </trkpt>
      <trkpt lat="45.87758" lon="4.83453">
        <ele>170</ele>
        <time>2018-09-13T09:01:59Z</time>
      </trkpt>
      <trkpt lat="45.87753" lon="4.83458">
        <ele>170</ele>
        <time>2018-09-13T09:02:00Z</time>
      </trkpt>
      <trkpt lat="45.87749" lon="4.83462">
        <ele>172</ele>
        <time>2018-09-13T09:02:01Z</time>
      </trkpt>
      <trkpt lat="45.87746" lon="4.83467">
        <ele>172</ele>
        <time>2018-09-13T09:02:02Z</time>
      </trkpt>
      <trkpt lat="45.87742" lon="4.83473">
        <ele>172</ele>
        <time>2018-09-13T09:02:03Z</time>
      </trkpt>
      <trkpt lat="45.87738" lon="4.83478">
        <ele>172</ele>
        <time>2018-09-13T09:02:04Z</time>
      </trkpt>
      <trkpt lat="45.87734" lon="4.83485">
        <ele>172</ele>
        <time>2018-09-13T09:02:05Z</time>
      </trkpt>
      <trkpt lat="45.8773" lon="4.83489">
        <ele>172</ele>
        <time>2018-09-13T09:02:06Z</time>
      </trkpt>
      <trkpt lat="45.87727" lon="4.83495">
        <ele>172</ele>
        <time>2018-09-13T09:02:07Z</time>
      </trkpt>
      <trkpt lat="45.87724" lon="4.83504">
        <ele>170</ele>
        <time>2018-09-13T09:02:08Z</time>
      </trkpt>
      <trkpt lat="45.8772" lon="4.83507">
        <ele>170</ele>
        <time>2018-09-13T09:02:09Z</time>
      </trkpt>
      <trkpt lat="45.87717" lon="4.83511">
        <ele>170</ele>
        <time>2018-09-13T09:02:10Z</time>
      </trkpt>
      <trkpt lat="45.87713" lon="4.83515">
        <ele>170</ele>
        <time>2018-09-13T09:02:11Z</time>
      </trkpt>
      <trkpt lat="45.87708" lon="4.83517">
        <ele>169</ele>
        <time>2018-09-13T09:02:12Z</time>
      </trkpt>
      <trkpt lat="45.87703" lon="4.83528">
        <ele>169</ele>
        <time>2018-09-13T09:02:14Z</time>
      </trkpt>
      <trkpt lat="45.87699" lon="4.83529">
        <ele>169</ele>
        <time>2018-09-13T09:02:15Z</time>
      </trkpt>
      <trkpt lat="45.87693" lon="4.83531">
        <ele>169</ele>
        <time>2018-09-13T09:02:17Z</time>
      </trkpt>
      <trkpt lat="45.87689" lon="4.83531">
        <ele>169</ele>
        <time>2018-09-13T09:02:18Z</time>
      </trkpt>
      <trkpt lat="45.87686" lon="4.8353">
        <ele>169</ele>
        <time>2018-09-13T09:02:20Z</time>
      </trkpt>
      <trkpt lat="45.87679" lon="4.83531">
        <ele>169</ele>
        <time>2018-09-13T09:02:21Z</time>
      </trkpt>
      <trkpt lat="45.87672" lon="4.83538">
        <ele>169</ele>
        <time>2018-09-13T09:02:23Z</time>
      </trkpt>
      <trkpt lat="45.87671" lon="4.83544">
        <ele>168</ele>
        <time>2018-09-13T09:02:24Z</time>
      </trkpt>
      <trkpt lat="45.87672" lon="4.83555">
        <ele>168</ele>
        <time>2018-09-13T09:02:26Z</time>
      </trkpt>
      <trkpt lat="45.87674" lon="4.8356">
        <ele>167</ele>
        <time>2018-09-13T09:02:27Z</time>
      </trkpt>
      <trkpt lat="45.87676" lon="4.83568">
        <ele>167</ele>
        <time>2018-09-13T09:02:28Z</time>
      </trkpt>
      <trkpt lat="45.87676" lon="4.83574">
        <ele>166</ele>
        <time>2018-09-13T09:02:29Z</time>
      </trkpt>
      <trkpt lat="45.87676" lon="4.83582">
        <ele>166</ele>
        <time>2018-09-13T09:02:30Z</time>
      </trkpt>
      <trkpt lat="45.87677" lon="4.83588">
        <ele>165</ele>
        <time>2018-09-13T09:02:31Z</time>
      </trkpt>
      <trkpt lat="45.87677" lon="4.83594">
        <ele>165</ele>
        <time>2018-09-13T09:02:32Z</time>
      </trkpt>
      <trkpt lat="45.87678" lon="4.83601">
        <ele>165</ele>
        <time>2018-09-13T09:02:33Z</time>
      </trkpt>
      <trkpt lat="45.87679" lon="4.83608">
        <ele>165</ele>
        <time>2018-09-13T09:02:34Z</time>
      </trkpt>
      <trkpt lat="45.87679" lon="4.83614">
        <ele>165</ele>
        <time>2018-09-13T09:02:35Z</time>
      </trkpt>
      <trkpt lat="45.8768" lon="4.83627">
        <ele>165</ele>
        <time>2018-09-13T09:02:37Z</time>
      </trkpt>
      <trkpt lat="45.87679" lon="4.83632">
        <ele>165</ele>
        <time>2018-09-13T09:02:38Z</time>
      </trkpt>
      <trkpt lat="45.87679" lon="4.83639">
        <ele>165</ele>
        <time>2018-09-13T09:02:39Z</time>
      </trkpt>
      <trkpt lat="45.8768" lon="4.83646">
        <ele>165</ele>
        <time>2018-09-13T09:02:40Z</time>
      </trkpt>
      <trkpt lat="45.8768" lon="4.83653">
        <ele>165</ele>
        <time>2018-09-13T09:02:41Z</time>
      </trkpt>
      <trkpt lat="45.87681" lon="4.8366">
        <ele>165</ele>
        <time>2018-09-13T09:02:42Z</time>
      </trkpt>
      <trkpt lat="45.87682" lon="4.83667">
        <ele>165</ele>
        <time>2018-09-13T09:02:43Z</time>
      </trkpt>
      <trkpt lat="45.87682" lon="4.83673">
        <ele>165</ele>
        <time>2018-09-13T09:02:44Z</time>
      </trkpt>
      <trkpt lat="45.87682" lon="4.83684">
        <ele>165</ele>
        <time>2018-09-13T09:02:46Z</time>
      </trkpt>
      <trkpt lat="45.87682" lon="4.83687">
        <ele>165</ele>
        <time>2018-09-13T09:02:47Z</time>
      </trkpt>
      <trkpt lat="45.87683" lon="4.83696">
        <ele>165</ele>
        <time>2018-09-13T09:02:48Z</time>
      </trkpt>
      <trkpt lat="45.87685" lon="4.83702">
        <ele>165</ele>
        <time>2018-09-13T09:02:49Z</time>
      </trkpt>
      <trkpt lat="45.87686" lon="4.83714">
        <ele>165</ele>
        <time>2018-09-13T09:02:51Z</time>
      </trkpt>
      <trkpt lat="45.87687" lon="4.83716">
        <ele>165</ele>
        <time>2018-09-13T09:02:52Z</time>
      </trkpt>
      <trkpt lat="45.87689" lon="4.83727">
        <ele>165</ele>
        <time>2018-09-13T09:02:54Z</time>
      </trkpt>
      <trkpt lat="45.87691" lon="4.83734">
        <ele>165</ele>
        <time>2018-09-13T09:02:55Z</time>
      </trkpt>
      <trkpt lat="45.87691" lon="4.83741">
        <ele>165</ele>
        <time>2018-09-13T09:02:56Z</time>
      </trkpt>
      <trkpt lat="45.87692" lon="4.83748">
        <ele>165</ele>
        <time>2018-09-13T09:02:57Z</time>
      </trkpt>
      <trkpt lat="45.87693" lon="4.83756">
        <ele>167</ele>
        <time>2018-09-13T09:02:58Z</time>
      </trkpt>
      <trkpt lat="45.87692" lon="4.83762">
        <ele>167</ele>
        <time>2018-09-13T09:02:59Z</time>
      </trkpt>
      <trkpt lat="45.87694" lon="4.83774">
        <ele>168</ele>
        <time>2018-09-13T09:03:01Z</time>
      </trkpt>
      <trkpt lat="45.87693" lon="4.83777">
        <ele>168</ele>
        <time>2018-09-13T09:03:02Z</time>
      </trkpt>
      <trkpt lat="45.87694" lon="4.83789">
        <ele>168</ele>
        <time>2018-09-13T09:03:08Z</time>
      </trkpt>
      <trkpt lat="45.87695" lon="4.83791">
        <ele>168</ele>
        <time>2018-09-13T09:03:09Z</time>
      </trkpt>
      <trkpt lat="45.87695" lon="4.838">
        <ele>169</ele>
        <time>2018-09-13T09:03:12Z</time>
      </trkpt>
      <trkpt lat="45.87696" lon="4.83803">
        <ele>169</ele>
        <time>2018-09-13T09:03:13Z</time>
      </trkpt>
      <trkpt lat="45.87696" lon="4.83816">
        <ele>169</ele>
        <time>2018-09-13T09:03:17Z</time>
      </trkpt>
      <trkpt lat="45.87696" lon="4.83819">
        <ele>169</ele>
        <time>2018-09-13T09:03:18Z</time>
      </trkpt>
      <trkpt lat="45.87695" lon="4.8383">
        <ele>170</ele>
        <time>2018-09-13T09:03:19Z</time>
      </trkpt>
      <trkpt lat="45.87695" lon="4.83837">
        <ele>172</ele>
        <time>2018-09-13T09:03:20Z</time>
      </trkpt>
      <trkpt lat="45.87696" lon="4.83847">
        <ele>172</ele>
        <time>2018-09-13T09:03:21Z</time>
      </trkpt>
      <trkpt lat="45.87699" lon="4.83853">
        <ele>172</ele>
        <time>2018-09-13T09:03:22Z</time>
      </trkpt>
      <trkpt lat="45.87703" lon="4.8386">
        <ele>172</ele>
        <time>2018-09-13T09:03:23Z</time>
      </trkpt>
      <trkpt lat="45.87707" lon="4.83867">
        <ele>172</ele>
        <time>2018-09-13T09:03:24Z</time>
      </trkpt>
      <trkpt lat="45.87709" lon="4.83873">
        <ele>172</ele>
        <time>2018-09-13T09:03:25Z</time>
      </trkpt>
      <trkpt lat="45.8771" lon="4.8388">
        <ele>172</ele>
        <time>2018-09-13T09:03:26Z</time>
      </trkpt>
      <trkpt lat="45.87712" lon="4.83892">
        <ele>172</ele>
        <time>2018-09-13T09:03:28Z</time>
      </trkpt>
      <trkpt lat="45.87712" lon="4.83899">
        <ele>172</ele>
        <time>2018-09-13T09:03:29Z</time>
      </trkpt>
      <trkpt lat="45.87713" lon="4.83912">
        <ele>172</ele>
        <time>2018-09-13T09:03:31Z</time>
      </trkpt>
      <trkpt lat="45.87715" lon="4.83917">
        <ele>174</ele>
        <time>2018-09-13T09:03:32Z</time>
      </trkpt>
      <trkpt lat="45.87716" lon="4.83929">
        <ele>174</ele>
        <time>2018-09-13T09:03:36Z</time>
      </trkpt>
      <trkpt lat="45.8772" lon="4.83941">
        <ele>174</ele>
        <time>2018-09-13T09:03:37Z</time>
      </trkpt>
      <trkpt lat="45.8772" lon="4.83953">
        <ele>174</ele>
        <time>2018-09-13T09:03:39Z</time>
      </trkpt>
      <trkpt lat="45.87721" lon="4.8396">
        <ele>174</ele>
        <time>2018-09-13T09:03:40Z</time>
      </trkpt>
      <trkpt lat="45.87725" lon="4.83971">
        <ele>175</ele>
        <time>2018-09-13T09:03:42Z</time>
      </trkpt>
      <trkpt lat="45.87727" lon="4.8398">
        <ele>175</ele>
        <time>2018-09-13T09:03:43Z</time>
      </trkpt>
      <trkpt lat="45.87729" lon="4.83987">
        <ele>175</ele>
        <time>2018-09-13T09:03:44Z</time>
      </trkpt>
      <trkpt lat="45.87728" lon="4.83998">
        <ele>175</ele>
        <time>2018-09-13T09:03:45Z</time>
      </trkpt>
      <trkpt lat="45.87726" lon="4.84009">
        <ele>176</ele>
        <time>2018-09-13T09:03:47Z</time>
      </trkpt>
      <trkpt lat="45.87725" lon="4.84012">
        <ele>177</ele>
        <time>2018-09-13T09:03:48Z</time>
      </trkpt>
      <trkpt lat="45.87721" lon="4.84022">
        <ele>177</ele>
        <time>2018-09-13T09:03:51Z</time>
      </trkpt>
      <trkpt lat="45.87713" lon="4.84035">
        <ele>177</ele>
        <time>2018-09-13T09:03:52Z</time>
      </trkpt>
      <trkpt lat="45.87712" lon="4.84041">
        <ele>177</ele>
        <time>2018-09-13T09:03:53Z</time>
      </trkpt>
      <trkpt lat="45.87709" lon="4.84046">
        <ele>177</ele>
        <time>2018-09-13T09:03:54Z</time>
      </trkpt>
      <trkpt lat="45.87705" lon="4.84056">
        <ele>177</ele>
        <time>2018-09-13T09:03:56Z</time>
      </trkpt>
      <trkpt lat="45.87704" lon="4.84061">
        <ele>178</ele>
        <time>2018-09-13T09:03:57Z</time>
      </trkpt>
      <trkpt lat="45.87698" lon="4.8407">
        <ele>178</ele>
        <time>2018-09-13T09:03:59Z</time>
      </trkpt>
      <trkpt lat="45.87695" lon="4.84076">
        <ele>178</ele>
        <time>2018-09-13T09:04:00Z</time>
      </trkpt>
      <trkpt lat="45.87693" lon="4.84088">
        <ele>179</ele>
        <time>2018-09-13T09:04:02Z</time>
      </trkpt>
      <trkpt lat="45.87692" lon="4.84093">
        <ele>179</ele>
        <time>2018-09-13T09:04:03Z</time>
      </trkpt>
      <trkpt lat="45.87689" lon="4.84104">
        <ele>179</ele>
        <time>2018-09-13T09:04:05Z</time>
      </trkpt>
      <trkpt lat="45.87688" lon="4.84109">
        <ele>179</ele>
        <time>2018-09-13T09:04:06Z</time>
      </trkpt>
      <trkpt lat="45.87682" lon="4.84119">
        <ele>179</ele>
        <time>2018-09-13T09:04:08Z</time>
      </trkpt>
      <trkpt lat="45.87678" lon="4.84124">
        <ele>179</ele>
        <time>2018-09-13T09:04:09Z</time>
      </trkpt>
      <trkpt lat="45.87675" lon="4.84136">
        <ele>180</ele>
        <time>2018-09-13T09:04:11Z</time>
      </trkpt>
      <trkpt lat="45.87674" lon="4.84142">
        <ele>180</ele>
        <time>2018-09-13T09:04:12Z</time>
      </trkpt>
      <trkpt lat="45.87673" lon="4.84155">
        <ele>180</ele>
        <time>2018-09-13T09:04:14Z</time>
      </trkpt>
      <trkpt lat="45.87673" lon="4.8416">
        <ele>180</ele>
        <time>2018-09-13T09:04:15Z</time>
      </trkpt>
      <trkpt lat="45.87671" lon="4.8417">
        <ele>180</ele>
        <time>2018-09-13T09:04:17Z</time>
      </trkpt>
      <trkpt lat="45.87671" lon="4.84176">
        <ele>180</ele>
        <time>2018-09-13T09:04:18Z</time>
      </trkpt>
      <trkpt lat="45.87668" lon="4.84188">
        <ele>181</ele>
        <time>2018-09-13T09:04:20Z</time>
      </trkpt>
      <trkpt lat="45.87666" lon="4.84194">
        <ele>180</ele>
        <time>2018-09-13T09:04:21Z</time>
      </trkpt>
      <trkpt lat="45.87663" lon="4.84206">
        <ele>180</ele>
        <time>2018-09-13T09:04:23Z</time>
      </trkpt>
      <trkpt lat="45.87662" lon="4.84212">
        <ele>180</ele>
        <time>2018-09-13T09:04:24Z</time>
      </trkpt>
      <trkpt lat="45.8766" lon="4.84218">
        <ele>180</ele>
        <time>2018-09-13T09:04:25Z</time>
      </trkpt>
      <trkpt lat="45.87659" lon="4.84224">
        <ele>180</ele>
        <time>2018-09-13T09:04:26Z</time>
      </trkpt>
      <trkpt lat="45.87658" lon="4.8423">
        <ele>180</ele>
        <time>2018-09-13T09:04:27Z</time>
      </trkpt>
      <trkpt lat="45.87656" lon="4.84237">
        <ele>180</ele>
        <time>2018-09-13T09:04:28Z</time>
      </trkpt>
      <trkpt lat="45.87656" lon="4.84244">
        <ele>180</ele>
        <time>2018-09-13T09:04:29Z</time>
      </trkpt>
      <trkpt lat="45.87655" lon="4.8425">
        <ele>180</ele>
        <time>2018-09-13T09:04:30Z</time>
      </trkpt>
      <trkpt lat="45.87654" lon="4.84261">
        <ele>181</ele>
        <time>2018-09-13T09:04:32Z</time>
      </trkpt>
      <trkpt lat="45.87653" lon="4.84267">
        <ele>181</ele>
        <time>2018-09-13T09:04:33Z</time>
      </trkpt>
      <trkpt lat="45.87652" lon="4.84278">
        <ele>181</ele>
        <time>2018-09-13T09:04:35Z</time>
      </trkpt>
      <trkpt lat="45.87652" lon="4.8428">
        <ele>181</ele>
        <time>2018-09-13T09:04:36Z</time>
      </trkpt>
      <trkpt lat="45.87648" lon="4.8429">
        <ele>181</ele>
        <time>2018-09-13T09:04:40Z</time>
      </trkpt>
      <trkpt lat="45.87647" lon="4.84292">
        <ele>181</ele>
        <time>2018-09-13T09:04:41Z</time>
      </trkpt>
      <trkpt lat="45.87646" lon="4.84295">
        <ele>181</ele>
        <time>2018-09-13T09:04:42Z</time>
      </trkpt>
      <trkpt lat="45.87644" lon="4.84305">
        <ele>181</ele>
        <time>2018-09-13T09:04:43Z</time>
      </trkpt>
      <trkpt lat="45.87645" lon="4.8431">
        <ele>181</ele>
        <time>2018-09-13T09:04:45Z</time>
      </trkpt>
      <trkpt lat="45.8765" lon="4.84317">
        <ele>182</ele>
        <time>2018-09-13T09:04:46Z</time>
      </trkpt>
      <trkpt lat="45.87658" lon="4.84321">
        <ele>182</ele>
        <time>2018-09-13T09:04:48Z</time>
      </trkpt>
      <trkpt lat="45.8766" lon="4.84322">
        <ele>182</ele>
        <time>2018-09-13T09:04:49Z</time>
      </trkpt>
      <trkpt lat="45.87666" lon="4.84327">
        <ele>183</ele>
        <time>2018-09-13T09:04:51Z</time>
      </trkpt>
      <trkpt lat="45.8767" lon="4.84333">
        <ele>183</ele>
        <time>2018-09-13T09:04:52Z</time>
      </trkpt>
      <trkpt lat="45.87675" lon="4.84338">
        <ele>184</ele>
        <time>2018-09-13T09:04:53Z</time>
      </trkpt>
      <trkpt lat="45.87679" lon="4.84344">
        <ele>184</ele>
        <time>2018-09-13T09:04:54Z</time>
      </trkpt>
      <trkpt lat="45.87684" lon="4.84349">
        <ele>185</ele>
        <time>2018-09-13T09:04:56Z</time>
      </trkpt>
      <trkpt lat="45.87687" lon="4.84353">
        <ele>185</ele>
        <time>2018-09-13T09:04:57Z</time>
      </trkpt>
      <trkpt lat="45.87691" lon="4.84356">
        <ele>185</ele>
        <time>2018-09-13T09:04:58Z</time>
      </trkpt>
      <trkpt lat="45.87694" lon="4.84361">
        <ele>185</ele>
        <time>2018-09-13T09:04:59Z</time>
      </trkpt>
      <trkpt lat="45.877" lon="4.84368">
        <ele>186</ele>
        <time>2018-09-13T09:05:02Z</time>
      </trkpt>
      <trkpt lat="45.87702" lon="4.84369">
        <ele>186</ele>
        <time>2018-09-13T09:05:03Z</time>
      </trkpt>
      <trkpt lat="45.87708" lon="4.84375">
        <ele>186</ele>
        <time>2018-09-13T09:05:04Z</time>
      </trkpt>
      <trkpt lat="45.87709" lon="4.84376">
        <ele>186</ele>
        <time>2018-09-13T09:05:05Z</time>
      </trkpt>
      <trkpt lat="45.87716" lon="4.84383">
        <ele>186</ele>
        <time>2018-09-13T09:05:07Z</time>
      </trkpt>
      <trkpt lat="45.87718" lon="4.84385">
        <ele>186</ele>
        <time>2018-09-13T09:05:08Z</time>
      </trkpt>
      <trkpt lat="45.87723" lon="4.84391">
        <ele>186</ele>
        <time>2018-09-13T09:05:11Z</time>
      </trkpt>
      <trkpt lat="45.87725" lon="4.84393">
        <ele>187</ele>
        <time>2018-09-13T09:05:12Z</time>
      </trkpt>
      <trkpt lat="45.87731" lon="4.84401">
        <ele>187</ele>
        <time>2018-09-13T09:05:15Z</time>
      </trkpt>
      <trkpt lat="45.87732" lon="4.84404">
        <ele>187</ele>
        <time>2018-09-13T09:05:16Z</time>
      </trkpt>
      <trkpt lat="45.87737" lon="4.84412">
        <ele>187</ele>
        <time>2018-09-13T09:05:19Z</time>
      </trkpt>
      <trkpt lat="45.87739" lon="4.84416">
        <ele>187</ele>
        <time>2018-09-13T09:05:20Z</time>
      </trkpt>
      <trkpt lat="45.87745" lon="4.84424">
        <ele>188</ele>
        <time>2018-09-13T09:05:23Z</time>
      </trkpt>
      <trkpt lat="45.87748" lon="4.84426">
        <ele>188</ele>
        <time>2018-09-13T09:05:24Z</time>
      </trkpt>
      <trkpt lat="45.87751" lon="4.84429">
        <ele>189</ele>
        <time>2018-09-13T09:05:25Z</time>
      </trkpt>
      <trkpt lat="45.87759" lon="4.84436">
        <ele>189</ele>
        <time>2018-09-13T09:05:26Z</time>
      </trkpt>
      <trkpt lat="45.87766" lon="4.84444">
        <ele>190</ele>
        <time>2018-09-13T09:05:30Z</time>
      </trkpt>
      <trkpt lat="45.87768" lon="4.84446">
        <ele>190</ele>
        <time>2018-09-13T09:05:31Z</time>
      </trkpt>
      <trkpt lat="45.87775" lon="4.84453">
        <ele>190</ele>
        <time>2018-09-13T09:05:34Z</time>
      </trkpt>
      <trkpt lat="45.87777" lon="4.84456">
        <ele>190</ele>
        <time>2018-09-13T09:05:35Z</time>
      </trkpt>
      <trkpt lat="45.87781" lon="4.84461">
        <ele>190</ele>
        <time>2018-09-13T09:05:37Z</time>
      </trkpt>
      <trkpt lat="45.87784" lon="4.84464">
        <ele>190</ele>
        <time>2018-09-13T09:05:38Z</time>
      </trkpt>
      <trkpt lat="45.87789" lon="4.84469">
        <ele>190</ele>
        <time>2018-09-13T09:05:40Z</time>
      </trkpt>
      <trkpt lat="45.87792" lon="4.84471">
        <ele>190</ele>
        <time>2018-09-13T09:05:41Z</time>
      </trkpt>
      <trkpt lat="45.87797" lon="4.84475">
        <ele>190</ele>
        <time>2018-09-13T09:05:43Z</time>
      </trkpt>
      <trkpt lat="45.878" lon="4.84477">
        <ele>190</ele>
        <time>2018-09-13T09:05:44Z</time>
      </trkpt>
      <trkpt lat="45.87807" lon="4.84482">
        <ele>190</ele>
        <time>2018-09-13T09:05:47Z</time>
      </trkpt>
      <trkpt lat="45.8781" lon="4.84484">
        <ele>190</ele>
        <time>2018-09-13T09:05:48Z</time>
      </trkpt>
      <trkpt lat="45.87816" lon="4.8449">
        <ele>191</ele>
        <time>2018-09-13T09:05:51Z</time>
      </trkpt>
      <trkpt lat="45.87818" lon="4.84493">
        <ele>191</ele>
        <time>2018-09-13T09:05:52Z</time>
      </trkpt>
      <trkpt lat="45.87825" lon="4.84498">
        <ele>191</ele>
        <time>2018-09-13T09:05:55Z</time>
      </trkpt>
      <trkpt lat="45.87827" lon="4.845">
        <ele>191</ele>
        <time>2018-09-13T09:05:56Z</time>
      </trkpt>
      <trkpt lat="45.87834" lon="4.84505">
        <ele>192</ele>
        <time>2018-09-13T09:05:59Z</time>
      </trkpt>
      <trkpt lat="45.87836" lon="4.84507">
        <ele>192</ele>
        <time>2018-09-13T09:06:00Z</time>
      </trkpt>
      <trkpt lat="45.87843" lon="4.84514">
        <ele>193</ele>
        <time>2018-09-13T09:06:03Z</time>
      </trkpt>
      <trkpt lat="45.87845" lon="4.84516">
        <ele>194</ele>
        <time>2018-09-13T09:06:04Z</time>
      </trkpt>
      <trkpt lat="45.87851" lon="4.84522">
        <ele>194</ele>
        <time>2018-09-13T09:06:07Z</time>
      </trkpt>
      <trkpt lat="45.87854" lon="4.84524">
        <ele>195</ele>
        <time>2018-09-13T09:06:08Z</time>
      </trkpt>
      <trkpt lat="45.87861" lon="4.84528">
        <ele>195</ele>
        <time>2018-09-13T09:06:11Z</time>
      </trkpt>
      <trkpt lat="45.87863" lon="4.8453">
        <ele>195</ele>
        <time>2018-09-13T09:06:12Z</time>
      </trkpt>
      <trkpt lat="45.87871" lon="4.84535">
        <ele>196</ele>
        <time>2018-09-13T09:06:15Z</time>
      </trkpt>
      <trkpt lat="45.87874" lon="4.84537">
        <ele>196</ele>
        <time>2018-09-13T09:06:16Z</time>
      </trkpt>
      <trkpt lat="45.8788" lon="4.84541">
        <ele>196</ele>
        <time>2018-09-13T09:06:18Z</time>
      </trkpt>
      <trkpt lat="45.87882" lon="4.84543">
        <ele>196</ele>
        <time>2018-09-13T09:06:19Z</time>
      </trkpt>
      <trkpt lat="45.87887" lon="4.84547">
        <ele>196</ele>
        <time>2018-09-13T09:06:21Z</time>
      </trkpt>
      <trkpt lat="45.8789" lon="4.8455">
        <ele>196</ele>
        <time>2018-09-13T09:06:22Z</time>
      </trkpt>
      <trkpt lat="45.87896" lon="4.84554">
        <ele>196</ele>
        <time>2018-09-13T09:06:24Z</time>
      </trkpt>
      <trkpt lat="45.87899" lon="4.84556">
        <ele>196</ele>
        <time>2018-09-13T09:06:25Z</time>
      </trkpt>
      <trkpt lat="45.87905" lon="4.8456">
        <ele>196</ele>
        <time>2018-09-13T09:06:27Z</time>
      </trkpt>
      <trkpt lat="45.87908" lon="4.84562">
        <ele>196</ele>
        <time>2018-09-13T09:06:28Z</time>
      </trkpt>
      <trkpt lat="45.87913" lon="4.84566">
        <ele>196</ele>
        <time>2018-09-13T09:06:30Z</time>
      </trkpt>
      <trkpt lat="45.87916" lon="4.84567">
        <ele>196</ele>
        <time>2018-09-13T09:06:31Z</time>
      </trkpt>
      <trkpt lat="45.87925" lon="4.84574">
        <ele>200</ele>
        <time>2018-09-13T09:06:32Z</time>
      </trkpt>
      <trkpt lat="45.87931" lon="4.8458">
        <ele>201</ele>
        <time>2018-09-13T09:06:35Z</time>
      </trkpt>
      <trkpt lat="45.87936" lon="4.84585">
        <ele>197</ele>
        <time>2018-09-13T09:06:36Z</time>
      </trkpt>
      <trkpt lat="45.87945" lon="4.8459">
        <ele>198</ele>
        <time>2018-09-13T09:06:40Z</time>
      </trkpt>
      <trkpt lat="45.87952" lon="4.84594">
        <ele>198</ele>
        <time>2018-09-13T09:06:41Z</time>
      </trkpt>
      <trkpt lat="45.87959" lon="4.84599">
        <ele>198</ele>
        <time>2018-09-13T09:06:44Z</time>
      </trkpt>
      <trkpt lat="45.87961" lon="4.84601">
        <ele>198</ele>
        <time>2018-09-13T09:06:45Z</time>
      </trkpt>
      <trkpt lat="45.87967" lon="4.84608">
        <ele>199</ele>
        <time>2018-09-13T09:06:48Z</time>
      </trkpt>
      <trkpt lat="45.87974" lon="4.84615">
        <ele>199</ele>
        <time>2018-09-13T09:06:49Z</time>
      </trkpt>
      <trkpt lat="45.87981" lon="4.84621">
        <ele>199</ele>
        <time>2018-09-13T09:06:53Z</time>
      </trkpt>
      <trkpt lat="45.87984" lon="4.84623">
        <ele>199</ele>
        <time>2018-09-13T09:06:54Z</time>
      </trkpt>
      <trkpt lat="45.87991" lon="4.84628">
        <ele>198</ele>
        <time>2018-09-13T09:06:57Z</time>
      </trkpt>
      <trkpt lat="45.87994" lon="4.8463">
        <ele>198</ele>
        <time>2018-09-13T09:06:58Z</time>
      </trkpt>
      <trkpt lat="45.88" lon="4.84635">
        <ele>203</ele>
        <time>2018-09-13T09:07:00Z</time>
      </trkpt>
      <trkpt lat="45.88003" lon="4.84637">
        <ele>203</ele>
        <time>2018-09-13T09:07:01Z</time>
      </trkpt>
      <trkpt lat="45.88006" lon="4.84639">
        <ele>203</ele>
        <time>2018-09-13T09:07:02Z</time>
      </trkpt>
      <trkpt lat="45.88015" lon="4.84644">
        <ele>203</ele>
        <time>2018-09-13T09:07:03Z</time>
      </trkpt>
      <trkpt lat="45.88021" lon="4.84648">
        <ele>203</ele>
        <time>2018-09-13T09:07:05Z</time>
      </trkpt>
      <trkpt lat="45.88025" lon="4.8465">
        <ele>203</ele>
        <time>2018-09-13T09:07:06Z</time>
      </trkpt>
      <trkpt lat="45.88031" lon="4.84656">
        <ele>203</ele>
        <time>2018-09-13T09:07:10Z</time>
      </trkpt>
      <trkpt lat="45.88033" lon="4.84658">
        <ele>203</ele>
        <time>2018-09-13T09:07:11Z</time>
      </trkpt>
      <trkpt lat="45.88042" lon="4.84663">
        <ele>204</ele>
        <time>2018-09-13T09:07:14Z</time>
      </trkpt>
      <trkpt lat="45.8805" lon="4.84668">
        <ele>200</ele>
        <time>2018-09-13T09:07:15Z</time>
      </trkpt>
      <trkpt lat="45.88057" lon="4.84672">
        <ele>200</ele>
        <time>2018-09-13T09:07:17Z</time>
      </trkpt>
      <trkpt lat="45.88059" lon="4.84674">
        <ele>200</ele>
        <time>2018-09-13T09:07:18Z</time>
      </trkpt>
      <trkpt lat="45.88066" lon="4.84678">
        <ele>201</ele>
        <time>2018-09-13T09:07:21Z</time>
      </trkpt>
      <trkpt lat="45.88068" lon="4.84679">
        <ele>201</ele>
        <time>2018-09-13T09:07:22Z</time>
      </trkpt>
      <trkpt lat="45.8807" lon="4.84681">
        <ele>201</ele>
        <time>2018-09-13T09:07:23Z</time>
      </trkpt>
      <trkpt lat="45.88078" lon="4.84687">
        <ele>201</ele>
        <time>2018-09-13T09:07:24Z</time>
      </trkpt>
      <trkpt lat="45.88084" lon="4.84692">
        <ele>206</ele>
        <time>2018-09-13T09:07:27Z</time>
      </trkpt>
      <trkpt lat="45.88087" lon="4.84702">
        <ele>206</ele>
        <time>2018-09-13T09:07:28Z</time>
      </trkpt>
      <trkpt lat="45.88089" lon="4.84712">
        <ele>205</ele>
        <time>2018-09-13T09:07:30Z</time>
      </trkpt>
      <trkpt lat="45.8809" lon="4.84718">
        <ele>205</ele>
        <time>2018-09-13T09:07:31Z</time>
      </trkpt>
      <trkpt lat="45.88097" lon="4.84725">
        <ele>204</ele>
        <time>2018-09-13T09:07:34Z</time>
      </trkpt>
      <trkpt lat="45.88098" lon="4.84725">
        <ele>204</ele>
        <time>2018-09-13T09:07:35Z</time>
      </trkpt>
      <trkpt lat="45.88103" lon="4.84726">
        <ele>205</ele>
        <time>2018-09-13T09:07:37Z</time>
      </trkpt>
      <trkpt lat="45.88113" lon="4.84727">
        <ele>206</ele>
        <time>2018-09-13T09:07:38Z</time>
      </trkpt>
      <trkpt lat="45.88119" lon="4.84729">
        <ele>206</ele>
        <time>2018-09-13T09:07:40Z</time>
      </trkpt>
      <trkpt lat="45.88123" lon="4.84732">
        <ele>207</ele>
        <time>2018-09-13T09:07:41Z</time>
      </trkpt>
      <trkpt lat="45.8813" lon="4.84738">
        <ele>207</ele>
        <time>2018-09-13T09:07:43Z</time>
      </trkpt>
      <trkpt lat="45.88131" lon="4.84739">
        <ele>207</ele>
        <time>2018-09-13T09:07:44Z</time>
      </trkpt>
      <trkpt lat="45.88139" lon="4.84745">
        <ele>207</ele>
        <time>2018-09-13T09:07:46Z</time>
      </trkpt>
      <trkpt lat="45.88141" lon="4.84746">
        <ele>207</ele>
        <time>2018-09-13T09:07:47Z</time>
      </trkpt>
      <trkpt lat="45.88146" lon="4.84749">
        <ele>208</ele>
        <time>2018-09-13T09:07:48Z</time>
      </trkpt>
      <trkpt lat="45.88149" lon="4.84751">
        <ele>204</ele>
        <time>2018-09-13T09:07:49Z</time>
      </trkpt>
      <trkpt lat="45.88153" lon="4.84754">
        <ele>205</ele>
        <time>2018-09-13T09:07:51Z</time>
      </trkpt>
      <trkpt lat="45.88159" lon="4.84758">
        <ele>205</ele>
        <time>2018-09-13T09:07:52Z</time>
      </trkpt>
      <trkpt lat="45.88165" lon="4.84763">
        <ele>205</ele>
        <time>2018-09-13T09:07:54Z</time>
      </trkpt>
      <trkpt lat="45.88168" lon="4.84766">
        <ele>208</ele>
        <time>2018-09-13T09:07:55Z</time>
      </trkpt>
      <trkpt lat="45.88175" lon="4.84772">
        <ele>208</ele>
        <time>2018-09-13T09:07:57Z</time>
      </trkpt>
      <trkpt lat="45.88177" lon="4.84773">
        <ele>208</ele>
        <time>2018-09-13T09:07:58Z</time>
      </trkpt>
      <trkpt lat="45.88182" lon="4.84778">
        <ele>208</ele>
        <time>2018-09-13T09:07:59Z</time>
      </trkpt>
      <trkpt lat="45.88185" lon="4.84781">
        <ele>208</ele>
        <time>2018-09-13T09:08:00Z</time>
      </trkpt>
      <trkpt lat="45.88192" lon="4.84786">
        <ele>208</ele>
        <time>2018-09-13T09:08:02Z</time>
      </trkpt>
      <trkpt lat="45.88195" lon="4.84789">
        <ele>208</ele>
        <time>2018-09-13T09:08:03Z</time>
      </trkpt>
      <trkpt lat="45.88201" lon="4.84794">
        <ele>208</ele>
        <time>2018-09-13T09:08:05Z</time>
      </trkpt>
      <trkpt lat="45.88203" lon="4.84795">
        <ele>208</ele>
        <time>2018-09-13T09:08:06Z</time>
      </trkpt>
      <trkpt lat="45.88211" lon="4.848">
        <ele>208</ele>
        <time>2018-09-13T09:08:08Z</time>
      </trkpt>
      <trkpt lat="45.88215" lon="4.84802">
        <ele>208</ele>
        <time>2018-09-13T09:08:09Z</time>
      </trkpt>
      <trkpt lat="45.88221" lon="4.84806">
        <ele>208</ele>
        <time>2018-09-13T09:08:11Z</time>
      </trkpt>
      <trkpt lat="45.88223" lon="4.84807">
        <ele>208</ele>
        <time>2018-09-13T09:08:12Z</time>
      </trkpt>
      <trkpt lat="45.88228" lon="4.8481">
        <ele>208</ele>
        <time>2018-09-13T09:08:13Z</time>
      </trkpt>
      <trkpt lat="45.88231" lon="4.84812">
        <ele>208</ele>
        <time>2018-09-13T09:08:14Z</time>
      </trkpt>
      <trkpt lat="45.88238" lon="4.84816">
        <ele>207</ele>
        <time>2018-09-13T09:08:16Z</time>
      </trkpt>
      <trkpt lat="45.88242" lon="4.84818">
        <ele>207</ele>
        <time>2018-09-13T09:08:17Z</time>
      </trkpt>
      <trkpt lat="45.88249" lon="4.84823">
        <ele>206</ele>
        <time>2018-09-13T09:08:19Z</time>
      </trkpt>
      <trkpt lat="45.88253" lon="4.84826">
        <ele>208</ele>
        <time>2018-09-13T09:08:20Z</time>
      </trkpt>
      <trkpt lat="45.88259" lon="4.8483">
        <ele>209</ele>
        <time>2018-09-13T09:08:23Z</time>
      </trkpt>
      <trkpt lat="45.88265" lon="4.84834">
        <ele>206</ele>
        <time>2018-09-13T09:08:24Z</time>
      </trkpt>
      <trkpt lat="45.88272" lon="4.84839">
        <ele>206</ele>
        <time>2018-09-13T09:08:26Z</time>
      </trkpt>
      <trkpt lat="45.88275" lon="4.84843">
        <ele>206</ele>
        <time>2018-09-13T09:08:27Z</time>
      </trkpt>
      <trkpt lat="45.88283" lon="4.84848">
        <ele>207</ele>
        <time>2018-09-13T09:08:29Z</time>
      </trkpt>
      <trkpt lat="45.88286" lon="4.84851">
        <ele>207</ele>
        <time>2018-09-13T09:08:30Z</time>
      </trkpt>
      <trkpt lat="45.88293" lon="4.84856">
        <ele>208</ele>
        <time>2018-09-13T09:08:32Z</time>
      </trkpt>
      <trkpt lat="45.88295" lon="4.84857">
        <ele>208</ele>
        <time>2018-09-13T09:08:33Z</time>
      </trkpt>
      <trkpt lat="45.88297" lon="4.84858">
        <ele>208</ele>
        <time>2018-09-13T09:08:34Z</time>
      </trkpt>
      <trkpt lat="45.88304" lon="4.84862">
        <ele>208</ele>
        <time>2018-09-13T09:08:35Z</time>
      </trkpt>
      <trkpt lat="45.88311" lon="4.84866">
        <ele>208</ele>
        <time>2018-09-13T09:08:38Z</time>
      </trkpt>
      <trkpt lat="45.88313" lon="4.84868">
        <ele>208</ele>
        <time>2018-09-13T09:08:39Z</time>
      </trkpt>
      <trkpt lat="45.8832" lon="4.84871">
        <ele>208</ele>
        <time>2018-09-13T09:08:40Z</time>
      </trkpt>
      <trkpt lat="45.88324" lon="4.84873">
        <ele>208</ele>
        <time>2018-09-13T09:08:41Z</time>
      </trkpt>
      <trkpt lat="45.88331" lon="4.84877">
        <ele>208</ele>
        <time>2018-09-13T09:08:43Z</time>
      </trkpt>
      <trkpt lat="45.88334" lon="4.8488">
        <ele>215</ele>
        <time>2018-09-13T09:08:44Z</time>
      </trkpt>
      <trkpt lat="45.88341" lon="4.84885">
        <ele>214</ele>
        <time>2018-09-13T09:08:46Z</time>
      </trkpt>
      <trkpt lat="45.88345" lon="4.84888">
        <ele>214</ele>
        <time>2018-09-13T09:08:47Z</time>
      </trkpt>
      <trkpt lat="45.88352" lon="4.84892">
        <ele>214</ele>
        <time>2018-09-13T09:08:49Z</time>
      </trkpt>
      <trkpt lat="45.88354" lon="4.84893">
        <ele>214</ele>
        <time>2018-09-13T09:08:50Z</time>
      </trkpt>
      <trkpt lat="45.88361" lon="4.84897">
        <ele>215</ele>
        <time>2018-09-13T09:08:52Z</time>
      </trkpt>
      <trkpt lat="45.88363" lon="4.84899">
        <ele>215</ele>
        <time>2018-09-13T09:08:53Z</time>
      </trkpt>
      <trkpt lat="45.88369" lon="4.84903">
        <ele>216</ele>
        <time>2018-09-13T09:08:54Z</time>
      </trkpt>
      <trkpt lat="45.88372" lon="4.84906">
        <ele>216</ele>
        <time>2018-09-13T09:08:55Z</time>
      </trkpt>
      <trkpt lat="45.88379" lon="4.84911">
        <ele>217</ele>
        <time>2018-09-13T09:08:57Z</time>
      </trkpt>
      <trkpt lat="45.8838" lon="4.84912">
        <ele>217</ele>
        <time>2018-09-13T09:08:58Z</time>
      </trkpt>
      <trkpt lat="45.88385" lon="4.84915">
        <ele>218</ele>
        <time>2018-09-13T09:09:00Z</time>
      </trkpt>
      <trkpt lat="45.88391" lon="4.84919">
        <ele>213</ele>
        <time>2018-09-13T09:09:01Z</time>
      </trkpt>
      <trkpt lat="45.88399" lon="4.84924">
        <ele>214</ele>
        <time>2018-09-13T09:09:04Z</time>
      </trkpt>
      <trkpt lat="45.88405" lon="4.84927">
        <ele>215</ele>
        <time>2018-09-13T09:09:05Z</time>
      </trkpt>
      <trkpt lat="45.88411" lon="4.84932">
        <ele>215</ele>
        <time>2018-09-13T09:09:07Z</time>
      </trkpt>
      <trkpt lat="45.88415" lon="4.84934">
        <ele>214</ele>
        <time>2018-09-13T09:09:08Z</time>
      </trkpt>
      <trkpt lat="45.88422" lon="4.84938">
        <ele>219</ele>
        <time>2018-09-13T09:09:10Z</time>
      </trkpt>
      <trkpt lat="45.88424" lon="4.8494">
        <ele>219</ele>
        <time>2018-09-13T09:09:11Z</time>
      </trkpt>
      <trkpt lat="45.8843" lon="4.84946">
        <ele>219</ele>
        <time>2018-09-13T09:09:13Z</time>
      </trkpt>
      <trkpt lat="45.88431" lon="4.84947">
        <ele>219</ele>
        <time>2018-09-13T09:09:14Z</time>
      </trkpt>
      <trkpt lat="45.88439" lon="4.84953">
        <ele>218</ele>
        <time>2018-09-13T09:09:16Z</time>
      </trkpt>
      <trkpt lat="45.88442" lon="4.84956">
        <ele>218</ele>
        <time>2018-09-13T09:09:17Z</time>
      </trkpt>
      <trkpt lat="45.88449" lon="4.84961">
        <ele>218</ele>
        <time>2018-09-13T09:09:20Z</time>
      </trkpt>
      <trkpt lat="45.8845" lon="4.84962">
        <ele>218</ele>
        <time>2018-09-13T09:09:21Z</time>
      </trkpt>
      <trkpt lat="45.88458" lon="4.84966">
        <ele>218</ele>
        <time>2018-09-13T09:09:23Z</time>
      </trkpt>
      <trkpt lat="45.88459" lon="4.84967">
        <ele>218</ele>
        <time>2018-09-13T09:09:24Z</time>
      </trkpt>
      <trkpt lat="45.88467" lon="4.84972">
        <ele>218</ele>
        <time>2018-09-13T09:09:27Z</time>
      </trkpt>
      <trkpt lat="45.8847" lon="4.84974">
        <ele>218</ele>
        <time>2018-09-13T09:09:28Z</time>
      </trkpt>
      <trkpt lat="45.88475" lon="4.84978">
        <ele>218</ele>
        <time>2018-09-13T09:09:30Z</time>
      </trkpt>
      <trkpt lat="45.88478" lon="4.8498">
        <ele>217</ele>
        <time>2018-09-13T09:09:31Z</time>
      </trkpt>
      <trkpt lat="45.88485" lon="4.84986">
        <ele>217</ele>
        <time>2018-09-13T09:09:34Z</time>
      </trkpt>
      <trkpt lat="45.88488" lon="4.84988">
        <ele>216</ele>
        <time>2018-09-13T09:09:35Z</time>
      </trkpt>
      <trkpt lat="45.88491" lon="4.8499">
        <ele>216</ele>
        <time>2018-09-13T09:09:36Z</time>
      </trkpt>
      <trkpt lat="45.88499" lon="4.84997">
        <ele>215</ele>
        <time>2018-09-13T09:09:37Z</time>
      </trkpt>
      <trkpt lat="45.88504" lon="4.85002">
        <ele>214</ele>
        <time>2018-09-13T09:09:39Z</time>
      </trkpt>
      <trkpt lat="45.88506" lon="4.85004">
        <ele>214</ele>
        <time>2018-09-13T09:09:40Z</time>
      </trkpt>
      <trkpt lat="45.88509" lon="4.85006">
        <ele>214</ele>
        <time>2018-09-13T09:09:41Z</time>
      </trkpt>
      <trkpt lat="45.88517" lon="4.85012">
        <ele>214</ele>
        <time>2018-09-13T09:09:42Z</time>
      </trkpt>
      <trkpt lat="45.88521" lon="4.85015">
        <ele>214</ele>
        <time>2018-09-13T09:09:43Z</time>
      </trkpt>
      <trkpt lat="45.88525" lon="4.85018">
        <ele>214</ele>
        <time>2018-09-13T09:09:44Z</time>
      </trkpt>
      <trkpt lat="45.88529" lon="4.85021">
        <ele>214</ele>
        <time>2018-09-13T09:09:45Z</time>
      </trkpt>
      <trkpt lat="45.88534" lon="4.85024">
        <ele>214</ele>
        <time>2018-09-13T09:09:46Z</time>
      </trkpt>
      <trkpt lat="45.88538" lon="4.85026">
        <ele>214</ele>
        <time>2018-09-13T09:09:47Z</time>
      </trkpt>
      <trkpt lat="45.88542" lon="4.85028">
        <ele>214</ele>
        <time>2018-09-13T09:09:48Z</time>
      </trkpt>
      <trkpt lat="45.88547" lon="4.8503">
        <ele>214</ele>
        <time>2018-09-13T09:09:49Z</time>
      </trkpt>
      <trkpt lat="45.88551" lon="4.85031">
        <ele>214</ele>
        <time>2018-09-13T09:09:50Z</time>
      </trkpt>
      <trkpt lat="45.88556" lon="4.85033">
        <ele>214</ele>
        <time>2018-09-13T09:09:51Z</time>
      </trkpt>
      <trkpt lat="45.88561" lon="4.85035">
        <ele>214</ele>
        <time>2018-09-13T09:09:52Z</time>
      </trkpt>
      <trkpt lat="45.88568" lon="4.85036">
        <ele>214</ele>
        <time>2018-09-13T09:09:53Z</time>
      </trkpt>
      <trkpt lat="45.88574" lon="4.85038">
        <ele>214</ele>
        <time>2018-09-13T09:09:54Z</time>
      </trkpt>
      <trkpt lat="45.88578" lon="4.85039">
        <ele>214</ele>
        <time>2018-09-13T09:09:55Z</time>
      </trkpt>
      <trkpt lat="45.88584" lon="4.8504">
        <ele>216</ele>
        <time>2018-09-13T09:09:56Z</time>
      </trkpt>
      <trkpt lat="45.88588" lon="4.85041">
        <ele>216</ele>
        <time>2018-09-13T09:09:57Z</time>
      </trkpt>
      <trkpt lat="45.88593" lon="4.85041">
        <ele>216</ele>
        <time>2018-09-13T09:09:58Z</time>
      </trkpt>
      <trkpt lat="45.88598" lon="4.85042">
        <ele>216</ele>
        <time>2018-09-13T09:09:59Z</time>
      </trkpt>
      <trkpt lat="45.88603" lon="4.85041">
        <ele>216</ele>
        <time>2018-09-13T09:10:00Z</time>
      </trkpt>
      <trkpt lat="45.88608" lon="4.85044">
        <ele>216</ele>
        <time>2018-09-13T09:10:01Z</time>
      </trkpt>
      <trkpt lat="45.88614" lon="4.85045">
        <ele>216</ele>
        <time>2018-09-13T09:10:02Z</time>
      </trkpt>
      <trkpt lat="45.8862" lon="4.85046">
        <ele>216</ele>
        <time>2018-09-13T09:10:03Z</time>
      </trkpt>
      <trkpt lat="45.88626" lon="4.85046">
        <ele>217</ele>
        <time>2018-09-13T09:10:04Z</time>
      </trkpt>
      <trkpt lat="45.88631" lon="4.85046">
        <ele>217</ele>
        <time>2018-09-13T09:10:05Z</time>
      </trkpt>
      <trkpt lat="45.88636" lon="4.85047">
        <ele>217</ele>
        <time>2018-09-13T09:10:06Z</time>
      </trkpt>
      <trkpt lat="45.88641" lon="4.85045">
        <ele>217</ele>
        <time>2018-09-13T09:10:07Z</time>
      </trkpt>
      <trkpt lat="45.88645" lon="4.85046">
        <ele>217</ele>
        <time>2018-09-13T09:10:08Z</time>
      </trkpt>
      <trkpt lat="45.88653" lon="4.8505">
        <ele>217</ele>
        <time>2018-09-13T09:10:10Z</time>
      </trkpt>
      <trkpt lat="45.88657" lon="4.85052">
        <ele>217</ele>
        <time>2018-09-13T09:10:11Z</time>
      </trkpt>
      <trkpt lat="45.88662" lon="4.85051">
        <ele>217</ele>
        <time>2018-09-13T09:10:12Z</time>
      </trkpt>
      <trkpt lat="45.88667" lon="4.85054">
        <ele>219</ele>
        <time>2018-09-13T09:10:13Z</time>
      </trkpt>
      <trkpt lat="45.88675" lon="4.85053">
        <ele>220</ele>
        <time>2018-09-13T09:10:16Z</time>
      </trkpt>
      <trkpt lat="45.88678" lon="4.85054">
        <ele>219</ele>
        <time>2018-09-13T09:10:17Z</time>
      </trkpt>
      <trkpt lat="45.88687" lon="4.85055">
        <ele>220</ele>
        <time>2018-09-13T09:10:18Z</time>
      </trkpt>
      <trkpt lat="45.8869" lon="4.85056">
        <ele>220</ele>
        <time>2018-09-13T09:10:19Z</time>
      </trkpt>
      <trkpt lat="45.88697" lon="4.85059">
        <ele>220</ele>
        <time>2018-09-13T09:10:22Z</time>
      </trkpt>
      <trkpt lat="45.88699" lon="4.8506">
        <ele>220</ele>
        <time>2018-09-13T09:10:23Z</time>
      </trkpt>
      <trkpt lat="45.88707" lon="4.85063">
        <ele>220</ele>
        <time>2018-09-13T09:10:26Z</time>
      </trkpt>
      <trkpt lat="45.88714" lon="4.85067">
        <ele>220</ele>
        <time>2018-09-13T09:10:27Z</time>
      </trkpt>
      <trkpt lat="45.88722" lon="4.85074">
        <ele>219</ele>
        <time>2018-09-13T09:10:31Z</time>
      </trkpt>
      <trkpt lat="45.88729" lon="4.85078">
        <ele>219</ele>
        <time>2018-09-13T09:10:32Z</time>
      </trkpt>
      <trkpt lat="45.88736" lon="4.85081">
        <ele>218</ele>
        <time>2018-09-13T09:10:34Z</time>
      </trkpt>
      <trkpt lat="45.8874" lon="4.85083">
        <ele>218</ele>
        <time>2018-09-13T09:10:35Z</time>
      </trkpt>
      <trkpt lat="45.88747" lon="4.85087">
        <ele>216</ele>
        <time>2018-09-13T09:10:37Z</time>
      </trkpt>
      <trkpt lat="45.88751" lon="4.85091">
        <ele>217</ele>
        <time>2018-09-13T09:10:38Z</time>
      </trkpt>
      <trkpt lat="45.88756" lon="4.85093">
        <ele>217</ele>
        <time>2018-09-13T09:10:40Z</time>
      </trkpt>
      <trkpt lat="45.88762" lon="4.85097">
        <ele>217</ele>
        <time>2018-09-13T09:10:41Z</time>
      </trkpt>
      <trkpt lat="45.88767" lon="4.85101">
        <ele>218</ele>
        <time>2018-09-13T09:10:43Z</time>
      </trkpt>
      <trkpt lat="45.88771" lon="4.85103">
        <ele>218</ele>
        <time>2018-09-13T09:10:44Z</time>
      </trkpt>
      <trkpt lat="45.88778" lon="4.8511">
        <ele>218</ele>
        <time>2018-09-13T09:10:46Z</time>
      </trkpt>
      <trkpt lat="45.88782" lon="4.85112">
        <ele>218</ele>
        <time>2018-09-13T09:10:47Z</time>
      </trkpt>
      <trkpt lat="45.88788" lon="4.85116">
        <ele>218</ele>
        <time>2018-09-13T09:10:50Z</time>
      </trkpt>
      <trkpt lat="45.8879" lon="4.85118">
        <ele>218</ele>
        <time>2018-09-13T09:10:51Z</time>
      </trkpt>
      <trkpt lat="45.88793" lon="4.85119">
        <ele>218</ele>
        <time>2018-09-13T09:10:52Z</time>
      </trkpt>
      <trkpt lat="45.88799" lon="4.85126">
        <ele>219</ele>
        <time>2018-09-13T09:10:53Z</time>
      </trkpt>
      <trkpt lat="45.88804" lon="4.8513">
        <ele>219</ele>
        <time>2018-09-13T09:10:55Z</time>
      </trkpt>
      <trkpt lat="45.88809" lon="4.85133">
        <ele>218</ele>
        <time>2018-09-13T09:10:56Z</time>
      </trkpt>
      <trkpt lat="45.88812" lon="4.85136">
        <ele>218</ele>
        <time>2018-09-13T09:10:58Z</time>
      </trkpt>
      <trkpt lat="45.88818" lon="4.85141">
        <ele>218</ele>
        <time>2018-09-13T09:10:59Z</time>
      </trkpt>
      <trkpt lat="45.88824" lon="4.85144">
        <ele>218</ele>
        <time>2018-09-13T09:11:01Z</time>
      </trkpt>
      <trkpt lat="45.88829" lon="4.85146">
        <ele>218</ele>
        <time>2018-09-13T09:11:02Z</time>
      </trkpt>
      <trkpt lat="45.88836" lon="4.8515">
        <ele>223</ele>
        <time>2018-09-13T09:11:04Z</time>
      </trkpt>
      <trkpt lat="45.88838" lon="4.85151">
        <ele>223</ele>
        <time>2018-09-13T09:11:05Z</time>
      </trkpt>
      <trkpt lat="45.88844" lon="4.85157">
        <ele>222</ele>
        <time>2018-09-13T09:11:09Z</time>
      </trkpt>
      <trkpt lat="45.88846" lon="4.85159">
        <ele>222</ele>
        <time>2018-09-13T09:11:10Z</time>
      </trkpt>
      <trkpt lat="45.88854" lon="4.85166">
        <ele>224</ele>
        <time>2018-09-13T09:11:11Z</time>
      </trkpt>
      <trkpt lat="45.88856" lon="4.85167">
        <ele>220</ele>
        <time>2018-09-13T09:11:12Z</time>
      </trkpt>
      <trkpt lat="45.88858" lon="4.85169">
        <ele>220</ele>
        <time>2018-09-13T09:11:13Z</time>
      </trkpt>
      <trkpt lat="45.88865" lon="4.85173">
        <ele>221</ele>
        <time>2018-09-13T09:11:14Z</time>
      </trkpt>
      <trkpt lat="45.88871" lon="4.85179">
        <ele>221</ele>
        <time>2018-09-13T09:11:16Z</time>
      </trkpt>
      <trkpt lat="45.88875" lon="4.85182">
        <ele>222</ele>
        <time>2018-09-13T09:11:17Z</time>
      </trkpt>
      <trkpt lat="45.88883" lon="4.85187">
        <ele>222</ele>
        <time>2018-09-13T09:11:19Z</time>
      </trkpt>
      <trkpt lat="45.88887" lon="4.8519">
        <ele>222</ele>
        <time>2018-09-13T09:11:20Z</time>
      </trkpt>
      <trkpt lat="45.88894" lon="4.85196">
        <ele>222</ele>
        <time>2018-09-13T09:11:22Z</time>
      </trkpt>
      <trkpt lat="45.88898" lon="4.85199">
        <ele>223</ele>
        <time>2018-09-13T09:11:23Z</time>
      </trkpt>
      <trkpt lat="45.88905" lon="4.85205">
        <ele>222</ele>
        <time>2018-09-13T09:11:25Z</time>
      </trkpt>
      <trkpt lat="45.88908" lon="4.85207">
        <ele>222</ele>
        <time>2018-09-13T09:11:26Z</time>
      </trkpt>
      <trkpt lat="45.88916" lon="4.85213">
        <ele>222</ele>
        <time>2018-09-13T09:11:28Z</time>
      </trkpt>
      <trkpt lat="45.88919" lon="4.85217">
        <ele>232</ele>
        <time>2018-09-13T09:11:29Z</time>
      </trkpt>
      <trkpt lat="45.88925" lon="4.85225">
        <ele>231</ele>
        <time>2018-09-13T09:11:31Z</time>
      </trkpt>
      <trkpt lat="45.88928" lon="4.8523">
        <ele>231</ele>
        <time>2018-09-13T09:11:32Z</time>
      </trkpt>
      <trkpt lat="45.88933" lon="4.85239">
        <ele>230</ele>
        <time>2018-09-13T09:11:34Z</time>
      </trkpt>
      <trkpt lat="45.88935" lon="4.85241">
        <ele>230</ele>
        <time>2018-09-13T09:11:35Z</time>
      </trkpt>
      <trkpt lat="45.88937" lon="4.85242">
        <ele>231</ele>
        <time>2018-09-13T09:11:36Z</time>
      </trkpt>
      <trkpt lat="45.88942" lon="4.8525">
        <ele>232</ele>
        <time>2018-09-13T09:11:37Z</time>
      </trkpt>
      <trkpt lat="45.88947" lon="4.85259">
        <ele>228</ele>
        <time>2018-09-13T09:11:39Z</time>
      </trkpt>
      <trkpt lat="45.88949" lon="4.85264">
        <ele>228</ele>
        <time>2018-09-13T09:11:40Z</time>
      </trkpt>
      <trkpt lat="45.88954" lon="4.85272">
        <ele>229</ele>
        <time>2018-09-13T09:11:42Z</time>
      </trkpt>
      <trkpt lat="45.88957" lon="4.85276">
        <ele>229</ele>
        <time>2018-09-13T09:11:43Z</time>
      </trkpt>
      <trkpt lat="45.88963" lon="4.85285">
        <ele>229</ele>
        <time>2018-09-13T09:11:45Z</time>
      </trkpt>
      <trkpt lat="45.88965" lon="4.8529">
        <ele>229</ele>
        <time>2018-09-13T09:11:46Z</time>
      </trkpt>
      <trkpt lat="45.8897" lon="4.853">
        <ele>229</ele>
        <time>2018-09-13T09:11:48Z</time>
      </trkpt>
      <trkpt lat="45.88971" lon="4.85303">
        <ele>229</ele>
        <time>2018-09-13T09:11:49Z</time>
      </trkpt>
      <trkpt lat="45.88972" lon="4.85306">
        <ele>229</ele>
        <time>2018-09-13T09:11:50Z</time>
      </trkpt>
      <trkpt lat="45.88976" lon="4.85314">
        <ele>229</ele>
        <time>2018-09-13T09:11:51Z</time>
      </trkpt>
      <trkpt lat="45.88979" lon="4.85323">
        <ele>229</ele>
        <time>2018-09-13T09:11:53Z</time>
      </trkpt>
      <trkpt lat="45.88981" lon="4.85327">
        <ele>229</ele>
        <time>2018-09-13T09:11:54Z</time>
      </trkpt>
      <trkpt lat="45.88985" lon="4.85336">
        <ele>227</ele>
        <time>2018-09-13T09:11:56Z</time>
      </trkpt>
      <trkpt lat="45.88987" lon="4.85341">
        <ele>227</ele>
        <time>2018-09-13T09:11:57Z</time>
      </trkpt>
      <trkpt lat="45.88991" lon="4.8535">
        <ele>227</ele>
        <time>2018-09-13T09:11:59Z</time>
      </trkpt>
      <trkpt lat="45.88992" lon="4.85352">
        <ele>227</ele>
        <time>2018-09-13T09:12:00Z</time>
      </trkpt>
      <trkpt lat="45.88995" lon="4.85362">
        <ele>226</ele>
        <time>2018-09-13T09:12:02Z</time>
      </trkpt>
      <trkpt lat="45.88997" lon="4.85369">
        <ele>225</ele>
        <time>2018-09-13T09:12:03Z</time>
      </trkpt>
      <trkpt lat="45.89001" lon="4.85379">
        <ele>236</ele>
        <time>2018-09-13T09:12:05Z</time>
      </trkpt>
      <trkpt lat="45.89003" lon="4.85384">
        <ele>235</ele>
        <time>2018-09-13T09:12:06Z</time>
      </trkpt>
      <trkpt lat="45.89006" lon="4.85394">
        <ele>234</ele>
        <time>2018-09-13T09:12:08Z</time>
      </trkpt>
      <trkpt lat="45.89008" lon="4.85399">
        <ele>233</ele>
        <time>2018-09-13T09:12:09Z</time>
      </trkpt>
      <trkpt lat="45.8901" lon="4.85404">
        <ele>232</ele>
        <time>2018-09-13T09:12:11Z</time>
      </trkpt>
      <trkpt lat="45.89013" lon="4.85412">
        <ele>232</ele>
        <time>2018-09-13T09:12:12Z</time>
      </trkpt>
      <trkpt lat="45.89015" lon="4.85417">
        <ele>230</ele>
        <time>2018-09-13T09:12:14Z</time>
      </trkpt>
      <trkpt lat="45.89017" lon="4.85425">
        <ele>231</ele>
        <time>2018-09-13T09:12:15Z</time>
      </trkpt>
      <trkpt lat="45.89021" lon="4.85436">
        <ele>232</ele>
        <time>2018-09-13T09:12:18Z</time>
      </trkpt>
      <trkpt lat="45.89022" lon="4.85439">
        <ele>233</ele>
        <time>2018-09-13T09:12:19Z</time>
      </trkpt>
      <trkpt lat="45.89025" lon="4.85446">
        <ele>233</ele>
        <time>2018-09-13T09:12:21Z</time>
      </trkpt>
      <trkpt lat="45.89029" lon="4.85457">
        <ele>234</ele>
        <time>2018-09-13T09:12:22Z</time>
      </trkpt>
      <trkpt lat="45.89032" lon="4.85467">
        <ele>234</ele>
        <time>2018-09-13T09:12:24Z</time>
      </trkpt>
      <trkpt lat="45.89034" lon="4.85472">
        <ele>234</ele>
        <time>2018-09-13T09:12:25Z</time>
      </trkpt>
      <trkpt lat="45.89037" lon="4.85482">
        <ele>234</ele>
        <time>2018-09-13T09:12:27Z</time>
      </trkpt>
      <trkpt lat="45.89038" lon="4.85486">
        <ele>234</ele>
        <time>2018-09-13T09:12:28Z</time>
      </trkpt>
      <trkpt lat="45.89042" lon="4.85496">
        <ele>234</ele>
        <time>2018-09-13T09:12:31Z</time>
      </trkpt>
      <trkpt lat="45.89045" lon="4.85504">
        <ele>233</ele>
        <time>2018-09-13T09:12:32Z</time>
      </trkpt>
      <trkpt lat="45.8905" lon="4.85515">
        <ele>234</ele>
        <time>2018-09-13T09:12:34Z</time>
      </trkpt>
      <trkpt lat="45.89052" lon="4.85521">
        <ele>234</ele>
        <time>2018-09-13T09:12:35Z</time>
      </trkpt>
      <trkpt lat="45.89055" lon="4.85531">
        <ele>234</ele>
        <time>2018-09-13T09:12:37Z</time>
      </trkpt>
      <trkpt lat="45.89056" lon="4.85533">
        <ele>234</ele>
        <time>2018-09-13T09:12:38Z</time>
      </trkpt>
      <trkpt lat="45.89057" lon="4.85545">
        <ele>234</ele>
        <time>2018-09-13T09:12:40Z</time>
      </trkpt>
      <trkpt lat="45.89058" lon="4.85551">
        <ele>234</ele>
        <time>2018-09-13T09:12:41Z</time>
      </trkpt>
      <trkpt lat="45.89059" lon="4.85562">
        <ele>234</ele>
        <time>2018-09-13T09:12:43Z</time>
      </trkpt>
      <trkpt lat="45.8906" lon="4.85569">
        <ele>234</ele>
        <time>2018-09-13T09:12:44Z</time>
      </trkpt>
      <trkpt lat="45.89061" lon="4.85581">
        <ele>234</ele>
        <time>2018-09-13T09:12:46Z</time>
      </trkpt>
      <trkpt lat="45.89061" lon="4.85587">
        <ele>235</ele>
        <time>2018-09-13T09:12:47Z</time>
      </trkpt>
      <trkpt lat="45.89061" lon="4.85597">
        <ele>234</ele>
        <time>2018-09-13T09:12:50Z</time>
      </trkpt>
      <trkpt lat="45.89061" lon="4.85601">
        <ele>234</ele>
        <time>2018-09-13T09:12:51Z</time>
      </trkpt>
      <trkpt lat="45.8906" lon="4.85612">
        <ele>234</ele>
        <time>2018-09-13T09:12:54Z</time>
      </trkpt>
      <trkpt lat="45.8906" lon="4.85616">
        <ele>234</ele>
        <time>2018-09-13T09:12:55Z</time>
      </trkpt>
      <trkpt lat="45.8906" lon="4.85624">
        <ele>234</ele>
        <time>2018-09-13T09:12:57Z</time>
      </trkpt>
      <trkpt lat="45.89058" lon="4.85638">
        <ele>234</ele>
        <time>2018-09-13T09:12:58Z</time>
      </trkpt>
      <trkpt lat="45.89055" lon="4.8565">
        <ele>234</ele>
        <time>2018-09-13T09:13:01Z</time>
      </trkpt>
      <trkpt lat="45.89054" lon="4.85652">
        <ele>234</ele>
        <time>2018-09-13T09:13:02Z</time>
      </trkpt>
      <trkpt lat="45.89052" lon="4.85663">
        <ele>234</ele>
        <time>2018-09-13T09:13:04Z</time>
      </trkpt>
      <trkpt lat="45.89052" lon="4.85666">
        <ele>234</ele>
        <time>2018-09-13T09:13:05Z</time>
      </trkpt>
      <trkpt lat="45.89052" lon="4.8567">
        <ele>235</ele>
        <time>2018-09-13T09:13:06Z</time>
      </trkpt>
      <trkpt lat="45.89051" lon="4.8568">
        <ele>235</ele>
        <time>2018-09-13T09:13:07Z</time>
      </trkpt>
      <trkpt lat="45.89048" lon="4.85691">
        <ele>235</ele>
        <time>2018-09-13T09:13:10Z</time>
      </trkpt>
      <trkpt lat="45.89048" lon="4.85694">
        <ele>235</ele>
        <time>2018-09-13T09:13:11Z</time>
      </trkpt>
      <trkpt lat="45.89047" lon="4.85706">
        <ele>235</ele>
        <time>2018-09-13T09:13:14Z</time>
      </trkpt>
      <trkpt lat="45.89047" lon="4.8571">
        <ele>235</ele>
        <time>2018-09-13T09:13:15Z</time>
      </trkpt>
      <trkpt lat="45.89046" lon="4.85721">
        <ele>235</ele>
        <time>2018-09-13T09:13:18Z</time>
      </trkpt>
      <trkpt lat="45.89046" lon="4.85724">
        <ele>235</ele>
        <time>2018-09-13T09:13:19Z</time>
      </trkpt>
      <trkpt lat="45.89045" lon="4.85734">
        <ele>235</ele>
        <time>2018-09-13T09:13:22Z</time>
      </trkpt>
      <trkpt lat="45.89045" lon="4.85738">
        <ele>235</ele>
        <time>2018-09-13T09:13:23Z</time>
      </trkpt>
      <trkpt lat="45.89044" lon="4.8575">
        <ele>235</ele>
        <time>2018-09-13T09:13:26Z</time>
      </trkpt>
      <trkpt lat="45.89043" lon="4.85755">
        <ele>235</ele>
        <time>2018-09-13T09:13:27Z</time>
      </trkpt>
      <trkpt lat="45.89042" lon="4.85763">
        <ele>235</ele>
        <time>2018-09-13T09:13:29Z</time>
      </trkpt>
      <trkpt lat="45.89042" lon="4.85768">
        <ele>235</ele>
        <time>2018-09-13T09:13:30Z</time>
      </trkpt>
      <trkpt lat="45.89041" lon="4.8578">
        <ele>235</ele>
        <time>2018-09-13T09:13:33Z</time>
      </trkpt>
      <trkpt lat="45.89041" lon="4.85784">
        <ele>235</ele>
        <time>2018-09-13T09:13:34Z</time>
      </trkpt>
      <trkpt lat="45.8904" lon="4.85796">
        <ele>235</ele>
        <time>2018-09-13T09:13:37Z</time>
      </trkpt>
      <trkpt lat="45.8904" lon="4.85801">
        <ele>235</ele>
        <time>2018-09-13T09:13:38Z</time>
      </trkpt>
      <trkpt lat="45.89041" lon="4.85813">
        <ele>235</ele>
        <time>2018-09-13T09:13:41Z</time>
      </trkpt>
      <trkpt lat="45.89042" lon="4.85817">
        <ele>235</ele>
        <time>2018-09-13T09:13:42Z</time>
      </trkpt>
      <trkpt lat="45.89044" lon="4.85828">
        <ele>235</ele>
        <time>2018-09-13T09:13:45Z</time>
      </trkpt>
      <trkpt lat="45.89044" lon="4.85832">
        <ele>235</ele>
        <time>2018-09-13T09:13:46Z</time>
      </trkpt>
      <trkpt lat="45.89047" lon="4.85841">
        <ele>235</ele>
        <time>2018-09-13T09:13:49Z</time>
      </trkpt>
      <trkpt lat="45.89048" lon="4.85845">
        <ele>235</ele>
        <time>2018-09-13T09:13:50Z</time>
      </trkpt>
      <trkpt lat="45.8905" lon="4.85854">
        <ele>236</ele>
        <time>2018-09-13T09:13:53Z</time>
      </trkpt>
      <trkpt lat="45.89051" lon="4.85857">
        <ele>236</ele>
        <time>2018-09-13T09:13:54Z</time>
      </trkpt>
      <trkpt lat="45.89052" lon="4.85867">
        <ele>236</ele>
        <time>2018-09-13T09:13:57Z</time>
      </trkpt>
      <trkpt lat="45.89053" lon="4.8587">
        <ele>236</ele>
        <time>2018-09-13T09:13:58Z</time>
      </trkpt>
      <trkpt lat="45.89057" lon="4.85879">
        <ele>236</ele>
        <time>2018-09-13T09:14:01Z</time>
      </trkpt>
      <trkpt lat="45.89059" lon="4.85882">
        <ele>236</ele>
        <time>2018-09-13T09:14:02Z</time>
      </trkpt>
      <trkpt lat="45.89065" lon="4.8589">
        <ele>237</ele>
        <time>2018-09-13T09:14:05Z</time>
      </trkpt>
      <trkpt lat="45.89067" lon="4.85893">
        <ele>237</ele>
        <time>2018-09-13T09:14:06Z</time>
      </trkpt>
      <trkpt lat="45.89073" lon="4.85903">
        <ele>238</ele>
        <time>2018-09-13T09:14:09Z</time>
      </trkpt>
      <trkpt lat="45.89075" lon="4.85906">
        <ele>239</ele>
        <time>2018-09-13T09:14:10Z</time>
      </trkpt>
      <trkpt lat="45.89079" lon="4.85912">
        <ele>240</ele>
        <time>2018-09-13T09:14:12Z</time>
      </trkpt>
      <trkpt lat="45.89081" lon="4.85916">
        <ele>240</ele>
        <time>2018-09-13T09:14:13Z</time>
      </trkpt>
      <trkpt lat="45.89085" lon="4.85922">
        <ele>243</ele>
        <time>2018-09-13T09:14:15Z</time>
      </trkpt>
      <trkpt lat="45.89088" lon="4.85925">
        <ele>243</ele>
        <time>2018-09-13T09:14:16Z</time>
      </trkpt>
      <trkpt lat="45.89093" lon="4.85932">
        <ele>245</ele>
        <time>2018-09-13T09:14:18Z</time>
      </trkpt>
      <trkpt lat="45.89095" lon="4.85935">
        <ele>245</ele>
        <time>2018-09-13T09:14:19Z</time>
      </trkpt>
      <trkpt lat="45.89101" lon="4.85943">
        <ele>246</ele>
        <time>2018-09-13T09:14:22Z</time>
      </trkpt>
      <trkpt lat="45.89103" lon="4.85946">
        <ele>246</ele>
        <time>2018-09-13T09:14:23Z</time>
      </trkpt>
      <trkpt lat="45.89108" lon="4.85954">
        <ele>247</ele>
        <time>2018-09-13T09:14:26Z</time>
      </trkpt>
      <trkpt lat="45.8911" lon="4.85956">
        <ele>247</ele>
        <time>2018-09-13T09:14:27Z</time>
      </trkpt>
      <trkpt lat="45.89115" lon="4.85964">
        <ele>247</ele>
        <time>2018-09-13T09:14:30Z</time>
      </trkpt>
      <trkpt lat="45.89116" lon="4.85967">
        <ele>247</ele>
        <time>2018-09-13T09:14:31Z</time>
      </trkpt>
      <trkpt lat="45.89121" lon="4.85973">
        <ele>248</ele>
        <time>2018-09-13T09:14:34Z</time>
      </trkpt>
      <trkpt lat="45.89123" lon="4.85975">
        <ele>248</ele>
        <time>2018-09-13T09:14:35Z</time>
      </trkpt>
      <trkpt lat="45.89128" lon="4.85983">
        <ele>248</ele>
        <time>2018-09-13T09:14:38Z</time>
      </trkpt>
      <trkpt lat="45.89129" lon="4.85986">
        <ele>248</ele>
        <time>2018-09-13T09:14:39Z</time>
      </trkpt>
      <trkpt lat="45.89134" lon="4.85995">
        <ele>249</ele>
        <time>2018-09-13T09:14:42Z</time>
      </trkpt>
      <trkpt lat="45.89136" lon="4.85998">
        <ele>249</ele>
        <time>2018-09-13T09:14:43Z</time>
      </trkpt>
      <trkpt lat="45.8914" lon="4.86005">
        <ele>249</ele>
        <time>2018-09-13T09:14:46Z</time>
      </trkpt>
      <trkpt lat="45.89142" lon="4.86008">
        <ele>249</ele>
        <time>2018-09-13T09:14:47Z</time>
      </trkpt>
      <trkpt lat="45.89149" lon="4.86014">
        <ele>249</ele>
        <time>2018-09-13T09:14:50Z</time>
      </trkpt>
      <trkpt lat="45.8915" lon="4.86016">
        <ele>250</ele>
        <time>2018-09-13T09:14:51Z</time>
      </trkpt>
      <trkpt lat="45.89156" lon="4.86026">
        <ele>249</ele>
        <time>2018-09-13T09:14:55Z</time>
      </trkpt>
      <trkpt lat="45.89157" lon="4.86029">
        <ele>249</ele>
        <time>2018-09-13T09:14:56Z</time>
      </trkpt>
      <trkpt lat="45.89163" lon="4.86035">
        <ele>250</ele>
        <time>2018-09-13T09:14:59Z</time>
      </trkpt>
      <trkpt lat="45.89165" lon="4.86037">
        <ele>250</ele>
        <time>2018-09-13T09:15:00Z</time>
      </trkpt>
      <trkpt lat="45.89172" lon="4.8604">
        <ele>258</ele>
        <time>2018-09-13T09:15:03Z</time>
      </trkpt>
      <trkpt lat="45.89175" lon="4.86041">
        <ele>258</ele>
        <time>2018-09-13T09:15:04Z</time>
      </trkpt>
      <trkpt lat="45.89182" lon="4.86045">
        <ele>259</ele>
        <time>2018-09-13T09:15:07Z</time>
      </trkpt>
      <trkpt lat="45.89184" lon="4.86047">
        <ele>259</ele>
        <time>2018-09-13T09:15:08Z</time>
      </trkpt>
      <trkpt lat="45.89192" lon="4.86051">
        <ele>259</ele>
        <time>2018-09-13T09:15:11Z</time>
      </trkpt>
      <trkpt lat="45.89194" lon="4.86053">
        <ele>259</ele>
        <time>2018-09-13T09:15:12Z</time>
      </trkpt>
      <trkpt lat="45.892" lon="4.86057">
        <ele>260</ele>
        <time>2018-09-13T09:15:15Z</time>
      </trkpt>
      <trkpt lat="45.89202" lon="4.86059">
        <ele>260</ele>
        <time>2018-09-13T09:15:16Z</time>
      </trkpt>
      <trkpt lat="45.89209" lon="4.86064">
        <ele>260</ele>
        <time>2018-09-13T09:15:19Z</time>
      </trkpt>
      <trkpt lat="45.89212" lon="4.86065">
        <ele>260</ele>
        <time>2018-09-13T09:15:20Z</time>
      </trkpt>
      <trkpt lat="45.89219" lon="4.8607">
        <ele>260</ele>
        <time>2018-09-13T09:15:23Z</time>
      </trkpt>
      <trkpt lat="45.89221" lon="4.86071">
        <ele>261</ele>
        <time>2018-09-13T09:15:24Z</time>
      </trkpt>
      <trkpt lat="45.89229" lon="4.86076">
        <ele>261</ele>
        <time>2018-09-13T09:15:28Z</time>
      </trkpt>
      <trkpt lat="45.89231" lon="4.86077">
        <ele>261</ele>
        <time>2018-09-13T09:15:29Z</time>
      </trkpt>
      <trkpt lat="45.89238" lon="4.8608">
        <ele>261</ele>
        <time>2018-09-13T09:15:32Z</time>
      </trkpt>
      <trkpt lat="45.8924" lon="4.86081">
        <ele>261</ele>
        <time>2018-09-13T09:15:33Z</time>
      </trkpt>
      <trkpt lat="45.89248" lon="4.86084">
        <ele>261</ele>
        <time>2018-09-13T09:15:36Z</time>
      </trkpt>
      <trkpt lat="45.8925" lon="4.86085">
        <ele>261</ele>
        <time>2018-09-13T09:15:37Z</time>
      </trkpt>
      <trkpt lat="45.89257" lon="4.86089">
        <ele>261</ele>
        <time>2018-09-13T09:15:40Z</time>
      </trkpt>
      <trkpt lat="45.89259" lon="4.86091">
        <ele>261</ele>
        <time>2018-09-13T09:15:41Z</time>
      </trkpt>
      <trkpt lat="45.89265" lon="4.86095">
        <ele>261</ele>
        <time>2018-09-13T09:15:44Z</time>
      </trkpt>
      <trkpt lat="45.89268" lon="4.86097">
        <ele>261</ele>
        <time>2018-09-13T09:15:45Z</time>
      </trkpt>
      <trkpt lat="45.89274" lon="4.86101">
        <ele>261</ele>
        <time>2018-09-13T09:15:48Z</time>
      </trkpt>
      <trkpt lat="45.89276" lon="4.86102">
        <ele>261</ele>
        <time>2018-09-13T09:15:49Z</time>
      </trkpt>
      <trkpt lat="45.89283" lon="4.86107">
        <ele>261</ele>
        <time>2018-09-13T09:15:52Z</time>
      </trkpt>
      <trkpt lat="45.89285" lon="4.86108">
        <ele>261</ele>
        <time>2018-09-13T09:15:53Z</time>
      </trkpt>
      <trkpt lat="45.89291" lon="4.86114">
        <ele>261</ele>
        <time>2018-09-13T09:15:56Z</time>
      </trkpt>
      <trkpt lat="45.89294" lon="4.86116">
        <ele>261</ele>
        <time>2018-09-13T09:15:57Z</time>
      </trkpt>
      <trkpt lat="45.893" lon="4.86121">
        <ele>261</ele>
        <time>2018-09-13T09:16:00Z</time>
      </trkpt>
      <trkpt lat="45.89302" lon="4.86123">
        <ele>261</ele>
        <time>2018-09-13T09:16:01Z</time>
      </trkpt>
      <trkpt lat="45.89308" lon="4.86128">
        <ele>261</ele>
        <time>2018-09-13T09:16:04Z</time>
      </trkpt>
      <trkpt lat="45.8931" lon="4.86129">
        <ele>260</ele>
        <time>2018-09-13T09:16:05Z</time>
      </trkpt>
      <trkpt lat="45.89317" lon="4.86135">
        <ele>260</ele>
        <time>2018-09-13T09:16:09Z</time>
      </trkpt>
      <trkpt lat="45.89319" lon="4.86136">
        <ele>260</ele>
        <time>2018-09-13T09:16:10Z</time>
      </trkpt>
      <trkpt lat="45.89325" lon="4.86143">
        <ele>260</ele>
        <time>2018-09-13T09:16:14Z</time>
      </trkpt>
      <trkpt lat="45.89326" lon="4.86145">
        <ele>260</ele>
        <time>2018-09-13T09:16:15Z</time>
      </trkpt>
      <trkpt lat="45.89332" lon="4.86151">
        <ele>260</ele>
        <time>2018-09-13T09:16:18Z</time>
      </trkpt>
      <trkpt lat="45.89334" lon="4.86152">
        <ele>262</ele>
        <time>2018-09-13T09:16:19Z</time>
      </trkpt>
      <trkpt lat="45.89341" lon="4.86159">
        <ele>262</ele>
        <time>2018-09-13T09:16:23Z</time>
      </trkpt>
      <trkpt lat="45.89343" lon="4.8616">
        <ele>262</ele>
        <time>2018-09-13T09:16:24Z</time>
      </trkpt>
      <trkpt lat="45.8935" lon="4.86169">
        <ele>263</ele>
        <time>2018-09-13T09:16:28Z</time>
      </trkpt>
      <trkpt lat="45.89352" lon="4.86171">
        <ele>263</ele>
        <time>2018-09-13T09:16:29Z</time>
      </trkpt>
      <trkpt lat="45.89357" lon="4.86178">
        <ele>265</ele>
        <time>2018-09-13T09:16:32Z</time>
      </trkpt>
      <trkpt lat="45.89359" lon="4.8618">
        <ele>265</ele>
        <time>2018-09-13T09:16:33Z</time>
      </trkpt>
      <trkpt lat="45.89366" lon="4.86187">
        <ele>266</ele>
        <time>2018-09-13T09:16:37Z</time>
      </trkpt>
      <trkpt lat="45.89368" lon="4.86189">
        <ele>266</ele>
        <time>2018-09-13T09:16:38Z</time>
      </trkpt>
      <trkpt lat="45.89373" lon="4.86195">
        <ele>266</ele>
        <time>2018-09-13T09:16:41Z</time>
      </trkpt>
      <trkpt lat="45.89374" lon="4.86197">
        <ele>267</ele>
        <time>2018-09-13T09:16:42Z</time>
      </trkpt>
      <trkpt lat="45.89381" lon="4.86205">
        <ele>267</ele>
        <time>2018-09-13T09:16:46Z</time>
      </trkpt>
      <trkpt lat="45.89383" lon="4.86207">
        <ele>267</ele>
        <time>2018-09-13T09:16:47Z</time>
      </trkpt>
      <trkpt lat="45.89389" lon="4.86216">
        <ele>268</ele>
        <time>2018-09-13T09:16:51Z</time>
      </trkpt>
      <trkpt lat="45.89391" lon="4.86218">
        <ele>268</ele>
        <time>2018-09-13T09:16:52Z</time>
      </trkpt>
      <trkpt lat="45.89397" lon="4.86226">
        <ele>268</ele>
        <time>2018-09-13T09:16:56Z</time>
      </trkpt>
      <trkpt lat="45.89398" lon="4.86227">
        <ele>268</ele>
        <time>2018-09-13T09:16:57Z</time>
      </trkpt>
      <trkpt lat="45.89404" lon="4.86234">
        <ele>268</ele>
        <time>2018-09-13T09:17:01Z</time>
      </trkpt>
      <trkpt lat="45.89405" lon="4.86236">
        <ele>268</ele>
        <time>2018-09-13T09:17:02Z</time>
      </trkpt>
      <trkpt lat="45.89411" lon="4.86243">
        <ele>269</ele>
        <time>2018-09-13T09:17:06Z</time>
      </trkpt>
      <trkpt lat="45.89412" lon="4.86245">
        <ele>269</ele>
        <time>2018-09-13T09:17:07Z</time>
      </trkpt>
      <trkpt lat="45.89419" lon="4.86253">
        <ele>270</ele>
        <time>2018-09-13T09:17:11Z</time>
      </trkpt>
      <trkpt lat="45.8942" lon="4.86255">
        <ele>270</ele>
        <time>2018-09-13T09:17:12Z</time>
      </trkpt>
      <trkpt lat="45.89427" lon="4.86262">
        <ele>272</ele>
        <time>2018-09-13T09:17:16Z</time>
      </trkpt>
      <trkpt lat="45.89429" lon="4.86263">
        <ele>272</ele>
        <time>2018-09-13T09:17:17Z</time>
      </trkpt>
      <trkpt lat="45.89436" lon="4.86267">
        <ele>273</ele>
        <time>2018-09-13T09:17:20Z</time>
      </trkpt>
      <trkpt lat="45.89437" lon="4.86269">
        <ele>274</ele>
        <time>2018-09-13T09:17:21Z</time>
      </trkpt>
      <trkpt lat="45.89444" lon="4.86276">
        <ele>274</ele>
        <time>2018-09-13T09:17:25Z</time>
      </trkpt>
      <trkpt lat="45.89446" lon="4.86278">
        <ele>274</ele>
        <time>2018-09-13T09:17:26Z</time>
      </trkpt>
      <trkpt lat="45.89454" lon="4.86284">
        <ele>275</ele>
        <time>2018-09-13T09:17:30Z</time>
      </trkpt>
      <trkpt lat="45.89456" lon="4.86285">
        <ele>275</ele>
        <time>2018-09-13T09:17:31Z</time>
      </trkpt>
      <trkpt lat="45.89463" lon="4.86292">
        <ele>275</ele>
        <time>2018-09-13T09:17:35Z</time>
      </trkpt>
      <trkpt lat="45.89465" lon="4.86293">
        <ele>275</ele>
        <time>2018-09-13T09:17:36Z</time>
      </trkpt>
      <trkpt lat="45.89472" lon="4.86298">
        <ele>275</ele>
        <time>2018-09-13T09:17:40Z</time>
      </trkpt>
      <trkpt lat="45.89474" lon="4.86299">
        <ele>275</ele>
        <time>2018-09-13T09:17:41Z</time>
      </trkpt>
      <trkpt lat="45.89482" lon="4.86304">
        <ele>275</ele>
        <time>2018-09-13T09:17:45Z</time>
      </trkpt>
      <trkpt lat="45.89484" lon="4.86306">
        <ele>275</ele>
        <time>2018-09-13T09:17:46Z</time>
      </trkpt>
      <trkpt lat="45.89492" lon="4.8631">
        <ele>275</ele>
        <time>2018-09-13T09:17:50Z</time>
      </trkpt>
      <trkpt lat="45.89494" lon="4.86311">
        <ele>275</ele>
        <time>2018-09-13T09:17:51Z</time>
      </trkpt>
      <trkpt lat="45.89501" lon="4.86315">
        <ele>276</ele>
        <time>2018-09-13T09:17:54Z</time>
      </trkpt>
      <trkpt lat="45.89503" lon="4.86315">
        <ele>276</ele>
        <time>2018-09-13T09:17:55Z</time>
      </trkpt>
      <trkpt lat="45.89511" lon="4.86319">
        <ele>276</ele>
        <time>2018-09-13T09:17:59Z</time>
      </trkpt>
      <trkpt lat="45.89513" lon="4.8632">
        <ele>276</ele>
        <time>2018-09-13T09:18:00Z</time>
      </trkpt>
      <trkpt lat="45.89521" lon="4.86323">
        <ele>277</ele>
        <time>2018-09-13T09:18:04Z</time>
      </trkpt>
      <trkpt lat="45.89523" lon="4.86324">
        <ele>277</ele>
        <time>2018-09-13T09:18:05Z</time>
      </trkpt>
      <trkpt lat="45.89531" lon="4.86328">
        <ele>277</ele>
        <time>2018-09-13T09:18:09Z</time>
      </trkpt>
      <trkpt lat="45.89532" lon="4.8633">
        <ele>277</ele>
        <time>2018-09-13T09:18:10Z</time>
      </trkpt>
      <trkpt lat="45.89539" lon="4.86333">
        <ele>277</ele>
        <time>2018-09-13T09:18:14Z</time>
      </trkpt>
      <trkpt lat="45.89541" lon="4.86334">
        <ele>278</ele>
        <time>2018-09-13T09:18:15Z</time>
      </trkpt>
      <trkpt lat="45.89548" lon="4.86339">
        <ele>278</ele>
        <time>2018-09-13T09:18:19Z</time>
      </trkpt>
      <trkpt lat="45.8955" lon="4.8634">
        <ele>278</ele>
        <time>2018-09-13T09:18:20Z</time>
      </trkpt>
      <trkpt lat="45.89557" lon="4.86347">
        <ele>278</ele>
        <time>2018-09-13T09:18:24Z</time>
      </trkpt>
      <trkpt lat="45.89558" lon="4.86349">
        <ele>278</ele>
        <time>2018-09-13T09:18:25Z</time>
      </trkpt>
      <trkpt lat="45.89566" lon="4.86355">
        <ele>278</ele>
        <time>2018-09-13T09:18:29Z</time>
      </trkpt>
      <trkpt lat="45.89568" lon="4.86357">
        <ele>279</ele>
        <time>2018-09-13T09:18:30Z</time>
      </trkpt>
      <trkpt lat="45.89574" lon="4.86362">
        <ele>279</ele>
        <time>2018-09-13T09:18:33Z</time>
      </trkpt>
      <trkpt lat="45.89576" lon="4.86363">
        <ele>279</ele>
        <time>2018-09-13T09:18:34Z</time>
      </trkpt>
      <trkpt lat="45.89582" lon="4.86368">
        <ele>279</ele>
        <time>2018-09-13T09:18:37Z</time>
      </trkpt>
      <trkpt lat="45.89584" lon="4.8637">
        <ele>280</ele>
        <time>2018-09-13T09:18:38Z</time>
      </trkpt>
      <trkpt lat="45.8959" lon="4.86375">
        <ele>280</ele>
        <time>2018-09-13T09:18:41Z</time>
      </trkpt>
      <trkpt lat="45.89592" lon="4.86377">
        <ele>281</ele>
        <time>2018-09-13T09:18:42Z</time>
      </trkpt>
      <trkpt lat="45.89597" lon="4.86384">
        <ele>281</ele>
        <time>2018-09-13T09:18:45Z</time>
      </trkpt>
      <trkpt lat="45.89599" lon="4.86386">
        <ele>281</ele>
        <time>2018-09-13T09:18:46Z</time>
      </trkpt>
      <trkpt lat="45.89604" lon="4.86395">
        <ele>281</ele>
        <time>2018-09-13T09:18:49Z</time>
      </trkpt>
      <trkpt lat="45.89606" lon="4.86397">
        <ele>281</ele>
        <time>2018-09-13T09:18:50Z</time>
      </trkpt>
      <trkpt lat="45.89611" lon="4.86404">
        <ele>281</ele>
        <time>2018-09-13T09:18:53Z</time>
      </trkpt>
      <trkpt lat="45.89613" lon="4.86406">
        <ele>281</ele>
        <time>2018-09-13T09:18:54Z</time>
      </trkpt>
      <trkpt lat="45.89619" lon="4.86416">
        <ele>281</ele>
        <time>2018-09-13T09:18:58Z</time>
      </trkpt>
      <trkpt lat="45.89621" lon="4.86418">
        <ele>282</ele>
        <time>2018-09-13T09:18:59Z</time>
      </trkpt>
      <trkpt lat="45.89626" lon="4.86425">
        <ele>282</ele>
        <time>2018-09-13T09:19:02Z</time>
      </trkpt>
      <trkpt lat="45.89628" lon="4.86427">
        <ele>282</ele>
        <time>2018-09-13T09:19:03Z</time>
      </trkpt>
      <trkpt lat="45.89634" lon="4.86436">
        <ele>282</ele>
        <time>2018-09-13T09:19:07Z</time>
      </trkpt>
      <trkpt lat="45.89635" lon="4.86439">
        <ele>282</ele>
        <time>2018-09-13T09:19:08Z</time>
      </trkpt>
      <trkpt lat="45.89641" lon="4.86447">
        <ele>282</ele>
        <time>2018-09-13T09:19:12Z</time>
      </trkpt>
      <trkpt lat="45.89642" lon="4.86449">
        <ele>282</ele>
        <time>2018-09-13T09:19:13Z</time>
      </trkpt>
      <trkpt lat="45.89648" lon="4.86457">
        <ele>282</ele>
        <time>2018-09-13T09:19:17Z</time>
      </trkpt>
      <trkpt lat="45.89649" lon="4.86459">
        <ele>282</ele>
        <time>2018-09-13T09:19:18Z</time>
      </trkpt>
      <trkpt lat="45.89656" lon="4.86467">
        <ele>282</ele>
        <time>2018-09-13T09:19:22Z</time>
      </trkpt>
      <trkpt lat="45.89657" lon="4.86469">
        <ele>282</ele>
        <time>2018-09-13T09:19:23Z</time>
      </trkpt>
      <trkpt lat="45.89665" lon="4.86477">
        <ele>282</ele>
        <time>2018-09-13T09:19:27Z</time>
      </trkpt>
      <trkpt lat="45.89666" lon="4.86479">
        <ele>282</ele>
        <time>2018-09-13T09:19:28Z</time>
      </trkpt>
      <trkpt lat="45.89672" lon="4.86484">
        <ele>283</ele>
        <time>2018-09-13T09:19:31Z</time>
      </trkpt>
      <trkpt lat="45.89674" lon="4.86486">
        <ele>283</ele>
        <time>2018-09-13T09:19:32Z</time>
      </trkpt>
      <trkpt lat="45.8968" lon="4.86491">
        <ele>283</ele>
        <time>2018-09-13T09:19:35Z</time>
      </trkpt>
      <trkpt lat="45.89682" lon="4.86493">
        <ele>283</ele>
        <time>2018-09-13T09:19:36Z</time>
      </trkpt>
      <trkpt lat="45.89689" lon="4.86501">
        <ele>283</ele>
        <time>2018-09-13T09:19:40Z</time>
      </trkpt>
      <trkpt lat="45.8969" lon="4.86503">
        <ele>283</ele>
        <time>2018-09-13T09:19:41Z</time>
      </trkpt>
      <trkpt lat="45.89695" lon="4.86511">
        <ele>283</ele>
        <time>2018-09-13T09:19:44Z</time>
      </trkpt>
      <trkpt lat="45.89697" lon="4.86513">
        <ele>283</ele>
        <time>2018-09-13T09:19:45Z</time>
      </trkpt>
      <trkpt lat="45.89703" lon="4.8652">
        <ele>284</ele>
        <time>2018-09-13T09:19:48Z</time>
      </trkpt>
      <trkpt lat="45.89705" lon="4.86521">
        <ele>284</ele>
        <time>2018-09-13T09:19:49Z</time>
      </trkpt>
      <trkpt lat="45.89712" lon="4.86527">
        <ele>284</ele>
        <time>2018-09-13T09:19:52Z</time>
      </trkpt>
      <trkpt lat="45.8972" lon="4.86532">
        <ele>284</ele>
        <time>2018-09-13T09:19:53Z</time>
      </trkpt>
      <trkpt lat="45.89726" lon="4.86536">
        <ele>284</ele>
        <time>2018-09-13T09:19:56Z</time>
      </trkpt>
      <trkpt lat="45.89728" lon="4.86538">
        <ele>284</ele>
        <time>2018-09-13T09:19:57Z</time>
      </trkpt>
      <trkpt lat="45.8973" lon="4.8654">
        <ele>284</ele>
        <time>2018-09-13T09:19:58Z</time>
      </trkpt>
      <trkpt lat="45.89738" lon="4.86547">
        <ele>284</ele>
        <time>2018-09-13T09:19:59Z</time>
      </trkpt>
      <trkpt lat="45.89742" lon="4.86549">
        <ele>284</ele>
        <time>2018-09-13T09:20:01Z</time>
      </trkpt>
      <trkpt lat="45.89747" lon="4.86554">
        <ele>284</ele>
        <time>2018-09-13T09:20:02Z</time>
      </trkpt>
      <trkpt lat="45.89754" lon="4.8656">
        <ele>284</ele>
        <time>2018-09-13T09:20:05Z</time>
      </trkpt>
      <trkpt lat="45.89756" lon="4.86562">
        <ele>284</ele>
        <time>2018-09-13T09:20:06Z</time>
      </trkpt>
      <trkpt lat="45.89763" lon="4.86568">
        <ele>284</ele>
        <time>2018-09-13T09:20:09Z</time>
      </trkpt>
      <trkpt lat="45.89771" lon="4.86575">
        <ele>284</ele>
        <time>2018-09-13T09:20:10Z</time>
      </trkpt>
      <trkpt lat="45.89779" lon="4.86581">
        <ele>284</ele>
        <time>2018-09-13T09:20:13Z</time>
      </trkpt>
      <trkpt lat="45.89781" lon="4.86582">
        <ele>284</ele>
        <time>2018-09-13T09:20:14Z</time>
      </trkpt>
      <trkpt lat="45.89787" lon="4.86588">
        <ele>285</ele>
        <time>2018-09-13T09:20:17Z</time>
      </trkpt>
      <trkpt lat="45.89789" lon="4.8659">
        <ele>285</ele>
        <time>2018-09-13T09:20:18Z</time>
      </trkpt>
      <trkpt lat="45.89794" lon="4.86595">
        <ele>285</ele>
        <time>2018-09-13T09:20:20Z</time>
      </trkpt>
      <trkpt lat="45.89796" lon="4.86598">
        <ele>285</ele>
        <time>2018-09-13T09:20:21Z</time>
      </trkpt>
      <trkpt lat="45.89799" lon="4.86601">
        <ele>285</ele>
        <time>2018-09-13T09:20:22Z</time>
      </trkpt>
      <trkpt lat="45.89807" lon="4.8661">
        <ele>285</ele>
        <time>2018-09-13T09:20:23Z</time>
      </trkpt>
      <trkpt lat="45.89812" lon="4.86617">
        <ele>285</ele>
        <time>2018-09-13T09:20:26Z</time>
      </trkpt>
      <trkpt lat="45.89813" lon="4.86619">
        <ele>285</ele>
        <time>2018-09-13T09:20:27Z</time>
      </trkpt>
      <trkpt lat="45.89817" lon="4.86624">
        <ele>285</ele>
        <time>2018-09-13T09:20:29Z</time>
      </trkpt>
      <trkpt lat="45.89824" lon="4.86631">
        <ele>285</ele>
        <time>2018-09-13T09:20:30Z</time>
      </trkpt>
      <trkpt lat="45.8983" lon="4.86637">
        <ele>285</ele>
        <time>2018-09-13T09:20:32Z</time>
      </trkpt>
      <trkpt lat="45.89833" lon="4.86641">
        <ele>285</ele>
        <time>2018-09-13T09:20:33Z</time>
      </trkpt>
      <trkpt lat="45.8984" lon="4.86648">
        <ele>285</ele>
        <time>2018-09-13T09:20:37Z</time>
      </trkpt>
      <trkpt lat="45.89842" lon="4.8665">
        <ele>285</ele>
        <time>2018-09-13T09:20:38Z</time>
      </trkpt>
      <trkpt lat="45.89849" lon="4.86658">
        <ele>285</ele>
        <time>2018-09-13T09:20:41Z</time>
      </trkpt>
      <trkpt lat="45.89851" lon="4.8666">
        <ele>285</ele>
        <time>2018-09-13T09:20:42Z</time>
      </trkpt>
      <trkpt lat="45.89854" lon="4.86663">
        <ele>285</ele>
        <time>2018-09-13T09:20:43Z</time>
      </trkpt>
      <trkpt lat="45.89861" lon="4.86671">
        <ele>286</ele>
        <time>2018-09-13T09:20:44Z</time>
      </trkpt>
      <trkpt lat="45.89869" lon="4.86677">
        <ele>286</ele>
        <time>2018-09-13T09:20:47Z</time>
      </trkpt>
      <trkpt lat="45.89871" lon="4.86679">
        <ele>286</ele>
        <time>2018-09-13T09:20:48Z</time>
      </trkpt>
      <trkpt lat="45.89875" lon="4.86684">
        <ele>286</ele>
        <time>2018-09-13T09:20:50Z</time>
      </trkpt>
      <trkpt lat="45.89881" lon="4.86691">
        <ele>286</ele>
        <time>2018-09-13T09:20:51Z</time>
      </trkpt>
      <trkpt lat="45.89887" lon="4.86698">
        <ele>286</ele>
        <time>2018-09-13T09:20:53Z</time>
      </trkpt>
      <trkpt lat="45.89891" lon="4.86701">
        <ele>286</ele>
        <time>2018-09-13T09:20:54Z</time>
      </trkpt>
      <trkpt lat="45.89897" lon="4.86708">
        <ele>286</ele>
        <time>2018-09-13T09:20:56Z</time>
      </trkpt>
      <trkpt lat="45.89901" lon="4.86711">
        <ele>286</ele>
        <time>2018-09-13T09:20:57Z</time>
      </trkpt>
      <trkpt lat="45.89907" lon="4.86718">
        <ele>286</ele>
        <time>2018-09-13T09:20:59Z</time>
      </trkpt>
      <trkpt lat="45.8991" lon="4.86721">
        <ele>286</ele>
        <time>2018-09-13T09:21:00Z</time>
      </trkpt>
      <trkpt lat="45.89916" lon="4.86726">
        <ele>287</ele>
        <time>2018-09-13T09:21:03Z</time>
      </trkpt>
      <trkpt lat="45.89918" lon="4.86728">
        <ele>287</ele>
        <time>2018-09-13T09:21:04Z</time>
      </trkpt>
      <trkpt lat="45.89922" lon="4.86734">
        <ele>287</ele>
        <time>2018-09-13T09:21:06Z</time>
      </trkpt>
      <trkpt lat="45.89929" lon="4.86742">
        <ele>287</ele>
        <time>2018-09-13T09:21:07Z</time>
      </trkpt>
      <trkpt lat="45.89935" lon="4.8675">
        <ele>287</ele>
        <time>2018-09-13T09:21:09Z</time>
      </trkpt>
      <trkpt lat="45.89939" lon="4.86752">
        <ele>287</ele>
        <time>2018-09-13T09:21:10Z</time>
      </trkpt>
      <trkpt lat="45.89946" lon="4.86758">
        <ele>287</ele>
        <time>2018-09-13T09:21:12Z</time>
      </trkpt>
      <trkpt lat="45.89949" lon="4.86762">
        <ele>287</ele>
        <time>2018-09-13T09:21:13Z</time>
      </trkpt>
      <trkpt lat="45.89956" lon="4.86767">
        <ele>287</ele>
        <time>2018-09-13T09:21:16Z</time>
      </trkpt>
      <trkpt lat="45.89958" lon="4.86769">
        <ele>288</ele>
        <time>2018-09-13T09:21:17Z</time>
      </trkpt>
      <trkpt lat="45.89965" lon="4.86774">
        <ele>288</ele>
        <time>2018-09-13T09:21:18Z</time>
      </trkpt>
      <trkpt lat="45.89968" lon="4.86777">
        <ele>288</ele>
        <time>2018-09-13T09:21:19Z</time>
      </trkpt>
      <trkpt lat="45.89975" lon="4.86784">
        <ele>288</ele>
        <time>2018-09-13T09:21:21Z</time>
      </trkpt>
      <trkpt lat="45.89978" lon="4.86787">
        <ele>288</ele>
        <time>2018-09-13T09:21:22Z</time>
      </trkpt>
      <trkpt lat="45.89985" lon="4.86794">
        <ele>288</ele>
        <time>2018-09-13T09:21:24Z</time>
      </trkpt>
      <trkpt lat="45.89988" lon="4.86797">
        <ele>288</ele>
        <time>2018-09-13T09:21:25Z</time>
      </trkpt>
      <trkpt lat="45.89994" lon="4.86802">
        <ele>288</ele>
        <time>2018-09-13T09:21:28Z</time>
      </trkpt>
      <trkpt lat="45.89996" lon="4.86804">
        <ele>288</ele>
        <time>2018-09-13T09:21:29Z</time>
      </trkpt>
      <trkpt lat="45.89998" lon="4.86807">
        <ele>288</ele>
        <time>2018-09-13T09:21:30Z</time>
      </trkpt>
      <trkpt lat="45.90006" lon="4.86814">
        <ele>288</ele>
        <time>2018-09-13T09:21:31Z</time>
      </trkpt>
      <trkpt lat="45.90013" lon="4.8682">
        <ele>288</ele>
        <time>2018-09-13T09:21:33Z</time>
      </trkpt>
      <trkpt lat="45.90016" lon="4.86824">
        <ele>288</ele>
        <time>2018-09-13T09:21:34Z</time>
      </trkpt>
      <trkpt lat="45.90022" lon="4.86831">
        <ele>288</ele>
        <time>2018-09-13T09:21:36Z</time>
      </trkpt>
      <trkpt lat="45.90023" lon="4.86833">
        <ele>288</ele>
        <time>2018-09-13T09:21:37Z</time>
      </trkpt>
      <trkpt lat="45.90029" lon="4.86839">
        <ele>289</ele>
        <time>2018-09-13T09:21:40Z</time>
      </trkpt>
      <trkpt lat="45.90031" lon="4.86841">
        <ele>289</ele>
        <time>2018-09-13T09:21:41Z</time>
      </trkpt>
      <trkpt lat="45.90038" lon="4.86847">
        <ele>289</ele>
        <time>2018-09-13T09:21:42Z</time>
      </trkpt>
      <trkpt lat="45.90042" lon="4.8685">
        <ele>289</ele>
        <time>2018-09-13T09:21:43Z</time>
      </trkpt>
      <trkpt lat="45.90049" lon="4.86857">
        <ele>289</ele>
        <time>2018-09-13T09:21:45Z</time>
      </trkpt>
      <trkpt lat="45.90052" lon="4.8686">
        <ele>289</ele>
        <time>2018-09-13T09:21:46Z</time>
      </trkpt>
      <trkpt lat="45.90059" lon="4.86866">
        <ele>289</ele>
        <time>2018-09-13T09:21:48Z</time>
      </trkpt>
      <trkpt lat="45.90062" lon="4.86869">
        <ele>289</ele>
        <time>2018-09-13T09:21:49Z</time>
      </trkpt>
      <trkpt lat="45.90067" lon="4.86874">
        <ele>289</ele>
        <time>2018-09-13T09:21:52Z</time>
      </trkpt>
      <trkpt lat="45.90073" lon="4.86881">
        <ele>289</ele>
        <time>2018-09-13T09:21:53Z</time>
      </trkpt>
      <trkpt lat="45.90079" lon="4.86886">
        <ele>289</ele>
        <time>2018-09-13T09:21:55Z</time>
      </trkpt>
      <trkpt lat="45.90083" lon="4.86889">
        <ele>289</ele>
        <time>2018-09-13T09:21:56Z</time>
      </trkpt>
      <trkpt lat="45.90089" lon="4.86896">
        <ele>289</ele>
        <time>2018-09-13T09:21:58Z</time>
      </trkpt>
      <trkpt lat="45.9009" lon="4.86898">
        <ele>289</ele>
        <time>2018-09-13T09:21:59Z</time>
      </trkpt>
      <trkpt lat="45.90097" lon="4.86905">
        <ele>289</ele>
        <time>2018-09-13T09:22:01Z</time>
      </trkpt>
      <trkpt lat="45.901" lon="4.86909">
        <ele>289</ele>
        <time>2018-09-13T09:22:02Z</time>
      </trkpt>
      <trkpt lat="45.90106" lon="4.86915">
        <ele>289</ele>
        <time>2018-09-13T09:22:04Z</time>
      </trkpt>
      <trkpt lat="45.90109" lon="4.86918">
        <ele>289</ele>
        <time>2018-09-13T09:22:05Z</time>
      </trkpt>
      <trkpt lat="45.90115" lon="4.86925">
        <ele>289</ele>
        <time>2018-09-13T09:22:07Z</time>
      </trkpt>
      <trkpt lat="45.90119" lon="4.86929">
        <ele>289</ele>
        <time>2018-09-13T09:22:08Z</time>
      </trkpt>
      <trkpt lat="45.90126" lon="4.86935">
        <ele>289</ele>
        <time>2018-09-13T09:22:10Z</time>
      </trkpt>
      <trkpt lat="45.90129" lon="4.86938">
        <ele>289</ele>
        <time>2018-09-13T09:22:11Z</time>
      </trkpt>
      <trkpt lat="45.90136" lon="4.86945">
        <ele>289</ele>
        <time>2018-09-13T09:22:13Z</time>
      </trkpt>
      <trkpt lat="45.9014" lon="4.86948">
        <ele>289</ele>
        <time>2018-09-13T09:22:14Z</time>
      </trkpt>
      <trkpt lat="45.90147" lon="4.86953">
        <ele>289</ele>
        <time>2018-09-13T09:22:16Z</time>
      </trkpt>
      <trkpt lat="45.90151" lon="4.86955">
        <ele>289</ele>
        <time>2018-09-13T09:22:17Z</time>
      </trkpt>
      <trkpt lat="45.90158" lon="4.86961">
        <ele>290</ele>
        <time>2018-09-13T09:22:19Z</time>
      </trkpt>
      <trkpt lat="45.90162" lon="4.86963">
        <ele>290</ele>
        <time>2018-09-13T09:22:20Z</time>
      </trkpt>
      <trkpt lat="45.9017" lon="4.86969">
        <ele>290</ele>
        <time>2018-09-13T09:22:23Z</time>
      </trkpt>
      <trkpt lat="45.90175" lon="4.86974">
        <ele>290</ele>
        <time>2018-09-13T09:22:24Z</time>
      </trkpt>
      <trkpt lat="45.90181" lon="4.86979">
        <ele>290</ele>
        <time>2018-09-13T09:22:26Z</time>
      </trkpt>
      <trkpt lat="45.90185" lon="4.86982">
        <ele>290</ele>
        <time>2018-09-13T09:22:27Z</time>
      </trkpt>
      <trkpt lat="45.90193" lon="4.86987">
        <ele>290</ele>
        <time>2018-09-13T09:22:29Z</time>
      </trkpt>
      <trkpt lat="45.90196" lon="4.8699">
        <ele>290</ele>
        <time>2018-09-13T09:22:30Z</time>
      </trkpt>
      <trkpt lat="45.90203" lon="4.86996">
        <ele>290</ele>
        <time>2018-09-13T09:22:33Z</time>
      </trkpt>
      <trkpt lat="45.90206" lon="4.86998">
        <ele>290</ele>
        <time>2018-09-13T09:22:34Z</time>
      </trkpt>
      <trkpt lat="45.90212" lon="4.87004">
        <ele>291</ele>
        <time>2018-09-13T09:22:35Z</time>
      </trkpt>
      <trkpt lat="45.90214" lon="4.87005">
        <ele>291</ele>
        <time>2018-09-13T09:22:36Z</time>
      </trkpt>
      <trkpt lat="45.90221" lon="4.87013">
        <ele>291</ele>
        <time>2018-09-13T09:22:38Z</time>
      </trkpt>
      <trkpt lat="45.90224" lon="4.87017">
        <ele>291</ele>
        <time>2018-09-13T09:22:39Z</time>
      </trkpt>
      <trkpt lat="45.90231" lon="4.87024">
        <ele>291</ele>
        <time>2018-09-13T09:22:41Z</time>
      </trkpt>
      <trkpt lat="45.90235" lon="4.87028">
        <ele>291</ele>
        <time>2018-09-13T09:22:42Z</time>
      </trkpt>
      <trkpt lat="45.90241" lon="4.87036">
        <ele>291</ele>
        <time>2018-09-13T09:22:44Z</time>
      </trkpt>
      <trkpt lat="45.90243" lon="4.87038">
        <ele>291</ele>
        <time>2018-09-13T09:22:45Z</time>
      </trkpt>
      <trkpt lat="45.90247" lon="4.87044">
        <ele>292</ele>
        <time>2018-09-13T09:22:47Z</time>
      </trkpt>
      <trkpt lat="45.90253" lon="4.87051">
        <ele>291</ele>
        <time>2018-09-13T09:22:48Z</time>
      </trkpt>
      <trkpt lat="45.90259" lon="4.87058">
        <ele>291</ele>
        <time>2018-09-13T09:22:50Z</time>
      </trkpt>
      <trkpt lat="45.90262" lon="4.87062">
        <ele>291</ele>
        <time>2018-09-13T09:22:51Z</time>
      </trkpt>
      <trkpt lat="45.90269" lon="4.8707">
        <ele>291</ele>
        <time>2018-09-13T09:22:53Z</time>
      </trkpt>
      <trkpt lat="45.90272" lon="4.87074">
        <ele>291</ele>
        <time>2018-09-13T09:22:54Z</time>
      </trkpt>
      <trkpt lat="45.90276" lon="4.87078">
        <ele>291</ele>
        <time>2018-09-13T09:22:55Z</time>
      </trkpt>
      <trkpt lat="45.90279" lon="4.87083">
        <ele>291</ele>
        <time>2018-09-13T09:22:56Z</time>
      </trkpt>
      <trkpt lat="45.90283" lon="4.87087">
        <ele>291</ele>
        <time>2018-09-13T09:22:57Z</time>
      </trkpt>
      <trkpt lat="45.90287" lon="4.87091">
        <ele>291</ele>
        <time>2018-09-13T09:22:58Z</time>
      </trkpt>
      <trkpt lat="45.9029" lon="4.87096">
        <ele>291</ele>
        <time>2018-09-13T09:22:59Z</time>
      </trkpt>
      <trkpt lat="45.90293" lon="4.87101">
        <ele>291</ele>
        <time>2018-09-13T09:23:00Z</time>
      </trkpt>
      <trkpt lat="45.90297" lon="4.87106">
        <ele>291</ele>
        <time>2018-09-13T09:23:01Z</time>
      </trkpt>
      <trkpt lat="45.903" lon="4.87111">
        <ele>291</ele>
        <time>2018-09-13T09:23:02Z</time>
      </trkpt>
      <trkpt lat="45.90303" lon="4.87115">
        <ele>291</ele>
        <time>2018-09-13T09:23:03Z</time>
      </trkpt>
      <trkpt lat="45.90307" lon="4.87122">
        <ele>291</ele>
        <time>2018-09-13T09:23:04Z</time>
      </trkpt>
      <trkpt lat="45.9031" lon="4.87127">
        <ele>291</ele>
        <time>2018-09-13T09:23:05Z</time>
      </trkpt>
      <trkpt lat="45.90314" lon="4.87131">
        <ele>291</ele>
        <time>2018-09-13T09:23:06Z</time>
      </trkpt>
      <trkpt lat="45.90317" lon="4.87137">
        <ele>291</ele>
        <time>2018-09-13T09:23:07Z</time>
      </trkpt>
      <trkpt lat="45.9032" lon="4.87143">
        <ele>291</ele>
        <time>2018-09-13T09:23:08Z</time>
      </trkpt>
      <trkpt lat="45.90324" lon="4.87147">
        <ele>290</ele>
        <time>2018-09-13T09:23:09Z</time>
      </trkpt>
      <trkpt lat="45.90327" lon="4.87152">
        <ele>290</ele>
        <time>2018-09-13T09:23:10Z</time>
      </trkpt>
      <trkpt lat="45.90331" lon="4.8716">
        <ele>290</ele>
        <time>2018-09-13T09:23:11Z</time>
      </trkpt>
      <trkpt lat="45.90334" lon="4.87167">
        <ele>290</ele>
        <time>2018-09-13T09:23:12Z</time>
      </trkpt>
      <trkpt lat="45.90337" lon="4.87174">
        <ele>290</ele>
        <time>2018-09-13T09:23:13Z</time>
      </trkpt>
      <trkpt lat="45.90339" lon="4.87183">
        <ele>289</ele>
        <time>2018-09-13T09:23:14Z</time>
      </trkpt>
      <trkpt lat="45.90344" lon="4.87189">
        <ele>289</ele>
        <time>2018-09-13T09:23:15Z</time>
      </trkpt>
      <trkpt lat="45.90346" lon="4.87198">
        <ele>289</ele>
        <time>2018-09-13T09:23:16Z</time>
      </trkpt>
      <trkpt lat="45.9035" lon="4.87208">
        <ele>289</ele>
        <time>2018-09-13T09:23:17Z</time>
      </trkpt>
      <trkpt lat="45.90353" lon="4.87217">
        <ele>289</ele>
        <time>2018-09-13T09:23:18Z</time>
      </trkpt>
      <trkpt lat="45.90355" lon="4.87227">
        <ele>289</ele>
        <time>2018-09-13T09:23:19Z</time>
      </trkpt>
      <trkpt lat="45.90357" lon="4.87236">
        <ele>289</ele>
        <time>2018-09-13T09:23:20Z</time>
      </trkpt>
      <trkpt lat="45.9036" lon="4.87245">
        <ele>289</ele>
        <time>2018-09-13T09:23:21Z</time>
      </trkpt>
      <trkpt lat="45.90361" lon="4.87255">
        <ele>289</ele>
        <time>2018-09-13T09:23:22Z</time>
      </trkpt>
      <trkpt lat="45.90363" lon="4.87264">
        <ele>289</ele>
        <time>2018-09-13T09:23:23Z</time>
      </trkpt>
      <trkpt lat="45.90364" lon="4.87274">
        <ele>289</ele>
        <time>2018-09-13T09:23:24Z</time>
      </trkpt>
      <trkpt lat="45.90365" lon="4.87282">
        <ele>289</ele>
        <time>2018-09-13T09:23:25Z</time>
      </trkpt>
      <trkpt lat="45.90367" lon="4.87292">
        <ele>289</ele>
        <time>2018-09-13T09:23:26Z</time>
      </trkpt>
      <trkpt lat="45.90367" lon="4.87301">
        <ele>289</ele>
        <time>2018-09-13T09:23:27Z</time>
      </trkpt>
      <trkpt lat="45.90369" lon="4.87308">
        <ele>289</ele>
        <time>2018-09-13T09:23:28Z</time>
      </trkpt>
      <trkpt lat="45.90368" lon="4.87316">
        <ele>289</ele>
        <time>2018-09-13T09:23:29Z</time>
      </trkpt>
      <trkpt lat="45.90369" lon="4.87324">
        <ele>289</ele>
        <time>2018-09-13T09:23:30Z</time>
      </trkpt>
      <trkpt lat="45.9037" lon="4.87334">
        <ele>288</ele>
        <time>2018-09-13T09:23:31Z</time>
      </trkpt>
      <trkpt lat="45.90371" lon="4.87341">
        <ele>288</ele>
        <time>2018-09-13T09:23:32Z</time>
      </trkpt>
      <trkpt lat="45.90371" lon="4.87348">
        <ele>288</ele>
        <time>2018-09-13T09:23:33Z</time>
      </trkpt>
      <trkpt lat="45.90372" lon="4.87354">
        <ele>288</ele>
        <time>2018-09-13T09:23:34Z</time>
      </trkpt>
      <trkpt lat="45.90375" lon="4.87363">
        <ele>288</ele>
        <time>2018-09-13T09:23:35Z</time>
      </trkpt>
      <trkpt lat="45.90377" lon="4.8737">
        <ele>288</ele>
        <time>2018-09-13T09:23:36Z</time>
      </trkpt>
      <trkpt lat="45.90379" lon="4.87379">
        <ele>288</ele>
        <time>2018-09-13T09:23:37Z</time>
      </trkpt>
      <trkpt lat="45.9038" lon="4.87385">
        <ele>288</ele>
        <time>2018-09-13T09:23:38Z</time>
      </trkpt>
      <trkpt lat="45.90382" lon="4.87392">
        <ele>287</ele>
        <time>2018-09-13T09:23:39Z</time>
      </trkpt>
      <trkpt lat="45.90386" lon="4.87403">
        <ele>287</ele>
        <time>2018-09-13T09:23:40Z</time>
      </trkpt>
      <trkpt lat="45.9039" lon="4.87411">
        <ele>287</ele>
        <time>2018-09-13T09:23:41Z</time>
      </trkpt>
      <trkpt lat="45.90392" lon="4.87417">
        <ele>287</ele>
        <time>2018-09-13T09:23:42Z</time>
      </trkpt>
      <trkpt lat="45.90394" lon="4.87424">
        <ele>287</ele>
        <time>2018-09-13T09:23:43Z</time>
      </trkpt>
      <trkpt lat="45.90395" lon="4.87432">
        <ele>287</ele>
        <time>2018-09-13T09:23:44Z</time>
      </trkpt>
      <trkpt lat="45.90397" lon="4.87439">
        <ele>287</ele>
        <time>2018-09-13T09:23:45Z</time>
      </trkpt>
      <trkpt lat="45.904" lon="4.87445">
        <ele>287</ele>
        <time>2018-09-13T09:23:46Z</time>
      </trkpt>
      <trkpt lat="45.90402" lon="4.87452">
        <ele>287</ele>
        <time>2018-09-13T09:23:47Z</time>
      </trkpt>
      <trkpt lat="45.90403" lon="4.8746">
        <ele>287</ele>
        <time>2018-09-13T09:23:48Z</time>
      </trkpt>
      <trkpt lat="45.90405" lon="4.87469">
        <ele>286</ele>
        <time>2018-09-13T09:23:49Z</time>
      </trkpt>
      <trkpt lat="45.90408" lon="4.87477">
        <ele>286</ele>
        <time>2018-09-13T09:23:50Z</time>
      </trkpt>
      <trkpt lat="45.9041" lon="4.87485">
        <ele>286</ele>
        <time>2018-09-13T09:23:51Z</time>
      </trkpt>
      <trkpt lat="45.90412" lon="4.87492">
        <ele>286</ele>
        <time>2018-09-13T09:23:52Z</time>
      </trkpt>
      <trkpt lat="45.90415" lon="4.87499">
        <ele>286</ele>
        <time>2018-09-13T09:23:53Z</time>
      </trkpt>
      <trkpt lat="45.90417" lon="4.87506">
        <ele>286</ele>
        <time>2018-09-13T09:23:54Z</time>
      </trkpt>
      <trkpt lat="45.90419" lon="4.87514">
        <ele>286</ele>
        <time>2018-09-13T09:23:55Z</time>
      </trkpt>
      <trkpt lat="45.90422" lon="4.87521">
        <ele>286</ele>
        <time>2018-09-13T09:23:56Z</time>
      </trkpt>
      <trkpt lat="45.90424" lon="4.87529">
        <ele>286</ele>
        <time>2018-09-13T09:23:57Z</time>
      </trkpt>
      <trkpt lat="45.90426" lon="4.87537">
        <ele>286</ele>
        <time>2018-09-13T09:23:58Z</time>
      </trkpt>
      <trkpt lat="45.90428" lon="4.87545">
        <ele>286</ele>
        <time>2018-09-13T09:23:59Z</time>
      </trkpt>
      <trkpt lat="45.9043" lon="4.87553">
        <ele>286</ele>
        <time>2018-09-13T09:24:00Z</time>
      </trkpt>
      <trkpt lat="45.90433" lon="4.87562">
        <ele>286</ele>
        <time>2018-09-13T09:24:01Z</time>
      </trkpt>
      <trkpt lat="45.90435" lon="4.8757">
        <ele>286</ele>
        <time>2018-09-13T09:24:02Z</time>
      </trkpt>
      <trkpt lat="45.90437" lon="4.87579">
        <ele>286</ele>
        <time>2018-09-13T09:24:03Z</time>
      </trkpt>
      <trkpt lat="45.90439" lon="4.87588">
        <ele>287</ele>
        <time>2018-09-13T09:24:04Z</time>
      </trkpt>
      <trkpt lat="45.90441" lon="4.87597">
        <ele>287</ele>
        <time>2018-09-13T09:24:05Z</time>
      </trkpt>
      <trkpt lat="45.90442" lon="4.87605">
        <ele>287</ele>
        <time>2018-09-13T09:24:06Z</time>
      </trkpt>
      <trkpt lat="45.90445" lon="4.87614">
        <ele>287</ele>
        <time>2018-09-13T09:24:07Z</time>
      </trkpt>
      <trkpt lat="45.90448" lon="4.87628">
        <ele>287</ele>
        <time>2018-09-13T09:24:08Z</time>
      </trkpt>
      <trkpt lat="45.9045" lon="4.87637">
        <ele>287</ele>
        <time>2018-09-13T09:24:09Z</time>
      </trkpt>
      <trkpt lat="45.90453" lon="4.87646">
        <ele>287</ele>
        <time>2018-09-13T09:24:10Z</time>
      </trkpt>
      <trkpt lat="45.90455" lon="4.87655">
        <ele>287</ele>
        <time>2018-09-13T09:24:11Z</time>
      </trkpt>
      <trkpt lat="45.90457" lon="4.87665">
        <ele>287</ele>
        <time>2018-09-13T09:24:12Z</time>
      </trkpt>
      <trkpt lat="45.90459" lon="4.87674">
        <ele>287</ele>
        <time>2018-09-13T09:24:13Z</time>
      </trkpt>
      <trkpt lat="45.90462" lon="4.87684">
        <ele>287</ele>
        <time>2018-09-13T09:24:14Z</time>
      </trkpt>
      <trkpt lat="45.90464" lon="4.87694">
        <ele>287</ele>
        <time>2018-09-13T09:24:15Z</time>
      </trkpt>
      <trkpt lat="45.90468" lon="4.87706">
        <ele>287</ele>
        <time>2018-09-13T09:24:16Z</time>
      </trkpt>
      <trkpt lat="45.9047" lon="4.87716">
        <ele>287</ele>
        <time>2018-09-13T09:24:17Z</time>
      </trkpt>
      <trkpt lat="45.90472" lon="4.87727">
        <ele>287</ele>
        <time>2018-09-13T09:24:18Z</time>
      </trkpt>
      <trkpt lat="45.90475" lon="4.87736">
        <ele>287</ele>
        <time>2018-09-13T09:24:19Z</time>
      </trkpt>
      <trkpt lat="45.90477" lon="4.87749">
        <ele>287</ele>
        <time>2018-09-13T09:24:20Z</time>
      </trkpt>
      <trkpt lat="45.90479" lon="4.87759">
        <ele>287</ele>
        <time>2018-09-13T09:24:21Z</time>
      </trkpt>
      <trkpt lat="45.90482" lon="4.87768">
        <ele>287</ele>
        <time>2018-09-13T09:24:22Z</time>
      </trkpt>
      <trkpt lat="45.90485" lon="4.87777">
        <ele>287</ele>
        <time>2018-09-13T09:24:23Z</time>
      </trkpt>
      <trkpt lat="45.90487" lon="4.87786">
        <ele>287</ele>
        <time>2018-09-13T09:24:24Z</time>
      </trkpt>
      <trkpt lat="45.90489" lon="4.87795">
        <ele>288</ele>
        <time>2018-09-13T09:24:25Z</time>
      </trkpt>
      <trkpt lat="45.90491" lon="4.87803">
        <ele>288</ele>
        <time>2018-09-13T09:24:26Z</time>
      </trkpt>
      <trkpt lat="45.90493" lon="4.87811">
        <ele>288</ele>
        <time>2018-09-13T09:24:27Z</time>
      </trkpt>
      <trkpt lat="45.90495" lon="4.87819">
        <ele>288</ele>
        <time>2018-09-13T09:24:28Z</time>
      </trkpt>
      <trkpt lat="45.90497" lon="4.87827">
        <ele>288</ele>
        <time>2018-09-13T09:24:29Z</time>
      </trkpt>
      <trkpt lat="45.90499" lon="4.87834">
        <ele>288</ele>
        <time>2018-09-13T09:24:30Z</time>
      </trkpt>
      <trkpt lat="45.90501" lon="4.87841">
        <ele>288</ele>
        <time>2018-09-13T09:24:31Z</time>
      </trkpt>
      <trkpt lat="45.90503" lon="4.87848">
        <ele>288</ele>
        <time>2018-09-13T09:24:32Z</time>
      </trkpt>
      <trkpt lat="45.90505" lon="4.87857">
        <ele>289</ele>
        <time>2018-09-13T09:24:33Z</time>
      </trkpt>
      <trkpt lat="45.90507" lon="4.87865">
        <ele>289</ele>
        <time>2018-09-13T09:24:34Z</time>
      </trkpt>
      <trkpt lat="45.90509" lon="4.87872">
        <ele>289</ele>
        <time>2018-09-13T09:24:35Z</time>
      </trkpt>
      <trkpt lat="45.9051" lon="4.87879">
        <ele>289</ele>
        <time>2018-09-13T09:24:36Z</time>
      </trkpt>
      <trkpt lat="45.90511" lon="4.87887">
        <ele>289</ele>
        <time>2018-09-13T09:24:37Z</time>
      </trkpt>
      <trkpt lat="45.9051" lon="4.87893">
        <ele>289</ele>
        <time>2018-09-13T09:24:38Z</time>
      </trkpt>
      <trkpt lat="45.90507" lon="4.87897">
        <ele>289</ele>
        <time>2018-09-13T09:24:39Z</time>
      </trkpt>
      <trkpt lat="45.90503" lon="4.87902">
        <ele>290</ele>
        <time>2018-09-13T09:24:40Z</time>
      </trkpt>
      <trkpt lat="45.90498" lon="4.87914">
        <ele>290</ele>
        <time>2018-09-13T09:24:42Z</time>
      </trkpt>
      <trkpt lat="45.90496" lon="4.87921">
        <ele>290</ele>
        <time>2018-09-13T09:24:43Z</time>
      </trkpt>
      <trkpt lat="45.90494" lon="4.87927">
        <ele>290</ele>
        <time>2018-09-13T09:24:44Z</time>
      </trkpt>
      <trkpt lat="45.90493" lon="4.87937">
        <ele>290</ele>
        <time>2018-09-13T09:24:45Z</time>
      </trkpt>
      <trkpt lat="45.90493" lon="4.87946">
        <ele>290</ele>
        <time>2018-09-13T09:24:46Z</time>
      </trkpt>
      <trkpt lat="45.90493" lon="4.87952">
        <ele>290</ele>
        <time>2018-09-13T09:24:47Z</time>
      </trkpt>
      <trkpt lat="45.90495" lon="4.87956">
        <ele>290</ele>
        <time>2018-09-13T09:24:48Z</time>
      </trkpt>
      <trkpt lat="45.90499" lon="4.87962">
        <ele>289</ele>
        <time>2018-09-13T09:24:49Z</time>
      </trkpt>
      <trkpt lat="45.90503" lon="4.87966">
        <ele>290</ele>
        <time>2018-09-13T09:24:50Z</time>
      </trkpt>
      <trkpt lat="45.90508" lon="4.87966">
        <ele>290</ele>
        <time>2018-09-13T09:24:51Z</time>
      </trkpt>
      <trkpt lat="45.90514" lon="4.87963">
        <ele>290</ele>
        <time>2018-09-13T09:24:52Z</time>
      </trkpt>
      <trkpt lat="45.90517" lon="4.87956">
        <ele>290</ele>
        <time>2018-09-13T09:24:53Z</time>
      </trkpt>
      <trkpt lat="45.9052" lon="4.87951">
        <ele>290</ele>
        <time>2018-09-13T09:24:54Z</time>
      </trkpt>
      <trkpt lat="45.90524" lon="4.87945">
        <ele>290</ele>
        <time>2018-09-13T09:24:55Z</time>
      </trkpt>
      <trkpt lat="45.90526" lon="4.87941">
        <ele>290</ele>
        <time>2018-09-13T09:24:56Z</time>
      </trkpt>
      <trkpt lat="45.9053" lon="4.87935">
        <ele>290</ele>
        <time>2018-09-13T09:24:57Z</time>
      </trkpt>
      <trkpt lat="45.90534" lon="4.8793">
        <ele>290</ele>
        <time>2018-09-13T09:24:58Z</time>
      </trkpt>
      <trkpt lat="45.90538" lon="4.87926">
        <ele>290</ele>
        <time>2018-09-13T09:24:59Z</time>
      </trkpt>
      <trkpt lat="45.90546" lon="4.87928">
        <ele>290</ele>
        <time>2018-09-13T09:25:01Z</time>
      </trkpt>
      <trkpt lat="45.90551" lon="4.87929">
        <ele>290</ele>
        <time>2018-09-13T09:25:02Z</time>
      </trkpt>
      <trkpt lat="45.90557" lon="4.87931">
        <ele>290</ele>
        <time>2018-09-13T09:25:04Z</time>
      </trkpt>
      <trkpt lat="45.9056" lon="4.87932">
        <ele>290</ele>
        <time>2018-09-13T09:25:05Z</time>
      </trkpt>
      <trkpt lat="45.90568" lon="4.87935">
        <ele>290</ele>
        <time>2018-09-13T09:25:56Z</time>
      </trkpt>
      <trkpt lat="45.90569" lon="4.87935">
        <ele>290</ele>
        <time>2018-09-13T09:25:57Z</time>
      </trkpt>
      <trkpt lat="45.90576" lon="4.87936">
        <ele>290</ele>
        <time>2018-09-13T09:26:01Z</time>
      </trkpt>
      <trkpt lat="45.90578" lon="4.87937">
        <ele>290</ele>
        <time>2018-09-13T09:26:02Z</time>
      </trkpt>
      <trkpt lat="45.90585" lon="4.87938">
        <ele>290</ele>
        <time>2018-09-13T09:26:05Z</time>
      </trkpt>
      <trkpt lat="45.90594" lon="4.87941">
        <ele>290</ele>
        <time>2018-09-13T09:26:06Z</time>
      </trkpt>
      <trkpt lat="45.90602" lon="4.87944">
        <ele>290</ele>
        <time>2018-09-13T09:26:08Z</time>
      </trkpt>
      <trkpt lat="45.90606" lon="4.87945">
        <ele>290</ele>
        <time>2018-09-13T09:26:09Z</time>
      </trkpt>
      <trkpt lat="45.90611" lon="4.87947">
        <ele>290</ele>
        <time>2018-09-13T09:26:10Z</time>
      </trkpt>
      <trkpt lat="45.90615" lon="4.87949">
        <ele>290</ele>
        <time>2018-09-13T09:26:11Z</time>
      </trkpt>
      <trkpt lat="45.90619" lon="4.87951">
        <ele>290</ele>
        <time>2018-09-13T09:26:12Z</time>
      </trkpt>
      <trkpt lat="45.90623" lon="4.87954">
        <ele>290</ele>
        <time>2018-09-13T09:26:13Z</time>
      </trkpt>
      <trkpt lat="45.90629" lon="4.87955">
        <ele>290</ele>
        <time>2018-09-13T09:26:14Z</time>
      </trkpt>
      <trkpt lat="45.90633" lon="4.87957">
        <ele>290</ele>
        <time>2018-09-13T09:26:15Z</time>
      </trkpt>
      <trkpt lat="45.90641" lon="4.87962">
        <ele>290</ele>
        <time>2018-09-13T09:26:17Z</time>
      </trkpt>
      <trkpt lat="45.90647" lon="4.87965">
        <ele>290</ele>
        <time>2018-09-13T09:26:18Z</time>
      </trkpt>
      <trkpt lat="45.90651" lon="4.87966">
        <ele>290</ele>
        <time>2018-09-13T09:26:19Z</time>
      </trkpt>
      <trkpt lat="45.90656" lon="4.87968">
        <ele>290</ele>
        <time>2018-09-13T09:26:20Z</time>
      </trkpt>
      <trkpt lat="45.90661" lon="4.8797">
        <ele>290</ele>
        <time>2018-09-13T09:26:21Z</time>
      </trkpt>
      <trkpt lat="45.90666" lon="4.87972">
        <ele>290</ele>
        <time>2018-09-13T09:26:22Z</time>
      </trkpt>
      <trkpt lat="45.90672" lon="4.87974">
        <ele>290</ele>
        <time>2018-09-13T09:26:23Z</time>
      </trkpt>
      <trkpt lat="45.90676" lon="4.87976">
        <ele>290</ele>
        <time>2018-09-13T09:26:24Z</time>
      </trkpt>
      <trkpt lat="45.90682" lon="4.87977">
        <ele>290</ele>
        <time>2018-09-13T09:26:25Z</time>
      </trkpt>
      <trkpt lat="45.90686" lon="4.87978">
        <ele>290</ele>
        <time>2018-09-13T09:26:26Z</time>
      </trkpt>
      <trkpt lat="45.90692" lon="4.8798">
        <ele>290</ele>
        <time>2018-09-13T09:26:27Z</time>
      </trkpt>
      <trkpt lat="45.90696" lon="4.87982">
        <ele>290</ele>
        <time>2018-09-13T09:26:28Z</time>
      </trkpt>
      <trkpt lat="45.90702" lon="4.87983">
        <ele>290</ele>
        <time>2018-09-13T09:26:29Z</time>
      </trkpt>
      <trkpt lat="45.90707" lon="4.87983">
        <ele>290</ele>
        <time>2018-09-13T09:26:30Z</time>
      </trkpt>
      <trkpt lat="45.90712" lon="4.87985">
        <ele>290</ele>
        <time>2018-09-13T09:26:31Z</time>
      </trkpt>
      <trkpt lat="45.90717" lon="4.87987">
        <ele>290</ele>
        <time>2018-09-13T09:26:32Z</time>
      </trkpt>
      <trkpt lat="45.90722" lon="4.87988">
        <ele>289</ele>
        <time>2018-09-13T09:26:33Z</time>
      </trkpt>
      <trkpt lat="45.90728" lon="4.8799">
        <ele>289</ele>
        <time>2018-09-13T09:26:34Z</time>
      </trkpt>
      <trkpt lat="45.90733" lon="4.87992">
        <ele>289</ele>
        <time>2018-09-13T09:26:35Z</time>
      </trkpt>
      <trkpt lat="45.90739" lon="4.87994">
        <ele>289</ele>
        <time>2018-09-13T09:26:36Z</time>
      </trkpt>
      <trkpt lat="45.90745" lon="4.87996">
        <ele>289</ele>
        <time>2018-09-13T09:26:37Z</time>
      </trkpt>
      <trkpt lat="45.9075" lon="4.87999">
        <ele>289</ele>
        <time>2018-09-13T09:26:38Z</time>
      </trkpt>
      <trkpt lat="45.90757" lon="4.88001">
        <ele>289</ele>
        <time>2018-09-13T09:26:39Z</time>
      </trkpt>
      <trkpt lat="45.90762" lon="4.88004">
        <ele>290</ele>
        <time>2018-09-13T09:26:40Z</time>
      </trkpt>
      <trkpt lat="45.90767" lon="4.88006">
        <ele>290</ele>
        <time>2018-09-13T09:26:41Z</time>
      </trkpt>
      <trkpt lat="45.90773" lon="4.88009">
        <ele>290</ele>
        <time>2018-09-13T09:26:42Z</time>
      </trkpt>
      <trkpt lat="45.90778" lon="4.88011">
        <ele>290</ele>
        <time>2018-09-13T09:26:43Z</time>
      </trkpt>
      <trkpt lat="45.90783" lon="4.88013">
        <ele>290</ele>
        <time>2018-09-13T09:26:44Z</time>
      </trkpt>
      <trkpt lat="45.90789" lon="4.88016">
        <ele>290</ele>
        <time>2018-09-13T09:26:45Z</time>
      </trkpt>
      <trkpt lat="45.90794" lon="4.88018">
        <ele>290</ele>
        <time>2018-09-13T09:26:46Z</time>
      </trkpt>
      <trkpt lat="45.908" lon="4.88021">
        <ele>290</ele>
        <time>2018-09-13T09:26:47Z</time>
      </trkpt>
      <trkpt lat="45.90805" lon="4.88023">
        <ele>290</ele>
        <time>2018-09-13T09:26:48Z</time>
      </trkpt>
      <trkpt lat="45.9081" lon="4.88024">
        <ele>290</ele>
        <time>2018-09-13T09:26:49Z</time>
      </trkpt>
      <trkpt lat="45.90815" lon="4.88026">
        <ele>290</ele>
        <time>2018-09-13T09:26:50Z</time>
      </trkpt>
      <trkpt lat="45.9082" lon="4.88025">
        <ele>291</ele>
        <time>2018-09-13T09:26:51Z</time>
      </trkpt>
      <trkpt lat="45.90826" lon="4.88028">
        <ele>291</ele>
        <time>2018-09-13T09:26:52Z</time>
      </trkpt>
      <trkpt lat="45.90832" lon="4.88031">
        <ele>291</ele>
        <time>2018-09-13T09:26:53Z</time>
      </trkpt>
      <trkpt lat="45.90838" lon="4.88035">
        <ele>291</ele>
        <time>2018-09-13T09:26:54Z</time>
      </trkpt>
      <trkpt lat="45.90844" lon="4.88038">
        <ele>290</ele>
        <time>2018-09-13T09:26:55Z</time>
      </trkpt>
      <trkpt lat="45.90851" lon="4.88038">
        <ele>290</ele>
        <time>2018-09-13T09:26:56Z</time>
      </trkpt>
      <trkpt lat="45.90857" lon="4.8804">
        <ele>290</ele>
        <time>2018-09-13T09:26:57Z</time>
      </trkpt>
      <trkpt lat="45.90862" lon="4.88042">
        <ele>290</ele>
        <time>2018-09-13T09:26:58Z</time>
      </trkpt>
      <trkpt lat="45.90868" lon="4.88044">
        <ele>290</ele>
        <time>2018-09-13T09:26:59Z</time>
      </trkpt>
      <trkpt lat="45.90874" lon="4.88045">
        <ele>290</ele>
        <time>2018-09-13T09:27:00Z</time>
      </trkpt>
      <trkpt lat="45.90878" lon="4.88046">
        <ele>290</ele>
        <time>2018-09-13T09:27:01Z</time>
      </trkpt>
      <trkpt lat="45.90884" lon="4.88048">
        <ele>290</ele>
        <time>2018-09-13T09:27:02Z</time>
      </trkpt>
      <trkpt lat="45.90889" lon="4.88051">
        <ele>290</ele>
        <time>2018-09-13T09:27:03Z</time>
      </trkpt>
      <trkpt lat="45.90895" lon="4.88052">
        <ele>290</ele>
        <time>2018-09-13T09:27:04Z</time>
      </trkpt>
      <trkpt lat="45.909" lon="4.88055">
        <ele>290</ele>
        <time>2018-09-13T09:27:05Z</time>
      </trkpt>
      <trkpt lat="45.90905" lon="4.88057">
        <ele>290</ele>
        <time>2018-09-13T09:27:06Z</time>
      </trkpt>
      <trkpt lat="45.9091" lon="4.88059">
        <ele>290</ele>
        <time>2018-09-13T09:27:07Z</time>
      </trkpt>
      <trkpt lat="45.90916" lon="4.88061">
        <ele>290</ele>
        <time>2018-09-13T09:27:08Z</time>
      </trkpt>
      <trkpt lat="45.90921" lon="4.88062">
        <ele>290</ele>
        <time>2018-09-13T09:27:09Z</time>
      </trkpt>
      <trkpt lat="45.90927" lon="4.88064">
        <ele>290</ele>
        <time>2018-09-13T09:27:10Z</time>
      </trkpt>
      <trkpt lat="45.90931" lon="4.88065">
        <ele>290</ele>
        <time>2018-09-13T09:27:11Z</time>
      </trkpt>
      <trkpt lat="45.90936" lon="4.88068">
        <ele>290</ele>
        <time>2018-09-13T09:27:12Z</time>
      </trkpt>
      <trkpt lat="45.90941" lon="4.8807">
        <ele>290</ele>
        <time>2018-09-13T09:27:13Z</time>
      </trkpt>
      <trkpt lat="45.90947" lon="4.8807">
        <ele>290</ele>
        <time>2018-09-13T09:27:14Z</time>
      </trkpt>
      <trkpt lat="45.90952" lon="4.88072">
        <ele>290</ele>
        <time>2018-09-13T09:27:15Z</time>
      </trkpt>
      <trkpt lat="45.90957" lon="4.88072">
        <ele>290</ele>
        <time>2018-09-13T09:27:16Z</time>
      </trkpt>
      <trkpt lat="45.90962" lon="4.88074">
        <ele>290</ele>
        <time>2018-09-13T09:27:17Z</time>
      </trkpt>
      <trkpt lat="45.90967" lon="4.88076">
        <ele>290</ele>
        <time>2018-09-13T09:27:18Z</time>
      </trkpt>
      <trkpt lat="45.90973" lon="4.88078">
        <ele>290</ele>
        <time>2018-09-13T09:27:19Z</time>
      </trkpt>
      <trkpt lat="45.90979" lon="4.88081">
        <ele>290</ele>
        <time>2018-09-13T09:27:20Z</time>
      </trkpt>
      <trkpt lat="45.90986" lon="4.88083">
        <ele>290</ele>
        <time>2018-09-13T09:27:21Z</time>
      </trkpt>
      <trkpt lat="45.90992" lon="4.88086">
        <ele>290</ele>
        <time>2018-09-13T09:27:22Z</time>
      </trkpt>
      <trkpt lat="45.90999" lon="4.88089">
        <ele>290</ele>
        <time>2018-09-13T09:27:23Z</time>
      </trkpt>
      <trkpt lat="45.91005" lon="4.88092">
        <ele>289</ele>
        <time>2018-09-13T09:27:24Z</time>
      </trkpt>
      <trkpt lat="45.91012" lon="4.88094">
        <ele>289</ele>
        <time>2018-09-13T09:27:25Z</time>
      </trkpt>
      <trkpt lat="45.91018" lon="4.88097">
        <ele>289</ele>
        <time>2018-09-13T09:27:26Z</time>
      </trkpt>
      <trkpt lat="45.91025" lon="4.881">
        <ele>288</ele>
        <time>2018-09-13T09:27:27Z</time>
      </trkpt>
      <trkpt lat="45.91032" lon="4.88101">
        <ele>288</ele>
        <time>2018-09-13T09:27:28Z</time>
      </trkpt>
      <trkpt lat="45.9104" lon="4.88102">
        <ele>288</ele>
        <time>2018-09-13T09:27:29Z</time>
      </trkpt>
      <trkpt lat="45.91047" lon="4.88105">
        <ele>288</ele>
        <time>2018-09-13T09:27:30Z</time>
      </trkpt>
      <trkpt lat="45.91054" lon="4.88107">
        <ele>288</ele>
        <time>2018-09-13T09:27:31Z</time>
      </trkpt>
      <trkpt lat="45.9106" lon="4.8811">
        <ele>288</ele>
        <time>2018-09-13T09:27:32Z</time>
      </trkpt>
      <trkpt lat="45.91067" lon="4.88112">
        <ele>287</ele>
        <time>2018-09-13T09:27:33Z</time>
      </trkpt>
      <trkpt lat="45.91075" lon="4.88117">
        <ele>287</ele>
        <time>2018-09-13T09:27:34Z</time>
      </trkpt>
      <trkpt lat="45.91083" lon="4.88119">
        <ele>287</ele>
        <time>2018-09-13T09:27:35Z</time>
      </trkpt>
      <trkpt lat="45.9109" lon="4.88124">
        <ele>285</ele>
        <time>2018-09-13T09:27:36Z</time>
      </trkpt>
      <trkpt lat="45.91098" lon="4.88127">
        <ele>285</ele>
        <time>2018-09-13T09:27:37Z</time>
      </trkpt>
      <trkpt lat="45.91105" lon="4.8813">
        <ele>285</ele>
        <time>2018-09-13T09:27:38Z</time>
      </trkpt>
      <trkpt lat="45.91115" lon="4.88132">
        <ele>285</ele>
        <time>2018-09-13T09:27:39Z</time>
      </trkpt>
      <trkpt lat="45.91122" lon="4.88134">
        <ele>285</ele>
        <time>2018-09-13T09:27:40Z</time>
      </trkpt>
      <trkpt lat="45.91131" lon="4.88137">
        <ele>284</ele>
        <time>2018-09-13T09:27:41Z</time>
      </trkpt>
      <trkpt lat="45.91141" lon="4.88136">
        <ele>284</ele>
        <time>2018-09-13T09:27:42Z</time>
      </trkpt>
      <trkpt lat="45.91151" lon="4.88139">
        <ele>284</ele>
        <time>2018-09-13T09:27:43Z</time>
      </trkpt>
      <trkpt lat="45.9116" lon="4.88141">
        <ele>284</ele>
        <time>2018-09-13T09:27:44Z</time>
      </trkpt>
      <trkpt lat="45.91169" lon="4.88145">
        <ele>282</ele>
        <time>2018-09-13T09:27:45Z</time>
      </trkpt>
      <trkpt lat="45.91178" lon="4.88149">
        <ele>282</ele>
        <time>2018-09-13T09:27:46Z</time>
      </trkpt>
      <trkpt lat="45.91187" lon="4.88152">
        <ele>282</ele>
        <time>2018-09-13T09:27:47Z</time>
      </trkpt>
      <trkpt lat="45.91196" lon="4.88155">
        <ele>282</ele>
        <time>2018-09-13T09:27:48Z</time>
      </trkpt>
      <trkpt lat="45.91204" lon="4.88155">
        <ele>281</ele>
        <time>2018-09-13T09:27:49Z</time>
      </trkpt>
      <trkpt lat="45.91213" lon="4.8816">
        <ele>281</ele>
        <time>2018-09-13T09:27:50Z</time>
      </trkpt>
      <trkpt lat="45.91221" lon="4.88161">
        <ele>281</ele>
        <time>2018-09-13T09:27:51Z</time>
      </trkpt>
      <trkpt lat="45.91227" lon="4.88165">
        <ele>281</ele>
        <time>2018-09-13T09:27:52Z</time>
      </trkpt>
      <trkpt lat="45.91236" lon="4.88169">
        <ele>281</ele>
        <time>2018-09-13T09:27:53Z</time>
      </trkpt>
      <trkpt lat="45.91243" lon="4.88173">
        <ele>281</ele>
        <time>2018-09-13T09:27:54Z</time>
      </trkpt>
      <trkpt lat="45.9125" lon="4.88176">
        <ele>281</ele>
        <time>2018-09-13T09:27:55Z</time>
      </trkpt>
      <trkpt lat="45.91257" lon="4.88179">
        <ele>281</ele>
        <time>2018-09-13T09:27:56Z</time>
      </trkpt>
      <trkpt lat="45.91264" lon="4.88182">
        <ele>281</ele>
        <time>2018-09-13T09:27:57Z</time>
      </trkpt>
      <trkpt lat="45.9127" lon="4.88186">
        <ele>281</ele>
        <time>2018-09-13T09:27:58Z</time>
      </trkpt>
      <trkpt lat="45.91276" lon="4.8819">
        <ele>281</ele>
        <time>2018-09-13T09:27:59Z</time>
      </trkpt>
      <trkpt lat="45.91282" lon="4.88192">
        <ele>281</ele>
        <time>2018-09-13T09:28:00Z</time>
      </trkpt>
      <trkpt lat="45.91289" lon="4.88195">
        <ele>281</ele>
        <time>2018-09-13T09:28:01Z</time>
      </trkpt>
      <trkpt lat="45.91295" lon="4.882">
        <ele>281</ele>
        <time>2018-09-13T09:28:02Z</time>
      </trkpt>
      <trkpt lat="45.913" lon="4.88202">
        <ele>281</ele>
        <time>2018-09-13T09:28:03Z</time>
      </trkpt>
      <trkpt lat="45.91306" lon="4.88204">
        <ele>281</ele>
        <time>2018-09-13T09:28:04Z</time>
      </trkpt>
      <trkpt lat="45.91313" lon="4.88211">
        <ele>281</ele>
        <time>2018-09-13T09:28:06Z</time>
      </trkpt>
      <trkpt lat="45.91319" lon="4.8821">
        <ele>281</ele>
        <time>2018-09-13T09:28:07Z</time>
      </trkpt>
      <trkpt lat="45.91325" lon="4.8821">
        <ele>281</ele>
        <time>2018-09-13T09:28:08Z</time>
      </trkpt>
      <trkpt lat="45.91331" lon="4.88213">
        <ele>281</ele>
        <time>2018-09-13T09:28:09Z</time>
      </trkpt>
      <trkpt lat="45.91338" lon="4.88215">
        <ele>281</ele>
        <time>2018-09-13T09:28:10Z</time>
      </trkpt>
      <trkpt lat="45.91343" lon="4.88218">
        <ele>281</ele>
        <time>2018-09-13T09:28:11Z</time>
      </trkpt>
      <trkpt lat="45.91349" lon="4.88221">
        <ele>281</ele>
        <time>2018-09-13T09:28:12Z</time>
      </trkpt>
      <trkpt lat="45.91355" lon="4.88224">
        <ele>281</ele>
        <time>2018-09-13T09:28:13Z</time>
      </trkpt>
      <trkpt lat="45.91361" lon="4.88226">
        <ele>281</ele>
        <time>2018-09-13T09:28:14Z</time>
      </trkpt>
      <trkpt lat="45.91366" lon="4.88228">
        <ele>281</ele>
        <time>2018-09-13T09:28:15Z</time>
      </trkpt>
      <trkpt lat="45.91372" lon="4.88229">
        <ele>281</ele>
        <time>2018-09-13T09:28:16Z</time>
      </trkpt>
      <trkpt lat="45.91377" lon="4.88232">
        <ele>281</ele>
        <time>2018-09-13T09:28:17Z</time>
      </trkpt>
      <trkpt lat="45.91382" lon="4.88233">
        <ele>281</ele>
        <time>2018-09-13T09:28:18Z</time>
      </trkpt>
      <trkpt lat="45.91388" lon="4.88235">
        <ele>282</ele>
        <time>2018-09-13T09:28:19Z</time>
      </trkpt>
      <trkpt lat="45.91394" lon="4.88237">
        <ele>282</ele>
        <time>2018-09-13T09:28:20Z</time>
      </trkpt>
      <trkpt lat="45.91399" lon="4.88238">
        <ele>282</ele>
        <time>2018-09-13T09:28:21Z</time>
      </trkpt>
      <trkpt lat="45.91405" lon="4.88236">
        <ele>282</ele>
        <time>2018-09-13T09:28:22Z</time>
      </trkpt>
      <trkpt lat="45.91411" lon="4.88237">
        <ele>282</ele>
        <time>2018-09-13T09:28:23Z</time>
      </trkpt>
      <trkpt lat="45.91417" lon="4.8824">
        <ele>282</ele>
        <time>2018-09-13T09:28:24Z</time>
      </trkpt>
      <trkpt lat="45.91423" lon="4.88241">
        <ele>282</ele>
        <time>2018-09-13T09:28:25Z</time>
      </trkpt>
      <trkpt lat="45.91428" lon="4.88243">
        <ele>282</ele>
        <time>2018-09-13T09:28:26Z</time>
      </trkpt>
      <trkpt lat="45.91436" lon="4.88241">
        <ele>282</ele>
        <time>2018-09-13T09:28:27Z</time>
      </trkpt>
      <trkpt lat="45.91441" lon="4.88243">
        <ele>282</ele>
        <time>2018-09-13T09:28:28Z</time>
      </trkpt>
      <trkpt lat="45.91445" lon="4.88245">
        <ele>282</ele>
        <time>2018-09-13T09:28:29Z</time>
      </trkpt>
      <trkpt lat="45.91452" lon="4.88248">
        <ele>283</ele>
        <time>2018-09-13T09:28:30Z</time>
      </trkpt>
      <trkpt lat="45.91456" lon="4.88249">
        <ele>283</ele>
        <time>2018-09-13T09:28:31Z</time>
      </trkpt>
      <trkpt lat="45.91462" lon="4.88247">
        <ele>283</ele>
        <time>2018-09-13T09:28:32Z</time>
      </trkpt>
      <trkpt lat="45.91467" lon="4.8825">
        <ele>283</ele>
        <time>2018-09-13T09:28:33Z</time>
      </trkpt>
      <trkpt lat="45.91472" lon="4.88251">
        <ele>283</ele>
        <time>2018-09-13T09:28:34Z</time>
      </trkpt>
      <trkpt lat="45.91478" lon="4.88252">
        <ele>284</ele>
        <time>2018-09-13T09:28:35Z</time>
      </trkpt>
      <trkpt lat="45.91483" lon="4.88255">
        <ele>284</ele>
        <time>2018-09-13T09:28:36Z</time>
      </trkpt>
      <trkpt lat="45.91489" lon="4.88258">
        <ele>284</ele>
        <time>2018-09-13T09:28:37Z</time>
      </trkpt>
      <trkpt lat="45.91495" lon="4.88262">
        <ele>284</ele>
        <time>2018-09-13T09:28:38Z</time>
      </trkpt>
      <trkpt lat="45.915" lon="4.88265">
        <ele>284</ele>
        <time>2018-09-13T09:28:39Z</time>
      </trkpt>
      <trkpt lat="45.91506" lon="4.88267">
        <ele>284</ele>
        <time>2018-09-13T09:28:40Z</time>
      </trkpt>
      <trkpt lat="45.91512" lon="4.8827">
        <ele>284</ele>
        <time>2018-09-13T09:28:41Z</time>
      </trkpt>
      <trkpt lat="45.91517" lon="4.88271">
        <ele>284</ele>
        <time>2018-09-13T09:28:42Z</time>
      </trkpt>
      <trkpt lat="45.91523" lon="4.88273">
        <ele>284</ele>
        <time>2018-09-13T09:28:43Z</time>
      </trkpt>
      <trkpt lat="45.91529" lon="4.88276">
        <ele>284</ele>
        <time>2018-09-13T09:28:44Z</time>
      </trkpt>
      <trkpt lat="45.91534" lon="4.88277">
        <ele>283</ele>
        <time>2018-09-13T09:28:45Z</time>
      </trkpt>
      <trkpt lat="45.91539" lon="4.88278">
        <ele>283</ele>
        <time>2018-09-13T09:28:46Z</time>
      </trkpt>
      <trkpt lat="45.91543" lon="4.88281">
        <ele>283</ele>
        <time>2018-09-13T09:28:47Z</time>
      </trkpt>
      <trkpt lat="45.91548" lon="4.88283">
        <ele>283</ele>
        <time>2018-09-13T09:28:48Z</time>
      </trkpt>
      <trkpt lat="45.91553" lon="4.88287">
        <ele>283</ele>
        <time>2018-09-13T09:28:49Z</time>
      </trkpt>
      <trkpt lat="45.91557" lon="4.88291">
        <ele>283</ele>
        <time>2018-09-13T09:28:50Z</time>
      </trkpt>
      <trkpt lat="45.91563" lon="4.88294">
        <ele>283</ele>
        <time>2018-09-13T09:28:51Z</time>
      </trkpt>
      <trkpt lat="45.91568" lon="4.88296">
        <ele>283</ele>
        <time>2018-09-13T09:28:52Z</time>
      </trkpt>
      <trkpt lat="45.91575" lon="4.88299">
        <ele>283</ele>
        <time>2018-09-13T09:28:53Z</time>
      </trkpt>
      <trkpt lat="45.9158" lon="4.88301">
        <ele>283</ele>
        <time>2018-09-13T09:28:54Z</time>
      </trkpt>
      <trkpt lat="45.91586" lon="4.88305">
        <ele>282</ele>
        <time>2018-09-13T09:28:55Z</time>
      </trkpt>
      <trkpt lat="45.91592" lon="4.88307">
        <ele>282</ele>
        <time>2018-09-13T09:28:56Z</time>
      </trkpt>
      <trkpt lat="45.91599" lon="4.88309">
        <ele>282</ele>
        <time>2018-09-13T09:28:57Z</time>
      </trkpt>
      <trkpt lat="45.91606" lon="4.88312">
        <ele>282</ele>
        <time>2018-09-13T09:28:58Z</time>
      </trkpt>
      <trkpt lat="45.91612" lon="4.88315">
        <ele>281</ele>
        <time>2018-09-13T09:28:59Z</time>
      </trkpt>
      <trkpt lat="45.9162" lon="4.88314">
        <ele>281</ele>
        <time>2018-09-13T09:29:00Z</time>
      </trkpt>
      <trkpt lat="45.91626" lon="4.88317">
        <ele>281</ele>
        <time>2018-09-13T09:29:01Z</time>
      </trkpt>
      <trkpt lat="45.91632" lon="4.88318">
        <ele>281</ele>
        <time>2018-09-13T09:29:02Z</time>
      </trkpt>
      <trkpt lat="45.91639" lon="4.88324">
        <ele>281</ele>
        <time>2018-09-13T09:29:03Z</time>
      </trkpt>
      <trkpt lat="45.91645" lon="4.88326">
        <ele>281</ele>
        <time>2018-09-13T09:29:04Z</time>
      </trkpt>
      <trkpt lat="45.91652" lon="4.88324">
        <ele>280</ele>
        <time>2018-09-13T09:29:05Z</time>
      </trkpt>
      <trkpt lat="45.91659" lon="4.88325">
        <ele>280</ele>
        <time>2018-09-13T09:29:06Z</time>
      </trkpt>
      <trkpt lat="45.91664" lon="4.88329">
        <ele>280</ele>
        <time>2018-09-13T09:29:07Z</time>
      </trkpt>
      <trkpt lat="45.9167" lon="4.88331">
        <ele>280</ele>
        <time>2018-09-13T09:29:08Z</time>
      </trkpt>
      <trkpt lat="45.91677" lon="4.88333">
        <ele>280</ele>
        <time>2018-09-13T09:29:09Z</time>
      </trkpt>
      <trkpt lat="45.91683" lon="4.88336">
        <ele>279</ele>
        <time>2018-09-13T09:29:10Z</time>
      </trkpt>
      <trkpt lat="45.91689" lon="4.88338">
        <ele>279</ele>
        <time>2018-09-13T09:29:11Z</time>
      </trkpt>
      <trkpt lat="45.91695" lon="4.88341">
        <ele>279</ele>
        <time>2018-09-13T09:29:12Z</time>
      </trkpt>
      <trkpt lat="45.91702" lon="4.88342">
        <ele>279</ele>
        <time>2018-09-13T09:29:13Z</time>
      </trkpt>
      <trkpt lat="45.91709" lon="4.88339">
        <ele>279</ele>
        <time>2018-09-13T09:29:14Z</time>
      </trkpt>
      <trkpt lat="45.91715" lon="4.8834">
        <ele>279</ele>
        <time>2018-09-13T09:29:15Z</time>
      </trkpt>
      <trkpt lat="45.91722" lon="4.88343">
        <ele>278</ele>
        <time>2018-09-13T09:29:16Z</time>
      </trkpt>
      <trkpt lat="45.91728" lon="4.88344">
        <ele>278</ele>
        <time>2018-09-13T09:29:17Z</time>
      </trkpt>
      <trkpt lat="45.91736" lon="4.88346">
        <ele>278</ele>
        <time>2018-09-13T09:29:18Z</time>
      </trkpt>
      <trkpt lat="45.91743" lon="4.88349">
        <ele>278</ele>
        <time>2018-09-13T09:29:19Z</time>
      </trkpt>
      <trkpt lat="45.91749" lon="4.8835">
        <ele>278</ele>
        <time>2018-09-13T09:29:20Z</time>
      </trkpt>
      <trkpt lat="45.91756" lon="4.88353">
        <ele>277</ele>
        <time>2018-09-13T09:29:21Z</time>
      </trkpt>
      <trkpt lat="45.91762" lon="4.88357">
        <ele>277</ele>
        <time>2018-09-13T09:29:22Z</time>
      </trkpt>
      <trkpt lat="45.91768" lon="4.88359">
        <ele>276</ele>
        <time>2018-09-13T09:29:23Z</time>
      </trkpt>
      <trkpt lat="45.91775" lon="4.88359">
        <ele>276</ele>
        <time>2018-09-13T09:29:24Z</time>
      </trkpt>
      <trkpt lat="45.91782" lon="4.8836">
        <ele>276</ele>
        <time>2018-09-13T09:29:25Z</time>
      </trkpt>
      <trkpt lat="45.91788" lon="4.88361">
        <ele>276</ele>
        <time>2018-09-13T09:29:26Z</time>
      </trkpt>
      <trkpt lat="45.91795" lon="4.88366">
        <ele>276</ele>
        <time>2018-09-13T09:29:27Z</time>
      </trkpt>
      <trkpt lat="45.91801" lon="4.8837">
        <ele>276</ele>
        <time>2018-09-13T09:29:28Z</time>
      </trkpt>
      <trkpt lat="45.91808" lon="4.88371">
        <ele>276</ele>
        <time>2018-09-13T09:29:29Z</time>
      </trkpt>
      <trkpt lat="45.91814" lon="4.88373">
        <ele>276</ele>
        <time>2018-09-13T09:29:30Z</time>
      </trkpt>
      <trkpt lat="45.91821" lon="4.88374">
        <ele>276</ele>
        <time>2018-09-13T09:29:31Z</time>
      </trkpt>
      <trkpt lat="45.91828" lon="4.88375">
        <ele>276</ele>
        <time>2018-09-13T09:29:32Z</time>
      </trkpt>
      <trkpt lat="45.91834" lon="4.88375">
        <ele>275</ele>
        <time>2018-09-13T09:29:33Z</time>
      </trkpt>
      <trkpt lat="45.91841" lon="4.88373">
        <ele>275</ele>
        <time>2018-09-13T09:29:34Z</time>
      </trkpt>
      <trkpt lat="45.91848" lon="4.88373">
        <ele>275</ele>
        <time>2018-09-13T09:29:35Z</time>
      </trkpt>
      <trkpt lat="45.91855" lon="4.88372">
        <ele>275</ele>
        <time>2018-09-13T09:29:36Z</time>
      </trkpt>
      <trkpt lat="45.91862" lon="4.88368">
        <ele>275</ele>
        <time>2018-09-13T09:29:37Z</time>
      </trkpt>
      <trkpt lat="45.91868" lon="4.88366">
        <ele>275</ele>
        <time>2018-09-13T09:29:38Z</time>
      </trkpt>
      <trkpt lat="45.91873" lon="4.88364">
        <ele>275</ele>
        <time>2018-09-13T09:29:39Z</time>
      </trkpt>
      <trkpt lat="45.91878" lon="4.88363">
        <ele>275</ele>
        <time>2018-09-13T09:29:40Z</time>
      </trkpt>
      <trkpt lat="45.91882" lon="4.88363">
        <ele>275</ele>
        <time>2018-09-13T09:29:41Z</time>
      </trkpt>
      <trkpt lat="45.91888" lon="4.88359">
        <ele>276</ele>
        <time>2018-09-13T09:29:42Z</time>
      </trkpt>
      <trkpt lat="45.91892" lon="4.88356">
        <ele>276</ele>
        <time>2018-09-13T09:29:43Z</time>
      </trkpt>
      <trkpt lat="45.91897" lon="4.88353">
        <ele>276</ele>
        <time>2018-09-13T09:29:44Z</time>
      </trkpt>
      <trkpt lat="45.91903" lon="4.8835">
        <ele>276</ele>
        <time>2018-09-13T09:29:45Z</time>
      </trkpt>
      <trkpt lat="45.91908" lon="4.88347">
        <ele>276</ele>
        <time>2018-09-13T09:29:46Z</time>
      </trkpt>
      <trkpt lat="45.91913" lon="4.88345">
        <ele>276</ele>
        <time>2018-09-13T09:29:47Z</time>
      </trkpt>
      <trkpt lat="45.91918" lon="4.88343">
        <ele>277</ele>
        <time>2018-09-13T09:29:48Z</time>
      </trkpt>
      <trkpt lat="45.91923" lon="4.8834">
        <ele>277</ele>
        <time>2018-09-13T09:29:49Z</time>
      </trkpt>
      <trkpt lat="45.91928" lon="4.88338">
        <ele>277</ele>
        <time>2018-09-13T09:29:50Z</time>
      </trkpt>
      <trkpt lat="45.91933" lon="4.88335">
        <ele>277</ele>
        <time>2018-09-13T09:29:51Z</time>
      </trkpt>
      <trkpt lat="45.91938" lon="4.88333">
        <ele>278</ele>
        <time>2018-09-13T09:29:52Z</time>
      </trkpt>
      <trkpt lat="45.91944" lon="4.88328">
        <ele>278</ele>
        <time>2018-09-13T09:29:53Z</time>
      </trkpt>
      <trkpt lat="45.91946" lon="4.88328">
        <ele>278</ele>
        <time>2018-09-13T09:29:54Z</time>
      </trkpt>
      <trkpt lat="45.91953" lon="4.88322">
        <ele>279</ele>
        <time>2018-09-13T09:29:55Z</time>
      </trkpt>
      <trkpt lat="45.91958" lon="4.88322">
        <ele>279</ele>
        <time>2018-09-13T09:29:56Z</time>
      </trkpt>
      <trkpt lat="45.91963" lon="4.88319">
        <ele>279</ele>
        <time>2018-09-13T09:29:57Z</time>
      </trkpt>
      <trkpt lat="45.9197" lon="4.88315">
        <ele>279</ele>
        <time>2018-09-13T09:29:59Z</time>
      </trkpt>
      <trkpt lat="45.91974" lon="4.88314">
        <ele>280</ele>
        <time>2018-09-13T09:30:00Z</time>
      </trkpt>
      <trkpt lat="45.9198" lon="4.88309">
        <ele>280</ele>
        <time>2018-09-13T09:30:01Z</time>
      </trkpt>
      <trkpt lat="45.91984" lon="4.88308">
        <ele>280</ele>
        <time>2018-09-13T09:30:02Z</time>
      </trkpt>
      <trkpt lat="45.9199" lon="4.88305">
        <ele>280</ele>
        <time>2018-09-13T09:30:04Z</time>
      </trkpt>
      <trkpt lat="45.91994" lon="4.88302">
        <ele>280</ele>
        <time>2018-09-13T09:30:05Z</time>
      </trkpt>
      <trkpt lat="45.92001" lon="4.88297">
        <ele>284</ele>
        <time>2018-09-13T09:30:09Z</time>
      </trkpt>
      <trkpt lat="45.92004" lon="4.88296">
        <ele>284</ele>
        <time>2018-09-13T09:30:10Z</time>
      </trkpt>
      <trkpt lat="45.92011" lon="4.88292">
        <ele>284</ele>
        <time>2018-09-13T09:30:13Z</time>
      </trkpt>
      <trkpt lat="45.92013" lon="4.88291">
        <ele>284</ele>
        <time>2018-09-13T09:30:14Z</time>
      </trkpt>
      <trkpt lat="45.92021" lon="4.88287">
        <ele>284</ele>
        <time>2018-09-13T09:30:17Z</time>
      </trkpt>
      <trkpt lat="45.92023" lon="4.88285">
        <ele>285</ele>
        <time>2018-09-13T09:30:18Z</time>
      </trkpt>
      <trkpt lat="45.9203" lon="4.88282">
        <ele>285</ele>
        <time>2018-09-13T09:30:21Z</time>
      </trkpt>
      <trkpt lat="45.92033" lon="4.88281">
        <ele>285</ele>
        <time>2018-09-13T09:30:22Z</time>
      </trkpt>
      <trkpt lat="45.9204" lon="4.88279">
        <ele>285</ele>
        <time>2018-09-13T09:30:25Z</time>
      </trkpt>
      <trkpt lat="45.92042" lon="4.88278">
        <ele>285</ele>
        <time>2018-09-13T09:30:26Z</time>
      </trkpt>
      <trkpt lat="45.92049" lon="4.88273">
        <ele>286</ele>
        <time>2018-09-13T09:30:29Z</time>
      </trkpt>
      <trkpt lat="45.92051" lon="4.88272">
        <ele>286</ele>
        <time>2018-09-13T09:30:30Z</time>
      </trkpt>
      <trkpt lat="45.92058" lon="4.88268">
        <ele>286</ele>
        <time>2018-09-13T09:30:33Z</time>
      </trkpt>
      <trkpt lat="45.9206" lon="4.88267">
        <ele>287</ele>
        <time>2018-09-13T09:30:34Z</time>
      </trkpt>
      <trkpt lat="45.92067" lon="4.88263">
        <ele>287</ele>
        <time>2018-09-13T09:30:37Z</time>
      </trkpt>
      <trkpt lat="45.92069" lon="4.88262">
        <ele>287</ele>
        <time>2018-09-13T09:30:38Z</time>
      </trkpt>
      <trkpt lat="45.92077" lon="4.88259">
        <ele>288</ele>
        <time>2018-09-13T09:30:42Z</time>
      </trkpt>
      <trkpt lat="45.92079" lon="4.88258">
        <ele>288</ele>
        <time>2018-09-13T09:30:43Z</time>
      </trkpt>
      <trkpt lat="45.92086" lon="4.88255">
        <ele>290</ele>
        <time>2018-09-13T09:30:46Z</time>
      </trkpt>
      <trkpt lat="45.92088" lon="4.88253">
        <ele>290</ele>
        <time>2018-09-13T09:30:47Z</time>
      </trkpt>
      <trkpt lat="45.92094" lon="4.88249">
        <ele>291</ele>
        <time>2018-09-13T09:30:50Z</time>
      </trkpt>
      <trkpt lat="45.92102" lon="4.88245">
        <ele>291</ele>
        <time>2018-09-13T09:30:51Z</time>
      </trkpt>
      <trkpt lat="45.92109" lon="4.8824">
        <ele>291</ele>
        <time>2018-09-13T09:30:55Z</time>
      </trkpt>
      <trkpt lat="45.92111" lon="4.88239">
        <ele>291</ele>
        <time>2018-09-13T09:30:56Z</time>
      </trkpt>
      <trkpt lat="45.92118" lon="4.88233">
        <ele>291</ele>
        <time>2018-09-13T09:30:59Z</time>
      </trkpt>
      <trkpt lat="45.9212" lon="4.88231">
        <ele>291</ele>
        <time>2018-09-13T09:31:00Z</time>
      </trkpt>
      <trkpt lat="45.92125" lon="4.88226">
        <ele>292</ele>
        <time>2018-09-13T09:31:02Z</time>
      </trkpt>
      <trkpt lat="45.92128" lon="4.88223">
        <ele>292</ele>
        <time>2018-09-13T09:31:03Z</time>
      </trkpt>
      <trkpt lat="45.92133" lon="4.88219">
        <ele>292</ele>
        <time>2018-09-13T09:31:05Z</time>
      </trkpt>
      <trkpt lat="45.92136" lon="4.88217">
        <ele>292</ele>
        <time>2018-09-13T09:31:06Z</time>
      </trkpt>
      <trkpt lat="45.92144" lon="4.88214">
        <ele>292</ele>
        <time>2018-09-13T09:31:09Z</time>
      </trkpt>
      <trkpt lat="45.92146" lon="4.88213">
        <ele>292</ele>
        <time>2018-09-13T09:31:10Z</time>
      </trkpt>
      <trkpt lat="45.92153" lon="4.88211">
        <ele>292</ele>
        <time>2018-09-13T09:31:12Z</time>
      </trkpt>
      <trkpt lat="45.92156" lon="4.8821">
        <ele>292</ele>
        <time>2018-09-13T09:31:13Z</time>
      </trkpt>
      <trkpt lat="45.92162" lon="4.8821">
        <ele>292</ele>
        <time>2018-09-13T09:31:15Z</time>
      </trkpt>
      <trkpt lat="45.92165" lon="4.8821">
        <ele>292</ele>
        <time>2018-09-13T09:31:16Z</time>
      </trkpt>
      <trkpt lat="45.92174" lon="4.8821">
        <ele>293</ele>
        <time>2018-09-13T09:31:19Z</time>
      </trkpt>
      <trkpt lat="45.92176" lon="4.8821">
        <ele>293</ele>
        <time>2018-09-13T09:31:20Z</time>
      </trkpt>
      <trkpt lat="45.92183" lon="4.8821">
        <ele>293</ele>
        <time>2018-09-13T09:31:22Z</time>
      </trkpt>
      <trkpt lat="45.92193" lon="4.8821">
        <ele>293</ele>
        <time>2018-09-13T09:31:23Z</time>
      </trkpt>
      <trkpt lat="45.92197" lon="4.8821">
        <ele>293</ele>
        <time>2018-09-13T09:31:25Z</time>
      </trkpt>
      <trkpt lat="45.92204" lon="4.88209">
        <ele>293</ele>
        <time>2018-09-13T09:31:26Z</time>
      </trkpt>
      <trkpt lat="45.92212" lon="4.88211">
        <ele>293</ele>
        <time>2018-09-13T09:31:28Z</time>
      </trkpt>
      <trkpt lat="45.92214" lon="4.88212">
        <ele>293</ele>
        <time>2018-09-13T09:31:29Z</time>
      </trkpt>
      <trkpt lat="45.92221" lon="4.88211">
        <ele>293</ele>
        <time>2018-09-13T09:31:32Z</time>
      </trkpt>
      <trkpt lat="45.92224" lon="4.8821">
        <ele>293</ele>
        <time>2018-09-13T09:31:33Z</time>
      </trkpt>
      <trkpt lat="45.92233" lon="4.88208">
        <ele>294</ele>
        <time>2018-09-13T09:31:36Z</time>
      </trkpt>
      <trkpt lat="45.92236" lon="4.88207">
        <ele>294</ele>
        <time>2018-09-13T09:31:37Z</time>
      </trkpt>
      <trkpt lat="45.92245" lon="4.88205">
        <ele>294</ele>
        <time>2018-09-13T09:31:40Z</time>
      </trkpt>
      <trkpt lat="45.92247" lon="4.88205">
        <ele>294</ele>
        <time>2018-09-13T09:31:41Z</time>
      </trkpt>
      <trkpt lat="45.92253" lon="4.88203">
        <ele>294</ele>
        <time>2018-09-13T09:31:43Z</time>
      </trkpt>
      <trkpt lat="45.92256" lon="4.88203">
        <ele>294</ele>
        <time>2018-09-13T09:31:44Z</time>
      </trkpt>
      <trkpt lat="45.92262" lon="4.88202">
        <ele>294</ele>
        <time>2018-09-13T09:31:46Z</time>
      </trkpt>
      <trkpt lat="45.92265" lon="4.88202">
        <ele>294</ele>
        <time>2018-09-13T09:31:47Z</time>
      </trkpt>
      <trkpt lat="45.92277" lon="4.88201">
        <ele>294</ele>
        <time>2018-09-13T09:31:48Z</time>
      </trkpt>
      <trkpt lat="45.92283" lon="4.88201">
        <ele>294</ele>
        <time>2018-09-13T09:31:50Z</time>
      </trkpt>
      <trkpt lat="45.92288" lon="4.88202">
        <ele>294</ele>
        <time>2018-09-13T09:31:51Z</time>
      </trkpt>
      <trkpt lat="45.92297" lon="4.88203">
        <ele>294</ele>
        <time>2018-09-13T09:31:53Z</time>
      </trkpt>
      <trkpt lat="45.92301" lon="4.88203">
        <ele>294</ele>
        <time>2018-09-13T09:31:54Z</time>
      </trkpt>
      <trkpt lat="45.92309" lon="4.88203">
        <ele>294</ele>
        <time>2018-09-13T09:31:56Z</time>
      </trkpt>
      <trkpt lat="45.92313" lon="4.88203">
        <ele>293</ele>
        <time>2018-09-13T09:31:57Z</time>
      </trkpt>
      <trkpt lat="45.92321" lon="4.88204">
        <ele>293</ele>
        <time>2018-09-13T09:31:59Z</time>
      </trkpt>
      <trkpt lat="45.92325" lon="4.88204">
        <ele>293</ele>
        <time>2018-09-13T09:32:00Z</time>
      </trkpt>
      <trkpt lat="45.92333" lon="4.88204">
        <ele>293</ele>
        <time>2018-09-13T09:32:02Z</time>
      </trkpt>
      <trkpt lat="45.92337" lon="4.88204">
        <ele>292</ele>
        <time>2018-09-13T09:32:03Z</time>
      </trkpt>
      <trkpt lat="45.92345" lon="4.88203">
        <ele>292</ele>
        <time>2018-09-13T09:32:05Z</time>
      </trkpt>
      <trkpt lat="45.9235" lon="4.88202">
        <ele>292</ele>
        <time>2018-09-13T09:32:06Z</time>
      </trkpt>
      <trkpt lat="45.92355" lon="4.88201">
        <ele>292</ele>
        <time>2018-09-13T09:32:07Z</time>
      </trkpt>
      <trkpt lat="45.9236" lon="4.88202">
        <ele>292</ele>
        <time>2018-09-13T09:32:08Z</time>
      </trkpt>
      <trkpt lat="45.92365" lon="4.88202">
        <ele>292</ele>
        <time>2018-09-13T09:32:09Z</time>
      </trkpt>
      <trkpt lat="45.92371" lon="4.88202">
        <ele>292</ele>
        <time>2018-09-13T09:32:10Z</time>
      </trkpt>
      <trkpt lat="45.92376" lon="4.88202">
        <ele>292</ele>
        <time>2018-09-13T09:32:11Z</time>
      </trkpt>
      <trkpt lat="45.92381" lon="4.88203">
        <ele>292</ele>
        <time>2018-09-13T09:32:12Z</time>
      </trkpt>
      <trkpt lat="45.92386" lon="4.88204">
        <ele>292</ele>
        <time>2018-09-13T09:32:13Z</time>
      </trkpt>
      <trkpt lat="45.92391" lon="4.88205">
        <ele>292</ele>
        <time>2018-09-13T09:32:14Z</time>
      </trkpt>
      <trkpt lat="45.92396" lon="4.88205">
        <ele>292</ele>
        <time>2018-09-13T09:32:15Z</time>
      </trkpt>
      <trkpt lat="45.92402" lon="4.88205">
        <ele>292</ele>
        <time>2018-09-13T09:32:16Z</time>
      </trkpt>
      <trkpt lat="45.92408" lon="4.88206">
        <ele>292</ele>
        <time>2018-09-13T09:32:17Z</time>
      </trkpt>
      <trkpt lat="45.92413" lon="4.88206">
        <ele>292</ele>
        <time>2018-09-13T09:32:18Z</time>
      </trkpt>
      <trkpt lat="45.92418" lon="4.88206">
        <ele>291</ele>
        <time>2018-09-13T09:32:19Z</time>
      </trkpt>
      <trkpt lat="45.92423" lon="4.88207">
        <ele>291</ele>
        <time>2018-09-13T09:32:20Z</time>
      </trkpt>
      <trkpt lat="45.92432" lon="4.88208">
        <ele>291</ele>
        <time>2018-09-13T09:32:22Z</time>
      </trkpt>
      <trkpt lat="45.92437" lon="4.88208">
        <ele>291</ele>
        <time>2018-09-13T09:32:23Z</time>
      </trkpt>
      <trkpt lat="45.92442" lon="4.88208">
        <ele>291</ele>
        <time>2018-09-13T09:32:24Z</time>
      </trkpt>
      <trkpt lat="45.92448" lon="4.88208">
        <ele>291</ele>
        <time>2018-09-13T09:32:25Z</time>
      </trkpt>
      <trkpt lat="45.92453" lon="4.88211">
        <ele>291</ele>
        <time>2018-09-13T09:32:26Z</time>
      </trkpt>
      <trkpt lat="45.92459" lon="4.88211">
        <ele>291</ele>
        <time>2018-09-13T09:32:27Z</time>
      </trkpt>
      <trkpt lat="45.92464" lon="4.88212">
        <ele>291</ele>
        <time>2018-09-13T09:32:28Z</time>
      </trkpt>
      <trkpt lat="45.92469" lon="4.88212">
        <ele>291</ele>
        <time>2018-09-13T09:32:29Z</time>
      </trkpt>
      <trkpt lat="45.92474" lon="4.88213">
        <ele>291</ele>
        <time>2018-09-13T09:32:30Z</time>
      </trkpt>
      <trkpt lat="45.9248" lon="4.88212">
        <ele>291</ele>
        <time>2018-09-13T09:32:31Z</time>
      </trkpt>
      <trkpt lat="45.92487" lon="4.88212">
        <ele>291</ele>
        <time>2018-09-13T09:32:32Z</time>
      </trkpt>
      <trkpt lat="45.92493" lon="4.88212">
        <ele>291</ele>
        <time>2018-09-13T09:32:33Z</time>
      </trkpt>
      <trkpt lat="45.92499" lon="4.88213">
        <ele>291</ele>
        <time>2018-09-13T09:32:34Z</time>
      </trkpt>
      <trkpt lat="45.92506" lon="4.88212">
        <ele>291</ele>
        <time>2018-09-13T09:32:35Z</time>
      </trkpt>
      <trkpt lat="45.92512" lon="4.88212">
        <ele>291</ele>
        <time>2018-09-13T09:32:36Z</time>
      </trkpt>
      <trkpt lat="45.92517" lon="4.88212">
        <ele>291</ele>
        <time>2018-09-13T09:32:37Z</time>
      </trkpt>
      <trkpt lat="45.92523" lon="4.88212">
        <ele>291</ele>
        <time>2018-09-13T09:32:38Z</time>
      </trkpt>
      <trkpt lat="45.92528" lon="4.88213">
        <ele>291</ele>
        <time>2018-09-13T09:32:39Z</time>
      </trkpt>
      <trkpt lat="45.92534" lon="4.88213">
        <ele>291</ele>
        <time>2018-09-13T09:32:40Z</time>
      </trkpt>
      <trkpt lat="45.92539" lon="4.88215">
        <ele>291</ele>
        <time>2018-09-13T09:32:41Z</time>
      </trkpt>
      <trkpt lat="45.92546" lon="4.88211">
        <ele>291</ele>
        <time>2018-09-13T09:32:42Z</time>
      </trkpt>
      <trkpt lat="45.92551" lon="4.8821">
        <ele>291</ele>
        <time>2018-09-13T09:32:43Z</time>
      </trkpt>
      <trkpt lat="45.92557" lon="4.88208">
        <ele>291</ele>
        <time>2018-09-13T09:32:44Z</time>
      </trkpt>
      <trkpt lat="45.92561" lon="4.88207">
        <ele>291</ele>
        <time>2018-09-13T09:32:45Z</time>
      </trkpt>
      <trkpt lat="45.92566" lon="4.88207">
        <ele>291</ele>
        <time>2018-09-13T09:32:46Z</time>
      </trkpt>
      <trkpt lat="45.92571" lon="4.88207">
        <ele>291</ele>
        <time>2018-09-13T09:32:47Z</time>
      </trkpt>
      <trkpt lat="45.92575" lon="4.88207">
        <ele>291</ele>
        <time>2018-09-13T09:32:48Z</time>
      </trkpt>
      <trkpt lat="45.9258" lon="4.88207">
        <ele>291</ele>
        <time>2018-09-13T09:32:49Z</time>
      </trkpt>
      <trkpt lat="45.92585" lon="4.88207">
        <ele>291</ele>
        <time>2018-09-13T09:32:50Z</time>
      </trkpt>
      <trkpt lat="45.9259" lon="4.88208">
        <ele>291</ele>
        <time>2018-09-13T09:32:51Z</time>
      </trkpt>
      <trkpt lat="45.92596" lon="4.88209">
        <ele>291</ele>
        <time>2018-09-13T09:32:52Z</time>
      </trkpt>
      <trkpt lat="45.92601" lon="4.88209">
        <ele>291</ele>
        <time>2018-09-13T09:32:53Z</time>
      </trkpt>
      <trkpt lat="45.92605" lon="4.88209">
        <ele>291</ele>
        <time>2018-09-13T09:32:54Z</time>
      </trkpt>
      <trkpt lat="45.92611" lon="4.88209">
        <ele>291</ele>
        <time>2018-09-13T09:32:55Z</time>
      </trkpt>
      <trkpt lat="45.9262" lon="4.8821">
        <ele>291</ele>
        <time>2018-09-13T09:32:57Z</time>
      </trkpt>
      <trkpt lat="45.92625" lon="4.8821">
        <ele>291</ele>
        <time>2018-09-13T09:32:58Z</time>
      </trkpt>
      <trkpt lat="45.92631" lon="4.88211">
        <ele>292</ele>
        <time>2018-09-13T09:32:59Z</time>
      </trkpt>
      <trkpt lat="45.92637" lon="4.8821">
        <ele>292</ele>
        <time>2018-09-13T09:33:00Z</time>
      </trkpt>
      <trkpt lat="45.92642" lon="4.88209">
        <ele>292</ele>
        <time>2018-09-13T09:33:01Z</time>
      </trkpt>
      <trkpt lat="45.92647" lon="4.8821">
        <ele>292</ele>
        <time>2018-09-13T09:33:02Z</time>
      </trkpt>
      <trkpt lat="45.92653" lon="4.8821">
        <ele>292</ele>
        <time>2018-09-13T09:33:03Z</time>
      </trkpt>
      <trkpt lat="45.92657" lon="4.8821">
        <ele>292</ele>
        <time>2018-09-13T09:33:04Z</time>
      </trkpt>
      <trkpt lat="45.92662" lon="4.88211">
        <ele>292</ele>
        <time>2018-09-13T09:33:05Z</time>
      </trkpt>
      <trkpt lat="45.92668" lon="4.88209">
        <ele>292</ele>
        <time>2018-09-13T09:33:06Z</time>
      </trkpt>
      <trkpt lat="45.92676" lon="4.88208">
        <ele>292</ele>
        <time>2018-09-13T09:33:08Z</time>
      </trkpt>
      <trkpt lat="45.92681" lon="4.88208">
        <ele>292</ele>
        <time>2018-09-13T09:33:09Z</time>
      </trkpt>
      <trkpt lat="45.92686" lon="4.88208">
        <ele>292</ele>
        <time>2018-09-13T09:33:10Z</time>
      </trkpt>
      <trkpt lat="45.92691" lon="4.88207">
        <ele>292</ele>
        <time>2018-09-13T09:33:11Z</time>
      </trkpt>
      <trkpt lat="45.92697" lon="4.8821">
        <ele>292</ele>
        <time>2018-09-13T09:33:12Z</time>
      </trkpt>
      <trkpt lat="45.92702" lon="4.8821">
        <ele>292</ele>
        <time>2018-09-13T09:33:13Z</time>
      </trkpt>
      <trkpt lat="45.92707" lon="4.88208">
        <ele>292</ele>
        <time>2018-09-13T09:33:14Z</time>
      </trkpt>
      <trkpt lat="45.92713" lon="4.88207">
        <ele>292</ele>
        <time>2018-09-13T09:33:15Z</time>
      </trkpt>
      <trkpt lat="45.92719" lon="4.88207">
        <ele>292</ele>
        <time>2018-09-13T09:33:16Z</time>
      </trkpt>
      <trkpt lat="45.92726" lon="4.88205">
        <ele>292</ele>
        <time>2018-09-13T09:33:17Z</time>
      </trkpt>
      <trkpt lat="45.92733" lon="4.88205">
        <ele>292</ele>
        <time>2018-09-13T09:33:18Z</time>
      </trkpt>
      <trkpt lat="45.92739" lon="4.88206">
        <ele>292</ele>
        <time>2018-09-13T09:33:19Z</time>
      </trkpt>
      <trkpt lat="45.92745" lon="4.88207">
        <ele>292</ele>
        <time>2018-09-13T09:33:20Z</time>
      </trkpt>
      <trkpt lat="45.92751" lon="4.88207">
        <ele>292</ele>
        <time>2018-09-13T09:33:21Z</time>
      </trkpt>
      <trkpt lat="45.92756" lon="4.88206">
        <ele>292</ele>
        <time>2018-09-13T09:33:22Z</time>
      </trkpt>
      <trkpt lat="45.92762" lon="4.88208">
        <ele>292</ele>
        <time>2018-09-13T09:33:23Z</time>
      </trkpt>
      <trkpt lat="45.92768" lon="4.88209">
        <ele>292</ele>
        <time>2018-09-13T09:33:25Z</time>
      </trkpt>
      <trkpt lat="45.92774" lon="4.88209">
        <ele>292</ele>
        <time>2018-09-13T09:33:26Z</time>
      </trkpt>
      <trkpt lat="45.9278" lon="4.88209">
        <ele>292</ele>
        <time>2018-09-13T09:33:27Z</time>
      </trkpt>
      <trkpt lat="45.92786" lon="4.88209">
        <ele>292</ele>
        <time>2018-09-13T09:33:28Z</time>
      </trkpt>
      <trkpt lat="45.92791" lon="4.88211">
        <ele>292</ele>
        <time>2018-09-13T09:33:29Z</time>
      </trkpt>
      <trkpt lat="45.92797" lon="4.88212">
        <ele>292</ele>
        <time>2018-09-13T09:33:30Z</time>
      </trkpt>
      <trkpt lat="45.92802" lon="4.88212">
        <ele>292</ele>
        <time>2018-09-13T09:33:31Z</time>
      </trkpt>
      <trkpt lat="45.92808" lon="4.88212">
        <ele>292</ele>
        <time>2018-09-13T09:33:32Z</time>
      </trkpt>
      <trkpt lat="45.92812" lon="4.88212">
        <ele>292</ele>
        <time>2018-09-13T09:33:33Z</time>
      </trkpt>
      <trkpt lat="45.92818" lon="4.88212">
        <ele>292</ele>
        <time>2018-09-13T09:33:34Z</time>
      </trkpt>
      <trkpt lat="45.92823" lon="4.88211">
        <ele>292</ele>
        <time>2018-09-13T09:33:35Z</time>
      </trkpt>
      <trkpt lat="45.92829" lon="4.88211">
        <ele>292</ele>
        <time>2018-09-13T09:33:36Z</time>
      </trkpt>
      <trkpt lat="45.92835" lon="4.8821">
        <ele>291</ele>
        <time>2018-09-13T09:33:37Z</time>
      </trkpt>
      <trkpt lat="45.92841" lon="4.8821">
        <ele>291</ele>
        <time>2018-09-13T09:33:38Z</time>
      </trkpt>
      <trkpt lat="45.92846" lon="4.88212">
        <ele>291</ele>
        <time>2018-09-13T09:33:39Z</time>
      </trkpt>
      <trkpt lat="45.92852" lon="4.88211">
        <ele>291</ele>
        <time>2018-09-13T09:33:40Z</time>
      </trkpt>
      <trkpt lat="45.92857" lon="4.8821">
        <ele>291</ele>
        <time>2018-09-13T09:33:41Z</time>
      </trkpt>
      <trkpt lat="45.92863" lon="4.8821">
        <ele>291</ele>
        <time>2018-09-13T09:33:42Z</time>
      </trkpt>
      <trkpt lat="45.92869" lon="4.8821">
        <ele>291</ele>
        <time>2018-09-13T09:33:43Z</time>
      </trkpt>
      <trkpt lat="45.92876" lon="4.88209">
        <ele>291</ele>
        <time>2018-09-13T09:33:44Z</time>
      </trkpt>
      <trkpt lat="45.92884" lon="4.88207">
        <ele>291</ele>
        <time>2018-09-13T09:33:45Z</time>
      </trkpt>
      <trkpt lat="45.9289" lon="4.88206">
        <ele>291</ele>
        <time>2018-09-13T09:33:46Z</time>
      </trkpt>
      <trkpt lat="45.92896" lon="4.88206">
        <ele>291</ele>
        <time>2018-09-13T09:33:47Z</time>
      </trkpt>
      <trkpt lat="45.92902" lon="4.88206">
        <ele>291</ele>
        <time>2018-09-13T09:33:48Z</time>
      </trkpt>
      <trkpt lat="45.92909" lon="4.88206">
        <ele>291</ele>
        <time>2018-09-13T09:33:49Z</time>
      </trkpt>
      <trkpt lat="45.92916" lon="4.88206">
        <ele>291</ele>
        <time>2018-09-13T09:33:50Z</time>
      </trkpt>
      <trkpt lat="45.92923" lon="4.88206">
        <ele>291</ele>
        <time>2018-09-13T09:33:51Z</time>
      </trkpt>
      <trkpt lat="45.9293" lon="4.88207">
        <ele>291</ele>
        <time>2018-09-13T09:33:52Z</time>
      </trkpt>
      <trkpt lat="45.92936" lon="4.88207">
        <ele>291</ele>
        <time>2018-09-13T09:33:53Z</time>
      </trkpt>
      <trkpt lat="45.92943" lon="4.88208">
        <ele>291</ele>
        <time>2018-09-13T09:33:54Z</time>
      </trkpt>
      <trkpt lat="45.92948" lon="4.8821">
        <ele>291</ele>
        <time>2018-09-13T09:33:55Z</time>
      </trkpt>
      <trkpt lat="45.92955" lon="4.88209">
        <ele>291</ele>
        <time>2018-09-13T09:33:56Z</time>
      </trkpt>
      <trkpt lat="45.92962" lon="4.8821">
        <ele>291</ele>
        <time>2018-09-13T09:33:57Z</time>
      </trkpt>
      <trkpt lat="45.92967" lon="4.8821">
        <ele>291</ele>
        <time>2018-09-13T09:33:58Z</time>
      </trkpt>
      <trkpt lat="45.92973" lon="4.8821">
        <ele>291</ele>
        <time>2018-09-13T09:33:59Z</time>
      </trkpt>
      <trkpt lat="45.9298" lon="4.88209">
        <ele>291</ele>
        <time>2018-09-13T09:34:00Z</time>
      </trkpt>
      <trkpt lat="45.92986" lon="4.88208">
        <ele>291</ele>
        <time>2018-09-13T09:34:01Z</time>
      </trkpt>
      <trkpt lat="45.92991" lon="4.88208">
        <ele>291</ele>
        <time>2018-09-13T09:34:02Z</time>
      </trkpt>
      <trkpt lat="45.92997" lon="4.88209">
        <ele>291</ele>
        <time>2018-09-13T09:34:03Z</time>
      </trkpt>
      <trkpt lat="45.93003" lon="4.88209">
        <ele>291</ele>
        <time>2018-09-13T09:34:04Z</time>
      </trkpt>
      <trkpt lat="45.93006" lon="4.88213">
        <ele>291</ele>
        <time>2018-09-13T09:34:05Z</time>
      </trkpt>
      <trkpt lat="45.93013" lon="4.88212">
        <ele>291</ele>
        <time>2018-09-13T09:34:06Z</time>
      </trkpt>
      <trkpt lat="45.93018" lon="4.88211">
        <ele>291</ele>
        <time>2018-09-13T09:34:07Z</time>
      </trkpt>
      <trkpt lat="45.93023" lon="4.88211">
        <ele>291</ele>
        <time>2018-09-13T09:34:08Z</time>
      </trkpt>
      <trkpt lat="45.93031" lon="4.88211">
        <ele>291</ele>
        <time>2018-09-13T09:34:10Z</time>
      </trkpt>
      <trkpt lat="45.93036" lon="4.8821">
        <ele>291</ele>
        <time>2018-09-13T09:34:11Z</time>
      </trkpt>
      <trkpt lat="45.93041" lon="4.8821">
        <ele>291</ele>
        <time>2018-09-13T09:34:12Z</time>
      </trkpt>
      <trkpt lat="45.93046" lon="4.88212">
        <ele>292</ele>
        <time>2018-09-13T09:34:13Z</time>
      </trkpt>
      <trkpt lat="45.93052" lon="4.88211">
        <ele>292</ele>
        <time>2018-09-13T09:34:14Z</time>
      </trkpt>
      <trkpt lat="45.93057" lon="4.88212">
        <ele>292</ele>
        <time>2018-09-13T09:34:15Z</time>
      </trkpt>
      <trkpt lat="45.93063" lon="4.88212">
        <ele>292</ele>
        <time>2018-09-13T09:34:16Z</time>
      </trkpt>
      <trkpt lat="45.93069" lon="4.88213">
        <ele>292</ele>
        <time>2018-09-13T09:34:17Z</time>
      </trkpt>
      <trkpt lat="45.93073" lon="4.88215">
        <ele>292</ele>
        <time>2018-09-13T09:34:18Z</time>
      </trkpt>
      <trkpt lat="45.93079" lon="4.88215">
        <ele>292</ele>
        <time>2018-09-13T09:34:19Z</time>
      </trkpt>
      <trkpt lat="45.93085" lon="4.88216">
        <ele>292</ele>
        <time>2018-09-13T09:34:20Z</time>
      </trkpt>
      <trkpt lat="45.93091" lon="4.88214">
        <ele>292</ele>
        <time>2018-09-13T09:34:21Z</time>
      </trkpt>
      <trkpt lat="45.93097" lon="4.88213">
        <ele>292</ele>
        <time>2018-09-13T09:34:22Z</time>
      </trkpt>
      <trkpt lat="45.93103" lon="4.88214">
        <ele>292</ele>
        <time>2018-09-13T09:34:23Z</time>
      </trkpt>
      <trkpt lat="45.9311" lon="4.88215">
        <ele>292</ele>
        <time>2018-09-13T09:34:24Z</time>
      </trkpt>
      <trkpt lat="45.93116" lon="4.88214">
        <ele>292</ele>
        <time>2018-09-13T09:34:25Z</time>
      </trkpt>
      <trkpt lat="45.93122" lon="4.88214">
        <ele>292</ele>
        <time>2018-09-13T09:34:26Z</time>
      </trkpt>
      <trkpt lat="45.93126" lon="4.88217">
        <ele>292</ele>
        <time>2018-09-13T09:34:27Z</time>
      </trkpt>
      <trkpt lat="45.93131" lon="4.88218">
        <ele>292</ele>
        <time>2018-09-13T09:34:28Z</time>
      </trkpt>
      <trkpt lat="45.93137" lon="4.88218">
        <ele>292</ele>
        <time>2018-09-13T09:34:29Z</time>
      </trkpt>
      <trkpt lat="45.93143" lon="4.88219">
        <ele>292</ele>
        <time>2018-09-13T09:34:30Z</time>
      </trkpt>
      <trkpt lat="45.93148" lon="4.8822">
        <ele>292</ele>
        <time>2018-09-13T09:34:31Z</time>
      </trkpt>
      <trkpt lat="45.93153" lon="4.8822">
        <ele>292</ele>
        <time>2018-09-13T09:34:32Z</time>
      </trkpt>
      <trkpt lat="45.93159" lon="4.88219">
        <ele>292</ele>
        <time>2018-09-13T09:34:33Z</time>
      </trkpt>
      <trkpt lat="45.93164" lon="4.88219">
        <ele>292</ele>
        <time>2018-09-13T09:34:34Z</time>
      </trkpt>
      <trkpt lat="45.9317" lon="4.88217">
        <ele>291</ele>
        <time>2018-09-13T09:34:35Z</time>
      </trkpt>
      <trkpt lat="45.93176" lon="4.88216">
        <ele>291</ele>
        <time>2018-09-13T09:34:36Z</time>
      </trkpt>
      <trkpt lat="45.93183" lon="4.88216">
        <ele>291</ele>
        <time>2018-09-13T09:34:37Z</time>
      </trkpt>
      <trkpt lat="45.93189" lon="4.88216">
        <ele>291</ele>
        <time>2018-09-13T09:34:38Z</time>
      </trkpt>
      <trkpt lat="45.93195" lon="4.88216">
        <ele>291</ele>
        <time>2018-09-13T09:34:39Z</time>
      </trkpt>
      <trkpt lat="45.93202" lon="4.88216">
        <ele>291</ele>
        <time>2018-09-13T09:34:40Z</time>
      </trkpt>
      <trkpt lat="45.93208" lon="4.88217">
        <ele>291</ele>
        <time>2018-09-13T09:34:41Z</time>
      </trkpt>
      <trkpt lat="45.93213" lon="4.88216">
        <ele>291</ele>
        <time>2018-09-13T09:34:42Z</time>
      </trkpt>
      <trkpt lat="45.93221" lon="4.88213">
        <ele>291</ele>
        <time>2018-09-13T09:34:43Z</time>
      </trkpt>
      <trkpt lat="45.93227" lon="4.88214">
        <ele>291</ele>
        <time>2018-09-13T09:34:44Z</time>
      </trkpt>
      <trkpt lat="45.93234" lon="4.88211">
        <ele>291</ele>
        <time>2018-09-13T09:34:45Z</time>
      </trkpt>
      <trkpt lat="45.93238" lon="4.88211">
        <ele>291</ele>
        <time>2018-09-13T09:34:46Z</time>
      </trkpt>
      <trkpt lat="45.93244" lon="4.88209">
        <ele>291</ele>
        <time>2018-09-13T09:34:47Z</time>
      </trkpt>
      <trkpt lat="45.9325" lon="4.88209">
        <ele>291</ele>
        <time>2018-09-13T09:34:48Z</time>
      </trkpt>
      <trkpt lat="45.93256" lon="4.88209">
        <ele>290</ele>
        <time>2018-09-13T09:34:49Z</time>
      </trkpt>
      <trkpt lat="45.93261" lon="4.8821">
        <ele>290</ele>
        <time>2018-09-13T09:34:50Z</time>
      </trkpt>
      <trkpt lat="45.93266" lon="4.88211">
        <ele>290</ele>
        <time>2018-09-13T09:34:51Z</time>
      </trkpt>
      <trkpt lat="45.93272" lon="4.8821">
        <ele>290</ele>
        <time>2018-09-13T09:34:52Z</time>
      </trkpt>
      <trkpt lat="45.93279" lon="4.8821">
        <ele>290</ele>
        <time>2018-09-13T09:34:53Z</time>
      </trkpt>
      <trkpt lat="45.93284" lon="4.8821">
        <ele>290</ele>
        <time>2018-09-13T09:34:54Z</time>
      </trkpt>
      <trkpt lat="45.9329" lon="4.88212">
        <ele>290</ele>
        <time>2018-09-13T09:34:55Z</time>
      </trkpt>
      <trkpt lat="45.93295" lon="4.88213">
        <ele>290</ele>
        <time>2018-09-13T09:34:56Z</time>
      </trkpt>
      <trkpt lat="45.93301" lon="4.88213">
        <ele>290</ele>
        <time>2018-09-13T09:34:57Z</time>
      </trkpt>
      <trkpt lat="45.93308" lon="4.88212">
        <ele>290</ele>
        <time>2018-09-13T09:34:58Z</time>
      </trkpt>
      <trkpt lat="45.93313" lon="4.88213">
        <ele>290</ele>
        <time>2018-09-13T09:34:59Z</time>
      </trkpt>
      <trkpt lat="45.9332" lon="4.8821">
        <ele>290</ele>
        <time>2018-09-13T09:35:00Z</time>
      </trkpt>
      <trkpt lat="45.93325" lon="4.88212">
        <ele>290</ele>
        <time>2018-09-13T09:35:01Z</time>
      </trkpt>
      <trkpt lat="45.93332" lon="4.8821">
        <ele>290</ele>
        <time>2018-09-13T09:35:02Z</time>
      </trkpt>
      <trkpt lat="45.93335" lon="4.8821">
        <ele>290</ele>
        <time>2018-09-13T09:35:03Z</time>
      </trkpt>
      <trkpt lat="45.93341" lon="4.88211">
        <ele>290</ele>
        <time>2018-09-13T09:35:04Z</time>
      </trkpt>
      <trkpt lat="45.93346" lon="4.88212">
        <ele>290</ele>
        <time>2018-09-13T09:35:05Z</time>
      </trkpt>
      <trkpt lat="45.93352" lon="4.88213">
        <ele>290</ele>
        <time>2018-09-13T09:35:06Z</time>
      </trkpt>
      <trkpt lat="45.93358" lon="4.88212">
        <ele>290</ele>
        <time>2018-09-13T09:35:07Z</time>
      </trkpt>
      <trkpt lat="45.93364" lon="4.88212">
        <ele>290</ele>
        <time>2018-09-13T09:35:08Z</time>
      </trkpt>
      <trkpt lat="45.93368" lon="4.88214">
        <ele>290</ele>
        <time>2018-09-13T09:35:09Z</time>
      </trkpt>
      <trkpt lat="45.93374" lon="4.88214">
        <ele>290</ele>
        <time>2018-09-13T09:35:10Z</time>
      </trkpt>
      <trkpt lat="45.93379" lon="4.88212">
        <ele>290</ele>
        <time>2018-09-13T09:35:11Z</time>
      </trkpt>
      <trkpt lat="45.93385" lon="4.88213">
        <ele>290</ele>
        <time>2018-09-13T09:35:12Z</time>
      </trkpt>
      <trkpt lat="45.9339" lon="4.88212">
        <ele>290</ele>
        <time>2018-09-13T09:35:13Z</time>
      </trkpt>
      <trkpt lat="45.93396" lon="4.88212">
        <ele>290</ele>
        <time>2018-09-13T09:35:14Z</time>
      </trkpt>
      <trkpt lat="45.93402" lon="4.88212">
        <ele>290</ele>
        <time>2018-09-13T09:35:15Z</time>
      </trkpt>
      <trkpt lat="45.93406" lon="4.88212">
        <ele>290</ele>
        <time>2018-09-13T09:35:16Z</time>
      </trkpt>
      <trkpt lat="45.93412" lon="4.88212">
        <ele>289</ele>
        <time>2018-09-13T09:35:17Z</time>
      </trkpt>
      <trkpt lat="45.93418" lon="4.88212">
        <ele>289</ele>
        <time>2018-09-13T09:35:18Z</time>
      </trkpt>
      <trkpt lat="45.93425" lon="4.88213">
        <ele>289</ele>
        <time>2018-09-13T09:35:19Z</time>
      </trkpt>
      <trkpt lat="45.9343" lon="4.88215">
        <ele>289</ele>
        <time>2018-09-13T09:35:20Z</time>
      </trkpt>
      <trkpt lat="45.93436" lon="4.88215">
        <ele>289</ele>
        <time>2018-09-13T09:35:21Z</time>
      </trkpt>
      <trkpt lat="45.93441" lon="4.88216">
        <ele>289</ele>
        <time>2018-09-13T09:35:22Z</time>
      </trkpt>
      <trkpt lat="45.93447" lon="4.88217">
        <ele>289</ele>
        <time>2018-09-13T09:35:23Z</time>
      </trkpt>
      <trkpt lat="45.93452" lon="4.88219">
        <ele>289</ele>
        <time>2018-09-13T09:35:24Z</time>
      </trkpt>
      <trkpt lat="45.93458" lon="4.88223">
        <ele>289</ele>
        <time>2018-09-13T09:35:25Z</time>
      </trkpt>
      <trkpt lat="45.93463" lon="4.88228">
        <ele>289</ele>
        <time>2018-09-13T09:35:26Z</time>
      </trkpt>
      <trkpt lat="45.93468" lon="4.88231">
        <ele>289</ele>
        <time>2018-09-13T09:35:27Z</time>
      </trkpt>
      <trkpt lat="45.93472" lon="4.88236">
        <ele>289</ele>
        <time>2018-09-13T09:35:28Z</time>
      </trkpt>
      <trkpt lat="45.93476" lon="4.88239">
        <ele>289</ele>
        <time>2018-09-13T09:35:29Z</time>
      </trkpt>
      <trkpt lat="45.93483" lon="4.8824">
        <ele>289</ele>
        <time>2018-09-13T09:35:30Z</time>
      </trkpt>
      <trkpt lat="45.93489" lon="4.88239">
        <ele>289</ele>
        <time>2018-09-13T09:35:31Z</time>
      </trkpt>
      <trkpt lat="45.93495" lon="4.88237">
        <ele>289</ele>
        <time>2018-09-13T09:35:32Z</time>
      </trkpt>
      <trkpt lat="45.93501" lon="4.88233">
        <ele>288</ele>
        <time>2018-09-13T09:35:33Z</time>
      </trkpt>
      <trkpt lat="45.93506" lon="4.88229">
        <ele>288</ele>
        <time>2018-09-13T09:35:34Z</time>
      </trkpt>
      <trkpt lat="45.93513" lon="4.88227">
        <ele>288</ele>
        <time>2018-09-13T09:35:35Z</time>
      </trkpt>
      <trkpt lat="45.93519" lon="4.88224">
        <ele>288</ele>
        <time>2018-09-13T09:35:36Z</time>
      </trkpt>
      <trkpt lat="45.93525" lon="4.88223">
        <ele>288</ele>
        <time>2018-09-13T09:35:37Z</time>
      </trkpt>
      <trkpt lat="45.93533" lon="4.8822">
        <ele>287</ele>
        <time>2018-09-13T09:35:38Z</time>
      </trkpt>
      <trkpt lat="45.93541" lon="4.88218">
        <ele>287</ele>
        <time>2018-09-13T09:35:39Z</time>
      </trkpt>
      <trkpt lat="45.93547" lon="4.88216">
        <ele>287</ele>
        <time>2018-09-13T09:35:40Z</time>
      </trkpt>
      <trkpt lat="45.93554" lon="4.88215">
        <ele>287</ele>
        <time>2018-09-13T09:35:41Z</time>
      </trkpt>
      <trkpt lat="45.93562" lon="4.88215">
        <ele>287</ele>
        <time>2018-09-13T09:35:42Z</time>
      </trkpt>
      <trkpt lat="45.93569" lon="4.88216">
        <ele>287</ele>
        <time>2018-09-13T09:35:43Z</time>
      </trkpt>
      <trkpt lat="45.93576" lon="4.88216">
        <ele>287</ele>
        <time>2018-09-13T09:35:44Z</time>
      </trkpt>
      <trkpt lat="45.93583" lon="4.88216">
        <ele>287</ele>
        <time>2018-09-13T09:35:45Z</time>
      </trkpt>
      <trkpt lat="45.93591" lon="4.88213">
        <ele>286</ele>
        <time>2018-09-13T09:35:46Z</time>
      </trkpt>
      <trkpt lat="45.93598" lon="4.88213">
        <ele>285</ele>
        <time>2018-09-13T09:35:47Z</time>
      </trkpt>
      <trkpt lat="45.93606" lon="4.88213">
        <ele>285</ele>
        <time>2018-09-13T09:35:48Z</time>
      </trkpt>
      <trkpt lat="45.93612" lon="4.88213">
        <ele>285</ele>
        <time>2018-09-13T09:35:49Z</time>
      </trkpt>
      <trkpt lat="45.93619" lon="4.88213">
        <ele>285</ele>
        <time>2018-09-13T09:35:50Z</time>
      </trkpt>
      <trkpt lat="45.93626" lon="4.88213">
        <ele>285</ele>
        <time>2018-09-13T09:35:51Z</time>
      </trkpt>
      <trkpt lat="45.93633" lon="4.88213">
        <ele>285</ele>
        <time>2018-09-13T09:35:52Z</time>
      </trkpt>
      <trkpt lat="45.9364" lon="4.88212">
        <ele>285</ele>
        <time>2018-09-13T09:35:53Z</time>
      </trkpt>
      <trkpt lat="45.93647" lon="4.88212">
        <ele>285</ele>
        <time>2018-09-13T09:35:54Z</time>
      </trkpt>
      <trkpt lat="45.93654" lon="4.88211">
        <ele>285</ele>
        <time>2018-09-13T09:35:55Z</time>
      </trkpt>
      <trkpt lat="45.93661" lon="4.88212">
        <ele>285</ele>
        <time>2018-09-13T09:35:56Z</time>
      </trkpt>
      <trkpt lat="45.93668" lon="4.88212">
        <ele>285</ele>
        <time>2018-09-13T09:35:57Z</time>
      </trkpt>
      <trkpt lat="45.93675" lon="4.88212">
        <ele>285</ele>
        <time>2018-09-13T09:35:58Z</time>
      </trkpt>
      <trkpt lat="45.93681" lon="4.88213">
        <ele>285</ele>
        <time>2018-09-13T09:35:59Z</time>
      </trkpt>
      <trkpt lat="45.93688" lon="4.88212">
        <ele>285</ele>
        <time>2018-09-13T09:36:00Z</time>
      </trkpt>
      <trkpt lat="45.93695" lon="4.88213">
        <ele>285</ele>
        <time>2018-09-13T09:36:01Z</time>
      </trkpt>
      <trkpt lat="45.93701" lon="4.88213">
        <ele>285</ele>
        <time>2018-09-13T09:36:02Z</time>
      </trkpt>
      <trkpt lat="45.93707" lon="4.88213">
        <ele>285</ele>
        <time>2018-09-13T09:36:03Z</time>
      </trkpt>
      <trkpt lat="45.93714" lon="4.88215">
        <ele>285</ele>
        <time>2018-09-13T09:36:04Z</time>
      </trkpt>
      <trkpt lat="45.93721" lon="4.88216">
        <ele>286</ele>
        <time>2018-09-13T09:36:05Z</time>
      </trkpt>
      <trkpt lat="45.93727" lon="4.88216">
        <ele>286</ele>
        <time>2018-09-13T09:36:06Z</time>
      </trkpt>
      <trkpt lat="45.93734" lon="4.88215">
        <ele>286</ele>
        <time>2018-09-13T09:36:07Z</time>
      </trkpt>
      <trkpt lat="45.93742" lon="4.88215">
        <ele>286</ele>
        <time>2018-09-13T09:36:08Z</time>
      </trkpt>
      <trkpt lat="45.93749" lon="4.88215">
        <ele>286</ele>
        <time>2018-09-13T09:36:09Z</time>
      </trkpt>
      <trkpt lat="45.93757" lon="4.88214">
        <ele>287</ele>
        <time>2018-09-13T09:36:10Z</time>
      </trkpt>
      <trkpt lat="45.93764" lon="4.88213">
        <ele>287</ele>
        <time>2018-09-13T09:36:11Z</time>
      </trkpt>
      <trkpt lat="45.93771" lon="4.88214">
        <ele>287</ele>
        <time>2018-09-13T09:36:12Z</time>
      </trkpt>
      <trkpt lat="45.93779" lon="4.88215">
        <ele>287</ele>
        <time>2018-09-13T09:36:13Z</time>
      </trkpt>
      <trkpt lat="45.93786" lon="4.88215">
        <ele>287</ele>
        <time>2018-09-13T09:36:14Z</time>
      </trkpt>
      <trkpt lat="45.93793" lon="4.88215">
        <ele>287</ele>
        <time>2018-09-13T09:36:15Z</time>
      </trkpt>
      <trkpt lat="45.938" lon="4.88216">
        <ele>288</ele>
        <time>2018-09-13T09:36:16Z</time>
      </trkpt>
      <trkpt lat="45.93807" lon="4.88216">
        <ele>288</ele>
        <time>2018-09-13T09:36:17Z</time>
      </trkpt>
      <trkpt lat="45.93814" lon="4.88217">
        <ele>288</ele>
        <time>2018-09-13T09:36:18Z</time>
      </trkpt>
      <trkpt lat="45.93822" lon="4.88217">
        <ele>288</ele>
        <time>2018-09-13T09:36:19Z</time>
      </trkpt>
      <trkpt lat="45.93829" lon="4.88217">
        <ele>288</ele>
        <time>2018-09-13T09:36:20Z</time>
      </trkpt>
      <trkpt lat="45.93836" lon="4.88217">
        <ele>289</ele>
        <time>2018-09-13T09:36:21Z</time>
      </trkpt>
      <trkpt lat="45.93843" lon="4.88217">
        <ele>289</ele>
        <time>2018-09-13T09:36:22Z</time>
      </trkpt>
      <trkpt lat="45.9385" lon="4.88216">
        <ele>289</ele>
        <time>2018-09-13T09:36:23Z</time>
      </trkpt>
      <trkpt lat="45.93857" lon="4.88216">
        <ele>289</ele>
        <time>2018-09-13T09:36:24Z</time>
      </trkpt>
      <trkpt lat="45.93862" lon="4.88217">
        <ele>289</ele>
        <time>2018-09-13T09:36:25Z</time>
      </trkpt>
      <trkpt lat="45.93869" lon="4.88218">
        <ele>289</ele>
        <time>2018-09-13T09:36:26Z</time>
      </trkpt>
      <trkpt lat="45.93877" lon="4.88217">
        <ele>289</ele>
        <time>2018-09-13T09:36:27Z</time>
      </trkpt>
      <trkpt lat="45.93884" lon="4.88217">
        <ele>289</ele>
        <time>2018-09-13T09:36:28Z</time>
      </trkpt>
      <trkpt lat="45.93893" lon="4.88217">
        <ele>289</ele>
        <time>2018-09-13T09:36:29Z</time>
      </trkpt>
      <trkpt lat="45.939" lon="4.88216">
        <ele>289</ele>
        <time>2018-09-13T09:36:30Z</time>
      </trkpt>
      <trkpt lat="45.93909" lon="4.88217">
        <ele>289</ele>
        <time>2018-09-13T09:36:31Z</time>
      </trkpt>
      <trkpt lat="45.93915" lon="4.88216">
        <ele>289</ele>
        <time>2018-09-13T09:36:32Z</time>
      </trkpt>
      <trkpt lat="45.93922" lon="4.88217">
        <ele>287</ele>
        <time>2018-09-13T09:36:33Z</time>
      </trkpt>
      <trkpt lat="45.93929" lon="4.88218">
        <ele>287</ele>
        <time>2018-09-13T09:36:34Z</time>
      </trkpt>
      <trkpt lat="45.93936" lon="4.8822">
        <ele>287</ele>
        <time>2018-09-13T09:36:35Z</time>
      </trkpt>
      <trkpt lat="45.93944" lon="4.88223">
        <ele>287</ele>
        <time>2018-09-13T09:36:36Z</time>
      </trkpt>
      <trkpt lat="45.93951" lon="4.88224">
        <ele>287</ele>
        <time>2018-09-13T09:36:37Z</time>
      </trkpt>
      <trkpt lat="45.93958" lon="4.88226">
        <ele>287</ele>
        <time>2018-09-13T09:36:38Z</time>
      </trkpt>
      <trkpt lat="45.93964" lon="4.88227">
        <ele>287</ele>
        <time>2018-09-13T09:36:39Z</time>
      </trkpt>
      <trkpt lat="45.93971" lon="4.88228">
        <ele>286</ele>
        <time>2018-09-13T09:36:40Z</time>
      </trkpt>
      <trkpt lat="45.93978" lon="4.88228">
        <ele>286</ele>
        <time>2018-09-13T09:36:41Z</time>
      </trkpt>
      <trkpt lat="45.93985" lon="4.88229">
        <ele>286</ele>
        <time>2018-09-13T09:36:42Z</time>
      </trkpt>
      <trkpt lat="45.93992" lon="4.8823">
        <ele>286</ele>
        <time>2018-09-13T09:36:43Z</time>
      </trkpt>
      <trkpt lat="45.93999" lon="4.88229">
        <ele>286</ele>
        <time>2018-09-13T09:36:44Z</time>
      </trkpt>
      <trkpt lat="45.94006" lon="4.88228">
        <ele>284</ele>
        <time>2018-09-13T09:36:45Z</time>
      </trkpt>
      <trkpt lat="45.94013" lon="4.88228">
        <ele>284</ele>
        <time>2018-09-13T09:36:46Z</time>
      </trkpt>
      <trkpt lat="45.9402" lon="4.88229">
        <ele>284</ele>
        <time>2018-09-13T09:36:47Z</time>
      </trkpt>
      <trkpt lat="45.94028" lon="4.88229">
        <ele>283</ele>
        <time>2018-09-13T09:36:48Z</time>
      </trkpt>
      <trkpt lat="45.94036" lon="4.88227">
        <ele>283</ele>
        <time>2018-09-13T09:36:49Z</time>
      </trkpt>
      <trkpt lat="45.94043" lon="4.88225">
        <ele>283</ele>
        <time>2018-09-13T09:36:50Z</time>
      </trkpt>
      <trkpt lat="45.94049" lon="4.88228">
        <ele>283</ele>
        <time>2018-09-13T09:36:51Z</time>
      </trkpt>
      <trkpt lat="45.94055" lon="4.88229">
        <ele>283</ele>
        <time>2018-09-13T09:36:52Z</time>
      </trkpt>
      <trkpt lat="45.94062" lon="4.88229">
        <ele>282</ele>
        <time>2018-09-13T09:36:53Z</time>
      </trkpt>
      <trkpt lat="45.94068" lon="4.88231">
        <ele>282</ele>
        <time>2018-09-13T09:36:54Z</time>
      </trkpt>
      <trkpt lat="45.94076" lon="4.88232">
        <ele>282</ele>
        <time>2018-09-13T09:36:55Z</time>
      </trkpt>
      <trkpt lat="45.94083" lon="4.88232">
        <ele>282</ele>
        <time>2018-09-13T09:36:56Z</time>
      </trkpt>
      <trkpt lat="45.9409" lon="4.88234">
        <ele>281</ele>
        <time>2018-09-13T09:36:57Z</time>
      </trkpt>
      <trkpt lat="45.94097" lon="4.88234">
        <ele>281</ele>
        <time>2018-09-13T09:36:58Z</time>
      </trkpt>
      <trkpt lat="45.94105" lon="4.88236">
        <ele>281</ele>
        <time>2018-09-13T09:36:59Z</time>
      </trkpt>
      <trkpt lat="45.94113" lon="4.88237">
        <ele>280</ele>
        <time>2018-09-13T09:37:00Z</time>
      </trkpt>
      <trkpt lat="45.94121" lon="4.88238">
        <ele>280</ele>
        <time>2018-09-13T09:37:01Z</time>
      </trkpt>
      <trkpt lat="45.94129" lon="4.8824">
        <ele>280</ele>
        <time>2018-09-13T09:37:02Z</time>
      </trkpt>
      <trkpt lat="45.94138" lon="4.88241">
        <ele>280</ele>
        <time>2018-09-13T09:37:03Z</time>
      </trkpt>
      <trkpt lat="45.94146" lon="4.88243">
        <ele>280</ele>
        <time>2018-09-13T09:37:04Z</time>
      </trkpt>
      <trkpt lat="45.94154" lon="4.88244">
        <ele>279</ele>
        <time>2018-09-13T09:37:05Z</time>
      </trkpt>
      <trkpt lat="45.94162" lon="4.88246">
        <ele>279</ele>
        <time>2018-09-13T09:37:06Z</time>
      </trkpt>
      <trkpt lat="45.9417" lon="4.88246">
        <ele>279</ele>
        <time>2018-09-13T09:37:07Z</time>
      </trkpt>
      <trkpt lat="45.94177" lon="4.88247">
        <ele>279</ele>
        <time>2018-09-13T09:37:08Z</time>
      </trkpt>
      <trkpt lat="45.94185" lon="4.88248">
        <ele>278</ele>
        <time>2018-09-13T09:37:09Z</time>
      </trkpt>
      <trkpt lat="45.94193" lon="4.88249">
        <ele>278</ele>
        <time>2018-09-13T09:37:10Z</time>
      </trkpt>
      <trkpt lat="45.94202" lon="4.8825">
        <ele>278</ele>
        <time>2018-09-13T09:37:11Z</time>
      </trkpt>
      <trkpt lat="45.9421" lon="4.88251">
        <ele>279</ele>
        <time>2018-09-13T09:37:12Z</time>
      </trkpt>
      <trkpt lat="45.94217" lon="4.88252">
        <ele>279</ele>
        <time>2018-09-13T09:37:13Z</time>
      </trkpt>
      <trkpt lat="45.94225" lon="4.88253">
        <ele>279</ele>
        <time>2018-09-13T09:37:14Z</time>
      </trkpt>
      <trkpt lat="45.94233" lon="4.88255">
        <ele>279</ele>
        <time>2018-09-13T09:37:15Z</time>
      </trkpt>
      <trkpt lat="45.9424" lon="4.88255">
        <ele>278</ele>
        <time>2018-09-13T09:37:16Z</time>
      </trkpt>
      <trkpt lat="45.94248" lon="4.88256">
        <ele>278</ele>
        <time>2018-09-13T09:37:17Z</time>
      </trkpt>
      <trkpt lat="45.94255" lon="4.88257">
        <ele>278</ele>
        <time>2018-09-13T09:37:18Z</time>
      </trkpt>
      <trkpt lat="45.94262" lon="4.88258">
        <ele>278</ele>
        <time>2018-09-13T09:37:19Z</time>
      </trkpt>
      <trkpt lat="45.9427" lon="4.88258">
        <ele>278</ele>
        <time>2018-09-13T09:37:20Z</time>
      </trkpt>
      <trkpt lat="45.94277" lon="4.88259">
        <ele>278</ele>
        <time>2018-09-13T09:37:21Z</time>
      </trkpt>
      <trkpt lat="45.94284" lon="4.88259">
        <ele>277</ele>
        <time>2018-09-13T09:37:22Z</time>
      </trkpt>
      <trkpt lat="45.9429" lon="4.88261">
        <ele>277</ele>
        <time>2018-09-13T09:37:23Z</time>
      </trkpt>
      <trkpt lat="45.94296" lon="4.88262">
        <ele>277</ele>
        <time>2018-09-13T09:37:24Z</time>
      </trkpt>
      <trkpt lat="45.94302" lon="4.88263">
        <ele>277</ele>
        <time>2018-09-13T09:37:25Z</time>
      </trkpt>
      <trkpt lat="45.94309" lon="4.88264">
        <ele>277</ele>
        <time>2018-09-13T09:37:26Z</time>
      </trkpt>
      <trkpt lat="45.94316" lon="4.88264">
        <ele>277</ele>
        <time>2018-09-13T09:37:27Z</time>
      </trkpt>
      <trkpt lat="45.94322" lon="4.88263">
        <ele>277</ele>
        <time>2018-09-13T09:37:28Z</time>
      </trkpt>
      <trkpt lat="45.94327" lon="4.88266">
        <ele>277</ele>
        <time>2018-09-13T09:37:29Z</time>
      </trkpt>
      <trkpt lat="45.94332" lon="4.88267">
        <ele>277</ele>
        <time>2018-09-13T09:37:30Z</time>
      </trkpt>
      <trkpt lat="45.94339" lon="4.88269">
        <ele>276</ele>
        <time>2018-09-13T09:37:31Z</time>
      </trkpt>
      <trkpt lat="45.94346" lon="4.88269">
        <ele>276</ele>
        <time>2018-09-13T09:37:32Z</time>
      </trkpt>
      <trkpt lat="45.94351" lon="4.88271">
        <ele>276</ele>
        <time>2018-09-13T09:37:33Z</time>
      </trkpt>
      <trkpt lat="45.94356" lon="4.8827">
        <ele>276</ele>
        <time>2018-09-13T09:37:34Z</time>
      </trkpt>
      <trkpt lat="45.94362" lon="4.88271">
        <ele>276</ele>
        <time>2018-09-13T09:37:35Z</time>
      </trkpt>
      <trkpt lat="45.94367" lon="4.88273">
        <ele>276</ele>
        <time>2018-09-13T09:37:36Z</time>
      </trkpt>
      <trkpt lat="45.94372" lon="4.88274">
        <ele>276</ele>
        <time>2018-09-13T09:37:37Z</time>
      </trkpt>
      <trkpt lat="45.94379" lon="4.88275">
        <ele>276</ele>
        <time>2018-09-13T09:37:38Z</time>
      </trkpt>
      <trkpt lat="45.94384" lon="4.88277">
        <ele>276</ele>
        <time>2018-09-13T09:37:39Z</time>
      </trkpt>
      <trkpt lat="45.9439" lon="4.88277">
        <ele>276</ele>
        <time>2018-09-13T09:37:40Z</time>
      </trkpt>
      <trkpt lat="45.94396" lon="4.88278">
        <ele>276</ele>
        <time>2018-09-13T09:37:41Z</time>
      </trkpt>
      <trkpt lat="45.94401" lon="4.88278">
        <ele>276</ele>
        <time>2018-09-13T09:37:42Z</time>
      </trkpt>
      <trkpt lat="45.94407" lon="4.88279">
        <ele>276</ele>
        <time>2018-09-13T09:37:43Z</time>
      </trkpt>
      <trkpt lat="45.94413" lon="4.8828">
        <ele>276</ele>
        <time>2018-09-13T09:37:44Z</time>
      </trkpt>
      <trkpt lat="45.94419" lon="4.8828">
        <ele>276</ele>
        <time>2018-09-13T09:37:45Z</time>
      </trkpt>
      <trkpt lat="45.94425" lon="4.88281">
        <ele>276</ele>
        <time>2018-09-13T09:37:46Z</time>
      </trkpt>
      <trkpt lat="45.9443" lon="4.88282">
        <ele>276</ele>
        <time>2018-09-13T09:37:47Z</time>
      </trkpt>
      <trkpt lat="45.94437" lon="4.88281">
        <ele>276</ele>
        <time>2018-09-13T09:37:48Z</time>
      </trkpt>
      <trkpt lat="45.94443" lon="4.88282">
        <ele>276</ele>
        <time>2018-09-13T09:37:49Z</time>
      </trkpt>
      <trkpt lat="45.94449" lon="4.88283">
        <ele>276</ele>
        <time>2018-09-13T09:37:50Z</time>
      </trkpt>
      <trkpt lat="45.94455" lon="4.88284">
        <ele>276</ele>
        <time>2018-09-13T09:37:51Z</time>
      </trkpt>
      <trkpt lat="45.94461" lon="4.88285">
        <ele>276</ele>
        <time>2018-09-13T09:37:52Z</time>
      </trkpt>
      <trkpt lat="45.94466" lon="4.88287">
        <ele>276</ele>
        <time>2018-09-13T09:37:53Z</time>
      </trkpt>
      <trkpt lat="45.94472" lon="4.88288">
        <ele>276</ele>
        <time>2018-09-13T09:37:54Z</time>
      </trkpt>
      <trkpt lat="45.94478" lon="4.88289">
        <ele>276</ele>
        <time>2018-09-13T09:37:55Z</time>
      </trkpt>
      <trkpt lat="45.94484" lon="4.88289">
        <ele>276</ele>
        <time>2018-09-13T09:37:56Z</time>
      </trkpt>
      <trkpt lat="45.94489" lon="4.8829">
        <ele>276</ele>
        <time>2018-09-13T09:37:57Z</time>
      </trkpt>
      <trkpt lat="45.94496" lon="4.88291">
        <ele>276</ele>
        <time>2018-09-13T09:37:58Z</time>
      </trkpt>
      <trkpt lat="45.94503" lon="4.88292">
        <ele>275</ele>
        <time>2018-09-13T09:37:59Z</time>
      </trkpt>
      <trkpt lat="45.9451" lon="4.88293">
        <ele>275</ele>
        <time>2018-09-13T09:38:00Z</time>
      </trkpt>
      <trkpt lat="45.94517" lon="4.88294">
        <ele>275</ele>
        <time>2018-09-13T09:38:01Z</time>
      </trkpt>
      <trkpt lat="45.94523" lon="4.88295">
        <ele>275</ele>
        <time>2018-09-13T09:38:02Z</time>
      </trkpt>
      <trkpt lat="45.94529" lon="4.88296">
        <ele>275</ele>
        <time>2018-09-13T09:38:03Z</time>
      </trkpt>
      <trkpt lat="45.94535" lon="4.88297">
        <ele>275</ele>
        <time>2018-09-13T09:38:04Z</time>
      </trkpt>
      <trkpt lat="45.94541" lon="4.88299">
        <ele>275</ele>
        <time>2018-09-13T09:38:05Z</time>
      </trkpt>
      <trkpt lat="45.94547" lon="4.88299">
        <ele>275</ele>
        <time>2018-09-13T09:38:06Z</time>
      </trkpt>
      <trkpt lat="45.94552" lon="4.88302">
        <ele>275</ele>
        <time>2018-09-13T09:38:07Z</time>
      </trkpt>
      <trkpt lat="45.94557" lon="4.88303">
        <ele>275</ele>
        <time>2018-09-13T09:38:08Z</time>
      </trkpt>
      <trkpt lat="45.94563" lon="4.88303">
        <ele>275</ele>
        <time>2018-09-13T09:38:09Z</time>
      </trkpt>
      <trkpt lat="45.94567" lon="4.88303">
        <ele>275</ele>
        <time>2018-09-13T09:38:10Z</time>
      </trkpt>
      <trkpt lat="45.94573" lon="4.88303">
        <ele>275</ele>
        <time>2018-09-13T09:38:11Z</time>
      </trkpt>
      <trkpt lat="45.94579" lon="4.88303">
        <ele>275</ele>
        <time>2018-09-13T09:38:12Z</time>
      </trkpt>
      <trkpt lat="45.94584" lon="4.88305">
        <ele>275</ele>
        <time>2018-09-13T09:38:13Z</time>
      </trkpt>
      <trkpt lat="45.9459" lon="4.88305">
        <ele>275</ele>
        <time>2018-09-13T09:38:14Z</time>
      </trkpt>
      <trkpt lat="45.94596" lon="4.88305">
        <ele>275</ele>
        <time>2018-09-13T09:38:15Z</time>
      </trkpt>
      <trkpt lat="45.94601" lon="4.88307">
        <ele>275</ele>
        <time>2018-09-13T09:38:16Z</time>
      </trkpt>
      <trkpt lat="45.94607" lon="4.88307">
        <ele>275</ele>
        <time>2018-09-13T09:38:17Z</time>
      </trkpt>
      <trkpt lat="45.94613" lon="4.88308">
        <ele>275</ele>
        <time>2018-09-13T09:38:18Z</time>
      </trkpt>
      <trkpt lat="45.94619" lon="4.88309">
        <ele>275</ele>
        <time>2018-09-13T09:38:19Z</time>
      </trkpt>
      <trkpt lat="45.94625" lon="4.8831">
        <ele>275</ele>
        <time>2018-09-13T09:38:20Z</time>
      </trkpt>
      <trkpt lat="45.9463" lon="4.88311">
        <ele>276</ele>
        <time>2018-09-13T09:38:21Z</time>
      </trkpt>
      <trkpt lat="45.94636" lon="4.88311">
        <ele>276</ele>
        <time>2018-09-13T09:38:22Z</time>
      </trkpt>
      <trkpt lat="45.94643" lon="4.88312">
        <ele>276</ele>
        <time>2018-09-13T09:38:23Z</time>
      </trkpt>
      <trkpt lat="45.94648" lon="4.88313">
        <ele>276</ele>
        <time>2018-09-13T09:38:24Z</time>
      </trkpt>
      <trkpt lat="45.94654" lon="4.88314">
        <ele>276</ele>
        <time>2018-09-13T09:38:25Z</time>
      </trkpt>
      <trkpt lat="45.94659" lon="4.88315">
        <ele>276</ele>
        <time>2018-09-13T09:38:26Z</time>
      </trkpt>
      <trkpt lat="45.94664" lon="4.88315">
        <ele>276</ele>
        <time>2018-09-13T09:38:27Z</time>
      </trkpt>
      <trkpt lat="45.94668" lon="4.88316">
        <ele>276</ele>
        <time>2018-09-13T09:38:28Z</time>
      </trkpt>
      <trkpt lat="45.94674" lon="4.88317">
        <ele>276</ele>
        <time>2018-09-13T09:38:29Z</time>
      </trkpt>
      <trkpt lat="45.94679" lon="4.88317">
        <ele>276</ele>
        <time>2018-09-13T09:38:30Z</time>
      </trkpt>
      <trkpt lat="45.94684" lon="4.88319">
        <ele>276</ele>
        <time>2018-09-13T09:38:31Z</time>
      </trkpt>
      <trkpt lat="45.9469" lon="4.88318">
        <ele>276</ele>
        <time>2018-09-13T09:38:32Z</time>
      </trkpt>
      <trkpt lat="45.94696" lon="4.88319">
        <ele>276</ele>
        <time>2018-09-13T09:38:33Z</time>
      </trkpt>
      <trkpt lat="45.947" lon="4.88321">
        <ele>276</ele>
        <time>2018-09-13T09:38:34Z</time>
      </trkpt>
      <trkpt lat="45.94706" lon="4.88323">
        <ele>276</ele>
        <time>2018-09-13T09:38:35Z</time>
      </trkpt>
      <trkpt lat="45.94711" lon="4.88323">
        <ele>276</ele>
        <time>2018-09-13T09:38:36Z</time>
      </trkpt>
      <trkpt lat="45.94717" lon="4.88324">
        <ele>276</ele>
        <time>2018-09-13T09:38:37Z</time>
      </trkpt>
      <trkpt lat="45.94723" lon="4.88325">
        <ele>276</ele>
        <time>2018-09-13T09:38:38Z</time>
      </trkpt>
      <trkpt lat="45.94728" lon="4.88327">
        <ele>277</ele>
        <time>2018-09-13T09:38:39Z</time>
      </trkpt>
      <trkpt lat="45.94735" lon="4.88328">
        <ele>277</ele>
        <time>2018-09-13T09:38:41Z</time>
      </trkpt>
      <trkpt lat="45.9474" lon="4.88328">
        <ele>277</ele>
        <time>2018-09-13T09:38:42Z</time>
      </trkpt>
      <trkpt lat="45.94748" lon="4.88331">
        <ele>277</ele>
        <time>2018-09-13T09:38:44Z</time>
      </trkpt>
      <trkpt lat="45.94754" lon="4.88332">
        <ele>277</ele>
        <time>2018-09-13T09:38:45Z</time>
      </trkpt>
      <trkpt lat="45.94761" lon="4.88332">
        <ele>277</ele>
        <time>2018-09-13T09:38:46Z</time>
      </trkpt>
      <trkpt lat="45.94767" lon="4.88334">
        <ele>277</ele>
        <time>2018-09-13T09:38:47Z</time>
      </trkpt>
      <trkpt lat="45.94773" lon="4.88334">
        <ele>278</ele>
        <time>2018-09-13T09:38:48Z</time>
      </trkpt>
      <trkpt lat="45.94779" lon="4.88335">
        <ele>278</ele>
        <time>2018-09-13T09:38:49Z</time>
      </trkpt>
      <trkpt lat="45.94787" lon="4.88336">
        <ele>278</ele>
        <time>2018-09-13T09:38:51Z</time>
      </trkpt>
      <trkpt lat="45.94791" lon="4.88337">
        <ele>278</ele>
        <time>2018-09-13T09:38:52Z</time>
      </trkpt>
      <trkpt lat="45.94795" lon="4.88336">
        <ele>278</ele>
        <time>2018-09-13T09:38:53Z</time>
      </trkpt>
      <trkpt lat="45.948" lon="4.88338">
        <ele>278</ele>
        <time>2018-09-13T09:38:54Z</time>
      </trkpt>
      <trkpt lat="45.94808" lon="4.88339">
        <ele>278</ele>
        <time>2018-09-13T09:38:56Z</time>
      </trkpt>
      <trkpt lat="45.94812" lon="4.8834">
        <ele>278</ele>
        <time>2018-09-13T09:38:57Z</time>
      </trkpt>
      <trkpt lat="45.94817" lon="4.88339">
        <ele>278</ele>
        <time>2018-09-13T09:38:58Z</time>
      </trkpt>
      <trkpt lat="45.94822" lon="4.88338">
        <ele>278</ele>
        <time>2018-09-13T09:38:59Z</time>
      </trkpt>
      <trkpt lat="45.9483" lon="4.88338">
        <ele>279</ele>
        <time>2018-09-13T09:39:01Z</time>
      </trkpt>
      <trkpt lat="45.94834" lon="4.88336">
        <ele>279</ele>
        <time>2018-09-13T09:39:02Z</time>
      </trkpt>
      <trkpt lat="45.94842" lon="4.88335">
        <ele>279</ele>
        <time>2018-09-13T09:39:04Z</time>
      </trkpt>
      <trkpt lat="45.94847" lon="4.88331">
        <ele>280</ele>
        <time>2018-09-13T09:39:05Z</time>
      </trkpt>
      <trkpt lat="45.94854" lon="4.88329">
        <ele>280</ele>
        <time>2018-09-13T09:39:07Z</time>
      </trkpt>
      <trkpt lat="45.94858" lon="4.88327">
        <ele>280</ele>
        <time>2018-09-13T09:39:08Z</time>
      </trkpt>
      <trkpt lat="45.94866" lon="4.88326">
        <ele>280</ele>
        <time>2018-09-13T09:39:10Z</time>
      </trkpt>
      <trkpt lat="45.94869" lon="4.88326">
        <ele>280</ele>
        <time>2018-09-13T09:39:11Z</time>
      </trkpt>
      <trkpt lat="45.94877" lon="4.88324">
        <ele>280</ele>
        <time>2018-09-13T09:39:13Z</time>
      </trkpt>
      <trkpt lat="45.9488" lon="4.88323">
        <ele>280</ele>
        <time>2018-09-13T09:39:14Z</time>
      </trkpt>
      <trkpt lat="45.94888" lon="4.8832">
        <ele>281</ele>
        <time>2018-09-13T09:39:16Z</time>
      </trkpt>
      <trkpt lat="45.94892" lon="4.88319">
        <ele>281</ele>
        <time>2018-09-13T09:39:17Z</time>
      </trkpt>
      <trkpt lat="45.949" lon="4.88316">
        <ele>281</ele>
        <time>2018-09-13T09:39:19Z</time>
      </trkpt>
      <trkpt lat="45.94905" lon="4.88311">
        <ele>281</ele>
        <time>2018-09-13T09:39:20Z</time>
      </trkpt>
      <trkpt lat="45.94913" lon="4.88308">
        <ele>281</ele>
        <time>2018-09-13T09:39:22Z</time>
      </trkpt>
      <trkpt lat="45.94917" lon="4.88305">
        <ele>283</ele>
        <time>2018-09-13T09:39:23Z</time>
      </trkpt>
      <trkpt lat="45.94923" lon="4.88301">
        <ele>283</ele>
        <time>2018-09-13T09:39:24Z</time>
      </trkpt>
      <trkpt lat="45.94927" lon="4.88299">
        <ele>283</ele>
        <time>2018-09-13T09:39:25Z</time>
      </trkpt>
      <trkpt lat="45.94932" lon="4.88295">
        <ele>283</ele>
        <time>2018-09-13T09:39:26Z</time>
      </trkpt>
      <trkpt lat="45.94936" lon="4.88294">
        <ele>283</ele>
        <time>2018-09-13T09:39:27Z</time>
      </trkpt>
      <trkpt lat="45.94944" lon="4.88293">
        <ele>283</ele>
        <time>2018-09-13T09:39:29Z</time>
      </trkpt>
      <trkpt lat="45.94948" lon="4.88291">
        <ele>283</ele>
        <time>2018-09-13T09:39:30Z</time>
      </trkpt>
      <trkpt lat="45.94953" lon="4.88289">
        <ele>283</ele>
        <time>2018-09-13T09:39:31Z</time>
      </trkpt>
      <trkpt lat="45.94957" lon="4.88287">
        <ele>283</ele>
        <time>2018-09-13T09:39:32Z</time>
      </trkpt>
      <trkpt lat="45.94965" lon="4.88284">
        <ele>283</ele>
        <time>2018-09-13T09:39:34Z</time>
      </trkpt>
      <trkpt lat="45.94968" lon="4.88282">
        <ele>283</ele>
        <time>2018-09-13T09:39:35Z</time>
      </trkpt>
      <trkpt lat="45.94976" lon="4.8828">
        <ele>283</ele>
        <time>2018-09-13T09:39:37Z</time>
      </trkpt>
      <trkpt lat="45.9498" lon="4.88279">
        <ele>283</ele>
        <time>2018-09-13T09:39:38Z</time>
      </trkpt>
      <trkpt lat="45.94986" lon="4.88277">
        <ele>283</ele>
        <time>2018-09-13T09:39:39Z</time>
      </trkpt>
      <trkpt lat="45.94991" lon="4.88276">
        <ele>283</ele>
        <time>2018-09-13T09:39:40Z</time>
      </trkpt>
      <trkpt lat="45.94996" lon="4.88275">
        <ele>283</ele>
        <time>2018-09-13T09:39:41Z</time>
      </trkpt>
      <trkpt lat="45.95001" lon="4.88274">
        <ele>285</ele>
        <time>2018-09-13T09:39:42Z</time>
      </trkpt>
      <trkpt lat="45.95009" lon="4.88271">
        <ele>285</ele>
        <time>2018-09-13T09:39:44Z</time>
      </trkpt>
      <trkpt lat="45.95013" lon="4.8827">
        <ele>285</ele>
        <time>2018-09-13T09:39:45Z</time>
      </trkpt>
      <trkpt lat="45.95022" lon="4.88267">
        <ele>285</ele>
        <time>2018-09-13T09:39:47Z</time>
      </trkpt>
      <trkpt lat="45.95027" lon="4.88264">
        <ele>285</ele>
        <time>2018-09-13T09:39:48Z</time>
      </trkpt>
      <trkpt lat="45.9503" lon="4.88261">
        <ele>285</ele>
        <time>2018-09-13T09:39:49Z</time>
      </trkpt>
      <trkpt lat="45.95035" lon="4.88259">
        <ele>285</ele>
        <time>2018-09-13T09:39:50Z</time>
      </trkpt>
      <trkpt lat="45.95041" lon="4.88258">
        <ele>285</ele>
        <time>2018-09-13T09:39:51Z</time>
      </trkpt>
      <trkpt lat="45.95046" lon="4.88257">
        <ele>286</ele>
        <time>2018-09-13T09:39:52Z</time>
      </trkpt>
      <trkpt lat="45.95051" lon="4.88254">
        <ele>286</ele>
        <time>2018-09-13T09:39:53Z</time>
      </trkpt>
      <trkpt lat="45.95055" lon="4.88253">
        <ele>286</ele>
        <time>2018-09-13T09:39:54Z</time>
      </trkpt>
      <trkpt lat="45.9506" lon="4.88252">
        <ele>286</ele>
        <time>2018-09-13T09:39:55Z</time>
      </trkpt>
      <trkpt lat="45.95064" lon="4.88249">
        <ele>286</ele>
        <time>2018-09-13T09:39:56Z</time>
      </trkpt>
      <trkpt lat="45.95071" lon="4.88246">
        <ele>286</ele>
        <time>2018-09-13T09:39:58Z</time>
      </trkpt>
      <trkpt lat="45.95075" lon="4.88244">
        <ele>286</ele>
        <time>2018-09-13T09:39:59Z</time>
      </trkpt>
      <trkpt lat="45.95083" lon="4.88242">
        <ele>286</ele>
        <time>2018-09-13T09:40:01Z</time>
      </trkpt>
      <trkpt lat="45.95088" lon="4.88241">
        <ele>287</ele>
        <time>2018-09-13T09:40:02Z</time>
      </trkpt>
      <trkpt lat="45.95097" lon="4.88239">
        <ele>287</ele>
        <time>2018-09-13T09:40:04Z</time>
      </trkpt>
      <trkpt lat="45.95101" lon="4.88239">
        <ele>287</ele>
        <time>2018-09-13T09:40:05Z</time>
      </trkpt>
      <trkpt lat="45.95108" lon="4.88238">
        <ele>287</ele>
        <time>2018-09-13T09:40:07Z</time>
      </trkpt>
      <trkpt lat="45.9511" lon="4.88237">
        <ele>287</ele>
        <time>2018-09-13T09:40:08Z</time>
      </trkpt>
      <trkpt lat="45.95117" lon="4.88232">
        <ele>287</ele>
        <time>2018-09-13T09:40:10Z</time>
      </trkpt>
      <trkpt lat="45.95121" lon="4.88227">
        <ele>287</ele>
        <time>2018-09-13T09:40:11Z</time>
      </trkpt>
      <trkpt lat="45.95125" lon="4.88216">
        <ele>287</ele>
        <time>2018-09-13T09:40:13Z</time>
      </trkpt>
      <trkpt lat="45.95127" lon="4.88209">
        <ele>287</ele>
        <time>2018-09-13T09:40:14Z</time>
      </trkpt>
      <trkpt lat="45.9513" lon="4.88202">
        <ele>287</ele>
        <time>2018-09-13T09:40:15Z</time>
      </trkpt>
      <trkpt lat="45.95133" lon="4.88194">
        <ele>287</ele>
        <time>2018-09-13T09:40:16Z</time>
      </trkpt>
      <trkpt lat="45.95138" lon="4.88188">
        <ele>286</ele>
        <time>2018-09-13T09:40:17Z</time>
      </trkpt>
      <trkpt lat="45.95144" lon="4.88185">
        <ele>286</ele>
        <time>2018-09-13T09:40:18Z</time>
      </trkpt>
      <trkpt lat="45.95149" lon="4.88181">
        <ele>286</ele>
        <time>2018-09-13T09:40:19Z</time>
      </trkpt>
      <trkpt lat="45.95155" lon="4.8818">
        <ele>286</ele>
        <time>2018-09-13T09:40:20Z</time>
      </trkpt>
      <trkpt lat="45.95162" lon="4.88179">
        <ele>286</ele>
        <time>2018-09-13T09:40:21Z</time>
      </trkpt>
      <trkpt lat="45.95169" lon="4.88178">
        <ele>285</ele>
        <time>2018-09-13T09:40:22Z</time>
      </trkpt>
      <trkpt lat="45.95176" lon="4.88178">
        <ele>285</ele>
        <time>2018-09-13T09:40:23Z</time>
      </trkpt>
      <trkpt lat="45.95183" lon="4.88176">
        <ele>285</ele>
        <time>2018-09-13T09:40:24Z</time>
      </trkpt>
      <trkpt lat="45.95189" lon="4.88175">
        <ele>285</ele>
        <time>2018-09-13T09:40:25Z</time>
      </trkpt>
      <trkpt lat="45.95196" lon="4.88172">
        <ele>285</ele>
        <time>2018-09-13T09:40:26Z</time>
      </trkpt>
      <trkpt lat="45.95204" lon="4.88172">
        <ele>285</ele>
        <time>2018-09-13T09:40:27Z</time>
      </trkpt>
      <trkpt lat="45.95211" lon="4.8817">
        <ele>284</ele>
        <time>2018-09-13T09:40:28Z</time>
      </trkpt>
      <trkpt lat="45.95219" lon="4.88169">
        <ele>284</ele>
        <time>2018-09-13T09:40:29Z</time>
      </trkpt>
      <trkpt lat="45.95227" lon="4.88168">
        <ele>284</ele>
        <time>2018-09-13T09:40:30Z</time>
      </trkpt>
      <trkpt lat="45.95235" lon="4.88168">
        <ele>283</ele>
        <time>2018-09-13T09:40:31Z</time>
      </trkpt>
      <trkpt lat="45.95243" lon="4.88167">
        <ele>282</ele>
        <time>2018-09-13T09:40:32Z</time>
      </trkpt>
      <trkpt lat="45.95251" lon="4.88167">
        <ele>281</ele>
        <time>2018-09-13T09:40:33Z</time>
      </trkpt>
      <trkpt lat="45.9526" lon="4.8817">
        <ele>281</ele>
        <time>2018-09-13T09:40:34Z</time>
      </trkpt>
      <trkpt lat="45.95268" lon="4.8817">
        <ele>281</ele>
        <time>2018-09-13T09:40:35Z</time>
      </trkpt>
      <trkpt lat="45.95277" lon="4.8817">
        <ele>281</ele>
        <time>2018-09-13T09:40:36Z</time>
      </trkpt>
      <trkpt lat="45.95285" lon="4.88171">
        <ele>281</ele>
        <time>2018-09-13T09:40:37Z</time>
      </trkpt>
      <trkpt lat="45.95294" lon="4.88172">
        <ele>281</ele>
        <time>2018-09-13T09:40:38Z</time>
      </trkpt>
      <trkpt lat="45.95303" lon="4.88172">
        <ele>281</ele>
        <time>2018-09-13T09:40:39Z</time>
      </trkpt>
      <trkpt lat="45.95312" lon="4.88173">
        <ele>280</ele>
        <time>2018-09-13T09:40:40Z</time>
      </trkpt>
      <trkpt lat="45.9532" lon="4.88173">
        <ele>280</ele>
        <time>2018-09-13T09:40:41Z</time>
      </trkpt>
      <trkpt lat="45.9533" lon="4.88173">
        <ele>279</ele>
        <time>2018-09-13T09:40:42Z</time>
      </trkpt>
      <trkpt lat="45.9534" lon="4.88173">
        <ele>278</ele>
        <time>2018-09-13T09:40:43Z</time>
      </trkpt>
      <trkpt lat="45.95349" lon="4.88174">
        <ele>278</ele>
        <time>2018-09-13T09:40:44Z</time>
      </trkpt>
      <trkpt lat="45.95357" lon="4.88174">
        <ele>278</ele>
        <time>2018-09-13T09:40:45Z</time>
      </trkpt>
      <trkpt lat="45.95365" lon="4.88172">
        <ele>278</ele>
        <time>2018-09-13T09:40:46Z</time>
      </trkpt>
      <trkpt lat="45.95375" lon="4.88169">
        <ele>278</ele>
        <time>2018-09-13T09:40:47Z</time>
      </trkpt>
      <trkpt lat="45.95385" lon="4.88168">
        <ele>278</ele>
        <time>2018-09-13T09:40:48Z</time>
      </trkpt>
      <trkpt lat="45.95393" lon="4.88165">
        <ele>276</ele>
        <time>2018-09-13T09:40:49Z</time>
      </trkpt>
      <trkpt lat="45.95401" lon="4.88162">
        <ele>276</ele>
        <time>2018-09-13T09:40:50Z</time>
      </trkpt>
      <trkpt lat="45.95406" lon="4.88163">
        <ele>276</ele>
        <time>2018-09-13T09:40:51Z</time>
      </trkpt>
      <trkpt lat="45.95415" lon="4.8816">
        <ele>276</ele>
        <time>2018-09-13T09:40:52Z</time>
      </trkpt>
      <trkpt lat="45.95423" lon="4.88157">
        <ele>276</ele>
        <time>2018-09-13T09:40:53Z</time>
      </trkpt>
      <trkpt lat="45.95431" lon="4.88152">
        <ele>276</ele>
        <time>2018-09-13T09:40:54Z</time>
      </trkpt>
      <trkpt lat="45.95439" lon="4.88144">
        <ele>276</ele>
        <time>2018-09-13T09:40:55Z</time>
      </trkpt>
      <trkpt lat="45.95444" lon="4.88142">
        <ele>276</ele>
        <time>2018-09-13T09:40:56Z</time>
      </trkpt>
      <trkpt lat="45.9545" lon="4.88139">
        <ele>276</ele>
        <time>2018-09-13T09:40:57Z</time>
      </trkpt>
      <trkpt lat="45.95456" lon="4.88136">
        <ele>276</ele>
        <time>2018-09-13T09:40:58Z</time>
      </trkpt>
      <trkpt lat="45.95464" lon="4.88131">
        <ele>276</ele>
        <time>2018-09-13T09:40:59Z</time>
      </trkpt>
      <trkpt lat="45.95468" lon="4.88128">
        <ele>276</ele>
        <time>2018-09-13T09:41:00Z</time>
      </trkpt>
      <trkpt lat="45.95473" lon="4.88125">
        <ele>276</ele>
        <time>2018-09-13T09:41:01Z</time>
      </trkpt>
      <trkpt lat="45.95478" lon="4.88124">
        <ele>276</ele>
        <time>2018-09-13T09:41:02Z</time>
      </trkpt>
      <trkpt lat="45.95484" lon="4.8812">
        <ele>276</ele>
        <time>2018-09-13T09:41:03Z</time>
      </trkpt>
      <trkpt lat="45.95489" lon="4.88118">
        <ele>276</ele>
        <time>2018-09-13T09:41:04Z</time>
      </trkpt>
      <trkpt lat="45.95494" lon="4.88116">
        <ele>276</ele>
        <time>2018-09-13T09:41:05Z</time>
      </trkpt>
      <trkpt lat="45.95499" lon="4.88114">
        <ele>276</ele>
        <time>2018-09-13T09:41:06Z</time>
      </trkpt>
      <trkpt lat="45.95504" lon="4.88112">
        <ele>276</ele>
        <time>2018-09-13T09:41:07Z</time>
      </trkpt>
      <trkpt lat="45.95508" lon="4.88109">
        <ele>276</ele>
        <time>2018-09-13T09:41:08Z</time>
      </trkpt>
      <trkpt lat="45.95514" lon="4.88106">
        <ele>276</ele>
        <time>2018-09-13T09:41:09Z</time>
      </trkpt>
      <trkpt lat="45.95517" lon="4.88104">
        <ele>276</ele>
        <time>2018-09-13T09:41:10Z</time>
      </trkpt>
      <trkpt lat="45.95522" lon="4.88101">
        <ele>276</ele>
        <time>2018-09-13T09:41:11Z</time>
      </trkpt>
      <trkpt lat="45.95526" lon="4.88097">
        <ele>277</ele>
        <time>2018-09-13T09:41:12Z</time>
      </trkpt>
      <trkpt lat="45.95531" lon="4.88095">
        <ele>277</ele>
        <time>2018-09-13T09:41:13Z</time>
      </trkpt>
      <trkpt lat="45.95537" lon="4.88094">
        <ele>277</ele>
        <time>2018-09-13T09:41:14Z</time>
      </trkpt>
      <trkpt lat="45.95542" lon="4.88092">
        <ele>277</ele>
        <time>2018-09-13T09:41:15Z</time>
      </trkpt>
      <trkpt lat="45.95547" lon="4.88088">
        <ele>277</ele>
        <time>2018-09-13T09:41:16Z</time>
      </trkpt>
      <trkpt lat="45.95554" lon="4.88085">
        <ele>277</ele>
        <time>2018-09-13T09:41:17Z</time>
      </trkpt>
      <trkpt lat="45.95559" lon="4.88081">
        <ele>276</ele>
        <time>2018-09-13T09:41:18Z</time>
      </trkpt>
      <trkpt lat="45.95564" lon="4.88079">
        <ele>276</ele>
        <time>2018-09-13T09:41:19Z</time>
      </trkpt>
      <trkpt lat="45.95569" lon="4.88077">
        <ele>276</ele>
        <time>2018-09-13T09:41:20Z</time>
      </trkpt>
      <trkpt lat="45.95577" lon="4.88072">
        <ele>277</ele>
        <time>2018-09-13T09:41:22Z</time>
      </trkpt>
      <trkpt lat="45.95581" lon="4.88067">
        <ele>276</ele>
        <time>2018-09-13T09:41:23Z</time>
      </trkpt>
      <trkpt lat="45.95584" lon="4.88063">
        <ele>278</ele>
        <time>2018-09-13T09:41:24Z</time>
      </trkpt>
      <trkpt lat="45.9559" lon="4.88059">
        <ele>278</ele>
        <time>2018-09-13T09:41:25Z</time>
      </trkpt>
      <trkpt lat="45.95597" lon="4.88054">
        <ele>278</ele>
        <time>2018-09-13T09:41:27Z</time>
      </trkpt>
      <trkpt lat="45.95602" lon="4.88051">
        <ele>278</ele>
        <time>2018-09-13T09:41:28Z</time>
      </trkpt>
      <trkpt lat="45.95607" lon="4.88048">
        <ele>278</ele>
        <time>2018-09-13T09:41:29Z</time>
      </trkpt>
      <trkpt lat="45.95611" lon="4.88044">
        <ele>278</ele>
        <time>2018-09-13T09:41:30Z</time>
      </trkpt>
      <trkpt lat="45.95616" lon="4.88039">
        <ele>278</ele>
        <time>2018-09-13T09:41:31Z</time>
      </trkpt>
      <trkpt lat="45.95621" lon="4.88035">
        <ele>278</ele>
        <time>2018-09-13T09:41:32Z</time>
      </trkpt>
      <trkpt lat="45.95624" lon="4.8803">
        <ele>278</ele>
        <time>2018-09-13T09:41:33Z</time>
      </trkpt>
      <trkpt lat="45.95628" lon="4.88026">
        <ele>279</ele>
        <time>2018-09-13T09:41:34Z</time>
      </trkpt>
      <trkpt lat="45.95633" lon="4.8802">
        <ele>279</ele>
        <time>2018-09-13T09:41:35Z</time>
      </trkpt>
      <trkpt lat="45.95638" lon="4.88016">
        <ele>279</ele>
        <time>2018-09-13T09:41:36Z</time>
      </trkpt>
      <trkpt lat="45.95645" lon="4.88011">
        <ele>279</ele>
        <time>2018-09-13T09:41:38Z</time>
      </trkpt>
      <trkpt lat="45.95649" lon="4.88006">
        <ele>280</ele>
        <time>2018-09-13T09:41:39Z</time>
      </trkpt>
      <trkpt lat="45.95657" lon="4.87999">
        <ele>280</ele>
        <time>2018-09-13T09:41:41Z</time>
      </trkpt>
      <trkpt lat="45.9566" lon="4.87996">
        <ele>280</ele>
        <time>2018-09-13T09:41:42Z</time>
      </trkpt>
      <trkpt lat="45.95668" lon="4.8799">
        <ele>282</ele>
        <time>2018-09-13T09:41:44Z</time>
      </trkpt>
      <trkpt lat="45.9567" lon="4.87988">
        <ele>282</ele>
        <time>2018-09-13T09:41:45Z</time>
      </trkpt>
      <trkpt lat="45.95676" lon="4.87984">
        <ele>282</ele>
        <time>2018-09-13T09:41:47Z</time>
      </trkpt>
      <trkpt lat="45.9568" lon="4.8798">
        <ele>282</ele>
        <time>2018-09-13T09:41:48Z</time>
      </trkpt>
      <trkpt lat="45.95687" lon="4.87974">
        <ele>282</ele>
        <time>2018-09-13T09:41:50Z</time>
      </trkpt>
      <trkpt lat="45.9569" lon="4.87971">
        <ele>282</ele>
        <time>2018-09-13T09:41:51Z</time>
      </trkpt>
      <trkpt lat="45.95697" lon="4.87965">
        <ele>282</ele>
        <time>2018-09-13T09:41:53Z</time>
      </trkpt>
      <trkpt lat="45.95699" lon="4.87964">
        <ele>282</ele>
        <time>2018-09-13T09:41:54Z</time>
      </trkpt>
      <trkpt lat="45.95705" lon="4.87959">
        <ele>283</ele>
        <time>2018-09-13T09:41:56Z</time>
      </trkpt>
      <trkpt lat="45.9571" lon="4.87956">
        <ele>283</ele>
        <time>2018-09-13T09:41:57Z</time>
      </trkpt>
      <trkpt lat="45.95716" lon="4.87951">
        <ele>283</ele>
        <time>2018-09-13T09:41:59Z</time>
      </trkpt>
      <trkpt lat="45.95719" lon="4.87948">
        <ele>283</ele>
        <time>2018-09-13T09:42:00Z</time>
      </trkpt>
      <trkpt lat="45.95725" lon="4.87943">
        <ele>283</ele>
        <time>2018-09-13T09:42:02Z</time>
      </trkpt>
      <trkpt lat="45.95728" lon="4.8794">
        <ele>283</ele>
        <time>2018-09-13T09:42:03Z</time>
      </trkpt>
      <trkpt lat="45.95735" lon="4.87935">
        <ele>284</ele>
        <time>2018-09-13T09:42:05Z</time>
      </trkpt>
      <trkpt lat="45.95738" lon="4.87933">
        <ele>284</ele>
        <time>2018-09-13T09:42:06Z</time>
      </trkpt>
      <trkpt lat="45.95745" lon="4.87926">
        <ele>284</ele>
        <time>2018-09-13T09:42:08Z</time>
      </trkpt>
      <trkpt lat="45.95749" lon="4.87922">
        <ele>285</ele>
        <time>2018-09-13T09:42:09Z</time>
      </trkpt>
      <trkpt lat="45.95753" lon="4.87918">
        <ele>285</ele>
        <time>2018-09-13T09:42:10Z</time>
      </trkpt>
      <trkpt lat="45.95757" lon="4.87914">
        <ele>285</ele>
        <time>2018-09-13T09:42:11Z</time>
      </trkpt>
      <trkpt lat="45.95761" lon="4.87908">
        <ele>286</ele>
        <time>2018-09-13T09:42:12Z</time>
      </trkpt>
      <trkpt lat="45.95765" lon="4.87904">
        <ele>286</ele>
        <time>2018-09-13T09:42:13Z</time>
      </trkpt>
      <trkpt lat="45.95771" lon="4.87902">
        <ele>286</ele>
        <time>2018-09-13T09:42:15Z</time>
      </trkpt>
      <trkpt lat="45.95774" lon="4.879">
        <ele>286</ele>
        <time>2018-09-13T09:42:16Z</time>
      </trkpt>
      <trkpt lat="45.95782" lon="4.87895">
        <ele>286</ele>
        <time>2018-09-13T09:42:18Z</time>
      </trkpt>
      <trkpt lat="45.95786" lon="4.87893">
        <ele>286</ele>
        <time>2018-09-13T09:42:19Z</time>
      </trkpt>
      <trkpt lat="45.95794" lon="4.87889">
        <ele>286</ele>
        <time>2018-09-13T09:42:21Z</time>
      </trkpt>
      <trkpt lat="45.95798" lon="4.87886">
        <ele>287</ele>
        <time>2018-09-13T09:42:22Z</time>
      </trkpt>
      <trkpt lat="45.95805" lon="4.87883">
        <ele>287</ele>
        <time>2018-09-13T09:42:24Z</time>
      </trkpt>
      <trkpt lat="45.95809" lon="4.8788">
        <ele>287</ele>
        <time>2018-09-13T09:42:25Z</time>
      </trkpt>
      <trkpt lat="45.95817" lon="4.87876">
        <ele>287</ele>
        <time>2018-09-13T09:42:27Z</time>
      </trkpt>
      <trkpt lat="45.95821" lon="4.87875">
        <ele>287</ele>
        <time>2018-09-13T09:42:28Z</time>
      </trkpt>
      <trkpt lat="45.95829" lon="4.87874">
        <ele>287</ele>
        <time>2018-09-13T09:42:31Z</time>
      </trkpt>
      <trkpt lat="45.95831" lon="4.87873">
        <ele>287</ele>
        <time>2018-09-13T09:42:32Z</time>
      </trkpt>
      <trkpt lat="45.95834" lon="4.87873">
        <ele>289</ele>
        <time>2018-09-13T09:42:33Z</time>
      </trkpt>
      <trkpt lat="45.95841" lon="4.87869">
        <ele>289</ele>
        <time>2018-09-13T09:42:34Z</time>
      </trkpt>
      <trkpt lat="45.95847" lon="4.87862">
        <ele>289</ele>
        <time>2018-09-13T09:42:36Z</time>
      </trkpt>
      <trkpt lat="45.95849" lon="4.87858">
        <ele>289</ele>
        <time>2018-09-13T09:42:37Z</time>
      </trkpt>
      <trkpt lat="45.95853" lon="4.87856">
        <ele>289</ele>
        <time>2018-09-13T09:42:38Z</time>
      </trkpt>
      <trkpt lat="45.95857" lon="4.87851">
        <ele>289</ele>
        <time>2018-09-13T09:42:39Z</time>
      </trkpt>
      <trkpt lat="45.95863" lon="4.87844">
        <ele>289</ele>
        <time>2018-09-13T09:42:41Z</time>
      </trkpt>
      <trkpt lat="45.95868" lon="4.8784">
        <ele>289</ele>
        <time>2018-09-13T09:42:42Z</time>
      </trkpt>
      <trkpt lat="45.9587" lon="4.87837">
        <ele>289</ele>
        <time>2018-09-13T09:42:43Z</time>
      </trkpt>
      <trkpt lat="45.95876" lon="4.8783">
        <ele>288</ele>
        <time>2018-09-13T09:42:44Z</time>
      </trkpt>
      <trkpt lat="45.95879" lon="4.87826">
        <ele>288</ele>
        <time>2018-09-13T09:42:45Z</time>
      </trkpt>
      <trkpt lat="45.95883" lon="4.8782">
        <ele>288</ele>
        <time>2018-09-13T09:42:46Z</time>
      </trkpt>
      <trkpt lat="45.95887" lon="4.87816">
        <ele>288</ele>
        <time>2018-09-13T09:42:47Z</time>
      </trkpt>
      <trkpt lat="45.95891" lon="4.87811">
        <ele>288</ele>
        <time>2018-09-13T09:42:48Z</time>
      </trkpt>
      <trkpt lat="45.95895" lon="4.87805">
        <ele>288</ele>
        <time>2018-09-13T09:42:49Z</time>
      </trkpt>
      <trkpt lat="45.95898" lon="4.87799">
        <ele>288</ele>
        <time>2018-09-13T09:42:50Z</time>
      </trkpt>
      <trkpt lat="45.95903" lon="4.87792">
        <ele>288</ele>
        <time>2018-09-13T09:42:52Z</time>
      </trkpt>
      <trkpt lat="45.95906" lon="4.87788">
        <ele>288</ele>
        <time>2018-09-13T09:42:53Z</time>
      </trkpt>
      <trkpt lat="45.95911" lon="4.87779">
        <ele>288</ele>
        <time>2018-09-13T09:42:55Z</time>
      </trkpt>
      <trkpt lat="45.95914" lon="4.87771">
        <ele>288</ele>
        <time>2018-09-13T09:42:56Z</time>
      </trkpt>
      <trkpt lat="45.95917" lon="4.87766">
        <ele>288</ele>
        <time>2018-09-13T09:42:57Z</time>
      </trkpt>
      <trkpt lat="45.95922" lon="4.87759">
        <ele>288</ele>
        <time>2018-09-13T09:42:58Z</time>
      </trkpt>
      <trkpt lat="45.95925" lon="4.87752">
        <ele>288</ele>
        <time>2018-09-13T09:42:59Z</time>
      </trkpt>
      <trkpt lat="45.95928" lon="4.87747">
        <ele>288</ele>
        <time>2018-09-13T09:43:00Z</time>
      </trkpt>
      <trkpt lat="45.95933" lon="4.87738">
        <ele>288</ele>
        <time>2018-09-13T09:43:02Z</time>
      </trkpt>
      <trkpt lat="45.95937" lon="4.87733">
        <ele>288</ele>
        <time>2018-09-13T09:43:03Z</time>
      </trkpt>
      <trkpt lat="45.95942" lon="4.87728">
        <ele>289</ele>
        <time>2018-09-13T09:43:04Z</time>
      </trkpt>
      <trkpt lat="45.95945" lon="4.87723">
        <ele>289</ele>
        <time>2018-09-13T09:43:05Z</time>
      </trkpt>
      <trkpt lat="45.95949" lon="4.87718">
        <ele>289</ele>
        <time>2018-09-13T09:43:06Z</time>
      </trkpt>
      <trkpt lat="45.95953" lon="4.87713">
        <ele>289</ele>
        <time>2018-09-13T09:43:07Z</time>
      </trkpt>
      <trkpt lat="45.95957" lon="4.87709">
        <ele>289</ele>
        <time>2018-09-13T09:43:08Z</time>
      </trkpt>
      <trkpt lat="45.9596" lon="4.87704">
        <ele>289</ele>
        <time>2018-09-13T09:43:09Z</time>
      </trkpt>
      <trkpt lat="45.95964" lon="4.87698">
        <ele>289</ele>
        <time>2018-09-13T09:43:10Z</time>
      </trkpt>
      <trkpt lat="45.95968" lon="4.87693">
        <ele>289</ele>
        <time>2018-09-13T09:43:11Z</time>
      </trkpt>
      <trkpt lat="45.95972" lon="4.8769">
        <ele>289</ele>
        <time>2018-09-13T09:43:12Z</time>
      </trkpt>
      <trkpt lat="45.95976" lon="4.87685">
        <ele>289</ele>
        <time>2018-09-13T09:43:13Z</time>
      </trkpt>
      <trkpt lat="45.95981" lon="4.87681">
        <ele>289</ele>
        <time>2018-09-13T09:43:14Z</time>
      </trkpt>
      <trkpt lat="45.95984" lon="4.87677">
        <ele>289</ele>
        <time>2018-09-13T09:43:15Z</time>
      </trkpt>
      <trkpt lat="45.95992" lon="4.87671">
        <ele>290</ele>
        <time>2018-09-13T09:43:17Z</time>
      </trkpt>
      <trkpt lat="45.95996" lon="4.87662">
        <ele>290</ele>
        <time>2018-09-13T09:43:18Z</time>
      </trkpt>
      <trkpt lat="45.96003" lon="4.87655">
        <ele>290</ele>
        <time>2018-09-13T09:43:20Z</time>
      </trkpt>
      <trkpt lat="45.96006" lon="4.8765">
        <ele>289</ele>
        <time>2018-09-13T09:43:21Z</time>
      </trkpt>
      <trkpt lat="45.9601" lon="4.87646">
        <ele>289</ele>
        <time>2018-09-13T09:43:22Z</time>
      </trkpt>
      <trkpt lat="45.96014" lon="4.87642">
        <ele>289</ele>
        <time>2018-09-13T09:43:23Z</time>
      </trkpt>
      <trkpt lat="45.96017" lon="4.87633">
        <ele>289</ele>
        <time>2018-09-13T09:43:24Z</time>
      </trkpt>
      <trkpt lat="45.9602" lon="4.87628">
        <ele>289</ele>
        <time>2018-09-13T09:43:25Z</time>
      </trkpt>
      <trkpt lat="45.96023" lon="4.87624">
        <ele>289</ele>
        <time>2018-09-13T09:43:26Z</time>
      </trkpt>
      <trkpt lat="45.9603" lon="4.87616">
        <ele>289</ele>
        <time>2018-09-13T09:43:27Z</time>
      </trkpt>
      <trkpt lat="45.96034" lon="4.87611">
        <ele>289</ele>
        <time>2018-09-13T09:43:28Z</time>
      </trkpt>
      <trkpt lat="45.96038" lon="4.87606">
        <ele>289</ele>
        <time>2018-09-13T09:43:29Z</time>
      </trkpt>
      <trkpt lat="45.96043" lon="4.87601">
        <ele>289</ele>
        <time>2018-09-13T09:43:30Z</time>
      </trkpt>
      <trkpt lat="45.96047" lon="4.87597">
        <ele>289</ele>
        <time>2018-09-13T09:43:31Z</time>
      </trkpt>
      <trkpt lat="45.96051" lon="4.87591">
        <ele>288</ele>
        <time>2018-09-13T09:43:32Z</time>
      </trkpt>
      <trkpt lat="45.96056" lon="4.87586">
        <ele>288</ele>
        <time>2018-09-13T09:43:33Z</time>
      </trkpt>
      <trkpt lat="45.9606" lon="4.87582">
        <ele>288</ele>
        <time>2018-09-13T09:43:34Z</time>
      </trkpt>
      <trkpt lat="45.96064" lon="4.87579">
        <ele>288</ele>
        <time>2018-09-13T09:43:35Z</time>
      </trkpt>
      <trkpt lat="45.96069" lon="4.87573">
        <ele>288</ele>
        <time>2018-09-13T09:43:36Z</time>
      </trkpt>
      <trkpt lat="45.96073" lon="4.87569">
        <ele>288</ele>
        <time>2018-09-13T09:43:37Z</time>
      </trkpt>
      <trkpt lat="45.96077" lon="4.87565">
        <ele>288</ele>
        <time>2018-09-13T09:43:38Z</time>
      </trkpt>
      <trkpt lat="45.96081" lon="4.8756">
        <ele>288</ele>
        <time>2018-09-13T09:43:39Z</time>
      </trkpt>
      <trkpt lat="45.96086" lon="4.87555">
        <ele>287</ele>
        <time>2018-09-13T09:43:40Z</time>
      </trkpt>
      <trkpt lat="45.96091" lon="4.87548">
        <ele>287</ele>
        <time>2018-09-13T09:43:41Z</time>
      </trkpt>
      <trkpt lat="45.96095" lon="4.87544">
        <ele>287</ele>
        <time>2018-09-13T09:43:42Z</time>
      </trkpt>
      <trkpt lat="45.96099" lon="4.87539">
        <ele>287</ele>
        <time>2018-09-13T09:43:43Z</time>
      </trkpt>
      <trkpt lat="45.96103" lon="4.87534">
        <ele>287</ele>
        <time>2018-09-13T09:43:44Z</time>
      </trkpt>
      <trkpt lat="45.96108" lon="4.8753">
        <ele>287</ele>
        <time>2018-09-13T09:43:45Z</time>
      </trkpt>
      <trkpt lat="45.96113" lon="4.87525">
        <ele>287</ele>
        <time>2018-09-13T09:43:46Z</time>
      </trkpt>
      <trkpt lat="45.96117" lon="4.87519">
        <ele>286</ele>
        <time>2018-09-13T09:43:47Z</time>
      </trkpt>
      <trkpt lat="45.96122" lon="4.87515">
        <ele>286</ele>
        <time>2018-09-13T09:43:48Z</time>
      </trkpt>
      <trkpt lat="45.96126" lon="4.8751">
        <ele>286</ele>
        <time>2018-09-13T09:43:49Z</time>
      </trkpt>
      <trkpt lat="45.96132" lon="4.87505">
        <ele>286</ele>
        <time>2018-09-13T09:43:50Z</time>
      </trkpt>
      <trkpt lat="45.96137" lon="4.875">
        <ele>285</ele>
        <time>2018-09-13T09:43:51Z</time>
      </trkpt>
      <trkpt lat="45.9614" lon="4.87494">
        <ele>285</ele>
        <time>2018-09-13T09:43:52Z</time>
      </trkpt>
      <trkpt lat="45.96145" lon="4.87488">
        <ele>285</ele>
        <time>2018-09-13T09:43:53Z</time>
      </trkpt>
      <trkpt lat="45.9615" lon="4.87483">
        <ele>285</ele>
        <time>2018-09-13T09:43:54Z</time>
      </trkpt>
      <trkpt lat="45.96155" lon="4.87477">
        <ele>285</ele>
        <time>2018-09-13T09:43:55Z</time>
      </trkpt>
      <trkpt lat="45.9616" lon="4.87472">
        <ele>285</ele>
        <time>2018-09-13T09:43:56Z</time>
      </trkpt>
      <trkpt lat="45.96165" lon="4.87467">
        <ele>285</ele>
        <time>2018-09-13T09:43:57Z</time>
      </trkpt>
      <trkpt lat="45.96171" lon="4.87461">
        <ele>284</ele>
        <time>2018-09-13T09:43:58Z</time>
      </trkpt>
      <trkpt lat="45.96176" lon="4.87456">
        <ele>284</ele>
        <time>2018-09-13T09:43:59Z</time>
      </trkpt>
      <trkpt lat="45.96181" lon="4.8745">
        <ele>284</ele>
        <time>2018-09-13T09:44:00Z</time>
      </trkpt>
      <trkpt lat="45.96187" lon="4.87445">
        <ele>284</ele>
        <time>2018-09-13T09:44:01Z</time>
      </trkpt>
      <trkpt lat="45.96193" lon="4.87439">
        <ele>284</ele>
        <time>2018-09-13T09:44:02Z</time>
      </trkpt>
      <trkpt lat="45.96199" lon="4.87435">
        <ele>284</ele>
        <time>2018-09-13T09:44:03Z</time>
      </trkpt>
      <trkpt lat="45.96204" lon="4.87427">
        <ele>284</ele>
        <time>2018-09-13T09:44:04Z</time>
      </trkpt>
      <trkpt lat="45.96209" lon="4.87422">
        <ele>284</ele>
        <time>2018-09-13T09:44:05Z</time>
      </trkpt>
      <trkpt lat="45.96216" lon="4.87412">
        <ele>283</ele>
        <time>2018-09-13T09:44:06Z</time>
      </trkpt>
      <trkpt lat="45.96221" lon="4.87406">
        <ele>283</ele>
        <time>2018-09-13T09:44:07Z</time>
      </trkpt>
      <trkpt lat="45.96226" lon="4.87401">
        <ele>283</ele>
        <time>2018-09-13T09:44:08Z</time>
      </trkpt>
      <trkpt lat="45.9623" lon="4.87395">
        <ele>283</ele>
        <time>2018-09-13T09:44:09Z</time>
      </trkpt>
      <trkpt lat="45.96235" lon="4.8739">
        <ele>283</ele>
        <time>2018-09-13T09:44:10Z</time>
      </trkpt>
      <trkpt lat="45.9624" lon="4.87385">
        <ele>283</ele>
        <time>2018-09-13T09:44:11Z</time>
      </trkpt>
      <trkpt lat="45.96244" lon="4.87379">
        <ele>283</ele>
        <time>2018-09-13T09:44:12Z</time>
      </trkpt>
      <trkpt lat="45.96249" lon="4.87374">
        <ele>283</ele>
        <time>2018-09-13T09:44:13Z</time>
      </trkpt>
      <trkpt lat="45.96253" lon="4.87369">
        <ele>283</ele>
        <time>2018-09-13T09:44:14Z</time>
      </trkpt>
      <trkpt lat="45.96257" lon="4.87364">
        <ele>283</ele>
        <time>2018-09-13T09:44:15Z</time>
      </trkpt>
      <trkpt lat="45.96261" lon="4.87358">
        <ele>283</ele>
        <time>2018-09-13T09:44:16Z</time>
      </trkpt>
      <trkpt lat="45.96264" lon="4.87352">
        <ele>283</ele>
        <time>2018-09-13T09:44:17Z</time>
      </trkpt>
      <trkpt lat="45.96269" lon="4.87349">
        <ele>283</ele>
        <time>2018-09-13T09:44:18Z</time>
      </trkpt>
      <trkpt lat="45.96272" lon="4.87344">
        <ele>283</ele>
        <time>2018-09-13T09:44:19Z</time>
      </trkpt>
      <trkpt lat="45.96276" lon="4.87338">
        <ele>283</ele>
        <time>2018-09-13T09:44:20Z</time>
      </trkpt>
      <trkpt lat="45.96281" lon="4.87332">
        <ele>283</ele>
        <time>2018-09-13T09:44:21Z</time>
      </trkpt>
      <trkpt lat="45.96286" lon="4.87326">
        <ele>283</ele>
        <time>2018-09-13T09:44:22Z</time>
      </trkpt>
      <trkpt lat="45.9629" lon="4.87319">
        <ele>283</ele>
        <time>2018-09-13T09:44:23Z</time>
      </trkpt>
      <trkpt lat="45.96295" lon="4.87313">
        <ele>283</ele>
        <time>2018-09-13T09:44:24Z</time>
      </trkpt>
      <trkpt lat="45.96299" lon="4.87307">
        <ele>283</ele>
        <time>2018-09-13T09:44:25Z</time>
      </trkpt>
      <trkpt lat="45.96304" lon="4.87301">
        <ele>283</ele>
        <time>2018-09-13T09:44:26Z</time>
      </trkpt>
      <trkpt lat="45.96308" lon="4.87295">
        <ele>283</ele>
        <time>2018-09-13T09:44:27Z</time>
      </trkpt>
      <trkpt lat="45.96313" lon="4.8729">
        <ele>283</ele>
        <time>2018-09-13T09:44:28Z</time>
      </trkpt>
      <trkpt lat="45.96317" lon="4.87284">
        <ele>283</ele>
        <time>2018-09-13T09:44:29Z</time>
      </trkpt>
      <trkpt lat="45.96322" lon="4.87278">
        <ele>283</ele>
        <time>2018-09-13T09:44:30Z</time>
      </trkpt>
      <trkpt lat="45.96326" lon="4.87273">
        <ele>283</ele>
        <time>2018-09-13T09:44:31Z</time>
      </trkpt>
      <trkpt lat="45.96331" lon="4.87267">
        <ele>283</ele>
        <time>2018-09-13T09:44:32Z</time>
      </trkpt>
      <trkpt lat="45.96335" lon="4.87263">
        <ele>283</ele>
        <time>2018-09-13T09:44:33Z</time>
      </trkpt>
      <trkpt lat="45.9634" lon="4.87258">
        <ele>283</ele>
        <time>2018-09-13T09:44:34Z</time>
      </trkpt>
      <trkpt lat="45.96344" lon="4.87253">
        <ele>283</ele>
        <time>2018-09-13T09:44:35Z</time>
      </trkpt>
      <trkpt lat="45.96349" lon="4.87247">
        <ele>283</ele>
        <time>2018-09-13T09:44:36Z</time>
      </trkpt>
      <trkpt lat="45.96354" lon="4.87241">
        <ele>282</ele>
        <time>2018-09-13T09:44:37Z</time>
      </trkpt>
      <trkpt lat="45.96356" lon="4.87235">
        <ele>282</ele>
        <time>2018-09-13T09:44:38Z</time>
      </trkpt>
      <trkpt lat="45.9636" lon="4.87229">
        <ele>282</ele>
        <time>2018-09-13T09:44:39Z</time>
      </trkpt>
      <trkpt lat="45.96365" lon="4.87223">
        <ele>282</ele>
        <time>2018-09-13T09:44:40Z</time>
      </trkpt>
      <trkpt lat="45.96368" lon="4.87215">
        <ele>282</ele>
        <time>2018-09-13T09:44:42Z</time>
      </trkpt>
      <trkpt lat="45.96372" lon="4.87211">
        <ele>282</ele>
        <time>2018-09-13T09:44:43Z</time>
      </trkpt>
      <trkpt lat="45.96376" lon="4.87205">
        <ele>282</ele>
        <time>2018-09-13T09:44:44Z</time>
      </trkpt>
      <trkpt lat="45.96381" lon="4.87197">
        <ele>282</ele>
        <time>2018-09-13T09:44:45Z</time>
      </trkpt>
      <trkpt lat="45.96386" lon="4.8719">
        <ele>282</ele>
        <time>2018-09-13T09:44:46Z</time>
      </trkpt>
      <trkpt lat="45.96392" lon="4.87184">
        <ele>282</ele>
        <time>2018-09-13T09:44:47Z</time>
      </trkpt>
      <trkpt lat="45.96397" lon="4.87176">
        <ele>282</ele>
        <time>2018-09-13T09:44:48Z</time>
      </trkpt>
      <trkpt lat="45.96402" lon="4.8717">
        <ele>281</ele>
        <time>2018-09-13T09:44:49Z</time>
      </trkpt>
      <trkpt lat="45.96406" lon="4.87162">
        <ele>281</ele>
        <time>2018-09-13T09:44:50Z</time>
      </trkpt>
      <trkpt lat="45.9641" lon="4.87155">
        <ele>281</ele>
        <time>2018-09-13T09:44:51Z</time>
      </trkpt>
      <trkpt lat="45.96413" lon="4.8715">
        <ele>281</ele>
        <time>2018-09-13T09:44:52Z</time>
      </trkpt>
      <trkpt lat="45.96419" lon="4.87144">
        <ele>281</ele>
        <time>2018-09-13T09:44:53Z</time>
      </trkpt>
      <trkpt lat="45.96423" lon="4.87138">
        <ele>281</ele>
        <time>2018-09-13T09:44:54Z</time>
      </trkpt>
      <trkpt lat="45.96427" lon="4.87133">
        <ele>281</ele>
        <time>2018-09-13T09:44:55Z</time>
      </trkpt>
      <trkpt lat="45.96431" lon="4.87129">
        <ele>281</ele>
        <time>2018-09-13T09:44:56Z</time>
      </trkpt>
      <trkpt lat="45.96435" lon="4.87125">
        <ele>281</ele>
        <time>2018-09-13T09:44:57Z</time>
      </trkpt>
      <trkpt lat="45.96439" lon="4.8712">
        <ele>281</ele>
        <time>2018-09-13T09:44:58Z</time>
      </trkpt>
      <trkpt lat="45.96443" lon="4.87116">
        <ele>281</ele>
        <time>2018-09-13T09:44:59Z</time>
      </trkpt>
      <trkpt lat="45.96447" lon="4.87111">
        <ele>281</ele>
        <time>2018-09-13T09:45:00Z</time>
      </trkpt>
      <trkpt lat="45.96452" lon="4.87108">
        <ele>281</ele>
        <time>2018-09-13T09:45:01Z</time>
      </trkpt>
      <trkpt lat="45.96456" lon="4.87103">
        <ele>281</ele>
        <time>2018-09-13T09:45:02Z</time>
      </trkpt>
      <trkpt lat="45.96461" lon="4.87097">
        <ele>282</ele>
        <time>2018-09-13T09:45:03Z</time>
      </trkpt>
      <trkpt lat="45.96465" lon="4.87093">
        <ele>282</ele>
        <time>2018-09-13T09:45:04Z</time>
      </trkpt>
      <trkpt lat="45.96469" lon="4.87088">
        <ele>282</ele>
        <time>2018-09-13T09:45:05Z</time>
      </trkpt>
      <trkpt lat="45.96474" lon="4.87081">
        <ele>281</ele>
        <time>2018-09-13T09:45:06Z</time>
      </trkpt>
      <trkpt lat="45.96477" lon="4.87076">
        <ele>282</ele>
        <time>2018-09-13T09:45:07Z</time>
      </trkpt>
      <trkpt lat="45.9648" lon="4.87071">
        <ele>282</ele>
        <time>2018-09-13T09:45:08Z</time>
      </trkpt>
      <trkpt lat="45.96485" lon="4.87067">
        <ele>282</ele>
        <time>2018-09-13T09:45:09Z</time>
      </trkpt>
      <trkpt lat="45.96489" lon="4.87062">
        <ele>282</ele>
        <time>2018-09-13T09:45:10Z</time>
      </trkpt>
      <trkpt lat="45.96494" lon="4.87054">
        <ele>281</ele>
        <time>2018-09-13T09:45:11Z</time>
      </trkpt>
      <trkpt lat="45.96498" lon="4.87049">
        <ele>281</ele>
        <time>2018-09-13T09:45:12Z</time>
      </trkpt>
      <trkpt lat="45.96501" lon="4.87046">
        <ele>282</ele>
        <time>2018-09-13T09:45:13Z</time>
      </trkpt>
      <trkpt lat="45.96509" lon="4.87045">
        <ele>283</ele>
        <time>2018-09-13T09:45:17Z</time>
      </trkpt>
      <trkpt lat="45.96511" lon="4.87048">
        <ele>283</ele>
        <time>2018-09-13T09:45:18Z</time>
      </trkpt>
      <trkpt lat="45.96514" lon="4.87055">
        <ele>283</ele>
        <time>2018-09-13T09:45:20Z</time>
      </trkpt>
      <trkpt lat="45.96517" lon="4.87058">
        <ele>283</ele>
        <time>2018-09-13T09:45:21Z</time>
      </trkpt>
      <trkpt lat="45.96522" lon="4.87064">
        <ele>283</ele>
        <time>2018-09-13T09:45:23Z</time>
      </trkpt>
      <trkpt lat="45.96525" lon="4.87065">
        <ele>283</ele>
        <time>2018-09-13T09:45:24Z</time>
      </trkpt>
      <trkpt lat="45.96533" lon="4.87065">
        <ele>283</ele>
        <time>2018-09-13T09:45:27Z</time>
      </trkpt>
      <trkpt lat="45.96535" lon="4.87063">
        <ele>283</ele>
        <time>2018-09-13T09:45:28Z</time>
      </trkpt>
      <trkpt lat="45.96542" lon="4.87069">
        <ele>283</ele>
        <time>2018-09-13T09:45:35Z</time>
      </trkpt>
      <trkpt lat="45.96543" lon="4.87071">
        <ele>283</ele>
        <time>2018-09-13T09:45:36Z</time>
      </trkpt>
      <trkpt lat="45.9655" lon="4.87074">
        <ele>283</ele>
        <time>2018-09-13T09:45:40Z</time>
      </trkpt>
      <trkpt lat="45.96553" lon="4.87074">
        <ele>283</ele>
        <time>2018-09-13T09:45:41Z</time>
      </trkpt>
      <trkpt lat="45.9656" lon="4.8707">
        <ele>283</ele>
        <time>2018-09-13T09:45:44Z</time>
      </trkpt>
      <trkpt lat="45.96561" lon="4.87067">
        <ele>283</ele>
        <time>2018-09-13T09:45:45Z</time>
      </trkpt>
      <trkpt lat="45.96562" lon="4.87055">
        <ele>283</ele>
        <time>2018-09-13T09:45:48Z</time>
      </trkpt>
      <trkpt lat="45.96563" lon="4.87051">
        <ele>283</ele>
        <time>2018-09-13T09:45:49Z</time>
      </trkpt>
      <trkpt lat="45.96563" lon="4.87041">
        <ele>283</ele>
        <time>2018-09-13T09:45:51Z</time>
      </trkpt>
      <trkpt lat="45.96562" lon="4.87037">
        <ele>283</ele>
        <time>2018-09-13T09:45:52Z</time>
      </trkpt>
      <trkpt lat="45.96558" lon="4.87029">
        <ele>283</ele>
        <time>2018-09-13T09:45:54Z</time>
      </trkpt>
      <trkpt lat="45.96556" lon="4.87026">
        <ele>283</ele>
        <time>2018-09-13T09:45:55Z</time>
      </trkpt>
      <trkpt lat="45.96548" lon="4.87022">
        <ele>283</ele>
        <time>2018-09-13T09:45:58Z</time>
      </trkpt>
      <trkpt lat="45.96545" lon="4.87022">
        <ele>283</ele>
        <time>2018-09-13T09:45:59Z</time>
      </trkpt>
      <trkpt lat="45.96537" lon="4.87024">
        <ele>283</ele>
        <time>2018-09-13T09:46:03Z</time>
      </trkpt>
      <trkpt lat="45.96536" lon="4.87024">
        <ele>283</ele>
        <time>2018-09-13T09:46:04Z</time>
      </trkpt>
      <trkpt lat="45.96532" lon="4.87027">
        <ele>283</ele>
        <time>2018-09-13T10:00:08Z</time>
      </trkpt>
      <trkpt lat="45.96532" lon="4.87027">
        <ele>283</ele>
        <time>2018-09-13T10:00:09Z</time>
      </trkpt>
      <trkpt lat="45.96532" lon="4.87027">
        <ele>283</ele>
        <time>2018-09-13T10:00:16Z</time>
      </trkpt>
      <trkpt lat="45.96532" lon="4.87027">
        <ele>283</ele>
        <time>2018-09-13T10:00:17Z</time>
      </trkpt>
      <trkpt lat="45.96537" lon="4.87018">
        <ele>283</ele>
        <time>2018-09-13T10:00:24Z</time>
      </trkpt>
      <trkpt lat="45.96538" lon="4.87016">
        <ele>283</ele>
        <time>2018-09-13T10:00:25Z</time>
      </trkpt>
      <trkpt lat="45.96543" lon="4.87006">
        <ele>283</ele>
        <time>2018-09-13T10:00:30Z</time>
      </trkpt>
      <trkpt lat="45.96543" lon="4.87003">
        <ele>283</ele>
        <time>2018-09-13T10:00:31Z</time>
      </trkpt>
      <trkpt lat="45.96543" lon="4.86994">
        <ele>283</ele>
        <time>2018-09-13T10:00:34Z</time>
      </trkpt>
      <trkpt lat="45.96543" lon="4.8699">
        <ele>283</ele>
        <time>2018-09-13T10:00:35Z</time>
      </trkpt>
      <trkpt lat="45.9654" lon="4.86978">
        <ele>283</ele>
        <time>2018-09-13T10:00:38Z</time>
      </trkpt>
      <trkpt lat="45.96539" lon="4.86974">
        <ele>283</ele>
        <time>2018-09-13T10:00:39Z</time>
      </trkpt>
      <trkpt lat="45.96537" lon="4.86964">
        <ele>283</ele>
        <time>2018-09-13T10:00:41Z</time>
      </trkpt>
      <trkpt lat="45.96537" lon="4.8696">
        <ele>283</ele>
        <time>2018-09-13T10:00:42Z</time>
      </trkpt>
      <trkpt lat="45.96536" lon="4.86955">
        <ele>283</ele>
        <time>2018-09-13T10:00:43Z</time>
      </trkpt>
      <trkpt lat="45.96537" lon="4.86939">
        <ele>283</ele>
        <time>2018-09-13T10:00:44Z</time>
      </trkpt>
      <trkpt lat="45.96538" lon="4.8693">
        <ele>283</ele>
        <time>2018-09-13T10:00:46Z</time>
      </trkpt>
      <trkpt lat="45.96537" lon="4.8692">
        <ele>283</ele>
        <time>2018-09-13T10:00:47Z</time>
      </trkpt>
      <trkpt lat="45.96535" lon="4.86913">
        <ele>283</ele>
        <time>2018-09-13T10:00:48Z</time>
      </trkpt>
      <trkpt lat="45.96537" lon="4.86906">
        <ele>283</ele>
        <time>2018-09-13T10:00:49Z</time>
      </trkpt>
      <trkpt lat="45.96535" lon="4.86894">
        <ele>283</ele>
        <time>2018-09-13T10:00:52Z</time>
      </trkpt>
      <trkpt lat="45.96536" lon="4.8689">
        <ele>283</ele>
        <time>2018-09-13T10:00:53Z</time>
      </trkpt>
      <trkpt lat="45.96535" lon="4.86877">
        <ele>284</ele>
        <time>2018-09-13T10:00:55Z</time>
      </trkpt>
      <trkpt lat="45.96535" lon="4.8687">
        <ele>284</ele>
        <time>2018-09-13T10:00:56Z</time>
      </trkpt>
      <trkpt lat="45.96535" lon="4.86857">
        <ele>284</ele>
        <time>2018-09-13T10:00:58Z</time>
      </trkpt>
      <trkpt lat="45.96534" lon="4.86852">
        <ele>284</ele>
        <time>2018-09-13T10:00:59Z</time>
      </trkpt>
      <trkpt lat="45.96535" lon="4.86839">
        <ele>284</ele>
        <time>2018-09-13T10:01:01Z</time>
      </trkpt>
      <trkpt lat="45.96533" lon="4.86833">
        <ele>284</ele>
        <time>2018-09-13T10:01:02Z</time>
      </trkpt>
      <trkpt lat="45.96533" lon="4.86826">
        <ele>284</ele>
        <time>2018-09-13T10:01:03Z</time>
      </trkpt>
      <trkpt lat="45.96533" lon="4.86819">
        <ele>284</ele>
        <time>2018-09-13T10:01:04Z</time>
      </trkpt>
      <trkpt lat="45.96532" lon="4.86812">
        <ele>284</ele>
        <time>2018-09-13T10:01:05Z</time>
      </trkpt>
      <trkpt lat="45.96531" lon="4.86805">
        <ele>284</ele>
        <time>2018-09-13T10:01:06Z</time>
      </trkpt>
      <trkpt lat="45.9653" lon="4.86795">
        <ele>284</ele>
        <time>2018-09-13T10:01:08Z</time>
      </trkpt>
      <trkpt lat="45.96529" lon="4.86789">
        <ele>284</ele>
        <time>2018-09-13T10:01:09Z</time>
      </trkpt>
      <trkpt lat="45.96528" lon="4.86778">
        <ele>284</ele>
        <time>2018-09-13T10:01:11Z</time>
      </trkpt>
      <trkpt lat="45.96527" lon="4.86772">
        <ele>284</ele>
        <time>2018-09-13T10:01:12Z</time>
      </trkpt>
      <trkpt lat="45.96526" lon="4.86761">
        <ele>284</ele>
        <time>2018-09-13T10:01:14Z</time>
      </trkpt>
      <trkpt lat="45.96525" lon="4.86756">
        <ele>284</ele>
        <time>2018-09-13T10:01:15Z</time>
      </trkpt>
      <trkpt lat="45.96524" lon="4.86745">
        <ele>285</ele>
        <time>2018-09-13T10:01:17Z</time>
      </trkpt>
      <trkpt lat="45.96524" lon="4.86739">
        <ele>285</ele>
        <time>2018-09-13T10:01:18Z</time>
      </trkpt>
      <trkpt lat="45.96524" lon="4.86728">
        <ele>285</ele>
        <time>2018-09-13T10:01:20Z</time>
      </trkpt>
      <trkpt lat="45.96524" lon="4.86722">
        <ele>285</ele>
        <time>2018-09-13T10:01:21Z</time>
      </trkpt>
      <trkpt lat="45.96523" lon="4.8671">
        <ele>285</ele>
        <time>2018-09-13T10:01:23Z</time>
      </trkpt>
      <trkpt lat="45.96523" lon="4.86704">
        <ele>285</ele>
        <time>2018-09-13T10:01:24Z</time>
      </trkpt>
      <trkpt lat="45.96522" lon="4.86693">
        <ele>285</ele>
        <time>2018-09-13T10:01:26Z</time>
      </trkpt>
      <trkpt lat="45.96522" lon="4.86687">
        <ele>285</ele>
        <time>2018-09-13T10:01:27Z</time>
      </trkpt>
      <trkpt lat="45.96521" lon="4.86677">
        <ele>285</ele>
        <time>2018-09-13T10:01:29Z</time>
      </trkpt>
      <trkpt lat="45.96521" lon="4.86671">
        <ele>285</ele>
        <time>2018-09-13T10:01:30Z</time>
      </trkpt>
      <trkpt lat="45.96522" lon="4.8666">
        <ele>286</ele>
        <time>2018-09-13T10:01:32Z</time>
      </trkpt>
      <trkpt lat="45.96522" lon="4.86657">
        <ele>286</ele>
        <time>2018-09-13T10:01:33Z</time>
      </trkpt>
      <trkpt lat="45.96523" lon="4.86649">
        <ele>287</ele>
        <time>2018-09-13T10:01:34Z</time>
      </trkpt>
      <trkpt lat="45.96523" lon="4.86643">
        <ele>287</ele>
        <time>2018-09-13T10:01:35Z</time>
      </trkpt>
      <trkpt lat="45.96523" lon="4.86633">
        <ele>287</ele>
        <time>2018-09-13T10:01:38Z</time>
      </trkpt>
      <trkpt lat="45.96522" lon="4.86622">
        <ele>287</ele>
        <time>2018-09-13T10:01:39Z</time>
      </trkpt>
      <trkpt lat="45.96523" lon="4.86611">
        <ele>287</ele>
        <time>2018-09-13T10:01:42Z</time>
      </trkpt>
      <trkpt lat="45.96523" lon="4.86608">
        <ele>287</ele>
        <time>2018-09-13T10:01:43Z</time>
      </trkpt>
      <trkpt lat="45.96527" lon="4.86598">
        <ele>287</ele>
        <time>2018-09-13T10:01:46Z</time>
      </trkpt>
      <trkpt lat="45.96532" lon="4.86587">
        <ele>287</ele>
        <time>2018-09-13T10:01:47Z</time>
      </trkpt>
      <trkpt lat="45.96536" lon="4.86579">
        <ele>288</ele>
        <time>2018-09-13T10:01:50Z</time>
      </trkpt>
      <trkpt lat="45.96538" lon="4.86576">
        <ele>288</ele>
        <time>2018-09-13T10:01:51Z</time>
      </trkpt>
      <trkpt lat="45.96542" lon="4.86568">
        <ele>288</ele>
        <time>2018-09-13T10:01:54Z</time>
      </trkpt>
      <trkpt lat="45.96543" lon="4.86565">
        <ele>288</ele>
        <time>2018-09-13T10:01:55Z</time>
      </trkpt>
      <trkpt lat="45.96547" lon="4.86555">
        <ele>289</ele>
        <time>2018-09-13T10:01:58Z</time>
      </trkpt>
      <trkpt lat="45.96549" lon="4.86552">
        <ele>289</ele>
        <time>2018-09-13T10:01:59Z</time>
      </trkpt>
      <trkpt lat="45.96551" lon="4.86543">
        <ele>289</ele>
        <time>2018-09-13T10:02:01Z</time>
      </trkpt>
      <trkpt lat="45.96553" lon="4.86539">
        <ele>289</ele>
        <time>2018-09-13T10:02:02Z</time>
      </trkpt>
      <trkpt lat="45.96555" lon="4.86535">
        <ele>289</ele>
        <time>2018-09-13T10:02:03Z</time>
      </trkpt>
      <trkpt lat="45.9656" lon="4.86523">
        <ele>289</ele>
        <time>2018-09-13T10:02:04Z</time>
      </trkpt>
      <trkpt lat="45.96562" lon="4.86518">
        <ele>290</ele>
        <time>2018-09-13T10:02:06Z</time>
      </trkpt>
      <trkpt lat="45.96565" lon="4.8651">
        <ele>290</ele>
        <time>2018-09-13T10:02:07Z</time>
      </trkpt>
      <trkpt lat="45.96569" lon="4.86501">
        <ele>290</ele>
        <time>2018-09-13T10:02:09Z</time>
      </trkpt>
      <trkpt lat="45.96571" lon="4.86496">
        <ele>290</ele>
        <time>2018-09-13T10:02:10Z</time>
      </trkpt>
      <trkpt lat="45.96576" lon="4.86485">
        <ele>290</ele>
        <time>2018-09-13T10:02:14Z</time>
      </trkpt>
      <trkpt lat="45.9658" lon="4.86474">
        <ele>290</ele>
        <time>2018-09-13T10:02:15Z</time>
      </trkpt>
      <trkpt lat="45.96581" lon="4.86467">
        <ele>289</ele>
        <time>2018-09-13T10:02:16Z</time>
      </trkpt>
      <trkpt lat="45.96582" lon="4.86461">
        <ele>289</ele>
        <time>2018-09-13T10:02:17Z</time>
      </trkpt>
      <trkpt lat="45.96582" lon="4.86455">
        <ele>289</ele>
        <time>2018-09-13T10:02:18Z</time>
      </trkpt>
      <trkpt lat="45.96582" lon="4.86448">
        <ele>289</ele>
        <time>2018-09-13T10:02:19Z</time>
      </trkpt>
      <trkpt lat="45.96583" lon="4.8644">
        <ele>289</ele>
        <time>2018-09-13T10:02:20Z</time>
      </trkpt>
      <trkpt lat="45.96582" lon="4.86432">
        <ele>289</ele>
        <time>2018-09-13T10:02:21Z</time>
      </trkpt>
      <trkpt lat="45.96582" lon="4.86424">
        <ele>289</ele>
        <time>2018-09-13T10:02:22Z</time>
      </trkpt>
      <trkpt lat="45.96582" lon="4.86417">
        <ele>290</ele>
        <time>2018-09-13T10:02:23Z</time>
      </trkpt>
      <trkpt lat="45.96581" lon="4.86408">
        <ele>289</ele>
        <time>2018-09-13T10:02:24Z</time>
      </trkpt>
      <trkpt lat="45.96582" lon="4.864">
        <ele>288</ele>
        <time>2018-09-13T10:02:25Z</time>
      </trkpt>
      <trkpt lat="45.96582" lon="4.86391">
        <ele>287</ele>
        <time>2018-09-13T10:02:26Z</time>
      </trkpt>
      <trkpt lat="45.96582" lon="4.86381">
        <ele>286</ele>
        <time>2018-09-13T10:02:27Z</time>
      </trkpt>
      <trkpt lat="45.96582" lon="4.86374">
        <ele>286</ele>
        <time>2018-09-13T10:02:28Z</time>
      </trkpt>
      <trkpt lat="45.9658" lon="4.86366">
        <ele>286</ele>
        <time>2018-09-13T10:02:29Z</time>
      </trkpt>
      <trkpt lat="45.96581" lon="4.86357">
        <ele>285</ele>
        <time>2018-09-13T10:02:30Z</time>
      </trkpt>
      <trkpt lat="45.96582" lon="4.86348">
        <ele>285</ele>
        <time>2018-09-13T10:02:31Z</time>
      </trkpt>
      <trkpt lat="45.9658" lon="4.86339">
        <ele>285</ele>
        <time>2018-09-13T10:02:32Z</time>
      </trkpt>
      <trkpt lat="45.96581" lon="4.86331">
        <ele>285</ele>
        <time>2018-09-13T10:02:33Z</time>
      </trkpt>
      <trkpt lat="45.96581" lon="4.86322">
        <ele>284</ele>
        <time>2018-09-13T10:02:34Z</time>
      </trkpt>
      <trkpt lat="45.96582" lon="4.86313">
        <ele>283</ele>
        <time>2018-09-13T10:02:35Z</time>
      </trkpt>
      <trkpt lat="45.96583" lon="4.86304">
        <ele>283</ele>
        <time>2018-09-13T10:02:36Z</time>
      </trkpt>
      <trkpt lat="45.96583" lon="4.86295">
        <ele>282</ele>
        <time>2018-09-13T10:02:37Z</time>
      </trkpt>
      <trkpt lat="45.96584" lon="4.86285">
        <ele>284</ele>
        <time>2018-09-13T10:02:38Z</time>
      </trkpt>
      <trkpt lat="45.96584" lon="4.86275">
        <ele>283</ele>
        <time>2018-09-13T10:02:39Z</time>
      </trkpt>
      <trkpt lat="45.96584" lon="4.86265">
        <ele>283</ele>
        <time>2018-09-13T10:02:40Z</time>
      </trkpt>
      <trkpt lat="45.96584" lon="4.86255">
        <ele>282</ele>
        <time>2018-09-13T10:02:41Z</time>
      </trkpt>
      <trkpt lat="45.96585" lon="4.86244">
        <ele>281</ele>
        <time>2018-09-13T10:02:42Z</time>
      </trkpt>
      <trkpt lat="45.96586" lon="4.86233">
        <ele>282</ele>
        <time>2018-09-13T10:02:43Z</time>
      </trkpt>
      <trkpt lat="45.96588" lon="4.86221">
        <ele>282</ele>
        <time>2018-09-13T10:02:44Z</time>
      </trkpt>
      <trkpt lat="45.96588" lon="4.86209">
        <ele>282</ele>
        <time>2018-09-13T10:02:45Z</time>
      </trkpt>
      <trkpt lat="45.9659" lon="4.86196">
        <ele>282</ele>
        <time>2018-09-13T10:02:46Z</time>
      </trkpt>
      <trkpt lat="45.96592" lon="4.86183">
        <ele>281</ele>
        <time>2018-09-13T10:02:47Z</time>
      </trkpt>
      <trkpt lat="45.96593" lon="4.86169">
        <ele>281</ele>
        <time>2018-09-13T10:02:48Z</time>
      </trkpt>
      <trkpt lat="45.96594" lon="4.86155">
        <ele>281</ele>
        <time>2018-09-13T10:02:49Z</time>
      </trkpt>
      <trkpt lat="45.96595" lon="4.86142">
        <ele>281</ele>
        <time>2018-09-13T10:02:50Z</time>
      </trkpt>
      <trkpt lat="45.96596" lon="4.86128">
        <ele>281</ele>
        <time>2018-09-13T10:02:51Z</time>
      </trkpt>
      <trkpt lat="45.96597" lon="4.86115">
        <ele>281</ele>
        <time>2018-09-13T10:02:52Z</time>
      </trkpt>
      <trkpt lat="45.96596" lon="4.86102">
        <ele>280</ele>
        <time>2018-09-13T10:02:53Z</time>
      </trkpt>
      <trkpt lat="45.96594" lon="4.86089">
        <ele>280</ele>
        <time>2018-09-13T10:02:54Z</time>
      </trkpt>
      <trkpt lat="45.96592" lon="4.86077">
        <ele>279</ele>
        <time>2018-09-13T10:02:55Z</time>
      </trkpt>
      <trkpt lat="45.96588" lon="4.86065">
        <ele>280</ele>
        <time>2018-09-13T10:02:56Z</time>
      </trkpt>
      <trkpt lat="45.96584" lon="4.86056">
        <ele>280</ele>
        <time>2018-09-13T10:02:57Z</time>
      </trkpt>
      <trkpt lat="45.96577" lon="4.86045">
        <ele>276</ele>
        <time>2018-09-13T10:02:58Z</time>
      </trkpt>
      <trkpt lat="45.96572" lon="4.86033">
        <ele>276</ele>
        <time>2018-09-13T10:02:59Z</time>
      </trkpt>
      <trkpt lat="45.96566" lon="4.86022">
        <ele>276</ele>
        <time>2018-09-13T10:03:00Z</time>
      </trkpt>
      <trkpt lat="45.9656" lon="4.86012">
        <ele>276</ele>
        <time>2018-09-13T10:03:01Z</time>
      </trkpt>
      <trkpt lat="45.96554" lon="4.86">
        <ele>276</ele>
        <time>2018-09-13T10:03:02Z</time>
      </trkpt>
      <trkpt lat="45.96549" lon="4.85989">
        <ele>276</ele>
        <time>2018-09-13T10:03:03Z</time>
      </trkpt>
      <trkpt lat="45.96542" lon="4.85978">
        <ele>275</ele>
        <time>2018-09-13T10:03:04Z</time>
      </trkpt>
      <trkpt lat="45.96536" lon="4.85968">
        <ele>275</ele>
        <time>2018-09-13T10:03:05Z</time>
      </trkpt>
      <trkpt lat="45.96531" lon="4.85956">
        <ele>275</ele>
        <time>2018-09-13T10:03:06Z</time>
      </trkpt>
      <trkpt lat="45.96525" lon="4.85945">
        <ele>275</ele>
        <time>2018-09-13T10:03:07Z</time>
      </trkpt>
      <trkpt lat="45.96521" lon="4.85934">
        <ele>275</ele>
        <time>2018-09-13T10:03:08Z</time>
      </trkpt>
      <trkpt lat="45.96516" lon="4.85922">
        <ele>275</ele>
        <time>2018-09-13T10:03:09Z</time>
      </trkpt>
      <trkpt lat="45.96513" lon="4.85911">
        <ele>275</ele>
        <time>2018-09-13T10:03:10Z</time>
      </trkpt>
      <trkpt lat="45.9651" lon="4.85899">
        <ele>275</ele>
        <time>2018-09-13T10:03:11Z</time>
      </trkpt>
      <trkpt lat="45.96508" lon="4.85886">
        <ele>275</ele>
        <time>2018-09-13T10:03:12Z</time>
      </trkpt>
      <trkpt lat="45.96506" lon="4.85874">
        <ele>275</ele>
        <time>2018-09-13T10:03:13Z</time>
      </trkpt>
      <trkpt lat="45.96503" lon="4.85862">
        <ele>275</ele>
        <time>2018-09-13T10:03:14Z</time>
      </trkpt>
      <trkpt lat="45.96502" lon="4.85849">
        <ele>275</ele>
        <time>2018-09-13T10:03:15Z</time>
      </trkpt>
      <trkpt lat="45.96501" lon="4.85838">
        <ele>275</ele>
        <time>2018-09-13T10:03:16Z</time>
      </trkpt>
      <trkpt lat="45.96499" lon="4.85826">
        <ele>275</ele>
        <time>2018-09-13T10:03:17Z</time>
      </trkpt>
      <trkpt lat="45.96498" lon="4.85815">
        <ele>274</ele>
        <time>2018-09-13T10:03:18Z</time>
      </trkpt>
      <trkpt lat="45.96496" lon="4.85804">
        <ele>274</ele>
        <time>2018-09-13T10:03:19Z</time>
      </trkpt>
      <trkpt lat="45.96496" lon="4.85793">
        <ele>274</ele>
        <time>2018-09-13T10:03:20Z</time>
      </trkpt>
      <trkpt lat="45.96495" lon="4.85781">
        <ele>274</ele>
        <time>2018-09-13T10:03:21Z</time>
      </trkpt>
      <trkpt lat="45.96493" lon="4.8577">
        <ele>274</ele>
        <time>2018-09-13T10:03:22Z</time>
      </trkpt>
      <trkpt lat="45.96492" lon="4.85759">
        <ele>274</ele>
        <time>2018-09-13T10:03:23Z</time>
      </trkpt>
      <trkpt lat="45.9649" lon="4.85749">
        <ele>273</ele>
        <time>2018-09-13T10:03:24Z</time>
      </trkpt>
      <trkpt lat="45.96489" lon="4.85738">
        <ele>273</ele>
        <time>2018-09-13T10:03:25Z</time>
      </trkpt>
      <trkpt lat="45.96486" lon="4.85728">
        <ele>273</ele>
        <time>2018-09-13T10:03:26Z</time>
      </trkpt>
      <trkpt lat="45.96485" lon="4.85718">
        <ele>272</ele>
        <time>2018-09-13T10:03:27Z</time>
      </trkpt>
      <trkpt lat="45.96484" lon="4.85709">
        <ele>272</ele>
        <time>2018-09-13T10:03:28Z</time>
      </trkpt>
      <trkpt lat="45.96482" lon="4.857">
        <ele>272</ele>
        <time>2018-09-13T10:03:29Z</time>
      </trkpt>
      <trkpt lat="45.96482" lon="4.8569">
        <ele>272</ele>
        <time>2018-09-13T10:03:30Z</time>
      </trkpt>
      <trkpt lat="45.96481" lon="4.85681">
        <ele>272</ele>
        <time>2018-09-13T10:03:31Z</time>
      </trkpt>
      <trkpt lat="45.96479" lon="4.85672">
        <ele>272</ele>
        <time>2018-09-13T10:03:32Z</time>
      </trkpt>
      <trkpt lat="45.96478" lon="4.85664">
        <ele>271</ele>
        <time>2018-09-13T10:03:33Z</time>
      </trkpt>
      <trkpt lat="45.96477" lon="4.85656">
        <ele>271</ele>
        <time>2018-09-13T10:03:34Z</time>
      </trkpt>
      <trkpt lat="45.96475" lon="4.85648">
        <ele>271</ele>
        <time>2018-09-13T10:03:35Z</time>
      </trkpt>
      <trkpt lat="45.96475" lon="4.85641">
        <ele>271</ele>
        <time>2018-09-13T10:03:36Z</time>
      </trkpt>
      <trkpt lat="45.96475" lon="4.85632">
        <ele>271</ele>
        <time>2018-09-13T10:03:37Z</time>
      </trkpt>
      <trkpt lat="45.96474" lon="4.85625">
        <ele>271</ele>
        <time>2018-09-13T10:03:38Z</time>
      </trkpt>
      <trkpt lat="45.96472" lon="4.85617">
        <ele>271</ele>
        <time>2018-09-13T10:03:39Z</time>
      </trkpt>
      <trkpt lat="45.96471" lon="4.85609">
        <ele>271</ele>
        <time>2018-09-13T10:03:40Z</time>
      </trkpt>
      <trkpt lat="45.96471" lon="4.85601">
        <ele>271</ele>
        <time>2018-09-13T10:03:41Z</time>
      </trkpt>
      <trkpt lat="45.9647" lon="4.85593">
        <ele>271</ele>
        <time>2018-09-13T10:03:42Z</time>
      </trkpt>
      <trkpt lat="45.96469" lon="4.85584">
        <ele>271</ele>
        <time>2018-09-13T10:03:43Z</time>
      </trkpt>
      <trkpt lat="45.96469" lon="4.85574">
        <ele>272</ele>
        <time>2018-09-13T10:03:44Z</time>
      </trkpt>
      <trkpt lat="45.96468" lon="4.85564">
        <ele>272</ele>
        <time>2018-09-13T10:03:45Z</time>
      </trkpt>
      <trkpt lat="45.96466" lon="4.85555">
        <ele>272</ele>
        <time>2018-09-13T10:03:46Z</time>
      </trkpt>
      <trkpt lat="45.96466" lon="4.85545">
        <ele>272</ele>
        <time>2018-09-13T10:03:47Z</time>
      </trkpt>
      <trkpt lat="45.96466" lon="4.85536">
        <ele>272</ele>
        <time>2018-09-13T10:03:48Z</time>
      </trkpt>
      <trkpt lat="45.96464" lon="4.85527">
        <ele>272</ele>
        <time>2018-09-13T10:03:49Z</time>
      </trkpt>
      <trkpt lat="45.96464" lon="4.85518">
        <ele>272</ele>
        <time>2018-09-13T10:03:50Z</time>
      </trkpt>
      <trkpt lat="45.96462" lon="4.85508">
        <ele>272</ele>
        <time>2018-09-13T10:03:51Z</time>
      </trkpt>
      <trkpt lat="45.96463" lon="4.85498">
        <ele>272</ele>
        <time>2018-09-13T10:03:52Z</time>
      </trkpt>
      <trkpt lat="45.96463" lon="4.8549">
        <ele>272</ele>
        <time>2018-09-13T10:03:53Z</time>
      </trkpt>
      <trkpt lat="45.96463" lon="4.8548">
        <ele>272</ele>
        <time>2018-09-13T10:03:54Z</time>
      </trkpt>
      <trkpt lat="45.96464" lon="4.85471">
        <ele>272</ele>
        <time>2018-09-13T10:03:55Z</time>
      </trkpt>
      <trkpt lat="45.96465" lon="4.85462">
        <ele>272</ele>
        <time>2018-09-13T10:03:56Z</time>
      </trkpt>
      <trkpt lat="45.96464" lon="4.85454">
        <ele>272</ele>
        <time>2018-09-13T10:03:57Z</time>
      </trkpt>
      <trkpt lat="45.96464" lon="4.85446">
        <ele>272</ele>
        <time>2018-09-13T10:03:58Z</time>
      </trkpt>
      <trkpt lat="45.96464" lon="4.85438">
        <ele>272</ele>
        <time>2018-09-13T10:03:59Z</time>
      </trkpt>
      <trkpt lat="45.96463" lon="4.85431">
        <ele>272</ele>
        <time>2018-09-13T10:04:00Z</time>
      </trkpt>
      <trkpt lat="45.96463" lon="4.85421">
        <ele>272</ele>
        <time>2018-09-13T10:04:01Z</time>
      </trkpt>
      <trkpt lat="45.96464" lon="4.85414">
        <ele>272</ele>
        <time>2018-09-13T10:04:02Z</time>
      </trkpt>
      <trkpt lat="45.96462" lon="4.85405">
        <ele>272</ele>
        <time>2018-09-13T10:04:03Z</time>
      </trkpt>
      <trkpt lat="45.96462" lon="4.85397">
        <ele>272</ele>
        <time>2018-09-13T10:04:04Z</time>
      </trkpt>
      <trkpt lat="45.96461" lon="4.85389">
        <ele>272</ele>
        <time>2018-09-13T10:04:05Z</time>
      </trkpt>
      <trkpt lat="45.96461" lon="4.8538">
        <ele>272</ele>
        <time>2018-09-13T10:04:06Z</time>
      </trkpt>
      <trkpt lat="45.96459" lon="4.8537">
        <ele>272</ele>
        <time>2018-09-13T10:04:07Z</time>
      </trkpt>
      <trkpt lat="45.96459" lon="4.85362">
        <ele>272</ele>
        <time>2018-09-13T10:04:08Z</time>
      </trkpt>
      <trkpt lat="45.96458" lon="4.85354">
        <ele>272</ele>
        <time>2018-09-13T10:04:09Z</time>
      </trkpt>
      <trkpt lat="45.96457" lon="4.85344">
        <ele>272</ele>
        <time>2018-09-13T10:04:10Z</time>
      </trkpt>
      <trkpt lat="45.96456" lon="4.85335">
        <ele>272</ele>
        <time>2018-09-13T10:04:11Z</time>
      </trkpt>
      <trkpt lat="45.96455" lon="4.85327">
        <ele>271</ele>
        <time>2018-09-13T10:04:12Z</time>
      </trkpt>
      <trkpt lat="45.96454" lon="4.85319">
        <ele>271</ele>
        <time>2018-09-13T10:04:13Z</time>
      </trkpt>
      <trkpt lat="45.96453" lon="4.8531">
        <ele>271</ele>
        <time>2018-09-13T10:04:14Z</time>
      </trkpt>
      <trkpt lat="45.96453" lon="4.85303">
        <ele>271</ele>
        <time>2018-09-13T10:04:15Z</time>
      </trkpt>
      <trkpt lat="45.96453" lon="4.85296">
        <ele>270</ele>
        <time>2018-09-13T10:04:16Z</time>
      </trkpt>
      <trkpt lat="45.96453" lon="4.85287">
        <ele>270</ele>
        <time>2018-09-13T10:04:17Z</time>
      </trkpt>
      <trkpt lat="45.96453" lon="4.8528">
        <ele>270</ele>
        <time>2018-09-13T10:04:18Z</time>
      </trkpt>
      <trkpt lat="45.96453" lon="4.85271">
        <ele>270</ele>
        <time>2018-09-13T10:04:19Z</time>
      </trkpt>
      <trkpt lat="45.96454" lon="4.85264">
        <ele>270</ele>
        <time>2018-09-13T10:04:20Z</time>
      </trkpt>
      <trkpt lat="45.96454" lon="4.85255">
        <ele>270</ele>
        <time>2018-09-13T10:04:21Z</time>
      </trkpt>
      <trkpt lat="45.96454" lon="4.85246">
        <ele>269</ele>
        <time>2018-09-13T10:04:22Z</time>
      </trkpt>
      <trkpt lat="45.96455" lon="4.85234">
        <ele>269</ele>
        <time>2018-09-13T10:04:23Z</time>
      </trkpt>
      <trkpt lat="45.96454" lon="4.85225">
        <ele>269</ele>
        <time>2018-09-13T10:04:24Z</time>
      </trkpt>
      <trkpt lat="45.96455" lon="4.85216">
        <ele>269</ele>
        <time>2018-09-13T10:04:25Z</time>
      </trkpt>
      <trkpt lat="45.96455" lon="4.85207">
        <ele>269</ele>
        <time>2018-09-13T10:04:26Z</time>
      </trkpt>
      <trkpt lat="45.96455" lon="4.85199">
        <ele>269</ele>
        <time>2018-09-13T10:04:27Z</time>
      </trkpt>
      <trkpt lat="45.96456" lon="4.85189">
        <ele>269</ele>
        <time>2018-09-13T10:04:28Z</time>
      </trkpt>
      <trkpt lat="45.96457" lon="4.85179">
        <ele>269</ele>
        <time>2018-09-13T10:04:29Z</time>
      </trkpt>
      <trkpt lat="45.96459" lon="4.85169">
        <ele>269</ele>
        <time>2018-09-13T10:04:30Z</time>
      </trkpt>
      <trkpt lat="45.9646" lon="4.85159">
        <ele>268</ele>
        <time>2018-09-13T10:04:31Z</time>
      </trkpt>
      <trkpt lat="45.96462" lon="4.85148">
        <ele>268</ele>
        <time>2018-09-13T10:04:32Z</time>
      </trkpt>
      <trkpt lat="45.96465" lon="4.85138">
        <ele>268</ele>
        <time>2018-09-13T10:04:33Z</time>
      </trkpt>
      <trkpt lat="45.96467" lon="4.85128">
        <ele>268</ele>
        <time>2018-09-13T10:04:34Z</time>
      </trkpt>
      <trkpt lat="45.96469" lon="4.85118">
        <ele>268</ele>
        <time>2018-09-13T10:04:35Z</time>
      </trkpt>
      <trkpt lat="45.9647" lon="4.85106">
        <ele>268</ele>
        <time>2018-09-13T10:04:36Z</time>
      </trkpt>
      <trkpt lat="45.96471" lon="4.85095">
        <ele>268</ele>
        <time>2018-09-13T10:04:37Z</time>
      </trkpt>
      <trkpt lat="45.96473" lon="4.85084">
        <ele>268</ele>
        <time>2018-09-13T10:04:38Z</time>
      </trkpt>
      <trkpt lat="45.96473" lon="4.85071">
        <ele>267</ele>
        <time>2018-09-13T10:04:39Z</time>
      </trkpt>
      <trkpt lat="45.96473" lon="4.85058">
        <ele>266</ele>
        <time>2018-09-13T10:04:40Z</time>
      </trkpt>
      <trkpt lat="45.96474" lon="4.85044">
        <ele>266</ele>
        <time>2018-09-13T10:04:41Z</time>
      </trkpt>
      <trkpt lat="45.96474" lon="4.85032">
        <ele>266</ele>
        <time>2018-09-13T10:04:42Z</time>
      </trkpt>
      <trkpt lat="45.96475" lon="4.85019">
        <ele>266</ele>
        <time>2018-09-13T10:04:43Z</time>
      </trkpt>
      <trkpt lat="45.96476" lon="4.85006">
        <ele>266</ele>
        <time>2018-09-13T10:04:44Z</time>
      </trkpt>
      <trkpt lat="45.96476" lon="4.84993">
        <ele>263</ele>
        <time>2018-09-13T10:04:45Z</time>
      </trkpt>
      <trkpt lat="45.96478" lon="4.8498">
        <ele>262</ele>
        <time>2018-09-13T10:04:46Z</time>
      </trkpt>
      <trkpt lat="45.9648" lon="4.84967">
        <ele>262</ele>
        <time>2018-09-13T10:04:47Z</time>
      </trkpt>
      <trkpt lat="45.96481" lon="4.84954">
        <ele>261</ele>
        <time>2018-09-13T10:04:48Z</time>
      </trkpt>
      <trkpt lat="45.96485" lon="4.8494">
        <ele>260</ele>
        <time>2018-09-13T10:04:49Z</time>
      </trkpt>
      <trkpt lat="45.96487" lon="4.84926">
        <ele>259</ele>
        <time>2018-09-13T10:04:50Z</time>
      </trkpt>
      <trkpt lat="45.96492" lon="4.84913">
        <ele>256</ele>
        <time>2018-09-13T10:04:51Z</time>
      </trkpt>
      <trkpt lat="45.96495" lon="4.84899">
        <ele>256</ele>
        <time>2018-09-13T10:04:52Z</time>
      </trkpt>
      <trkpt lat="45.96498" lon="4.84886">
        <ele>255</ele>
        <time>2018-09-13T10:04:53Z</time>
      </trkpt>
      <trkpt lat="45.96502" lon="4.84872">
        <ele>257</ele>
        <time>2018-09-13T10:04:54Z</time>
      </trkpt>
      <trkpt lat="45.96504" lon="4.84857">
        <ele>256</ele>
        <time>2018-09-13T10:04:55Z</time>
      </trkpt>
      <trkpt lat="45.96507" lon="4.84844">
        <ele>255</ele>
        <time>2018-09-13T10:04:56Z</time>
      </trkpt>
      <trkpt lat="45.96511" lon="4.8483">
        <ele>254</ele>
        <time>2018-09-13T10:04:57Z</time>
      </trkpt>
      <trkpt lat="45.96514" lon="4.84815">
        <ele>254</ele>
        <time>2018-09-13T10:04:58Z</time>
      </trkpt>
      <trkpt lat="45.96517" lon="4.84801">
        <ele>254</ele>
        <time>2018-09-13T10:04:59Z</time>
      </trkpt>
      <trkpt lat="45.96519" lon="4.84786">
        <ele>254</ele>
        <time>2018-09-13T10:05:00Z</time>
      </trkpt>
      <trkpt lat="45.96522" lon="4.84771">
        <ele>254</ele>
        <time>2018-09-13T10:05:01Z</time>
      </trkpt>
      <trkpt lat="45.96525" lon="4.84756">
        <ele>253</ele>
        <time>2018-09-13T10:05:02Z</time>
      </trkpt>
      <trkpt lat="45.96529" lon="4.84743">
        <ele>253</ele>
        <time>2018-09-13T10:05:03Z</time>
      </trkpt>
      <trkpt lat="45.96531" lon="4.8473">
        <ele>253</ele>
        <time>2018-09-13T10:05:04Z</time>
      </trkpt>
      <trkpt lat="45.96532" lon="4.84715">
        <ele>253</ele>
        <time>2018-09-13T10:05:05Z</time>
      </trkpt>
      <trkpt lat="45.96531" lon="4.84701">
        <ele>253</ele>
        <time>2018-09-13T10:05:06Z</time>
      </trkpt>
      <trkpt lat="45.96529" lon="4.84686">
        <ele>253</ele>
        <time>2018-09-13T10:05:07Z</time>
      </trkpt>
      <trkpt lat="45.96525" lon="4.84671">
        <ele>252</ele>
        <time>2018-09-13T10:05:08Z</time>
      </trkpt>
      <trkpt lat="45.96523" lon="4.84658">
        <ele>252</ele>
        <time>2018-09-13T10:05:09Z</time>
      </trkpt>
      <trkpt lat="45.96521" lon="4.84645">
        <ele>252</ele>
        <time>2018-09-13T10:05:10Z</time>
      </trkpt>
      <trkpt lat="45.9652" lon="4.84631">
        <ele>252</ele>
        <time>2018-09-13T10:05:11Z</time>
      </trkpt>
      <trkpt lat="45.9652" lon="4.84618">
        <ele>252</ele>
        <time>2018-09-13T10:05:12Z</time>
      </trkpt>
      <trkpt lat="45.96521" lon="4.84607">
        <ele>252</ele>
        <time>2018-09-13T10:05:13Z</time>
      </trkpt>
      <trkpt lat="45.96522" lon="4.84595">
        <ele>252</ele>
        <time>2018-09-13T10:05:14Z</time>
      </trkpt>
      <trkpt lat="45.96523" lon="4.84582">
        <ele>253</ele>
        <time>2018-09-13T10:05:15Z</time>
      </trkpt>
      <trkpt lat="45.96523" lon="4.84572">
        <ele>253</ele>
        <time>2018-09-13T10:05:16Z</time>
      </trkpt>
      <trkpt lat="45.96524" lon="4.84561">
        <ele>253</ele>
        <time>2018-09-13T10:05:17Z</time>
      </trkpt>
      <trkpt lat="45.96525" lon="4.8455">
        <ele>253</ele>
        <time>2018-09-13T10:05:18Z</time>
      </trkpt>
      <trkpt lat="45.96526" lon="4.84539">
        <ele>253</ele>
        <time>2018-09-13T10:05:19Z</time>
      </trkpt>
      <trkpt lat="45.96527" lon="4.84529">
        <ele>253</ele>
        <time>2018-09-13T10:05:20Z</time>
      </trkpt>
      <trkpt lat="45.96528" lon="4.84518">
        <ele>253</ele>
        <time>2018-09-13T10:05:21Z</time>
      </trkpt>
      <trkpt lat="45.96529" lon="4.84509">
        <ele>253</ele>
        <time>2018-09-13T10:05:22Z</time>
      </trkpt>
      <trkpt lat="45.9653" lon="4.84498">
        <ele>253</ele>
        <time>2018-09-13T10:05:23Z</time>
      </trkpt>
      <trkpt lat="45.9653" lon="4.84488">
        <ele>253</ele>
        <time>2018-09-13T10:05:24Z</time>
      </trkpt>
      <trkpt lat="45.96531" lon="4.84479">
        <ele>253</ele>
        <time>2018-09-13T10:05:25Z</time>
      </trkpt>
      <trkpt lat="45.96531" lon="4.84469">
        <ele>253</ele>
        <time>2018-09-13T10:05:26Z</time>
      </trkpt>
      <trkpt lat="45.96532" lon="4.84459">
        <ele>253</ele>
        <time>2018-09-13T10:05:27Z</time>
      </trkpt>
      <trkpt lat="45.96533" lon="4.84449">
        <ele>253</ele>
        <time>2018-09-13T10:05:28Z</time>
      </trkpt>
      <trkpt lat="45.96533" lon="4.8444">
        <ele>253</ele>
        <time>2018-09-13T10:05:29Z</time>
      </trkpt>
      <trkpt lat="45.96532" lon="4.84432">
        <ele>253</ele>
        <time>2018-09-13T10:05:30Z</time>
      </trkpt>
      <trkpt lat="45.96532" lon="4.84424">
        <ele>253</ele>
        <time>2018-09-13T10:05:31Z</time>
      </trkpt>
      <trkpt lat="45.96534" lon="4.84417">
        <ele>252</ele>
        <time>2018-09-13T10:05:32Z</time>
      </trkpt>
      <trkpt lat="45.96534" lon="4.84409">
        <ele>252</ele>
        <time>2018-09-13T10:05:33Z</time>
      </trkpt>
      <trkpt lat="45.96535" lon="4.844">
        <ele>252</ele>
        <time>2018-09-13T10:05:34Z</time>
      </trkpt>
      <trkpt lat="45.96535" lon="4.84391">
        <ele>252</ele>
        <time>2018-09-13T10:05:35Z</time>
      </trkpt>
      <trkpt lat="45.96535" lon="4.84383">
        <ele>252</ele>
        <time>2018-09-13T10:05:36Z</time>
      </trkpt>
      <trkpt lat="45.96533" lon="4.84375">
        <ele>251</ele>
        <time>2018-09-13T10:05:37Z</time>
      </trkpt>
      <trkpt lat="45.96531" lon="4.84366">
        <ele>251</ele>
        <time>2018-09-13T10:05:38Z</time>
      </trkpt>
      <trkpt lat="45.96529" lon="4.84356">
        <ele>251</ele>
        <time>2018-09-13T10:05:39Z</time>
      </trkpt>
      <trkpt lat="45.96527" lon="4.84348">
        <ele>251</ele>
        <time>2018-09-13T10:05:40Z</time>
      </trkpt>
      <trkpt lat="45.96525" lon="4.84339">
        <ele>251</ele>
        <time>2018-09-13T10:05:41Z</time>
      </trkpt>
      <trkpt lat="45.96523" lon="4.8433">
        <ele>250</ele>
        <time>2018-09-13T10:05:42Z</time>
      </trkpt>
      <trkpt lat="45.96521" lon="4.84323">
        <ele>250</ele>
        <time>2018-09-13T10:05:43Z</time>
      </trkpt>
      <trkpt lat="45.96519" lon="4.84315">
        <ele>250</ele>
        <time>2018-09-13T10:05:44Z</time>
      </trkpt>
      <trkpt lat="45.96517" lon="4.84308">
        <ele>250</ele>
        <time>2018-09-13T10:05:45Z</time>
      </trkpt>
      <trkpt lat="45.96514" lon="4.843">
        <ele>250</ele>
        <time>2018-09-13T10:05:46Z</time>
      </trkpt>
      <trkpt lat="45.96512" lon="4.84293">
        <ele>250</ele>
        <time>2018-09-13T10:05:47Z</time>
      </trkpt>
      <trkpt lat="45.96512" lon="4.84286">
        <ele>250</ele>
        <time>2018-09-13T10:05:48Z</time>
      </trkpt>
      <trkpt lat="45.9651" lon="4.84279">
        <ele>250</ele>
        <time>2018-09-13T10:05:49Z</time>
      </trkpt>
      <trkpt lat="45.96507" lon="4.84272">
        <ele>250</ele>
        <time>2018-09-13T10:05:50Z</time>
      </trkpt>
      <trkpt lat="45.96505" lon="4.84266">
        <ele>251</ele>
        <time>2018-09-13T10:05:51Z</time>
      </trkpt>
      <trkpt lat="45.96503" lon="4.84259">
        <ele>251</ele>
        <time>2018-09-13T10:05:52Z</time>
      </trkpt>
      <trkpt lat="45.96503" lon="4.84251">
        <ele>251</ele>
        <time>2018-09-13T10:05:53Z</time>
      </trkpt>
      <trkpt lat="45.96501" lon="4.84244">
        <ele>250</ele>
        <time>2018-09-13T10:05:54Z</time>
      </trkpt>
      <trkpt lat="45.96498" lon="4.84238">
        <ele>251</ele>
        <time>2018-09-13T10:05:55Z</time>
      </trkpt>
      <trkpt lat="45.96498" lon="4.84231">
        <ele>251</ele>
        <time>2018-09-13T10:05:56Z</time>
      </trkpt>
      <trkpt lat="45.96496" lon="4.84224">
        <ele>252</ele>
        <time>2018-09-13T10:05:57Z</time>
      </trkpt>
      <trkpt lat="45.96495" lon="4.84218">
        <ele>252</ele>
        <time>2018-09-13T10:05:58Z</time>
      </trkpt>
      <trkpt lat="45.96493" lon="4.84206">
        <ele>251</ele>
        <time>2018-09-13T10:06:00Z</time>
      </trkpt>
      <trkpt lat="45.96492" lon="4.842">
        <ele>251</ele>
        <time>2018-09-13T10:06:01Z</time>
      </trkpt>
      <trkpt lat="45.96489" lon="4.84189">
        <ele>251</ele>
        <time>2018-09-13T10:06:03Z</time>
      </trkpt>
      <trkpt lat="45.96488" lon="4.84181">
        <ele>251</ele>
        <time>2018-09-13T10:06:04Z</time>
      </trkpt>
      <trkpt lat="45.96486" lon="4.84175">
        <ele>251</ele>
        <time>2018-09-13T10:06:05Z</time>
      </trkpt>
      <trkpt lat="45.96484" lon="4.84168">
        <ele>251</ele>
        <time>2018-09-13T10:06:06Z</time>
      </trkpt>
      <trkpt lat="45.96482" lon="4.84161">
        <ele>251</ele>
        <time>2018-09-13T10:06:07Z</time>
      </trkpt>
      <trkpt lat="45.96481" lon="4.84153">
        <ele>251</ele>
        <time>2018-09-13T10:06:08Z</time>
      </trkpt>
      <trkpt lat="45.9648" lon="4.84146">
        <ele>251</ele>
        <time>2018-09-13T10:06:09Z</time>
      </trkpt>
      <trkpt lat="45.96478" lon="4.84138">
        <ele>251</ele>
        <time>2018-09-13T10:06:10Z</time>
      </trkpt>
      <trkpt lat="45.96476" lon="4.84131">
        <ele>251</ele>
        <time>2018-09-13T10:06:11Z</time>
      </trkpt>
      <trkpt lat="45.96473" lon="4.84123">
        <ele>251</ele>
        <time>2018-09-13T10:06:12Z</time>
      </trkpt>
      <trkpt lat="45.96471" lon="4.84115">
        <ele>251</ele>
        <time>2018-09-13T10:06:13Z</time>
      </trkpt>
      <trkpt lat="45.96467" lon="4.84108">
        <ele>251</ele>
        <time>2018-09-13T10:06:14Z</time>
      </trkpt>
      <trkpt lat="45.96464" lon="4.841">
        <ele>251</ele>
        <time>2018-09-13T10:06:15Z</time>
      </trkpt>
      <trkpt lat="45.96463" lon="4.84092">
        <ele>251</ele>
        <time>2018-09-13T10:06:16Z</time>
      </trkpt>
      <trkpt lat="45.9646" lon="4.84084">
        <ele>252</ele>
        <time>2018-09-13T10:06:17Z</time>
      </trkpt>
      <trkpt lat="45.96458" lon="4.84076">
        <ele>251</ele>
        <time>2018-09-13T10:06:18Z</time>
      </trkpt>
      <trkpt lat="45.96455" lon="4.84068">
        <ele>251</ele>
        <time>2018-09-13T10:06:19Z</time>
      </trkpt>
      <trkpt lat="45.96453" lon="4.8406">
        <ele>251</ele>
        <time>2018-09-13T10:06:20Z</time>
      </trkpt>
      <trkpt lat="45.96449" lon="4.84051">
        <ele>251</ele>
        <time>2018-09-13T10:06:21Z</time>
      </trkpt>
      <trkpt lat="45.96448" lon="4.84044">
        <ele>251</ele>
        <time>2018-09-13T10:06:22Z</time>
      </trkpt>
      <trkpt lat="45.96446" lon="4.84036">
        <ele>251</ele>
        <time>2018-09-13T10:06:23Z</time>
      </trkpt>
      <trkpt lat="45.96442" lon="4.84029">
        <ele>251</ele>
        <time>2018-09-13T10:06:24Z</time>
      </trkpt>
      <trkpt lat="45.9644" lon="4.84021">
        <ele>251</ele>
        <time>2018-09-13T10:06:25Z</time>
      </trkpt>
      <trkpt lat="45.96437" lon="4.84013">
        <ele>251</ele>
        <time>2018-09-13T10:06:26Z</time>
      </trkpt>
      <trkpt lat="45.96433" lon="4.84005">
        <ele>252</ele>
        <time>2018-09-13T10:06:27Z</time>
      </trkpt>
      <trkpt lat="45.96429" lon="4.83999">
        <ele>251</ele>
        <time>2018-09-13T10:06:28Z</time>
      </trkpt>
      <trkpt lat="45.96425" lon="4.8399">
        <ele>251</ele>
        <time>2018-09-13T10:06:29Z</time>
      </trkpt>
      <trkpt lat="45.96422" lon="4.83982">
        <ele>251</ele>
        <time>2018-09-13T10:06:30Z</time>
      </trkpt>
      <trkpt lat="45.96417" lon="4.83974">
        <ele>250</ele>
        <time>2018-09-13T10:06:31Z</time>
      </trkpt>
      <trkpt lat="45.96413" lon="4.83967">
        <ele>252</ele>
        <time>2018-09-13T10:06:32Z</time>
      </trkpt>
      <trkpt lat="45.9641" lon="4.83958">
        <ele>252</ele>
        <time>2018-09-13T10:06:33Z</time>
      </trkpt>
      <trkpt lat="45.96405" lon="4.83949">
        <ele>252</ele>
        <time>2018-09-13T10:06:34Z</time>
      </trkpt>
      <trkpt lat="45.96402" lon="4.83939">
        <ele>251</ele>
        <time>2018-09-13T10:06:35Z</time>
      </trkpt>
      <trkpt lat="45.96398" lon="4.8393">
        <ele>251</ele>
        <time>2018-09-13T10:06:36Z</time>
      </trkpt>
      <trkpt lat="45.96394" lon="4.83922">
        <ele>251</ele>
        <time>2018-09-13T10:06:37Z</time>
      </trkpt>
      <trkpt lat="45.9639" lon="4.83913">
        <ele>248</ele>
        <time>2018-09-13T10:06:38Z</time>
      </trkpt>
      <trkpt lat="45.96386" lon="4.83905">
        <ele>248</ele>
        <time>2018-09-13T10:06:39Z</time>
      </trkpt>
      <trkpt lat="45.96383" lon="4.83897">
        <ele>248</ele>
        <time>2018-09-13T10:06:40Z</time>
      </trkpt>
      <trkpt lat="45.96379" lon="4.83888">
        <ele>248</ele>
        <time>2018-09-13T10:06:41Z</time>
      </trkpt>
      <trkpt lat="45.96375" lon="4.8388">
        <ele>247</ele>
        <time>2018-09-13T10:06:42Z</time>
      </trkpt>
      <trkpt lat="45.96371" lon="4.8387">
        <ele>247</ele>
        <time>2018-09-13T10:06:43Z</time>
      </trkpt>
      <trkpt lat="45.96367" lon="4.83861">
        <ele>247</ele>
        <time>2018-09-13T10:06:44Z</time>
      </trkpt>
      <trkpt lat="45.96363" lon="4.83852">
        <ele>246</ele>
        <time>2018-09-13T10:06:45Z</time>
      </trkpt>
      <trkpt lat="45.96358" lon="4.83844">
        <ele>246</ele>
        <time>2018-09-13T10:06:46Z</time>
      </trkpt>
      <trkpt lat="45.96353" lon="4.83836">
        <ele>245</ele>
        <time>2018-09-13T10:06:47Z</time>
      </trkpt>
      <trkpt lat="45.96348" lon="4.8383">
        <ele>245</ele>
        <time>2018-09-13T10:06:48Z</time>
      </trkpt>
      <trkpt lat="45.96341" lon="4.83824">
        <ele>245</ele>
        <time>2018-09-13T10:06:49Z</time>
      </trkpt>
      <trkpt lat="45.96338" lon="4.83818">
        <ele>245</ele>
        <time>2018-09-13T10:06:50Z</time>
      </trkpt>
      <trkpt lat="45.96333" lon="4.83814">
        <ele>244</ele>
        <time>2018-09-13T10:06:51Z</time>
      </trkpt>
      <trkpt lat="45.96327" lon="4.83809">
        <ele>244</ele>
        <time>2018-09-13T10:06:52Z</time>
      </trkpt>
      <trkpt lat="45.96321" lon="4.83804">
        <ele>245</ele>
        <time>2018-09-13T10:06:53Z</time>
      </trkpt>
      <trkpt lat="45.96317" lon="4.83799">
        <ele>245</ele>
        <time>2018-09-13T10:06:54Z</time>
      </trkpt>
      <trkpt lat="45.96312" lon="4.83794">
        <ele>245</ele>
        <time>2018-09-13T10:06:55Z</time>
      </trkpt>
      <trkpt lat="45.96307" lon="4.8379">
        <ele>245</ele>
        <time>2018-09-13T10:06:56Z</time>
      </trkpt>
      <trkpt lat="45.96304" lon="4.83786">
        <ele>245</ele>
        <time>2018-09-13T10:06:57Z</time>
      </trkpt>
      <trkpt lat="45.96298" lon="4.83781">
        <ele>245</ele>
        <time>2018-09-13T10:06:58Z</time>
      </trkpt>
      <trkpt lat="45.96293" lon="4.83776">
        <ele>245</ele>
        <time>2018-09-13T10:06:59Z</time>
      </trkpt>
      <trkpt lat="45.96288" lon="4.83771">
        <ele>245</ele>
        <time>2018-09-13T10:07:00Z</time>
      </trkpt>
      <trkpt lat="45.96282" lon="4.83766">
        <ele>245</ele>
        <time>2018-09-13T10:07:01Z</time>
      </trkpt>
      <trkpt lat="45.96277" lon="4.83761">
        <ele>245</ele>
        <time>2018-09-13T10:07:02Z</time>
      </trkpt>
      <trkpt lat="45.96272" lon="4.83756">
        <ele>245</ele>
        <time>2018-09-13T10:07:03Z</time>
      </trkpt>
      <trkpt lat="45.96268" lon="4.83751">
        <ele>245</ele>
        <time>2018-09-13T10:07:04Z</time>
      </trkpt>
      <trkpt lat="45.96263" lon="4.83745">
        <ele>245</ele>
        <time>2018-09-13T10:07:05Z</time>
      </trkpt>
      <trkpt lat="45.96258" lon="4.83742">
        <ele>245</ele>
        <time>2018-09-13T10:07:06Z</time>
      </trkpt>
      <trkpt lat="45.96254" lon="4.83737">
        <ele>245</ele>
        <time>2018-09-13T10:07:07Z</time>
      </trkpt>
      <trkpt lat="45.96249" lon="4.83732">
        <ele>244</ele>
        <time>2018-09-13T10:07:08Z</time>
      </trkpt>
      <trkpt lat="45.96245" lon="4.83728">
        <ele>244</ele>
        <time>2018-09-13T10:07:09Z</time>
      </trkpt>
      <trkpt lat="45.96239" lon="4.83722">
        <ele>244</ele>
        <time>2018-09-13T10:07:10Z</time>
      </trkpt>
      <trkpt lat="45.96235" lon="4.83717">
        <ele>244</ele>
        <time>2018-09-13T10:07:11Z</time>
      </trkpt>
      <trkpt lat="45.9623" lon="4.83712">
        <ele>244</ele>
        <time>2018-09-13T10:07:12Z</time>
      </trkpt>
      <trkpt lat="45.96225" lon="4.83706">
        <ele>244</ele>
        <time>2018-09-13T10:07:13Z</time>
      </trkpt>
      <trkpt lat="45.96219" lon="4.83702">
        <ele>244</ele>
        <time>2018-09-13T10:07:14Z</time>
      </trkpt>
      <trkpt lat="45.96214" lon="4.83697">
        <ele>243</ele>
        <time>2018-09-13T10:07:15Z</time>
      </trkpt>
      <trkpt lat="45.96209" lon="4.83692">
        <ele>243</ele>
        <time>2018-09-13T10:07:16Z</time>
      </trkpt>
      <trkpt lat="45.96205" lon="4.83689">
        <ele>243</ele>
        <time>2018-09-13T10:07:17Z</time>
      </trkpt>
      <trkpt lat="45.96202" lon="4.83683">
        <ele>243</ele>
        <time>2018-09-13T10:07:18Z</time>
      </trkpt>
      <trkpt lat="45.96197" lon="4.83677">
        <ele>243</ele>
        <time>2018-09-13T10:07:19Z</time>
      </trkpt>
      <trkpt lat="45.96194" lon="4.83673">
        <ele>243</ele>
        <time>2018-09-13T10:07:20Z</time>
      </trkpt>
      <trkpt lat="45.9619" lon="4.83667">
        <ele>243</ele>
        <time>2018-09-13T10:07:21Z</time>
      </trkpt>
      <trkpt lat="45.96187" lon="4.83661">
        <ele>242</ele>
        <time>2018-09-13T10:07:22Z</time>
      </trkpt>
      <trkpt lat="45.96183" lon="4.83656">
        <ele>242</ele>
        <time>2018-09-13T10:07:23Z</time>
      </trkpt>
      <trkpt lat="45.96179" lon="4.83651">
        <ele>242</ele>
        <time>2018-09-13T10:07:24Z</time>
      </trkpt>
      <trkpt lat="45.96175" lon="4.83645">
        <ele>242</ele>
        <time>2018-09-13T10:07:25Z</time>
      </trkpt>
      <trkpt lat="45.96172" lon="4.83637">
        <ele>242</ele>
        <time>2018-09-13T10:07:26Z</time>
      </trkpt>
      <trkpt lat="45.96169" lon="4.83631">
        <ele>241</ele>
        <time>2018-09-13T10:07:27Z</time>
      </trkpt>
      <trkpt lat="45.96167" lon="4.83623">
        <ele>242</ele>
        <time>2018-09-13T10:07:28Z</time>
      </trkpt>
      <trkpt lat="45.96163" lon="4.83613">
        <ele>242</ele>
        <time>2018-09-13T10:07:29Z</time>
      </trkpt>
      <trkpt lat="45.96161" lon="4.83604">
        <ele>242</ele>
        <time>2018-09-13T10:07:30Z</time>
      </trkpt>
      <trkpt lat="45.96157" lon="4.83595">
        <ele>241</ele>
        <time>2018-09-13T10:07:31Z</time>
      </trkpt>
      <trkpt lat="45.96156" lon="4.83586">
        <ele>241</ele>
        <time>2018-09-13T10:07:32Z</time>
      </trkpt>
      <trkpt lat="45.96153" lon="4.83579">
        <ele>241</ele>
        <time>2018-09-13T10:07:33Z</time>
      </trkpt>
      <trkpt lat="45.96152" lon="4.83571">
        <ele>241</ele>
        <time>2018-09-13T10:07:34Z</time>
      </trkpt>
      <trkpt lat="45.9615" lon="4.83564">
        <ele>241</ele>
        <time>2018-09-13T10:07:35Z</time>
      </trkpt>
      <trkpt lat="45.96149" lon="4.83556">
        <ele>241</ele>
        <time>2018-09-13T10:07:36Z</time>
      </trkpt>
      <trkpt lat="45.96149" lon="4.83548">
        <ele>241</ele>
        <time>2018-09-13T10:07:37Z</time>
      </trkpt>
      <trkpt lat="45.96147" lon="4.83541">
        <ele>242</ele>
        <time>2018-09-13T10:07:38Z</time>
      </trkpt>
      <trkpt lat="45.96144" lon="4.83534">
        <ele>242</ele>
        <time>2018-09-13T10:07:39Z</time>
      </trkpt>
      <trkpt lat="45.96142" lon="4.83528">
        <ele>242</ele>
        <time>2018-09-13T10:07:40Z</time>
      </trkpt>
      <trkpt lat="45.96141" lon="4.83521">
        <ele>241</ele>
        <time>2018-09-13T10:07:41Z</time>
      </trkpt>
      <trkpt lat="45.96139" lon="4.83513">
        <ele>241</ele>
        <time>2018-09-13T10:07:42Z</time>
      </trkpt>
      <trkpt lat="45.96138" lon="4.83506">
        <ele>241</ele>
        <time>2018-09-13T10:07:43Z</time>
      </trkpt>
      <trkpt lat="45.96136" lon="4.83499">
        <ele>242</ele>
        <time>2018-09-13T10:07:44Z</time>
      </trkpt>
      <trkpt lat="45.96135" lon="4.8349">
        <ele>242</ele>
        <time>2018-09-13T10:07:45Z</time>
      </trkpt>
      <trkpt lat="45.96133" lon="4.83483">
        <ele>242</ele>
        <time>2018-09-13T10:07:46Z</time>
      </trkpt>
      <trkpt lat="45.96132" lon="4.83475">
        <ele>242</ele>
        <time>2018-09-13T10:07:47Z</time>
      </trkpt>
      <trkpt lat="45.9613" lon="4.83466">
        <ele>242</ele>
        <time>2018-09-13T10:07:48Z</time>
      </trkpt>
      <trkpt lat="45.96129" lon="4.83458">
        <ele>242</ele>
        <time>2018-09-13T10:07:49Z</time>
      </trkpt>
      <trkpt lat="45.96127" lon="4.8345">
        <ele>242</ele>
        <time>2018-09-13T10:07:50Z</time>
      </trkpt>
      <trkpt lat="45.96124" lon="4.83443">
        <ele>242</ele>
        <time>2018-09-13T10:07:51Z</time>
      </trkpt>
      <trkpt lat="45.96121" lon="4.83434">
        <ele>242</ele>
        <time>2018-09-13T10:07:52Z</time>
      </trkpt>
      <trkpt lat="45.9612" lon="4.83426">
        <ele>243</ele>
        <time>2018-09-13T10:07:53Z</time>
      </trkpt>
      <trkpt lat="45.96117" lon="4.83416">
        <ele>243</ele>
        <time>2018-09-13T10:07:54Z</time>
      </trkpt>
      <trkpt lat="45.96117" lon="4.83408">
        <ele>243</ele>
        <time>2018-09-13T10:07:55Z</time>
      </trkpt>
      <trkpt lat="45.96115" lon="4.83399">
        <ele>243</ele>
        <time>2018-09-13T10:07:56Z</time>
      </trkpt>
      <trkpt lat="45.96115" lon="4.83392">
        <ele>243</ele>
        <time>2018-09-13T10:07:57Z</time>
      </trkpt>
      <trkpt lat="45.96113" lon="4.83383">
        <ele>243</ele>
        <time>2018-09-13T10:07:58Z</time>
      </trkpt>
      <trkpt lat="45.96112" lon="4.83377">
        <ele>242</ele>
        <time>2018-09-13T10:07:59Z</time>
      </trkpt>
      <trkpt lat="45.96111" lon="4.8337">
        <ele>242</ele>
        <time>2018-09-13T10:08:00Z</time>
      </trkpt>
      <trkpt lat="45.96111" lon="4.83359">
        <ele>242</ele>
        <time>2018-09-13T10:08:01Z</time>
      </trkpt>
      <trkpt lat="45.96109" lon="4.83349">
        <ele>242</ele>
        <time>2018-09-13T10:08:02Z</time>
      </trkpt>
      <trkpt lat="45.96108" lon="4.8334">
        <ele>242</ele>
        <time>2018-09-13T10:08:03Z</time>
      </trkpt>
      <trkpt lat="45.96106" lon="4.83329">
        <ele>241</ele>
        <time>2018-09-13T10:08:04Z</time>
      </trkpt>
      <trkpt lat="45.96103" lon="4.83321">
        <ele>241</ele>
        <time>2018-09-13T10:08:05Z</time>
      </trkpt>
      <trkpt lat="45.961" lon="4.83313">
        <ele>241</ele>
        <time>2018-09-13T10:08:06Z</time>
      </trkpt>
      <trkpt lat="45.96097" lon="4.83305">
        <ele>241</ele>
        <time>2018-09-13T10:08:07Z</time>
      </trkpt>
      <trkpt lat="45.96096" lon="4.83296">
        <ele>241</ele>
        <time>2018-09-13T10:08:08Z</time>
      </trkpt>
      <trkpt lat="45.96095" lon="4.83288">
        <ele>241</ele>
        <time>2018-09-13T10:08:09Z</time>
      </trkpt>
      <trkpt lat="45.96095" lon="4.8328">
        <ele>241</ele>
        <time>2018-09-13T10:08:10Z</time>
      </trkpt>
      <trkpt lat="45.96094" lon="4.8327">
        <ele>241</ele>
        <time>2018-09-13T10:08:11Z</time>
      </trkpt>
      <trkpt lat="45.96095" lon="4.83261">
        <ele>241</ele>
        <time>2018-09-13T10:08:12Z</time>
      </trkpt>
      <trkpt lat="45.96095" lon="4.83255">
        <ele>241</ele>
        <time>2018-09-13T10:08:13Z</time>
      </trkpt>
      <trkpt lat="45.96094" lon="4.83248">
        <ele>240</ele>
        <time>2018-09-13T10:08:14Z</time>
      </trkpt>
      <trkpt lat="45.96094" lon="4.83238">
        <ele>240</ele>
        <time>2018-09-13T10:08:15Z</time>
      </trkpt>
      <trkpt lat="45.96095" lon="4.8323">
        <ele>240</ele>
        <time>2018-09-13T10:08:16Z</time>
      </trkpt>
      <trkpt lat="45.96095" lon="4.83221">
        <ele>240</ele>
        <time>2018-09-13T10:08:17Z</time>
      </trkpt>
      <trkpt lat="45.96095" lon="4.83212">
        <ele>240</ele>
        <time>2018-09-13T10:08:18Z</time>
      </trkpt>
      <trkpt lat="45.96095" lon="4.83203">
        <ele>240</ele>
        <time>2018-09-13T10:08:19Z</time>
      </trkpt>
      <trkpt lat="45.96095" lon="4.83194">
        <ele>240</ele>
        <time>2018-09-13T10:08:20Z</time>
      </trkpt>
      <trkpt lat="45.96094" lon="4.83186">
        <ele>240</ele>
        <time>2018-09-13T10:08:21Z</time>
      </trkpt>
      <trkpt lat="45.96093" lon="4.83178">
        <ele>240</ele>
        <time>2018-09-13T10:08:22Z</time>
      </trkpt>
      <trkpt lat="45.96093" lon="4.83169">
        <ele>240</ele>
        <time>2018-09-13T10:08:23Z</time>
      </trkpt>
      <trkpt lat="45.96092" lon="4.8316">
        <ele>240</ele>
        <time>2018-09-13T10:08:24Z</time>
      </trkpt>
      <trkpt lat="45.96091" lon="4.83151">
        <ele>240</ele>
        <time>2018-09-13T10:08:25Z</time>
      </trkpt>
      <trkpt lat="45.96089" lon="4.83143">
        <ele>240</ele>
        <time>2018-09-13T10:08:26Z</time>
      </trkpt>
      <trkpt lat="45.96088" lon="4.83135">
        <ele>240</ele>
        <time>2018-09-13T10:08:27Z</time>
      </trkpt>
      <trkpt lat="45.96086" lon="4.83124">
        <ele>240</ele>
        <time>2018-09-13T10:08:28Z</time>
      </trkpt>
      <trkpt lat="45.96086" lon="4.83116">
        <ele>240</ele>
        <time>2018-09-13T10:08:29Z</time>
      </trkpt>
      <trkpt lat="45.96086" lon="4.83109">
        <ele>240</ele>
        <time>2018-09-13T10:08:30Z</time>
      </trkpt>
      <trkpt lat="45.96086" lon="4.83102">
        <ele>240</ele>
        <time>2018-09-13T10:08:31Z</time>
      </trkpt>
      <trkpt lat="45.96083" lon="4.83095">
        <ele>241</ele>
        <time>2018-09-13T10:08:32Z</time>
      </trkpt>
      <trkpt lat="45.96084" lon="4.83087">
        <ele>240</ele>
        <time>2018-09-13T10:08:33Z</time>
      </trkpt>
      <trkpt lat="45.96082" lon="4.83078">
        <ele>241</ele>
        <time>2018-09-13T10:08:34Z</time>
      </trkpt>
      <trkpt lat="45.9608" lon="4.83071">
        <ele>242</ele>
        <time>2018-09-13T10:08:35Z</time>
      </trkpt>
      <trkpt lat="45.96077" lon="4.83065">
        <ele>242</ele>
        <time>2018-09-13T10:08:36Z</time>
      </trkpt>
      <trkpt lat="45.96075" lon="4.83057">
        <ele>242</ele>
        <time>2018-09-13T10:08:37Z</time>
      </trkpt>
      <trkpt lat="45.96073" lon="4.83051">
        <ele>243</ele>
        <time>2018-09-13T10:08:38Z</time>
      </trkpt>
      <trkpt lat="45.96072" lon="4.83045">
        <ele>243</ele>
        <time>2018-09-13T10:08:39Z</time>
      </trkpt>
      <trkpt lat="45.9607" lon="4.83037">
        <ele>243</ele>
        <time>2018-09-13T10:08:40Z</time>
      </trkpt>
      <trkpt lat="45.96069" lon="4.8303">
        <ele>242</ele>
        <time>2018-09-13T10:08:41Z</time>
      </trkpt>
      <trkpt lat="45.96067" lon="4.83021">
        <ele>242</ele>
        <time>2018-09-13T10:08:42Z</time>
      </trkpt>
      <trkpt lat="45.96066" lon="4.83014">
        <ele>242</ele>
        <time>2018-09-13T10:08:43Z</time>
      </trkpt>
      <trkpt lat="45.96065" lon="4.83005">
        <ele>242</ele>
        <time>2018-09-13T10:08:44Z</time>
      </trkpt>
      <trkpt lat="45.96066" lon="4.82996">
        <ele>241</ele>
        <time>2018-09-13T10:08:45Z</time>
      </trkpt>
      <trkpt lat="45.96066" lon="4.82987">
        <ele>241</ele>
        <time>2018-09-13T10:08:46Z</time>
      </trkpt>
      <trkpt lat="45.96068" lon="4.82979">
        <ele>241</ele>
        <time>2018-09-13T10:08:47Z</time>
      </trkpt>
      <trkpt lat="45.96071" lon="4.8297">
        <ele>241</ele>
        <time>2018-09-13T10:08:48Z</time>
      </trkpt>
      <trkpt lat="45.96073" lon="4.82962">
        <ele>241</ele>
        <time>2018-09-13T10:08:49Z</time>
      </trkpt>
      <trkpt lat="45.96075" lon="4.82954">
        <ele>241</ele>
        <time>2018-09-13T10:08:50Z</time>
      </trkpt>
      <trkpt lat="45.96076" lon="4.82946">
        <ele>241</ele>
        <time>2018-09-13T10:08:51Z</time>
      </trkpt>
      <trkpt lat="45.96078" lon="4.82938">
        <ele>240</ele>
        <time>2018-09-13T10:08:52Z</time>
      </trkpt>
      <trkpt lat="45.9608" lon="4.82929">
        <ele>240</ele>
        <time>2018-09-13T10:08:53Z</time>
      </trkpt>
      <trkpt lat="45.96081" lon="4.8292">
        <ele>239</ele>
        <time>2018-09-13T10:08:54Z</time>
      </trkpt>
      <trkpt lat="45.96084" lon="4.82912">
        <ele>238</ele>
        <time>2018-09-13T10:08:55Z</time>
      </trkpt>
      <trkpt lat="45.96087" lon="4.82905">
        <ele>238</ele>
        <time>2018-09-13T10:08:56Z</time>
      </trkpt>
      <trkpt lat="45.96088" lon="4.82896">
        <ele>238</ele>
        <time>2018-09-13T10:08:57Z</time>
      </trkpt>
      <trkpt lat="45.96089" lon="4.82888">
        <ele>237</ele>
        <time>2018-09-13T10:08:58Z</time>
      </trkpt>
      <trkpt lat="45.96092" lon="4.82881">
        <ele>237</ele>
        <time>2018-09-13T10:08:59Z</time>
      </trkpt>
      <trkpt lat="45.96094" lon="4.82872">
        <ele>237</ele>
        <time>2018-09-13T10:09:00Z</time>
      </trkpt>
      <trkpt lat="45.96096" lon="4.82863">
        <ele>237</ele>
        <time>2018-09-13T10:09:01Z</time>
      </trkpt>
      <trkpt lat="45.96095" lon="4.82855">
        <ele>237</ele>
        <time>2018-09-13T10:09:02Z</time>
      </trkpt>
      <trkpt lat="45.96095" lon="4.82845">
        <ele>237</ele>
        <time>2018-09-13T10:09:03Z</time>
      </trkpt>
      <trkpt lat="45.96094" lon="4.82837">
        <ele>237</ele>
        <time>2018-09-13T10:09:04Z</time>
      </trkpt>
      <trkpt lat="45.96094" lon="4.82825">
        <ele>237</ele>
        <time>2018-09-13T10:09:06Z</time>
      </trkpt>
      <trkpt lat="45.96093" lon="4.82818">
        <ele>237</ele>
        <time>2018-09-13T10:09:07Z</time>
      </trkpt>
      <trkpt lat="45.96092" lon="4.82811">
        <ele>237</ele>
        <time>2018-09-13T10:09:08Z</time>
      </trkpt>
      <trkpt lat="45.96091" lon="4.82803">
        <ele>237</ele>
        <time>2018-09-13T10:09:09Z</time>
      </trkpt>
      <trkpt lat="45.9609" lon="4.82795">
        <ele>237</ele>
        <time>2018-09-13T10:09:10Z</time>
      </trkpt>
      <trkpt lat="45.96088" lon="4.82786">
        <ele>237</ele>
        <time>2018-09-13T10:09:11Z</time>
      </trkpt>
      <trkpt lat="45.96086" lon="4.82778">
        <ele>237</ele>
        <time>2018-09-13T10:09:12Z</time>
      </trkpt>
      <trkpt lat="45.96084" lon="4.82771">
        <ele>237</ele>
        <time>2018-09-13T10:09:13Z</time>
      </trkpt>
      <trkpt lat="45.96082" lon="4.82764">
        <ele>238</ele>
        <time>2018-09-13T10:09:14Z</time>
      </trkpt>
      <trkpt lat="45.9608" lon="4.82756">
        <ele>237</ele>
        <time>2018-09-13T10:09:15Z</time>
      </trkpt>
      <trkpt lat="45.96078" lon="4.82749">
        <ele>237</ele>
        <time>2018-09-13T10:09:16Z</time>
      </trkpt>
      <trkpt lat="45.96075" lon="4.82742">
        <ele>237</ele>
        <time>2018-09-13T10:09:17Z</time>
      </trkpt>
      <trkpt lat="45.96072" lon="4.82735">
        <ele>237</ele>
        <time>2018-09-13T10:09:18Z</time>
      </trkpt>
      <trkpt lat="45.9607" lon="4.82729">
        <ele>237</ele>
        <time>2018-09-13T10:09:19Z</time>
      </trkpt>
      <trkpt lat="45.96067" lon="4.82718">
        <ele>237</ele>
        <time>2018-09-13T10:09:21Z</time>
      </trkpt>
      <trkpt lat="45.96066" lon="4.82712">
        <ele>237</ele>
        <time>2018-09-13T10:09:22Z</time>
      </trkpt>
      <trkpt lat="45.96064" lon="4.82706">
        <ele>237</ele>
        <time>2018-09-13T10:09:23Z</time>
      </trkpt>
      <trkpt lat="45.96062" lon="4.82699">
        <ele>237</ele>
        <time>2018-09-13T10:09:24Z</time>
      </trkpt>
      <trkpt lat="45.9606" lon="4.82695">
        <ele>237</ele>
        <time>2018-09-13T10:09:25Z</time>
      </trkpt>
      <trkpt lat="45.96056" lon="4.82686">
        <ele>236</ele>
        <time>2018-09-13T10:09:26Z</time>
      </trkpt>
      <trkpt lat="45.96055" lon="4.82679">
        <ele>236</ele>
        <time>2018-09-13T10:09:27Z</time>
      </trkpt>
      <trkpt lat="45.96053" lon="4.82673">
        <ele>236</ele>
        <time>2018-09-13T10:09:28Z</time>
      </trkpt>
      <trkpt lat="45.96051" lon="4.82666">
        <ele>235</ele>
        <time>2018-09-13T10:09:29Z</time>
      </trkpt>
      <trkpt lat="45.96048" lon="4.82661">
        <ele>235</ele>
        <time>2018-09-13T10:09:30Z</time>
      </trkpt>
      <trkpt lat="45.96045" lon="4.8265">
        <ele>235</ele>
        <time>2018-09-13T10:09:32Z</time>
      </trkpt>
      <trkpt lat="45.96043" lon="4.82644">
        <ele>235</ele>
        <time>2018-09-13T10:09:33Z</time>
      </trkpt>
      <trkpt lat="45.96041" lon="4.82638">
        <ele>235</ele>
        <time>2018-09-13T10:09:34Z</time>
      </trkpt>
      <trkpt lat="45.96038" lon="4.82632">
        <ele>235</ele>
        <time>2018-09-13T10:09:35Z</time>
      </trkpt>
      <trkpt lat="45.96035" lon="4.82624">
        <ele>235</ele>
        <time>2018-09-13T10:09:36Z</time>
      </trkpt>
      <trkpt lat="45.96033" lon="4.82618">
        <ele>235</ele>
        <time>2018-09-13T10:09:37Z</time>
      </trkpt>
      <trkpt lat="45.9603" lon="4.82611">
        <ele>235</ele>
        <time>2018-09-13T10:09:38Z</time>
      </trkpt>
      <trkpt lat="45.96027" lon="4.82604">
        <ele>235</ele>
        <time>2018-09-13T10:09:39Z</time>
      </trkpt>
      <trkpt lat="45.96024" lon="4.82598">
        <ele>235</ele>
        <time>2018-09-13T10:09:40Z</time>
      </trkpt>
      <trkpt lat="45.96023" lon="4.82591">
        <ele>235</ele>
        <time>2018-09-13T10:09:41Z</time>
      </trkpt>
      <trkpt lat="45.9602" lon="4.82584">
        <ele>235</ele>
        <time>2018-09-13T10:09:42Z</time>
      </trkpt>
      <trkpt lat="45.96018" lon="4.82577">
        <ele>234</ele>
        <time>2018-09-13T10:09:43Z</time>
      </trkpt>
      <trkpt lat="45.96018" lon="4.82571">
        <ele>235</ele>
        <time>2018-09-13T10:09:44Z</time>
      </trkpt>
      <trkpt lat="45.96017" lon="4.82563">
        <ele>235</ele>
        <time>2018-09-13T10:09:45Z</time>
      </trkpt>
      <trkpt lat="45.96016" lon="4.82555">
        <ele>235</ele>
        <time>2018-09-13T10:09:46Z</time>
      </trkpt>
      <trkpt lat="45.96015" lon="4.82545">
        <ele>235</ele>
        <time>2018-09-13T10:09:47Z</time>
      </trkpt>
      <trkpt lat="45.96016" lon="4.82537">
        <ele>235</ele>
        <time>2018-09-13T10:09:48Z</time>
      </trkpt>
      <trkpt lat="45.96014" lon="4.82529">
        <ele>235</ele>
        <time>2018-09-13T10:09:49Z</time>
      </trkpt>
      <trkpt lat="45.96014" lon="4.82521">
        <ele>235</ele>
        <time>2018-09-13T10:09:50Z</time>
      </trkpt>
      <trkpt lat="45.96014" lon="4.82513">
        <ele>235</ele>
        <time>2018-09-13T10:09:51Z</time>
      </trkpt>
      <trkpt lat="45.96015" lon="4.82505">
        <ele>235</ele>
        <time>2018-09-13T10:09:52Z</time>
      </trkpt>
      <trkpt lat="45.96017" lon="4.82497">
        <ele>235</ele>
        <time>2018-09-13T10:09:53Z</time>
      </trkpt>
      <trkpt lat="45.96017" lon="4.82489">
        <ele>235</ele>
        <time>2018-09-13T10:09:54Z</time>
      </trkpt>
      <trkpt lat="45.96019" lon="4.82482">
        <ele>235</ele>
        <time>2018-09-13T10:09:55Z</time>
      </trkpt>
      <trkpt lat="45.9602" lon="4.82474">
        <ele>235</ele>
        <time>2018-09-13T10:09:56Z</time>
      </trkpt>
      <trkpt lat="45.96021" lon="4.82466">
        <ele>235</ele>
        <time>2018-09-13T10:09:57Z</time>
      </trkpt>
      <trkpt lat="45.9602" lon="4.82459">
        <ele>235</ele>
        <time>2018-09-13T10:09:58Z</time>
      </trkpt>
      <trkpt lat="45.96021" lon="4.82452">
        <ele>235</ele>
        <time>2018-09-13T10:09:59Z</time>
      </trkpt>
      <trkpt lat="45.96022" lon="4.82444">
        <ele>235</ele>
        <time>2018-09-13T10:10:00Z</time>
      </trkpt>
      <trkpt lat="45.96023" lon="4.82436">
        <ele>235</ele>
        <time>2018-09-13T10:10:01Z</time>
      </trkpt>
      <trkpt lat="45.96025" lon="4.82429">
        <ele>235</ele>
        <time>2018-09-13T10:10:02Z</time>
      </trkpt>
      <trkpt lat="45.96025" lon="4.82421">
        <ele>235</ele>
        <time>2018-09-13T10:10:03Z</time>
      </trkpt>
      <trkpt lat="45.96026" lon="4.82413">
        <ele>235</ele>
        <time>2018-09-13T10:10:04Z</time>
      </trkpt>
      <trkpt lat="45.96028" lon="4.82406">
        <ele>235</ele>
        <time>2018-09-13T10:10:05Z</time>
      </trkpt>
      <trkpt lat="45.96029" lon="4.82398">
        <ele>235</ele>
        <time>2018-09-13T10:10:06Z</time>
      </trkpt>
      <trkpt lat="45.9603" lon="4.82392">
        <ele>235</ele>
        <time>2018-09-13T10:10:07Z</time>
      </trkpt>
      <trkpt lat="45.96031" lon="4.82385">
        <ele>235</ele>
        <time>2018-09-13T10:10:08Z</time>
      </trkpt>
      <trkpt lat="45.96034" lon="4.82379">
        <ele>235</ele>
        <time>2018-09-13T10:10:09Z</time>
      </trkpt>
      <trkpt lat="45.96032" lon="4.82366">
        <ele>235</ele>
        <time>2018-09-13T10:10:11Z</time>
      </trkpt>
      <trkpt lat="45.9603" lon="4.82362">
        <ele>235</ele>
        <time>2018-09-13T10:10:12Z</time>
      </trkpt>
      <trkpt lat="45.96023" lon="4.8236">
        <ele>235</ele>
        <time>2018-09-13T10:10:14Z</time>
      </trkpt>
      <trkpt lat="45.9602" lon="4.8236">
        <ele>235</ele>
        <time>2018-09-13T10:10:15Z</time>
      </trkpt>
      <trkpt lat="45.96012" lon="4.82358">
        <ele>235</ele>
        <time>2018-09-13T10:10:17Z</time>
      </trkpt>
      <trkpt lat="45.96007" lon="4.82356">
        <ele>235</ele>
        <time>2018-09-13T10:10:18Z</time>
      </trkpt>
      <trkpt lat="45.95999" lon="4.82356">
        <ele>236</ele>
        <time>2018-09-13T10:10:20Z</time>
      </trkpt>
      <trkpt lat="45.95994" lon="4.82354">
        <ele>236</ele>
        <time>2018-09-13T10:10:21Z</time>
      </trkpt>
      <trkpt lat="45.95988" lon="4.82355">
        <ele>236</ele>
        <time>2018-09-13T10:10:23Z</time>
      </trkpt>
      <trkpt lat="45.95984" lon="4.82355">
        <ele>236</ele>
        <time>2018-09-13T10:10:24Z</time>
      </trkpt>
      <trkpt lat="45.95976" lon="4.82356">
        <ele>237</ele>
        <time>2018-09-13T10:10:27Z</time>
      </trkpt>
      <trkpt lat="45.95974" lon="4.82356">
        <ele>237</ele>
        <time>2018-09-13T10:10:28Z</time>
      </trkpt>
      <trkpt lat="45.95967" lon="4.82358">
        <ele>237</ele>
        <time>2018-09-13T10:10:31Z</time>
      </trkpt>
      <trkpt lat="45.95965" lon="4.82359">
        <ele>237</ele>
        <time>2018-09-13T10:10:32Z</time>
      </trkpt>
      <trkpt lat="45.95958" lon="4.8236">
        <ele>237</ele>
        <time>2018-09-13T10:10:35Z</time>
      </trkpt>
      <trkpt lat="45.95955" lon="4.82361">
        <ele>237</ele>
        <time>2018-09-13T10:10:36Z</time>
      </trkpt>
      <trkpt lat="45.95946" lon="4.82362">
        <ele>237</ele>
        <time>2018-09-13T10:10:39Z</time>
      </trkpt>
      <trkpt lat="45.95943" lon="4.82362">
        <ele>237</ele>
        <time>2018-09-13T10:10:40Z</time>
      </trkpt>
      <trkpt lat="45.95934" lon="4.82362">
        <ele>238</ele>
        <time>2018-09-13T10:10:43Z</time>
      </trkpt>
      <trkpt lat="45.95931" lon="4.82363">
        <ele>238</ele>
        <time>2018-09-13T10:10:44Z</time>
      </trkpt>
      <trkpt lat="45.95923" lon="4.82364">
        <ele>238</ele>
        <time>2018-09-13T10:10:47Z</time>
      </trkpt>
      <trkpt lat="45.9592" lon="4.82365">
        <ele>238</ele>
        <time>2018-09-13T10:10:48Z</time>
      </trkpt>
      <trkpt lat="45.95912" lon="4.82367">
        <ele>242</ele>
        <time>2018-09-13T10:10:51Z</time>
      </trkpt>
      <trkpt lat="45.95909" lon="4.82367">
        <ele>242</ele>
        <time>2018-09-13T10:10:52Z</time>
      </trkpt>
      <trkpt lat="45.95901" lon="4.82367">
        <ele>243</ele>
        <time>2018-09-13T10:10:55Z</time>
      </trkpt>
      <trkpt lat="45.95898" lon="4.82368">
        <ele>243</ele>
        <time>2018-09-13T10:10:56Z</time>
      </trkpt>
      <trkpt lat="45.9589" lon="4.82368">
        <ele>243</ele>
        <time>2018-09-13T10:11:00Z</time>
      </trkpt>
      <trkpt lat="45.95888" lon="4.82368">
        <ele>243</ele>
        <time>2018-09-13T10:11:01Z</time>
      </trkpt>
      <trkpt lat="45.95879" lon="4.82369">
        <ele>244</ele>
        <time>2018-09-13T10:11:05Z</time>
      </trkpt>
      <trkpt lat="45.95877" lon="4.82369">
        <ele>244</ele>
        <time>2018-09-13T10:11:06Z</time>
      </trkpt>
      <trkpt lat="45.95868" lon="4.82368">
        <ele>245</ele>
        <time>2018-09-13T10:11:10Z</time>
      </trkpt>
      <trkpt lat="45.95866" lon="4.82368">
        <ele>245</ele>
        <time>2018-09-13T10:11:11Z</time>
      </trkpt>
      <trkpt lat="45.95857" lon="4.82366">
        <ele>245</ele>
        <time>2018-09-13T10:11:15Z</time>
      </trkpt>
      <trkpt lat="45.95855" lon="4.82366">
        <ele>245</ele>
        <time>2018-09-13T10:11:16Z</time>
      </trkpt>
      <trkpt lat="45.95847" lon="4.82366">
        <ele>246</ele>
        <time>2018-09-13T10:11:19Z</time>
      </trkpt>
      <trkpt lat="45.95844" lon="4.82366">
        <ele>246</ele>
        <time>2018-09-13T10:11:20Z</time>
      </trkpt>
      <trkpt lat="45.95837" lon="4.82366">
        <ele>246</ele>
        <time>2018-09-13T10:11:23Z</time>
      </trkpt>
      <trkpt lat="45.95835" lon="4.82366">
        <ele>246</ele>
        <time>2018-09-13T10:11:24Z</time>
      </trkpt>
      <trkpt lat="45.95827" lon="4.82365">
        <ele>251</ele>
        <time>2018-09-13T10:11:28Z</time>
      </trkpt>
      <trkpt lat="45.95825" lon="4.82365">
        <ele>251</ele>
        <time>2018-09-13T10:11:29Z</time>
      </trkpt>
      <trkpt lat="45.95817" lon="4.82363">
        <ele>251</ele>
        <time>2018-09-13T10:11:33Z</time>
      </trkpt>
      <trkpt lat="45.95814" lon="4.82362">
        <ele>251</ele>
        <time>2018-09-13T10:11:34Z</time>
      </trkpt>
      <trkpt lat="45.95807" lon="4.82361">
        <ele>252</ele>
        <time>2018-09-13T10:11:37Z</time>
      </trkpt>
      <trkpt lat="45.95804" lon="4.8236">
        <ele>252</ele>
        <time>2018-09-13T10:11:38Z</time>
      </trkpt>
      <trkpt lat="45.95796" lon="4.82357">
        <ele>252</ele>
        <time>2018-09-13T10:11:41Z</time>
      </trkpt>
      <trkpt lat="45.95794" lon="4.82356">
        <ele>252</ele>
        <time>2018-09-13T10:11:42Z</time>
      </trkpt>
      <trkpt lat="45.95786" lon="4.8235">
        <ele>253</ele>
        <time>2018-09-13T10:11:45Z</time>
      </trkpt>
      <trkpt lat="45.95783" lon="4.82348">
        <ele>253</ele>
        <time>2018-09-13T10:11:46Z</time>
      </trkpt>
      <trkpt lat="45.95776" lon="4.82341">
        <ele>253</ele>
        <time>2018-09-13T10:11:49Z</time>
      </trkpt>
      <trkpt lat="45.95773" lon="4.82339">
        <ele>254</ele>
        <time>2018-09-13T10:11:50Z</time>
      </trkpt>
      <trkpt lat="45.95768" lon="4.82333">
        <ele>253</ele>
        <time>2018-09-13T10:11:52Z</time>
      </trkpt>
      <trkpt lat="45.95765" lon="4.82331">
        <ele>253</ele>
        <time>2018-09-13T10:11:53Z</time>
      </trkpt>
      <trkpt lat="45.9576" lon="4.82326">
        <ele>253</ele>
        <time>2018-09-13T10:11:55Z</time>
      </trkpt>
      <trkpt lat="45.95757" lon="4.82323">
        <ele>253</ele>
        <time>2018-09-13T10:11:56Z</time>
      </trkpt>
      <trkpt lat="45.9575" lon="4.82315">
        <ele>253</ele>
        <time>2018-09-13T10:11:59Z</time>
      </trkpt>
      <trkpt lat="45.95748" lon="4.82312">
        <ele>256</ele>
        <time>2018-09-13T10:12:00Z</time>
      </trkpt>
      <trkpt lat="45.95742" lon="4.82304">
        <ele>255</ele>
        <time>2018-09-13T10:12:03Z</time>
      </trkpt>
      <trkpt lat="45.9574" lon="4.82301">
        <ele>255</ele>
        <time>2018-09-13T10:12:04Z</time>
      </trkpt>
      <trkpt lat="45.95737" lon="4.82296">
        <ele>255</ele>
        <time>2018-09-13T10:12:06Z</time>
      </trkpt>
      <trkpt lat="45.9573" lon="4.82289">
        <ele>255</ele>
        <time>2018-09-13T10:12:07Z</time>
      </trkpt>
      <trkpt lat="45.95723" lon="4.82282">
        <ele>255</ele>
        <time>2018-09-13T10:12:11Z</time>
      </trkpt>
      <trkpt lat="45.95717" lon="4.82275">
        <ele>255</ele>
        <time>2018-09-13T10:12:12Z</time>
      </trkpt>
      <trkpt lat="45.9571" lon="4.82267">
        <ele>255</ele>
        <time>2018-09-13T10:12:16Z</time>
      </trkpt>
      <trkpt lat="45.95709" lon="4.82265">
        <ele>255</ele>
        <time>2018-09-13T10:12:17Z</time>
      </trkpt>
      <trkpt lat="45.95702" lon="4.82258">
        <ele>255</ele>
        <time>2018-09-13T10:12:21Z</time>
      </trkpt>
      <trkpt lat="45.95699" lon="4.82255">
        <ele>255</ele>
        <time>2018-09-13T10:12:22Z</time>
      </trkpt>
      <trkpt lat="45.95693" lon="4.82247">
        <ele>254</ele>
        <time>2018-09-13T10:12:25Z</time>
      </trkpt>
      <trkpt lat="45.9569" lon="4.82244">
        <ele>255</ele>
        <time>2018-09-13T10:12:26Z</time>
      </trkpt>
      <trkpt lat="45.95684" lon="4.82238">
        <ele>255</ele>
        <time>2018-09-13T10:12:28Z</time>
      </trkpt>
      <trkpt lat="45.95681" lon="4.82235">
        <ele>255</ele>
        <time>2018-09-13T10:12:29Z</time>
      </trkpt>
      <trkpt lat="45.95674" lon="4.82231">
        <ele>255</ele>
        <time>2018-09-13T10:12:31Z</time>
      </trkpt>
      <trkpt lat="45.95671" lon="4.8223">
        <ele>255</ele>
        <time>2018-09-13T10:12:32Z</time>
      </trkpt>
      <trkpt lat="45.95664" lon="4.82227">
        <ele>257</ele>
        <time>2018-09-13T10:12:34Z</time>
      </trkpt>
      <trkpt lat="45.95653" lon="4.82224">
        <ele>257</ele>
        <time>2018-09-13T10:12:35Z</time>
      </trkpt>
      <trkpt lat="45.95646" lon="4.82224">
        <ele>257</ele>
        <time>2018-09-13T10:12:38Z</time>
      </trkpt>
      <trkpt lat="45.95643" lon="4.82224">
        <ele>257</ele>
        <time>2018-09-13T10:12:39Z</time>
      </trkpt>
      <trkpt lat="45.95635" lon="4.82224">
        <ele>257</ele>
        <time>2018-09-13T10:12:42Z</time>
      </trkpt>
      <trkpt lat="45.95632" lon="4.82224">
        <ele>257</ele>
        <time>2018-09-13T10:12:43Z</time>
      </trkpt>
      <trkpt lat="45.95625" lon="4.82224">
        <ele>257</ele>
        <time>2018-09-13T10:12:46Z</time>
      </trkpt>
      <trkpt lat="45.95622" lon="4.82224">
        <ele>257</ele>
        <time>2018-09-13T10:12:47Z</time>
      </trkpt>
      <trkpt lat="45.95613" lon="4.82225">
        <ele>257</ele>
        <time>2018-09-13T10:12:48Z</time>
      </trkpt>
      <trkpt lat="45.95607" lon="4.82225">
        <ele>257</ele>
        <time>2018-09-13T10:12:51Z</time>
      </trkpt>
      <trkpt lat="45.95604" lon="4.82225">
        <ele>257</ele>
        <time>2018-09-13T10:12:52Z</time>
      </trkpt>
      <trkpt lat="45.95599" lon="4.82224">
        <ele>257</ele>
        <time>2018-09-13T10:12:54Z</time>
      </trkpt>
      <trkpt lat="45.95588" lon="4.82221">
        <ele>257</ele>
        <time>2018-09-13T10:12:55Z</time>
      </trkpt>
      <trkpt lat="45.9558" lon="4.82215">
        <ele>258</ele>
        <time>2018-09-13T10:12:57Z</time>
      </trkpt>
      <trkpt lat="45.95577" lon="4.82212">
        <ele>258</ele>
        <time>2018-09-13T10:12:58Z</time>
      </trkpt>
      <trkpt lat="45.9557" lon="4.82204">
        <ele>258</ele>
        <time>2018-09-13T10:13:00Z</time>
      </trkpt>
      <trkpt lat="45.95567" lon="4.82201">
        <ele>258</ele>
        <time>2018-09-13T10:13:01Z</time>
      </trkpt>
      <trkpt lat="45.9556" lon="4.82196">
        <ele>259</ele>
        <time>2018-09-13T10:13:03Z</time>
      </trkpt>
      <trkpt lat="45.95556" lon="4.82193">
        <ele>259</ele>
        <time>2018-09-13T10:13:04Z</time>
      </trkpt>
      <trkpt lat="45.95549" lon="4.82186">
        <ele>259</ele>
        <time>2018-09-13T10:13:06Z</time>
      </trkpt>
      <trkpt lat="45.95546" lon="4.82183">
        <ele>259</ele>
        <time>2018-09-13T10:13:07Z</time>
      </trkpt>
      <trkpt lat="45.95539" lon="4.82178">
        <ele>259</ele>
        <time>2018-09-13T10:13:09Z</time>
      </trkpt>
      <trkpt lat="45.95535" lon="4.82175">
        <ele>259</ele>
        <time>2018-09-13T10:13:10Z</time>
      </trkpt>
      <trkpt lat="45.95528" lon="4.82168">
        <ele>259</ele>
        <time>2018-09-13T10:13:12Z</time>
      </trkpt>
      <trkpt lat="45.95524" lon="4.82164">
        <ele>259</ele>
        <time>2018-09-13T10:13:13Z</time>
      </trkpt>
      <trkpt lat="45.95521" lon="4.82161">
        <ele>259</ele>
        <time>2018-09-13T10:13:14Z</time>
      </trkpt>
      <trkpt lat="45.95516" lon="4.82156">
        <ele>259</ele>
        <time>2018-09-13T10:13:15Z</time>
      </trkpt>
      <trkpt lat="45.95512" lon="4.82152">
        <ele>259</ele>
        <time>2018-09-13T10:13:16Z</time>
      </trkpt>
      <trkpt lat="45.95508" lon="4.82148">
        <ele>259</ele>
        <time>2018-09-13T10:13:17Z</time>
      </trkpt>
      <trkpt lat="45.95505" lon="4.82143">
        <ele>259</ele>
        <time>2018-09-13T10:13:18Z</time>
      </trkpt>
      <trkpt lat="45.95501" lon="4.82139">
        <ele>259</ele>
        <time>2018-09-13T10:13:19Z</time>
      </trkpt>
      <trkpt lat="45.95495" lon="4.82131">
        <ele>260</ele>
        <time>2018-09-13T10:13:21Z</time>
      </trkpt>
      <trkpt lat="45.95491" lon="4.82128">
        <ele>260</ele>
        <time>2018-09-13T10:13:22Z</time>
      </trkpt>
      <trkpt lat="45.95484" lon="4.82124">
        <ele>260</ele>
        <time>2018-09-13T10:13:24Z</time>
      </trkpt>
      <trkpt lat="45.95483" lon="4.82122">
        <ele>260</ele>
        <time>2018-09-13T10:13:25Z</time>
      </trkpt>
      <trkpt lat="45.95475" lon="4.82116">
        <ele>260</ele>
        <time>2018-09-13T10:13:28Z</time>
      </trkpt>
      <trkpt lat="45.95467" lon="4.82107">
        <ele>260</ele>
        <time>2018-09-13T10:13:29Z</time>
      </trkpt>
      <trkpt lat="45.95463" lon="4.82104">
        <ele>260</ele>
        <time>2018-09-13T10:13:30Z</time>
      </trkpt>
      <trkpt lat="45.95458" lon="4.821">
        <ele>260</ele>
        <time>2018-09-13T10:13:31Z</time>
      </trkpt>
      <trkpt lat="45.95454" lon="4.82098">
        <ele>260</ele>
        <time>2018-09-13T10:13:32Z</time>
      </trkpt>
      <trkpt lat="45.95449" lon="4.82094">
        <ele>260</ele>
        <time>2018-09-13T10:13:33Z</time>
      </trkpt>
      <trkpt lat="45.95445" lon="4.82089">
        <ele>260</ele>
        <time>2018-09-13T10:13:34Z</time>
      </trkpt>
      <trkpt lat="45.95442" lon="4.82082">
        <ele>260</ele>
        <time>2018-09-13T10:13:35Z</time>
      </trkpt>
      <trkpt lat="45.95437" lon="4.82077">
        <ele>260</ele>
        <time>2018-09-13T10:13:36Z</time>
      </trkpt>
      <trkpt lat="45.95434" lon="4.82073">
        <ele>260</ele>
        <time>2018-09-13T10:13:37Z</time>
      </trkpt>
      <trkpt lat="45.9543" lon="4.8207">
        <ele>260</ele>
        <time>2018-09-13T10:13:38Z</time>
      </trkpt>
      <trkpt lat="45.95426" lon="4.82065">
        <ele>260</ele>
        <time>2018-09-13T10:13:39Z</time>
      </trkpt>
      <trkpt lat="45.95421" lon="4.82057">
        <ele>260</ele>
        <time>2018-09-13T10:13:41Z</time>
      </trkpt>
      <trkpt lat="45.95417" lon="4.82054">
        <ele>260</ele>
        <time>2018-09-13T10:13:42Z</time>
      </trkpt>
      <trkpt lat="45.95411" lon="4.82047">
        <ele>261</ele>
        <time>2018-09-13T10:13:44Z</time>
      </trkpt>
      <trkpt lat="45.95407" lon="4.82045">
        <ele>261</ele>
        <time>2018-09-13T10:13:45Z</time>
      </trkpt>
      <trkpt lat="45.954" lon="4.8204">
        <ele>261</ele>
        <time>2018-09-13T10:13:47Z</time>
      </trkpt>
      <trkpt lat="45.95396" lon="4.82036">
        <ele>261</ele>
        <time>2018-09-13T10:13:48Z</time>
      </trkpt>
      <trkpt lat="45.95392" lon="4.82032">
        <ele>261</ele>
        <time>2018-09-13T10:13:49Z</time>
      </trkpt>
      <trkpt lat="45.95388" lon="4.82027">
        <ele>261</ele>
        <time>2018-09-13T10:13:50Z</time>
      </trkpt>
      <trkpt lat="45.95384" lon="4.82024">
        <ele>262</ele>
        <time>2018-09-13T10:13:51Z</time>
      </trkpt>
      <trkpt lat="45.9538" lon="4.8202">
        <ele>262</ele>
        <time>2018-09-13T10:13:52Z</time>
      </trkpt>
      <trkpt lat="45.95376" lon="4.82015">
        <ele>262</ele>
        <time>2018-09-13T10:13:53Z</time>
      </trkpt>
      <trkpt lat="45.95372" lon="4.82011">
        <ele>262</ele>
        <time>2018-09-13T10:13:54Z</time>
      </trkpt>
      <trkpt lat="45.95367" lon="4.82008">
        <ele>262</ele>
        <time>2018-09-13T10:13:55Z</time>
      </trkpt>
      <trkpt lat="45.95363" lon="4.82005">
        <ele>262</ele>
        <time>2018-09-13T10:13:56Z</time>
      </trkpt>
      <trkpt lat="45.95357" lon="4.81998">
        <ele>262</ele>
        <time>2018-09-13T10:13:58Z</time>
      </trkpt>
      <trkpt lat="45.95352" lon="4.81996">
        <ele>262</ele>
        <time>2018-09-13T10:13:59Z</time>
      </trkpt>
      <trkpt lat="45.95344" lon="4.81989">
        <ele>262</ele>
        <time>2018-09-13T10:14:01Z</time>
      </trkpt>
      <trkpt lat="45.95341" lon="4.81986">
        <ele>262</ele>
        <time>2018-09-13T10:14:02Z</time>
      </trkpt>
      <trkpt lat="45.95337" lon="4.81982">
        <ele>262</ele>
        <time>2018-09-13T10:14:03Z</time>
      </trkpt>
      <trkpt lat="45.95333" lon="4.81978">
        <ele>262</ele>
        <time>2018-09-13T10:14:04Z</time>
      </trkpt>
      <trkpt lat="45.95329" lon="4.81974">
        <ele>262</ele>
        <time>2018-09-13T10:14:05Z</time>
      </trkpt>
      <trkpt lat="45.95325" lon="4.8197">
        <ele>262</ele>
        <time>2018-09-13T10:14:06Z</time>
      </trkpt>
      <trkpt lat="45.95321" lon="4.81966">
        <ele>262</ele>
        <time>2018-09-13T10:14:07Z</time>
      </trkpt>
      <trkpt lat="45.95317" lon="4.81962">
        <ele>262</ele>
        <time>2018-09-13T10:14:08Z</time>
      </trkpt>
      <trkpt lat="45.95314" lon="4.81958">
        <ele>262</ele>
        <time>2018-09-13T10:14:09Z</time>
      </trkpt>
      <trkpt lat="45.95309" lon="4.81954">
        <ele>262</ele>
        <time>2018-09-13T10:14:10Z</time>
      </trkpt>
      <trkpt lat="45.95304" lon="4.81949">
        <ele>261</ele>
        <time>2018-09-13T10:14:11Z</time>
      </trkpt>
      <trkpt lat="45.953" lon="4.81944">
        <ele>261</ele>
        <time>2018-09-13T10:14:12Z</time>
      </trkpt>
      <trkpt lat="45.95297" lon="4.81938">
        <ele>261</ele>
        <time>2018-09-13T10:14:13Z</time>
      </trkpt>
      <trkpt lat="45.95293" lon="4.81933">
        <ele>261</ele>
        <time>2018-09-13T10:14:14Z</time>
      </trkpt>
      <trkpt lat="45.9529" lon="4.81928">
        <ele>261</ele>
        <time>2018-09-13T10:14:15Z</time>
      </trkpt>
      <trkpt lat="45.95286" lon="4.81922">
        <ele>261</ele>
        <time>2018-09-13T10:14:16Z</time>
      </trkpt>
      <trkpt lat="45.95281" lon="4.81917">
        <ele>260</ele>
        <time>2018-09-13T10:14:17Z</time>
      </trkpt>
      <trkpt lat="45.95277" lon="4.81911">
        <ele>260</ele>
        <time>2018-09-13T10:14:18Z</time>
      </trkpt>
      <trkpt lat="45.95273" lon="4.81906">
        <ele>260</ele>
        <time>2018-09-13T10:14:19Z</time>
      </trkpt>
      <trkpt lat="45.9527" lon="4.81902">
        <ele>260</ele>
        <time>2018-09-13T10:14:20Z</time>
      </trkpt>
      <trkpt lat="45.95267" lon="4.81896">
        <ele>260</ele>
        <time>2018-09-13T10:14:21Z</time>
      </trkpt>
      <trkpt lat="45.95264" lon="4.81892">
        <ele>260</ele>
        <time>2018-09-13T10:14:22Z</time>
      </trkpt>
      <trkpt lat="45.95259" lon="4.81882">
        <ele>260</ele>
        <time>2018-09-13T10:14:24Z</time>
      </trkpt>
      <trkpt lat="45.95255" lon="4.81877">
        <ele>260</ele>
        <time>2018-09-13T10:14:25Z</time>
      </trkpt>
      <trkpt lat="45.95252" lon="4.81872">
        <ele>260</ele>
        <time>2018-09-13T10:14:26Z</time>
      </trkpt>
      <trkpt lat="45.95247" lon="4.81867">
        <ele>260</ele>
        <time>2018-09-13T10:14:27Z</time>
      </trkpt>
      <trkpt lat="45.95243" lon="4.81862">
        <ele>260</ele>
        <time>2018-09-13T10:14:28Z</time>
      </trkpt>
      <trkpt lat="45.9524" lon="4.81857">
        <ele>260</ele>
        <time>2018-09-13T10:14:29Z</time>
      </trkpt>
      <trkpt lat="45.95236" lon="4.81851">
        <ele>260</ele>
        <time>2018-09-13T10:14:30Z</time>
      </trkpt>
      <trkpt lat="45.95233" lon="4.81846">
        <ele>260</ele>
        <time>2018-09-13T10:14:31Z</time>
      </trkpt>
      <trkpt lat="45.95231" lon="4.81839">
        <ele>260</ele>
        <time>2018-09-13T10:14:32Z</time>
      </trkpt>
      <trkpt lat="45.95228" lon="4.81834">
        <ele>260</ele>
        <time>2018-09-13T10:14:33Z</time>
      </trkpt>
      <trkpt lat="45.95224" lon="4.81829">
        <ele>259</ele>
        <time>2018-09-13T10:14:34Z</time>
      </trkpt>
      <trkpt lat="45.95221" lon="4.81824">
        <ele>259</ele>
        <time>2018-09-13T10:14:35Z</time>
      </trkpt>
      <trkpt lat="45.95216" lon="4.81821">
        <ele>259</ele>
        <time>2018-09-13T10:14:36Z</time>
      </trkpt>
      <trkpt lat="45.95213" lon="4.81814">
        <ele>259</ele>
        <time>2018-09-13T10:14:37Z</time>
      </trkpt>
      <trkpt lat="45.9521" lon="4.81808">
        <ele>259</ele>
        <time>2018-09-13T10:14:38Z</time>
      </trkpt>
      <trkpt lat="45.95207" lon="4.81802">
        <ele>259</ele>
        <time>2018-09-13T10:14:39Z</time>
      </trkpt>
      <trkpt lat="45.95202" lon="4.81796">
        <ele>259</ele>
        <time>2018-09-13T10:14:40Z</time>
      </trkpt>
      <trkpt lat="45.95198" lon="4.81789">
        <ele>259</ele>
        <time>2018-09-13T10:14:41Z</time>
      </trkpt>
      <trkpt lat="45.95194" lon="4.81782">
        <ele>258</ele>
        <time>2018-09-13T10:14:42Z</time>
      </trkpt>
      <trkpt lat="45.95189" lon="4.81778">
        <ele>258</ele>
        <time>2018-09-13T10:14:43Z</time>
      </trkpt>
      <trkpt lat="45.95184" lon="4.81769">
        <ele>258</ele>
        <time>2018-09-13T10:14:44Z</time>
      </trkpt>
      <trkpt lat="45.95177" lon="4.81763">
        <ele>258</ele>
        <time>2018-09-13T10:14:45Z</time>
      </trkpt>
      <trkpt lat="45.95172" lon="4.81755">
        <ele>258</ele>
        <time>2018-09-13T10:14:46Z</time>
      </trkpt>
      <trkpt lat="45.95167" lon="4.81746">
        <ele>258</ele>
        <time>2018-09-13T10:14:47Z</time>
      </trkpt>
      <trkpt lat="45.95163" lon="4.81735">
        <ele>257</ele>
        <time>2018-09-13T10:14:48Z</time>
      </trkpt>
      <trkpt lat="45.95157" lon="4.81724">
        <ele>256</ele>
        <time>2018-09-13T10:14:49Z</time>
      </trkpt>
      <trkpt lat="45.95153" lon="4.81713">
        <ele>256</ele>
        <time>2018-09-13T10:14:50Z</time>
      </trkpt>
      <trkpt lat="45.95151" lon="4.817">
        <ele>255</ele>
        <time>2018-09-13T10:14:51Z</time>
      </trkpt>
      <trkpt lat="45.95147" lon="4.81688">
        <ele>255</ele>
        <time>2018-09-13T10:14:52Z</time>
      </trkpt>
      <trkpt lat="45.95143" lon="4.81677">
        <ele>255</ele>
        <time>2018-09-13T10:14:53Z</time>
      </trkpt>
      <trkpt lat="45.9514" lon="4.81664">
        <ele>253</ele>
        <time>2018-09-13T10:14:54Z</time>
      </trkpt>
      <trkpt lat="45.95135" lon="4.81651">
        <ele>253</ele>
        <time>2018-09-13T10:14:55Z</time>
      </trkpt>
      <trkpt lat="45.95126" lon="4.8164">
        <ele>253</ele>
        <time>2018-09-13T10:14:56Z</time>
      </trkpt>
      <trkpt lat="45.95123" lon="4.81627">
        <ele>253</ele>
        <time>2018-09-13T10:14:57Z</time>
      </trkpt>
      <trkpt lat="45.9512" lon="4.81615">
        <ele>252</ele>
        <time>2018-09-13T10:14:58Z</time>
      </trkpt>
      <trkpt lat="45.95112" lon="4.81603">
        <ele>252</ele>
        <time>2018-09-13T10:14:59Z</time>
      </trkpt>
      <trkpt lat="45.95108" lon="4.8159">
        <ele>252</ele>
        <time>2018-09-13T10:15:00Z</time>
      </trkpt>
      <trkpt lat="45.95105" lon="4.81579">
        <ele>251</ele>
        <time>2018-09-13T10:15:01Z</time>
      </trkpt>
      <trkpt lat="45.95102" lon="4.81568">
        <ele>251</ele>
        <time>2018-09-13T10:15:02Z</time>
      </trkpt>
      <trkpt lat="45.95098" lon="4.81556">
        <ele>251</ele>
        <time>2018-09-13T10:15:03Z</time>
      </trkpt>
      <trkpt lat="45.95094" lon="4.81545">
        <ele>251</ele>
        <time>2018-09-13T10:15:04Z</time>
      </trkpt>
      <trkpt lat="45.95092" lon="4.81538">
        <ele>251</ele>
        <time>2018-09-13T10:15:05Z</time>
      </trkpt>
      <trkpt lat="45.9509" lon="4.81528">
        <ele>251</ele>
        <time>2018-09-13T10:15:06Z</time>
      </trkpt>
      <trkpt lat="45.95089" lon="4.81519">
        <ele>251</ele>
        <time>2018-09-13T10:15:07Z</time>
      </trkpt>
      <trkpt lat="45.95085" lon="4.81511">
        <ele>252</ele>
        <time>2018-09-13T10:15:08Z</time>
      </trkpt>
      <trkpt lat="45.95082" lon="4.81502">
        <ele>252</ele>
        <time>2018-09-13T10:15:09Z</time>
      </trkpt>
      <trkpt lat="45.95079" lon="4.81495">
        <ele>252</ele>
        <time>2018-09-13T10:15:10Z</time>
      </trkpt>
      <trkpt lat="45.95078" lon="4.81486">
        <ele>253</ele>
        <time>2018-09-13T10:15:11Z</time>
      </trkpt>
      <trkpt lat="45.95073" lon="4.81479">
        <ele>253</ele>
        <time>2018-09-13T10:15:12Z</time>
      </trkpt>
      <trkpt lat="45.95072" lon="4.81473">
        <ele>253</ele>
        <time>2018-09-13T10:15:13Z</time>
      </trkpt>
      <trkpt lat="45.95068" lon="4.81462">
        <ele>253</ele>
        <time>2018-09-13T10:15:15Z</time>
      </trkpt>
      <trkpt lat="45.95066" lon="4.81455">
        <ele>253</ele>
        <time>2018-09-13T10:15:16Z</time>
      </trkpt>
      <trkpt lat="45.95064" lon="4.81447">
        <ele>253</ele>
        <time>2018-09-13T10:15:18Z</time>
      </trkpt>
      <trkpt lat="45.95064" lon="4.81442">
        <ele>253</ele>
        <time>2018-09-13T10:15:19Z</time>
      </trkpt>
      <trkpt lat="45.95061" lon="4.8143">
        <ele>253</ele>
        <time>2018-09-13T10:15:21Z</time>
      </trkpt>
      <trkpt lat="45.95059" lon="4.81422">
        <ele>253</ele>
        <time>2018-09-13T10:15:22Z</time>
      </trkpt>
      <trkpt lat="45.95057" lon="4.81416">
        <ele>253</ele>
        <time>2018-09-13T10:15:23Z</time>
      </trkpt>
      <trkpt lat="45.95055" lon="4.81408">
        <ele>253</ele>
        <time>2018-09-13T10:15:24Z</time>
      </trkpt>
      <trkpt lat="45.95051" lon="4.81403">
        <ele>253</ele>
        <time>2018-09-13T10:15:25Z</time>
      </trkpt>
      <trkpt lat="45.95049" lon="4.81398">
        <ele>253</ele>
        <time>2018-09-13T10:15:26Z</time>
      </trkpt>
      <trkpt lat="45.95044" lon="4.81388">
        <ele>254</ele>
        <time>2018-09-13T10:15:28Z</time>
      </trkpt>
      <trkpt lat="45.95043" lon="4.81383">
        <ele>254</ele>
        <time>2018-09-13T10:15:29Z</time>
      </trkpt>
      <trkpt lat="45.9504" lon="4.81371">
        <ele>254</ele>
        <time>2018-09-13T10:15:31Z</time>
      </trkpt>
      <trkpt lat="45.95039" lon="4.81367">
        <ele>254</ele>
        <time>2018-09-13T10:15:32Z</time>
      </trkpt>
      <trkpt lat="45.95036" lon="4.81355">
        <ele>254</ele>
        <time>2018-09-13T10:15:34Z</time>
      </trkpt>
      <trkpt lat="45.95033" lon="4.81349">
        <ele>254</ele>
        <time>2018-09-13T10:15:35Z</time>
      </trkpt>
      <trkpt lat="45.95032" lon="4.81343">
        <ele>254</ele>
        <time>2018-09-13T10:15:36Z</time>
      </trkpt>
      <trkpt lat="45.95032" lon="4.81336">
        <ele>254</ele>
        <time>2018-09-13T10:15:37Z</time>
      </trkpt>
      <trkpt lat="45.95029" lon="4.81325">
        <ele>255</ele>
        <time>2018-09-13T10:15:39Z</time>
      </trkpt>
      <trkpt lat="45.95028" lon="4.8132">
        <ele>255</ele>
        <time>2018-09-13T10:15:40Z</time>
      </trkpt>
      <trkpt lat="45.95025" lon="4.81309">
        <ele>255</ele>
        <time>2018-09-13T10:15:42Z</time>
      </trkpt>
      <trkpt lat="45.95023" lon="4.81303">
        <ele>255</ele>
        <time>2018-09-13T10:15:43Z</time>
      </trkpt>
      <trkpt lat="45.95022" lon="4.81297">
        <ele>255</ele>
        <time>2018-09-13T10:15:44Z</time>
      </trkpt>
      <trkpt lat="45.9502" lon="4.8129">
        <ele>255</ele>
        <time>2018-09-13T10:15:45Z</time>
      </trkpt>
      <trkpt lat="45.95018" lon="4.81284">
        <ele>255</ele>
        <time>2018-09-13T10:15:46Z</time>
      </trkpt>
      <trkpt lat="45.95017" lon="4.81278">
        <ele>255</ele>
        <time>2018-09-13T10:15:47Z</time>
      </trkpt>
      <trkpt lat="45.95016" lon="4.8127">
        <ele>255</ele>
        <time>2018-09-13T10:15:48Z</time>
      </trkpt>
      <trkpt lat="45.95015" lon="4.81264">
        <ele>255</ele>
        <time>2018-09-13T10:15:49Z</time>
      </trkpt>
      <trkpt lat="45.95013" lon="4.81258">
        <ele>256</ele>
        <time>2018-09-13T10:15:50Z</time>
      </trkpt>
      <trkpt lat="45.95012" lon="4.81251">
        <ele>256</ele>
        <time>2018-09-13T10:15:51Z</time>
      </trkpt>
      <trkpt lat="45.95011" lon="4.81239">
        <ele>256</ele>
        <time>2018-09-13T10:15:53Z</time>
      </trkpt>
      <trkpt lat="45.95011" lon="4.81233">
        <ele>256</ele>
        <time>2018-09-13T10:15:54Z</time>
      </trkpt>
      <trkpt lat="45.9501" lon="4.81222">
        <ele>256</ele>
        <time>2018-09-13T10:15:56Z</time>
      </trkpt>
      <trkpt lat="45.95009" lon="4.81216">
        <ele>256</ele>
        <time>2018-09-13T10:15:57Z</time>
      </trkpt>
      <trkpt lat="45.95008" lon="4.81205">
        <ele>256</ele>
        <time>2018-09-13T10:15:59Z</time>
      </trkpt>
      <trkpt lat="45.95005" lon="4.81198">
        <ele>256</ele>
        <time>2018-09-13T10:16:00Z</time>
      </trkpt>
      <trkpt lat="45.95004" lon="4.81186">
        <ele>256</ele>
        <time>2018-09-13T10:16:02Z</time>
      </trkpt>
      <trkpt lat="45.95002" lon="4.8118">
        <ele>256</ele>
        <time>2018-09-13T10:16:03Z</time>
      </trkpt>
      <trkpt lat="45.95" lon="4.81173">
        <ele>256</ele>
        <time>2018-09-13T10:16:04Z</time>
      </trkpt>
      <trkpt lat="45.94999" lon="4.81166">
        <ele>256</ele>
        <time>2018-09-13T10:16:05Z</time>
      </trkpt>
      <trkpt lat="45.94999" lon="4.81159">
        <ele>256</ele>
        <time>2018-09-13T10:16:06Z</time>
      </trkpt>
      <trkpt lat="45.95" lon="4.81151">
        <ele>256</ele>
        <time>2018-09-13T10:16:07Z</time>
      </trkpt>
      <trkpt lat="45.94999" lon="4.81146">
        <ele>256</ele>
        <time>2018-09-13T10:16:08Z</time>
      </trkpt>
      <trkpt lat="45.94998" lon="4.81138">
        <ele>256</ele>
        <time>2018-09-13T10:16:09Z</time>
      </trkpt>
      <trkpt lat="45.94996" lon="4.81131">
        <ele>256</ele>
        <time>2018-09-13T10:16:10Z</time>
      </trkpt>
      <trkpt lat="45.94995" lon="4.81124">
        <ele>257</ele>
        <time>2018-09-13T10:16:11Z</time>
      </trkpt>
      <trkpt lat="45.94993" lon="4.81113">
        <ele>257</ele>
        <time>2018-09-13T10:16:13Z</time>
      </trkpt>
      <trkpt lat="45.94995" lon="4.81109">
        <ele>257</ele>
        <time>2018-09-13T10:16:14Z</time>
      </trkpt>
      <trkpt lat="45.94994" lon="4.81096">
        <ele>257</ele>
        <time>2018-09-13T10:16:16Z</time>
      </trkpt>
      <trkpt lat="45.94994" lon="4.81091">
        <ele>257</ele>
        <time>2018-09-13T10:16:17Z</time>
      </trkpt>
      <trkpt lat="45.94993" lon="4.8108">
        <ele>257</ele>
        <time>2018-09-13T10:16:19Z</time>
      </trkpt>
      <trkpt lat="45.94992" lon="4.81075">
        <ele>257</ele>
        <time>2018-09-13T10:16:20Z</time>
      </trkpt>
      <trkpt lat="45.94991" lon="4.81063">
        <ele>257</ele>
        <time>2018-09-13T10:16:22Z</time>
      </trkpt>
      <trkpt lat="45.94991" lon="4.81056">
        <ele>257</ele>
        <time>2018-09-13T10:16:23Z</time>
      </trkpt>
      <trkpt lat="45.94991" lon="4.81044">
        <ele>257</ele>
        <time>2018-09-13T10:16:25Z</time>
      </trkpt>
      <trkpt lat="45.9499" lon="4.81038">
        <ele>257</ele>
        <time>2018-09-13T10:16:26Z</time>
      </trkpt>
      <trkpt lat="45.94989" lon="4.81027">
        <ele>257</ele>
        <time>2018-09-13T10:16:28Z</time>
      </trkpt>
      <trkpt lat="45.94989" lon="4.81021">
        <ele>257</ele>
        <time>2018-09-13T10:16:29Z</time>
      </trkpt>
      <trkpt lat="45.94988" lon="4.81011">
        <ele>257</ele>
        <time>2018-09-13T10:16:31Z</time>
      </trkpt>
      <trkpt lat="45.94987" lon="4.81008">
        <ele>257</ele>
        <time>2018-09-13T10:16:32Z</time>
      </trkpt>
      <trkpt lat="45.94987" lon="4.81">
        <ele>257</ele>
        <time>2018-09-13T10:16:33Z</time>
      </trkpt>
      <trkpt lat="45.94986" lon="4.80994">
        <ele>257</ele>
        <time>2018-09-13T10:16:34Z</time>
      </trkpt>
      <trkpt lat="45.94986" lon="4.80983">
        <ele>258</ele>
        <time>2018-09-13T10:16:36Z</time>
      </trkpt>
      <trkpt lat="45.94985" lon="4.80977">
        <ele>258</ele>
        <time>2018-09-13T10:16:37Z</time>
      </trkpt>
      <trkpt lat="45.94983" lon="4.80966">
        <ele>258</ele>
        <time>2018-09-13T10:16:39Z</time>
      </trkpt>
      <trkpt lat="45.94982" lon="4.8096">
        <ele>258</ele>
        <time>2018-09-13T10:16:40Z</time>
      </trkpt>
      <trkpt lat="45.94981" lon="4.80954">
        <ele>258</ele>
        <time>2018-09-13T10:16:41Z</time>
      </trkpt>
      <trkpt lat="45.9498" lon="4.80947">
        <ele>258</ele>
        <time>2018-09-13T10:16:42Z</time>
      </trkpt>
      <trkpt lat="45.94979" lon="4.80939">
        <ele>258</ele>
        <time>2018-09-13T10:16:43Z</time>
      </trkpt>
      <trkpt lat="45.94978" lon="4.80932">
        <ele>258</ele>
        <time>2018-09-13T10:16:44Z</time>
      </trkpt>
      <trkpt lat="45.94977" lon="4.80925">
        <ele>258</ele>
        <time>2018-09-13T10:16:45Z</time>
      </trkpt>
      <trkpt lat="45.94976" lon="4.80919">
        <ele>258</ele>
        <time>2018-09-13T10:16:46Z</time>
      </trkpt>
      <trkpt lat="45.94974" lon="4.80912">
        <ele>258</ele>
        <time>2018-09-13T10:16:47Z</time>
      </trkpt>
      <trkpt lat="45.94972" lon="4.80906">
        <ele>258</ele>
        <time>2018-09-13T10:16:48Z</time>
      </trkpt>
      <trkpt lat="45.94972" lon="4.80895">
        <ele>258</ele>
        <time>2018-09-13T10:16:50Z</time>
      </trkpt>
      <trkpt lat="45.94973" lon="4.80888">
        <ele>258</ele>
        <time>2018-09-13T10:16:51Z</time>
      </trkpt>
      <trkpt lat="45.94972" lon="4.80882">
        <ele>258</ele>
        <time>2018-09-13T10:16:52Z</time>
      </trkpt>
      <trkpt lat="45.94971" lon="4.80874">
        <ele>259</ele>
        <time>2018-09-13T10:16:53Z</time>
      </trkpt>
      <trkpt lat="45.9497" lon="4.80863">
        <ele>259</ele>
        <time>2018-09-13T10:16:55Z</time>
      </trkpt>
      <trkpt lat="45.9497" lon="4.80858">
        <ele>259</ele>
        <time>2018-09-13T10:16:56Z</time>
      </trkpt>
      <trkpt lat="45.94969" lon="4.80851">
        <ele>259</ele>
        <time>2018-09-13T10:16:57Z</time>
      </trkpt>
      <trkpt lat="45.94968" lon="4.80845">
        <ele>259</ele>
        <time>2018-09-13T10:16:58Z</time>
      </trkpt>
      <trkpt lat="45.94965" lon="4.80834">
        <ele>259</ele>
        <time>2018-09-13T10:17:00Z</time>
      </trkpt>
      <trkpt lat="45.94964" lon="4.80828">
        <ele>259</ele>
        <time>2018-09-13T10:17:01Z</time>
      </trkpt>
      <trkpt lat="45.94961" lon="4.80817">
        <ele>259</ele>
        <time>2018-09-13T10:17:04Z</time>
      </trkpt>
      <trkpt lat="45.9496" lon="4.80815">
        <ele>259</ele>
        <time>2018-09-13T10:17:05Z</time>
      </trkpt>
      <trkpt lat="45.94959" lon="4.80803">
        <ele>258</ele>
        <time>2018-09-13T10:17:14Z</time>
      </trkpt>
      <trkpt lat="45.9496" lon="4.80802">
        <ele>258</ele>
        <time>2018-09-13T10:17:15Z</time>
      </trkpt>
      <trkpt lat="45.9496" lon="4.80792">
        <ele>258</ele>
        <time>2018-09-13T10:17:19Z</time>
      </trkpt>
      <trkpt lat="45.9496" lon="4.80789">
        <ele>258</ele>
        <time>2018-09-13T10:17:20Z</time>
      </trkpt>
      <trkpt lat="45.94958" lon="4.80777">
        <ele>259</ele>
        <time>2018-09-13T10:17:23Z</time>
      </trkpt>
      <trkpt lat="45.94957" lon="4.80763">
        <ele>259</ele>
        <time>2018-09-13T10:17:24Z</time>
      </trkpt>
      <trkpt lat="45.94958" lon="4.80752">
        <ele>258</ele>
        <time>2018-09-13T10:17:26Z</time>
      </trkpt>
      <trkpt lat="45.9496" lon="4.80746">
        <ele>259</ele>
        <time>2018-09-13T10:17:27Z</time>
      </trkpt>
      <trkpt lat="45.94961" lon="4.80739">
        <ele>259</ele>
        <time>2018-09-13T10:17:28Z</time>
      </trkpt>
      <trkpt lat="45.94961" lon="4.80731">
        <ele>259</ele>
        <time>2018-09-13T10:17:29Z</time>
      </trkpt>
      <trkpt lat="45.9496" lon="4.80724">
        <ele>259</ele>
        <time>2018-09-13T10:17:30Z</time>
      </trkpt>
      <trkpt lat="45.9496" lon="4.80717">
        <ele>259</ele>
        <time>2018-09-13T10:17:31Z</time>
      </trkpt>
      <trkpt lat="45.9496" lon="4.80708">
        <ele>259</ele>
        <time>2018-09-13T10:17:32Z</time>
      </trkpt>
      <trkpt lat="45.9496" lon="4.807">
        <ele>259</ele>
        <time>2018-09-13T10:17:33Z</time>
      </trkpt>
      <trkpt lat="45.94959" lon="4.80691">
        <ele>259</ele>
        <time>2018-09-13T10:17:34Z</time>
      </trkpt>
      <trkpt lat="45.94959" lon="4.80682">
        <ele>259</ele>
        <time>2018-09-13T10:17:35Z</time>
      </trkpt>
      <trkpt lat="45.94958" lon="4.80672">
        <ele>259</ele>
        <time>2018-09-13T10:17:36Z</time>
      </trkpt>
      <trkpt lat="45.94959" lon="4.80665">
        <ele>259</ele>
        <time>2018-09-13T10:17:37Z</time>
      </trkpt>
      <trkpt lat="45.94958" lon="4.80657">
        <ele>259</ele>
        <time>2018-09-13T10:17:38Z</time>
      </trkpt>
      <trkpt lat="45.94958" lon="4.80649">
        <ele>258</ele>
        <time>2018-09-13T10:17:39Z</time>
      </trkpt>
      <trkpt lat="45.94957" lon="4.80639">
        <ele>258</ele>
        <time>2018-09-13T10:17:40Z</time>
      </trkpt>
      <trkpt lat="45.94956" lon="4.80631">
        <ele>258</ele>
        <time>2018-09-13T10:17:41Z</time>
      </trkpt>
      <trkpt lat="45.94956" lon="4.80622">
        <ele>258</ele>
        <time>2018-09-13T10:17:42Z</time>
      </trkpt>
      <trkpt lat="45.94956" lon="4.80613">
        <ele>258</ele>
        <time>2018-09-13T10:17:43Z</time>
      </trkpt>
      <trkpt lat="45.94954" lon="4.80606">
        <ele>258</ele>
        <time>2018-09-13T10:17:44Z</time>
      </trkpt>
      <trkpt lat="45.94955" lon="4.80597">
        <ele>258</ele>
        <time>2018-09-13T10:17:45Z</time>
      </trkpt>
      <trkpt lat="45.94954" lon="4.80588">
        <ele>258</ele>
        <time>2018-09-13T10:17:46Z</time>
      </trkpt>
      <trkpt lat="45.94954" lon="4.80579">
        <ele>257</ele>
        <time>2018-09-13T10:17:47Z</time>
      </trkpt>
      <trkpt lat="45.94952" lon="4.80572">
        <ele>257</ele>
        <time>2018-09-13T10:17:48Z</time>
      </trkpt>
      <trkpt lat="45.94952" lon="4.80564">
        <ele>257</ele>
        <time>2018-09-13T10:17:49Z</time>
      </trkpt>
      <trkpt lat="45.94953" lon="4.80556">
        <ele>258</ele>
        <time>2018-09-13T10:17:50Z</time>
      </trkpt>
      <trkpt lat="45.94951" lon="4.80547">
        <ele>258</ele>
        <time>2018-09-13T10:17:51Z</time>
      </trkpt>
      <trkpt lat="45.9495" lon="4.80538">
        <ele>258</ele>
        <time>2018-09-13T10:17:52Z</time>
      </trkpt>
      <trkpt lat="45.94949" lon="4.80528">
        <ele>258</ele>
        <time>2018-09-13T10:17:53Z</time>
      </trkpt>
      <trkpt lat="45.9495" lon="4.80519">
        <ele>258</ele>
        <time>2018-09-13T10:17:54Z</time>
      </trkpt>
      <trkpt lat="45.94949" lon="4.8051">
        <ele>258</ele>
        <time>2018-09-13T10:17:55Z</time>
      </trkpt>
      <trkpt lat="45.94949" lon="4.80501">
        <ele>258</ele>
        <time>2018-09-13T10:17:56Z</time>
      </trkpt>
      <trkpt lat="45.94948" lon="4.80493">
        <ele>258</ele>
        <time>2018-09-13T10:17:57Z</time>
      </trkpt>
      <trkpt lat="45.94948" lon="4.80485">
        <ele>258</ele>
        <time>2018-09-13T10:17:58Z</time>
      </trkpt>
      <trkpt lat="45.94948" lon="4.80477">
        <ele>258</ele>
        <time>2018-09-13T10:17:59Z</time>
      </trkpt>
      <trkpt lat="45.94946" lon="4.80469">
        <ele>258</ele>
        <time>2018-09-13T10:18:00Z</time>
      </trkpt>
      <trkpt lat="45.94946" lon="4.8046">
        <ele>258</ele>
        <time>2018-09-13T10:18:01Z</time>
      </trkpt>
      <trkpt lat="45.94947" lon="4.80453">
        <ele>258</ele>
        <time>2018-09-13T10:18:02Z</time>
      </trkpt>
      <trkpt lat="45.94946" lon="4.80444">
        <ele>259</ele>
        <time>2018-09-13T10:18:03Z</time>
      </trkpt>
      <trkpt lat="45.94946" lon="4.80436">
        <ele>259</ele>
        <time>2018-09-13T10:18:04Z</time>
      </trkpt>
      <trkpt lat="45.94947" lon="4.80428">
        <ele>259</ele>
        <time>2018-09-13T10:18:05Z</time>
      </trkpt>
      <trkpt lat="45.94947" lon="4.80418">
        <ele>259</ele>
        <time>2018-09-13T10:18:06Z</time>
      </trkpt>
      <trkpt lat="45.94947" lon="4.8041">
        <ele>258</ele>
        <time>2018-09-13T10:18:07Z</time>
      </trkpt>
      <trkpt lat="45.94947" lon="4.804">
        <ele>258</ele>
        <time>2018-09-13T10:18:08Z</time>
      </trkpt>
      <trkpt lat="45.94947" lon="4.80391">
        <ele>258</ele>
        <time>2018-09-13T10:18:09Z</time>
      </trkpt>
      <trkpt lat="45.94947" lon="4.80384">
        <ele>258</ele>
        <time>2018-09-13T10:18:10Z</time>
      </trkpt>
      <trkpt lat="45.94946" lon="4.80376">
        <ele>258</ele>
        <time>2018-09-13T10:18:11Z</time>
      </trkpt>
      <trkpt lat="45.94946" lon="4.80365">
        <ele>258</ele>
        <time>2018-09-13T10:18:12Z</time>
      </trkpt>
      <trkpt lat="45.94946" lon="4.80356">
        <ele>258</ele>
        <time>2018-09-13T10:18:13Z</time>
      </trkpt>
      <trkpt lat="45.94946" lon="4.80348">
        <ele>258</ele>
        <time>2018-09-13T10:18:14Z</time>
      </trkpt>
      <trkpt lat="45.94948" lon="4.8034">
        <ele>258</ele>
        <time>2018-09-13T10:18:15Z</time>
      </trkpt>
      <trkpt lat="45.94947" lon="4.80332">
        <ele>257</ele>
        <time>2018-09-13T10:18:16Z</time>
      </trkpt>
      <trkpt lat="45.94947" lon="4.80325">
        <ele>257</ele>
        <time>2018-09-13T10:18:17Z</time>
      </trkpt>
      <trkpt lat="45.94947" lon="4.80316">
        <ele>257</ele>
        <time>2018-09-13T10:18:18Z</time>
      </trkpt>
      <trkpt lat="45.94948" lon="4.80307">
        <ele>257</ele>
        <time>2018-09-13T10:18:19Z</time>
      </trkpt>
      <trkpt lat="45.94948" lon="4.80299">
        <ele>257</ele>
        <time>2018-09-13T10:18:20Z</time>
      </trkpt>
      <trkpt lat="45.94948" lon="4.80291">
        <ele>257</ele>
        <time>2018-09-13T10:18:21Z</time>
      </trkpt>
      <trkpt lat="45.94948" lon="4.80283">
        <ele>257</ele>
        <time>2018-09-13T10:18:22Z</time>
      </trkpt>
      <trkpt lat="45.94945" lon="4.80275">
        <ele>257</ele>
        <time>2018-09-13T10:18:23Z</time>
      </trkpt>
      <trkpt lat="45.94944" lon="4.80267">
        <ele>257</ele>
        <time>2018-09-13T10:18:24Z</time>
      </trkpt>
      <trkpt lat="45.94944" lon="4.80259">
        <ele>257</ele>
        <time>2018-09-13T10:18:25Z</time>
      </trkpt>
      <trkpt lat="45.94943" lon="4.80248">
        <ele>256</ele>
        <time>2018-09-13T10:18:26Z</time>
      </trkpt>
      <trkpt lat="45.94943" lon="4.8024">
        <ele>256</ele>
        <time>2018-09-13T10:18:27Z</time>
      </trkpt>
      <trkpt lat="45.94943" lon="4.8023">
        <ele>256</ele>
        <time>2018-09-13T10:18:28Z</time>
      </trkpt>
      <trkpt lat="45.94941" lon="4.8022">
        <ele>256</ele>
        <time>2018-09-13T10:18:29Z</time>
      </trkpt>
      <trkpt lat="45.9494" lon="4.80211">
        <ele>256</ele>
        <time>2018-09-13T10:18:30Z</time>
      </trkpt>
      <trkpt lat="45.94938" lon="4.80201">
        <ele>256</ele>
        <time>2018-09-13T10:18:31Z</time>
      </trkpt>
      <trkpt lat="45.94937" lon="4.80191">
        <ele>256</ele>
        <time>2018-09-13T10:18:32Z</time>
      </trkpt>
      <trkpt lat="45.94936" lon="4.80182">
        <ele>256</ele>
        <time>2018-09-13T10:18:33Z</time>
      </trkpt>
      <trkpt lat="45.94934" lon="4.80173">
        <ele>256</ele>
        <time>2018-09-13T10:18:34Z</time>
      </trkpt>
      <trkpt lat="45.94932" lon="4.80165">
        <ele>255</ele>
        <time>2018-09-13T10:18:35Z</time>
      </trkpt>
      <trkpt lat="45.9493" lon="4.80157">
        <ele>255</ele>
        <time>2018-09-13T10:18:36Z</time>
      </trkpt>
      <trkpt lat="45.94928" lon="4.80147">
        <ele>256</ele>
        <time>2018-09-13T10:18:37Z</time>
      </trkpt>
      <trkpt lat="45.94926" lon="4.80137">
        <ele>256</ele>
        <time>2018-09-13T10:18:38Z</time>
      </trkpt>
      <trkpt lat="45.94924" lon="4.80127">
        <ele>256</ele>
        <time>2018-09-13T10:18:39Z</time>
      </trkpt>
      <trkpt lat="45.94921" lon="4.80118">
        <ele>256</ele>
        <time>2018-09-13T10:18:40Z</time>
      </trkpt>
      <trkpt lat="45.94919" lon="4.80108">
        <ele>256</ele>
        <time>2018-09-13T10:18:41Z</time>
      </trkpt>
      <trkpt lat="45.94917" lon="4.80099">
        <ele>256</ele>
        <time>2018-09-13T10:18:42Z</time>
      </trkpt>
      <trkpt lat="45.94916" lon="4.80088">
        <ele>257</ele>
        <time>2018-09-13T10:18:43Z</time>
      </trkpt>
      <trkpt lat="45.94914" lon="4.80079">
        <ele>257</ele>
        <time>2018-09-13T10:18:44Z</time>
      </trkpt>
      <trkpt lat="45.94913" lon="4.80071">
        <ele>257</ele>
        <time>2018-09-13T10:18:45Z</time>
      </trkpt>
      <trkpt lat="45.94911" lon="4.80062">
        <ele>256</ele>
        <time>2018-09-13T10:18:46Z</time>
      </trkpt>
      <trkpt lat="45.94908" lon="4.80054">
        <ele>256</ele>
        <time>2018-09-13T10:18:47Z</time>
      </trkpt>
      <trkpt lat="45.94906" lon="4.80045">
        <ele>256</ele>
        <time>2018-09-13T10:18:48Z</time>
      </trkpt>
      <trkpt lat="45.94903" lon="4.80038">
        <ele>256</ele>
        <time>2018-09-13T10:18:49Z</time>
      </trkpt>
      <trkpt lat="45.949" lon="4.80029">
        <ele>256</ele>
        <time>2018-09-13T10:18:50Z</time>
      </trkpt>
      <trkpt lat="45.94898" lon="4.80022">
        <ele>256</ele>
        <time>2018-09-13T10:18:51Z</time>
      </trkpt>
      <trkpt lat="45.94895" lon="4.80012">
        <ele>256</ele>
        <time>2018-09-13T10:18:52Z</time>
      </trkpt>
      <trkpt lat="45.94892" lon="4.80003">
        <ele>256</ele>
        <time>2018-09-13T10:18:53Z</time>
      </trkpt>
      <trkpt lat="45.94889" lon="4.79995">
        <ele>256</ele>
        <time>2018-09-13T10:18:54Z</time>
      </trkpt>
      <trkpt lat="45.94887" lon="4.79986">
        <ele>256</ele>
        <time>2018-09-13T10:18:55Z</time>
      </trkpt>
      <trkpt lat="45.94882" lon="4.79978">
        <ele>256</ele>
        <time>2018-09-13T10:18:56Z</time>
      </trkpt>
      <trkpt lat="45.94879" lon="4.7997">
        <ele>256</ele>
        <time>2018-09-13T10:18:57Z</time>
      </trkpt>
      <trkpt lat="45.94875" lon="4.79962">
        <ele>256</ele>
        <time>2018-09-13T10:18:58Z</time>
      </trkpt>
      <trkpt lat="45.94872" lon="4.79955">
        <ele>256</ele>
        <time>2018-09-13T10:18:59Z</time>
      </trkpt>
      <trkpt lat="45.94869" lon="4.79947">
        <ele>256</ele>
        <time>2018-09-13T10:19:00Z</time>
      </trkpt>
      <trkpt lat="45.94866" lon="4.7994">
        <ele>256</ele>
        <time>2018-09-13T10:19:01Z</time>
      </trkpt>
      <trkpt lat="45.94862" lon="4.79933">
        <ele>256</ele>
        <time>2018-09-13T10:19:02Z</time>
      </trkpt>
      <trkpt lat="45.94859" lon="4.79925">
        <ele>256</ele>
        <time>2018-09-13T10:19:03Z</time>
      </trkpt>
      <trkpt lat="45.94855" lon="4.79918">
        <ele>256</ele>
        <time>2018-09-13T10:19:04Z</time>
      </trkpt>
      <trkpt lat="45.94852" lon="4.7991">
        <ele>255</ele>
        <time>2018-09-13T10:19:05Z</time>
      </trkpt>
      <trkpt lat="45.94848" lon="4.79902">
        <ele>255</ele>
        <time>2018-09-13T10:19:06Z</time>
      </trkpt>
      <trkpt lat="45.94844" lon="4.79895">
        <ele>255</ele>
        <time>2018-09-13T10:19:07Z</time>
      </trkpt>
      <trkpt lat="45.94842" lon="4.79887">
        <ele>255</ele>
        <time>2018-09-13T10:19:08Z</time>
      </trkpt>
      <trkpt lat="45.94839" lon="4.79879">
        <ele>255</ele>
        <time>2018-09-13T10:19:09Z</time>
      </trkpt>
      <trkpt lat="45.94836" lon="4.79871">
        <ele>255</ele>
        <time>2018-09-13T10:19:10Z</time>
      </trkpt>
      <trkpt lat="45.94834" lon="4.79863">
        <ele>255</ele>
        <time>2018-09-13T10:19:11Z</time>
      </trkpt>
      <trkpt lat="45.94832" lon="4.79854">
        <ele>254</ele>
        <time>2018-09-13T10:19:12Z</time>
      </trkpt>
      <trkpt lat="45.94829" lon="4.79845">
        <ele>254</ele>
        <time>2018-09-13T10:19:13Z</time>
      </trkpt>
      <trkpt lat="45.94826" lon="4.79836">
        <ele>254</ele>
        <time>2018-09-13T10:19:14Z</time>
      </trkpt>
      <trkpt lat="45.94823" lon="4.79827">
        <ele>254</ele>
        <time>2018-09-13T10:19:15Z</time>
      </trkpt>
      <trkpt lat="45.94821" lon="4.79819">
        <ele>254</ele>
        <time>2018-09-13T10:19:16Z</time>
      </trkpt>
      <trkpt lat="45.94819" lon="4.79809">
        <ele>254</ele>
        <time>2018-09-13T10:19:17Z</time>
      </trkpt>
      <trkpt lat="45.94817" lon="4.79801">
        <ele>254</ele>
        <time>2018-09-13T10:19:18Z</time>
      </trkpt>
      <trkpt lat="45.94815" lon="4.79792">
        <ele>254</ele>
        <time>2018-09-13T10:19:19Z</time>
      </trkpt>
      <trkpt lat="45.94813" lon="4.79784">
        <ele>254</ele>
        <time>2018-09-13T10:19:20Z</time>
      </trkpt>
      <trkpt lat="45.94812" lon="4.79777">
        <ele>254</ele>
        <time>2018-09-13T10:19:21Z</time>
      </trkpt>
      <trkpt lat="45.94811" lon="4.79769">
        <ele>254</ele>
        <time>2018-09-13T10:19:22Z</time>
      </trkpt>
      <trkpt lat="45.9481" lon="4.79762">
        <ele>254</ele>
        <time>2018-09-13T10:19:23Z</time>
      </trkpt>
      <trkpt lat="45.94807" lon="4.79755">
        <ele>254</ele>
        <time>2018-09-13T10:19:24Z</time>
      </trkpt>
      <trkpt lat="45.94806" lon="4.79748">
        <ele>254</ele>
        <time>2018-09-13T10:19:25Z</time>
      </trkpt>
      <trkpt lat="45.94803" lon="4.79739">
        <ele>254</ele>
        <time>2018-09-13T10:19:26Z</time>
      </trkpt>
      <trkpt lat="45.94799" lon="4.79731">
        <ele>254</ele>
        <time>2018-09-13T10:19:27Z</time>
      </trkpt>
      <trkpt lat="45.94799" lon="4.79723">
        <ele>254</ele>
        <time>2018-09-13T10:19:28Z</time>
      </trkpt>
      <trkpt lat="45.94798" lon="4.79715">
        <ele>254</ele>
        <time>2018-09-13T10:19:29Z</time>
      </trkpt>
      <trkpt lat="45.94796" lon="4.79708">
        <ele>254</ele>
        <time>2018-09-13T10:19:30Z</time>
      </trkpt>
      <trkpt lat="45.94794" lon="4.79701">
        <ele>254</ele>
        <time>2018-09-13T10:19:31Z</time>
      </trkpt>
      <trkpt lat="45.94787" lon="4.79694">
        <ele>254</ele>
        <time>2018-09-13T10:19:32Z</time>
      </trkpt>
      <trkpt lat="45.94785" lon="4.79688">
        <ele>254</ele>
        <time>2018-09-13T10:19:33Z</time>
      </trkpt>
      <trkpt lat="45.94782" lon="4.79681">
        <ele>254</ele>
        <time>2018-09-13T10:19:34Z</time>
      </trkpt>
      <trkpt lat="45.9478" lon="4.79674">
        <ele>254</ele>
        <time>2018-09-13T10:19:35Z</time>
      </trkpt>
      <trkpt lat="45.94777" lon="4.79665">
        <ele>254</ele>
        <time>2018-09-13T10:19:36Z</time>
      </trkpt>
      <trkpt lat="45.94774" lon="4.79659">
        <ele>254</ele>
        <time>2018-09-13T10:19:37Z</time>
      </trkpt>
      <trkpt lat="45.94772" lon="4.79651">
        <ele>254</ele>
        <time>2018-09-13T10:19:38Z</time>
      </trkpt>
      <trkpt lat="45.94771" lon="4.79644">
        <ele>254</ele>
        <time>2018-09-13T10:19:39Z</time>
      </trkpt>
      <trkpt lat="45.94768" lon="4.79637">
        <ele>254</ele>
        <time>2018-09-13T10:19:40Z</time>
      </trkpt>
      <trkpt lat="45.94766" lon="4.79628">
        <ele>253</ele>
        <time>2018-09-13T10:19:41Z</time>
      </trkpt>
      <trkpt lat="45.94765" lon="4.7962">
        <ele>253</ele>
        <time>2018-09-13T10:19:42Z</time>
      </trkpt>
      <trkpt lat="45.94764" lon="4.79614">
        <ele>253</ele>
        <time>2018-09-13T10:19:43Z</time>
      </trkpt>
      <trkpt lat="45.94762" lon="4.79606">
        <ele>253</ele>
        <time>2018-09-13T10:19:44Z</time>
      </trkpt>
      <trkpt lat="45.94762" lon="4.79599">
        <ele>253</ele>
        <time>2018-09-13T10:19:45Z</time>
      </trkpt>
      <trkpt lat="45.94762" lon="4.79593">
        <ele>253</ele>
        <time>2018-09-13T10:19:46Z</time>
      </trkpt>
      <trkpt lat="45.94766" lon="4.79582">
        <ele>252</ele>
        <time>2018-09-13T10:19:56Z</time>
      </trkpt>
      <trkpt lat="45.94767" lon="4.79578">
        <ele>252</ele>
        <time>2018-09-13T10:19:57Z</time>
      </trkpt>
      <trkpt lat="45.94767" lon="4.79571">
        <ele>252</ele>
        <time>2018-09-13T10:19:59Z</time>
      </trkpt>
      <trkpt lat="45.94764" lon="4.79561">
        <ele>252</ele>
        <time>2018-09-13T10:20:00Z</time>
      </trkpt>
      <trkpt lat="45.94761" lon="4.79553">
        <ele>252</ele>
        <time>2018-09-13T10:20:02Z</time>
      </trkpt>
      <trkpt lat="45.9476" lon="4.79547">
        <ele>252</ele>
        <time>2018-09-13T10:20:03Z</time>
      </trkpt>
      <trkpt lat="45.94756" lon="4.7954">
        <ele>252</ele>
        <time>2018-09-13T10:20:04Z</time>
      </trkpt>
      <trkpt lat="45.94753" lon="4.79531">
        <ele>252</ele>
        <time>2018-09-13T10:20:05Z</time>
      </trkpt>
      <trkpt lat="45.9475" lon="4.79524">
        <ele>253</ele>
        <time>2018-09-13T10:20:06Z</time>
      </trkpt>
      <trkpt lat="45.94747" lon="4.79517">
        <ele>252</ele>
        <time>2018-09-13T10:20:07Z</time>
      </trkpt>
      <trkpt lat="45.94744" lon="4.79511">
        <ele>252</ele>
        <time>2018-09-13T10:20:08Z</time>
      </trkpt>
      <trkpt lat="45.94743" lon="4.79502">
        <ele>252</ele>
        <time>2018-09-13T10:20:09Z</time>
      </trkpt>
      <trkpt lat="45.9474" lon="4.79496">
        <ele>252</ele>
        <time>2018-09-13T10:20:10Z</time>
      </trkpt>
      <trkpt lat="45.94738" lon="4.7949">
        <ele>252</ele>
        <time>2018-09-13T10:20:11Z</time>
      </trkpt>
      <trkpt lat="45.94735" lon="4.79484">
        <ele>253</ele>
        <time>2018-09-13T10:20:12Z</time>
      </trkpt>
      <trkpt lat="45.94732" lon="4.79478">
        <ele>253</ele>
        <time>2018-09-13T10:20:13Z</time>
      </trkpt>
      <trkpt lat="45.94729" lon="4.79474">
        <ele>253</ele>
        <time>2018-09-13T10:20:14Z</time>
      </trkpt>
      <trkpt lat="45.94727" lon="4.79468">
        <ele>253</ele>
        <time>2018-09-13T10:20:15Z</time>
      </trkpt>
      <trkpt lat="45.94723" lon="4.79457">
        <ele>253</ele>
        <time>2018-09-13T10:20:17Z</time>
      </trkpt>
      <trkpt lat="45.94721" lon="4.79451">
        <ele>253</ele>
        <time>2018-09-13T10:20:18Z</time>
      </trkpt>
      <trkpt lat="45.94719" lon="4.79445">
        <ele>253</ele>
        <time>2018-09-13T10:20:19Z</time>
      </trkpt>
      <trkpt lat="45.94715" lon="4.79439">
        <ele>253</ele>
        <time>2018-09-13T10:20:20Z</time>
      </trkpt>
      <trkpt lat="45.94712" lon="4.79432">
        <ele>253</ele>
        <time>2018-09-13T10:20:21Z</time>
      </trkpt>
      <trkpt lat="45.94709" lon="4.79424">
        <ele>253</ele>
        <time>2018-09-13T10:20:22Z</time>
      </trkpt>
      <trkpt lat="45.94707" lon="4.79417">
        <ele>253</ele>
        <time>2018-09-13T10:20:23Z</time>
      </trkpt>
      <trkpt lat="45.94703" lon="4.7941">
        <ele>253</ele>
        <time>2018-09-13T10:20:24Z</time>
      </trkpt>
      <trkpt lat="45.947" lon="4.79405">
        <ele>253</ele>
        <time>2018-09-13T10:20:25Z</time>
      </trkpt>
      <trkpt lat="45.94697" lon="4.79399">
        <ele>253</ele>
        <time>2018-09-13T10:20:26Z</time>
      </trkpt>
      <trkpt lat="45.94693" lon="4.79393">
        <ele>253</ele>
        <time>2018-09-13T10:20:27Z</time>
      </trkpt>
      <trkpt lat="45.94691" lon="4.79387">
        <ele>253</ele>
        <time>2018-09-13T10:20:28Z</time>
      </trkpt>
      <trkpt lat="45.94688" lon="4.79381">
        <ele>253</ele>
        <time>2018-09-13T10:20:29Z</time>
      </trkpt>
      <trkpt lat="45.94686" lon="4.79374">
        <ele>253</ele>
        <time>2018-09-13T10:20:30Z</time>
      </trkpt>
      <trkpt lat="45.94684" lon="4.79368">
        <ele>253</ele>
        <time>2018-09-13T10:20:31Z</time>
      </trkpt>
      <trkpt lat="45.94681" lon="4.79361">
        <ele>253</ele>
        <time>2018-09-13T10:20:32Z</time>
      </trkpt>
      <trkpt lat="45.94679" lon="4.79356">
        <ele>253</ele>
        <time>2018-09-13T10:20:33Z</time>
      </trkpt>
      <trkpt lat="45.94675" lon="4.7935">
        <ele>253</ele>
        <time>2018-09-13T10:20:34Z</time>
      </trkpt>
      <trkpt lat="45.94672" lon="4.79344">
        <ele>254</ele>
        <time>2018-09-13T10:20:35Z</time>
      </trkpt>
      <trkpt lat="45.9467" lon="4.79338">
        <ele>254</ele>
        <time>2018-09-13T10:20:36Z</time>
      </trkpt>
      <trkpt lat="45.94667" lon="4.79331">
        <ele>254</ele>
        <time>2018-09-13T10:20:37Z</time>
      </trkpt>
      <trkpt lat="45.94665" lon="4.79326">
        <ele>254</ele>
        <time>2018-09-13T10:20:38Z</time>
      </trkpt>
      <trkpt lat="45.9466" lon="4.79321">
        <ele>254</ele>
        <time>2018-09-13T10:20:39Z</time>
      </trkpt>
      <trkpt lat="45.94657" lon="4.79316">
        <ele>254</ele>
        <time>2018-09-13T10:20:40Z</time>
      </trkpt>
      <trkpt lat="45.94655" lon="4.79309">
        <ele>254</ele>
        <time>2018-09-13T10:20:41Z</time>
      </trkpt>
      <trkpt lat="45.94651" lon="4.79303">
        <ele>254</ele>
        <time>2018-09-13T10:20:42Z</time>
      </trkpt>
      <trkpt lat="45.94647" lon="4.79297">
        <ele>254</ele>
        <time>2018-09-13T10:20:43Z</time>
      </trkpt>
      <trkpt lat="45.94644" lon="4.7929">
        <ele>254</ele>
        <time>2018-09-13T10:20:44Z</time>
      </trkpt>
      <trkpt lat="45.94641" lon="4.79283">
        <ele>254</ele>
        <time>2018-09-13T10:20:45Z</time>
      </trkpt>
      <trkpt lat="45.94639" lon="4.79274">
        <ele>254</ele>
        <time>2018-09-13T10:20:46Z</time>
      </trkpt>
      <trkpt lat="45.94636" lon="4.79265">
        <ele>254</ele>
        <time>2018-09-13T10:20:47Z</time>
      </trkpt>
      <trkpt lat="45.94633" lon="4.79258">
        <ele>254</ele>
        <time>2018-09-13T10:20:48Z</time>
      </trkpt>
      <trkpt lat="45.9463" lon="4.7925">
        <ele>254</ele>
        <time>2018-09-13T10:20:49Z</time>
      </trkpt>
      <trkpt lat="45.94625" lon="4.79243">
        <ele>256</ele>
        <time>2018-09-13T10:20:50Z</time>
      </trkpt>
      <trkpt lat="45.94621" lon="4.79235">
        <ele>256</ele>
        <time>2018-09-13T10:20:51Z</time>
      </trkpt>
      <trkpt lat="45.94618" lon="4.79226">
        <ele>256</ele>
        <time>2018-09-13T10:20:52Z</time>
      </trkpt>
      <trkpt lat="45.94614" lon="4.79219">
        <ele>257</ele>
        <time>2018-09-13T10:20:53Z</time>
      </trkpt>
      <trkpt lat="45.94611" lon="4.79211">
        <ele>257</ele>
        <time>2018-09-13T10:20:54Z</time>
      </trkpt>
      <trkpt lat="45.94607" lon="4.79204">
        <ele>257</ele>
        <time>2018-09-13T10:20:55Z</time>
      </trkpt>
      <trkpt lat="45.94602" lon="4.79196">
        <ele>257</ele>
        <time>2018-09-13T10:20:56Z</time>
      </trkpt>
      <trkpt lat="45.94596" lon="4.79189">
        <ele>258</ele>
        <time>2018-09-13T10:20:57Z</time>
      </trkpt>
      <trkpt lat="45.94593" lon="4.79183">
        <ele>258</ele>
        <time>2018-09-13T10:20:58Z</time>
      </trkpt>
      <trkpt lat="45.94589" lon="4.79176">
        <ele>258</ele>
        <time>2018-09-13T10:20:59Z</time>
      </trkpt>
      <trkpt lat="45.94587" lon="4.79169">
        <ele>259</ele>
        <time>2018-09-13T10:21:00Z</time>
      </trkpt>
      <trkpt lat="45.94583" lon="4.79158">
        <ele>258</ele>
        <time>2018-09-13T10:21:02Z</time>
      </trkpt>
      <trkpt lat="45.94579" lon="4.79151">
        <ele>258</ele>
        <time>2018-09-13T10:21:03Z</time>
      </trkpt>
      <trkpt lat="45.94575" lon="4.79145">
        <ele>257</ele>
        <time>2018-09-13T10:21:04Z</time>
      </trkpt>
      <trkpt lat="45.94573" lon="4.79139">
        <ele>257</ele>
        <time>2018-09-13T10:21:05Z</time>
      </trkpt>
      <trkpt lat="45.9457" lon="4.79129">
        <ele>257</ele>
        <time>2018-09-13T10:21:06Z</time>
      </trkpt>
      <trkpt lat="45.94564" lon="4.79123">
        <ele>257</ele>
        <time>2018-09-13T10:21:07Z</time>
      </trkpt>
      <trkpt lat="45.94562" lon="4.79115">
        <ele>257</ele>
        <time>2018-09-13T10:21:08Z</time>
      </trkpt>
      <trkpt lat="45.94559" lon="4.79109">
        <ele>257</ele>
        <time>2018-09-13T10:21:09Z</time>
      </trkpt>
      <trkpt lat="45.94555" lon="4.79098">
        <ele>257</ele>
        <time>2018-09-13T10:21:10Z</time>
      </trkpt>
      <trkpt lat="45.94551" lon="4.79091">
        <ele>256</ele>
        <time>2018-09-13T10:21:11Z</time>
      </trkpt>
      <trkpt lat="45.94544" lon="4.79086">
        <ele>256</ele>
        <time>2018-09-13T10:21:12Z</time>
      </trkpt>
      <trkpt lat="45.94541" lon="4.79079">
        <ele>256</ele>
        <time>2018-09-13T10:21:13Z</time>
      </trkpt>
      <trkpt lat="45.94536" lon="4.79075">
        <ele>255</ele>
        <time>2018-09-13T10:21:14Z</time>
      </trkpt>
      <trkpt lat="45.94534" lon="4.79067">
        <ele>255</ele>
        <time>2018-09-13T10:21:15Z</time>
      </trkpt>
      <trkpt lat="45.94532" lon="4.7906">
        <ele>255</ele>
        <time>2018-09-13T10:21:16Z</time>
      </trkpt>
      <trkpt lat="45.94528" lon="4.79052">
        <ele>255</ele>
        <time>2018-09-13T10:21:17Z</time>
      </trkpt>
      <trkpt lat="45.94525" lon="4.79046">
        <ele>255</ele>
        <time>2018-09-13T10:21:18Z</time>
      </trkpt>
      <trkpt lat="45.9452" lon="4.79039">
        <ele>255</ele>
        <time>2018-09-13T10:21:19Z</time>
      </trkpt>
      <trkpt lat="45.94518" lon="4.79032">
        <ele>255</ele>
        <time>2018-09-13T10:21:20Z</time>
      </trkpt>
      <trkpt lat="45.94514" lon="4.79026">
        <ele>255</ele>
        <time>2018-09-13T10:21:21Z</time>
      </trkpt>
      <trkpt lat="45.9451" lon="4.79019">
        <ele>255</ele>
        <time>2018-09-13T10:21:22Z</time>
      </trkpt>
      <trkpt lat="45.94507" lon="4.79012">
        <ele>255</ele>
        <time>2018-09-13T10:21:23Z</time>
      </trkpt>
      <trkpt lat="45.94504" lon="4.79005">
        <ele>254</ele>
        <time>2018-09-13T10:21:24Z</time>
      </trkpt>
      <trkpt lat="45.94501" lon="4.78997">
        <ele>254</ele>
        <time>2018-09-13T10:21:25Z</time>
      </trkpt>
      <trkpt lat="45.94496" lon="4.7899">
        <ele>254</ele>
        <time>2018-09-13T10:21:26Z</time>
      </trkpt>
      <trkpt lat="45.94494" lon="4.7898">
        <ele>254</ele>
        <time>2018-09-13T10:21:27Z</time>
      </trkpt>
      <trkpt lat="45.94489" lon="4.78971">
        <ele>254</ele>
        <time>2018-09-13T10:21:28Z</time>
      </trkpt>
      <trkpt lat="45.94486" lon="4.78962">
        <ele>254</ele>
        <time>2018-09-13T10:21:29Z</time>
      </trkpt>
      <trkpt lat="45.94482" lon="4.78952">
        <ele>254</ele>
        <time>2018-09-13T10:21:30Z</time>
      </trkpt>
      <trkpt lat="45.94477" lon="4.78942">
        <ele>254</ele>
        <time>2018-09-13T10:21:31Z</time>
      </trkpt>
      <trkpt lat="45.94475" lon="4.78931">
        <ele>254</ele>
        <time>2018-09-13T10:21:32Z</time>
      </trkpt>
      <trkpt lat="45.94472" lon="4.7892">
        <ele>254</ele>
        <time>2018-09-13T10:21:33Z</time>
      </trkpt>
      <trkpt lat="45.94469" lon="4.78909">
        <ele>253</ele>
        <time>2018-09-13T10:21:34Z</time>
      </trkpt>
      <trkpt lat="45.94469" lon="4.78894">
        <ele>253</ele>
        <time>2018-09-13T10:21:35Z</time>
      </trkpt>
      <trkpt lat="45.94467" lon="4.78882">
        <ele>253</ele>
        <time>2018-09-13T10:21:36Z</time>
      </trkpt>
      <trkpt lat="45.94465" lon="4.78868">
        <ele>253</ele>
        <time>2018-09-13T10:21:37Z</time>
      </trkpt>
      <trkpt lat="45.94464" lon="4.78853">
        <ele>253</ele>
        <time>2018-09-13T10:21:38Z</time>
      </trkpt>
      <trkpt lat="45.94468" lon="4.78839">
        <ele>253</ele>
        <time>2018-09-13T10:21:39Z</time>
      </trkpt>
      <trkpt lat="45.94471" lon="4.78824">
        <ele>251</ele>
        <time>2018-09-13T10:21:40Z</time>
      </trkpt>
      <trkpt lat="45.94475" lon="4.7881">
        <ele>251</ele>
        <time>2018-09-13T10:21:41Z</time>
      </trkpt>
      <trkpt lat="45.94478" lon="4.78794">
        <ele>250</ele>
        <time>2018-09-13T10:21:42Z</time>
      </trkpt>
      <trkpt lat="45.94483" lon="4.78781">
        <ele>250</ele>
        <time>2018-09-13T10:21:43Z</time>
      </trkpt>
      <trkpt lat="45.94486" lon="4.78769">
        <ele>249</ele>
        <time>2018-09-13T10:21:44Z</time>
      </trkpt>
      <trkpt lat="45.9449" lon="4.78751">
        <ele>248</ele>
        <time>2018-09-13T10:21:45Z</time>
      </trkpt>
      <trkpt lat="45.94488" lon="4.78735">
        <ele>246</ele>
        <time>2018-09-13T10:21:46Z</time>
      </trkpt>
      <trkpt lat="45.94486" lon="4.78717">
        <ele>245</ele>
        <time>2018-09-13T10:21:47Z</time>
      </trkpt>
      <trkpt lat="45.94481" lon="4.78699">
        <ele>244</ele>
        <time>2018-09-13T10:21:48Z</time>
      </trkpt>
      <trkpt lat="45.94479" lon="4.78683">
        <ele>244</ele>
        <time>2018-09-13T10:21:49Z</time>
      </trkpt>
      <trkpt lat="45.94477" lon="4.78666">
        <ele>241</ele>
        <time>2018-09-13T10:21:50Z</time>
      </trkpt>
      <trkpt lat="45.94475" lon="4.7865">
        <ele>241</ele>
        <time>2018-09-13T10:21:51Z</time>
      </trkpt>
      <trkpt lat="45.94472" lon="4.78633">
        <ele>241</ele>
        <time>2018-09-13T10:21:52Z</time>
      </trkpt>
      <trkpt lat="45.94469" lon="4.78618">
        <ele>241</ele>
        <time>2018-09-13T10:21:53Z</time>
      </trkpt>
      <trkpt lat="45.94464" lon="4.78602">
        <ele>241</ele>
        <time>2018-09-13T10:21:54Z</time>
      </trkpt>
      <trkpt lat="45.94458" lon="4.78588">
        <ele>240</ele>
        <time>2018-09-13T10:21:55Z</time>
      </trkpt>
      <trkpt lat="45.94451" lon="4.78574">
        <ele>239</ele>
        <time>2018-09-13T10:21:56Z</time>
      </trkpt>
      <trkpt lat="45.94443" lon="4.7856">
        <ele>239</ele>
        <time>2018-09-13T10:21:57Z</time>
      </trkpt>
      <trkpt lat="45.94436" lon="4.78547">
        <ele>239</ele>
        <time>2018-09-13T10:21:58Z</time>
      </trkpt>
      <trkpt lat="45.94428" lon="4.78534">
        <ele>238</ele>
        <time>2018-09-13T10:21:59Z</time>
      </trkpt>
      <trkpt lat="45.94421" lon="4.78523">
        <ele>237</ele>
        <time>2018-09-13T10:22:00Z</time>
      </trkpt>
      <trkpt lat="45.94412" lon="4.78512">
        <ele>236</ele>
        <time>2018-09-13T10:22:01Z</time>
      </trkpt>
      <trkpt lat="45.94405" lon="4.78503">
        <ele>235</ele>
        <time>2018-09-13T10:22:02Z</time>
      </trkpt>
      <trkpt lat="45.94394" lon="4.78492">
        <ele>235</ele>
        <time>2018-09-13T10:22:03Z</time>
      </trkpt>
      <trkpt lat="45.94385" lon="4.78482">
        <ele>236</ele>
        <time>2018-09-13T10:22:04Z</time>
      </trkpt>
      <trkpt lat="45.94375" lon="4.78473">
        <ele>236</ele>
        <time>2018-09-13T10:22:05Z</time>
      </trkpt>
      <trkpt lat="45.94367" lon="4.78462">
        <ele>236</ele>
        <time>2018-09-13T10:22:06Z</time>
      </trkpt>
      <trkpt lat="45.94357" lon="4.78452">
        <ele>235</ele>
        <time>2018-09-13T10:22:07Z</time>
      </trkpt>
      <trkpt lat="45.9435" lon="4.78441">
        <ele>234</ele>
        <time>2018-09-13T10:22:08Z</time>
      </trkpt>
      <trkpt lat="45.94342" lon="4.78431">
        <ele>233</ele>
        <time>2018-09-13T10:22:09Z</time>
      </trkpt>
      <trkpt lat="45.94335" lon="4.78419">
        <ele>230</ele>
        <time>2018-09-13T10:22:10Z</time>
      </trkpt>
      <trkpt lat="45.94329" lon="4.78406">
        <ele>229</ele>
        <time>2018-09-13T10:22:11Z</time>
      </trkpt>
      <trkpt lat="45.94324" lon="4.78392">
        <ele>230</ele>
        <time>2018-09-13T10:22:12Z</time>
      </trkpt>
      <trkpt lat="45.94319" lon="4.78378">
        <ele>230</ele>
        <time>2018-09-13T10:22:13Z</time>
      </trkpt>
      <trkpt lat="45.94313" lon="4.78364">
        <ele>229</ele>
        <time>2018-09-13T10:22:14Z</time>
      </trkpt>
      <trkpt lat="45.94307" lon="4.78351">
        <ele>229</ele>
        <time>2018-09-13T10:22:15Z</time>
      </trkpt>
      <trkpt lat="45.943" lon="4.7834">
        <ele>228</ele>
        <time>2018-09-13T10:22:16Z</time>
      </trkpt>
      <trkpt lat="45.94294" lon="4.78331">
        <ele>229</ele>
        <time>2018-09-13T10:22:17Z</time>
      </trkpt>
      <trkpt lat="45.94286" lon="4.78321">
        <ele>228</ele>
        <time>2018-09-13T10:22:18Z</time>
      </trkpt>
      <trkpt lat="45.94278" lon="4.78313">
        <ele>228</ele>
        <time>2018-09-13T10:22:19Z</time>
      </trkpt>
      <trkpt lat="45.94268" lon="4.78306">
        <ele>228</ele>
        <time>2018-09-13T10:22:20Z</time>
      </trkpt>
      <trkpt lat="45.94259" lon="4.783">
        <ele>228</ele>
        <time>2018-09-13T10:22:21Z</time>
      </trkpt>
      <trkpt lat="45.9425" lon="4.78297">
        <ele>222</ele>
        <time>2018-09-13T10:22:22Z</time>
      </trkpt>
      <trkpt lat="45.94238" lon="4.78294">
        <ele>222</ele>
        <time>2018-09-13T10:22:23Z</time>
      </trkpt>
      <trkpt lat="45.9423" lon="4.78291">
        <ele>222</ele>
        <time>2018-09-13T10:22:24Z</time>
      </trkpt>
      <trkpt lat="45.9422" lon="4.78289">
        <ele>222</ele>
        <time>2018-09-13T10:22:25Z</time>
      </trkpt>
      <trkpt lat="45.94211" lon="4.7829">
        <ele>222</ele>
        <time>2018-09-13T10:22:26Z</time>
      </trkpt>
      <trkpt lat="45.94201" lon="4.78289">
        <ele>221</ele>
        <time>2018-09-13T10:22:27Z</time>
      </trkpt>
      <trkpt lat="45.94191" lon="4.78286">
        <ele>221</ele>
        <time>2018-09-13T10:22:28Z</time>
      </trkpt>
      <trkpt lat="45.94182" lon="4.78283">
        <ele>221</ele>
        <time>2018-09-13T10:22:29Z</time>
      </trkpt>
      <trkpt lat="45.94173" lon="4.78276">
        <ele>220</ele>
        <time>2018-09-13T10:22:30Z</time>
      </trkpt>
      <trkpt lat="45.94164" lon="4.7827">
        <ele>216</ele>
        <time>2018-09-13T10:22:31Z</time>
      </trkpt>
      <trkpt lat="45.94156" lon="4.78265">
        <ele>216</ele>
        <time>2018-09-13T10:22:32Z</time>
      </trkpt>
      <trkpt lat="45.94149" lon="4.78259">
        <ele>216</ele>
        <time>2018-09-13T10:22:33Z</time>
      </trkpt>
      <trkpt lat="45.9414" lon="4.78254">
        <ele>215</ele>
        <time>2018-09-13T10:22:34Z</time>
      </trkpt>
      <trkpt lat="45.94132" lon="4.78248">
        <ele>215</ele>
        <time>2018-09-13T10:22:35Z</time>
      </trkpt>
      <trkpt lat="45.94124" lon="4.78244">
        <ele>215</ele>
        <time>2018-09-13T10:22:36Z</time>
      </trkpt>
      <trkpt lat="45.94115" lon="4.78239">
        <ele>214</ele>
        <time>2018-09-13T10:22:37Z</time>
      </trkpt>
      <trkpt lat="45.94105" lon="4.78235">
        <ele>213</ele>
        <time>2018-09-13T10:22:38Z</time>
      </trkpt>
      <trkpt lat="45.94096" lon="4.78228">
        <ele>213</ele>
        <time>2018-09-13T10:22:39Z</time>
      </trkpt>
      <trkpt lat="45.94088" lon="4.7822">
        <ele>213</ele>
        <time>2018-09-13T10:22:40Z</time>
      </trkpt>
      <trkpt lat="45.94079" lon="4.78215">
        <ele>206</ele>
        <time>2018-09-13T10:22:41Z</time>
      </trkpt>
      <trkpt lat="45.94071" lon="4.7821">
        <ele>206</ele>
        <time>2018-09-13T10:22:42Z</time>
      </trkpt>
      <trkpt lat="45.94063" lon="4.78206">
        <ele>206</ele>
        <time>2018-09-13T10:22:43Z</time>
      </trkpt>
      <trkpt lat="45.94058" lon="4.78199">
        <ele>206</ele>
        <time>2018-09-13T10:22:44Z</time>
      </trkpt>
      <trkpt lat="45.94051" lon="4.78195">
        <ele>206</ele>
        <time>2018-09-13T10:22:45Z</time>
      </trkpt>
      <trkpt lat="45.94044" lon="4.78191">
        <ele>205</ele>
        <time>2018-09-13T10:22:46Z</time>
      </trkpt>
      <trkpt lat="45.94037" lon="4.78189">
        <ele>205</ele>
        <time>2018-09-13T10:22:47Z</time>
      </trkpt>
      <trkpt lat="45.94033" lon="4.78184">
        <ele>204</ele>
        <time>2018-09-13T10:22:48Z</time>
      </trkpt>
      <trkpt lat="45.94028" lon="4.78181">
        <ele>204</ele>
        <time>2018-09-13T10:22:49Z</time>
      </trkpt>
      <trkpt lat="45.94024" lon="4.78176">
        <ele>204</ele>
        <time>2018-09-13T10:22:50Z</time>
      </trkpt>
      <trkpt lat="45.94016" lon="4.78176">
        <ele>203</ele>
        <time>2018-09-13T10:22:51Z</time>
      </trkpt>
      <trkpt lat="45.94009" lon="4.78176">
        <ele>203</ele>
        <time>2018-09-13T10:22:52Z</time>
      </trkpt>
      <trkpt lat="45.94006" lon="4.78172">
        <ele>202</ele>
        <time>2018-09-13T10:22:54Z</time>
      </trkpt>
      <trkpt lat="45.94001" lon="4.78162">
        <ele>202</ele>
        <time>2018-09-13T10:22:55Z</time>
      </trkpt>
      <trkpt lat="45.93998" lon="4.78156">
        <ele>199</ele>
        <time>2018-09-13T10:22:56Z</time>
      </trkpt>
      <trkpt lat="45.93996" lon="4.78149">
        <ele>198</ele>
        <time>2018-09-13T10:22:57Z</time>
      </trkpt>
      <trkpt lat="45.93994" lon="4.78142">
        <ele>198</ele>
        <time>2018-09-13T10:22:58Z</time>
      </trkpt>
      <trkpt lat="45.93993" lon="4.78134">
        <ele>197</ele>
        <time>2018-09-13T10:22:59Z</time>
      </trkpt>
      <trkpt lat="45.93993" lon="4.78128">
        <ele>197</ele>
        <time>2018-09-13T10:23:00Z</time>
      </trkpt>
      <trkpt lat="45.93995" lon="4.78121">
        <ele>197</ele>
        <time>2018-09-13T10:23:01Z</time>
      </trkpt>
      <trkpt lat="45.93996" lon="4.78113">
        <ele>197</ele>
        <time>2018-09-13T10:23:02Z</time>
      </trkpt>
      <trkpt lat="45.93997" lon="4.78106">
        <ele>197</ele>
        <time>2018-09-13T10:23:03Z</time>
      </trkpt>
      <trkpt lat="45.93998" lon="4.78097">
        <ele>198</ele>
        <time>2018-09-13T10:23:04Z</time>
      </trkpt>
      <trkpt lat="45.94" lon="4.78089">
        <ele>198</ele>
        <time>2018-09-13T10:23:05Z</time>
      </trkpt>
      <trkpt lat="45.94" lon="4.7808">
        <ele>199</ele>
        <time>2018-09-13T10:23:06Z</time>
      </trkpt>
      <trkpt lat="45.94001" lon="4.78073">
        <ele>200</ele>
        <time>2018-09-13T10:23:07Z</time>
      </trkpt>
      <trkpt lat="45.94004" lon="4.78061">
        <ele>201</ele>
        <time>2018-09-13T10:23:09Z</time>
      </trkpt>
      <trkpt lat="45.94005" lon="4.78055">
        <ele>201</ele>
        <time>2018-09-13T10:23:10Z</time>
      </trkpt>
      <trkpt lat="45.94007" lon="4.78048">
        <ele>201</ele>
        <time>2018-09-13T10:23:11Z</time>
      </trkpt>
      <trkpt lat="45.94009" lon="4.7804">
        <ele>201</ele>
        <time>2018-09-13T10:23:12Z</time>
      </trkpt>
      <trkpt lat="45.94011" lon="4.78034">
        <ele>201</ele>
        <time>2018-09-13T10:23:13Z</time>
      </trkpt>
      <trkpt lat="45.94012" lon="4.78025">
        <ele>201</ele>
        <time>2018-09-13T10:23:14Z</time>
      </trkpt>
      <trkpt lat="45.94013" lon="4.78017">
        <ele>200</ele>
        <time>2018-09-13T10:23:15Z</time>
      </trkpt>
      <trkpt lat="45.94013" lon="4.7801">
        <ele>199</ele>
        <time>2018-09-13T10:23:16Z</time>
      </trkpt>
      <trkpt lat="45.94012" lon="4.78002">
        <ele>199</ele>
        <time>2018-09-13T10:23:17Z</time>
      </trkpt>
      <trkpt lat="45.94015" lon="4.77995">
        <ele>199</ele>
        <time>2018-09-13T10:23:18Z</time>
      </trkpt>
      <trkpt lat="45.94017" lon="4.77987">
        <ele>199</ele>
        <time>2018-09-13T10:23:19Z</time>
      </trkpt>
      <trkpt lat="45.94018" lon="4.77979">
        <ele>200</ele>
        <time>2018-09-13T10:23:20Z</time>
      </trkpt>
      <trkpt lat="45.94019" lon="4.7797">
        <ele>200</ele>
        <time>2018-09-13T10:23:21Z</time>
      </trkpt>
      <trkpt lat="45.9402" lon="4.77963">
        <ele>200</ele>
        <time>2018-09-13T10:23:22Z</time>
      </trkpt>
      <trkpt lat="45.94021" lon="4.77955">
        <ele>200</ele>
        <time>2018-09-13T10:23:23Z</time>
      </trkpt>
      <trkpt lat="45.94023" lon="4.77949">
        <ele>200</ele>
        <time>2018-09-13T10:23:24Z</time>
      </trkpt>
      <trkpt lat="45.94025" lon="4.77943">
        <ele>200</ele>
        <time>2018-09-13T10:23:25Z</time>
      </trkpt>
      <trkpt lat="45.94028" lon="4.77936">
        <ele>200</ele>
        <time>2018-09-13T10:23:26Z</time>
      </trkpt>
      <trkpt lat="45.94029" lon="4.77925">
        <ele>200</ele>
        <time>2018-09-13T10:23:29Z</time>
      </trkpt>
      <trkpt lat="45.94024" lon="4.77922">
        <ele>199</ele>
        <time>2018-09-13T10:23:30Z</time>
      </trkpt>
      <trkpt lat="45.9402" lon="4.77922">
        <ele>198</ele>
        <time>2018-09-13T10:23:31Z</time>
      </trkpt>
      <trkpt lat="45.94013" lon="4.77921">
        <ele>197</ele>
        <time>2018-09-13T10:23:32Z</time>
      </trkpt>
      <trkpt lat="45.94001" lon="4.77923">
        <ele>196</ele>
        <time>2018-09-13T10:23:33Z</time>
      </trkpt>
      <trkpt lat="45.93995" lon="4.77928">
        <ele>193</ele>
        <time>2018-09-13T10:23:34Z</time>
      </trkpt>
      <trkpt lat="45.93989" lon="4.77932">
        <ele>192</ele>
        <time>2018-09-13T10:23:35Z</time>
      </trkpt>
      <trkpt lat="45.93982" lon="4.77937">
        <ele>191</ele>
        <time>2018-09-13T10:23:36Z</time>
      </trkpt>
      <trkpt lat="45.93975" lon="4.77943">
        <ele>191</ele>
        <time>2018-09-13T10:23:37Z</time>
      </trkpt>
      <trkpt lat="45.93968" lon="4.77948">
        <ele>190</ele>
        <time>2018-09-13T10:23:38Z</time>
      </trkpt>
      <trkpt lat="45.9396" lon="4.77953">
        <ele>190</ele>
        <time>2018-09-13T10:23:39Z</time>
      </trkpt>
      <trkpt lat="45.93952" lon="4.77958">
        <ele>190</ele>
        <time>2018-09-13T10:23:40Z</time>
      </trkpt>
      <trkpt lat="45.93944" lon="4.77963">
        <ele>189</ele>
        <time>2018-09-13T10:23:41Z</time>
      </trkpt>
      <trkpt lat="45.93936" lon="4.77968">
        <ele>189</ele>
        <time>2018-09-13T10:23:42Z</time>
      </trkpt>
      <trkpt lat="45.93927" lon="4.77974">
        <ele>188</ele>
        <time>2018-09-13T10:23:43Z</time>
      </trkpt>
      <trkpt lat="45.93918" lon="4.7798">
        <ele>188</ele>
        <time>2018-09-13T10:23:44Z</time>
      </trkpt>
      <trkpt lat="45.9391" lon="4.77986">
        <ele>183</ele>
        <time>2018-09-13T10:23:45Z</time>
      </trkpt>
      <trkpt lat="45.93903" lon="4.77993">
        <ele>183</ele>
        <time>2018-09-13T10:23:46Z</time>
      </trkpt>
      <trkpt lat="45.93898" lon="4.78">
        <ele>182</ele>
        <time>2018-09-13T10:23:47Z</time>
      </trkpt>
      <trkpt lat="45.93893" lon="4.78006">
        <ele>184</ele>
        <time>2018-09-13T10:23:48Z</time>
      </trkpt>
      <trkpt lat="45.93889" lon="4.78011">
        <ele>184</ele>
        <time>2018-09-13T10:23:49Z</time>
      </trkpt>
      <trkpt lat="45.93885" lon="4.78016">
        <ele>184</ele>
        <time>2018-09-13T10:23:50Z</time>
      </trkpt>
      <trkpt lat="45.93877" lon="4.78015">
        <ele>184</ele>
        <time>2018-09-13T10:23:53Z</time>
      </trkpt>
      <trkpt lat="45.93875" lon="4.78014">
        <ele>183</ele>
        <time>2018-09-13T10:23:54Z</time>
      </trkpt>
      <trkpt lat="45.93871" lon="4.7801">
        <ele>183</ele>
        <time>2018-09-13T10:23:56Z</time>
      </trkpt>
      <trkpt lat="45.93866" lon="4.78002">
        <ele>183</ele>
        <time>2018-09-13T10:23:57Z</time>
      </trkpt>
      <trkpt lat="45.93859" lon="4.77996">
        <ele>179</ele>
        <time>2018-09-13T10:23:59Z</time>
      </trkpt>
      <trkpt lat="45.93856" lon="4.77993">
        <ele>179</ele>
        <time>2018-09-13T10:24:00Z</time>
      </trkpt>
      <trkpt lat="45.9385" lon="4.7799">
        <ele>179</ele>
        <time>2018-09-13T10:24:01Z</time>
      </trkpt>
      <trkpt lat="45.93846" lon="4.77985">
        <ele>179</ele>
        <time>2018-09-13T10:24:02Z</time>
      </trkpt>
      <trkpt lat="45.9384" lon="4.77975">
        <ele>178</ele>
        <time>2018-09-13T10:24:04Z</time>
      </trkpt>
      <trkpt lat="45.93837" lon="4.7797">
        <ele>178</ele>
        <time>2018-09-13T10:24:05Z</time>
      </trkpt>
      <trkpt lat="45.93833" lon="4.77965">
        <ele>171</ele>
        <time>2018-09-13T10:24:06Z</time>
      </trkpt>
      <trkpt lat="45.93829" lon="4.77961">
        <ele>171</ele>
        <time>2018-09-13T10:24:07Z</time>
      </trkpt>
      <trkpt lat="45.93823" lon="4.77953">
        <ele>170</ele>
        <time>2018-09-13T10:24:09Z</time>
      </trkpt>
      <trkpt lat="45.93817" lon="4.77949">
        <ele>169</ele>
        <time>2018-09-13T10:24:10Z</time>
      </trkpt>
      <trkpt lat="45.93813" lon="4.77944">
        <ele>169</ele>
        <time>2018-09-13T10:24:11Z</time>
      </trkpt>
      <trkpt lat="45.9381" lon="4.77939">
        <ele>169</ele>
        <time>2018-09-13T10:24:12Z</time>
      </trkpt>
      <trkpt lat="45.93805" lon="4.77933">
        <ele>168</ele>
        <time>2018-09-13T10:24:13Z</time>
      </trkpt>
      <trkpt lat="45.93802" lon="4.77928">
        <ele>168</ele>
        <time>2018-09-13T10:24:14Z</time>
      </trkpt>
      <trkpt lat="45.93797" lon="4.77924">
        <ele>168</ele>
        <time>2018-09-13T10:24:15Z</time>
      </trkpt>
      <trkpt lat="45.93792" lon="4.77919">
        <ele>168</ele>
        <time>2018-09-13T10:24:16Z</time>
      </trkpt>
      <trkpt lat="45.93788" lon="4.77914">
        <ele>166</ele>
        <time>2018-09-13T10:24:17Z</time>
      </trkpt>
      <trkpt lat="45.93784" lon="4.77907">
        <ele>166</ele>
        <time>2018-09-13T10:24:18Z</time>
      </trkpt>
      <trkpt lat="45.9378" lon="4.77902">
        <ele>166</ele>
        <time>2018-09-13T10:24:19Z</time>
      </trkpt>
      <trkpt lat="45.93777" lon="4.77897">
        <ele>166</ele>
        <time>2018-09-13T10:24:20Z</time>
      </trkpt>
      <trkpt lat="45.93773" lon="4.77893">
        <ele>166</ele>
        <time>2018-09-13T10:24:21Z</time>
      </trkpt>
      <trkpt lat="45.93769" lon="4.77888">
        <ele>166</ele>
        <time>2018-09-13T10:24:22Z</time>
      </trkpt>
      <trkpt lat="45.93763" lon="4.77879">
        <ele>166</ele>
        <time>2018-09-13T10:24:24Z</time>
      </trkpt>
      <trkpt lat="45.93759" lon="4.77874">
        <ele>166</ele>
        <time>2018-09-13T10:24:25Z</time>
      </trkpt>
      <trkpt lat="45.93755" lon="4.77869">
        <ele>166</ele>
        <time>2018-09-13T10:24:26Z</time>
      </trkpt>
      <trkpt lat="45.9375" lon="4.77866">
        <ele>166</ele>
        <time>2018-09-13T10:24:27Z</time>
      </trkpt>
      <trkpt lat="45.93746" lon="4.77862">
        <ele>167</ele>
        <time>2018-09-13T10:24:28Z</time>
      </trkpt>
      <trkpt lat="45.93743" lon="4.77857">
        <ele>167</ele>
        <time>2018-09-13T10:24:29Z</time>
      </trkpt>
      <trkpt lat="45.93739" lon="4.77852">
        <ele>167</ele>
        <time>2018-09-13T10:24:30Z</time>
      </trkpt>
      <trkpt lat="45.93735" lon="4.77847">
        <ele>167</ele>
        <time>2018-09-13T10:24:31Z</time>
      </trkpt>
      <trkpt lat="45.93731" lon="4.77842">
        <ele>167</ele>
        <time>2018-09-13T10:24:32Z</time>
      </trkpt>
      <trkpt lat="45.93727" lon="4.77836">
        <ele>167</ele>
        <time>2018-09-13T10:24:33Z</time>
      </trkpt>
      <trkpt lat="45.93722" lon="4.7783">
        <ele>168</ele>
        <time>2018-09-13T10:24:34Z</time>
      </trkpt>
      <trkpt lat="45.93718" lon="4.77824">
        <ele>169</ele>
        <time>2018-09-13T10:24:35Z</time>
      </trkpt>
      <trkpt lat="45.93714" lon="4.77819">
        <ele>169</ele>
        <time>2018-09-13T10:24:36Z</time>
      </trkpt>
      <trkpt lat="45.93709" lon="4.77813">
        <ele>169</ele>
        <time>2018-09-13T10:24:37Z</time>
      </trkpt>
      <trkpt lat="45.93704" lon="4.77806">
        <ele>169</ele>
        <time>2018-09-13T10:24:38Z</time>
      </trkpt>
      <trkpt lat="45.93699" lon="4.778">
        <ele>169</ele>
        <time>2018-09-13T10:24:39Z</time>
      </trkpt>
      <trkpt lat="45.93695" lon="4.77793">
        <ele>169</ele>
        <time>2018-09-13T10:24:40Z</time>
      </trkpt>
      <trkpt lat="45.93691" lon="4.77786">
        <ele>170</ele>
        <time>2018-09-13T10:24:41Z</time>
      </trkpt>
      <trkpt lat="45.93686" lon="4.77779">
        <ele>170</ele>
        <time>2018-09-13T10:24:42Z</time>
      </trkpt>
      <trkpt lat="45.93682" lon="4.77773">
        <ele>170</ele>
        <time>2018-09-13T10:24:43Z</time>
      </trkpt>
      <trkpt lat="45.93676" lon="4.77766">
        <ele>170</ele>
        <time>2018-09-13T10:24:44Z</time>
      </trkpt>
      <trkpt lat="45.93671" lon="4.77759">
        <ele>170</ele>
        <time>2018-09-13T10:24:45Z</time>
      </trkpt>
      <trkpt lat="45.93667" lon="4.77752">
        <ele>171</ele>
        <time>2018-09-13T10:24:46Z</time>
      </trkpt>
      <trkpt lat="45.9366" lon="4.77744">
        <ele>171</ele>
        <time>2018-09-13T10:24:47Z</time>
      </trkpt>
      <trkpt lat="45.93656" lon="4.77736">
        <ele>170</ele>
        <time>2018-09-13T10:24:48Z</time>
      </trkpt>
      <trkpt lat="45.9365" lon="4.77726">
        <ele>170</ele>
        <time>2018-09-13T10:24:49Z</time>
      </trkpt>
      <trkpt lat="45.93644" lon="4.77717">
        <ele>170</ele>
        <time>2018-09-13T10:24:50Z</time>
      </trkpt>
      <trkpt lat="45.93639" lon="4.77707">
        <ele>170</ele>
        <time>2018-09-13T10:24:51Z</time>
      </trkpt>
      <trkpt lat="45.93634" lon="4.77696">
        <ele>169</ele>
        <time>2018-09-13T10:24:52Z</time>
      </trkpt>
      <trkpt lat="45.93629" lon="4.77686">
        <ele>169</ele>
        <time>2018-09-13T10:24:53Z</time>
      </trkpt>
      <trkpt lat="45.93624" lon="4.77674">
        <ele>169</ele>
        <time>2018-09-13T10:24:54Z</time>
      </trkpt>
      <trkpt lat="45.93619" lon="4.77664">
        <ele>169</ele>
        <time>2018-09-13T10:24:55Z</time>
      </trkpt>
      <trkpt lat="45.93615" lon="4.77652">
        <ele>169</ele>
        <time>2018-09-13T10:24:56Z</time>
      </trkpt>
      <trkpt lat="45.9361" lon="4.77642">
        <ele>169</ele>
        <time>2018-09-13T10:24:57Z</time>
      </trkpt>
      <trkpt lat="45.93606" lon="4.77632">
        <ele>169</ele>
        <time>2018-09-13T10:24:58Z</time>
      </trkpt>
      <trkpt lat="45.93602" lon="4.77622">
        <ele>170</ele>
        <time>2018-09-13T10:24:59Z</time>
      </trkpt>
      <trkpt lat="45.93598" lon="4.77613">
        <ele>170</ele>
        <time>2018-09-13T10:25:00Z</time>
      </trkpt>
      <trkpt lat="45.93595" lon="4.77603">
        <ele>170</ele>
        <time>2018-09-13T10:25:01Z</time>
      </trkpt>
      <trkpt lat="45.93594" lon="4.77593">
        <ele>170</ele>
        <time>2018-09-13T10:25:02Z</time>
      </trkpt>
      <trkpt lat="45.93593" lon="4.77583">
        <ele>170</ele>
        <time>2018-09-13T10:25:03Z</time>
      </trkpt>
      <trkpt lat="45.93591" lon="4.77572">
        <ele>170</ele>
        <time>2018-09-13T10:25:04Z</time>
      </trkpt>
      <trkpt lat="45.93586" lon="4.77562">
        <ele>170</ele>
        <time>2018-09-13T10:25:05Z</time>
      </trkpt>
      <trkpt lat="45.93585" lon="4.77553">
        <ele>170</ele>
        <time>2018-09-13T10:25:06Z</time>
      </trkpt>
      <trkpt lat="45.93582" lon="4.77544">
        <ele>169</ele>
        <time>2018-09-13T10:25:07Z</time>
      </trkpt>
      <trkpt lat="45.9358" lon="4.77535">
        <ele>169</ele>
        <time>2018-09-13T10:25:08Z</time>
      </trkpt>
      <trkpt lat="45.93578" lon="4.77526">
        <ele>169</ele>
        <time>2018-09-13T10:25:09Z</time>
      </trkpt>
      <trkpt lat="45.93576" lon="4.77518">
        <ele>169</ele>
        <time>2018-09-13T10:25:10Z</time>
      </trkpt>
      <trkpt lat="45.93574" lon="4.77509">
        <ele>169</ele>
        <time>2018-09-13T10:25:11Z</time>
      </trkpt>
      <trkpt lat="45.93573" lon="4.77501">
        <ele>169</ele>
        <time>2018-09-13T10:25:12Z</time>
      </trkpt>
      <trkpt lat="45.93571" lon="4.77493">
        <ele>169</ele>
        <time>2018-09-13T10:25:13Z</time>
      </trkpt>
      <trkpt lat="45.93568" lon="4.77485">
        <ele>169</ele>
        <time>2018-09-13T10:25:14Z</time>
      </trkpt>
      <trkpt lat="45.93566" lon="4.77476">
        <ele>169</ele>
        <time>2018-09-13T10:25:15Z</time>
      </trkpt>
      <trkpt lat="45.93562" lon="4.77467">
        <ele>169</ele>
        <time>2018-09-13T10:25:16Z</time>
      </trkpt>
      <trkpt lat="45.9356" lon="4.77458">
        <ele>169</ele>
        <time>2018-09-13T10:25:17Z</time>
      </trkpt>
      <trkpt lat="45.93558" lon="4.77449">
        <ele>169</ele>
        <time>2018-09-13T10:25:18Z</time>
      </trkpt>
      <trkpt lat="45.93556" lon="4.77441">
        <ele>169</ele>
        <time>2018-09-13T10:25:19Z</time>
      </trkpt>
      <trkpt lat="45.93555" lon="4.77432">
        <ele>170</ele>
        <time>2018-09-13T10:25:20Z</time>
      </trkpt>
      <trkpt lat="45.93554" lon="4.77423">
        <ele>170</ele>
        <time>2018-09-13T10:25:21Z</time>
      </trkpt>
      <trkpt lat="45.93552" lon="4.77413">
        <ele>170</ele>
        <time>2018-09-13T10:25:22Z</time>
      </trkpt>
      <trkpt lat="45.9355" lon="4.77405">
        <ele>170</ele>
        <time>2018-09-13T10:25:23Z</time>
      </trkpt>
      <trkpt lat="45.9355" lon="4.77397">
        <ele>170</ele>
        <time>2018-09-13T10:25:24Z</time>
      </trkpt>
      <trkpt lat="45.93548" lon="4.77388">
        <ele>170</ele>
        <time>2018-09-13T10:25:25Z</time>
      </trkpt>
      <trkpt lat="45.93546" lon="4.7738">
        <ele>170</ele>
        <time>2018-09-13T10:25:26Z</time>
      </trkpt>
      <trkpt lat="45.93544" lon="4.77371">
        <ele>170</ele>
        <time>2018-09-13T10:25:27Z</time>
      </trkpt>
      <trkpt lat="45.93542" lon="4.77363">
        <ele>170</ele>
        <time>2018-09-13T10:25:28Z</time>
      </trkpt>
      <trkpt lat="45.9354" lon="4.77355">
        <ele>170</ele>
        <time>2018-09-13T10:25:29Z</time>
      </trkpt>
      <trkpt lat="45.93537" lon="4.77346">
        <ele>170</ele>
        <time>2018-09-13T10:25:30Z</time>
      </trkpt>
      <trkpt lat="45.93536" lon="4.77338">
        <ele>170</ele>
        <time>2018-09-13T10:25:31Z</time>
      </trkpt>
      <trkpt lat="45.93535" lon="4.7733">
        <ele>170</ele>
        <time>2018-09-13T10:25:32Z</time>
      </trkpt>
      <trkpt lat="45.93533" lon="4.77322">
        <ele>170</ele>
        <time>2018-09-13T10:25:33Z</time>
      </trkpt>
      <trkpt lat="45.93531" lon="4.77311">
        <ele>170</ele>
        <time>2018-09-13T10:25:34Z</time>
      </trkpt>
      <trkpt lat="45.9353" lon="4.77303">
        <ele>170</ele>
        <time>2018-09-13T10:25:35Z</time>
      </trkpt>
      <trkpt lat="45.93527" lon="4.77295">
        <ele>170</ele>
        <time>2018-09-13T10:25:36Z</time>
      </trkpt>
      <trkpt lat="45.93525" lon="4.77287">
        <ele>170</ele>
        <time>2018-09-13T10:25:37Z</time>
      </trkpt>
      <trkpt lat="45.93523" lon="4.77279">
        <ele>170</ele>
        <time>2018-09-13T10:25:38Z</time>
      </trkpt>
      <trkpt lat="45.93521" lon="4.77271">
        <ele>170</ele>
        <time>2018-09-13T10:25:39Z</time>
      </trkpt>
      <trkpt lat="45.93519" lon="4.77264">
        <ele>170</ele>
        <time>2018-09-13T10:25:40Z</time>
      </trkpt>
      <trkpt lat="45.93519" lon="4.77257">
        <ele>170</ele>
        <time>2018-09-13T10:25:41Z</time>
      </trkpt>
      <trkpt lat="45.93517" lon="4.77251">
        <ele>170</ele>
        <time>2018-09-13T10:25:42Z</time>
      </trkpt>
      <trkpt lat="45.93516" lon="4.77242">
        <ele>169</ele>
        <time>2018-09-13T10:25:43Z</time>
      </trkpt>
      <trkpt lat="45.93514" lon="4.77236">
        <ele>169</ele>
        <time>2018-09-13T10:25:44Z</time>
      </trkpt>
      <trkpt lat="45.93512" lon="4.77229">
        <ele>169</ele>
        <time>2018-09-13T10:25:45Z</time>
      </trkpt>
      <trkpt lat="45.9351" lon="4.77222">
        <ele>169</ele>
        <time>2018-09-13T10:25:46Z</time>
      </trkpt>
      <trkpt lat="45.93509" lon="4.77214">
        <ele>169</ele>
        <time>2018-09-13T10:25:47Z</time>
      </trkpt>
      <trkpt lat="45.93507" lon="4.77205">
        <ele>169</ele>
        <time>2018-09-13T10:25:48Z</time>
      </trkpt>
      <trkpt lat="45.93505" lon="4.77196">
        <ele>169</ele>
        <time>2018-09-13T10:25:49Z</time>
      </trkpt>
      <trkpt lat="45.93504" lon="4.77188">
        <ele>169</ele>
        <time>2018-09-13T10:25:50Z</time>
      </trkpt>
      <trkpt lat="45.93502" lon="4.77179">
        <ele>169</ele>
        <time>2018-09-13T10:25:51Z</time>
      </trkpt>
      <trkpt lat="45.935" lon="4.7717">
        <ele>169</ele>
        <time>2018-09-13T10:25:52Z</time>
      </trkpt>
      <trkpt lat="45.93497" lon="4.77161">
        <ele>169</ele>
        <time>2018-09-13T10:25:53Z</time>
      </trkpt>
      <trkpt lat="45.93495" lon="4.77152">
        <ele>169</ele>
        <time>2018-09-13T10:25:54Z</time>
      </trkpt>
      <trkpt lat="45.93493" lon="4.77143">
        <ele>169</ele>
        <time>2018-09-13T10:25:55Z</time>
      </trkpt>
      <trkpt lat="45.93491" lon="4.77135">
        <ele>169</ele>
        <time>2018-09-13T10:25:56Z</time>
      </trkpt>
      <trkpt lat="45.93489" lon="4.77127">
        <ele>169</ele>
        <time>2018-09-13T10:25:57Z</time>
      </trkpt>
      <trkpt lat="45.93488" lon="4.77118">
        <ele>169</ele>
        <time>2018-09-13T10:25:58Z</time>
      </trkpt>
      <trkpt lat="45.93486" lon="4.77108">
        <ele>169</ele>
        <time>2018-09-13T10:25:59Z</time>
      </trkpt>
      <trkpt lat="45.93485" lon="4.77101">
        <ele>169</ele>
        <time>2018-09-13T10:26:00Z</time>
      </trkpt>
      <trkpt lat="45.93482" lon="4.77092">
        <ele>169</ele>
        <time>2018-09-13T10:26:01Z</time>
      </trkpt>
      <trkpt lat="45.9348" lon="4.77084">
        <ele>169</ele>
        <time>2018-09-13T10:26:02Z</time>
      </trkpt>
      <trkpt lat="45.93479" lon="4.77076">
        <ele>170</ele>
        <time>2018-09-13T10:26:03Z</time>
      </trkpt>
      <trkpt lat="45.93477" lon="4.77067">
        <ele>170</ele>
        <time>2018-09-13T10:26:04Z</time>
      </trkpt>
      <trkpt lat="45.93476" lon="4.77059">
        <ele>170</ele>
        <time>2018-09-13T10:26:05Z</time>
      </trkpt>
      <trkpt lat="45.93474" lon="4.77052">
        <ele>170</ele>
        <time>2018-09-13T10:26:06Z</time>
      </trkpt>
      <trkpt lat="45.93472" lon="4.77043">
        <ele>170</ele>
        <time>2018-09-13T10:26:07Z</time>
      </trkpt>
      <trkpt lat="45.93471" lon="4.77036">
        <ele>170</ele>
        <time>2018-09-13T10:26:08Z</time>
      </trkpt>
      <trkpt lat="45.9347" lon="4.77028">
        <ele>170</ele>
        <time>2018-09-13T10:26:09Z</time>
      </trkpt>
      <trkpt lat="45.93469" lon="4.7702">
        <ele>170</ele>
        <time>2018-09-13T10:26:10Z</time>
      </trkpt>
      <trkpt lat="45.93467" lon="4.77011">
        <ele>170</ele>
        <time>2018-09-13T10:26:11Z</time>
      </trkpt>
      <trkpt lat="45.93467" lon="4.77003">
        <ele>170</ele>
        <time>2018-09-13T10:26:12Z</time>
      </trkpt>
      <trkpt lat="45.93465" lon="4.76994">
        <ele>170</ele>
        <time>2018-09-13T10:26:13Z</time>
      </trkpt>
      <trkpt lat="45.93464" lon="4.76986">
        <ele>170</ele>
        <time>2018-09-13T10:26:14Z</time>
      </trkpt>
      <trkpt lat="45.93462" lon="4.76977">
        <ele>170</ele>
        <time>2018-09-13T10:26:15Z</time>
      </trkpt>
      <trkpt lat="45.93461" lon="4.76969">
        <ele>170</ele>
        <time>2018-09-13T10:26:16Z</time>
      </trkpt>
      <trkpt lat="45.9346" lon="4.76961">
        <ele>170</ele>
        <time>2018-09-13T10:26:17Z</time>
      </trkpt>
      <trkpt lat="45.93459" lon="4.76952">
        <ele>170</ele>
        <time>2018-09-13T10:26:18Z</time>
      </trkpt>
      <trkpt lat="45.93457" lon="4.76944">
        <ele>170</ele>
        <time>2018-09-13T10:26:19Z</time>
      </trkpt>
      <trkpt lat="45.93456" lon="4.76937">
        <ele>170</ele>
        <time>2018-09-13T10:26:20Z</time>
      </trkpt>
      <trkpt lat="45.93454" lon="4.76929">
        <ele>170</ele>
        <time>2018-09-13T10:26:21Z</time>
      </trkpt>
      <trkpt lat="45.93453" lon="4.76921">
        <ele>170</ele>
        <time>2018-09-13T10:26:22Z</time>
      </trkpt>
      <trkpt lat="45.93451" lon="4.76914">
        <ele>170</ele>
        <time>2018-09-13T10:26:23Z</time>
      </trkpt>
      <trkpt lat="45.93449" lon="4.76906">
        <ele>170</ele>
        <time>2018-09-13T10:26:24Z</time>
      </trkpt>
      <trkpt lat="45.93448" lon="4.76899">
        <ele>170</ele>
        <time>2018-09-13T10:26:25Z</time>
      </trkpt>
      <trkpt lat="45.93447" lon="4.76891">
        <ele>170</ele>
        <time>2018-09-13T10:26:26Z</time>
      </trkpt>
      <trkpt lat="45.93444" lon="4.76883">
        <ele>170</ele>
        <time>2018-09-13T10:26:27Z</time>
      </trkpt>
      <trkpt lat="45.93442" lon="4.76876">
        <ele>170</ele>
        <time>2018-09-13T10:26:28Z</time>
      </trkpt>
      <trkpt lat="45.93439" lon="4.76868">
        <ele>171</ele>
        <time>2018-09-13T10:26:29Z</time>
      </trkpt>
      <trkpt lat="45.93436" lon="4.7686">
        <ele>171</ele>
        <time>2018-09-13T10:26:30Z</time>
      </trkpt>
      <trkpt lat="45.93433" lon="4.76852">
        <ele>171</ele>
        <time>2018-09-13T10:26:31Z</time>
      </trkpt>
      <trkpt lat="45.9343" lon="4.76845">
        <ele>171</ele>
        <time>2018-09-13T10:26:32Z</time>
      </trkpt>
      <trkpt lat="45.93426" lon="4.76839">
        <ele>171</ele>
        <time>2018-09-13T10:26:33Z</time>
      </trkpt>
      <trkpt lat="45.93421" lon="4.76832">
        <ele>172</ele>
        <time>2018-09-13T10:26:34Z</time>
      </trkpt>
      <trkpt lat="45.93417" lon="4.76826">
        <ele>172</ele>
        <time>2018-09-13T10:26:35Z</time>
      </trkpt>
      <trkpt lat="45.93414" lon="4.7682">
        <ele>172</ele>
        <time>2018-09-13T10:26:36Z</time>
      </trkpt>
      <trkpt lat="45.9341" lon="4.76814">
        <ele>172</ele>
        <time>2018-09-13T10:26:37Z</time>
      </trkpt>
      <trkpt lat="45.93406" lon="4.76807">
        <ele>172</ele>
        <time>2018-09-13T10:26:38Z</time>
      </trkpt>
      <trkpt lat="45.93402" lon="4.76803">
        <ele>172</ele>
        <time>2018-09-13T10:26:39Z</time>
      </trkpt>
      <trkpt lat="45.93397" lon="4.76797">
        <ele>172</ele>
        <time>2018-09-13T10:26:40Z</time>
      </trkpt>
      <trkpt lat="45.93393" lon="4.76792">
        <ele>172</ele>
        <time>2018-09-13T10:26:41Z</time>
      </trkpt>
      <trkpt lat="45.93388" lon="4.76787">
        <ele>172</ele>
        <time>2018-09-13T10:26:42Z</time>
      </trkpt>
      <trkpt lat="45.93382" lon="4.76781">
        <ele>172</ele>
        <time>2018-09-13T10:26:43Z</time>
      </trkpt>
      <trkpt lat="45.93378" lon="4.76776">
        <ele>172</ele>
        <time>2018-09-13T10:26:44Z</time>
      </trkpt>
      <trkpt lat="45.93373" lon="4.76772">
        <ele>172</ele>
        <time>2018-09-13T10:26:45Z</time>
      </trkpt>
      <trkpt lat="45.93367" lon="4.76768">
        <ele>172</ele>
        <time>2018-09-13T10:26:46Z</time>
      </trkpt>
      <trkpt lat="45.93363" lon="4.76764">
        <ele>172</ele>
        <time>2018-09-13T10:26:47Z</time>
      </trkpt>
      <trkpt lat="45.93358" lon="4.7676">
        <ele>172</ele>
        <time>2018-09-13T10:26:48Z</time>
      </trkpt>
      <trkpt lat="45.93351" lon="4.76753">
        <ele>172</ele>
        <time>2018-09-13T10:26:50Z</time>
      </trkpt>
      <trkpt lat="45.93348" lon="4.76749">
        <ele>172</ele>
        <time>2018-09-13T10:26:51Z</time>
      </trkpt>
      <trkpt lat="45.93343" lon="4.76745">
        <ele>173</ele>
        <time>2018-09-13T10:26:52Z</time>
      </trkpt>
      <trkpt lat="45.93339" lon="4.76741">
        <ele>173</ele>
        <time>2018-09-13T10:26:53Z</time>
      </trkpt>
      <trkpt lat="45.93335" lon="4.76737">
        <ele>172</ele>
        <time>2018-09-13T10:26:54Z</time>
      </trkpt>
      <trkpt lat="45.93331" lon="4.76734">
        <ele>172</ele>
        <time>2018-09-13T10:26:55Z</time>
      </trkpt>
      <trkpt lat="45.93328" lon="4.76728">
        <ele>172</ele>
        <time>2018-09-13T10:26:56Z</time>
      </trkpt>
      <trkpt lat="45.93324" lon="4.76723">
        <ele>172</ele>
        <time>2018-09-13T10:26:57Z</time>
      </trkpt>
      <trkpt lat="45.9332" lon="4.76719">
        <ele>172</ele>
        <time>2018-09-13T10:26:58Z</time>
      </trkpt>
      <trkpt lat="45.93316" lon="4.76714">
        <ele>172</ele>
        <time>2018-09-13T10:26:59Z</time>
      </trkpt>
      <trkpt lat="45.93312" lon="4.76711">
        <ele>172</ele>
        <time>2018-09-13T10:27:00Z</time>
      </trkpt>
      <trkpt lat="45.93308" lon="4.76707">
        <ele>172</ele>
        <time>2018-09-13T10:27:01Z</time>
      </trkpt>
      <trkpt lat="45.93302" lon="4.76701">
        <ele>172</ele>
        <time>2018-09-13T10:27:02Z</time>
      </trkpt>
      <trkpt lat="45.93297" lon="4.76697">
        <ele>172</ele>
        <time>2018-09-13T10:27:03Z</time>
      </trkpt>
      <trkpt lat="45.93294" lon="4.76692">
        <ele>172</ele>
        <time>2018-09-13T10:27:04Z</time>
      </trkpt>
      <trkpt lat="45.93288" lon="4.76687">
        <ele>172</ele>
        <time>2018-09-13T10:27:05Z</time>
      </trkpt>
      <trkpt lat="45.93282" lon="4.76682">
        <ele>172</ele>
        <time>2018-09-13T10:27:06Z</time>
      </trkpt>
      <trkpt lat="45.93278" lon="4.76678">
        <ele>172</ele>
        <time>2018-09-13T10:27:07Z</time>
      </trkpt>
      <trkpt lat="45.93273" lon="4.76674">
        <ele>172</ele>
        <time>2018-09-13T10:27:08Z</time>
      </trkpt>
      <trkpt lat="45.93269" lon="4.76668">
        <ele>172</ele>
        <time>2018-09-13T10:27:09Z</time>
      </trkpt>
      <trkpt lat="45.93264" lon="4.76663">
        <ele>171</ele>
        <time>2018-09-13T10:27:10Z</time>
      </trkpt>
      <trkpt lat="45.9326" lon="4.76658">
        <ele>171</ele>
        <time>2018-09-13T10:27:11Z</time>
      </trkpt>
      <trkpt lat="45.93256" lon="4.76655">
        <ele>171</ele>
        <time>2018-09-13T10:27:12Z</time>
      </trkpt>
      <trkpt lat="45.93252" lon="4.76651">
        <ele>171</ele>
        <time>2018-09-13T10:27:13Z</time>
      </trkpt>
      <trkpt lat="45.93248" lon="4.76644">
        <ele>171</ele>
        <time>2018-09-13T10:27:14Z</time>
      </trkpt>
      <trkpt lat="45.93244" lon="4.76639">
        <ele>171</ele>
        <time>2018-09-13T10:27:15Z</time>
      </trkpt>
      <trkpt lat="45.93238" lon="4.76633">
        <ele>170</ele>
        <time>2018-09-13T10:27:16Z</time>
      </trkpt>
      <trkpt lat="45.93232" lon="4.76629">
        <ele>170</ele>
        <time>2018-09-13T10:27:17Z</time>
      </trkpt>
      <trkpt lat="45.93227" lon="4.76625">
        <ele>170</ele>
        <time>2018-09-13T10:27:18Z</time>
      </trkpt>
      <trkpt lat="45.93222" lon="4.76619">
        <ele>170</ele>
        <time>2018-09-13T10:27:19Z</time>
      </trkpt>
      <trkpt lat="45.93217" lon="4.76615">
        <ele>170</ele>
        <time>2018-09-13T10:27:20Z</time>
      </trkpt>
      <trkpt lat="45.93211" lon="4.7661">
        <ele>170</ele>
        <time>2018-09-13T10:27:21Z</time>
      </trkpt>
      <trkpt lat="45.93206" lon="4.76606">
        <ele>170</ele>
        <time>2018-09-13T10:27:22Z</time>
      </trkpt>
      <trkpt lat="45.93201" lon="4.76601">
        <ele>170</ele>
        <time>2018-09-13T10:27:23Z</time>
      </trkpt>
      <trkpt lat="45.93196" lon="4.76596">
        <ele>170</ele>
        <time>2018-09-13T10:27:24Z</time>
      </trkpt>
      <trkpt lat="45.93192" lon="4.7659">
        <ele>170</ele>
        <time>2018-09-13T10:27:25Z</time>
      </trkpt>
      <trkpt lat="45.93186" lon="4.76587">
        <ele>171</ele>
        <time>2018-09-13T10:27:26Z</time>
      </trkpt>
      <trkpt lat="45.93182" lon="4.76582">
        <ele>170</ele>
        <time>2018-09-13T10:27:27Z</time>
      </trkpt>
      <trkpt lat="45.93177" lon="4.76576">
        <ele>170</ele>
        <time>2018-09-13T10:27:28Z</time>
      </trkpt>
      <trkpt lat="45.93171" lon="4.76571">
        <ele>170</ele>
        <time>2018-09-13T10:27:29Z</time>
      </trkpt>
      <trkpt lat="45.93166" lon="4.76566">
        <ele>170</ele>
        <time>2018-09-13T10:27:30Z</time>
      </trkpt>
      <trkpt lat="45.93161" lon="4.76561">
        <ele>170</ele>
        <time>2018-09-13T10:27:31Z</time>
      </trkpt>
      <trkpt lat="45.93155" lon="4.76555">
        <ele>170</ele>
        <time>2018-09-13T10:27:32Z</time>
      </trkpt>
      <trkpt lat="45.93149" lon="4.76549">
        <ele>170</ele>
        <time>2018-09-13T10:27:33Z</time>
      </trkpt>
      <trkpt lat="45.93142" lon="4.76541">
        <ele>170</ele>
        <time>2018-09-13T10:27:35Z</time>
      </trkpt>
      <trkpt lat="45.93137" lon="4.76537">
        <ele>170</ele>
        <time>2018-09-13T10:27:36Z</time>
      </trkpt>
      <trkpt lat="45.93134" lon="4.76532">
        <ele>170</ele>
        <time>2018-09-13T10:27:37Z</time>
      </trkpt>
      <trkpt lat="45.93129" lon="4.76528">
        <ele>170</ele>
        <time>2018-09-13T10:27:38Z</time>
      </trkpt>
      <trkpt lat="45.93126" lon="4.76525">
        <ele>170</ele>
        <time>2018-09-13T10:27:39Z</time>
      </trkpt>
      <trkpt lat="45.93121" lon="4.76521">
        <ele>170</ele>
        <time>2018-09-13T10:27:40Z</time>
      </trkpt>
      <trkpt lat="45.93116" lon="4.76517">
        <ele>170</ele>
        <time>2018-09-13T10:27:41Z</time>
      </trkpt>
      <trkpt lat="45.93115" lon="4.7651">
        <ele>170</ele>
        <time>2018-09-13T10:27:42Z</time>
      </trkpt>
      <trkpt lat="45.93108" lon="4.76503">
        <ele>170</ele>
        <time>2018-09-13T10:27:44Z</time>
      </trkpt>
      <trkpt lat="45.93103" lon="4.76497">
        <ele>169</ele>
        <time>2018-09-13T10:27:45Z</time>
      </trkpt>
      <trkpt lat="45.93096" lon="4.76492">
        <ele>170</ele>
        <time>2018-09-13T10:27:46Z</time>
      </trkpt>
      <trkpt lat="45.93091" lon="4.76487">
        <ele>170</ele>
        <time>2018-09-13T10:27:47Z</time>
      </trkpt>
      <trkpt lat="45.93085" lon="4.76482">
        <ele>169</ele>
        <time>2018-09-13T10:27:48Z</time>
      </trkpt>
      <trkpt lat="45.93079" lon="4.76476">
        <ele>169</ele>
        <time>2018-09-13T10:27:49Z</time>
      </trkpt>
      <trkpt lat="45.93075" lon="4.7647">
        <ele>169</ele>
        <time>2018-09-13T10:27:50Z</time>
      </trkpt>
      <trkpt lat="45.93071" lon="4.76464">
        <ele>169</ele>
        <time>2018-09-13T10:27:51Z</time>
      </trkpt>
      <trkpt lat="45.93066" lon="4.7646">
        <ele>169</ele>
        <time>2018-09-13T10:27:52Z</time>
      </trkpt>
      <trkpt lat="45.93061" lon="4.76455">
        <ele>169</ele>
        <time>2018-09-13T10:27:53Z</time>
      </trkpt>
      <trkpt lat="45.93056" lon="4.76451">
        <ele>169</ele>
        <time>2018-09-13T10:27:54Z</time>
      </trkpt>
      <trkpt lat="45.93053" lon="4.76444">
        <ele>169</ele>
        <time>2018-09-13T10:27:55Z</time>
      </trkpt>
      <trkpt lat="45.93048" lon="4.76439">
        <ele>169</ele>
        <time>2018-09-13T10:27:56Z</time>
      </trkpt>
      <trkpt lat="45.93043" lon="4.76435">
        <ele>169</ele>
        <time>2018-09-13T10:27:57Z</time>
      </trkpt>
      <trkpt lat="45.93039" lon="4.76431">
        <ele>169</ele>
        <time>2018-09-13T10:27:58Z</time>
      </trkpt>
      <trkpt lat="45.93035" lon="4.76427">
        <ele>169</ele>
        <time>2018-09-13T10:27:59Z</time>
      </trkpt>
      <trkpt lat="45.93031" lon="4.76422">
        <ele>169</ele>
        <time>2018-09-13T10:28:00Z</time>
      </trkpt>
      <trkpt lat="45.93028" lon="4.76418">
        <ele>169</ele>
        <time>2018-09-13T10:28:01Z</time>
      </trkpt>
      <trkpt lat="45.93024" lon="4.76413">
        <ele>169</ele>
        <time>2018-09-13T10:28:02Z</time>
      </trkpt>
      <trkpt lat="45.9302" lon="4.76409">
        <ele>169</ele>
        <time>2018-09-13T10:28:03Z</time>
      </trkpt>
      <trkpt lat="45.93016" lon="4.76405">
        <ele>169</ele>
        <time>2018-09-13T10:28:04Z</time>
      </trkpt>
      <trkpt lat="45.93013" lon="4.764">
        <ele>169</ele>
        <time>2018-09-13T10:28:05Z</time>
      </trkpt>
      <trkpt lat="45.93007" lon="4.76395">
        <ele>169</ele>
        <time>2018-09-13T10:28:06Z</time>
      </trkpt>
      <trkpt lat="45.93003" lon="4.7639">
        <ele>169</ele>
        <time>2018-09-13T10:28:07Z</time>
      </trkpt>
      <trkpt lat="45.92997" lon="4.76387">
        <ele>169</ele>
        <time>2018-09-13T10:28:08Z</time>
      </trkpt>
      <trkpt lat="45.92992" lon="4.76383">
        <ele>169</ele>
        <time>2018-09-13T10:28:09Z</time>
      </trkpt>
      <trkpt lat="45.92987" lon="4.76378">
        <ele>169</ele>
        <time>2018-09-13T10:28:10Z</time>
      </trkpt>
      <trkpt lat="45.92984" lon="4.76374">
        <ele>169</ele>
        <time>2018-09-13T10:28:11Z</time>
      </trkpt>
      <trkpt lat="45.9298" lon="4.76371">
        <ele>169</ele>
        <time>2018-09-13T10:28:12Z</time>
      </trkpt>
      <trkpt lat="45.92976" lon="4.76366">
        <ele>169</ele>
        <time>2018-09-13T10:28:13Z</time>
      </trkpt>
      <trkpt lat="45.92972" lon="4.76362">
        <ele>169</ele>
        <time>2018-09-13T10:28:14Z</time>
      </trkpt>
      <trkpt lat="45.92968" lon="4.76358">
        <ele>169</ele>
        <time>2018-09-13T10:28:15Z</time>
      </trkpt>
      <trkpt lat="45.92964" lon="4.76352">
        <ele>169</ele>
        <time>2018-09-13T10:28:16Z</time>
      </trkpt>
      <trkpt lat="45.92959" lon="4.76349">
        <ele>169</ele>
        <time>2018-09-13T10:28:17Z</time>
      </trkpt>
      <trkpt lat="45.92953" lon="4.76346">
        <ele>169</ele>
        <time>2018-09-13T10:28:18Z</time>
      </trkpt>
      <trkpt lat="45.92947" lon="4.76341">
        <ele>169</ele>
        <time>2018-09-13T10:28:19Z</time>
      </trkpt>
      <trkpt lat="45.92943" lon="4.76336">
        <ele>169</ele>
        <time>2018-09-13T10:28:20Z</time>
      </trkpt>
      <trkpt lat="45.92939" lon="4.76333">
        <ele>169</ele>
        <time>2018-09-13T10:28:21Z</time>
      </trkpt>
      <trkpt lat="45.92932" lon="4.76325">
        <ele>169</ele>
        <time>2018-09-13T10:28:23Z</time>
      </trkpt>
      <trkpt lat="45.92925" lon="4.76322">
        <ele>169</ele>
        <time>2018-09-13T10:28:24Z</time>
      </trkpt>
      <trkpt lat="45.92922" lon="4.76319">
        <ele>169</ele>
        <time>2018-09-13T10:28:25Z</time>
      </trkpt>
      <trkpt lat="45.92916" lon="4.76316">
        <ele>169</ele>
        <time>2018-09-13T10:28:26Z</time>
      </trkpt>
      <trkpt lat="45.92912" lon="4.76314">
        <ele>169</ele>
        <time>2018-09-13T10:28:27Z</time>
      </trkpt>
      <trkpt lat="45.92908" lon="4.7631">
        <ele>169</ele>
        <time>2018-09-13T10:28:28Z</time>
      </trkpt>
      <trkpt lat="45.92905" lon="4.76305">
        <ele>169</ele>
        <time>2018-09-13T10:28:29Z</time>
      </trkpt>
      <trkpt lat="45.92901" lon="4.76301">
        <ele>169</ele>
        <time>2018-09-13T10:28:30Z</time>
      </trkpt>
      <trkpt lat="45.92898" lon="4.76296">
        <ele>169</ele>
        <time>2018-09-13T10:28:31Z</time>
      </trkpt>
      <trkpt lat="45.92892" lon="4.76293">
        <ele>169</ele>
        <time>2018-09-13T10:28:32Z</time>
      </trkpt>
      <trkpt lat="45.92886" lon="4.76289">
        <ele>169</ele>
        <time>2018-09-13T10:28:33Z</time>
      </trkpt>
      <trkpt lat="45.92881" lon="4.76284">
        <ele>169</ele>
        <time>2018-09-13T10:28:34Z</time>
      </trkpt>
      <trkpt lat="45.92875" lon="4.76278">
        <ele>169</ele>
        <time>2018-09-13T10:28:35Z</time>
      </trkpt>
      <trkpt lat="45.92869" lon="4.76273">
        <ele>169</ele>
        <time>2018-09-13T10:28:36Z</time>
      </trkpt>
      <trkpt lat="45.92863" lon="4.76268">
        <ele>169</ele>
        <time>2018-09-13T10:28:37Z</time>
      </trkpt>
      <trkpt lat="45.92859" lon="4.76264">
        <ele>169</ele>
        <time>2018-09-13T10:28:38Z</time>
      </trkpt>
      <trkpt lat="45.92854" lon="4.7626">
        <ele>169</ele>
        <time>2018-09-13T10:28:39Z</time>
      </trkpt>
      <trkpt lat="45.92847" lon="4.76257">
        <ele>169</ele>
        <time>2018-09-13T10:28:40Z</time>
      </trkpt>
      <trkpt lat="45.92844" lon="4.76252">
        <ele>169</ele>
        <time>2018-09-13T10:28:41Z</time>
      </trkpt>
      <trkpt lat="45.92839" lon="4.76248">
        <ele>169</ele>
        <time>2018-09-13T10:28:42Z</time>
      </trkpt>
      <trkpt lat="45.92833" lon="4.76243">
        <ele>169</ele>
        <time>2018-09-13T10:28:43Z</time>
      </trkpt>
      <trkpt lat="45.92829" lon="4.76238">
        <ele>168</ele>
        <time>2018-09-13T10:28:44Z</time>
      </trkpt>
      <trkpt lat="45.92824" lon="4.76233">
        <ele>168</ele>
        <time>2018-09-13T10:28:45Z</time>
      </trkpt>
      <trkpt lat="45.92823" lon="4.76223">
        <ele>168</ele>
        <time>2018-09-13T10:28:46Z</time>
      </trkpt>
      <trkpt lat="45.9282" lon="4.76218">
        <ele>168</ele>
        <time>2018-09-13T10:28:47Z</time>
      </trkpt>
      <trkpt lat="45.92816" lon="4.76214">
        <ele>168</ele>
        <time>2018-09-13T10:28:48Z</time>
      </trkpt>
      <trkpt lat="45.92812" lon="4.7621">
        <ele>168</ele>
        <time>2018-09-13T10:28:49Z</time>
      </trkpt>
      <trkpt lat="45.92807" lon="4.76206">
        <ele>168</ele>
        <time>2018-09-13T10:28:50Z</time>
      </trkpt>
      <trkpt lat="45.92804" lon="4.76202">
        <ele>168</ele>
        <time>2018-09-13T10:28:51Z</time>
      </trkpt>
      <trkpt lat="45.92799" lon="4.76197">
        <ele>168</ele>
        <time>2018-09-13T10:28:52Z</time>
      </trkpt>
      <trkpt lat="45.92795" lon="4.76194">
        <ele>168</ele>
        <time>2018-09-13T10:28:53Z</time>
      </trkpt>
      <trkpt lat="45.92791" lon="4.76191">
        <ele>168</ele>
        <time>2018-09-13T10:28:54Z</time>
      </trkpt>
      <trkpt lat="45.92787" lon="4.76187">
        <ele>168</ele>
        <time>2018-09-13T10:28:55Z</time>
      </trkpt>
      <trkpt lat="45.9278" lon="4.76184">
        <ele>168</ele>
        <time>2018-09-13T10:28:56Z</time>
      </trkpt>
      <trkpt lat="45.92775" lon="4.7618">
        <ele>167</ele>
        <time>2018-09-13T10:28:57Z</time>
      </trkpt>
      <trkpt lat="45.9277" lon="4.76177">
        <ele>167</ele>
        <time>2018-09-13T10:28:58Z</time>
      </trkpt>
      <trkpt lat="45.92766" lon="4.76173">
        <ele>167</ele>
        <time>2018-09-13T10:28:59Z</time>
      </trkpt>
      <trkpt lat="45.92763" lon="4.76168">
        <ele>167</ele>
        <time>2018-09-13T10:29:00Z</time>
      </trkpt>
      <trkpt lat="45.92758" lon="4.76164">
        <ele>167</ele>
        <time>2018-09-13T10:29:01Z</time>
      </trkpt>
      <trkpt lat="45.92751" lon="4.7616">
        <ele>167</ele>
        <time>2018-09-13T10:29:02Z</time>
      </trkpt>
      <trkpt lat="45.92746" lon="4.76156">
        <ele>168</ele>
        <time>2018-09-13T10:29:03Z</time>
      </trkpt>
      <trkpt lat="45.92741" lon="4.76153">
        <ele>168</ele>
        <time>2018-09-13T10:29:04Z</time>
      </trkpt>
      <trkpt lat="45.92737" lon="4.76149">
        <ele>168</ele>
        <time>2018-09-13T10:29:05Z</time>
      </trkpt>
      <trkpt lat="45.92731" lon="4.76145">
        <ele>168</ele>
        <time>2018-09-13T10:29:06Z</time>
      </trkpt>
      <trkpt lat="45.92727" lon="4.7614">
        <ele>168</ele>
        <time>2018-09-13T10:29:07Z</time>
      </trkpt>
      <trkpt lat="45.92723" lon="4.76136">
        <ele>168</ele>
        <time>2018-09-13T10:29:08Z</time>
      </trkpt>
      <trkpt lat="45.92718" lon="4.76133">
        <ele>168</ele>
        <time>2018-09-13T10:29:09Z</time>
      </trkpt>
      <trkpt lat="45.92713" lon="4.7613">
        <ele>168</ele>
        <time>2018-09-13T10:29:10Z</time>
      </trkpt>
      <trkpt lat="45.92707" lon="4.76128">
        <ele>169</ele>
        <time>2018-09-13T10:29:11Z</time>
      </trkpt>
      <trkpt lat="45.92699" lon="4.76127">
        <ele>169</ele>
        <time>2018-09-13T10:29:12Z</time>
      </trkpt>
      <trkpt lat="45.92694" lon="4.76122">
        <ele>169</ele>
        <time>2018-09-13T10:29:13Z</time>
      </trkpt>
      <trkpt lat="45.9269" lon="4.76119">
        <ele>169</ele>
        <time>2018-09-13T10:29:14Z</time>
      </trkpt>
      <trkpt lat="45.92686" lon="4.76115">
        <ele>169</ele>
        <time>2018-09-13T10:29:15Z</time>
      </trkpt>
      <trkpt lat="45.92682" lon="4.76112">
        <ele>169</ele>
        <time>2018-09-13T10:29:16Z</time>
      </trkpt>
      <trkpt lat="45.92677" lon="4.76108">
        <ele>169</ele>
        <time>2018-09-13T10:29:17Z</time>
      </trkpt>
      <trkpt lat="45.92673" lon="4.76105">
        <ele>169</ele>
        <time>2018-09-13T10:29:18Z</time>
      </trkpt>
      <trkpt lat="45.92665" lon="4.761">
        <ele>170</ele>
        <time>2018-09-13T10:29:20Z</time>
      </trkpt>
      <trkpt lat="45.92661" lon="4.76099">
        <ele>170</ele>
        <time>2018-09-13T10:29:21Z</time>
      </trkpt>
      <trkpt lat="45.92655" lon="4.76091">
        <ele>170</ele>
        <time>2018-09-13T10:29:23Z</time>
      </trkpt>
      <trkpt lat="45.92651" lon="4.76088">
        <ele>170</ele>
        <time>2018-09-13T10:29:24Z</time>
      </trkpt>
      <trkpt lat="45.92644" lon="4.76081">
        <ele>170</ele>
        <time>2018-09-13T10:29:26Z</time>
      </trkpt>
      <trkpt lat="45.9264" lon="4.76077">
        <ele>170</ele>
        <time>2018-09-13T10:29:27Z</time>
      </trkpt>
      <trkpt lat="45.92633" lon="4.76072">
        <ele>170</ele>
        <time>2018-09-13T10:29:29Z</time>
      </trkpt>
      <trkpt lat="45.9263" lon="4.76069">
        <ele>170</ele>
        <time>2018-09-13T10:29:30Z</time>
      </trkpt>
      <trkpt lat="45.92625" lon="4.76062">
        <ele>171</ele>
        <time>2018-09-13T10:29:32Z</time>
      </trkpt>
      <trkpt lat="45.92622" lon="4.76058">
        <ele>171</ele>
        <time>2018-09-13T10:29:33Z</time>
      </trkpt>
      <trkpt lat="45.92615" lon="4.76055">
        <ele>171</ele>
        <time>2018-09-13T10:29:35Z</time>
      </trkpt>
      <trkpt lat="45.92612" lon="4.76053">
        <ele>171</ele>
        <time>2018-09-13T10:29:36Z</time>
      </trkpt>
      <trkpt lat="45.92604" lon="4.76047">
        <ele>171</ele>
        <time>2018-09-13T10:29:38Z</time>
      </trkpt>
      <trkpt lat="45.92602" lon="4.76045">
        <ele>171</ele>
        <time>2018-09-13T10:29:39Z</time>
      </trkpt>
      <trkpt lat="45.92595" lon="4.7604">
        <ele>171</ele>
        <time>2018-09-13T10:29:41Z</time>
      </trkpt>
      <trkpt lat="45.92591" lon="4.76038">
        <ele>171</ele>
        <time>2018-09-13T10:29:42Z</time>
      </trkpt>
      <trkpt lat="45.92584" lon="4.76033">
        <ele>171</ele>
        <time>2018-09-13T10:29:44Z</time>
      </trkpt>
      <trkpt lat="45.9258" lon="4.76031">
        <ele>172</ele>
        <time>2018-09-13T10:29:45Z</time>
      </trkpt>
      <trkpt lat="45.92573" lon="4.76025">
        <ele>172</ele>
        <time>2018-09-13T10:29:47Z</time>
      </trkpt>
      <trkpt lat="45.92569" lon="4.76022">
        <ele>172</ele>
        <time>2018-09-13T10:29:48Z</time>
      </trkpt>
      <trkpt lat="45.92565" lon="4.76019">
        <ele>172</ele>
        <time>2018-09-13T10:29:49Z</time>
      </trkpt>
      <trkpt lat="45.92561" lon="4.76015">
        <ele>172</ele>
        <time>2018-09-13T10:29:50Z</time>
      </trkpt>
      <trkpt lat="45.92554" lon="4.76011">
        <ele>172</ele>
        <time>2018-09-13T10:29:51Z</time>
      </trkpt>
      <trkpt lat="45.9255" lon="4.76008">
        <ele>172</ele>
        <time>2018-09-13T10:29:52Z</time>
      </trkpt>
      <trkpt lat="45.92542" lon="4.76003">
        <ele>172</ele>
        <time>2018-09-13T10:29:54Z</time>
      </trkpt>
      <trkpt lat="45.92538" lon="4.76">
        <ele>172</ele>
        <time>2018-09-13T10:29:55Z</time>
      </trkpt>
      <trkpt lat="45.92531" lon="4.75994">
        <ele>172</ele>
        <time>2018-09-13T10:29:57Z</time>
      </trkpt>
      <trkpt lat="45.92527" lon="4.75991">
        <ele>172</ele>
        <time>2018-09-13T10:29:58Z</time>
      </trkpt>
      <trkpt lat="45.9252" lon="4.75984">
        <ele>172</ele>
        <time>2018-09-13T10:30:00Z</time>
      </trkpt>
      <trkpt lat="45.92514" lon="4.75982">
        <ele>172</ele>
        <time>2018-09-13T10:30:01Z</time>
      </trkpt>
      <trkpt lat="45.92509" lon="4.75979">
        <ele>172</ele>
        <time>2018-09-13T10:30:02Z</time>
      </trkpt>
      <trkpt lat="45.92504" lon="4.75975">
        <ele>172</ele>
        <time>2018-09-13T10:30:03Z</time>
      </trkpt>
      <trkpt lat="45.925" lon="4.75972">
        <ele>172</ele>
        <time>2018-09-13T10:30:04Z</time>
      </trkpt>
      <trkpt lat="45.92495" lon="4.75969">
        <ele>172</ele>
        <time>2018-09-13T10:30:05Z</time>
      </trkpt>
      <trkpt lat="45.9249" lon="4.75965">
        <ele>172</ele>
        <time>2018-09-13T10:30:06Z</time>
      </trkpt>
      <trkpt lat="45.92485" lon="4.75961">
        <ele>172</ele>
        <time>2018-09-13T10:30:07Z</time>
      </trkpt>
      <trkpt lat="45.9248" lon="4.75958">
        <ele>172</ele>
        <time>2018-09-13T10:30:08Z</time>
      </trkpt>
      <trkpt lat="45.92476" lon="4.75956">
        <ele>172</ele>
        <time>2018-09-13T10:30:09Z</time>
      </trkpt>
      <trkpt lat="45.92471" lon="4.75953">
        <ele>172</ele>
        <time>2018-09-13T10:30:10Z</time>
      </trkpt>
      <trkpt lat="45.92466" lon="4.7595">
        <ele>172</ele>
        <time>2018-09-13T10:30:11Z</time>
      </trkpt>
      <trkpt lat="45.92461" lon="4.75946">
        <ele>172</ele>
        <time>2018-09-13T10:30:12Z</time>
      </trkpt>
      <trkpt lat="45.92457" lon="4.75943">
        <ele>172</ele>
        <time>2018-09-13T10:30:13Z</time>
      </trkpt>
      <trkpt lat="45.92453" lon="4.75939">
        <ele>172</ele>
        <time>2018-09-13T10:30:14Z</time>
      </trkpt>
      <trkpt lat="45.92447" lon="4.75936">
        <ele>172</ele>
        <time>2018-09-13T10:30:15Z</time>
      </trkpt>
      <trkpt lat="45.92442" lon="4.75932">
        <ele>172</ele>
        <time>2018-09-13T10:30:16Z</time>
      </trkpt>
      <trkpt lat="45.92437" lon="4.75928">
        <ele>172</ele>
        <time>2018-09-13T10:30:17Z</time>
      </trkpt>
      <trkpt lat="45.92431" lon="4.75924">
        <ele>172</ele>
        <time>2018-09-13T10:30:18Z</time>
      </trkpt>
      <trkpt lat="45.92423" lon="4.7592">
        <ele>172</ele>
        <time>2018-09-13T10:30:19Z</time>
      </trkpt>
      <trkpt lat="45.92418" lon="4.75916">
        <ele>172</ele>
        <time>2018-09-13T10:30:20Z</time>
      </trkpt>
      <trkpt lat="45.92411" lon="4.75911">
        <ele>172</ele>
        <time>2018-09-13T10:30:21Z</time>
      </trkpt>
      <trkpt lat="45.92406" lon="4.75908">
        <ele>172</ele>
        <time>2018-09-13T10:30:22Z</time>
      </trkpt>
      <trkpt lat="45.92399" lon="4.75905">
        <ele>173</ele>
        <time>2018-09-13T10:30:23Z</time>
      </trkpt>
      <trkpt lat="45.92392" lon="4.759">
        <ele>173</ele>
        <time>2018-09-13T10:30:24Z</time>
      </trkpt>
      <trkpt lat="45.92387" lon="4.75897">
        <ele>173</ele>
        <time>2018-09-13T10:30:25Z</time>
      </trkpt>
      <trkpt lat="45.9238" lon="4.75892">
        <ele>173</ele>
        <time>2018-09-13T10:30:26Z</time>
      </trkpt>
      <trkpt lat="45.92375" lon="4.75889">
        <ele>173</ele>
        <time>2018-09-13T10:30:27Z</time>
      </trkpt>
      <trkpt lat="45.9237" lon="4.75885">
        <ele>173</ele>
        <time>2018-09-13T10:30:28Z</time>
      </trkpt>
      <trkpt lat="45.92366" lon="4.75881">
        <ele>173</ele>
        <time>2018-09-13T10:30:29Z</time>
      </trkpt>
      <trkpt lat="45.9236" lon="4.75878">
        <ele>173</ele>
        <time>2018-09-13T10:30:30Z</time>
      </trkpt>
      <trkpt lat="45.92355" lon="4.75875">
        <ele>173</ele>
        <time>2018-09-13T10:30:31Z</time>
      </trkpt>
      <trkpt lat="45.9235" lon="4.7587">
        <ele>173</ele>
        <time>2018-09-13T10:30:32Z</time>
      </trkpt>
      <trkpt lat="45.92345" lon="4.75866">
        <ele>173</ele>
        <time>2018-09-13T10:30:33Z</time>
      </trkpt>
      <trkpt lat="45.9234" lon="4.75862">
        <ele>173</ele>
        <time>2018-09-13T10:30:34Z</time>
      </trkpt>
      <trkpt lat="45.92333" lon="4.7586">
        <ele>173</ele>
        <time>2018-09-13T10:30:35Z</time>
      </trkpt>
      <trkpt lat="45.92326" lon="4.75857">
        <ele>174</ele>
        <time>2018-09-13T10:30:36Z</time>
      </trkpt>
      <trkpt lat="45.9232" lon="4.75853">
        <ele>174</ele>
        <time>2018-09-13T10:30:37Z</time>
      </trkpt>
      <trkpt lat="45.92315" lon="4.75849">
        <ele>174</ele>
        <time>2018-09-13T10:30:38Z</time>
      </trkpt>
      <trkpt lat="45.92308" lon="4.75845">
        <ele>173</ele>
        <time>2018-09-13T10:30:39Z</time>
      </trkpt>
      <trkpt lat="45.92304" lon="4.75842">
        <ele>173</ele>
        <time>2018-09-13T10:30:40Z</time>
      </trkpt>
      <trkpt lat="45.92299" lon="4.75839">
        <ele>173</ele>
        <time>2018-09-13T10:30:41Z</time>
      </trkpt>
      <trkpt lat="45.92295" lon="4.75836">
        <ele>173</ele>
        <time>2018-09-13T10:30:42Z</time>
      </trkpt>
      <trkpt lat="45.92289" lon="4.75832">
        <ele>174</ele>
        <time>2018-09-13T10:30:43Z</time>
      </trkpt>
      <trkpt lat="45.92284" lon="4.75829">
        <ele>174</ele>
        <time>2018-09-13T10:30:44Z</time>
      </trkpt>
      <trkpt lat="45.92278" lon="4.75825">
        <ele>174</ele>
        <time>2018-09-13T10:30:45Z</time>
      </trkpt>
      <trkpt lat="45.92273" lon="4.7582">
        <ele>174</ele>
        <time>2018-09-13T10:30:46Z</time>
      </trkpt>
      <trkpt lat="45.92269" lon="4.75814">
        <ele>174</ele>
        <time>2018-09-13T10:30:47Z</time>
      </trkpt>
      <trkpt lat="45.92265" lon="4.75807">
        <ele>174</ele>
        <time>2018-09-13T10:30:48Z</time>
      </trkpt>
      <trkpt lat="45.92261" lon="4.758">
        <ele>174</ele>
        <time>2018-09-13T10:30:49Z</time>
      </trkpt>
      <trkpt lat="45.92259" lon="4.75792">
        <ele>174</ele>
        <time>2018-09-13T10:30:50Z</time>
      </trkpt>
      <trkpt lat="45.92257" lon="4.75785">
        <ele>174</ele>
        <time>2018-09-13T10:30:51Z</time>
      </trkpt>
      <trkpt lat="45.92257" lon="4.75778">
        <ele>174</ele>
        <time>2018-09-13T10:30:52Z</time>
      </trkpt>
      <trkpt lat="45.92256" lon="4.7577">
        <ele>174</ele>
        <time>2018-09-13T10:30:53Z</time>
      </trkpt>
      <trkpt lat="45.92256" lon="4.75764">
        <ele>174</ele>
        <time>2018-09-13T10:30:54Z</time>
      </trkpt>
      <trkpt lat="45.92254" lon="4.75758">
        <ele>174</ele>
        <time>2018-09-13T10:30:55Z</time>
      </trkpt>
      <trkpt lat="45.92253" lon="4.75751">
        <ele>174</ele>
        <time>2018-09-13T10:30:56Z</time>
      </trkpt>
      <trkpt lat="45.92252" lon="4.75744">
        <ele>174</ele>
        <time>2018-09-13T10:30:57Z</time>
      </trkpt>
      <trkpt lat="45.9225" lon="4.75738">
        <ele>174</ele>
        <time>2018-09-13T10:30:58Z</time>
      </trkpt>
      <trkpt lat="45.92249" lon="4.75731">
        <ele>174</ele>
        <time>2018-09-13T10:30:59Z</time>
      </trkpt>
      <trkpt lat="45.92246" lon="4.75724">
        <ele>174</ele>
        <time>2018-09-13T10:31:00Z</time>
      </trkpt>
      <trkpt lat="45.92244" lon="4.75717">
        <ele>174</ele>
        <time>2018-09-13T10:31:01Z</time>
      </trkpt>
      <trkpt lat="45.9224" lon="4.7571">
        <ele>174</ele>
        <time>2018-09-13T10:31:02Z</time>
      </trkpt>
      <trkpt lat="45.92236" lon="4.75704">
        <ele>174</ele>
        <time>2018-09-13T10:31:03Z</time>
      </trkpt>
      <trkpt lat="45.92231" lon="4.75699">
        <ele>174</ele>
        <time>2018-09-13T10:31:04Z</time>
      </trkpt>
      <trkpt lat="45.92227" lon="4.75693">
        <ele>174</ele>
        <time>2018-09-13T10:31:05Z</time>
      </trkpt>
      <trkpt lat="45.92223" lon="4.75688">
        <ele>174</ele>
        <time>2018-09-13T10:31:06Z</time>
      </trkpt>
      <trkpt lat="45.92219" lon="4.75683">
        <ele>174</ele>
        <time>2018-09-13T10:31:07Z</time>
      </trkpt>
      <trkpt lat="45.92216" lon="4.75679">
        <ele>174</ele>
        <time>2018-09-13T10:31:08Z</time>
      </trkpt>
      <trkpt lat="45.9221" lon="4.75674">
        <ele>174</ele>
        <time>2018-09-13T10:31:09Z</time>
      </trkpt>
      <trkpt lat="45.92205" lon="4.7567">
        <ele>174</ele>
        <time>2018-09-13T10:31:10Z</time>
      </trkpt>
      <trkpt lat="45.922" lon="4.75665">
        <ele>174</ele>
        <time>2018-09-13T10:31:11Z</time>
      </trkpt>
      <trkpt lat="45.92196" lon="4.7566">
        <ele>174</ele>
        <time>2018-09-13T10:31:12Z</time>
      </trkpt>
      <trkpt lat="45.92192" lon="4.75656">
        <ele>174</ele>
        <time>2018-09-13T10:31:13Z</time>
      </trkpt>
      <trkpt lat="45.92186" lon="4.75652">
        <ele>174</ele>
        <time>2018-09-13T10:31:14Z</time>
      </trkpt>
      <trkpt lat="45.92182" lon="4.75646">
        <ele>174</ele>
        <time>2018-09-13T10:31:15Z</time>
      </trkpt>
      <trkpt lat="45.92177" lon="4.75641">
        <ele>174</ele>
        <time>2018-09-13T10:31:16Z</time>
      </trkpt>
      <trkpt lat="45.92173" lon="4.75638">
        <ele>174</ele>
        <time>2018-09-13T10:31:17Z</time>
      </trkpt>
      <trkpt lat="45.92169" lon="4.75634">
        <ele>174</ele>
        <time>2018-09-13T10:31:18Z</time>
      </trkpt>
      <trkpt lat="45.92165" lon="4.75629">
        <ele>174</ele>
        <time>2018-09-13T10:31:19Z</time>
      </trkpt>
      <trkpt lat="45.9216" lon="4.75623">
        <ele>174</ele>
        <time>2018-09-13T10:31:20Z</time>
      </trkpt>
      <trkpt lat="45.92155" lon="4.7562">
        <ele>174</ele>
        <time>2018-09-13T10:31:21Z</time>
      </trkpt>
      <trkpt lat="45.92151" lon="4.75615">
        <ele>174</ele>
        <time>2018-09-13T10:31:22Z</time>
      </trkpt>
      <trkpt lat="45.92146" lon="4.75612">
        <ele>174</ele>
        <time>2018-09-13T10:31:23Z</time>
      </trkpt>
      <trkpt lat="45.92142" lon="4.75608">
        <ele>174</ele>
        <time>2018-09-13T10:31:24Z</time>
      </trkpt>
      <trkpt lat="45.92138" lon="4.75604">
        <ele>174</ele>
        <time>2018-09-13T10:31:25Z</time>
      </trkpt>
      <trkpt lat="45.92135" lon="4.75599">
        <ele>174</ele>
        <time>2018-09-13T10:31:26Z</time>
      </trkpt>
      <trkpt lat="45.92131" lon="4.75596">
        <ele>174</ele>
        <time>2018-09-13T10:31:27Z</time>
      </trkpt>
      <trkpt lat="45.92124" lon="4.7559">
        <ele>174</ele>
        <time>2018-09-13T10:31:29Z</time>
      </trkpt>
      <trkpt lat="45.92121" lon="4.75585">
        <ele>174</ele>
        <time>2018-09-13T10:31:30Z</time>
      </trkpt>
      <trkpt lat="45.92117" lon="4.75575">
        <ele>174</ele>
        <time>2018-09-13T10:31:32Z</time>
      </trkpt>
      <trkpt lat="45.92116" lon="4.75569">
        <ele>174</ele>
        <time>2018-09-13T10:31:33Z</time>
      </trkpt>
      <trkpt lat="45.9212" lon="4.75562">
        <ele>174</ele>
        <time>2018-09-13T10:31:34Z</time>
      </trkpt>
      <trkpt lat="45.92122" lon="4.75558">
        <ele>174</ele>
        <time>2018-09-13T10:31:35Z</time>
      </trkpt>
      <trkpt lat="45.92124" lon="4.75552">
        <ele>174</ele>
        <time>2018-09-13T10:31:36Z</time>
      </trkpt>
      <trkpt lat="45.92127" lon="4.75545">
        <ele>174</ele>
        <time>2018-09-13T10:31:37Z</time>
      </trkpt>
      <trkpt lat="45.9213" lon="4.75539">
        <ele>174</ele>
        <time>2018-09-13T10:31:38Z</time>
      </trkpt>
      <trkpt lat="45.92134" lon="4.75533">
        <ele>174</ele>
        <time>2018-09-13T10:31:39Z</time>
      </trkpt>
      <trkpt lat="45.92137" lon="4.75526">
        <ele>174</ele>
        <time>2018-09-13T10:31:40Z</time>
      </trkpt>
      <trkpt lat="45.9214" lon="4.75521">
        <ele>174</ele>
        <time>2018-09-13T10:31:41Z</time>
      </trkpt>
      <trkpt lat="45.92144" lon="4.75516">
        <ele>174</ele>
        <time>2018-09-13T10:31:42Z</time>
      </trkpt>
      <trkpt lat="45.92147" lon="4.7551">
        <ele>175</ele>
        <time>2018-09-13T10:31:43Z</time>
      </trkpt>
      <trkpt lat="45.9215" lon="4.75503">
        <ele>175</ele>
        <time>2018-09-13T10:31:44Z</time>
      </trkpt>
      <trkpt lat="45.92151" lon="4.75498">
        <ele>175</ele>
        <time>2018-09-13T10:31:45Z</time>
      </trkpt>
      <trkpt lat="45.92154" lon="4.75488">
        <ele>175</ele>
        <time>2018-09-13T10:31:47Z</time>
      </trkpt>
      <trkpt lat="45.92156" lon="4.75485">
        <ele>176</ele>
        <time>2018-09-13T10:31:48Z</time>
      </trkpt>
      <trkpt lat="45.92158" lon="4.75478">
        <ele>176</ele>
        <time>2018-09-13T10:31:49Z</time>
      </trkpt>
      <trkpt lat="45.92161" lon="4.75472">
        <ele>176</ele>
        <time>2018-09-13T10:31:50Z</time>
      </trkpt>
      <trkpt lat="45.92163" lon="4.75466">
        <ele>176</ele>
        <time>2018-09-13T10:31:51Z</time>
      </trkpt>
      <trkpt lat="45.92165" lon="4.75459">
        <ele>176</ele>
        <time>2018-09-13T10:31:52Z</time>
      </trkpt>
      <trkpt lat="45.92168" lon="4.75453">
        <ele>176</ele>
        <time>2018-09-13T10:31:53Z</time>
      </trkpt>
      <trkpt lat="45.9217" lon="4.75445">
        <ele>176</ele>
        <time>2018-09-13T10:31:54Z</time>
      </trkpt>
      <trkpt lat="45.92173" lon="4.7544">
        <ele>177</ele>
        <time>2018-09-13T10:31:55Z</time>
      </trkpt>
      <trkpt lat="45.92175" lon="4.75434">
        <ele>177</ele>
        <time>2018-09-13T10:31:56Z</time>
      </trkpt>
      <trkpt lat="45.92177" lon="4.75427">
        <ele>177</ele>
        <time>2018-09-13T10:31:57Z</time>
      </trkpt>
      <trkpt lat="45.9218" lon="4.75419">
        <ele>177</ele>
        <time>2018-09-13T10:31:58Z</time>
      </trkpt>
      <trkpt lat="45.92181" lon="4.75412">
        <ele>177</ele>
        <time>2018-09-13T10:31:59Z</time>
      </trkpt>
      <trkpt lat="45.92184" lon="4.75404">
        <ele>177</ele>
        <time>2018-09-13T10:32:00Z</time>
      </trkpt>
      <trkpt lat="45.92187" lon="4.75395">
        <ele>177</ele>
        <time>2018-09-13T10:32:01Z</time>
      </trkpt>
      <trkpt lat="45.92191" lon="4.75387">
        <ele>177</ele>
        <time>2018-09-13T10:32:02Z</time>
      </trkpt>
      <trkpt lat="45.92193" lon="4.75381">
        <ele>177</ele>
        <time>2018-09-13T10:32:03Z</time>
      </trkpt>
      <trkpt lat="45.92195" lon="4.75375">
        <ele>177</ele>
        <time>2018-09-13T10:32:04Z</time>
      </trkpt>
      <trkpt lat="45.92197" lon="4.7537">
        <ele>177</ele>
        <time>2018-09-13T10:32:05Z</time>
      </trkpt>
      <trkpt lat="45.922" lon="4.75363">
        <ele>177</ele>
        <time>2018-09-13T10:32:06Z</time>
      </trkpt>
      <trkpt lat="45.92203" lon="4.75352">
        <ele>177</ele>
        <time>2018-09-13T10:32:08Z</time>
      </trkpt>
      <trkpt lat="45.92205" lon="4.75346">
        <ele>177</ele>
        <time>2018-09-13T10:32:09Z</time>
      </trkpt>
      <trkpt lat="45.92207" lon="4.7534">
        <ele>177</ele>
        <time>2018-09-13T10:32:10Z</time>
      </trkpt>
      <trkpt lat="45.92209" lon="4.75332">
        <ele>176</ele>
        <time>2018-09-13T10:32:11Z</time>
      </trkpt>
      <trkpt lat="45.92211" lon="4.75325">
        <ele>176</ele>
        <time>2018-09-13T10:32:12Z</time>
      </trkpt>
      <trkpt lat="45.92211" lon="4.75317">
        <ele>176</ele>
        <time>2018-09-13T10:32:13Z</time>
      </trkpt>
      <trkpt lat="45.92212" lon="4.75309">
        <ele>176</ele>
        <time>2018-09-13T10:32:14Z</time>
      </trkpt>
      <trkpt lat="45.92214" lon="4.75301">
        <ele>176</ele>
        <time>2018-09-13T10:32:15Z</time>
      </trkpt>
      <trkpt lat="45.92214" lon="4.75293">
        <ele>176</ele>
        <time>2018-09-13T10:32:16Z</time>
      </trkpt>
      <trkpt lat="45.92214" lon="4.75285">
        <ele>176</ele>
        <time>2018-09-13T10:32:17Z</time>
      </trkpt>
      <trkpt lat="45.92215" lon="4.75278">
        <ele>176</ele>
        <time>2018-09-13T10:32:18Z</time>
      </trkpt>
      <trkpt lat="45.92215" lon="4.75269">
        <ele>176</ele>
        <time>2018-09-13T10:32:19Z</time>
      </trkpt>
      <trkpt lat="45.92215" lon="4.75259">
        <ele>175</ele>
        <time>2018-09-13T10:32:20Z</time>
      </trkpt>
      <trkpt lat="45.92216" lon="4.7525">
        <ele>175</ele>
        <time>2018-09-13T10:32:21Z</time>
      </trkpt>
      <trkpt lat="45.92216" lon="4.75242">
        <ele>175</ele>
        <time>2018-09-13T10:32:22Z</time>
      </trkpt>
      <trkpt lat="45.92217" lon="4.75233">
        <ele>175</ele>
        <time>2018-09-13T10:32:23Z</time>
      </trkpt>
      <trkpt lat="45.92218" lon="4.75224">
        <ele>175</ele>
        <time>2018-09-13T10:32:24Z</time>
      </trkpt>
      <trkpt lat="45.92218" lon="4.75216">
        <ele>175</ele>
        <time>2018-09-13T10:32:25Z</time>
      </trkpt>
      <trkpt lat="45.9222" lon="4.75208">
        <ele>175</ele>
        <time>2018-09-13T10:32:26Z</time>
      </trkpt>
      <trkpt lat="45.92222" lon="4.75198">
        <ele>175</ele>
        <time>2018-09-13T10:32:27Z</time>
      </trkpt>
      <trkpt lat="45.92224" lon="4.7519">
        <ele>175</ele>
        <time>2018-09-13T10:32:28Z</time>
      </trkpt>
      <trkpt lat="45.92226" lon="4.75181">
        <ele>175</ele>
        <time>2018-09-13T10:32:29Z</time>
      </trkpt>
      <trkpt lat="45.92229" lon="4.75172">
        <ele>175</ele>
        <time>2018-09-13T10:32:30Z</time>
      </trkpt>
      <trkpt lat="45.92233" lon="4.75164">
        <ele>174</ele>
        <time>2018-09-13T10:32:31Z</time>
      </trkpt>
      <trkpt lat="45.92236" lon="4.75157">
        <ele>174</ele>
        <time>2018-09-13T10:32:32Z</time>
      </trkpt>
      <trkpt lat="45.92238" lon="4.7515">
        <ele>174</ele>
        <time>2018-09-13T10:32:33Z</time>
      </trkpt>
      <trkpt lat="45.92243" lon="4.75142">
        <ele>174</ele>
        <time>2018-09-13T10:32:34Z</time>
      </trkpt>
      <trkpt lat="45.92247" lon="4.75134">
        <ele>174</ele>
        <time>2018-09-13T10:32:35Z</time>
      </trkpt>
      <trkpt lat="45.92251" lon="4.75128">
        <ele>174</ele>
        <time>2018-09-13T10:32:36Z</time>
      </trkpt>
      <trkpt lat="45.92256" lon="4.75123">
        <ele>174</ele>
        <time>2018-09-13T10:32:37Z</time>
      </trkpt>
      <trkpt lat="45.92259" lon="4.75119">
        <ele>174</ele>
        <time>2018-09-13T10:32:38Z</time>
      </trkpt>
      <trkpt lat="45.92264" lon="4.75114">
        <ele>174</ele>
        <time>2018-09-13T10:32:39Z</time>
      </trkpt>
      <trkpt lat="45.92269" lon="4.75109">
        <ele>174</ele>
        <time>2018-09-13T10:32:40Z</time>
      </trkpt>
      <trkpt lat="45.92273" lon="4.75105">
        <ele>174</ele>
        <time>2018-09-13T10:32:41Z</time>
      </trkpt>
      <trkpt lat="45.92278" lon="4.751">
        <ele>173</ele>
        <time>2018-09-13T10:32:42Z</time>
      </trkpt>
      <trkpt lat="45.92282" lon="4.75096">
        <ele>173</ele>
        <time>2018-09-13T10:32:43Z</time>
      </trkpt>
      <trkpt lat="45.92286" lon="4.7509">
        <ele>173</ele>
        <time>2018-09-13T10:32:44Z</time>
      </trkpt>
      <trkpt lat="45.92291" lon="4.75086">
        <ele>173</ele>
        <time>2018-09-13T10:32:45Z</time>
      </trkpt>
      <trkpt lat="45.92296" lon="4.75081">
        <ele>172</ele>
        <time>2018-09-13T10:32:46Z</time>
      </trkpt>
      <trkpt lat="45.923" lon="4.75077">
        <ele>172</ele>
        <time>2018-09-13T10:32:47Z</time>
      </trkpt>
      <trkpt lat="45.92305" lon="4.75072">
        <ele>172</ele>
        <time>2018-09-13T10:32:48Z</time>
      </trkpt>
      <trkpt lat="45.92309" lon="4.75066">
        <ele>172</ele>
        <time>2018-09-13T10:32:49Z</time>
      </trkpt>
      <trkpt lat="45.92314" lon="4.7506">
        <ele>172</ele>
        <time>2018-09-13T10:32:50Z</time>
      </trkpt>
      <trkpt lat="45.92318" lon="4.75053">
        <ele>172</ele>
        <time>2018-09-13T10:32:51Z</time>
      </trkpt>
      <trkpt lat="45.92323" lon="4.75046">
        <ele>172</ele>
        <time>2018-09-13T10:32:52Z</time>
      </trkpt>
      <trkpt lat="45.92326" lon="4.7504">
        <ele>171</ele>
        <time>2018-09-13T10:32:53Z</time>
      </trkpt>
      <trkpt lat="45.92329" lon="4.75035">
        <ele>171</ele>
        <time>2018-09-13T10:32:54Z</time>
      </trkpt>
      <trkpt lat="45.92333" lon="4.75029">
        <ele>171</ele>
        <time>2018-09-13T10:32:55Z</time>
      </trkpt>
      <trkpt lat="45.92336" lon="4.75024">
        <ele>170</ele>
        <time>2018-09-13T10:32:56Z</time>
      </trkpt>
      <trkpt lat="45.92339" lon="4.75019">
        <ele>170</ele>
        <time>2018-09-13T10:32:57Z</time>
      </trkpt>
      <trkpt lat="45.92342" lon="4.75012">
        <ele>170</ele>
        <time>2018-09-13T10:32:58Z</time>
      </trkpt>
      <trkpt lat="45.92345" lon="4.75004">
        <ele>170</ele>
        <time>2018-09-13T10:32:59Z</time>
      </trkpt>
      <trkpt lat="45.92348" lon="4.74997">
        <ele>170</ele>
        <time>2018-09-13T10:33:00Z</time>
      </trkpt>
      <trkpt lat="45.92351" lon="4.7499">
        <ele>170</ele>
        <time>2018-09-13T10:33:01Z</time>
      </trkpt>
      <trkpt lat="45.92353" lon="4.74983">
        <ele>170</ele>
        <time>2018-09-13T10:33:02Z</time>
      </trkpt>
      <trkpt lat="45.92355" lon="4.74976">
        <ele>170</ele>
        <time>2018-09-13T10:33:03Z</time>
      </trkpt>
      <trkpt lat="45.92358" lon="4.74969">
        <ele>170</ele>
        <time>2018-09-13T10:33:04Z</time>
      </trkpt>
      <trkpt lat="45.92359" lon="4.74962">
        <ele>170</ele>
        <time>2018-09-13T10:33:05Z</time>
      </trkpt>
      <trkpt lat="45.92362" lon="4.74954">
        <ele>170</ele>
        <time>2018-09-13T10:33:06Z</time>
      </trkpt>
      <trkpt lat="45.92368" lon="4.74947">
        <ele>170</ele>
        <time>2018-09-13T10:33:07Z</time>
      </trkpt>
      <trkpt lat="45.92371" lon="4.74939">
        <ele>170</ele>
        <time>2018-09-13T10:33:08Z</time>
      </trkpt>
      <trkpt lat="45.92375" lon="4.74929">
        <ele>170</ele>
        <time>2018-09-13T10:33:09Z</time>
      </trkpt>
      <trkpt lat="45.92378" lon="4.74922">
        <ele>170</ele>
        <time>2018-09-13T10:33:10Z</time>
      </trkpt>
      <trkpt lat="45.92382" lon="4.74915">
        <ele>171</ele>
        <time>2018-09-13T10:33:11Z</time>
      </trkpt>
      <trkpt lat="45.92386" lon="4.74907">
        <ele>171</ele>
        <time>2018-09-13T10:33:12Z</time>
      </trkpt>
      <trkpt lat="45.92389" lon="4.74897">
        <ele>171</ele>
        <time>2018-09-13T10:33:13Z</time>
      </trkpt>
      <trkpt lat="45.92391" lon="4.7489">
        <ele>171</ele>
        <time>2018-09-13T10:33:14Z</time>
      </trkpt>
      <trkpt lat="45.92394" lon="4.74884">
        <ele>171</ele>
        <time>2018-09-13T10:33:15Z</time>
      </trkpt>
      <trkpt lat="45.92397" lon="4.74875">
        <ele>171</ele>
        <time>2018-09-13T10:33:17Z</time>
      </trkpt>
      <trkpt lat="45.92399" lon="4.74869">
        <ele>171</ele>
        <time>2018-09-13T10:33:18Z</time>
      </trkpt>
      <trkpt lat="45.92401" lon="4.74862">
        <ele>171</ele>
        <time>2018-09-13T10:33:19Z</time>
      </trkpt>
      <trkpt lat="45.92403" lon="4.74856">
        <ele>171</ele>
        <time>2018-09-13T10:33:20Z</time>
      </trkpt>
      <trkpt lat="45.92407" lon="4.74848">
        <ele>171</ele>
        <time>2018-09-13T10:33:21Z</time>
      </trkpt>
      <trkpt lat="45.92409" lon="4.74844">
        <ele>171</ele>
        <time>2018-09-13T10:33:22Z</time>
      </trkpt>
      <trkpt lat="45.92411" lon="4.74834">
        <ele>171</ele>
        <time>2018-09-13T10:33:23Z</time>
      </trkpt>
      <trkpt lat="45.92413" lon="4.74827">
        <ele>171</ele>
        <time>2018-09-13T10:33:24Z</time>
      </trkpt>
      <trkpt lat="45.92414" lon="4.74821">
        <ele>171</ele>
        <time>2018-09-13T10:33:25Z</time>
      </trkpt>
      <trkpt lat="45.92415" lon="4.74814">
        <ele>171</ele>
        <time>2018-09-13T10:33:26Z</time>
      </trkpt>
      <trkpt lat="45.92416" lon="4.74805">
        <ele>171</ele>
        <time>2018-09-13T10:33:27Z</time>
      </trkpt>
      <trkpt lat="45.92416" lon="4.74797">
        <ele>171</ele>
        <time>2018-09-13T10:33:28Z</time>
      </trkpt>
      <trkpt lat="45.92416" lon="4.74789">
        <ele>171</ele>
        <time>2018-09-13T10:33:29Z</time>
      </trkpt>
      <trkpt lat="45.92417" lon="4.74782">
        <ele>171</ele>
        <time>2018-09-13T10:33:30Z</time>
      </trkpt>
      <trkpt lat="45.92419" lon="4.74775">
        <ele>171</ele>
        <time>2018-09-13T10:33:31Z</time>
      </trkpt>
      <trkpt lat="45.9242" lon="4.74768">
        <ele>171</ele>
        <time>2018-09-13T10:33:32Z</time>
      </trkpt>
      <trkpt lat="45.92421" lon="4.7476">
        <ele>171</ele>
        <time>2018-09-13T10:33:33Z</time>
      </trkpt>
      <trkpt lat="45.92423" lon="4.74753">
        <ele>172</ele>
        <time>2018-09-13T10:33:34Z</time>
      </trkpt>
      <trkpt lat="45.92425" lon="4.74745">
        <ele>172</ele>
        <time>2018-09-13T10:33:35Z</time>
      </trkpt>
      <trkpt lat="45.92426" lon="4.74738">
        <ele>171</ele>
        <time>2018-09-13T10:33:36Z</time>
      </trkpt>
      <trkpt lat="45.92429" lon="4.74731">
        <ele>171</ele>
        <time>2018-09-13T10:33:37Z</time>
      </trkpt>
      <trkpt lat="45.92431" lon="4.74724">
        <ele>171</ele>
        <time>2018-09-13T10:33:38Z</time>
      </trkpt>
      <trkpt lat="45.92434" lon="4.74718">
        <ele>171</ele>
        <time>2018-09-13T10:33:39Z</time>
      </trkpt>
      <trkpt lat="45.92438" lon="4.74713">
        <ele>171</ele>
        <time>2018-09-13T10:33:40Z</time>
      </trkpt>
      <trkpt lat="45.92439" lon="4.74707">
        <ele>171</ele>
        <time>2018-09-13T10:33:41Z</time>
      </trkpt>
      <trkpt lat="45.9244" lon="4.74697">
        <ele>171</ele>
        <time>2018-09-13T10:33:42Z</time>
      </trkpt>
      <trkpt lat="45.92443" lon="4.7469">
        <ele>171</ele>
        <time>2018-09-13T10:33:43Z</time>
      </trkpt>
      <trkpt lat="45.92446" lon="4.74683">
        <ele>171</ele>
        <time>2018-09-13T10:33:44Z</time>
      </trkpt>
      <trkpt lat="45.9245" lon="4.74678">
        <ele>171</ele>
        <time>2018-09-13T10:33:45Z</time>
      </trkpt>
      <trkpt lat="45.92452" lon="4.7467">
        <ele>171</ele>
        <time>2018-09-13T10:33:46Z</time>
      </trkpt>
      <trkpt lat="45.92455" lon="4.74664">
        <ele>171</ele>
        <time>2018-09-13T10:33:47Z</time>
      </trkpt>
      <trkpt lat="45.92459" lon="4.74657">
        <ele>171</ele>
        <time>2018-09-13T10:33:48Z</time>
      </trkpt>
      <trkpt lat="45.92464" lon="4.74648">
        <ele>171</ele>
        <time>2018-09-13T10:33:50Z</time>
      </trkpt>
      <trkpt lat="45.92467" lon="4.74644">
        <ele>171</ele>
        <time>2018-09-13T10:33:51Z</time>
      </trkpt>
      <trkpt lat="45.92475" lon="4.74642">
        <ele>171</ele>
        <time>2018-09-13T10:33:52Z</time>
      </trkpt>
      <trkpt lat="45.9248" lon="4.7464">
        <ele>171</ele>
        <time>2018-09-13T10:33:53Z</time>
      </trkpt>
      <trkpt lat="45.92485" lon="4.74631">
        <ele>171</ele>
        <time>2018-09-13T10:33:54Z</time>
      </trkpt>
      <trkpt lat="45.92487" lon="4.74624">
        <ele>171</ele>
        <time>2018-09-13T10:33:55Z</time>
      </trkpt>
      <trkpt lat="45.92492" lon="4.74618">
        <ele>171</ele>
        <time>2018-09-13T10:33:56Z</time>
      </trkpt>
      <trkpt lat="45.92499" lon="4.74613">
        <ele>171</ele>
        <time>2018-09-13T10:33:57Z</time>
      </trkpt>
      <trkpt lat="45.92504" lon="4.74605">
        <ele>171</ele>
        <time>2018-09-13T10:33:59Z</time>
      </trkpt>
      <trkpt lat="45.92508" lon="4.74599">
        <ele>171</ele>
        <time>2018-09-13T10:34:00Z</time>
      </trkpt>
      <trkpt lat="45.92512" lon="4.74593">
        <ele>171</ele>
        <time>2018-09-13T10:34:01Z</time>
      </trkpt>
      <trkpt lat="45.92516" lon="4.74588">
        <ele>171</ele>
        <time>2018-09-13T10:34:02Z</time>
      </trkpt>
      <trkpt lat="45.92519" lon="4.74583">
        <ele>171</ele>
        <time>2018-09-13T10:34:03Z</time>
      </trkpt>
      <trkpt lat="45.92523" lon="4.74579">
        <ele>171</ele>
        <time>2018-09-13T10:34:04Z</time>
      </trkpt>
      <trkpt lat="45.92526" lon="4.74573">
        <ele>171</ele>
        <time>2018-09-13T10:34:05Z</time>
      </trkpt>
      <trkpt lat="45.9253" lon="4.74568">
        <ele>171</ele>
        <time>2018-09-13T10:34:06Z</time>
      </trkpt>
      <trkpt lat="45.92534" lon="4.74563">
        <ele>171</ele>
        <time>2018-09-13T10:34:07Z</time>
      </trkpt>
      <trkpt lat="45.92537" lon="4.74558">
        <ele>171</ele>
        <time>2018-09-13T10:34:08Z</time>
      </trkpt>
      <trkpt lat="45.9254" lon="4.74552">
        <ele>171</ele>
        <time>2018-09-13T10:34:09Z</time>
      </trkpt>
      <trkpt lat="45.92544" lon="4.74546">
        <ele>170</ele>
        <time>2018-09-13T10:34:10Z</time>
      </trkpt>
      <trkpt lat="45.92547" lon="4.74541">
        <ele>170</ele>
        <time>2018-09-13T10:34:11Z</time>
      </trkpt>
      <trkpt lat="45.9255" lon="4.74533">
        <ele>170</ele>
        <time>2018-09-13T10:34:12Z</time>
      </trkpt>
      <trkpt lat="45.92553" lon="4.74528">
        <ele>170</ele>
        <time>2018-09-13T10:34:13Z</time>
      </trkpt>
      <trkpt lat="45.92556" lon="4.74522">
        <ele>170</ele>
        <time>2018-09-13T10:34:14Z</time>
      </trkpt>
      <trkpt lat="45.92559" lon="4.74516">
        <ele>170</ele>
        <time>2018-09-13T10:34:15Z</time>
      </trkpt>
      <trkpt lat="45.92562" lon="4.7451">
        <ele>170</ele>
        <time>2018-09-13T10:34:16Z</time>
      </trkpt>
      <trkpt lat="45.92566" lon="4.74504">
        <ele>170</ele>
        <time>2018-09-13T10:34:17Z</time>
      </trkpt>
      <trkpt lat="45.92569" lon="4.74498">
        <ele>170</ele>
        <time>2018-09-13T10:34:18Z</time>
      </trkpt>
      <trkpt lat="45.92575" lon="4.74488">
        <ele>170</ele>
        <time>2018-09-13T10:34:19Z</time>
      </trkpt>
      <trkpt lat="45.9258" lon="4.74478">
        <ele>170</ele>
        <time>2018-09-13T10:34:21Z</time>
      </trkpt>
      <trkpt lat="45.92583" lon="4.74473">
        <ele>170</ele>
        <time>2018-09-13T10:34:22Z</time>
      </trkpt>
      <trkpt lat="45.92586" lon="4.74469">
        <ele>170</ele>
        <time>2018-09-13T10:34:23Z</time>
      </trkpt>
      <trkpt lat="45.92589" lon="4.74462">
        <ele>170</ele>
        <time>2018-09-13T10:34:24Z</time>
      </trkpt>
      <trkpt lat="45.92594" lon="4.74453">
        <ele>170</ele>
        <time>2018-09-13T10:34:26Z</time>
      </trkpt>
      <trkpt lat="45.92597" lon="4.74448">
        <ele>170</ele>
        <time>2018-09-13T10:34:27Z</time>
      </trkpt>
      <trkpt lat="45.926" lon="4.74443">
        <ele>170</ele>
        <time>2018-09-13T10:34:28Z</time>
      </trkpt>
      <trkpt lat="45.92601" lon="4.74436">
        <ele>170</ele>
        <time>2018-09-13T10:34:29Z</time>
      </trkpt>
      <trkpt lat="45.92606" lon="4.74427">
        <ele>170</ele>
        <time>2018-09-13T10:34:31Z</time>
      </trkpt>
      <trkpt lat="45.92608" lon="4.74421">
        <ele>170</ele>
        <time>2018-09-13T10:34:32Z</time>
      </trkpt>
      <trkpt lat="45.92613" lon="4.74416">
        <ele>170</ele>
        <time>2018-09-13T10:34:33Z</time>
      </trkpt>
      <trkpt lat="45.92616" lon="4.7441">
        <ele>170</ele>
        <time>2018-09-13T10:34:34Z</time>
      </trkpt>
      <trkpt lat="45.9262" lon="4.74403">
        <ele>170</ele>
        <time>2018-09-13T10:34:35Z</time>
      </trkpt>
      <trkpt lat="45.92623" lon="4.74398">
        <ele>170</ele>
        <time>2018-09-13T10:34:36Z</time>
      </trkpt>
      <trkpt lat="45.92627" lon="4.74393">
        <ele>170</ele>
        <time>2018-09-13T10:34:37Z</time>
      </trkpt>
      <trkpt lat="45.9263" lon="4.74386">
        <ele>170</ele>
        <time>2018-09-13T10:34:38Z</time>
      </trkpt>
      <trkpt lat="45.92634" lon="4.74381">
        <ele>170</ele>
        <time>2018-09-13T10:34:39Z</time>
      </trkpt>
      <trkpt lat="45.92637" lon="4.74374">
        <ele>171</ele>
        <time>2018-09-13T10:34:40Z</time>
      </trkpt>
      <trkpt lat="45.92641" lon="4.74368">
        <ele>171</ele>
        <time>2018-09-13T10:34:41Z</time>
      </trkpt>
      <trkpt lat="45.92643" lon="4.7436">
        <ele>171</ele>
        <time>2018-09-13T10:34:42Z</time>
      </trkpt>
      <trkpt lat="45.92647" lon="4.74356">
        <ele>171</ele>
        <time>2018-09-13T10:34:43Z</time>
      </trkpt>
      <trkpt lat="45.92651" lon="4.74349">
        <ele>171</ele>
        <time>2018-09-13T10:34:44Z</time>
      </trkpt>
      <trkpt lat="45.92655" lon="4.74344">
        <ele>171</ele>
        <time>2018-09-13T10:34:45Z</time>
      </trkpt>
      <trkpt lat="45.92658" lon="4.74336">
        <ele>171</ele>
        <time>2018-09-13T10:34:46Z</time>
      </trkpt>
      <trkpt lat="45.92662" lon="4.74331">
        <ele>171</ele>
        <time>2018-09-13T10:34:47Z</time>
      </trkpt>
      <trkpt lat="45.92665" lon="4.74325">
        <ele>171</ele>
        <time>2018-09-13T10:34:48Z</time>
      </trkpt>
      <trkpt lat="45.92669" lon="4.74319">
        <ele>171</ele>
        <time>2018-09-13T10:34:49Z</time>
      </trkpt>
      <trkpt lat="45.92672" lon="4.74312">
        <ele>171</ele>
        <time>2018-09-13T10:34:50Z</time>
      </trkpt>
      <trkpt lat="45.92675" lon="4.74307">
        <ele>171</ele>
        <time>2018-09-13T10:34:51Z</time>
      </trkpt>
      <trkpt lat="45.92677" lon="4.74302">
        <ele>171</ele>
        <time>2018-09-13T10:34:52Z</time>
      </trkpt>
      <trkpt lat="45.92681" lon="4.74295">
        <ele>171</ele>
        <time>2018-09-13T10:34:53Z</time>
      </trkpt>
      <trkpt lat="45.92683" lon="4.74289">
        <ele>171</ele>
        <time>2018-09-13T10:34:54Z</time>
      </trkpt>
      <trkpt lat="45.92687" lon="4.74283">
        <ele>171</ele>
        <time>2018-09-13T10:34:55Z</time>
      </trkpt>
      <trkpt lat="45.9269" lon="4.74278">
        <ele>171</ele>
        <time>2018-09-13T10:34:56Z</time>
      </trkpt>
      <trkpt lat="45.92693" lon="4.74272">
        <ele>171</ele>
        <time>2018-09-13T10:34:57Z</time>
      </trkpt>
      <trkpt lat="45.92697" lon="4.74266">
        <ele>171</ele>
        <time>2018-09-13T10:34:58Z</time>
      </trkpt>
      <trkpt lat="45.92702" lon="4.7426">
        <ele>171</ele>
        <time>2018-09-13T10:34:59Z</time>
      </trkpt>
      <trkpt lat="45.92706" lon="4.74254">
        <ele>171</ele>
        <time>2018-09-13T10:35:00Z</time>
      </trkpt>
      <trkpt lat="45.9271" lon="4.74247">
        <ele>171</ele>
        <time>2018-09-13T10:35:01Z</time>
      </trkpt>
      <trkpt lat="45.92714" lon="4.74241">
        <ele>171</ele>
        <time>2018-09-13T10:35:02Z</time>
      </trkpt>
      <trkpt lat="45.92718" lon="4.74235">
        <ele>171</ele>
        <time>2018-09-13T10:35:03Z</time>
      </trkpt>
      <trkpt lat="45.92722" lon="4.74231">
        <ele>171</ele>
        <time>2018-09-13T10:35:04Z</time>
      </trkpt>
      <trkpt lat="45.92728" lon="4.74223">
        <ele>171</ele>
        <time>2018-09-13T10:35:06Z</time>
      </trkpt>
      <trkpt lat="45.92731" lon="4.74221">
        <ele>171</ele>
        <time>2018-09-13T10:35:07Z</time>
      </trkpt>
      <trkpt lat="45.92735" lon="4.74215">
        <ele>171</ele>
        <time>2018-09-13T10:35:08Z</time>
      </trkpt>
      <trkpt lat="45.92739" lon="4.74211">
        <ele>171</ele>
        <time>2018-09-13T10:35:09Z</time>
      </trkpt>
      <trkpt lat="45.92743" lon="4.74205">
        <ele>171</ele>
        <time>2018-09-13T10:35:10Z</time>
      </trkpt>
      <trkpt lat="45.92746" lon="4.74199">
        <ele>171</ele>
        <time>2018-09-13T10:35:11Z</time>
      </trkpt>
      <trkpt lat="45.9275" lon="4.74194">
        <ele>172</ele>
        <time>2018-09-13T10:35:12Z</time>
      </trkpt>
      <trkpt lat="45.92754" lon="4.74188">
        <ele>172</ele>
        <time>2018-09-13T10:35:13Z</time>
      </trkpt>
      <trkpt lat="45.92758" lon="4.74183">
        <ele>172</ele>
        <time>2018-09-13T10:35:14Z</time>
      </trkpt>
      <trkpt lat="45.92762" lon="4.74179">
        <ele>172</ele>
        <time>2018-09-13T10:35:15Z</time>
      </trkpt>
      <trkpt lat="45.92766" lon="4.74175">
        <ele>172</ele>
        <time>2018-09-13T10:35:16Z</time>
      </trkpt>
      <trkpt lat="45.9277" lon="4.74171">
        <ele>172</ele>
        <time>2018-09-13T10:35:17Z</time>
      </trkpt>
      <trkpt lat="45.92774" lon="4.74166">
        <ele>172</ele>
        <time>2018-09-13T10:35:18Z</time>
      </trkpt>
      <trkpt lat="45.92779" lon="4.74162">
        <ele>172</ele>
        <time>2018-09-13T10:35:19Z</time>
      </trkpt>
      <trkpt lat="45.92783" lon="4.74158">
        <ele>172</ele>
        <time>2018-09-13T10:35:20Z</time>
      </trkpt>
      <trkpt lat="45.92788" lon="4.74153">
        <ele>172</ele>
        <time>2018-09-13T10:35:21Z</time>
      </trkpt>
      <trkpt lat="45.92793" lon="4.74148">
        <ele>172</ele>
        <time>2018-09-13T10:35:22Z</time>
      </trkpt>
      <trkpt lat="45.92798" lon="4.74142">
        <ele>172</ele>
        <time>2018-09-13T10:35:23Z</time>
      </trkpt>
      <trkpt lat="45.92804" lon="4.74137">
        <ele>172</ele>
        <time>2018-09-13T10:35:24Z</time>
      </trkpt>
      <trkpt lat="45.92809" lon="4.7413">
        <ele>172</ele>
        <time>2018-09-13T10:35:25Z</time>
      </trkpt>
      <trkpt lat="45.92813" lon="4.74125">
        <ele>172</ele>
        <time>2018-09-13T10:35:26Z</time>
      </trkpt>
      <trkpt lat="45.92818" lon="4.74121">
        <ele>172</ele>
        <time>2018-09-13T10:35:27Z</time>
      </trkpt>
      <trkpt lat="45.92822" lon="4.74115">
        <ele>172</ele>
        <time>2018-09-13T10:35:28Z</time>
      </trkpt>
      <trkpt lat="45.92827" lon="4.7411">
        <ele>171</ele>
        <time>2018-09-13T10:35:29Z</time>
      </trkpt>
      <trkpt lat="45.9283" lon="4.74106">
        <ele>171</ele>
        <time>2018-09-13T10:35:30Z</time>
      </trkpt>
      <trkpt lat="45.92834" lon="4.741">
        <ele>171</ele>
        <time>2018-09-13T10:35:31Z</time>
      </trkpt>
      <trkpt lat="45.92838" lon="4.74096">
        <ele>171</ele>
        <time>2018-09-13T10:35:32Z</time>
      </trkpt>
      <trkpt lat="45.92842" lon="4.7409">
        <ele>171</ele>
        <time>2018-09-13T10:35:33Z</time>
      </trkpt>
      <trkpt lat="45.92846" lon="4.74084">
        <ele>171</ele>
        <time>2018-09-13T10:35:34Z</time>
      </trkpt>
      <trkpt lat="45.92849" lon="4.74079">
        <ele>172</ele>
        <time>2018-09-13T10:35:35Z</time>
      </trkpt>
      <trkpt lat="45.92853" lon="4.74074">
        <ele>172</ele>
        <time>2018-09-13T10:35:36Z</time>
      </trkpt>
      <trkpt lat="45.92856" lon="4.74067">
        <ele>172</ele>
        <time>2018-09-13T10:35:37Z</time>
      </trkpt>
      <trkpt lat="45.9286" lon="4.74062">
        <ele>172</ele>
        <time>2018-09-13T10:35:38Z</time>
      </trkpt>
      <trkpt lat="45.92863" lon="4.74057">
        <ele>172</ele>
        <time>2018-09-13T10:35:39Z</time>
      </trkpt>
      <trkpt lat="45.92867" lon="4.74053">
        <ele>172</ele>
        <time>2018-09-13T10:35:40Z</time>
      </trkpt>
      <trkpt lat="45.92871" lon="4.74049">
        <ele>172</ele>
        <time>2018-09-13T10:35:41Z</time>
      </trkpt>
      <trkpt lat="45.92877" lon="4.74042">
        <ele>172</ele>
        <time>2018-09-13T10:35:43Z</time>
      </trkpt>
      <trkpt lat="45.92881" lon="4.7404">
        <ele>172</ele>
        <time>2018-09-13T10:35:44Z</time>
      </trkpt>
      <trkpt lat="45.92885" lon="4.7404">
        <ele>172</ele>
        <time>2018-09-13T10:35:45Z</time>
      </trkpt>
      <trkpt lat="45.9289" lon="4.74042">
        <ele>172</ele>
        <time>2018-09-13T10:35:46Z</time>
      </trkpt>
      <trkpt lat="45.92895" lon="4.74043">
        <ele>172</ele>
        <time>2018-09-13T10:35:47Z</time>
      </trkpt>
      <trkpt lat="45.92899" lon="4.74042">
        <ele>172</ele>
        <time>2018-09-13T10:35:48Z</time>
      </trkpt>
      <trkpt lat="45.92904" lon="4.7404">
        <ele>172</ele>
        <time>2018-09-13T10:35:49Z</time>
      </trkpt>
      <trkpt lat="45.92908" lon="4.74038">
        <ele>172</ele>
        <time>2018-09-13T10:35:50Z</time>
      </trkpt>
      <trkpt lat="45.92911" lon="4.74034">
        <ele>172</ele>
        <time>2018-09-13T10:35:51Z</time>
      </trkpt>
      <trkpt lat="45.92915" lon="4.74028">
        <ele>172</ele>
        <time>2018-09-13T10:35:52Z</time>
      </trkpt>
      <trkpt lat="45.92919" lon="4.74017">
        <ele>172</ele>
        <time>2018-09-13T10:35:53Z</time>
      </trkpt>
      <trkpt lat="45.9292" lon="4.74012">
        <ele>172</ele>
        <time>2018-09-13T10:35:54Z</time>
      </trkpt>
      <trkpt lat="45.92922" lon="4.74004">
        <ele>172</ele>
        <time>2018-09-13T10:35:55Z</time>
      </trkpt>
      <trkpt lat="45.9292" lon="4.73996">
        <ele>172</ele>
        <time>2018-09-13T10:35:56Z</time>
      </trkpt>
      <trkpt lat="45.92915" lon="4.73989">
        <ele>172</ele>
        <time>2018-09-13T10:35:58Z</time>
      </trkpt>
      <trkpt lat="45.92911" lon="4.73985">
        <ele>172</ele>
        <time>2018-09-13T10:35:59Z</time>
      </trkpt>
      <trkpt lat="45.92904" lon="4.73979">
        <ele>172</ele>
        <time>2018-09-13T10:36:01Z</time>
      </trkpt>
      <trkpt lat="45.929" lon="4.73977">
        <ele>172</ele>
        <time>2018-09-13T10:36:02Z</time>
      </trkpt>
      <trkpt lat="45.92895" lon="4.73973">
        <ele>172</ele>
        <time>2018-09-13T10:36:03Z</time>
      </trkpt>
      <trkpt lat="45.9289" lon="4.73968">
        <ele>172</ele>
        <time>2018-09-13T10:36:04Z</time>
      </trkpt>
      <trkpt lat="45.92889" lon="4.7396">
        <ele>172</ele>
        <time>2018-09-13T10:36:05Z</time>
      </trkpt>
      <trkpt lat="45.92888" lon="4.73952">
        <ele>172</ele>
        <time>2018-09-13T10:36:06Z</time>
      </trkpt>
      <trkpt lat="45.92889" lon="4.73943">
        <ele>172</ele>
        <time>2018-09-13T10:36:07Z</time>
      </trkpt>
      <trkpt lat="45.92888" lon="4.73934">
        <ele>172</ele>
        <time>2018-09-13T10:36:08Z</time>
      </trkpt>
      <trkpt lat="45.92887" lon="4.73923">
        <ele>172</ele>
        <time>2018-09-13T10:36:09Z</time>
      </trkpt>
      <trkpt lat="45.92887" lon="4.73913">
        <ele>173</ele>
        <time>2018-09-13T10:36:10Z</time>
      </trkpt>
      <trkpt lat="45.92886" lon="4.73904">
        <ele>173</ele>
        <time>2018-09-13T10:36:11Z</time>
      </trkpt>
      <trkpt lat="45.92885" lon="4.73895">
        <ele>173</ele>
        <time>2018-09-13T10:36:12Z</time>
      </trkpt>
      <trkpt lat="45.92884" lon="4.73886">
        <ele>173</ele>
        <time>2018-09-13T10:36:13Z</time>
      </trkpt>
      <trkpt lat="45.92882" lon="4.73877">
        <ele>173</ele>
        <time>2018-09-13T10:36:14Z</time>
      </trkpt>
      <trkpt lat="45.9288" lon="4.73869">
        <ele>173</ele>
        <time>2018-09-13T10:36:15Z</time>
      </trkpt>
      <trkpt lat="45.92878" lon="4.7386">
        <ele>173</ele>
        <time>2018-09-13T10:36:16Z</time>
      </trkpt>
      <trkpt lat="45.92876" lon="4.73852">
        <ele>173</ele>
        <time>2018-09-13T10:36:17Z</time>
      </trkpt>
      <trkpt lat="45.92875" lon="4.73844">
        <ele>173</ele>
        <time>2018-09-13T10:36:18Z</time>
      </trkpt>
      <trkpt lat="45.9287" lon="4.73838">
        <ele>173</ele>
        <time>2018-09-13T10:36:19Z</time>
      </trkpt>
      <trkpt lat="45.92869" lon="4.73829">
        <ele>173</ele>
        <time>2018-09-13T10:36:20Z</time>
      </trkpt>
      <trkpt lat="45.92866" lon="4.73822">
        <ele>173</ele>
        <time>2018-09-13T10:36:21Z</time>
      </trkpt>
      <trkpt lat="45.92864" lon="4.73815">
        <ele>173</ele>
        <time>2018-09-13T10:36:22Z</time>
      </trkpt>
      <trkpt lat="45.92863" lon="4.73809">
        <ele>173</ele>
        <time>2018-09-13T10:36:23Z</time>
      </trkpt>
      <trkpt lat="45.92859" lon="4.73802">
        <ele>173</ele>
        <time>2018-09-13T10:36:24Z</time>
      </trkpt>
      <trkpt lat="45.92857" lon="4.73797">
        <ele>173</ele>
        <time>2018-09-13T10:36:25Z</time>
      </trkpt>
      <trkpt lat="45.92853" lon="4.73792">
        <ele>173</ele>
        <time>2018-09-13T10:36:26Z</time>
      </trkpt>
      <trkpt lat="45.92849" lon="4.73789">
        <ele>173</ele>
        <time>2018-09-13T10:36:27Z</time>
      </trkpt>
      <trkpt lat="45.92845" lon="4.73786">
        <ele>173</ele>
        <time>2018-09-13T10:36:28Z</time>
      </trkpt>
      <trkpt lat="45.92839" lon="4.7378">
        <ele>173</ele>
        <time>2018-09-13T10:36:30Z</time>
      </trkpt>
      <trkpt lat="45.92836" lon="4.73777">
        <ele>172</ele>
        <time>2018-09-13T10:36:31Z</time>
      </trkpt>
      <trkpt lat="45.92831" lon="4.73773">
        <ele>173</ele>
        <time>2018-09-13T10:36:33Z</time>
      </trkpt>
      <trkpt lat="45.92824" lon="4.73768">
        <ele>172</ele>
        <time>2018-09-13T10:36:34Z</time>
      </trkpt>
      <trkpt lat="45.92816" lon="4.73763">
        <ele>172</ele>
        <time>2018-09-13T10:36:39Z</time>
      </trkpt>
      <trkpt lat="45.92814" lon="4.73761">
        <ele>172</ele>
        <time>2018-09-13T10:36:40Z</time>
      </trkpt>
      <trkpt lat="45.9281" lon="4.73757">
        <ele>173</ele>
        <time>2018-09-13T10:36:42Z</time>
      </trkpt>
      <trkpt lat="45.92803" lon="4.7375">
        <ele>173</ele>
        <time>2018-09-13T10:36:43Z</time>
      </trkpt>
      <trkpt lat="45.92795" lon="4.73747">
        <ele>172</ele>
        <time>2018-09-13T10:36:45Z</time>
      </trkpt>
      <trkpt lat="45.92792" lon="4.73745">
        <ele>172</ele>
        <time>2018-09-13T10:36:46Z</time>
      </trkpt>
      <trkpt lat="45.92785" lon="4.73737">
        <ele>172</ele>
        <time>2018-09-13T10:36:48Z</time>
      </trkpt>
      <trkpt lat="45.92782" lon="4.73733">
        <ele>172</ele>
        <time>2018-09-13T10:36:49Z</time>
      </trkpt>
      <trkpt lat="45.92775" lon="4.73726">
        <ele>172</ele>
        <time>2018-09-13T10:36:51Z</time>
      </trkpt>
      <trkpt lat="45.92771" lon="4.73723">
        <ele>172</ele>
        <time>2018-09-13T10:36:52Z</time>
      </trkpt>
      <trkpt lat="45.92764" lon="4.73723">
        <ele>172</ele>
        <time>2018-09-13T10:36:53Z</time>
      </trkpt>
      <trkpt lat="45.9276" lon="4.73721">
        <ele>172</ele>
        <time>2018-09-13T10:36:54Z</time>
      </trkpt>
      <trkpt lat="45.92752" lon="4.73719">
        <ele>172</ele>
        <time>2018-09-13T10:36:56Z</time>
      </trkpt>
      <trkpt lat="45.92746" lon="4.73718">
        <ele>173</ele>
        <time>2018-09-13T10:36:57Z</time>
      </trkpt>
      <trkpt lat="45.9274" lon="4.73716">
        <ele>173</ele>
        <time>2018-09-13T10:36:58Z</time>
      </trkpt>
      <trkpt lat="45.92735" lon="4.73716">
        <ele>173</ele>
        <time>2018-09-13T10:36:59Z</time>
      </trkpt>
      <trkpt lat="45.92731" lon="4.73715">
        <ele>173</ele>
        <time>2018-09-13T10:37:00Z</time>
      </trkpt>
      <trkpt lat="45.92726" lon="4.73713">
        <ele>173</ele>
        <time>2018-09-13T10:37:01Z</time>
      </trkpt>
      <trkpt lat="45.92721" lon="4.73712">
        <ele>173</ele>
        <time>2018-09-13T10:37:02Z</time>
      </trkpt>
      <trkpt lat="45.92717" lon="4.7371">
        <ele>173</ele>
        <time>2018-09-13T10:37:03Z</time>
      </trkpt>
      <trkpt lat="45.92713" lon="4.73709">
        <ele>173</ele>
        <time>2018-09-13T10:37:04Z</time>
      </trkpt>
      <trkpt lat="45.92708" lon="4.73709">
        <ele>173</ele>
        <time>2018-09-13T10:37:05Z</time>
      </trkpt>
      <trkpt lat="45.92703" lon="4.73709">
        <ele>173</ele>
        <time>2018-09-13T10:37:06Z</time>
      </trkpt>
      <trkpt lat="45.92698" lon="4.73708">
        <ele>173</ele>
        <time>2018-09-13T10:37:07Z</time>
      </trkpt>
      <trkpt lat="45.92693" lon="4.73708">
        <ele>173</ele>
        <time>2018-09-13T10:37:08Z</time>
      </trkpt>
      <trkpt lat="45.9268" lon="4.73707">
        <ele>173</ele>
        <time>2018-09-13T10:37:09Z</time>
      </trkpt>
      <trkpt lat="45.92676" lon="4.73705">
        <ele>173</ele>
        <time>2018-09-13T10:37:10Z</time>
      </trkpt>
      <trkpt lat="45.92671" lon="4.73702">
        <ele>174</ele>
        <time>2018-09-13T10:37:11Z</time>
      </trkpt>
      <trkpt lat="45.92666" lon="4.737">
        <ele>173</ele>
        <time>2018-09-13T10:37:12Z</time>
      </trkpt>
      <trkpt lat="45.92659" lon="4.73698">
        <ele>173</ele>
        <time>2018-09-13T10:37:13Z</time>
      </trkpt>
      <trkpt lat="45.92654" lon="4.73693">
        <ele>173</ele>
        <time>2018-09-13T10:37:14Z</time>
      </trkpt>
      <trkpt lat="45.92649" lon="4.73689">
        <ele>173</ele>
        <time>2018-09-13T10:37:15Z</time>
      </trkpt>
      <trkpt lat="45.92646" lon="4.73685">
        <ele>173</ele>
        <time>2018-09-13T10:37:16Z</time>
      </trkpt>
      <trkpt lat="45.92641" lon="4.7368">
        <ele>173</ele>
        <time>2018-09-13T10:37:17Z</time>
      </trkpt>
      <trkpt lat="45.92637" lon="4.73675">
        <ele>173</ele>
        <time>2018-09-13T10:37:18Z</time>
      </trkpt>
      <trkpt lat="45.92635" lon="4.7367">
        <ele>173</ele>
        <time>2018-09-13T10:37:19Z</time>
      </trkpt>
      <trkpt lat="45.92631" lon="4.73664">
        <ele>173</ele>
        <time>2018-09-13T10:37:20Z</time>
      </trkpt>
      <trkpt lat="45.9263" lon="4.73658">
        <ele>173</ele>
        <time>2018-09-13T10:37:21Z</time>
      </trkpt>
      <trkpt lat="45.92627" lon="4.73653">
        <ele>173</ele>
        <time>2018-09-13T10:37:22Z</time>
      </trkpt>
      <trkpt lat="45.92622" lon="4.73649">
        <ele>173</ele>
        <time>2018-09-13T10:37:23Z</time>
      </trkpt>
      <trkpt lat="45.9262" lon="4.73644">
        <ele>173</ele>
        <time>2018-09-13T10:37:24Z</time>
      </trkpt>
      <trkpt lat="45.92618" lon="4.73638">
        <ele>173</ele>
        <time>2018-09-13T10:37:25Z</time>
      </trkpt>
      <trkpt lat="45.92611" lon="4.7363">
        <ele>173</ele>
        <time>2018-09-13T10:37:27Z</time>
      </trkpt>
      <trkpt lat="45.92606" lon="4.73627">
        <ele>173</ele>
        <time>2018-09-13T10:37:28Z</time>
      </trkpt>
      <trkpt lat="45.92597" lon="4.73624">
        <ele>173</ele>
        <time>2018-09-13T10:37:30Z</time>
      </trkpt>
      <trkpt lat="45.92592" lon="4.73624">
        <ele>173</ele>
        <time>2018-09-13T10:37:31Z</time>
      </trkpt>
      <trkpt lat="45.92587" lon="4.73624">
        <ele>172</ele>
        <time>2018-09-13T10:37:32Z</time>
      </trkpt>
      <trkpt lat="45.92582" lon="4.73625">
        <ele>173</ele>
        <time>2018-09-13T10:37:33Z</time>
      </trkpt>
      <trkpt lat="45.92573" lon="4.73629">
        <ele>173</ele>
        <time>2018-09-13T10:37:35Z</time>
      </trkpt>
      <trkpt lat="45.92569" lon="4.73631">
        <ele>173</ele>
        <time>2018-09-13T10:37:36Z</time>
      </trkpt>
      <trkpt lat="45.92565" lon="4.73632">
        <ele>173</ele>
        <time>2018-09-13T10:37:37Z</time>
      </trkpt>
      <trkpt lat="45.9256" lon="4.73636">
        <ele>173</ele>
        <time>2018-09-13T10:37:38Z</time>
      </trkpt>
      <trkpt lat="45.92555" lon="4.73637">
        <ele>173</ele>
        <time>2018-09-13T10:37:39Z</time>
      </trkpt>
      <trkpt lat="45.9255" lon="4.73638">
        <ele>173</ele>
        <time>2018-09-13T10:37:40Z</time>
      </trkpt>
      <trkpt lat="45.92544" lon="4.7364">
        <ele>173</ele>
        <time>2018-09-13T10:37:41Z</time>
      </trkpt>
      <trkpt lat="45.9254" lon="4.73639">
        <ele>173</ele>
        <time>2018-09-13T10:37:42Z</time>
      </trkpt>
      <trkpt lat="45.92535" lon="4.73639">
        <ele>173</ele>
        <time>2018-09-13T10:37:43Z</time>
      </trkpt>
      <trkpt lat="45.9253" lon="4.73639">
        <ele>173</ele>
        <time>2018-09-13T10:37:44Z</time>
      </trkpt>
      <trkpt lat="45.92522" lon="4.73638">
        <ele>173</ele>
        <time>2018-09-13T10:37:46Z</time>
      </trkpt>
      <trkpt lat="45.92518" lon="4.73638">
        <ele>173</ele>
        <time>2018-09-13T10:37:47Z</time>
      </trkpt>
      <trkpt lat="45.92509" lon="4.73637">
        <ele>174</ele>
        <time>2018-09-13T10:37:49Z</time>
      </trkpt>
      <trkpt lat="45.92507" lon="4.73634">
        <ele>174</ele>
        <time>2018-09-13T10:37:50Z</time>
      </trkpt>
      <trkpt lat="45.92501" lon="4.73635">
        <ele>174</ele>
        <time>2018-09-13T10:37:51Z</time>
      </trkpt>
      <trkpt lat="45.92496" lon="4.73634">
        <ele>174</ele>
        <time>2018-09-13T10:37:52Z</time>
      </trkpt>
      <trkpt lat="45.92489" lon="4.73635">
        <ele>174</ele>
        <time>2018-09-13T10:37:54Z</time>
      </trkpt>
      <trkpt lat="45.92485" lon="4.73634">
        <ele>174</ele>
        <time>2018-09-13T10:37:55Z</time>
      </trkpt>
      <trkpt lat="45.92478" lon="4.73637">
        <ele>174</ele>
        <time>2018-09-13T10:37:57Z</time>
      </trkpt>
      <trkpt lat="45.92472" lon="4.73643">
        <ele>174</ele>
        <time>2018-09-13T10:37:58Z</time>
      </trkpt>
      <trkpt lat="45.92468" lon="4.73651">
        <ele>174</ele>
        <time>2018-09-13T10:38:00Z</time>
      </trkpt>
      <trkpt lat="45.92468" lon="4.73657">
        <ele>174</ele>
        <time>2018-09-13T10:38:01Z</time>
      </trkpt>
      <trkpt lat="45.92468" lon="4.73668">
        <ele>174</ele>
        <time>2018-09-13T10:38:03Z</time>
      </trkpt>
      <trkpt lat="45.92467" lon="4.73674">
        <ele>174</ele>
        <time>2018-09-13T10:38:04Z</time>
      </trkpt>
      <trkpt lat="45.92467" lon="4.73687">
        <ele>174</ele>
        <time>2018-09-13T10:38:07Z</time>
      </trkpt>
      <trkpt lat="45.92466" lon="4.7369">
        <ele>174</ele>
        <time>2018-09-13T10:38:08Z</time>
      </trkpt>
      <trkpt lat="45.92463" lon="4.737">
        <ele>174</ele>
        <time>2018-09-13T10:38:11Z</time>
      </trkpt>
      <trkpt lat="45.92463" lon="4.73703">
        <ele>174</ele>
        <time>2018-09-13T10:38:12Z</time>
      </trkpt>
      <trkpt lat="45.92457" lon="4.73711">
        <ele>174</ele>
        <time>2018-09-13T10:38:49.732Z</time>
      </trkpt>
    </trkseg>
  </trk>
</gpx>